<?xml version="1.0" encoding="UTF-8"?>
<gpx version="1.1" creator="https://www.youtrack.es" xsi:schemaLocation="http://www.topografix.com/GPX/1/1 http://www.topografix.com/GPX/1/1/gpx.xsd http://www.garmin.com/xmlschemas/GpxExtensions/v3 http://www.garmin.com/xmlschemas/GpxExtensionsv3.xsd http://www.garmin.com/xmlschemas/TrackPointExtension/v1 http://www.garmin.com/xmlschemas/TrackPointExtensionv1.xsd" xmlns:gpxtpx="http://www.garmin.com/xmlschemas/TrackPointExtension/v1" xmlns:gpxx="http://www.garmin.com/xmlschemas/GpxExtensions/v3" xmlns:xsi="http://www.w3.org/2001/XMLSchema-instance">
  <metadata>
    <author>
      <name>Miguel Ángel Parra</name>
      <email id="kaisermig" domain="gmail.com"/>
    </author>
    <link href="https://www.youtrack.es">
      <text>YouTrack.es</text>
    </link>
    <time>2026-05-08T04:51:43Z</time>
  </metadata>
  <trk>
    <src>https://www.youtrack.es</src>
    <link href="https://www.youtrack.es/ruta/5991-salimos-de-tranquis-y-se-nos-fue-de-las-manos-">
      <text>YouTrack.es</text>
    </link>
    <trkseg>
      <trkpt lat="41.6263830" lon="-4.7778030">
        <ele>1186.8</ele>
        <time>2019-05-25T10:28:52Z</time>
      </trkpt>
      <trkpt lat="41.6263300" lon="-4.7777980">
        <ele>964.4</ele>
        <time>2019-05-25T10:28:53Z</time>
      </trkpt>
      <trkpt lat="41.6262840" lon="-4.7777830">
        <ele>852.4</ele>
        <time>2019-05-25T10:28:54Z</time>
      </trkpt>
      <trkpt lat="41.6262280" lon="-4.7777740">
        <ele>796.2</ele>
        <time>2019-05-25T10:28:55Z</time>
      </trkpt>
      <trkpt lat="41.6261720" lon="-4.7777660">
        <ele>767.4</ele>
        <time>2019-05-25T10:28:56Z</time>
      </trkpt>
      <trkpt lat="41.6261150" lon="-4.7777620">
        <ele>752.8</ele>
        <time>2019-05-25T10:28:57Z</time>
      </trkpt>
      <trkpt lat="41.6260530" lon="-4.7777640">
        <ele>745.2</ele>
        <time>2019-05-25T10:28:58Z</time>
      </trkpt>
      <trkpt lat="41.6259830" lon="-4.7777540">
        <ele>741.4</ele>
        <time>2019-05-25T10:28:59Z</time>
      </trkpt>
      <trkpt lat="41.6259210" lon="-4.7777420">
        <ele>739.4</ele>
        <time>2019-05-25T10:29:00Z</time>
      </trkpt>
      <trkpt lat="41.6258580" lon="-4.7777310">
        <ele>738.2</ele>
        <time>2019-05-25T10:29:01Z</time>
      </trkpt>
      <trkpt lat="41.6257320" lon="-4.7777130">
        <ele>734.6</ele>
        <time>2019-05-25T10:29:03Z</time>
      </trkpt>
      <trkpt lat="41.6256720" lon="-4.7777030">
        <ele>736.8</ele>
        <time>2019-05-25T10:29:04Z</time>
      </trkpt>
      <trkpt lat="41.6253570" lon="-4.7776570">
        <ele>737.2</ele>
        <time>2019-05-25T10:29:10Z</time>
      </trkpt>
      <trkpt lat="41.6253070" lon="-4.7776430">
        <ele>737.4</ele>
        <time>2019-05-25T10:29:11Z</time>
      </trkpt>
      <trkpt lat="41.6251120" lon="-4.7775540">
        <ele>737.4</ele>
        <time>2019-05-25T10:29:15Z</time>
      </trkpt>
      <trkpt lat="41.6249650" lon="-4.7774780">
        <ele>737.0</ele>
        <time>2019-05-25T10:29:18Z</time>
      </trkpt>
      <trkpt lat="41.6247910" lon="-4.7773780">
        <ele>737.2</ele>
        <time>2019-05-25T10:29:22Z</time>
      </trkpt>
      <trkpt lat="41.6247030" lon="-4.7773190">
        <ele>737.0</ele>
        <time>2019-05-25T10:29:25Z</time>
      </trkpt>
      <trkpt lat="41.6246780" lon="-4.7773260">
        <ele>737.0</ele>
        <time>2019-05-25T10:29:26Z</time>
      </trkpt>
      <trkpt lat="41.6246550" lon="-4.7773580">
        <ele>737.0</ele>
        <time>2019-05-25T10:29:27Z</time>
      </trkpt>
      <trkpt lat="41.6246230" lon="-4.7774580">
        <ele>737.2</ele>
        <time>2019-05-25T10:29:29Z</time>
      </trkpt>
      <trkpt lat="41.6246040" lon="-4.7775160">
        <ele>737.0</ele>
        <time>2019-05-25T10:29:30Z</time>
      </trkpt>
      <trkpt lat="41.6245390" lon="-4.7776960">
        <ele>737.0</ele>
        <time>2019-05-25T10:29:33Z</time>
      </trkpt>
      <trkpt lat="41.6244980" lon="-4.7778220">
        <ele>737.2</ele>
        <time>2019-05-25T10:29:35Z</time>
      </trkpt>
      <trkpt lat="41.6243200" lon="-4.7783480">
        <ele>737.2</ele>
        <time>2019-05-25T10:29:43Z</time>
      </trkpt>
      <trkpt lat="41.6241770" lon="-4.7787560">
        <ele>737.0</ele>
        <time>2019-05-25T10:29:48Z</time>
      </trkpt>
      <trkpt lat="41.6241160" lon="-4.7789360">
        <ele>736.4</ele>
        <time>2019-05-25T10:29:50Z</time>
      </trkpt>
      <trkpt lat="41.6240570" lon="-4.7791120">
        <ele>735.6</ele>
        <time>2019-05-25T10:29:52Z</time>
      </trkpt>
      <trkpt lat="41.6240320" lon="-4.7791890">
        <ele>735.2</ele>
        <time>2019-05-25T10:29:53Z</time>
      </trkpt>
      <trkpt lat="41.6239850" lon="-4.7793190">
        <ele>734.4</ele>
        <time>2019-05-25T10:29:55Z</time>
      </trkpt>
      <trkpt lat="41.6239650" lon="-4.7793730">
        <ele>734.0</ele>
        <time>2019-05-25T10:29:56Z</time>
      </trkpt>
      <trkpt lat="41.6239280" lon="-4.7794820">
        <ele>732.6</ele>
        <time>2019-05-25T10:29:59Z</time>
      </trkpt>
      <trkpt lat="41.6239060" lon="-4.7795800">
        <ele>731.4</ele>
        <time>2019-05-25T10:30:02Z</time>
      </trkpt>
      <trkpt lat="41.6239310" lon="-4.7796770">
        <ele>730.6</ele>
        <time>2019-05-25T10:30:04Z</time>
      </trkpt>
      <trkpt lat="41.6239430" lon="-4.7797340">
        <ele>730.4</ele>
        <time>2019-05-25T10:30:05Z</time>
      </trkpt>
      <trkpt lat="41.6239450" lon="-4.7797970">
        <ele>730.0</ele>
        <time>2019-05-25T10:30:06Z</time>
      </trkpt>
      <trkpt lat="41.6239340" lon="-4.7798590">
        <ele>729.8</ele>
        <time>2019-05-25T10:30:07Z</time>
      </trkpt>
      <trkpt lat="41.6238660" lon="-4.7799650">
        <ele>729.6</ele>
        <time>2019-05-25T10:30:09Z</time>
      </trkpt>
      <trkpt lat="41.6238150" lon="-4.7800060">
        <ele>729.6</ele>
        <time>2019-05-25T10:30:10Z</time>
      </trkpt>
      <trkpt lat="41.6237600" lon="-4.7800480">
        <ele>729.6</ele>
        <time>2019-05-25T10:30:11Z</time>
      </trkpt>
      <trkpt lat="41.6237130" lon="-4.7801080">
        <ele>729.4</ele>
        <time>2019-05-25T10:30:12Z</time>
      </trkpt>
      <trkpt lat="41.6236790" lon="-4.7801910">
        <ele>729.4</ele>
        <time>2019-05-25T10:30:13Z</time>
      </trkpt>
      <trkpt lat="41.6235950" lon="-4.7804580">
        <ele>729.2</ele>
        <time>2019-05-25T10:30:16Z</time>
      </trkpt>
      <trkpt lat="41.6235060" lon="-4.7807220">
        <ele>728.6</ele>
        <time>2019-05-25T10:30:19Z</time>
      </trkpt>
      <trkpt lat="41.6234190" lon="-4.7809740">
        <ele>728.4</ele>
        <time>2019-05-25T10:30:22Z</time>
      </trkpt>
      <trkpt lat="41.6231720" lon="-4.7816900">
        <ele>728.4</ele>
        <time>2019-05-25T10:30:31Z</time>
      </trkpt>
      <trkpt lat="41.6231470" lon="-4.7817680">
        <ele>728.2</ele>
        <time>2019-05-25T10:30:32Z</time>
      </trkpt>
      <trkpt lat="41.6230440" lon="-4.7820820">
        <ele>728.2</ele>
        <time>2019-05-25T10:30:36Z</time>
      </trkpt>
      <trkpt lat="41.6229640" lon="-4.7823120">
        <ele>728.6</ele>
        <time>2019-05-25T10:30:39Z</time>
      </trkpt>
      <trkpt lat="41.6228890" lon="-4.7825300">
        <ele>728.8</ele>
        <time>2019-05-25T10:30:42Z</time>
      </trkpt>
      <trkpt lat="41.6228210" lon="-4.7827280">
        <ele>728.8</ele>
        <time>2019-05-25T10:30:45Z</time>
      </trkpt>
      <trkpt lat="41.6227440" lon="-4.7829590">
        <ele>729.4</ele>
        <time>2019-05-25T10:30:49Z</time>
      </trkpt>
      <trkpt lat="41.6227100" lon="-4.7830550">
        <ele>729.8</ele>
        <time>2019-05-25T10:30:51Z</time>
      </trkpt>
      <trkpt lat="41.6226620" lon="-4.7831940">
        <ele>730.8</ele>
        <time>2019-05-25T10:30:54Z</time>
      </trkpt>
      <trkpt lat="41.6226460" lon="-4.7832400">
        <ele>731.0</ele>
        <time>2019-05-25T10:30:55Z</time>
      </trkpt>
      <trkpt lat="41.6226010" lon="-4.7833750">
        <ele>731.8</ele>
        <time>2019-05-25T10:30:58Z</time>
      </trkpt>
      <trkpt lat="41.6225540" lon="-4.7835060">
        <ele>733.0</ele>
        <time>2019-05-25T10:31:01Z</time>
      </trkpt>
      <trkpt lat="41.6225110" lon="-4.7836390">
        <ele>734.0</ele>
        <time>2019-05-25T10:31:04Z</time>
      </trkpt>
      <trkpt lat="41.6224690" lon="-4.7837640">
        <ele>735.0</ele>
        <time>2019-05-25T10:31:07Z</time>
      </trkpt>
      <trkpt lat="41.6224250" lon="-4.7838880">
        <ele>736.4</ele>
        <time>2019-05-25T10:31:10Z</time>
      </trkpt>
      <trkpt lat="41.6223640" lon="-4.7840690">
        <ele>737.2</ele>
        <time>2019-05-25T10:31:14Z</time>
      </trkpt>
      <trkpt lat="41.6223300" lon="-4.7841700">
        <ele>737.2</ele>
        <time>2019-05-25T10:31:16Z</time>
      </trkpt>
      <trkpt lat="41.6223130" lon="-4.7842200">
        <ele>737.4</ele>
        <time>2019-05-25T10:31:17Z</time>
      </trkpt>
      <trkpt lat="41.6222510" lon="-4.7843690">
        <ele>737.4</ele>
        <time>2019-05-25T10:31:20Z</time>
      </trkpt>
      <trkpt lat="41.6221740" lon="-4.7845100">
        <ele>737.4</ele>
        <time>2019-05-25T10:31:23Z</time>
      </trkpt>
      <trkpt lat="41.6221380" lon="-4.7846110">
        <ele>737.6</ele>
        <time>2019-05-25T10:31:25Z</time>
      </trkpt>
      <trkpt lat="41.6220770" lon="-4.7847850">
        <ele>737.8</ele>
        <time>2019-05-25T10:31:29Z</time>
      </trkpt>
      <trkpt lat="41.6220630" lon="-4.7848210">
        <ele>737.6</ele>
        <time>2019-05-25T10:31:30Z</time>
      </trkpt>
      <trkpt lat="41.6220320" lon="-4.7849130">
        <ele>737.8</ele>
        <time>2019-05-25T10:31:33Z</time>
      </trkpt>
      <trkpt lat="41.6220130" lon="-4.7849730">
        <ele>737.8</ele>
        <time>2019-05-25T10:31:35Z</time>
      </trkpt>
      <trkpt lat="41.6220020" lon="-4.7849930">
        <ele>737.6</ele>
        <time>2019-05-25T10:32:06Z</time>
      </trkpt>
      <trkpt lat="41.6219910" lon="-4.7850140">
        <ele>737.6</ele>
        <time>2019-05-25T10:32:07Z</time>
      </trkpt>
      <trkpt lat="41.6219720" lon="-4.7850560">
        <ele>737.6</ele>
        <time>2019-05-25T10:32:08Z</time>
      </trkpt>
      <trkpt lat="41.6218470" lon="-4.7851030">
        <ele>737.6</ele>
        <time>2019-05-25T10:32:11Z</time>
      </trkpt>
      <trkpt lat="41.6217130" lon="-4.7849650">
        <ele>737.6</ele>
        <time>2019-05-25T10:32:14Z</time>
      </trkpt>
      <trkpt lat="41.6215850" lon="-4.7847770">
        <ele>737.6</ele>
        <time>2019-05-25T10:32:17Z</time>
      </trkpt>
      <trkpt lat="41.6213640" lon="-4.7844550">
        <ele>737.0</ele>
        <time>2019-05-25T10:32:22Z</time>
      </trkpt>
      <trkpt lat="41.6212330" lon="-4.7842710">
        <ele>736.2</ele>
        <time>2019-05-25T10:32:25Z</time>
      </trkpt>
      <trkpt lat="41.6210540" lon="-4.7840280">
        <ele>735.2</ele>
        <time>2019-05-25T10:32:29Z</time>
      </trkpt>
      <trkpt lat="41.6209570" lon="-4.7839260">
        <ele>734.4</ele>
        <time>2019-05-25T10:32:31Z</time>
      </trkpt>
      <trkpt lat="41.6208580" lon="-4.7838470">
        <ele>734.2</ele>
        <time>2019-05-25T10:32:33Z</time>
      </trkpt>
      <trkpt lat="41.6206470" lon="-4.7837150">
        <ele>732.8</ele>
        <time>2019-05-25T10:32:37Z</time>
      </trkpt>
      <trkpt lat="41.6205930" lon="-4.7836830">
        <ele>732.4</ele>
        <time>2019-05-25T10:32:38Z</time>
      </trkpt>
      <trkpt lat="41.6204830" lon="-4.7836160">
        <ele>732.2</ele>
        <time>2019-05-25T10:32:40Z</time>
      </trkpt>
      <trkpt lat="41.6202580" lon="-4.7834680">
        <ele>731.4</ele>
        <time>2019-05-25T10:32:44Z</time>
      </trkpt>
      <trkpt lat="41.6201420" lon="-4.7833980">
        <ele>730.8</ele>
        <time>2019-05-25T10:32:46Z</time>
      </trkpt>
      <trkpt lat="41.6200240" lon="-4.7833280">
        <ele>730.0</ele>
        <time>2019-05-25T10:32:48Z</time>
      </trkpt>
      <trkpt lat="41.6198510" lon="-4.7832360">
        <ele>728.8</ele>
        <time>2019-05-25T10:32:52Z</time>
      </trkpt>
      <trkpt lat="41.6198140" lon="-4.7832500">
        <ele>728.0</ele>
        <time>2019-05-25T10:32:54Z</time>
      </trkpt>
      <trkpt lat="41.6197990" lon="-4.7832740">
        <ele>727.8</ele>
        <time>2019-05-25T10:32:55Z</time>
      </trkpt>
      <trkpt lat="41.6197340" lon="-4.7833360">
        <ele>727.8</ele>
        <time>2019-05-25T10:32:59Z</time>
      </trkpt>
      <trkpt lat="41.6197090" lon="-4.7833260">
        <ele>727.8</ele>
        <time>2019-05-25T10:33:00Z</time>
      </trkpt>
      <trkpt lat="41.6195680" lon="-4.7832520">
        <ele>727.6</ele>
        <time>2019-05-25T10:33:05Z</time>
      </trkpt>
      <trkpt lat="41.6195360" lon="-4.7832690">
        <ele>727.8</ele>
        <time>2019-05-25T10:33:06Z</time>
      </trkpt>
      <trkpt lat="41.6194900" lon="-4.7833440">
        <ele>727.8</ele>
        <time>2019-05-25T10:33:08Z</time>
      </trkpt>
      <trkpt lat="41.6194760" lon="-4.7833900">
        <ele>727.6</ele>
        <time>2019-05-25T10:33:09Z</time>
      </trkpt>
      <trkpt lat="41.6194350" lon="-4.7835220">
        <ele>728.0</ele>
        <time>2019-05-25T10:33:12Z</time>
      </trkpt>
      <trkpt lat="41.6194050" lon="-4.7836080">
        <ele>728.0</ele>
        <time>2019-05-25T10:33:14Z</time>
      </trkpt>
      <trkpt lat="41.6193740" lon="-4.7836950">
        <ele>728.0</ele>
        <time>2019-05-25T10:33:16Z</time>
      </trkpt>
      <trkpt lat="41.6193570" lon="-4.7837380">
        <ele>728.0</ele>
        <time>2019-05-25T10:33:17Z</time>
      </trkpt>
      <trkpt lat="41.6193260" lon="-4.7838260">
        <ele>728.0</ele>
        <time>2019-05-25T10:33:19Z</time>
      </trkpt>
      <trkpt lat="41.6193030" lon="-4.7839150">
        <ele>728.2</ele>
        <time>2019-05-25T10:33:21Z</time>
      </trkpt>
      <trkpt lat="41.6192760" lon="-4.7840040">
        <ele>728.8</ele>
        <time>2019-05-25T10:33:23Z</time>
      </trkpt>
      <trkpt lat="41.6192520" lon="-4.7840960">
        <ele>728.8</ele>
        <time>2019-05-25T10:33:25Z</time>
      </trkpt>
      <trkpt lat="41.6192230" lon="-4.7841880">
        <ele>729.4</ele>
        <time>2019-05-25T10:33:27Z</time>
      </trkpt>
      <trkpt lat="41.6191930" lon="-4.7842790">
        <ele>730.0</ele>
        <time>2019-05-25T10:33:29Z</time>
      </trkpt>
      <trkpt lat="41.6191530" lon="-4.7844160">
        <ele>730.8</ele>
        <time>2019-05-25T10:33:32Z</time>
      </trkpt>
      <trkpt lat="41.6190790" lon="-4.7846350">
        <ele>732.0</ele>
        <time>2019-05-25T10:33:37Z</time>
      </trkpt>
      <trkpt lat="41.6190150" lon="-4.7848000">
        <ele>732.8</ele>
        <time>2019-05-25T10:33:41Z</time>
      </trkpt>
      <trkpt lat="41.6190000" lon="-4.7848410">
        <ele>733.0</ele>
        <time>2019-05-25T10:33:42Z</time>
      </trkpt>
      <trkpt lat="41.6189030" lon="-4.7850720">
        <ele>733.8</ele>
        <time>2019-05-25T10:33:48Z</time>
      </trkpt>
      <trkpt lat="41.6188680" lon="-4.7851460">
        <ele>734.2</ele>
        <time>2019-05-25T10:33:50Z</time>
      </trkpt>
      <trkpt lat="41.6187960" lon="-4.7852920">
        <ele>735.0</ele>
        <time>2019-05-25T10:33:54Z</time>
      </trkpt>
      <trkpt lat="41.6187210" lon="-4.7854280">
        <ele>736.0</ele>
        <time>2019-05-25T10:33:58Z</time>
      </trkpt>
      <trkpt lat="41.6186310" lon="-4.7855830">
        <ele>736.4</ele>
        <time>2019-05-25T10:34:03Z</time>
      </trkpt>
      <trkpt lat="41.6185800" lon="-4.7857240">
        <ele>736.6</ele>
        <time>2019-05-25T10:34:07Z</time>
      </trkpt>
      <trkpt lat="41.6185710" lon="-4.7857970">
        <ele>736.6</ele>
        <time>2019-05-25T10:34:09Z</time>
      </trkpt>
      <trkpt lat="41.6185150" lon="-4.7858210">
        <ele>736.8</ele>
        <time>2019-05-25T10:34:11Z</time>
      </trkpt>
      <trkpt lat="41.6184420" lon="-4.7857840">
        <ele>736.8</ele>
        <time>2019-05-25T10:34:13Z</time>
      </trkpt>
      <trkpt lat="41.6183090" lon="-4.7856900">
        <ele>737.0</ele>
        <time>2019-05-25T10:34:17Z</time>
      </trkpt>
      <trkpt lat="41.6181480" lon="-4.7855910">
        <ele>737.4</ele>
        <time>2019-05-25T10:34:22Z</time>
      </trkpt>
      <trkpt lat="41.6180890" lon="-4.7855480">
        <ele>737.8</ele>
        <time>2019-05-25T10:34:24Z</time>
      </trkpt>
      <trkpt lat="41.6180610" lon="-4.7855280">
        <ele>738.2</ele>
        <time>2019-05-25T10:34:25Z</time>
      </trkpt>
      <trkpt lat="41.6177950" lon="-4.7853550">
        <ele>738.6</ele>
        <time>2019-05-25T10:34:33Z</time>
      </trkpt>
      <trkpt lat="41.6177070" lon="-4.7852960">
        <ele>738.6</ele>
        <time>2019-05-25T10:34:35Z</time>
      </trkpt>
      <trkpt lat="41.6175970" lon="-4.7852850">
        <ele>738.4</ele>
        <time>2019-05-25T10:34:37Z</time>
      </trkpt>
      <trkpt lat="41.6175410" lon="-4.7853160">
        <ele>738.2</ele>
        <time>2019-05-25T10:34:38Z</time>
      </trkpt>
      <trkpt lat="41.6174490" lon="-4.7854370">
        <ele>737.8</ele>
        <time>2019-05-25T10:34:40Z</time>
      </trkpt>
      <trkpt lat="41.6173570" lon="-4.7855770">
        <ele>737.4</ele>
        <time>2019-05-25T10:34:42Z</time>
      </trkpt>
      <trkpt lat="41.6173150" lon="-4.7856490">
        <ele>737.4</ele>
        <time>2019-05-25T10:34:43Z</time>
      </trkpt>
      <trkpt lat="41.6172750" lon="-4.7857950">
        <ele>736.6</ele>
        <time>2019-05-25T10:34:45Z</time>
      </trkpt>
      <trkpt lat="41.6172580" lon="-4.7859060">
        <ele>735.8</ele>
        <time>2019-05-25T10:34:47Z</time>
      </trkpt>
      <trkpt lat="41.6172400" lon="-4.7859530">
        <ele>735.4</ele>
        <time>2019-05-25T10:34:48Z</time>
      </trkpt>
      <trkpt lat="41.6172190" lon="-4.7860000">
        <ele>735.0</ele>
        <time>2019-05-25T10:34:49Z</time>
      </trkpt>
      <trkpt lat="41.6171750" lon="-4.7860980">
        <ele>734.2</ele>
        <time>2019-05-25T10:34:51Z</time>
      </trkpt>
      <trkpt lat="41.6171230" lon="-4.7861870">
        <ele>733.6</ele>
        <time>2019-05-25T10:34:53Z</time>
      </trkpt>
      <trkpt lat="41.6170380" lon="-4.7863130">
        <ele>733.6</ele>
        <time>2019-05-25T10:34:56Z</time>
      </trkpt>
      <trkpt lat="41.6168190" lon="-4.7866200">
        <ele>733.4</ele>
        <time>2019-05-25T10:35:04Z</time>
      </trkpt>
      <trkpt lat="41.6167660" lon="-4.7866910">
        <ele>733.8</ele>
        <time>2019-05-25T10:35:06Z</time>
      </trkpt>
      <trkpt lat="41.6167130" lon="-4.7867640">
        <ele>733.8</ele>
        <time>2019-05-25T10:35:08Z</time>
      </trkpt>
      <trkpt lat="41.6165760" lon="-4.7869420">
        <ele>734.4</ele>
        <time>2019-05-25T10:35:13Z</time>
      </trkpt>
      <trkpt lat="41.6165490" lon="-4.7869790">
        <ele>734.8</ele>
        <time>2019-05-25T10:35:14Z</time>
      </trkpt>
      <trkpt lat="41.6164940" lon="-4.7870500">
        <ele>735.4</ele>
        <time>2019-05-25T10:35:16Z</time>
      </trkpt>
      <trkpt lat="41.6164390" lon="-4.7871210">
        <ele>735.6</ele>
        <time>2019-05-25T10:35:18Z</time>
      </trkpt>
      <trkpt lat="41.6163590" lon="-4.7872300">
        <ele>736.6</ele>
        <time>2019-05-25T10:35:21Z</time>
      </trkpt>
      <trkpt lat="41.6163310" lon="-4.7872660">
        <ele>736.8</ele>
        <time>2019-05-25T10:35:22Z</time>
      </trkpt>
      <trkpt lat="41.6162760" lon="-4.7873380">
        <ele>737.0</ele>
        <time>2019-05-25T10:35:24Z</time>
      </trkpt>
      <trkpt lat="41.6162230" lon="-4.7874100">
        <ele>737.8</ele>
        <time>2019-05-25T10:35:26Z</time>
      </trkpt>
      <trkpt lat="41.6161960" lon="-4.7874460">
        <ele>738.0</ele>
        <time>2019-05-25T10:35:27Z</time>
      </trkpt>
      <trkpt lat="41.6161110" lon="-4.7875520">
        <ele>739.0</ele>
        <time>2019-05-25T10:35:30Z</time>
      </trkpt>
      <trkpt lat="41.6160250" lon="-4.7876600">
        <ele>740.0</ele>
        <time>2019-05-25T10:35:33Z</time>
      </trkpt>
      <trkpt lat="41.6159980" lon="-4.7876960">
        <ele>740.0</ele>
        <time>2019-05-25T10:35:34Z</time>
      </trkpt>
      <trkpt lat="41.6159410" lon="-4.7877650">
        <ele>740.6</ele>
        <time>2019-05-25T10:35:36Z</time>
      </trkpt>
      <trkpt lat="41.6158820" lon="-4.7878320">
        <ele>741.4</ele>
        <time>2019-05-25T10:35:38Z</time>
      </trkpt>
      <trkpt lat="41.6157950" lon="-4.7879330">
        <ele>742.4</ele>
        <time>2019-05-25T10:35:41Z</time>
      </trkpt>
      <trkpt lat="41.6157090" lon="-4.7880300">
        <ele>743.8</ele>
        <time>2019-05-25T10:35:44Z</time>
      </trkpt>
      <trkpt lat="41.6156190" lon="-4.7881230">
        <ele>744.8</ele>
        <time>2019-05-25T10:35:47Z</time>
      </trkpt>
      <trkpt lat="41.6155610" lon="-4.7881850">
        <ele>746.2</ele>
        <time>2019-05-25T10:35:49Z</time>
      </trkpt>
      <trkpt lat="41.6154710" lon="-4.7882730">
        <ele>747.4</ele>
        <time>2019-05-25T10:35:52Z</time>
      </trkpt>
      <trkpt lat="41.6154030" lon="-4.7883100">
        <ele>748.2</ele>
        <time>2019-05-25T10:35:54Z</time>
      </trkpt>
      <trkpt lat="41.6153680" lon="-4.7883200">
        <ele>748.8</ele>
        <time>2019-05-25T10:35:55Z</time>
      </trkpt>
      <trkpt lat="41.6152960" lon="-4.7883480">
        <ele>749.6</ele>
        <time>2019-05-25T10:35:57Z</time>
      </trkpt>
      <trkpt lat="41.6152550" lon="-4.7883740">
        <ele>750.2</ele>
        <time>2019-05-25T10:35:58Z</time>
      </trkpt>
      <trkpt lat="41.6152120" lon="-4.7884200">
        <ele>750.4</ele>
        <time>2019-05-25T10:35:59Z</time>
      </trkpt>
      <trkpt lat="41.6151040" lon="-4.7886610">
        <ele>750.6</ele>
        <time>2019-05-25T10:36:02Z</time>
      </trkpt>
      <trkpt lat="41.6150390" lon="-4.7888550">
        <ele>750.6</ele>
        <time>2019-05-25T10:36:05Z</time>
      </trkpt>
      <trkpt lat="41.6149230" lon="-4.7892770">
        <ele>750.6</ele>
        <time>2019-05-25T10:36:08Z</time>
      </trkpt>
      <trkpt lat="41.6148130" lon="-4.7896020">
        <ele>748.6</ele>
        <time>2019-05-25T10:36:11Z</time>
      </trkpt>
      <trkpt lat="41.6147290" lon="-4.7898140">
        <ele>747.2</ele>
        <time>2019-05-25T10:36:13Z</time>
      </trkpt>
      <trkpt lat="41.6146460" lon="-4.7900140">
        <ele>745.8</ele>
        <time>2019-05-25T10:36:15Z</time>
      </trkpt>
      <trkpt lat="41.6145670" lon="-4.7902030">
        <ele>744.6</ele>
        <time>2019-05-25T10:36:17Z</time>
      </trkpt>
      <trkpt lat="41.6145010" lon="-4.7903920">
        <ele>743.6</ele>
        <time>2019-05-25T10:36:19Z</time>
      </trkpt>
      <trkpt lat="41.6144620" lon="-4.7905970">
        <ele>743.2</ele>
        <time>2019-05-25T10:36:21Z</time>
      </trkpt>
      <trkpt lat="41.6144140" lon="-4.7907970">
        <ele>743.2</ele>
        <time>2019-05-25T10:36:23Z</time>
      </trkpt>
      <trkpt lat="41.6143090" lon="-4.7909550">
        <ele>743.0</ele>
        <time>2019-05-25T10:36:25Z</time>
      </trkpt>
      <trkpt lat="41.6142540" lon="-4.7910320">
        <ele>743.0</ele>
        <time>2019-05-25T10:36:26Z</time>
      </trkpt>
      <trkpt lat="41.6141700" lon="-4.7911740">
        <ele>743.0</ele>
        <time>2019-05-25T10:36:28Z</time>
      </trkpt>
      <trkpt lat="41.6141620" lon="-4.7912310">
        <ele>743.0</ele>
        <time>2019-05-25T10:36:29Z</time>
      </trkpt>
      <trkpt lat="41.6142140" lon="-4.7913860">
        <ele>743.0</ele>
        <time>2019-05-25T10:36:32Z</time>
      </trkpt>
      <trkpt lat="41.6141680" lon="-4.7915740">
        <ele>743.0</ele>
        <time>2019-05-25T10:36:35Z</time>
      </trkpt>
      <trkpt lat="41.6141430" lon="-4.7916300">
        <ele>743.0</ele>
        <time>2019-05-25T10:36:36Z</time>
      </trkpt>
      <trkpt lat="41.6140790" lon="-4.7917820">
        <ele>743.2</ele>
        <time>2019-05-25T10:36:39Z</time>
      </trkpt>
      <trkpt lat="41.6140570" lon="-4.7918390">
        <ele>743.2</ele>
        <time>2019-05-25T10:36:41Z</time>
      </trkpt>
      <trkpt lat="41.6140100" lon="-4.7919740">
        <ele>743.6</ele>
        <time>2019-05-25T10:36:45Z</time>
      </trkpt>
      <trkpt lat="41.6139690" lon="-4.7920620">
        <ele>743.8</ele>
        <time>2019-05-25T10:36:47Z</time>
      </trkpt>
      <trkpt lat="41.6138470" lon="-4.7922900">
        <ele>743.6</ele>
        <time>2019-05-25T10:36:52Z</time>
      </trkpt>
      <trkpt lat="41.6136650" lon="-4.7927110">
        <ele>743.8</ele>
        <time>2019-05-25T10:37:00Z</time>
      </trkpt>
      <trkpt lat="41.6135350" lon="-4.7929580">
        <ele>743.8</ele>
        <time>2019-05-25T10:37:04Z</time>
      </trkpt>
      <trkpt lat="41.6134960" lon="-4.7930300">
        <ele>743.8</ele>
        <time>2019-05-25T10:37:05Z</time>
      </trkpt>
      <trkpt lat="41.6133750" lon="-4.7932290">
        <ele>743.6</ele>
        <time>2019-05-25T10:37:08Z</time>
      </trkpt>
      <trkpt lat="41.6132040" lon="-4.7932660">
        <ele>742.8</ele>
        <time>2019-05-25T10:37:11Z</time>
      </trkpt>
      <trkpt lat="41.6131450" lon="-4.7932620">
        <ele>742.2</ele>
        <time>2019-05-25T10:37:12Z</time>
      </trkpt>
      <trkpt lat="41.6130870" lon="-4.7932570">
        <ele>741.0</ele>
        <time>2019-05-25T10:37:13Z</time>
      </trkpt>
      <trkpt lat="41.6130310" lon="-4.7932590">
        <ele>740.6</ele>
        <time>2019-05-25T10:37:14Z</time>
      </trkpt>
      <trkpt lat="41.6129210" lon="-4.7932770">
        <ele>739.6</ele>
        <time>2019-05-25T10:37:16Z</time>
      </trkpt>
      <trkpt lat="41.6128660" lon="-4.7932920">
        <ele>739.4</ele>
        <time>2019-05-25T10:37:17Z</time>
      </trkpt>
      <trkpt lat="41.6126300" lon="-4.7933850">
        <ele>738.4</ele>
        <time>2019-05-25T10:37:21Z</time>
      </trkpt>
      <trkpt lat="41.6125020" lon="-4.7934410">
        <ele>737.6</ele>
        <time>2019-05-25T10:37:23Z</time>
      </trkpt>
      <trkpt lat="41.6123580" lon="-4.7934830">
        <ele>737.0</ele>
        <time>2019-05-25T10:37:25Z</time>
      </trkpt>
      <trkpt lat="41.6121250" lon="-4.7935180">
        <ele>736.2</ele>
        <time>2019-05-25T10:37:28Z</time>
      </trkpt>
      <trkpt lat="41.6120490" lon="-4.7935400">
        <ele>735.8</ele>
        <time>2019-05-25T10:37:29Z</time>
      </trkpt>
      <trkpt lat="41.6118310" lon="-4.7936230">
        <ele>734.8</ele>
        <time>2019-05-25T10:37:32Z</time>
      </trkpt>
      <trkpt lat="41.6117610" lon="-4.7936510">
        <ele>734.2</ele>
        <time>2019-05-25T10:37:33Z</time>
      </trkpt>
      <trkpt lat="41.6115590" lon="-4.7937290">
        <ele>733.6</ele>
        <time>2019-05-25T10:37:36Z</time>
      </trkpt>
      <trkpt lat="41.6113800" lon="-4.7938340">
        <ele>732.4</ele>
        <time>2019-05-25T10:37:39Z</time>
      </trkpt>
      <trkpt lat="41.6113390" lon="-4.7938980">
        <ele>732.0</ele>
        <time>2019-05-25T10:37:40Z</time>
      </trkpt>
      <trkpt lat="41.6112560" lon="-4.7940280">
        <ele>731.6</ele>
        <time>2019-05-25T10:37:42Z</time>
      </trkpt>
      <trkpt lat="41.6111290" lon="-4.7940700">
        <ele>731.4</ele>
        <time>2019-05-25T10:37:44Z</time>
      </trkpt>
      <trkpt lat="41.6109180" lon="-4.7940160">
        <ele>731.0</ele>
        <time>2019-05-25T10:37:47Z</time>
      </trkpt>
      <trkpt lat="41.6108470" lon="-4.7940300">
        <ele>731.0</ele>
        <time>2019-05-25T10:37:48Z</time>
      </trkpt>
      <trkpt lat="41.6107790" lon="-4.7940580">
        <ele>730.8</ele>
        <time>2019-05-25T10:37:49Z</time>
      </trkpt>
      <trkpt lat="41.6107120" lon="-4.7940910">
        <ele>730.8</ele>
        <time>2019-05-25T10:37:50Z</time>
      </trkpt>
      <trkpt lat="41.6104470" lon="-4.7942160">
        <ele>730.8</ele>
        <time>2019-05-25T10:37:54Z</time>
      </trkpt>
      <trkpt lat="41.6101430" lon="-4.7944200">
        <ele>730.6</ele>
        <time>2019-05-25T10:37:59Z</time>
      </trkpt>
      <trkpt lat="41.6100900" lon="-4.7944790">
        <ele>730.6</ele>
        <time>2019-05-25T10:38:00Z</time>
      </trkpt>
      <trkpt lat="41.6099810" lon="-4.7947110">
        <ele>730.4</ele>
        <time>2019-05-25T10:38:03Z</time>
      </trkpt>
      <trkpt lat="41.6099370" lon="-4.7949780">
        <ele>730.4</ele>
        <time>2019-05-25T10:38:06Z</time>
      </trkpt>
      <trkpt lat="41.6099280" lon="-4.7951650">
        <ele>730.0</ele>
        <time>2019-05-25T10:38:08Z</time>
      </trkpt>
      <trkpt lat="41.6099250" lon="-4.7953600">
        <ele>729.6</ele>
        <time>2019-05-25T10:38:10Z</time>
      </trkpt>
      <trkpt lat="41.6099240" lon="-4.7954580">
        <ele>729.4</ele>
        <time>2019-05-25T10:38:11Z</time>
      </trkpt>
      <trkpt lat="41.6099210" lon="-4.7956520">
        <ele>729.0</ele>
        <time>2019-05-25T10:38:13Z</time>
      </trkpt>
      <trkpt lat="41.6099170" lon="-4.7959340">
        <ele>728.6</ele>
        <time>2019-05-25T10:38:16Z</time>
      </trkpt>
      <trkpt lat="41.6099100" lon="-4.7961160">
        <ele>728.4</ele>
        <time>2019-05-25T10:38:18Z</time>
      </trkpt>
      <trkpt lat="41.6098840" lon="-4.7963750">
        <ele>727.8</ele>
        <time>2019-05-25T10:38:21Z</time>
      </trkpt>
      <trkpt lat="41.6098190" lon="-4.7964880">
        <ele>727.2</ele>
        <time>2019-05-25T10:38:23Z</time>
      </trkpt>
      <trkpt lat="41.6097080" lon="-4.7964850">
        <ele>727.0</ele>
        <time>2019-05-25T10:38:25Z</time>
      </trkpt>
      <trkpt lat="41.6096420" lon="-4.7964630">
        <ele>727.0</ele>
        <time>2019-05-25T10:38:26Z</time>
      </trkpt>
      <trkpt lat="41.6093450" lon="-4.7963600">
        <ele>726.4</ele>
        <time>2019-05-25T10:38:30Z</time>
      </trkpt>
      <trkpt lat="41.6092110" lon="-4.7963180">
        <ele>725.8</ele>
        <time>2019-05-25T10:38:33Z</time>
      </trkpt>
      <trkpt lat="41.6091520" lon="-4.7963040">
        <ele>724.6</ele>
        <time>2019-05-25T10:38:35Z</time>
      </trkpt>
      <trkpt lat="41.6090710" lon="-4.7962830">
        <ele>722.6</ele>
        <time>2019-05-25T10:38:37Z</time>
      </trkpt>
      <trkpt lat="41.6090300" lon="-4.7962680">
        <ele>720.2</ele>
        <time>2019-05-25T10:38:38Z</time>
      </trkpt>
      <trkpt lat="41.6089680" lon="-4.7962580">
        <ele>718.6</ele>
        <time>2019-05-25T10:38:40Z</time>
      </trkpt>
      <trkpt lat="41.6089540" lon="-4.7962930">
        <ele>718.2</ele>
        <time>2019-05-25T10:38:41Z</time>
      </trkpt>
      <trkpt lat="41.6089460" lon="-4.7963910">
        <ele>717.4</ele>
        <time>2019-05-25T10:38:43Z</time>
      </trkpt>
      <trkpt lat="41.6089400" lon="-4.7965000">
        <ele>716.4</ele>
        <time>2019-05-25T10:38:45Z</time>
      </trkpt>
      <trkpt lat="41.6089350" lon="-4.7965510">
        <ele>715.6</ele>
        <time>2019-05-25T10:38:46Z</time>
      </trkpt>
      <trkpt lat="41.6089190" lon="-4.7965820">
        <ele>715.4</ele>
        <time>2019-05-25T10:38:47Z</time>
      </trkpt>
      <trkpt lat="41.6088480" lon="-4.7965900">
        <ele>715.0</ele>
        <time>2019-05-25T10:38:49Z</time>
      </trkpt>
      <trkpt lat="41.6085480" lon="-4.7965930">
        <ele>714.4</ele>
        <time>2019-05-25T10:38:56Z</time>
      </trkpt>
      <trkpt lat="41.6085210" lon="-4.7966060">
        <ele>714.4</ele>
        <time>2019-05-25T10:38:57Z</time>
      </trkpt>
      <trkpt lat="41.6084980" lon="-4.7966630">
        <ele>714.2</ele>
        <time>2019-05-25T10:38:59Z</time>
      </trkpt>
      <trkpt lat="41.6085250" lon="-4.7967420">
        <ele>714.2</ele>
        <time>2019-05-25T10:39:01Z</time>
      </trkpt>
      <trkpt lat="41.6085600" lon="-4.7968400">
        <ele>714.0</ele>
        <time>2019-05-25T10:39:03Z</time>
      </trkpt>
      <trkpt lat="41.6086410" lon="-4.7972290">
        <ele>713.6</ele>
        <time>2019-05-25T10:39:10Z</time>
      </trkpt>
      <trkpt lat="41.6086660" lon="-4.7975780">
        <ele>713.4</ele>
        <time>2019-05-25T10:39:17Z</time>
      </trkpt>
      <trkpt lat="41.6085610" lon="-4.7977020">
        <ele>713.4</ele>
        <time>2019-05-25T10:39:20Z</time>
      </trkpt>
      <trkpt lat="41.6085120" lon="-4.7977370">
        <ele>713.4</ele>
        <time>2019-05-25T10:39:21Z</time>
      </trkpt>
      <trkpt lat="41.6084620" lon="-4.7977710">
        <ele>713.2</ele>
        <time>2019-05-25T10:39:22Z</time>
      </trkpt>
      <trkpt lat="41.6084110" lon="-4.7977930">
        <ele>713.0</ele>
        <time>2019-05-25T10:39:23Z</time>
      </trkpt>
      <trkpt lat="41.6083070" lon="-4.7978090">
        <ele>713.0</ele>
        <time>2019-05-25T10:39:25Z</time>
      </trkpt>
      <trkpt lat="41.6082110" lon="-4.7978200">
        <ele>712.0</ele>
        <time>2019-05-25T10:39:27Z</time>
      </trkpt>
      <trkpt lat="41.6081300" lon="-4.7978580">
        <ele>711.4</ele>
        <time>2019-05-25T10:39:29Z</time>
      </trkpt>
      <trkpt lat="41.6081100" lon="-4.7979090">
        <ele>711.2</ele>
        <time>2019-05-25T10:39:30Z</time>
      </trkpt>
      <trkpt lat="41.6081000" lon="-4.7979710">
        <ele>710.8</ele>
        <time>2019-05-25T10:39:31Z</time>
      </trkpt>
      <trkpt lat="41.6080630" lon="-4.7982490">
        <ele>710.6</ele>
        <time>2019-05-25T10:39:35Z</time>
      </trkpt>
      <trkpt lat="41.6080410" lon="-4.7983930">
        <ele>710.6</ele>
        <time>2019-05-25T10:39:37Z</time>
      </trkpt>
      <trkpt lat="41.6080320" lon="-4.7984640">
        <ele>710.6</ele>
        <time>2019-05-25T10:39:38Z</time>
      </trkpt>
      <trkpt lat="41.6080530" lon="-4.7987460">
        <ele>710.6</ele>
        <time>2019-05-25T10:39:42Z</time>
      </trkpt>
      <trkpt lat="41.6080970" lon="-4.7988760">
        <ele>710.6</ele>
        <time>2019-05-25T10:39:44Z</time>
      </trkpt>
      <trkpt lat="41.6081830" lon="-4.7990530">
        <ele>710.4</ele>
        <time>2019-05-25T10:39:47Z</time>
      </trkpt>
      <trkpt lat="41.6083880" lon="-4.7993590">
        <ele>710.2</ele>
        <time>2019-05-25T10:39:53Z</time>
      </trkpt>
      <trkpt lat="41.6084690" lon="-4.7996630">
        <ele>710.2</ele>
        <time>2019-05-25T10:39:58Z</time>
      </trkpt>
      <trkpt lat="41.6084580" lon="-4.7997940">
        <ele>710.2</ele>
        <time>2019-05-25T10:40:00Z</time>
      </trkpt>
      <trkpt lat="41.6084550" lon="-4.7998590">
        <ele>710.2</ele>
        <time>2019-05-25T10:40:01Z</time>
      </trkpt>
      <trkpt lat="41.6084780" lon="-4.8000010">
        <ele>710.2</ele>
        <time>2019-05-25T10:40:03Z</time>
      </trkpt>
      <trkpt lat="41.6084910" lon="-4.8000730">
        <ele>710.2</ele>
        <time>2019-05-25T10:40:04Z</time>
      </trkpt>
      <trkpt lat="41.6085140" lon="-4.8002190">
        <ele>710.2</ele>
        <time>2019-05-25T10:40:06Z</time>
      </trkpt>
      <trkpt lat="41.6085230" lon="-4.8002890">
        <ele>710.2</ele>
        <time>2019-05-25T10:40:07Z</time>
      </trkpt>
      <trkpt lat="41.6085280" lon="-4.8003570">
        <ele>710.2</ele>
        <time>2019-05-25T10:40:08Z</time>
      </trkpt>
      <trkpt lat="41.6085260" lon="-4.8004270">
        <ele>710.2</ele>
        <time>2019-05-25T10:40:09Z</time>
      </trkpt>
      <trkpt lat="41.6085200" lon="-4.8005000">
        <ele>710.2</ele>
        <time>2019-05-25T10:40:10Z</time>
      </trkpt>
      <trkpt lat="41.6085080" lon="-4.8005720">
        <ele>710.2</ele>
        <time>2019-05-25T10:40:11Z</time>
      </trkpt>
      <trkpt lat="41.6084890" lon="-4.8006420">
        <ele>710.6</ele>
        <time>2019-05-25T10:40:12Z</time>
      </trkpt>
      <trkpt lat="41.6084670" lon="-4.8007070">
        <ele>711.0</ele>
        <time>2019-05-25T10:40:13Z</time>
      </trkpt>
      <trkpt lat="41.6084490" lon="-4.8007690">
        <ele>711.6</ele>
        <time>2019-05-25T10:40:14Z</time>
      </trkpt>
      <trkpt lat="41.6084310" lon="-4.8008240">
        <ele>712.4</ele>
        <time>2019-05-25T10:40:15Z</time>
      </trkpt>
      <trkpt lat="41.6084110" lon="-4.8009260">
        <ele>713.4</ele>
        <time>2019-05-25T10:40:17Z</time>
      </trkpt>
      <trkpt lat="41.6084010" lon="-4.8009710">
        <ele>713.4</ele>
        <time>2019-05-25T10:40:18Z</time>
      </trkpt>
      <trkpt lat="41.6083790" lon="-4.8010120">
        <ele>713.8</ele>
        <time>2019-05-25T10:40:19Z</time>
      </trkpt>
      <trkpt lat="41.6083520" lon="-4.8010540">
        <ele>714.4</ele>
        <time>2019-05-25T10:40:20Z</time>
      </trkpt>
      <trkpt lat="41.6083080" lon="-4.8011500">
        <ele>715.0</ele>
        <time>2019-05-25T10:40:22Z</time>
      </trkpt>
      <trkpt lat="41.6082700" lon="-4.8012390">
        <ele>715.6</ele>
        <time>2019-05-25T10:40:24Z</time>
      </trkpt>
      <trkpt lat="41.6081900" lon="-4.8013540">
        <ele>716.4</ele>
        <time>2019-05-25T10:40:27Z</time>
      </trkpt>
      <trkpt lat="41.6081620" lon="-4.8013910">
        <ele>716.6</ele>
        <time>2019-05-25T10:40:28Z</time>
      </trkpt>
      <trkpt lat="41.6081090" lon="-4.8014790">
        <ele>717.0</ele>
        <time>2019-05-25T10:40:30Z</time>
      </trkpt>
      <trkpt lat="41.6080340" lon="-4.8016180">
        <ele>717.8</ele>
        <time>2019-05-25T10:40:33Z</time>
      </trkpt>
      <trkpt lat="41.6079830" lon="-4.8016890">
        <ele>719.0</ele>
        <time>2019-05-25T10:40:42Z</time>
      </trkpt>
      <trkpt lat="41.6079720" lon="-4.8017020">
        <ele>719.2</ele>
        <time>2019-05-25T10:40:43Z</time>
      </trkpt>
      <trkpt lat="41.6078230" lon="-4.8019650">
        <ele>719.4</ele>
        <time>2019-05-25T10:40:49Z</time>
      </trkpt>
      <trkpt lat="41.6077930" lon="-4.8020020">
        <ele>719.4</ele>
        <time>2019-05-25T10:40:50Z</time>
      </trkpt>
      <trkpt lat="41.6077290" lon="-4.8020270">
        <ele>719.6</ele>
        <time>2019-05-25T10:40:52Z</time>
      </trkpt>
      <trkpt lat="41.6077060" lon="-4.8020420">
        <ele>719.8</ele>
        <time>2019-05-25T10:40:54Z</time>
      </trkpt>
      <trkpt lat="41.6076770" lon="-4.8020900">
        <ele>720.0</ele>
        <time>2019-05-25T10:40:55Z</time>
      </trkpt>
      <trkpt lat="41.6076640" lon="-4.8021130">
        <ele>720.2</ele>
        <time>2019-05-25T10:40:56Z</time>
      </trkpt>
      <trkpt lat="41.6076430" lon="-4.8021340">
        <ele>720.8</ele>
        <time>2019-05-25T10:40:57Z</time>
      </trkpt>
      <trkpt lat="41.6075610" lon="-4.8022420">
        <ele>721.0</ele>
        <time>2019-05-25T10:41:00Z</time>
      </trkpt>
      <trkpt lat="41.6074360" lon="-4.8022760">
        <ele>721.2</ele>
        <time>2019-05-25T10:41:03Z</time>
      </trkpt>
      <trkpt lat="41.6073930" lon="-4.8022640">
        <ele>721.2</ele>
        <time>2019-05-25T10:41:04Z</time>
      </trkpt>
      <trkpt lat="41.6073530" lon="-4.8022550">
        <ele>721.2</ele>
        <time>2019-05-25T10:41:05Z</time>
      </trkpt>
      <trkpt lat="41.6072350" lon="-4.8022680">
        <ele>721.6</ele>
        <time>2019-05-25T10:41:08Z</time>
      </trkpt>
      <trkpt lat="41.6072000" lon="-4.8022950">
        <ele>721.6</ele>
        <time>2019-05-25T10:41:09Z</time>
      </trkpt>
      <trkpt lat="41.6071650" lon="-4.8023270">
        <ele>721.8</ele>
        <time>2019-05-25T10:41:10Z</time>
      </trkpt>
      <trkpt lat="41.6071290" lon="-4.8023550">
        <ele>721.8</ele>
        <time>2019-05-25T10:41:11Z</time>
      </trkpt>
      <trkpt lat="41.6070550" lon="-4.8024040">
        <ele>721.8</ele>
        <time>2019-05-25T10:41:13Z</time>
      </trkpt>
      <trkpt lat="41.6069840" lon="-4.8024980">
        <ele>722.8</ele>
        <time>2019-05-25T10:41:16Z</time>
      </trkpt>
      <trkpt lat="41.6069740" lon="-4.8025260">
        <ele>723.2</ele>
        <time>2019-05-25T10:41:17Z</time>
      </trkpt>
      <trkpt lat="41.6069570" lon="-4.8025720">
        <ele>724.0</ele>
        <time>2019-05-25T10:41:19Z</time>
      </trkpt>
      <trkpt lat="41.6069320" lon="-4.8026310">
        <ele>724.8</ele>
        <time>2019-05-25T10:41:22Z</time>
      </trkpt>
      <trkpt lat="41.6069160" lon="-4.8026450">
        <ele>725.0</ele>
        <time>2019-05-25T10:41:23Z</time>
      </trkpt>
      <trkpt lat="41.6068840" lon="-4.8026740">
        <ele>726.2</ele>
        <time>2019-05-25T10:41:25Z</time>
      </trkpt>
      <trkpt lat="41.6068670" lon="-4.8026900">
        <ele>726.6</ele>
        <time>2019-05-25T10:41:26Z</time>
      </trkpt>
      <trkpt lat="41.6068480" lon="-4.8027100">
        <ele>727.2</ele>
        <time>2019-05-25T10:41:27Z</time>
      </trkpt>
      <trkpt lat="41.6068090" lon="-4.8027500">
        <ele>728.4</ele>
        <time>2019-05-25T10:41:29Z</time>
      </trkpt>
      <trkpt lat="41.6067870" lon="-4.8027690">
        <ele>728.8</ele>
        <time>2019-05-25T10:41:30Z</time>
      </trkpt>
      <trkpt lat="41.6067380" lon="-4.8028060">
        <ele>729.6</ele>
        <time>2019-05-25T10:41:32Z</time>
      </trkpt>
      <trkpt lat="41.6066120" lon="-4.8028760">
        <ele>730.4</ele>
        <time>2019-05-25T10:41:36Z</time>
      </trkpt>
      <trkpt lat="41.6064490" lon="-4.8029970">
        <ele>731.0</ele>
        <time>2019-05-25T10:41:41Z</time>
      </trkpt>
      <trkpt lat="41.6064240" lon="-4.8030310">
        <ele>730.8</ele>
        <time>2019-05-25T10:41:42Z</time>
      </trkpt>
      <trkpt lat="41.6063530" lon="-4.8032580">
        <ele>731.0</ele>
        <time>2019-05-25T10:41:47Z</time>
      </trkpt>
      <trkpt lat="41.6063020" lon="-4.8034020">
        <ele>731.2</ele>
        <time>2019-05-25T10:41:50Z</time>
      </trkpt>
      <trkpt lat="41.6062560" lon="-4.8036020">
        <ele>731.8</ele>
        <time>2019-05-25T10:41:54Z</time>
      </trkpt>
      <trkpt lat="41.6062550" lon="-4.8038190">
        <ele>732.2</ele>
        <time>2019-05-25T10:41:58Z</time>
      </trkpt>
      <trkpt lat="41.6062550" lon="-4.8038780">
        <ele>732.2</ele>
        <time>2019-05-25T10:41:59Z</time>
      </trkpt>
      <trkpt lat="41.6062470" lon="-4.8039360">
        <ele>732.2</ele>
        <time>2019-05-25T10:42:00Z</time>
      </trkpt>
      <trkpt lat="41.6062110" lon="-4.8041750">
        <ele>732.6</ele>
        <time>2019-05-25T10:42:04Z</time>
      </trkpt>
      <trkpt lat="41.6062110" lon="-4.8042320">
        <ele>732.6</ele>
        <time>2019-05-25T10:42:05Z</time>
      </trkpt>
      <trkpt lat="41.6062130" lon="-4.8042920">
        <ele>732.8</ele>
        <time>2019-05-25T10:42:06Z</time>
      </trkpt>
      <trkpt lat="41.6062020" lon="-4.8044890">
        <ele>732.8</ele>
        <time>2019-05-25T10:42:09Z</time>
      </trkpt>
      <trkpt lat="41.6061990" lon="-4.8045580">
        <ele>732.8</ele>
        <time>2019-05-25T10:42:10Z</time>
      </trkpt>
      <trkpt lat="41.6061990" lon="-4.8047810">
        <ele>732.6</ele>
        <time>2019-05-25T10:42:13Z</time>
      </trkpt>
      <trkpt lat="41.6062310" lon="-4.8049240">
        <ele>732.8</ele>
        <time>2019-05-25T10:42:15Z</time>
      </trkpt>
      <trkpt lat="41.6062610" lon="-4.8050680">
        <ele>732.8</ele>
        <time>2019-05-25T10:42:17Z</time>
      </trkpt>
      <trkpt lat="41.6061960" lon="-4.8052310">
        <ele>733.0</ele>
        <time>2019-05-25T10:42:20Z</time>
      </trkpt>
      <trkpt lat="41.6061190" lon="-4.8053250">
        <ele>733.0</ele>
        <time>2019-05-25T10:42:22Z</time>
      </trkpt>
      <trkpt lat="41.6060460" lon="-4.8054270">
        <ele>733.0</ele>
        <time>2019-05-25T10:42:24Z</time>
      </trkpt>
      <trkpt lat="41.6059810" lon="-4.8055310">
        <ele>733.4</ele>
        <time>2019-05-25T10:42:26Z</time>
      </trkpt>
      <trkpt lat="41.6059460" lon="-4.8055760">
        <ele>733.4</ele>
        <time>2019-05-25T10:42:27Z</time>
      </trkpt>
      <trkpt lat="41.6058360" lon="-4.8056790">
        <ele>734.0</ele>
        <time>2019-05-25T10:42:30Z</time>
      </trkpt>
      <trkpt lat="41.6056920" lon="-4.8058170">
        <ele>734.4</ele>
        <time>2019-05-25T10:42:35Z</time>
      </trkpt>
      <trkpt lat="41.6056660" lon="-4.8058550">
        <ele>734.6</ele>
        <time>2019-05-25T10:42:36Z</time>
      </trkpt>
      <trkpt lat="41.6055150" lon="-4.8060210">
        <ele>735.4</ele>
        <time>2019-05-25T10:42:41Z</time>
      </trkpt>
      <trkpt lat="41.6052760" lon="-4.8062710">
        <ele>736.4</ele>
        <time>2019-05-25T10:42:49Z</time>
      </trkpt>
      <trkpt lat="41.6052490" lon="-4.8063040">
        <ele>736.4</ele>
        <time>2019-05-25T10:42:50Z</time>
      </trkpt>
      <trkpt lat="41.6050920" lon="-4.8065200">
        <ele>737.4</ele>
        <time>2019-05-25T10:42:56Z</time>
      </trkpt>
      <trkpt lat="41.6049920" lon="-4.8066740">
        <ele>737.8</ele>
        <time>2019-05-25T10:43:00Z</time>
      </trkpt>
      <trkpt lat="41.6049270" lon="-4.8068000">
        <ele>738.2</ele>
        <time>2019-05-25T10:43:03Z</time>
      </trkpt>
      <trkpt lat="41.6047790" lon="-4.8070370">
        <ele>738.8</ele>
        <time>2019-05-25T10:43:09Z</time>
      </trkpt>
      <trkpt lat="41.6047300" lon="-4.8071150">
        <ele>739.0</ele>
        <time>2019-05-25T10:43:11Z</time>
      </trkpt>
      <trkpt lat="41.6045840" lon="-4.8073490">
        <ele>739.6</ele>
        <time>2019-05-25T10:43:17Z</time>
      </trkpt>
      <trkpt lat="41.6045180" lon="-4.8074710">
        <ele>739.8</ele>
        <time>2019-05-25T10:43:20Z</time>
      </trkpt>
      <trkpt lat="41.6043810" lon="-4.8077120">
        <ele>740.8</ele>
        <time>2019-05-25T10:43:26Z</time>
      </trkpt>
      <trkpt lat="41.6042860" lon="-4.8078710">
        <ele>741.2</ele>
        <time>2019-05-25T10:43:30Z</time>
      </trkpt>
      <trkpt lat="41.6042130" lon="-4.8079910">
        <ele>741.8</ele>
        <time>2019-05-25T10:43:33Z</time>
      </trkpt>
      <trkpt lat="41.6041640" lon="-4.8080680">
        <ele>742.2</ele>
        <time>2019-05-25T10:43:35Z</time>
      </trkpt>
      <trkpt lat="41.6040480" lon="-4.8082630">
        <ele>742.8</ele>
        <time>2019-05-25T10:43:40Z</time>
      </trkpt>
      <trkpt lat="41.6040000" lon="-4.8083370">
        <ele>743.2</ele>
        <time>2019-05-25T10:43:42Z</time>
      </trkpt>
      <trkpt lat="41.6038390" lon="-4.8085400">
        <ele>743.6</ele>
        <time>2019-05-25T10:43:48Z</time>
      </trkpt>
      <trkpt lat="41.6037140" lon="-4.8087270">
        <ele>744.4</ele>
        <time>2019-05-25T10:43:53Z</time>
      </trkpt>
      <trkpt lat="41.6036150" lon="-4.8088690">
        <ele>744.8</ele>
        <time>2019-05-25T10:43:57Z</time>
      </trkpt>
      <trkpt lat="41.6034900" lon="-4.8090440">
        <ele>745.6</ele>
        <time>2019-05-25T10:44:02Z</time>
      </trkpt>
      <trkpt lat="41.6034650" lon="-4.8090790">
        <ele>745.6</ele>
        <time>2019-05-25T10:44:03Z</time>
      </trkpt>
      <trkpt lat="41.6033880" lon="-4.8091810">
        <ele>746.0</ele>
        <time>2019-05-25T10:44:06Z</time>
      </trkpt>
      <trkpt lat="41.6032750" lon="-4.8093490">
        <ele>746.4</ele>
        <time>2019-05-25T10:44:11Z</time>
      </trkpt>
      <trkpt lat="41.6031760" lon="-4.8094970">
        <ele>747.4</ele>
        <time>2019-05-25T10:44:15Z</time>
      </trkpt>
      <trkpt lat="41.6031050" lon="-4.8096230">
        <ele>748.0</ele>
        <time>2019-05-25T10:44:18Z</time>
      </trkpt>
      <trkpt lat="41.6029450" lon="-4.8099430">
        <ele>748.0</ele>
        <time>2019-05-25T10:44:25Z</time>
      </trkpt>
      <trkpt lat="41.6029220" lon="-4.8099920">
        <ele>747.8</ele>
        <time>2019-05-25T10:44:26Z</time>
      </trkpt>
      <trkpt lat="41.6028530" lon="-4.8101440">
        <ele>747.4</ele>
        <time>2019-05-25T10:44:29Z</time>
      </trkpt>
      <trkpt lat="41.6027200" lon="-4.8104170">
        <ele>747.0</ele>
        <time>2019-05-25T10:44:34Z</time>
      </trkpt>
      <trkpt lat="41.6026300" lon="-4.8106960">
        <ele>746.4</ele>
        <time>2019-05-25T10:44:38Z</time>
      </trkpt>
      <trkpt lat="41.6025880" lon="-4.8108460">
        <ele>746.2</ele>
        <time>2019-05-25T10:44:40Z</time>
      </trkpt>
      <trkpt lat="41.6024420" lon="-4.8112660">
        <ele>746.0</ele>
        <time>2019-05-25T10:44:46Z</time>
      </trkpt>
      <trkpt lat="41.6024060" lon="-4.8113080">
        <ele>746.0</ele>
        <time>2019-05-25T10:44:47Z</time>
      </trkpt>
      <trkpt lat="41.6022860" lon="-4.8113080">
        <ele>746.0</ele>
        <time>2019-05-25T10:44:50Z</time>
      </trkpt>
      <trkpt lat="41.6022160" lon="-4.8112530">
        <ele>746.0</ele>
        <time>2019-05-25T10:44:52Z</time>
      </trkpt>
      <trkpt lat="41.6021130" lon="-4.8111570">
        <ele>746.2</ele>
        <time>2019-05-25T10:44:55Z</time>
      </trkpt>
      <trkpt lat="41.6020440" lon="-4.8110960">
        <ele>746.2</ele>
        <time>2019-05-25T10:44:57Z</time>
      </trkpt>
      <trkpt lat="41.6019440" lon="-4.8110050">
        <ele>747.4</ele>
        <time>2019-05-25T10:45:00Z</time>
      </trkpt>
      <trkpt lat="41.6018760" lon="-4.8109490">
        <ele>747.6</ele>
        <time>2019-05-25T10:45:02Z</time>
      </trkpt>
      <trkpt lat="41.6018060" lon="-4.8109040">
        <ele>748.0</ele>
        <time>2019-05-25T10:45:04Z</time>
      </trkpt>
      <trkpt lat="41.6016960" lon="-4.8108470">
        <ele>748.2</ele>
        <time>2019-05-25T10:45:07Z</time>
      </trkpt>
      <trkpt lat="41.6016170" lon="-4.8108260">
        <ele>748.8</ele>
        <time>2019-05-25T10:45:09Z</time>
      </trkpt>
      <trkpt lat="41.6015760" lon="-4.8108200">
        <ele>749.2</ele>
        <time>2019-05-25T10:45:10Z</time>
      </trkpt>
      <trkpt lat="41.6014960" lon="-4.8108120">
        <ele>749.6</ele>
        <time>2019-05-25T10:45:12Z</time>
      </trkpt>
      <trkpt lat="41.6014180" lon="-4.8108110">
        <ele>750.0</ele>
        <time>2019-05-25T10:45:14Z</time>
      </trkpt>
      <trkpt lat="41.6013810" lon="-4.8108110">
        <ele>751.2</ele>
        <time>2019-05-25T10:45:16Z</time>
      </trkpt>
      <trkpt lat="41.6013070" lon="-4.8108230">
        <ele>751.6</ele>
        <time>2019-05-25T10:45:17Z</time>
      </trkpt>
      <trkpt lat="41.6012320" lon="-4.8108440">
        <ele>752.4</ele>
        <time>2019-05-25T10:45:19Z</time>
      </trkpt>
      <trkpt lat="41.6011600" lon="-4.8108690">
        <ele>753.8</ele>
        <time>2019-05-25T10:45:22Z</time>
      </trkpt>
      <trkpt lat="41.6010920" lon="-4.8108650">
        <ele>754.4</ele>
        <time>2019-05-25T10:45:23Z</time>
      </trkpt>
      <trkpt lat="41.6010610" lon="-4.8108540">
        <ele>755.0</ele>
        <time>2019-05-25T10:45:24Z</time>
      </trkpt>
      <trkpt lat="41.6009840" lon="-4.8107900">
        <ele>756.4</ele>
        <time>2019-05-25T10:45:27Z</time>
      </trkpt>
      <trkpt lat="41.6009470" lon="-4.8107360">
        <ele>757.4</ele>
        <time>2019-05-25T10:45:29Z</time>
      </trkpt>
      <trkpt lat="41.6009220" lon="-4.8107130">
        <ele>758.0</ele>
        <time>2019-05-25T10:45:30Z</time>
      </trkpt>
      <trkpt lat="41.6008890" lon="-4.8107020">
        <ele>758.2</ele>
        <time>2019-05-25T10:45:31Z</time>
      </trkpt>
      <trkpt lat="41.6008480" lon="-4.8106980">
        <ele>758.6</ele>
        <time>2019-05-25T10:45:32Z</time>
      </trkpt>
      <trkpt lat="41.6008060" lon="-4.8106830">
        <ele>758.6</ele>
        <time>2019-05-25T10:45:33Z</time>
      </trkpt>
      <trkpt lat="41.6006800" lon="-4.8106190">
        <ele>758.8</ele>
        <time>2019-05-25T10:45:36Z</time>
      </trkpt>
      <trkpt lat="41.6006030" lon="-4.8106810">
        <ele>758.8</ele>
        <time>2019-05-25T10:45:39Z</time>
      </trkpt>
      <trkpt lat="41.6006290" lon="-4.8107910">
        <ele>758.0</ele>
        <time>2019-05-25T10:45:41Z</time>
      </trkpt>
      <trkpt lat="41.6006440" lon="-4.8108580">
        <ele>757.6</ele>
        <time>2019-05-25T10:45:42Z</time>
      </trkpt>
      <trkpt lat="41.6006530" lon="-4.8109350">
        <ele>756.6</ele>
        <time>2019-05-25T10:45:43Z</time>
      </trkpt>
      <trkpt lat="41.6006340" lon="-4.8111100">
        <ele>754.8</ele>
        <time>2019-05-25T10:45:45Z</time>
      </trkpt>
      <trkpt lat="41.6005780" lon="-4.8112440">
        <ele>752.8</ele>
        <time>2019-05-25T10:45:47Z</time>
      </trkpt>
      <trkpt lat="41.6005500" lon="-4.8112990">
        <ele>752.0</ele>
        <time>2019-05-25T10:45:48Z</time>
      </trkpt>
      <trkpt lat="41.6005230" lon="-4.8113680">
        <ele>751.0</ele>
        <time>2019-05-25T10:45:49Z</time>
      </trkpt>
      <trkpt lat="41.6004710" lon="-4.8115380">
        <ele>750.0</ele>
        <time>2019-05-25T10:45:51Z</time>
      </trkpt>
      <trkpt lat="41.6004300" lon="-4.8116250">
        <ele>749.6</ele>
        <time>2019-05-25T10:45:52Z</time>
      </trkpt>
      <trkpt lat="41.6003870" lon="-4.8117010">
        <ele>749.4</ele>
        <time>2019-05-25T10:45:53Z</time>
      </trkpt>
      <trkpt lat="41.6003120" lon="-4.8118050">
        <ele>749.0</ele>
        <time>2019-05-25T10:45:55Z</time>
      </trkpt>
      <trkpt lat="41.6000940" lon="-4.8119810">
        <ele>749.0</ele>
        <time>2019-05-25T10:46:00Z</time>
      </trkpt>
      <trkpt lat="41.6000540" lon="-4.8120290">
        <ele>749.2</ele>
        <time>2019-05-25T10:46:01Z</time>
      </trkpt>
      <trkpt lat="41.5999930" lon="-4.8121530">
        <ele>749.4</ele>
        <time>2019-05-25T10:46:03Z</time>
      </trkpt>
      <trkpt lat="41.5999620" lon="-4.8122180">
        <ele>749.8</ele>
        <time>2019-05-25T10:46:04Z</time>
      </trkpt>
      <trkpt lat="41.5999270" lon="-4.8122860">
        <ele>750.8</ele>
        <time>2019-05-25T10:46:05Z</time>
      </trkpt>
      <trkpt lat="41.5998970" lon="-4.8123580">
        <ele>751.0</ele>
        <time>2019-05-25T10:46:06Z</time>
      </trkpt>
      <trkpt lat="41.5998750" lon="-4.8124350">
        <ele>751.4</ele>
        <time>2019-05-25T10:46:07Z</time>
      </trkpt>
      <trkpt lat="41.5998250" lon="-4.8125890">
        <ele>751.6</ele>
        <time>2019-05-25T10:46:09Z</time>
      </trkpt>
      <trkpt lat="41.5997460" lon="-4.8127220">
        <ele>751.6</ele>
        <time>2019-05-25T10:46:11Z</time>
      </trkpt>
      <trkpt lat="41.5996590" lon="-4.8128370">
        <ele>751.6</ele>
        <time>2019-05-25T10:46:13Z</time>
      </trkpt>
      <trkpt lat="41.5995580" lon="-4.8129390">
        <ele>751.6</ele>
        <time>2019-05-25T10:46:15Z</time>
      </trkpt>
      <trkpt lat="41.5993600" lon="-4.8132000">
        <ele>751.8</ele>
        <time>2019-05-25T10:46:20Z</time>
      </trkpt>
      <trkpt lat="41.5992290" lon="-4.8132410">
        <ele>751.6</ele>
        <time>2019-05-25T10:46:23Z</time>
      </trkpt>
      <trkpt lat="41.5991130" lon="-4.8131860">
        <ele>751.6</ele>
        <time>2019-05-25T10:46:25Z</time>
      </trkpt>
      <trkpt lat="41.5990510" lon="-4.8131640">
        <ele>751.6</ele>
        <time>2019-05-25T10:46:26Z</time>
      </trkpt>
      <trkpt lat="41.5989730" lon="-4.8131880">
        <ele>751.6</ele>
        <time>2019-05-25T10:46:28Z</time>
      </trkpt>
      <trkpt lat="41.5988800" lon="-4.8134190">
        <ele>751.4</ele>
        <time>2019-05-25T10:46:32Z</time>
      </trkpt>
      <trkpt lat="41.5988640" lon="-4.8135020">
        <ele>751.4</ele>
        <time>2019-05-25T10:46:33Z</time>
      </trkpt>
      <trkpt lat="41.5988220" lon="-4.8136690">
        <ele>750.2</ele>
        <time>2019-05-25T10:46:35Z</time>
      </trkpt>
      <trkpt lat="41.5987910" lon="-4.8137460">
        <ele>750.2</ele>
        <time>2019-05-25T10:46:36Z</time>
      </trkpt>
      <trkpt lat="41.5987570" lon="-4.8138160">
        <ele>750.0</ele>
        <time>2019-05-25T10:46:37Z</time>
      </trkpt>
      <trkpt lat="41.5985880" lon="-4.8141270">
        <ele>749.0</ele>
        <time>2019-05-25T10:46:42Z</time>
      </trkpt>
      <trkpt lat="41.5985570" lon="-4.8141810">
        <ele>748.6</ele>
        <time>2019-05-25T10:46:43Z</time>
      </trkpt>
      <trkpt lat="41.5984320" lon="-4.8144390">
        <ele>748.6</ele>
        <time>2019-05-25T10:46:47Z</time>
      </trkpt>
      <trkpt lat="41.5984110" lon="-4.8145190">
        <ele>748.4</ele>
        <time>2019-05-25T10:46:48Z</time>
      </trkpt>
      <trkpt lat="41.5983670" lon="-4.8147660">
        <ele>748.2</ele>
        <time>2019-05-25T10:46:51Z</time>
      </trkpt>
      <trkpt lat="41.5983710" lon="-4.8148320">
        <ele>748.4</ele>
        <time>2019-05-25T10:46:52Z</time>
      </trkpt>
      <trkpt lat="41.5984360" lon="-4.8150400">
        <ele>748.8</ele>
        <time>2019-05-25T10:46:56Z</time>
      </trkpt>
      <trkpt lat="41.5985570" lon="-4.8153460">
        <ele>750.0</ele>
        <time>2019-05-25T10:47:02Z</time>
      </trkpt>
      <trkpt lat="41.5986220" lon="-4.8154810">
        <ele>750.4</ele>
        <time>2019-05-25T10:47:05Z</time>
      </trkpt>
      <trkpt lat="41.5986660" lon="-4.8155590">
        <ele>751.0</ele>
        <time>2019-05-25T10:47:07Z</time>
      </trkpt>
      <trkpt lat="41.5987080" lon="-4.8156490">
        <ele>751.6</ele>
        <time>2019-05-25T10:47:09Z</time>
      </trkpt>
      <trkpt lat="41.5987360" lon="-4.8156900">
        <ele>751.6</ele>
        <time>2019-05-25T10:47:10Z</time>
      </trkpt>
      <trkpt lat="41.5988230" lon="-4.8158500">
        <ele>751.8</ele>
        <time>2019-05-25T10:47:13Z</time>
      </trkpt>
      <trkpt lat="41.5987750" lon="-4.8161360">
        <ele>751.8</ele>
        <time>2019-05-25T10:47:16Z</time>
      </trkpt>
      <trkpt lat="41.5986060" lon="-4.8163270">
        <ele>751.6</ele>
        <time>2019-05-25T10:47:19Z</time>
      </trkpt>
      <trkpt lat="41.5985510" lon="-4.8163710">
        <ele>751.2</ele>
        <time>2019-05-25T10:47:20Z</time>
      </trkpt>
      <trkpt lat="41.5985060" lon="-4.8164240">
        <ele>750.6</ele>
        <time>2019-05-25T10:47:21Z</time>
      </trkpt>
      <trkpt lat="41.5984760" lon="-4.8164900">
        <ele>749.4</ele>
        <time>2019-05-25T10:47:22Z</time>
      </trkpt>
      <trkpt lat="41.5984470" lon="-4.8166230">
        <ele>748.4</ele>
        <time>2019-05-25T10:47:24Z</time>
      </trkpt>
      <trkpt lat="41.5984390" lon="-4.8167620">
        <ele>748.2</ele>
        <time>2019-05-25T10:47:26Z</time>
      </trkpt>
      <trkpt lat="41.5984270" lon="-4.8169010">
        <ele>748.2</ele>
        <time>2019-05-25T10:47:28Z</time>
      </trkpt>
      <trkpt lat="41.5983870" lon="-4.8170370">
        <ele>747.6</ele>
        <time>2019-05-25T10:47:30Z</time>
      </trkpt>
      <trkpt lat="41.5983680" lon="-4.8171120">
        <ele>747.6</ele>
        <time>2019-05-25T10:47:31Z</time>
      </trkpt>
      <trkpt lat="41.5983750" lon="-4.8172500">
        <ele>747.8</ele>
        <time>2019-05-25T10:47:33Z</time>
      </trkpt>
      <trkpt lat="41.5983770" lon="-4.8174740">
        <ele>747.8</ele>
        <time>2019-05-25T10:47:36Z</time>
      </trkpt>
      <trkpt lat="41.5982660" lon="-4.8178130">
        <ele>747.8</ele>
        <time>2019-05-25T10:47:39Z</time>
      </trkpt>
      <trkpt lat="41.5982130" lon="-4.8179200">
        <ele>747.8</ele>
        <time>2019-05-25T10:47:40Z</time>
      </trkpt>
      <trkpt lat="41.5980840" lon="-4.8180880">
        <ele>747.8</ele>
        <time>2019-05-25T10:47:42Z</time>
      </trkpt>
      <trkpt lat="41.5979940" lon="-4.8182630">
        <ele>746.8</ele>
        <time>2019-05-25T10:47:44Z</time>
      </trkpt>
      <trkpt lat="41.5979690" lon="-4.8183660">
        <ele>745.2</ele>
        <time>2019-05-25T10:47:45Z</time>
      </trkpt>
      <trkpt lat="41.5979380" lon="-4.8184740">
        <ele>743.2</ele>
        <time>2019-05-25T10:47:46Z</time>
      </trkpt>
      <trkpt lat="41.5978440" lon="-4.8186970">
        <ele>741.8</ele>
        <time>2019-05-25T10:47:48Z</time>
      </trkpt>
      <trkpt lat="41.5977460" lon="-4.8189090">
        <ele>741.0</ele>
        <time>2019-05-25T10:47:50Z</time>
      </trkpt>
      <trkpt lat="41.5976880" lon="-4.8189910">
        <ele>740.8</ele>
        <time>2019-05-25T10:47:51Z</time>
      </trkpt>
      <trkpt lat="41.5976370" lon="-4.8190720">
        <ele>740.6</ele>
        <time>2019-05-25T10:47:52Z</time>
      </trkpt>
      <trkpt lat="41.5975190" lon="-4.8191800">
        <ele>740.4</ele>
        <time>2019-05-25T10:47:54Z</time>
      </trkpt>
      <trkpt lat="41.5973500" lon="-4.8191610">
        <ele>739.4</ele>
        <time>2019-05-25T10:47:56Z</time>
      </trkpt>
      <trkpt lat="41.5972590" lon="-4.8191260">
        <ele>738.8</ele>
        <time>2019-05-25T10:47:57Z</time>
      </trkpt>
      <trkpt lat="41.5971710" lon="-4.8190940">
        <ele>738.4</ele>
        <time>2019-05-25T10:47:58Z</time>
      </trkpt>
      <trkpt lat="41.5969980" lon="-4.8190300">
        <ele>737.4</ele>
        <time>2019-05-25T10:48:00Z</time>
      </trkpt>
      <trkpt lat="41.5969100" lon="-4.8189930">
        <ele>736.8</ele>
        <time>2019-05-25T10:48:01Z</time>
      </trkpt>
      <trkpt lat="41.5968190" lon="-4.8189610">
        <ele>735.2</ele>
        <time>2019-05-25T10:48:02Z</time>
      </trkpt>
      <trkpt lat="41.5967280" lon="-4.8189350">
        <ele>733.4</ele>
        <time>2019-05-25T10:48:03Z</time>
      </trkpt>
      <trkpt lat="41.5966360" lon="-4.8189140">
        <ele>731.6</ele>
        <time>2019-05-25T10:48:04Z</time>
      </trkpt>
      <trkpt lat="41.5965430" lon="-4.8189010">
        <ele>729.4</ele>
        <time>2019-05-25T10:48:05Z</time>
      </trkpt>
      <trkpt lat="41.5964500" lon="-4.8188980">
        <ele>727.8</ele>
        <time>2019-05-25T10:48:06Z</time>
      </trkpt>
      <trkpt lat="41.5962600" lon="-4.8189150">
        <ele>725.8</ele>
        <time>2019-05-25T10:48:08Z</time>
      </trkpt>
      <trkpt lat="41.5961680" lon="-4.8189400">
        <ele>724.6</ele>
        <time>2019-05-25T10:48:09Z</time>
      </trkpt>
      <trkpt lat="41.5960790" lon="-4.8189770">
        <ele>723.4</ele>
        <time>2019-05-25T10:48:10Z</time>
      </trkpt>
      <trkpt lat="41.5959120" lon="-4.8190770">
        <ele>721.8</ele>
        <time>2019-05-25T10:48:12Z</time>
      </trkpt>
      <trkpt lat="41.5957430" lon="-4.8191600">
        <ele>721.0</ele>
        <time>2019-05-25T10:48:14Z</time>
      </trkpt>
      <trkpt lat="41.5956540" lon="-4.8191890">
        <ele>720.8</ele>
        <time>2019-05-25T10:48:15Z</time>
      </trkpt>
      <trkpt lat="41.5954750" lon="-4.8191990">
        <ele>720.4</ele>
        <time>2019-05-25T10:48:17Z</time>
      </trkpt>
      <trkpt lat="41.5953050" lon="-4.8191350">
        <ele>719.4</ele>
        <time>2019-05-25T10:48:19Z</time>
      </trkpt>
      <trkpt lat="41.5951430" lon="-4.8190480">
        <ele>718.4</ele>
        <time>2019-05-25T10:48:21Z</time>
      </trkpt>
      <trkpt lat="41.5950650" lon="-4.8190030">
        <ele>718.2</ele>
        <time>2019-05-25T10:48:22Z</time>
      </trkpt>
      <trkpt lat="41.5949130" lon="-4.8189200">
        <ele>717.0</ele>
        <time>2019-05-25T10:48:24Z</time>
      </trkpt>
      <trkpt lat="41.5947020" lon="-4.8188080">
        <ele>716.0</ele>
        <time>2019-05-25T10:48:27Z</time>
      </trkpt>
      <trkpt lat="41.5943160" lon="-4.8186290">
        <ele>714.6</ele>
        <time>2019-05-25T10:48:33Z</time>
      </trkpt>
      <trkpt lat="41.5942560" lon="-4.8186040">
        <ele>714.6</ele>
        <time>2019-05-25T10:48:34Z</time>
      </trkpt>
      <trkpt lat="41.5941990" lon="-4.8185770">
        <ele>714.4</ele>
        <time>2019-05-25T10:48:35Z</time>
      </trkpt>
      <trkpt lat="41.5940580" lon="-4.8184540">
        <ele>713.8</ele>
        <time>2019-05-25T10:48:38Z</time>
      </trkpt>
      <trkpt lat="41.5940260" lon="-4.8184040">
        <ele>713.8</ele>
        <time>2019-05-25T10:48:39Z</time>
      </trkpt>
      <trkpt lat="41.5939660" lon="-4.8183130">
        <ele>713.6</ele>
        <time>2019-05-25T10:48:41Z</time>
      </trkpt>
      <trkpt lat="41.5939000" lon="-4.8182430">
        <ele>713.4</ele>
        <time>2019-05-25T10:48:43Z</time>
      </trkpt>
      <trkpt lat="41.5938640" lon="-4.8182140">
        <ele>713.4</ele>
        <time>2019-05-25T10:48:44Z</time>
      </trkpt>
      <trkpt lat="41.5936810" lon="-4.8182000">
        <ele>713.4</ele>
        <time>2019-05-25T10:48:48Z</time>
      </trkpt>
      <trkpt lat="41.5936320" lon="-4.8182160">
        <ele>713.4</ele>
        <time>2019-05-25T10:48:49Z</time>
      </trkpt>
      <trkpt lat="41.5935310" lon="-4.8182500">
        <ele>713.4</ele>
        <time>2019-05-25T10:48:51Z</time>
      </trkpt>
      <trkpt lat="41.5933670" lon="-4.8182550">
        <ele>713.0</ele>
        <time>2019-05-25T10:48:54Z</time>
      </trkpt>
      <trkpt lat="41.5932560" lon="-4.8182310">
        <ele>713.0</ele>
        <time>2019-05-25T10:48:56Z</time>
      </trkpt>
      <trkpt lat="41.5929780" lon="-4.8181730">
        <ele>712.4</ele>
        <time>2019-05-25T10:49:01Z</time>
      </trkpt>
      <trkpt lat="41.5927540" lon="-4.8181210">
        <ele>712.2</ele>
        <time>2019-05-25T10:49:05Z</time>
      </trkpt>
      <trkpt lat="41.5925790" lon="-4.8180870">
        <ele>712.2</ele>
        <time>2019-05-25T10:49:08Z</time>
      </trkpt>
      <trkpt lat="41.5920420" lon="-4.8180220">
        <ele>712.2</ele>
        <time>2019-05-25T10:49:17Z</time>
      </trkpt>
      <trkpt lat="41.5919820" lon="-4.8180170">
        <ele>712.0</ele>
        <time>2019-05-25T10:49:18Z</time>
      </trkpt>
      <trkpt lat="41.5917430" lon="-4.8180020">
        <ele>711.8</ele>
        <time>2019-05-25T10:49:22Z</time>
      </trkpt>
      <trkpt lat="41.5914470" lon="-4.8180010">
        <ele>711.6</ele>
        <time>2019-05-25T10:49:27Z</time>
      </trkpt>
      <trkpt lat="41.5909220" lon="-4.8179920">
        <ele>712.0</ele>
        <time>2019-05-25T10:49:36Z</time>
      </trkpt>
      <trkpt lat="41.5906700" lon="-4.8179580">
        <ele>712.0</ele>
        <time>2019-05-25T10:49:41Z</time>
      </trkpt>
      <trkpt lat="41.5905500" lon="-4.8180150">
        <ele>712.0</ele>
        <time>2019-05-25T10:49:45Z</time>
      </trkpt>
      <trkpt lat="41.5904000" lon="-4.8180400">
        <ele>712.2</ele>
        <time>2019-05-25T10:49:50Z</time>
      </trkpt>
      <trkpt lat="41.5901860" lon="-4.8180470">
        <ele>712.4</ele>
        <time>2019-05-25T10:49:57Z</time>
      </trkpt>
      <trkpt lat="41.5899010" lon="-4.8180420">
        <ele>713.2</ele>
        <time>2019-05-25T10:50:04Z</time>
      </trkpt>
      <trkpt lat="41.5898540" lon="-4.8180420">
        <ele>713.4</ele>
        <time>2019-05-25T10:50:05Z</time>
      </trkpt>
      <trkpt lat="41.5894330" lon="-4.8180350">
        <ele>713.6</ele>
        <time>2019-05-25T10:50:13Z</time>
      </trkpt>
      <trkpt lat="41.5891600" lon="-4.8180290">
        <ele>713.8</ele>
        <time>2019-05-25T10:50:18Z</time>
      </trkpt>
      <trkpt lat="41.5888260" lon="-4.8180260">
        <ele>714.0</ele>
        <time>2019-05-25T10:50:25Z</time>
      </trkpt>
      <trkpt lat="41.5884990" lon="-4.8180240">
        <ele>713.8</ele>
        <time>2019-05-25T10:50:30Z</time>
      </trkpt>
      <trkpt lat="41.5883930" lon="-4.8180120">
        <ele>713.6</ele>
        <time>2019-05-25T10:50:32Z</time>
      </trkpt>
      <trkpt lat="41.5883430" lon="-4.8179910">
        <ele>713.6</ele>
        <time>2019-05-25T10:50:33Z</time>
      </trkpt>
      <trkpt lat="41.5882260" lon="-4.8178740">
        <ele>713.8</ele>
        <time>2019-05-25T10:50:36Z</time>
      </trkpt>
      <trkpt lat="41.5882010" lon="-4.8178230">
        <ele>713.4</ele>
        <time>2019-05-25T10:50:37Z</time>
      </trkpt>
      <trkpt lat="41.5881850" lon="-4.8177660">
        <ele>713.4</ele>
        <time>2019-05-25T10:50:38Z</time>
      </trkpt>
      <trkpt lat="41.5881680" lon="-4.8175860">
        <ele>713.2</ele>
        <time>2019-05-25T10:50:41Z</time>
      </trkpt>
      <trkpt lat="41.5881670" lon="-4.8174010">
        <ele>713.0</ele>
        <time>2019-05-25T10:50:44Z</time>
      </trkpt>
      <trkpt lat="41.5881650" lon="-4.8173370">
        <ele>713.0</ele>
        <time>2019-05-25T10:50:45Z</time>
      </trkpt>
      <trkpt lat="41.5881500" lon="-4.8172730">
        <ele>713.0</ele>
        <time>2019-05-25T10:50:46Z</time>
      </trkpt>
      <trkpt lat="41.5881210" lon="-4.8170790">
        <ele>713.0</ele>
        <time>2019-05-25T10:50:49Z</time>
      </trkpt>
      <trkpt lat="41.5881280" lon="-4.8170110">
        <ele>713.0</ele>
        <time>2019-05-25T10:50:50Z</time>
      </trkpt>
      <trkpt lat="41.5881920" lon="-4.8166050">
        <ele>712.8</ele>
        <time>2019-05-25T10:50:56Z</time>
      </trkpt>
      <trkpt lat="41.5882800" lon="-4.8162040">
        <ele>713.0</ele>
        <time>2019-05-25T10:51:02Z</time>
      </trkpt>
      <trkpt lat="41.5883160" lon="-4.8159930">
        <ele>712.8</ele>
        <time>2019-05-25T10:51:05Z</time>
      </trkpt>
      <trkpt lat="41.5883110" lon="-4.8158530">
        <ele>712.8</ele>
        <time>2019-05-25T10:51:07Z</time>
      </trkpt>
      <trkpt lat="41.5882830" lon="-4.8157250">
        <ele>713.0</ele>
        <time>2019-05-25T10:51:09Z</time>
      </trkpt>
      <trkpt lat="41.5882630" lon="-4.8156650">
        <ele>713.0</ele>
        <time>2019-05-25T10:51:10Z</time>
      </trkpt>
      <trkpt lat="41.5882120" lon="-4.8155500">
        <ele>713.0</ele>
        <time>2019-05-25T10:51:12Z</time>
      </trkpt>
      <trkpt lat="41.5881470" lon="-4.8154410">
        <ele>712.8</ele>
        <time>2019-05-25T10:51:14Z</time>
      </trkpt>
      <trkpt lat="41.5881160" lon="-4.8153850">
        <ele>712.8</ele>
        <time>2019-05-25T10:51:15Z</time>
      </trkpt>
      <trkpt lat="41.5880370" lon="-4.8151940">
        <ele>712.8</ele>
        <time>2019-05-25T10:51:18Z</time>
      </trkpt>
      <trkpt lat="41.5878410" lon="-4.8147600">
        <ele>712.8</ele>
        <time>2019-05-25T10:51:25Z</time>
      </trkpt>
      <trkpt lat="41.5877880" lon="-4.8146380">
        <ele>712.8</ele>
        <time>2019-05-25T10:51:27Z</time>
      </trkpt>
      <trkpt lat="41.5876110" lon="-4.8142880">
        <ele>712.6</ele>
        <time>2019-05-25T10:51:33Z</time>
      </trkpt>
      <trkpt lat="41.5875640" lon="-4.8141620">
        <ele>712.6</ele>
        <time>2019-05-25T10:51:35Z</time>
      </trkpt>
      <trkpt lat="41.5875220" lon="-4.8140370">
        <ele>712.6</ele>
        <time>2019-05-25T10:51:37Z</time>
      </trkpt>
      <trkpt lat="41.5874960" lon="-4.8139780">
        <ele>712.6</ele>
        <time>2019-05-25T10:51:38Z</time>
      </trkpt>
      <trkpt lat="41.5874150" lon="-4.8138020">
        <ele>712.8</ele>
        <time>2019-05-25T10:51:41Z</time>
      </trkpt>
      <trkpt lat="41.5872580" lon="-4.8134180">
        <ele>713.0</ele>
        <time>2019-05-25T10:51:47Z</time>
      </trkpt>
      <trkpt lat="41.5871650" lon="-4.8132250">
        <ele>713.2</ele>
        <time>2019-05-25T10:51:50Z</time>
      </trkpt>
      <trkpt lat="41.5870880" lon="-4.8131040">
        <ele>713.2</ele>
        <time>2019-05-25T10:51:52Z</time>
      </trkpt>
      <trkpt lat="41.5870090" lon="-4.8129890">
        <ele>713.0</ele>
        <time>2019-05-25T10:51:54Z</time>
      </trkpt>
      <trkpt lat="41.5868740" lon="-4.8128450">
        <ele>713.0</ele>
        <time>2019-05-25T10:51:57Z</time>
      </trkpt>
      <trkpt lat="41.5866500" lon="-4.8125900">
        <ele>712.8</ele>
        <time>2019-05-25T10:52:02Z</time>
      </trkpt>
      <trkpt lat="41.5864300" lon="-4.8123380">
        <ele>712.8</ele>
        <time>2019-05-25T10:52:07Z</time>
      </trkpt>
      <trkpt lat="41.5861380" lon="-4.8119590">
        <ele>712.8</ele>
        <time>2019-05-25T10:52:14Z</time>
      </trkpt>
      <trkpt lat="41.5860760" lon="-4.8118300">
        <ele>712.8</ele>
        <time>2019-05-25T10:52:16Z</time>
      </trkpt>
      <trkpt lat="41.5860230" lon="-4.8117000">
        <ele>713.0</ele>
        <time>2019-05-25T10:52:18Z</time>
      </trkpt>
      <trkpt lat="41.5859160" lon="-4.8114370">
        <ele>713.2</ele>
        <time>2019-05-25T10:52:22Z</time>
      </trkpt>
      <trkpt lat="41.5858210" lon="-4.8111600">
        <ele>713.8</ele>
        <time>2019-05-25T10:52:26Z</time>
      </trkpt>
      <trkpt lat="41.5857130" lon="-4.8108880">
        <ele>714.0</ele>
        <time>2019-05-25T10:52:30Z</time>
      </trkpt>
      <trkpt lat="41.5855150" lon="-4.8104170">
        <ele>714.2</ele>
        <time>2019-05-25T10:52:37Z</time>
      </trkpt>
      <trkpt lat="41.5854540" lon="-4.8102830">
        <ele>714.2</ele>
        <time>2019-05-25T10:52:39Z</time>
      </trkpt>
      <trkpt lat="41.5852970" lon="-4.8099770">
        <ele>714.2</ele>
        <time>2019-05-25T10:52:44Z</time>
      </trkpt>
      <trkpt lat="41.5852080" lon="-4.8099010">
        <ele>714.2</ele>
        <time>2019-05-25T10:52:46Z</time>
      </trkpt>
      <trkpt lat="41.5851170" lon="-4.8098220">
        <ele>714.2</ele>
        <time>2019-05-25T10:52:48Z</time>
      </trkpt>
      <trkpt lat="41.5849610" lon="-4.8096460">
        <ele>714.2</ele>
        <time>2019-05-25T10:52:52Z</time>
      </trkpt>
      <trkpt lat="41.5847100" lon="-4.8093070">
        <ele>714.0</ele>
        <time>2019-05-25T10:52:59Z</time>
      </trkpt>
      <trkpt lat="41.5845100" lon="-4.8089970">
        <ele>713.8</ele>
        <time>2019-05-25T10:53:05Z</time>
      </trkpt>
      <trkpt lat="41.5843700" lon="-4.8087380">
        <ele>713.8</ele>
        <time>2019-05-25T10:53:10Z</time>
      </trkpt>
      <trkpt lat="41.5843470" lon="-4.8086950">
        <ele>713.8</ele>
        <time>2019-05-25T10:53:11Z</time>
      </trkpt>
      <trkpt lat="41.5842910" lon="-4.8086050">
        <ele>714.2</ele>
        <time>2019-05-25T10:53:13Z</time>
      </trkpt>
      <trkpt lat="41.5842270" lon="-4.8085090">
        <ele>714.4</ele>
        <time>2019-05-25T10:53:15Z</time>
      </trkpt>
      <trkpt lat="41.5841950" lon="-4.8084620">
        <ele>714.6</ele>
        <time>2019-05-25T10:53:16Z</time>
      </trkpt>
      <trkpt lat="41.5841090" lon="-4.8083050">
        <ele>715.2</ele>
        <time>2019-05-25T10:53:19Z</time>
      </trkpt>
      <trkpt lat="41.5840500" lon="-4.8081990">
        <ele>715.2</ele>
        <time>2019-05-25T10:53:21Z</time>
      </trkpt>
      <trkpt lat="41.5840230" lon="-4.8081430">
        <ele>715.2</ele>
        <time>2019-05-25T10:53:22Z</time>
      </trkpt>
      <trkpt lat="41.5838350" lon="-4.8077440">
        <ele>715.4</ele>
        <time>2019-05-25T10:53:29Z</time>
      </trkpt>
      <trkpt lat="41.5836760" lon="-4.8074010">
        <ele>715.4</ele>
        <time>2019-05-25T10:53:35Z</time>
      </trkpt>
      <trkpt lat="41.5835730" lon="-4.8071790">
        <ele>715.4</ele>
        <time>2019-05-25T10:53:39Z</time>
      </trkpt>
      <trkpt lat="41.5835070" lon="-4.8069920">
        <ele>715.2</ele>
        <time>2019-05-25T10:53:42Z</time>
      </trkpt>
      <trkpt lat="41.5833910" lon="-4.8066450">
        <ele>715.0</ele>
        <time>2019-05-25T10:53:48Z</time>
      </trkpt>
      <trkpt lat="41.5832860" lon="-4.8063250">
        <ele>715.2</ele>
        <time>2019-05-25T10:53:53Z</time>
      </trkpt>
      <trkpt lat="41.5831920" lon="-4.8060440">
        <ele>715.2</ele>
        <time>2019-05-25T10:53:57Z</time>
      </trkpt>
      <trkpt lat="41.5830920" lon="-4.8056910">
        <ele>715.4</ele>
        <time>2019-05-25T10:54:02Z</time>
      </trkpt>
      <trkpt lat="41.5829270" lon="-4.8052350">
        <ele>715.2</ele>
        <time>2019-05-25T10:54:09Z</time>
      </trkpt>
      <trkpt lat="41.5828000" lon="-4.8051040">
        <ele>715.4</ele>
        <time>2019-05-25T10:54:12Z</time>
      </trkpt>
      <trkpt lat="41.5826200" lon="-4.8049240">
        <ele>715.4</ele>
        <time>2019-05-25T10:54:16Z</time>
      </trkpt>
      <trkpt lat="41.5825240" lon="-4.8048280">
        <ele>715.6</ele>
        <time>2019-05-25T10:54:18Z</time>
      </trkpt>
      <trkpt lat="41.5824080" lon="-4.8047470">
        <ele>715.6</ele>
        <time>2019-05-25T10:54:20Z</time>
      </trkpt>
      <trkpt lat="41.5823530" lon="-4.8046930">
        <ele>715.6</ele>
        <time>2019-05-25T10:54:21Z</time>
      </trkpt>
      <trkpt lat="41.5822460" lon="-4.8045620">
        <ele>715.6</ele>
        <time>2019-05-25T10:54:23Z</time>
      </trkpt>
      <trkpt lat="41.5821280" lon="-4.8044430">
        <ele>715.8</ele>
        <time>2019-05-25T10:54:25Z</time>
      </trkpt>
      <trkpt lat="41.5820800" lon="-4.8043730">
        <ele>716.0</ele>
        <time>2019-05-25T10:54:26Z</time>
      </trkpt>
      <trkpt lat="41.5820310" lon="-4.8043120">
        <ele>716.2</ele>
        <time>2019-05-25T10:54:27Z</time>
      </trkpt>
      <trkpt lat="41.5819240" lon="-4.8042090">
        <ele>716.4</ele>
        <time>2019-05-25T10:54:29Z</time>
      </trkpt>
      <trkpt lat="41.5817740" lon="-4.8040360">
        <ele>716.6</ele>
        <time>2019-05-25T10:54:32Z</time>
      </trkpt>
      <trkpt lat="41.5815950" lon="-4.8038640">
        <ele>716.6</ele>
        <time>2019-05-25T10:54:35Z</time>
      </trkpt>
      <trkpt lat="41.5814160" lon="-4.8036510">
        <ele>716.6</ele>
        <time>2019-05-25T10:54:38Z</time>
      </trkpt>
      <trkpt lat="41.5812850" lon="-4.8035140">
        <ele>716.4</ele>
        <time>2019-05-25T10:54:40Z</time>
      </trkpt>
      <trkpt lat="41.5811540" lon="-4.8033850">
        <ele>716.2</ele>
        <time>2019-05-25T10:54:42Z</time>
      </trkpt>
      <trkpt lat="41.5810370" lon="-4.8032470">
        <ele>716.0</ele>
        <time>2019-05-25T10:54:44Z</time>
      </trkpt>
      <trkpt lat="41.5808470" lon="-4.8030750">
        <ele>715.8</ele>
        <time>2019-05-25T10:54:47Z</time>
      </trkpt>
      <trkpt lat="41.5807880" lon="-4.8030170">
        <ele>715.8</ele>
        <time>2019-05-25T10:54:48Z</time>
      </trkpt>
      <trkpt lat="41.5806120" lon="-4.8028180">
        <ele>715.8</ele>
        <time>2019-05-25T10:54:51Z</time>
      </trkpt>
      <trkpt lat="41.5804940" lon="-4.8026990">
        <ele>715.8</ele>
        <time>2019-05-25T10:54:53Z</time>
      </trkpt>
      <trkpt lat="41.5803720" lon="-4.8026130">
        <ele>715.8</ele>
        <time>2019-05-25T10:54:55Z</time>
      </trkpt>
      <trkpt lat="41.5802940" lon="-4.8024910">
        <ele>715.8</ele>
        <time>2019-05-25T10:54:57Z</time>
      </trkpt>
      <trkpt lat="41.5801470" lon="-4.8023430">
        <ele>716.0</ele>
        <time>2019-05-25T10:55:00Z</time>
      </trkpt>
      <trkpt lat="41.5801000" lon="-4.8022940">
        <ele>716.2</ele>
        <time>2019-05-25T10:55:01Z</time>
      </trkpt>
      <trkpt lat="41.5800520" lon="-4.8022470">
        <ele>716.6</ele>
        <time>2019-05-25T10:55:02Z</time>
      </trkpt>
      <trkpt lat="41.5799050" lon="-4.8020990">
        <ele>716.8</ele>
        <time>2019-05-25T10:55:05Z</time>
      </trkpt>
      <trkpt lat="41.5798620" lon="-4.8020340">
        <ele>717.0</ele>
        <time>2019-05-25T10:55:06Z</time>
      </trkpt>
      <trkpt lat="41.5798150" lon="-4.8019710">
        <ele>717.0</ele>
        <time>2019-05-25T10:55:07Z</time>
      </trkpt>
      <trkpt lat="41.5796820" lon="-4.8018850">
        <ele>717.0</ele>
        <time>2019-05-25T10:55:09Z</time>
      </trkpt>
      <trkpt lat="41.5795210" lon="-4.8016820">
        <ele>717.0</ele>
        <time>2019-05-25T10:55:12Z</time>
      </trkpt>
      <trkpt lat="41.5794660" lon="-4.8016130">
        <ele>716.8</ele>
        <time>2019-05-25T10:55:13Z</time>
      </trkpt>
      <trkpt lat="41.5793430" lon="-4.8015120">
        <ele>716.6</ele>
        <time>2019-05-25T10:55:15Z</time>
      </trkpt>
      <trkpt lat="41.5792890" lon="-4.8014610">
        <ele>716.6</ele>
        <time>2019-05-25T10:55:16Z</time>
      </trkpt>
      <trkpt lat="41.5791830" lon="-4.8013280">
        <ele>716.6</ele>
        <time>2019-05-25T10:55:18Z</time>
      </trkpt>
      <trkpt lat="41.5790390" lon="-4.8011510">
        <ele>716.6</ele>
        <time>2019-05-25T10:55:21Z</time>
      </trkpt>
      <trkpt lat="41.5789900" lon="-4.8010930">
        <ele>716.6</ele>
        <time>2019-05-25T10:55:22Z</time>
      </trkpt>
      <trkpt lat="41.5788650" lon="-4.8009970">
        <ele>716.6</ele>
        <time>2019-05-25T10:55:24Z</time>
      </trkpt>
      <trkpt lat="41.5786870" lon="-4.8008250">
        <ele>716.6</ele>
        <time>2019-05-25T10:55:27Z</time>
      </trkpt>
      <trkpt lat="41.5786240" lon="-4.8007720">
        <ele>716.6</ele>
        <time>2019-05-25T10:55:28Z</time>
      </trkpt>
      <trkpt lat="41.5784930" lon="-4.8006560">
        <ele>716.6</ele>
        <time>2019-05-25T10:55:30Z</time>
      </trkpt>
      <trkpt lat="41.5784220" lon="-4.8006010">
        <ele>716.6</ele>
        <time>2019-05-25T10:55:31Z</time>
      </trkpt>
      <trkpt lat="41.5782620" lon="-4.8003800">
        <ele>716.8</ele>
        <time>2019-05-25T10:55:34Z</time>
      </trkpt>
      <trkpt lat="41.5780890" lon="-4.8002260">
        <ele>716.6</ele>
        <time>2019-05-25T10:55:37Z</time>
      </trkpt>
      <trkpt lat="41.5777480" lon="-4.7998730">
        <ele>716.8</ele>
        <time>2019-05-25T10:55:43Z</time>
      </trkpt>
      <trkpt lat="41.5774830" lon="-4.7995580">
        <ele>717.0</ele>
        <time>2019-05-25T10:55:48Z</time>
      </trkpt>
      <trkpt lat="41.5773670" lon="-4.7994420">
        <ele>717.0</ele>
        <time>2019-05-25T10:55:50Z</time>
      </trkpt>
      <trkpt lat="41.5770130" lon="-4.7991360">
        <ele>717.0</ele>
        <time>2019-05-25T10:55:56Z</time>
      </trkpt>
      <trkpt lat="41.5769530" lon="-4.7990870">
        <ele>717.0</ele>
        <time>2019-05-25T10:55:57Z</time>
      </trkpt>
      <trkpt lat="41.5768090" lon="-4.7988810">
        <ele>717.0</ele>
        <time>2019-05-25T10:56:00Z</time>
      </trkpt>
      <trkpt lat="41.5767100" lon="-4.7987500">
        <ele>716.8</ele>
        <time>2019-05-25T10:56:02Z</time>
      </trkpt>
      <trkpt lat="41.5766100" lon="-4.7986220">
        <ele>716.8</ele>
        <time>2019-05-25T10:56:04Z</time>
      </trkpt>
      <trkpt lat="41.5765560" lon="-4.7985670">
        <ele>716.8</ele>
        <time>2019-05-25T10:56:05Z</time>
      </trkpt>
      <trkpt lat="41.5763870" lon="-4.7984170">
        <ele>716.8</ele>
        <time>2019-05-25T10:56:08Z</time>
      </trkpt>
      <trkpt lat="41.5762820" lon="-4.7983130">
        <ele>716.8</ele>
        <time>2019-05-25T10:56:10Z</time>
      </trkpt>
      <trkpt lat="41.5761810" lon="-4.7982010">
        <ele>717.0</ele>
        <time>2019-05-25T10:56:12Z</time>
      </trkpt>
      <trkpt lat="41.5761360" lon="-4.7981390">
        <ele>717.0</ele>
        <time>2019-05-25T10:56:13Z</time>
      </trkpt>
      <trkpt lat="41.5760850" lon="-4.7980880">
        <ele>716.8</ele>
        <time>2019-05-25T10:56:14Z</time>
      </trkpt>
      <trkpt lat="41.5760280" lon="-4.7980500">
        <ele>717.0</ele>
        <time>2019-05-25T10:56:15Z</time>
      </trkpt>
      <trkpt lat="41.5759710" lon="-4.7980080">
        <ele>717.2</ele>
        <time>2019-05-25T10:56:16Z</time>
      </trkpt>
      <trkpt lat="41.5757580" lon="-4.7978010">
        <ele>718.0</ele>
        <time>2019-05-25T10:56:20Z</time>
      </trkpt>
      <trkpt lat="41.5756540" lon="-4.7977010">
        <ele>718.2</ele>
        <time>2019-05-25T10:56:22Z</time>
      </trkpt>
      <trkpt lat="41.5755480" lon="-4.7976130">
        <ele>718.2</ele>
        <time>2019-05-25T10:56:24Z</time>
      </trkpt>
      <trkpt lat="41.5753950" lon="-4.7974710">
        <ele>718.4</ele>
        <time>2019-05-25T10:56:27Z</time>
      </trkpt>
      <trkpt lat="41.5753110" lon="-4.7973550">
        <ele>718.2</ele>
        <time>2019-05-25T10:56:29Z</time>
      </trkpt>
      <trkpt lat="41.5752290" lon="-4.7972330">
        <ele>718.4</ele>
        <time>2019-05-25T10:56:31Z</time>
      </trkpt>
      <trkpt lat="41.5750240" lon="-4.7970390">
        <ele>718.6</ele>
        <time>2019-05-25T10:56:35Z</time>
      </trkpt>
      <trkpt lat="41.5749300" lon="-4.7969300">
        <ele>718.6</ele>
        <time>2019-05-25T10:56:37Z</time>
      </trkpt>
      <trkpt lat="41.5746260" lon="-4.7965840">
        <ele>718.8</ele>
        <time>2019-05-25T10:56:43Z</time>
      </trkpt>
      <trkpt lat="41.5743030" lon="-4.7962780">
        <ele>718.8</ele>
        <time>2019-05-25T10:56:49Z</time>
      </trkpt>
      <trkpt lat="41.5742560" lon="-4.7962230">
        <ele>718.6</ele>
        <time>2019-05-25T10:56:50Z</time>
      </trkpt>
      <trkpt lat="41.5740960" lon="-4.7960930">
        <ele>718.6</ele>
        <time>2019-05-25T10:56:53Z</time>
      </trkpt>
      <trkpt lat="41.5740430" lon="-4.7960550">
        <ele>718.8</ele>
        <time>2019-05-25T10:56:54Z</time>
      </trkpt>
      <trkpt lat="41.5739910" lon="-4.7960080">
        <ele>718.8</ele>
        <time>2019-05-25T10:56:55Z</time>
      </trkpt>
      <trkpt lat="41.5737980" lon="-4.7957690">
        <ele>718.8</ele>
        <time>2019-05-25T10:56:59Z</time>
      </trkpt>
      <trkpt lat="41.5736060" lon="-4.7955360">
        <ele>718.6</ele>
        <time>2019-05-25T10:57:03Z</time>
      </trkpt>
      <trkpt lat="41.5735060" lon="-4.7954320">
        <ele>718.6</ele>
        <time>2019-05-25T10:57:05Z</time>
      </trkpt>
      <trkpt lat="41.5732010" lon="-4.7951130">
        <ele>718.8</ele>
        <time>2019-05-25T10:57:11Z</time>
      </trkpt>
      <trkpt lat="41.5730920" lon="-4.7950140">
        <ele>718.8</ele>
        <time>2019-05-25T10:57:13Z</time>
      </trkpt>
      <trkpt lat="41.5729430" lon="-4.7948550">
        <ele>719.0</ele>
        <time>2019-05-25T10:57:16Z</time>
      </trkpt>
      <trkpt lat="41.5727910" lon="-4.7947020">
        <ele>719.0</ele>
        <time>2019-05-25T10:57:19Z</time>
      </trkpt>
      <trkpt lat="41.5727410" lon="-4.7946470">
        <ele>719.0</ele>
        <time>2019-05-25T10:57:20Z</time>
      </trkpt>
      <trkpt lat="41.5725880" lon="-4.7945070">
        <ele>719.0</ele>
        <time>2019-05-25T10:57:23Z</time>
      </trkpt>
      <trkpt lat="41.5723840" lon="-4.7943040">
        <ele>719.2</ele>
        <time>2019-05-25T10:57:27Z</time>
      </trkpt>
      <trkpt lat="41.5723270" lon="-4.7942620">
        <ele>719.2</ele>
        <time>2019-05-25T10:57:28Z</time>
      </trkpt>
      <trkpt lat="41.5722710" lon="-4.7942130">
        <ele>719.2</ele>
        <time>2019-05-25T10:57:29Z</time>
      </trkpt>
      <trkpt lat="41.5721280" lon="-4.7940290">
        <ele>719.0</ele>
        <time>2019-05-25T10:57:32Z</time>
      </trkpt>
      <trkpt lat="41.5720800" lon="-4.7939710">
        <ele>719.0</ele>
        <time>2019-05-25T10:57:33Z</time>
      </trkpt>
      <trkpt lat="41.5719130" lon="-4.7938550">
        <ele>719.0</ele>
        <time>2019-05-25T10:57:36Z</time>
      </trkpt>
      <trkpt lat="41.5718570" lon="-4.7938060">
        <ele>718.8</ele>
        <time>2019-05-25T10:57:37Z</time>
      </trkpt>
      <trkpt lat="41.5717650" lon="-4.7936770">
        <ele>718.8</ele>
        <time>2019-05-25T10:57:39Z</time>
      </trkpt>
      <trkpt lat="41.5716270" lon="-4.7935030">
        <ele>718.8</ele>
        <time>2019-05-25T10:57:42Z</time>
      </trkpt>
      <trkpt lat="41.5715650" lon="-4.7934710">
        <ele>718.8</ele>
        <time>2019-05-25T10:57:43Z</time>
      </trkpt>
      <trkpt lat="41.5713920" lon="-4.7933250">
        <ele>718.8</ele>
        <time>2019-05-25T10:57:46Z</time>
      </trkpt>
      <trkpt lat="41.5713420" lon="-4.7932620">
        <ele>718.8</ele>
        <time>2019-05-25T10:57:47Z</time>
      </trkpt>
      <trkpt lat="41.5712900" lon="-4.7932040">
        <ele>718.8</ele>
        <time>2019-05-25T10:57:48Z</time>
      </trkpt>
      <trkpt lat="41.5710730" lon="-4.7929890">
        <ele>719.0</ele>
        <time>2019-05-25T10:57:52Z</time>
      </trkpt>
      <trkpt lat="41.5710170" lon="-4.7929400">
        <ele>718.8</ele>
        <time>2019-05-25T10:57:53Z</time>
      </trkpt>
      <trkpt lat="41.5707430" lon="-4.7926750">
        <ele>719.2</ele>
        <time>2019-05-25T10:57:58Z</time>
      </trkpt>
      <trkpt lat="41.5705860" lon="-4.7925110">
        <ele>719.0</ele>
        <time>2019-05-25T10:58:01Z</time>
      </trkpt>
      <trkpt lat="41.5704930" lon="-4.7923970">
        <ele>719.2</ele>
        <time>2019-05-25T10:58:03Z</time>
      </trkpt>
      <trkpt lat="41.5704540" lon="-4.7923330">
        <ele>719.2</ele>
        <time>2019-05-25T10:58:04Z</time>
      </trkpt>
      <trkpt lat="41.5703610" lon="-4.7922430">
        <ele>719.2</ele>
        <time>2019-05-25T10:58:06Z</time>
      </trkpt>
      <trkpt lat="41.5702140" lon="-4.7920920">
        <ele>719.4</ele>
        <time>2019-05-25T10:58:09Z</time>
      </trkpt>
      <trkpt lat="41.5699960" lon="-4.7919180">
        <ele>719.4</ele>
        <time>2019-05-25T10:58:13Z</time>
      </trkpt>
      <trkpt lat="41.5699480" lon="-4.7918750">
        <ele>719.4</ele>
        <time>2019-05-25T10:58:14Z</time>
      </trkpt>
      <trkpt lat="41.5698980" lon="-4.7918360">
        <ele>719.4</ele>
        <time>2019-05-25T10:58:15Z</time>
      </trkpt>
      <trkpt lat="41.5697610" lon="-4.7916960">
        <ele>719.6</ele>
        <time>2019-05-25T10:58:18Z</time>
      </trkpt>
      <trkpt lat="41.5697130" lon="-4.7916570">
        <ele>719.8</ele>
        <time>2019-05-25T10:58:19Z</time>
      </trkpt>
      <trkpt lat="41.5696200" lon="-4.7915760">
        <ele>720.0</ele>
        <time>2019-05-25T10:58:21Z</time>
      </trkpt>
      <trkpt lat="41.5696200" lon="-4.7915760">
        <ele>720.2</ele>
        <time>2019-05-25T10:58:22Z</time>
      </trkpt>
      <trkpt lat="41.5694950" lon="-4.7914250">
        <ele>720.4</ele>
        <time>2019-05-25T10:58:24Z</time>
      </trkpt>
      <trkpt lat="41.5694420" lon="-4.7913920">
        <ele>720.4</ele>
        <time>2019-05-25T10:58:26Z</time>
      </trkpt>
      <trkpt lat="41.5693310" lon="-4.7913550">
        <ele>720.4</ele>
        <time>2019-05-25T10:58:27Z</time>
      </trkpt>
      <trkpt lat="41.5692260" lon="-4.7913600">
        <ele>720.4</ele>
        <time>2019-05-25T10:58:29Z</time>
      </trkpt>
      <trkpt lat="41.5687660" lon="-4.7913900">
        <ele>720.2</ele>
        <time>2019-05-25T10:58:37Z</time>
      </trkpt>
      <trkpt lat="41.5684290" lon="-4.7913800">
        <ele>720.0</ele>
        <time>2019-05-25T10:58:43Z</time>
      </trkpt>
      <trkpt lat="41.5683700" lon="-4.7913710">
        <ele>720.2</ele>
        <time>2019-05-25T10:58:44Z</time>
      </trkpt>
      <trkpt lat="41.5681460" lon="-4.7913010">
        <ele>720.2</ele>
        <time>2019-05-25T10:58:48Z</time>
      </trkpt>
      <trkpt lat="41.5679790" lon="-4.7912390">
        <ele>720.4</ele>
        <time>2019-05-25T10:58:51Z</time>
      </trkpt>
      <trkpt lat="41.5678100" lon="-4.7912060">
        <ele>720.4</ele>
        <time>2019-05-25T10:58:54Z</time>
      </trkpt>
      <trkpt lat="41.5673600" lon="-4.7911060">
        <ele>720.8</ele>
        <time>2019-05-25T10:59:02Z</time>
      </trkpt>
      <trkpt lat="41.5669720" lon="-4.7910310">
        <ele>721.0</ele>
        <time>2019-05-25T10:59:09Z</time>
      </trkpt>
      <trkpt lat="41.5669140" lon="-4.7910250">
        <ele>721.0</ele>
        <time>2019-05-25T10:59:10Z</time>
      </trkpt>
      <trkpt lat="41.5665680" lon="-4.7909760">
        <ele>720.8</ele>
        <time>2019-05-25T10:59:16Z</time>
      </trkpt>
      <trkpt lat="41.5661880" lon="-4.7909170">
        <ele>720.6</ele>
        <time>2019-05-25T10:59:23Z</time>
      </trkpt>
      <trkpt lat="41.5658020" lon="-4.7908850">
        <ele>720.8</ele>
        <time>2019-05-25T10:59:30Z</time>
      </trkpt>
      <trkpt lat="41.5654230" lon="-4.7908400">
        <ele>720.6</ele>
        <time>2019-05-25T10:59:37Z</time>
      </trkpt>
      <trkpt lat="41.5651130" lon="-4.7907840">
        <ele>720.6</ele>
        <time>2019-05-25T10:59:42Z</time>
      </trkpt>
      <trkpt lat="41.5649880" lon="-4.7907500">
        <ele>720.4</ele>
        <time>2019-05-25T10:59:44Z</time>
      </trkpt>
      <trkpt lat="41.5648060" lon="-4.7907230">
        <ele>720.0</ele>
        <time>2019-05-25T10:59:47Z</time>
      </trkpt>
      <trkpt lat="41.5643670" lon="-4.7906260">
        <ele>719.6</ele>
        <time>2019-05-25T10:59:54Z</time>
      </trkpt>
      <trkpt lat="41.5639390" lon="-4.7905110">
        <ele>719.6</ele>
        <time>2019-05-25T11:00:01Z</time>
      </trkpt>
      <trkpt lat="41.5638830" lon="-4.7904820">
        <ele>719.6</ele>
        <time>2019-05-25T11:00:02Z</time>
      </trkpt>
      <trkpt lat="41.5636710" lon="-4.7903490">
        <ele>719.6</ele>
        <time>2019-05-25T11:00:06Z</time>
      </trkpt>
      <trkpt lat="41.5636180" lon="-4.7903210">
        <ele>719.6</ele>
        <time>2019-05-25T11:00:07Z</time>
      </trkpt>
      <trkpt lat="41.5633310" lon="-4.7901620">
        <ele>719.4</ele>
        <time>2019-05-25T11:00:12Z</time>
      </trkpt>
      <trkpt lat="41.5632770" lon="-4.7901350">
        <ele>719.2</ele>
        <time>2019-05-25T11:00:13Z</time>
      </trkpt>
      <trkpt lat="41.5631250" lon="-4.7900430">
        <ele>719.0</ele>
        <time>2019-05-25T11:00:16Z</time>
      </trkpt>
      <trkpt lat="41.5630470" lon="-4.7899520">
        <ele>718.6</ele>
        <time>2019-05-25T11:00:18Z</time>
      </trkpt>
      <trkpt lat="41.5630130" lon="-4.7899060">
        <ele>718.4</ele>
        <time>2019-05-25T11:00:19Z</time>
      </trkpt>
      <trkpt lat="41.5629360" lon="-4.7898190">
        <ele>718.4</ele>
        <time>2019-05-25T11:00:21Z</time>
      </trkpt>
      <trkpt lat="41.5628530" lon="-4.7897400">
        <ele>718.4</ele>
        <time>2019-05-25T11:00:23Z</time>
      </trkpt>
      <trkpt lat="41.5628150" lon="-4.7896920">
        <ele>718.2</ele>
        <time>2019-05-25T11:00:24Z</time>
      </trkpt>
      <trkpt lat="41.5627500" lon="-4.7895840">
        <ele>718.2</ele>
        <time>2019-05-25T11:00:26Z</time>
      </trkpt>
      <trkpt lat="41.5626810" lon="-4.7894130">
        <ele>718.2</ele>
        <time>2019-05-25T11:00:29Z</time>
      </trkpt>
      <trkpt lat="41.5626020" lon="-4.7891300">
        <ele>718.0</ele>
        <time>2019-05-25T11:00:34Z</time>
      </trkpt>
      <trkpt lat="41.5625620" lon="-4.7890400">
        <ele>718.2</ele>
        <time>2019-05-25T11:00:36Z</time>
      </trkpt>
      <trkpt lat="41.5624510" lon="-4.7889570">
        <ele>718.2</ele>
        <time>2019-05-25T11:00:40Z</time>
      </trkpt>
      <trkpt lat="41.5622560" lon="-4.7889810">
        <ele>718.8</ele>
        <time>2019-05-25T11:00:46Z</time>
      </trkpt>
      <trkpt lat="41.5621600" lon="-4.7889860">
        <ele>718.8</ele>
        <time>2019-05-25T11:00:49Z</time>
      </trkpt>
      <trkpt lat="41.5621270" lon="-4.7889880">
        <ele>718.8</ele>
        <time>2019-05-25T11:00:51Z</time>
      </trkpt>
      <trkpt lat="41.5620820" lon="-4.7889930">
        <ele>718.8</ele>
        <time>2019-05-25T11:01:49Z</time>
      </trkpt>
      <trkpt lat="41.5620520" lon="-4.7889960">
        <ele>718.8</ele>
        <time>2019-05-25T11:01:50Z</time>
      </trkpt>
      <trkpt lat="41.5620170" lon="-4.7889990">
        <ele>718.8</ele>
        <time>2019-05-25T11:01:51Z</time>
      </trkpt>
      <trkpt lat="41.5619430" lon="-4.7890020">
        <ele>718.6</ele>
        <time>2019-05-25T11:01:53Z</time>
      </trkpt>
      <trkpt lat="41.5618240" lon="-4.7890080">
        <ele>718.6</ele>
        <time>2019-05-25T11:01:56Z</time>
      </trkpt>
      <trkpt lat="41.5617000" lon="-4.7890140">
        <ele>718.4</ele>
        <time>2019-05-25T11:01:59Z</time>
      </trkpt>
      <trkpt lat="41.5617000" lon="-4.7890140">
        <ele>718.2</ele>
        <time>2019-05-25T11:02:00Z</time>
      </trkpt>
      <trkpt lat="41.5616140" lon="-4.7890170">
        <ele>718.2</ele>
        <time>2019-05-25T11:02:01Z</time>
      </trkpt>
      <trkpt lat="41.5613910" lon="-4.7890100">
        <ele>718.2</ele>
        <time>2019-05-25T11:02:06Z</time>
      </trkpt>
      <trkpt lat="41.5612140" lon="-4.7890280">
        <ele>718.0</ele>
        <time>2019-05-25T11:02:10Z</time>
      </trkpt>
      <trkpt lat="41.5610760" lon="-4.7890470">
        <ele>717.8</ele>
        <time>2019-05-25T11:02:13Z</time>
      </trkpt>
      <trkpt lat="41.5610260" lon="-4.7890490">
        <ele>717.6</ele>
        <time>2019-05-25T11:02:14Z</time>
      </trkpt>
      <trkpt lat="41.5609220" lon="-4.7890580">
        <ele>717.6</ele>
        <time>2019-05-25T11:02:16Z</time>
      </trkpt>
      <trkpt lat="41.5608190" lon="-4.7890720">
        <ele>717.4</ele>
        <time>2019-05-25T11:02:18Z</time>
      </trkpt>
      <trkpt lat="41.5606140" lon="-4.7890770">
        <ele>716.8</ele>
        <time>2019-05-25T11:02:22Z</time>
      </trkpt>
      <trkpt lat="41.5603830" lon="-4.7890470">
        <ele>716.2</ele>
        <time>2019-05-25T11:02:27Z</time>
      </trkpt>
      <trkpt lat="41.5603390" lon="-4.7890500">
        <ele>716.2</ele>
        <time>2019-05-25T11:02:28Z</time>
      </trkpt>
      <trkpt lat="41.5600700" lon="-4.7891100">
        <ele>716.0</ele>
        <time>2019-05-25T11:02:34Z</time>
      </trkpt>
      <trkpt lat="41.5600320" lon="-4.7891290">
        <ele>716.2</ele>
        <time>2019-05-25T11:02:35Z</time>
      </trkpt>
      <trkpt lat="41.5599550" lon="-4.7891660">
        <ele>716.2</ele>
        <time>2019-05-25T11:02:37Z</time>
      </trkpt>
      <trkpt lat="41.5598720" lon="-4.7891970">
        <ele>716.2</ele>
        <time>2019-05-25T11:02:39Z</time>
      </trkpt>
      <trkpt lat="41.5594790" lon="-4.7893120">
        <ele>716.4</ele>
        <time>2019-05-25T11:02:48Z</time>
      </trkpt>
      <trkpt lat="41.5592170" lon="-4.7893940">
        <ele>717.0</ele>
        <time>2019-05-25T11:02:54Z</time>
      </trkpt>
      <trkpt lat="41.5590840" lon="-4.7894340">
        <ele>717.2</ele>
        <time>2019-05-25T11:02:57Z</time>
      </trkpt>
      <trkpt lat="41.5587850" lon="-4.7895260">
        <ele>717.4</ele>
        <time>2019-05-25T11:03:04Z</time>
      </trkpt>
      <trkpt lat="41.5587010" lon="-4.7895440">
        <ele>717.4</ele>
        <time>2019-05-25T11:03:06Z</time>
      </trkpt>
      <trkpt lat="41.5584900" lon="-4.7895890">
        <ele>717.8</ele>
        <time>2019-05-25T11:03:11Z</time>
      </trkpt>
      <trkpt lat="41.5583610" lon="-4.7896000">
        <ele>717.8</ele>
        <time>2019-05-25T11:03:14Z</time>
      </trkpt>
      <trkpt lat="41.5581960" lon="-4.7896120">
        <ele>717.8</ele>
        <time>2019-05-25T11:03:18Z</time>
      </trkpt>
      <trkpt lat="41.5580260" lon="-4.7896100">
        <ele>718.0</ele>
        <time>2019-05-25T11:03:22Z</time>
      </trkpt>
      <trkpt lat="41.5578250" lon="-4.7895790">
        <ele>717.6</ele>
        <time>2019-05-25T11:03:27Z</time>
      </trkpt>
      <trkpt lat="41.5577890" lon="-4.7895890">
        <ele>717.6</ele>
        <time>2019-05-25T11:03:28Z</time>
      </trkpt>
      <trkpt lat="41.5576720" lon="-4.7896440">
        <ele>717.6</ele>
        <time>2019-05-25T11:03:31Z</time>
      </trkpt>
      <trkpt lat="41.5575340" lon="-4.7896640">
        <ele>717.4</ele>
        <time>2019-05-25T11:03:34Z</time>
      </trkpt>
      <trkpt lat="41.5574910" lon="-4.7896360">
        <ele>717.2</ele>
        <time>2019-05-25T11:03:35Z</time>
      </trkpt>
      <trkpt lat="41.5573860" lon="-4.7896210">
        <ele>717.2</ele>
        <time>2019-05-25T11:03:37Z</time>
      </trkpt>
      <trkpt lat="41.5573280" lon="-4.7896280">
        <ele>717.0</ele>
        <time>2019-05-25T11:03:38Z</time>
      </trkpt>
      <trkpt lat="41.5571590" lon="-4.7896610">
        <ele>717.0</ele>
        <time>2019-05-25T11:03:41Z</time>
      </trkpt>
      <trkpt lat="41.5569990" lon="-4.7897080">
        <ele>717.0</ele>
        <time>2019-05-25T11:03:44Z</time>
      </trkpt>
      <trkpt lat="41.5567870" lon="-4.7898010">
        <ele>716.4</ele>
        <time>2019-05-25T11:03:48Z</time>
      </trkpt>
      <trkpt lat="41.5566240" lon="-4.7898730">
        <ele>715.4</ele>
        <time>2019-05-25T11:03:51Z</time>
      </trkpt>
      <trkpt lat="41.5564670" lon="-4.7899450">
        <ele>715.2</ele>
        <time>2019-05-25T11:03:54Z</time>
      </trkpt>
      <trkpt lat="41.5562220" lon="-4.7900950">
        <ele>715.6</ele>
        <time>2019-05-25T11:03:59Z</time>
      </trkpt>
      <trkpt lat="41.5561250" lon="-4.7901480">
        <ele>716.0</ele>
        <time>2019-05-25T11:04:01Z</time>
      </trkpt>
      <trkpt lat="41.5560220" lon="-4.7901600">
        <ele>716.2</ele>
        <time>2019-05-25T11:04:03Z</time>
      </trkpt>
      <trkpt lat="41.5558620" lon="-4.7902180">
        <ele>716.2</ele>
        <time>2019-05-25T11:04:06Z</time>
      </trkpt>
      <trkpt lat="41.5557440" lon="-4.7902460">
        <ele>716.2</ele>
        <time>2019-05-25T11:04:08Z</time>
      </trkpt>
      <trkpt lat="41.5556280" lon="-4.7902610">
        <ele>716.2</ele>
        <time>2019-05-25T11:04:10Z</time>
      </trkpt>
      <trkpt lat="41.5555720" lon="-4.7902730">
        <ele>716.2</ele>
        <time>2019-05-25T11:04:11Z</time>
      </trkpt>
      <trkpt lat="41.5554440" lon="-4.7903140">
        <ele>716.2</ele>
        <time>2019-05-25T11:04:14Z</time>
      </trkpt>
      <trkpt lat="41.5553720" lon="-4.7903500">
        <ele>716.4</ele>
        <time>2019-05-25T11:04:16Z</time>
      </trkpt>
      <trkpt lat="41.5551040" lon="-4.7906380">
        <ele>716.2</ele>
        <time>2019-05-25T11:04:22Z</time>
      </trkpt>
      <trkpt lat="41.5551540" lon="-4.7905210">
        <ele>716.2</ele>
        <time>2019-05-25T11:04:23Z</time>
      </trkpt>
      <trkpt lat="41.5550480" lon="-4.7905770">
        <ele>716.0</ele>
        <time>2019-05-25T11:04:26Z</time>
      </trkpt>
      <trkpt lat="41.5550020" lon="-4.7905900">
        <ele>716.2</ele>
        <time>2019-05-25T11:04:28Z</time>
      </trkpt>
      <trkpt lat="41.5548120" lon="-4.7907080">
        <ele>716.2</ele>
        <time>2019-05-25T11:04:32Z</time>
      </trkpt>
      <trkpt lat="41.5546400" lon="-4.7908510">
        <ele>716.2</ele>
        <time>2019-05-25T11:04:37Z</time>
      </trkpt>
      <trkpt lat="41.5545430" lon="-4.7909320">
        <ele>716.2</ele>
        <time>2019-05-25T11:04:40Z</time>
      </trkpt>
      <trkpt lat="41.5542520" lon="-4.7911480">
        <ele>716.2</ele>
        <time>2019-05-25T11:04:48Z</time>
      </trkpt>
      <trkpt lat="41.5542140" lon="-4.7911610">
        <ele>716.2</ele>
        <time>2019-05-25T11:04:49Z</time>
      </trkpt>
      <trkpt lat="41.5538780" lon="-4.7913450">
        <ele>716.0</ele>
        <time>2019-05-25T11:04:58Z</time>
      </trkpt>
      <trkpt lat="41.5535330" lon="-4.7915400">
        <ele>715.8</ele>
        <time>2019-05-25T11:05:07Z</time>
      </trkpt>
      <trkpt lat="41.5533890" lon="-4.7916690">
        <ele>715.8</ele>
        <time>2019-05-25T11:05:12Z</time>
      </trkpt>
      <trkpt lat="41.5533620" lon="-4.7917470">
        <ele>715.8</ele>
        <time>2019-05-25T11:05:14Z</time>
      </trkpt>
      <trkpt lat="41.5532660" lon="-4.7918240">
        <ele>715.8</ele>
        <time>2019-05-25T11:05:17Z</time>
      </trkpt>
      <trkpt lat="41.5531020" lon="-4.7918060">
        <ele>715.8</ele>
        <time>2019-05-25T11:05:21Z</time>
      </trkpt>
      <trkpt lat="41.5529840" lon="-4.7916910">
        <ele>715.8</ele>
        <time>2019-05-25T11:05:26Z</time>
      </trkpt>
      <trkpt lat="41.5529840" lon="-4.7916230">
        <ele>716.4</ele>
        <time>2019-05-25T11:05:56Z</time>
      </trkpt>
      <trkpt lat="41.5529720" lon="-4.7916190">
        <ele>716.2</ele>
        <time>2019-05-25T11:05:57Z</time>
      </trkpt>
      <trkpt lat="41.5529460" lon="-4.7916230">
        <ele>716.4</ele>
        <time>2019-05-25T11:05:59Z</time>
      </trkpt>
      <trkpt lat="41.5529250" lon="-4.7916310">
        <ele>716.4</ele>
        <time>2019-05-25T11:06:00Z</time>
      </trkpt>
      <trkpt lat="41.5528350" lon="-4.7916640">
        <ele>716.6</ele>
        <time>2019-05-25T11:06:03Z</time>
      </trkpt>
      <trkpt lat="41.5527980" lon="-4.7916830">
        <ele>716.8</ele>
        <time>2019-05-25T11:06:04Z</time>
      </trkpt>
      <trkpt lat="41.5527190" lon="-4.7917350">
        <ele>717.2</ele>
        <time>2019-05-25T11:06:06Z</time>
      </trkpt>
      <trkpt lat="41.5526790" lon="-4.7917620">
        <ele>717.4</ele>
        <time>2019-05-25T11:06:07Z</time>
      </trkpt>
      <trkpt lat="41.5525980" lon="-4.7918150">
        <ele>717.8</ele>
        <time>2019-05-25T11:06:09Z</time>
      </trkpt>
      <trkpt lat="41.5525280" lon="-4.7918670">
        <ele>718.2</ele>
        <time>2019-05-25T11:06:11Z</time>
      </trkpt>
      <trkpt lat="41.5525020" lon="-4.7918870">
        <ele>718.2</ele>
        <time>2019-05-25T11:06:12Z</time>
      </trkpt>
      <trkpt lat="41.5524830" lon="-4.7919000">
        <ele>718.8</ele>
        <time>2019-05-25T11:06:13Z</time>
      </trkpt>
      <trkpt lat="41.5524660" lon="-4.7919070">
        <ele>719.0</ele>
        <time>2019-05-25T11:06:14Z</time>
      </trkpt>
      <trkpt lat="41.5523960" lon="-4.7919400">
        <ele>719.4</ele>
        <time>2019-05-25T11:06:17Z</time>
      </trkpt>
      <trkpt lat="41.5523610" lon="-4.7919590">
        <ele>719.6</ele>
        <time>2019-05-25T11:06:18Z</time>
      </trkpt>
      <trkpt lat="41.5521480" lon="-4.7920810">
        <ele>720.2</ele>
        <time>2019-05-25T11:06:23Z</time>
      </trkpt>
      <trkpt lat="41.5517600" lon="-4.7923450">
        <ele>720.2</ele>
        <time>2019-05-25T11:06:31Z</time>
      </trkpt>
      <trkpt lat="41.5517180" lon="-4.7923870">
        <ele>720.2</ele>
        <time>2019-05-25T11:06:32Z</time>
      </trkpt>
      <trkpt lat="41.5516900" lon="-4.7924960">
        <ele>720.0</ele>
        <time>2019-05-25T11:06:34Z</time>
      </trkpt>
      <trkpt lat="41.5517750" lon="-4.7926880">
        <ele>719.2</ele>
        <time>2019-05-25T11:06:37Z</time>
      </trkpt>
      <trkpt lat="41.5518170" lon="-4.7927530">
        <ele>719.0</ele>
        <time>2019-05-25T11:06:38Z</time>
      </trkpt>
      <trkpt lat="41.5518650" lon="-4.7928230">
        <ele>718.4</ele>
        <time>2019-05-25T11:06:39Z</time>
      </trkpt>
      <trkpt lat="41.5519610" lon="-4.7929590">
        <ele>717.4</ele>
        <time>2019-05-25T11:06:41Z</time>
      </trkpt>
      <trkpt lat="41.5520510" lon="-4.7930980">
        <ele>717.0</ele>
        <time>2019-05-25T11:06:43Z</time>
      </trkpt>
      <trkpt lat="41.5521420" lon="-4.7932340">
        <ele>716.4</ele>
        <time>2019-05-25T11:06:45Z</time>
      </trkpt>
      <trkpt lat="41.5521870" lon="-4.7933000">
        <ele>716.2</ele>
        <time>2019-05-25T11:06:46Z</time>
      </trkpt>
      <trkpt lat="41.5524260" lon="-4.7936630">
        <ele>715.4</ele>
        <time>2019-05-25T11:06:52Z</time>
      </trkpt>
      <trkpt lat="41.5524640" lon="-4.7937230">
        <ele>715.4</ele>
        <time>2019-05-25T11:06:53Z</time>
      </trkpt>
      <trkpt lat="41.5525390" lon="-4.7938460">
        <ele>715.2</ele>
        <time>2019-05-25T11:06:55Z</time>
      </trkpt>
      <trkpt lat="41.5526800" lon="-4.7940870">
        <ele>714.8</ele>
        <time>2019-05-25T11:06:59Z</time>
      </trkpt>
      <trkpt lat="41.5528660" lon="-4.7943840">
        <ele>714.4</ele>
        <time>2019-05-25T11:07:04Z</time>
      </trkpt>
      <trkpt lat="41.5529770" lon="-4.7945620">
        <ele>714.4</ele>
        <time>2019-05-25T11:07:07Z</time>
      </trkpt>
      <trkpt lat="41.5530900" lon="-4.7947310">
        <ele>714.4</ele>
        <time>2019-05-25T11:07:10Z</time>
      </trkpt>
      <trkpt lat="41.5531980" lon="-4.7948960">
        <ele>714.6</ele>
        <time>2019-05-25T11:07:13Z</time>
      </trkpt>
      <trkpt lat="41.5532640" lon="-4.7950110">
        <ele>714.6</ele>
        <time>2019-05-25T11:07:15Z</time>
      </trkpt>
      <trkpt lat="41.5533400" lon="-4.7952060">
        <ele>715.0</ele>
        <time>2019-05-25T11:07:18Z</time>
      </trkpt>
      <trkpt lat="41.5533750" lon="-4.7952700">
        <ele>715.2</ele>
        <time>2019-05-25T11:07:19Z</time>
      </trkpt>
      <trkpt lat="41.5535340" lon="-4.7955960">
        <ele>715.4</ele>
        <time>2019-05-25T11:07:24Z</time>
      </trkpt>
      <trkpt lat="41.5535600" lon="-4.7956710">
        <ele>715.4</ele>
        <time>2019-05-25T11:07:25Z</time>
      </trkpt>
      <trkpt lat="41.5536440" lon="-4.7958980">
        <ele>715.6</ele>
        <time>2019-05-25T11:07:28Z</time>
      </trkpt>
      <trkpt lat="41.5537330" lon="-4.7960350">
        <ele>715.6</ele>
        <time>2019-05-25T11:07:30Z</time>
      </trkpt>
      <trkpt lat="41.5538470" lon="-4.7961500">
        <ele>715.6</ele>
        <time>2019-05-25T11:07:32Z</time>
      </trkpt>
      <trkpt lat="41.5540750" lon="-4.7963870">
        <ele>715.6</ele>
        <time>2019-05-25T11:07:36Z</time>
      </trkpt>
      <trkpt lat="41.5545400" lon="-4.7968710">
        <ele>715.4</ele>
        <time>2019-05-25T11:07:44Z</time>
      </trkpt>
      <trkpt lat="41.5545940" lon="-4.7969260">
        <ele>715.4</ele>
        <time>2019-05-25T11:07:45Z</time>
      </trkpt>
      <trkpt lat="41.5550040" lon="-4.7974210">
        <ele>715.2</ele>
        <time>2019-05-25T11:07:53Z</time>
      </trkpt>
      <trkpt lat="41.5552990" lon="-4.7978840">
        <ele>715.2</ele>
        <time>2019-05-25T11:08:00Z</time>
      </trkpt>
      <trkpt lat="41.5555940" lon="-4.7982490">
        <ele>715.2</ele>
        <time>2019-05-25T11:08:07Z</time>
      </trkpt>
      <trkpt lat="41.5558540" lon="-4.7985710">
        <ele>715.2</ele>
        <time>2019-05-25T11:08:14Z</time>
      </trkpt>
      <trkpt lat="41.5560400" lon="-4.7989000">
        <ele>715.2</ele>
        <time>2019-05-25T11:08:20Z</time>
      </trkpt>
      <trkpt lat="41.5561990" lon="-4.7992680">
        <ele>715.0</ele>
        <time>2019-05-25T11:08:27Z</time>
      </trkpt>
      <trkpt lat="41.5562190" lon="-4.7993110">
        <ele>715.0</ele>
        <time>2019-05-25T11:08:28Z</time>
      </trkpt>
      <trkpt lat="41.5562740" lon="-4.7994170">
        <ele>715.0</ele>
        <time>2019-05-25T11:08:31Z</time>
      </trkpt>
      <trkpt lat="41.5563110" lon="-4.7994420">
        <ele>714.8</ele>
        <time>2019-05-25T11:10:07Z</time>
      </trkpt>
      <trkpt lat="41.5563180" lon="-4.7994590">
        <ele>714.6</ele>
        <time>2019-05-25T11:10:08Z</time>
      </trkpt>
      <trkpt lat="41.5563900" lon="-4.7995780">
        <ele>714.6</ele>
        <time>2019-05-25T11:10:12Z</time>
      </trkpt>
      <trkpt lat="41.5564730" lon="-4.7997260">
        <ele>714.6</ele>
        <time>2019-05-25T11:10:15Z</time>
      </trkpt>
      <trkpt lat="41.5565270" lon="-4.7998440">
        <ele>714.6</ele>
        <time>2019-05-25T11:10:17Z</time>
      </trkpt>
      <trkpt lat="41.5565990" lon="-4.8000320">
        <ele>714.4</ele>
        <time>2019-05-25T11:10:20Z</time>
      </trkpt>
      <trkpt lat="41.5566820" lon="-4.8002240">
        <ele>714.4</ele>
        <time>2019-05-25T11:10:23Z</time>
      </trkpt>
      <trkpt lat="41.5567530" lon="-4.8003560">
        <ele>714.4</ele>
        <time>2019-05-25T11:10:25Z</time>
      </trkpt>
      <trkpt lat="41.5570050" lon="-4.8007720">
        <ele>714.2</ele>
        <time>2019-05-25T11:10:32Z</time>
      </trkpt>
      <trkpt lat="41.5570450" lon="-4.8008260">
        <ele>714.2</ele>
        <time>2019-05-25T11:10:33Z</time>
      </trkpt>
      <trkpt lat="41.5572130" lon="-4.8010430">
        <ele>714.0</ele>
        <time>2019-05-25T11:10:37Z</time>
      </trkpt>
      <trkpt lat="41.5574320" lon="-4.8013030">
        <ele>714.2</ele>
        <time>2019-05-25T11:10:42Z</time>
      </trkpt>
      <trkpt lat="41.5575580" lon="-4.8015060">
        <ele>714.2</ele>
        <time>2019-05-25T11:10:46Z</time>
      </trkpt>
      <trkpt lat="41.5576310" lon="-4.8016230">
        <ele>714.2</ele>
        <time>2019-05-25T11:10:49Z</time>
      </trkpt>
      <trkpt lat="41.5578080" lon="-4.8019280">
        <ele>714.2</ele>
        <time>2019-05-25T11:10:53Z</time>
      </trkpt>
      <trkpt lat="41.5578460" lon="-4.8020640">
        <ele>714.2</ele>
        <time>2019-05-25T11:10:55Z</time>
      </trkpt>
      <trkpt lat="41.5579850" lon="-4.8025610">
        <ele>714.4</ele>
        <time>2019-05-25T11:11:02Z</time>
      </trkpt>
      <trkpt lat="41.5581420" lon="-4.8031720">
        <ele>714.8</ele>
        <time>2019-05-25T11:11:10Z</time>
      </trkpt>
      <trkpt lat="41.5581780" lon="-4.8033230">
        <ele>714.8</ele>
        <time>2019-05-25T11:11:12Z</time>
      </trkpt>
      <trkpt lat="41.5583000" lon="-4.8036210">
        <ele>714.8</ele>
        <time>2019-05-25T11:11:16Z</time>
      </trkpt>
      <trkpt lat="41.5584920" lon="-4.8039450">
        <ele>714.6</ele>
        <time>2019-05-25T11:11:21Z</time>
      </trkpt>
      <trkpt lat="41.5585390" lon="-4.8039940">
        <ele>714.6</ele>
        <time>2019-05-25T11:11:22Z</time>
      </trkpt>
      <trkpt lat="41.5588980" lon="-4.8043420">
        <ele>714.2</ele>
        <time>2019-05-25T11:11:29Z</time>
      </trkpt>
      <trkpt lat="41.5589440" lon="-4.8044030">
        <ele>714.4</ele>
        <time>2019-05-25T11:11:30Z</time>
      </trkpt>
      <trkpt lat="41.5592610" lon="-4.8047890">
        <ele>714.4</ele>
        <time>2019-05-25T11:11:37Z</time>
      </trkpt>
      <trkpt lat="41.5595810" lon="-4.8049850">
        <ele>715.2</ele>
        <time>2019-05-25T11:11:43Z</time>
      </trkpt>
      <trkpt lat="41.5596340" lon="-4.8050170">
        <ele>715.2</ele>
        <time>2019-05-25T11:11:44Z</time>
      </trkpt>
      <trkpt lat="41.5600160" lon="-4.8052650">
        <ele>715.8</ele>
        <time>2019-05-25T11:11:51Z</time>
      </trkpt>
      <trkpt lat="41.5601110" lon="-4.8053990">
        <ele>715.8</ele>
        <time>2019-05-25T11:11:53Z</time>
      </trkpt>
      <trkpt lat="41.5602010" lon="-4.8056530">
        <ele>715.8</ele>
        <time>2019-05-25T11:11:56Z</time>
      </trkpt>
      <trkpt lat="41.5602510" lon="-4.8058200">
        <ele>715.6</ele>
        <time>2019-05-25T11:11:58Z</time>
      </trkpt>
      <trkpt lat="41.5602810" lon="-4.8058980">
        <ele>715.2</ele>
        <time>2019-05-25T11:11:59Z</time>
      </trkpt>
      <trkpt lat="41.5604160" lon="-4.8061870">
        <ele>714.6</ele>
        <time>2019-05-25T11:12:03Z</time>
      </trkpt>
      <trkpt lat="41.5605890" lon="-4.8067120">
        <ele>714.6</ele>
        <time>2019-05-25T11:12:10Z</time>
      </trkpt>
      <trkpt lat="41.5607190" lon="-4.8073380">
        <ele>714.8</ele>
        <time>2019-05-25T11:12:18Z</time>
      </trkpt>
      <trkpt lat="41.5607590" lon="-4.8076650">
        <ele>714.8</ele>
        <time>2019-05-25T11:12:22Z</time>
      </trkpt>
      <trkpt lat="41.5607640" lon="-4.8078440">
        <ele>714.8</ele>
        <time>2019-05-25T11:12:24Z</time>
      </trkpt>
      <trkpt lat="41.5608220" lon="-4.8085570">
        <ele>714.2</ele>
        <time>2019-05-25T11:12:32Z</time>
      </trkpt>
      <trkpt lat="41.5608370" lon="-4.8092820">
        <ele>714.0</ele>
        <time>2019-05-25T11:12:40Z</time>
      </trkpt>
      <trkpt lat="41.5608170" lon="-4.8099430">
        <ele>714.0</ele>
        <time>2019-05-25T11:12:48Z</time>
      </trkpt>
      <trkpt lat="41.5608000" lon="-4.8104030">
        <ele>714.0</ele>
        <time>2019-05-25T11:12:52Z</time>
      </trkpt>
      <trkpt lat="41.5607940" lon="-4.8110220">
        <ele>713.8</ele>
        <time>2019-05-25T11:13:00Z</time>
      </trkpt>
      <trkpt lat="41.5607950" lon="-4.8111090">
        <ele>713.8</ele>
        <time>2019-05-25T11:13:01Z</time>
      </trkpt>
      <trkpt lat="41.5607820" lon="-4.8112850">
        <ele>714.0</ele>
        <time>2019-05-25T11:13:02Z</time>
      </trkpt>
      <trkpt lat="41.5607230" lon="-4.8116480">
        <ele>713.8</ele>
        <time>2019-05-25T11:13:06Z</time>
      </trkpt>
      <trkpt lat="41.5606980" lon="-4.8117320">
        <ele>713.8</ele>
        <time>2019-05-25T11:13:07Z</time>
      </trkpt>
      <trkpt lat="41.5606460" lon="-4.8118950">
        <ele>713.8</ele>
        <time>2019-05-25T11:13:09Z</time>
      </trkpt>
      <trkpt lat="41.5604930" lon="-4.8122740">
        <ele>713.8</ele>
        <time>2019-05-25T11:13:14Z</time>
      </trkpt>
      <trkpt lat="41.5602530" lon="-4.8129250">
        <ele>713.6</ele>
        <time>2019-05-25T11:13:22Z</time>
      </trkpt>
      <trkpt lat="41.5602210" lon="-4.8130100">
        <ele>713.4</ele>
        <time>2019-05-25T11:13:23Z</time>
      </trkpt>
      <trkpt lat="41.5600170" lon="-4.8135880">
        <ele>713.2</ele>
        <time>2019-05-25T11:13:31Z</time>
      </trkpt>
      <trkpt lat="41.5599510" lon="-4.8138370">
        <ele>713.2</ele>
        <time>2019-05-25T11:13:34Z</time>
      </trkpt>
      <trkpt lat="41.5598130" lon="-4.8146950">
        <ele>713.2</ele>
        <time>2019-05-25T11:13:43Z</time>
      </trkpt>
      <trkpt lat="41.5597420" lon="-4.8152310">
        <ele>713.2</ele>
        <time>2019-05-25T11:13:50Z</time>
      </trkpt>
      <trkpt lat="41.5597050" lon="-4.8154970">
        <ele>713.0</ele>
        <time>2019-05-25T11:13:53Z</time>
      </trkpt>
      <trkpt lat="41.5595880" lon="-4.8160840">
        <ele>713.0</ele>
        <time>2019-05-25T11:14:00Z</time>
      </trkpt>
      <trkpt lat="41.5595210" lon="-4.8164090">
        <ele>713.2</ele>
        <time>2019-05-25T11:14:03Z</time>
      </trkpt>
      <trkpt lat="41.5595100" lon="-4.8165350">
        <ele>713.4</ele>
        <time>2019-05-25T11:14:05Z</time>
      </trkpt>
      <trkpt lat="41.5595110" lon="-4.8167430">
        <ele>713.6</ele>
        <time>2019-05-25T11:14:10Z</time>
      </trkpt>
      <trkpt lat="41.5595190" lon="-4.8167710">
        <ele>713.6</ele>
        <time>2019-05-25T11:14:11Z</time>
      </trkpt>
      <trkpt lat="41.5595510" lon="-4.8168830">
        <ele>713.6</ele>
        <time>2019-05-25T11:14:17Z</time>
      </trkpt>
      <trkpt lat="41.5595400" lon="-4.8170800">
        <ele>713.4</ele>
        <time>2019-05-25T11:14:23Z</time>
      </trkpt>
      <trkpt lat="41.5595160" lon="-4.8175310">
        <ele>713.2</ele>
        <time>2019-05-25T11:14:30Z</time>
      </trkpt>
      <trkpt lat="41.5594360" lon="-4.8180900">
        <ele>713.4</ele>
        <time>2019-05-25T11:14:37Z</time>
      </trkpt>
      <trkpt lat="41.5592550" lon="-4.8189220">
        <ele>713.4</ele>
        <time>2019-05-25T11:14:46Z</time>
      </trkpt>
      <trkpt lat="41.5592380" lon="-4.8190060">
        <ele>713.4</ele>
        <time>2019-05-25T11:14:47Z</time>
      </trkpt>
      <trkpt lat="41.5591210" lon="-4.8197810">
        <ele>713.4</ele>
        <time>2019-05-25T11:14:56Z</time>
      </trkpt>
      <trkpt lat="41.5591130" lon="-4.8198690">
        <ele>713.4</ele>
        <time>2019-05-25T11:14:57Z</time>
      </trkpt>
      <trkpt lat="41.5590300" lon="-4.8205640">
        <ele>713.4</ele>
        <time>2019-05-25T11:15:06Z</time>
      </trkpt>
      <trkpt lat="41.5589980" lon="-4.8207350">
        <ele>713.4</ele>
        <time>2019-05-25T11:15:08Z</time>
      </trkpt>
      <trkpt lat="41.5589020" lon="-4.8214420">
        <ele>713.6</ele>
        <time>2019-05-25T11:15:16Z</time>
      </trkpt>
      <trkpt lat="41.5588720" lon="-4.8221340">
        <ele>713.4</ele>
        <time>2019-05-25T11:15:23Z</time>
      </trkpt>
      <trkpt lat="41.5587980" lon="-4.8228620">
        <ele>712.4</ele>
        <time>2019-05-25T11:15:30Z</time>
      </trkpt>
      <trkpt lat="41.5587860" lon="-4.8229640">
        <ele>712.4</ele>
        <time>2019-05-25T11:15:31Z</time>
      </trkpt>
      <trkpt lat="41.5587400" lon="-4.8234610">
        <ele>712.4</ele>
        <time>2019-05-25T11:15:36Z</time>
      </trkpt>
      <trkpt lat="41.5587030" lon="-4.8239770">
        <ele>712.2</ele>
        <time>2019-05-25T11:15:41Z</time>
      </trkpt>
      <trkpt lat="41.5585890" lon="-4.8246680">
        <ele>712.2</ele>
        <time>2019-05-25T11:15:48Z</time>
      </trkpt>
      <trkpt lat="41.5585300" lon="-4.8250430">
        <ele>712.2</ele>
        <time>2019-05-25T11:15:51Z</time>
      </trkpt>
      <trkpt lat="41.5584590" lon="-4.8252010">
        <ele>712.2</ele>
        <time>2019-05-25T11:15:53Z</time>
      </trkpt>
      <trkpt lat="41.5582870" lon="-4.8252870">
        <ele>712.4</ele>
        <time>2019-05-25T11:15:56Z</time>
      </trkpt>
      <trkpt lat="41.5580430" lon="-4.8252720">
        <ele>712.2</ele>
        <time>2019-05-25T11:15:59Z</time>
      </trkpt>
      <trkpt lat="41.5578780" lon="-4.8254170">
        <ele>712.4</ele>
        <time>2019-05-25T11:16:02Z</time>
      </trkpt>
      <trkpt lat="41.5577520" lon="-4.8256430">
        <ele>712.6</ele>
        <time>2019-05-25T11:16:05Z</time>
      </trkpt>
      <trkpt lat="41.5576760" lon="-4.8258320">
        <ele>712.8</ele>
        <time>2019-05-25T11:16:07Z</time>
      </trkpt>
      <trkpt lat="41.5574430" lon="-4.8263780">
        <ele>712.8</ele>
        <time>2019-05-25T11:16:13Z</time>
      </trkpt>
      <trkpt lat="41.5573430" lon="-4.8266620">
        <ele>713.0</ele>
        <time>2019-05-25T11:16:16Z</time>
      </trkpt>
      <trkpt lat="41.5571710" lon="-4.8273320">
        <ele>713.0</ele>
        <time>2019-05-25T11:16:23Z</time>
      </trkpt>
      <trkpt lat="41.5570850" lon="-4.8279910">
        <ele>713.2</ele>
        <time>2019-05-25T11:16:31Z</time>
      </trkpt>
      <trkpt lat="41.5570730" lon="-4.8280870">
        <ele>713.2</ele>
        <time>2019-05-25T11:16:32Z</time>
      </trkpt>
      <trkpt lat="41.5570480" lon="-4.8287630">
        <ele>713.0</ele>
        <time>2019-05-25T11:16:39Z</time>
      </trkpt>
      <trkpt lat="41.5569860" lon="-4.8294540">
        <ele>713.0</ele>
        <time>2019-05-25T11:16:46Z</time>
      </trkpt>
      <trkpt lat="41.5569160" lon="-4.8302150">
        <ele>713.2</ele>
        <time>2019-05-25T11:16:54Z</time>
      </trkpt>
      <trkpt lat="41.5568370" lon="-4.8309620">
        <ele>713.4</ele>
        <time>2019-05-25T11:17:02Z</time>
      </trkpt>
      <trkpt lat="41.5568030" lon="-4.8313190">
        <ele>713.4</ele>
        <time>2019-05-25T11:17:05Z</time>
      </trkpt>
      <trkpt lat="41.5567630" lon="-4.8319410">
        <ele>713.2</ele>
        <time>2019-05-25T11:17:13Z</time>
      </trkpt>
      <trkpt lat="41.5567740" lon="-4.8322150">
        <ele>713.2</ele>
        <time>2019-05-25T11:17:15Z</time>
      </trkpt>
      <trkpt lat="41.5567790" lon="-4.8326610">
        <ele>713.2</ele>
        <time>2019-05-25T11:17:20Z</time>
      </trkpt>
      <trkpt lat="41.5567570" lon="-4.8328280">
        <ele>713.2</ele>
        <time>2019-05-25T11:17:22Z</time>
      </trkpt>
      <trkpt lat="41.5567570" lon="-4.8328280">
        <ele>713.2</ele>
        <time>2019-05-25T11:17:23Z</time>
      </trkpt>
      <trkpt lat="41.5566460" lon="-4.8334080">
        <ele>713.0</ele>
        <time>2019-05-25T11:17:29Z</time>
      </trkpt>
      <trkpt lat="41.5566400" lon="-4.8334950">
        <ele>713.0</ele>
        <time>2019-05-25T11:17:30Z</time>
      </trkpt>
      <trkpt lat="41.5565610" lon="-4.8342660">
        <ele>713.0</ele>
        <time>2019-05-25T11:17:39Z</time>
      </trkpt>
      <trkpt lat="41.5565500" lon="-4.8343480">
        <ele>713.0</ele>
        <time>2019-05-25T11:17:40Z</time>
      </trkpt>
      <trkpt lat="41.5565090" lon="-4.8350060">
        <ele>713.0</ele>
        <time>2019-05-25T11:17:49Z</time>
      </trkpt>
      <trkpt lat="41.5565000" lon="-4.8350830">
        <ele>713.0</ele>
        <time>2019-05-25T11:17:50Z</time>
      </trkpt>
      <trkpt lat="41.5564400" lon="-4.8357680">
        <ele>712.6</ele>
        <time>2019-05-25T11:17:58Z</time>
      </trkpt>
      <trkpt lat="41.5564100" lon="-4.8359370">
        <ele>712.6</ele>
        <time>2019-05-25T11:18:00Z</time>
      </trkpt>
      <trkpt lat="41.5562610" lon="-4.8365850">
        <ele>712.8</ele>
        <time>2019-05-25T11:18:07Z</time>
      </trkpt>
      <trkpt lat="41.5562610" lon="-4.8365850">
        <ele>712.8</ele>
        <time>2019-05-25T11:18:08Z</time>
      </trkpt>
      <trkpt lat="41.5562390" lon="-4.8368360">
        <ele>712.8</ele>
        <time>2019-05-25T11:18:10Z</time>
      </trkpt>
      <trkpt lat="41.5562480" lon="-4.8370870">
        <ele>712.6</ele>
        <time>2019-05-25T11:18:13Z</time>
      </trkpt>
      <trkpt lat="41.5563470" lon="-4.8377560">
        <ele>712.0</ele>
        <time>2019-05-25T11:18:22Z</time>
      </trkpt>
      <trkpt lat="41.5563610" lon="-4.8378410">
        <ele>712.0</ele>
        <time>2019-05-25T11:18:23Z</time>
      </trkpt>
      <trkpt lat="41.5563900" lon="-4.8380870">
        <ele>711.8</ele>
        <time>2019-05-25T11:18:26Z</time>
      </trkpt>
      <trkpt lat="41.5564350" lon="-4.8385700">
        <ele>711.4</ele>
        <time>2019-05-25T11:18:31Z</time>
      </trkpt>
      <trkpt lat="41.5564380" lon="-4.8388180">
        <ele>711.2</ele>
        <time>2019-05-25T11:18:35Z</time>
      </trkpt>
      <trkpt lat="41.5564290" lon="-4.8391510">
        <ele>711.2</ele>
        <time>2019-05-25T11:18:39Z</time>
      </trkpt>
      <trkpt lat="41.5564700" lon="-4.8397690">
        <ele>711.2</ele>
        <time>2019-05-25T11:18:46Z</time>
      </trkpt>
      <trkpt lat="41.5565350" lon="-4.8402720">
        <ele>711.2</ele>
        <time>2019-05-25T11:18:51Z</time>
      </trkpt>
      <trkpt lat="41.5565370" lon="-4.8403620">
        <ele>711.2</ele>
        <time>2019-05-25T11:18:53Z</time>
      </trkpt>
      <trkpt lat="41.5565210" lon="-4.8410930">
        <ele>711.2</ele>
        <time>2019-05-25T11:19:01Z</time>
      </trkpt>
      <trkpt lat="41.5564980" lon="-4.8418200">
        <ele>711.0</ele>
        <time>2019-05-25T11:19:08Z</time>
      </trkpt>
      <trkpt lat="41.5564820" lon="-4.8419080">
        <ele>711.0</ele>
        <time>2019-05-25T11:19:10Z</time>
      </trkpt>
      <trkpt lat="41.5563710" lon="-4.8425950">
        <ele>710.8</ele>
        <time>2019-05-25T11:19:18Z</time>
      </trkpt>
      <trkpt lat="41.5562420" lon="-4.8432900">
        <ele>710.8</ele>
        <time>2019-05-25T11:19:26Z</time>
      </trkpt>
      <trkpt lat="41.5560700" lon="-4.8440390">
        <ele>710.8</ele>
        <time>2019-05-25T11:19:35Z</time>
      </trkpt>
      <trkpt lat="41.5560330" lon="-4.8441970">
        <ele>710.8</ele>
        <time>2019-05-25T11:19:36Z</time>
      </trkpt>
      <trkpt lat="41.5560030" lon="-4.8445210">
        <ele>710.8</ele>
        <time>2019-05-25T11:19:40Z</time>
      </trkpt>
      <trkpt lat="41.5560150" lon="-4.8447800">
        <ele>710.6</ele>
        <time>2019-05-25T11:19:43Z</time>
      </trkpt>
      <trkpt lat="41.5561080" lon="-4.8454980">
        <ele>710.8</ele>
        <time>2019-05-25T11:19:51Z</time>
      </trkpt>
      <trkpt lat="41.5561670" lon="-4.8460410">
        <ele>710.6</ele>
        <time>2019-05-25T11:19:58Z</time>
      </trkpt>
      <trkpt lat="41.5562290" lon="-4.8466310">
        <ele>710.6</ele>
        <time>2019-05-25T11:20:03Z</time>
      </trkpt>
      <trkpt lat="41.5562180" lon="-4.8468290">
        <ele>710.6</ele>
        <time>2019-05-25T11:20:05Z</time>
      </trkpt>
      <trkpt lat="41.5561850" lon="-4.8475960">
        <ele>710.4</ele>
        <time>2019-05-25T11:20:13Z</time>
      </trkpt>
      <trkpt lat="41.5561770" lon="-4.8477730">
        <ele>710.4</ele>
        <time>2019-05-25T11:20:16Z</time>
      </trkpt>
      <trkpt lat="41.5561530" lon="-4.8479530">
        <ele>710.4</ele>
        <time>2019-05-25T11:20:17Z</time>
      </trkpt>
      <trkpt lat="41.5560970" lon="-4.8482130">
        <ele>710.4</ele>
        <time>2019-05-25T11:20:21Z</time>
      </trkpt>
      <trkpt lat="41.5558980" lon="-4.8489000">
        <ele>710.6</ele>
        <time>2019-05-25T11:20:29Z</time>
      </trkpt>
      <trkpt lat="41.5556660" lon="-4.8496230">
        <ele>710.6</ele>
        <time>2019-05-25T11:20:36Z</time>
      </trkpt>
      <trkpt lat="41.5555760" lon="-4.8497860">
        <ele>710.8</ele>
        <time>2019-05-25T11:20:38Z</time>
      </trkpt>
      <trkpt lat="41.5554670" lon="-4.8499210">
        <ele>711.0</ele>
        <time>2019-05-25T11:20:41Z</time>
      </trkpt>
      <trkpt lat="41.5551110" lon="-4.8503060">
        <ele>710.8</ele>
        <time>2019-05-25T11:20:47Z</time>
      </trkpt>
      <trkpt lat="41.5550530" lon="-4.8503680">
        <ele>710.8</ele>
        <time>2019-05-25T11:20:48Z</time>
      </trkpt>
      <trkpt lat="41.5547520" lon="-4.8506790">
        <ele>710.8</ele>
        <time>2019-05-25T11:20:53Z</time>
      </trkpt>
      <trkpt lat="41.5546300" lon="-4.8508180">
        <ele>710.8</ele>
        <time>2019-05-25T11:20:55Z</time>
      </trkpt>
      <trkpt lat="41.5542540" lon="-4.8512190">
        <ele>710.8</ele>
        <time>2019-05-25T11:21:01Z</time>
      </trkpt>
      <trkpt lat="41.5538310" lon="-4.8516940">
        <ele>710.8</ele>
        <time>2019-05-25T11:21:07Z</time>
      </trkpt>
      <trkpt lat="41.5534040" lon="-4.8521590">
        <ele>710.6</ele>
        <time>2019-05-25T11:21:15Z</time>
      </trkpt>
      <trkpt lat="41.5533030" lon="-4.8523140">
        <ele>710.6</ele>
        <time>2019-05-25T11:21:16Z</time>
      </trkpt>
      <trkpt lat="41.5532190" lon="-4.8524840">
        <ele>710.6</ele>
        <time>2019-05-25T11:21:19Z</time>
      </trkpt>
      <trkpt lat="41.5531340" lon="-4.8526440">
        <ele>710.4</ele>
        <time>2019-05-25T11:21:20Z</time>
      </trkpt>
      <trkpt lat="41.5529880" lon="-4.8528620">
        <ele>710.4</ele>
        <time>2019-05-25T11:21:24Z</time>
      </trkpt>
      <trkpt lat="41.5526120" lon="-4.8534160">
        <ele>710.6</ele>
        <time>2019-05-25T11:21:32Z</time>
      </trkpt>
      <trkpt lat="41.5524680" lon="-4.8536040">
        <ele>710.4</ele>
        <time>2019-05-25T11:21:34Z</time>
      </trkpt>
      <trkpt lat="41.5523020" lon="-4.8537540">
        <ele>710.6</ele>
        <time>2019-05-25T11:21:37Z</time>
      </trkpt>
      <trkpt lat="41.5518720" lon="-4.8541460">
        <ele>710.6</ele>
        <time>2019-05-25T11:21:45Z</time>
      </trkpt>
      <trkpt lat="41.5514050" lon="-4.8545000">
        <ele>710.6</ele>
        <time>2019-05-25T11:21:53Z</time>
      </trkpt>
      <trkpt lat="41.5509910" lon="-4.8546400">
        <ele>710.6</ele>
        <time>2019-05-25T11:21:59Z</time>
      </trkpt>
      <trkpt lat="41.5504610" lon="-4.8547200">
        <ele>710.6</ele>
        <time>2019-05-25T11:22:07Z</time>
      </trkpt>
      <trkpt lat="41.5500080" lon="-4.8546380">
        <ele>710.8</ele>
        <time>2019-05-25T11:22:14Z</time>
      </trkpt>
      <trkpt lat="41.5495960" lon="-4.8547010">
        <ele>710.8</ele>
        <time>2019-05-25T11:22:21Z</time>
      </trkpt>
      <trkpt lat="41.5494040" lon="-4.8546950">
        <ele>710.8</ele>
        <time>2019-05-25T11:22:24Z</time>
      </trkpt>
      <trkpt lat="41.5492860" lon="-4.8546630">
        <ele>710.6</ele>
        <time>2019-05-25T11:22:27Z</time>
      </trkpt>
      <trkpt lat="41.5492300" lon="-4.8546520">
        <ele>710.4</ele>
        <time>2019-05-25T11:22:28Z</time>
      </trkpt>
      <trkpt lat="41.5488570" lon="-4.8546050">
        <ele>710.4</ele>
        <time>2019-05-25T11:22:34Z</time>
      </trkpt>
      <trkpt lat="41.5487940" lon="-4.8546030">
        <ele>710.4</ele>
        <time>2019-05-25T11:22:35Z</time>
      </trkpt>
      <trkpt lat="41.5482220" lon="-4.8545710">
        <ele>710.2</ele>
        <time>2019-05-25T11:22:44Z</time>
      </trkpt>
      <trkpt lat="41.5481630" lon="-4.8545690">
        <ele>710.2</ele>
        <time>2019-05-25T11:22:45Z</time>
      </trkpt>
      <trkpt lat="41.5476090" lon="-4.8545300">
        <ele>710.4</ele>
        <time>2019-05-25T11:22:54Z</time>
      </trkpt>
      <trkpt lat="41.5475460" lon="-4.8545230">
        <ele>710.4</ele>
        <time>2019-05-25T11:22:55Z</time>
      </trkpt>
      <trkpt lat="41.5471070" lon="-4.8544120">
        <ele>710.6</ele>
        <time>2019-05-25T11:23:02Z</time>
      </trkpt>
      <trkpt lat="41.5470560" lon="-4.8544020">
        <ele>710.6</ele>
        <time>2019-05-25T11:23:03Z</time>
      </trkpt>
      <trkpt lat="41.5469390" lon="-4.8543570">
        <ele>710.6</ele>
        <time>2019-05-25T11:23:04Z</time>
      </trkpt>
      <trkpt lat="41.5467950" lon="-4.8542430">
        <ele>710.4</ele>
        <time>2019-05-25T11:23:07Z</time>
      </trkpt>
      <trkpt lat="41.5467120" lon="-4.8541380">
        <ele>710.4</ele>
        <time>2019-05-25T11:23:09Z</time>
      </trkpt>
      <trkpt lat="41.5465550" lon="-4.8538740">
        <ele>710.6</ele>
        <time>2019-05-25T11:23:14Z</time>
      </trkpt>
      <trkpt lat="41.5465230" lon="-4.8538310">
        <ele>710.6</ele>
        <time>2019-05-25T11:23:15Z</time>
      </trkpt>
      <trkpt lat="41.5464190" lon="-4.8537790">
        <ele>711.2</ele>
        <time>2019-05-25T11:23:18Z</time>
      </trkpt>
      <trkpt lat="41.5463800" lon="-4.8537860">
        <ele>711.4</ele>
        <time>2019-05-25T11:23:19Z</time>
      </trkpt>
      <trkpt lat="41.5463370" lon="-4.8537960">
        <ele>711.8</ele>
        <time>2019-05-25T11:23:21Z</time>
      </trkpt>
      <trkpt lat="41.5462390" lon="-4.8538180">
        <ele>712.0</ele>
        <time>2019-05-25T11:23:23Z</time>
      </trkpt>
      <trkpt lat="41.5458470" lon="-4.8538910">
        <ele>712.2</ele>
        <time>2019-05-25T11:23:30Z</time>
      </trkpt>
      <trkpt lat="41.5452550" lon="-4.8539590">
        <ele>712.0</ele>
        <time>2019-05-25T11:23:40Z</time>
      </trkpt>
      <trkpt lat="41.5449090" lon="-4.8539980">
        <ele>712.0</ele>
        <time>2019-05-25T11:23:45Z</time>
      </trkpt>
      <trkpt lat="41.5445470" lon="-4.8540380">
        <ele>711.6</ele>
        <time>2019-05-25T11:23:52Z</time>
      </trkpt>
      <trkpt lat="41.5440760" lon="-4.8540620">
        <ele>711.6</ele>
        <time>2019-05-25T11:24:00Z</time>
      </trkpt>
      <trkpt lat="41.5436730" lon="-4.8541120">
        <ele>712.2</ele>
        <time>2019-05-25T11:24:07Z</time>
      </trkpt>
      <trkpt lat="41.5434400" lon="-4.8541300">
        <ele>712.8</ele>
        <time>2019-05-25T11:24:11Z</time>
      </trkpt>
      <trkpt lat="41.5428940" lon="-4.8541500">
        <ele>713.0</ele>
        <time>2019-05-25T11:24:20Z</time>
      </trkpt>
      <trkpt lat="41.5427100" lon="-4.8541600">
        <ele>713.0</ele>
        <time>2019-05-25T11:24:23Z</time>
      </trkpt>
      <trkpt lat="41.5421610" lon="-4.8541740">
        <ele>713.0</ele>
        <time>2019-05-25T11:24:31Z</time>
      </trkpt>
      <trkpt lat="41.5415620" lon="-4.8542580">
        <ele>712.6</ele>
        <time>2019-05-25T11:24:41Z</time>
      </trkpt>
      <trkpt lat="41.5415010" lon="-4.8542670">
        <ele>712.6</ele>
        <time>2019-05-25T11:24:42Z</time>
      </trkpt>
      <trkpt lat="41.5411360" lon="-4.8542830">
        <ele>712.4</ele>
        <time>2019-05-25T11:24:49Z</time>
      </trkpt>
      <trkpt lat="41.5406030" lon="-4.8543100">
        <ele>712.8</ele>
        <time>2019-05-25T11:24:58Z</time>
      </trkpt>
      <trkpt lat="41.5404810" lon="-4.8543180">
        <ele>712.8</ele>
        <time>2019-05-25T11:25:00Z</time>
      </trkpt>
      <trkpt lat="41.5399120" lon="-4.8543450">
        <ele>713.0</ele>
        <time>2019-05-25T11:25:08Z</time>
      </trkpt>
      <trkpt lat="41.5398490" lon="-4.8543500">
        <ele>713.0</ele>
        <time>2019-05-25T11:25:09Z</time>
      </trkpt>
      <trkpt lat="41.5393350" lon="-4.8543810">
        <ele>713.6</ele>
        <time>2019-05-25T11:25:17Z</time>
      </trkpt>
      <trkpt lat="41.5389560" lon="-4.8544570">
        <ele>713.8</ele>
        <time>2019-05-25T11:25:24Z</time>
      </trkpt>
      <trkpt lat="41.5383670" lon="-4.8545310">
        <ele>713.4</ele>
        <time>2019-05-25T11:25:33Z</time>
      </trkpt>
      <trkpt lat="41.5377680" lon="-4.8545670">
        <ele>713.2</ele>
        <time>2019-05-25T11:25:42Z</time>
      </trkpt>
      <trkpt lat="41.5375660" lon="-4.8545810">
        <ele>712.8</ele>
        <time>2019-05-25T11:25:45Z</time>
      </trkpt>
      <trkpt lat="41.5370070" lon="-4.8546240">
        <ele>713.0</ele>
        <time>2019-05-25T11:25:53Z</time>
      </trkpt>
      <trkpt lat="41.5363880" lon="-4.8546470">
        <ele>713.6</ele>
        <time>2019-05-25T11:26:02Z</time>
      </trkpt>
      <trkpt lat="41.5361130" lon="-4.8546620">
        <ele>713.6</ele>
        <time>2019-05-25T11:26:06Z</time>
      </trkpt>
      <trkpt lat="41.5355290" lon="-4.8546980">
        <ele>713.6</ele>
        <time>2019-05-25T11:26:15Z</time>
      </trkpt>
      <trkpt lat="41.5349940" lon="-4.8546670">
        <ele>713.4</ele>
        <time>2019-05-25T11:26:23Z</time>
      </trkpt>
      <trkpt lat="41.5347250" lon="-4.8546650">
        <ele>713.4</ele>
        <time>2019-05-25T11:26:27Z</time>
      </trkpt>
      <trkpt lat="41.5343280" lon="-4.8546790">
        <ele>713.6</ele>
        <time>2019-05-25T11:26:32Z</time>
      </trkpt>
      <trkpt lat="41.5341940" lon="-4.8546100">
        <ele>713.6</ele>
        <time>2019-05-25T11:26:34Z</time>
      </trkpt>
      <trkpt lat="41.5339740" lon="-4.8543350">
        <ele>713.4</ele>
        <time>2019-05-25T11:26:38Z</time>
      </trkpt>
      <trkpt lat="41.5338690" lon="-4.8540900">
        <ele>713.6</ele>
        <time>2019-05-25T11:26:42Z</time>
      </trkpt>
      <trkpt lat="41.5338410" lon="-4.8540010">
        <ele>713.6</ele>
        <time>2019-05-25T11:26:43Z</time>
      </trkpt>
      <trkpt lat="41.5338130" lon="-4.8539110">
        <ele>713.8</ele>
        <time>2019-05-25T11:26:44Z</time>
      </trkpt>
      <trkpt lat="41.5336290" lon="-4.8531130">
        <ele>714.4</ele>
        <time>2019-05-25T11:26:52Z</time>
      </trkpt>
      <trkpt lat="41.5334640" lon="-4.8524330">
        <ele>714.4</ele>
        <time>2019-05-25T11:27:01Z</time>
      </trkpt>
      <trkpt lat="41.5333780" lon="-4.8520970">
        <ele>714.2</ele>
        <time>2019-05-25T11:27:05Z</time>
      </trkpt>
      <trkpt lat="41.5331890" lon="-4.8513900">
        <ele>713.8</ele>
        <time>2019-05-25T11:27:14Z</time>
      </trkpt>
      <trkpt lat="41.5331220" lon="-4.8511520">
        <ele>713.8</ele>
        <time>2019-05-25T11:27:16Z</time>
      </trkpt>
      <trkpt lat="41.5330130" lon="-4.8507600">
        <ele>713.8</ele>
        <time>2019-05-25T11:27:22Z</time>
      </trkpt>
      <trkpt lat="41.5328090" lon="-4.8500140">
        <ele>713.4</ele>
        <time>2019-05-25T11:27:31Z</time>
      </trkpt>
      <trkpt lat="41.5326870" lon="-4.8495670">
        <ele>713.4</ele>
        <time>2019-05-25T11:27:39Z</time>
      </trkpt>
      <trkpt lat="41.5325140" lon="-4.8488770">
        <ele>713.8</ele>
        <time>2019-05-25T11:27:50Z</time>
      </trkpt>
      <trkpt lat="41.5324810" lon="-4.8487530">
        <ele>713.8</ele>
        <time>2019-05-25T11:27:51Z</time>
      </trkpt>
      <trkpt lat="41.5322960" lon="-4.8481070">
        <ele>714.4</ele>
        <time>2019-05-25T11:28:02Z</time>
      </trkpt>
      <trkpt lat="41.5320880" lon="-4.8473710">
        <ele>714.4</ele>
        <time>2019-05-25T11:28:13Z</time>
      </trkpt>
      <trkpt lat="41.5320340" lon="-4.8471650">
        <ele>714.4</ele>
        <time>2019-05-25T11:28:16Z</time>
      </trkpt>
      <trkpt lat="41.5319270" lon="-4.8467580">
        <ele>714.4</ele>
        <time>2019-05-25T11:28:22Z</time>
      </trkpt>
      <trkpt lat="41.5317910" lon="-4.8462720">
        <ele>714.4</ele>
        <time>2019-05-25T11:28:29Z</time>
      </trkpt>
      <trkpt lat="41.5316550" lon="-4.8458040">
        <ele>714.4</ele>
        <time>2019-05-25T11:28:36Z</time>
      </trkpt>
      <trkpt lat="41.5315790" lon="-4.8455360">
        <ele>714.6</ele>
        <time>2019-05-25T11:28:40Z</time>
      </trkpt>
      <trkpt lat="41.5315000" lon="-4.8452560">
        <ele>714.6</ele>
        <time>2019-05-25T11:28:43Z</time>
      </trkpt>
      <trkpt lat="41.5314030" lon="-4.8449110">
        <ele>715.4</ele>
        <time>2019-05-25T11:28:49Z</time>
      </trkpt>
      <trkpt lat="41.5312750" lon="-4.8444440">
        <ele>715.4</ele>
        <time>2019-05-25T11:28:56Z</time>
      </trkpt>
      <trkpt lat="41.5310750" lon="-4.8437390">
        <ele>715.4</ele>
        <time>2019-05-25T11:29:06Z</time>
      </trkpt>
      <trkpt lat="41.5309940" lon="-4.8434610">
        <ele>715.4</ele>
        <time>2019-05-25T11:29:10Z</time>
      </trkpt>
      <trkpt lat="41.5307930" lon="-4.8426650">
        <ele>715.4</ele>
        <time>2019-05-25T11:29:20Z</time>
      </trkpt>
      <trkpt lat="41.5306850" lon="-4.8422400">
        <ele>715.4</ele>
        <time>2019-05-25T11:29:27Z</time>
      </trkpt>
      <trkpt lat="41.5304930" lon="-4.8415340">
        <ele>715.4</ele>
        <time>2019-05-25T11:29:37Z</time>
      </trkpt>
      <trkpt lat="41.5303940" lon="-4.8411870">
        <ele>715.4</ele>
        <time>2019-05-25T11:29:42Z</time>
      </trkpt>
      <trkpt lat="41.5302610" lon="-4.8407440">
        <ele>715.2</ele>
        <time>2019-05-25T11:29:49Z</time>
      </trkpt>
      <trkpt lat="41.5302090" lon="-4.8405970">
        <ele>715.4</ele>
        <time>2019-05-25T11:29:51Z</time>
      </trkpt>
      <trkpt lat="41.5301840" lon="-4.8404640">
        <ele>715.6</ele>
        <time>2019-05-25T11:29:56Z</time>
      </trkpt>
      <trkpt lat="41.5301890" lon="-4.8403500">
        <ele>715.8</ele>
        <time>2019-05-25T11:30:00Z</time>
      </trkpt>
      <trkpt lat="41.5301990" lon="-4.8402670">
        <ele>715.8</ele>
        <time>2019-05-25T11:30:03Z</time>
      </trkpt>
      <trkpt lat="41.5302090" lon="-4.8402120">
        <ele>715.8</ele>
        <time>2019-05-25T11:30:05Z</time>
      </trkpt>
      <trkpt lat="41.5302310" lon="-4.8401190">
        <ele>716.2</ele>
        <time>2019-05-25T11:30:09Z</time>
      </trkpt>
      <trkpt lat="41.5302430" lon="-4.8400600">
        <ele>716.2</ele>
        <time>2019-05-25T11:30:11Z</time>
      </trkpt>
      <trkpt lat="41.5302350" lon="-4.8400330">
        <ele>716.4</ele>
        <time>2019-05-25T11:30:12Z</time>
      </trkpt>
      <trkpt lat="41.5301770" lon="-4.8399950">
        <ele>716.6</ele>
        <time>2019-05-25T11:30:15Z</time>
      </trkpt>
      <trkpt lat="41.5301580" lon="-4.8400190">
        <ele>716.6</ele>
        <time>2019-05-25T11:30:16Z</time>
      </trkpt>
      <trkpt lat="41.5301160" lon="-4.8401410">
        <ele>716.8</ele>
        <time>2019-05-25T11:30:19Z</time>
      </trkpt>
      <trkpt lat="41.5301030" lon="-4.8401910">
        <ele>716.8</ele>
        <time>2019-05-25T11:30:21Z</time>
      </trkpt>
      <trkpt lat="41.5300370" lon="-4.8404650">
        <ele>717.0</ele>
        <time>2019-05-25T11:30:26Z</time>
      </trkpt>
      <trkpt lat="41.5300130" lon="-4.8405860">
        <ele>717.0</ele>
        <time>2019-05-25T11:30:28Z</time>
      </trkpt>
      <trkpt lat="41.5300010" lon="-4.8406460">
        <ele>717.0</ele>
        <time>2019-05-25T11:30:29Z</time>
      </trkpt>
      <trkpt lat="41.5299590" lon="-4.8409010">
        <ele>716.4</ele>
        <time>2019-05-25T11:30:33Z</time>
      </trkpt>
      <trkpt lat="41.5299430" lon="-4.8410310">
        <ele>716.0</ele>
        <time>2019-05-25T11:30:35Z</time>
      </trkpt>
      <trkpt lat="41.5299260" lon="-4.8411610">
        <ele>716.0</ele>
        <time>2019-05-25T11:30:37Z</time>
      </trkpt>
      <trkpt lat="41.5299160" lon="-4.8412260">
        <ele>716.0</ele>
        <time>2019-05-25T11:30:38Z</time>
      </trkpt>
      <trkpt lat="41.5298720" lon="-4.8414230">
        <ele>716.0</ele>
        <time>2019-05-25T11:30:41Z</time>
      </trkpt>
      <trkpt lat="41.5298230" lon="-4.8416170">
        <ele>715.8</ele>
        <time>2019-05-25T11:30:44Z</time>
      </trkpt>
      <trkpt lat="41.5297890" lon="-4.8417330">
        <ele>715.8</ele>
        <time>2019-05-25T11:30:46Z</time>
      </trkpt>
      <trkpt lat="41.5296530" lon="-4.8421120">
        <ele>715.6</ele>
        <time>2019-05-25T11:30:52Z</time>
      </trkpt>
      <trkpt lat="41.5296320" lon="-4.8421670">
        <ele>715.4</ele>
        <time>2019-05-25T11:30:54Z</time>
      </trkpt>
      <trkpt lat="41.5295490" lon="-4.8424560">
        <ele>715.2</ele>
        <time>2019-05-25T11:30:58Z</time>
      </trkpt>
      <trkpt lat="41.5295140" lon="-4.8425710">
        <ele>714.6</ele>
        <time>2019-05-25T11:31:00Z</time>
      </trkpt>
      <trkpt lat="41.5294890" lon="-4.8426240">
        <ele>714.6</ele>
        <time>2019-05-25T11:31:02Z</time>
      </trkpt>
      <trkpt lat="41.5293480" lon="-4.8428650">
        <ele>714.8</ele>
        <time>2019-05-25T11:31:07Z</time>
      </trkpt>
      <trkpt lat="41.5292910" lon="-4.8429490">
        <ele>715.0</ele>
        <time>2019-05-25T11:31:08Z</time>
      </trkpt>
      <trkpt lat="41.5292610" lon="-4.8429830">
        <ele>715.0</ele>
        <time>2019-05-25T11:31:09Z</time>
      </trkpt>
      <trkpt lat="41.5292300" lon="-4.8430130">
        <ele>715.2</ele>
        <time>2019-05-25T11:31:10Z</time>
      </trkpt>
      <trkpt lat="41.5291600" lon="-4.8430640">
        <ele>715.4</ele>
        <time>2019-05-25T11:31:12Z</time>
      </trkpt>
      <trkpt lat="41.5290380" lon="-4.8431220">
        <ele>715.8</ele>
        <time>2019-05-25T11:31:15Z</time>
      </trkpt>
      <trkpt lat="41.5289970" lon="-4.8431420">
        <ele>716.0</ele>
        <time>2019-05-25T11:31:16Z</time>
      </trkpt>
      <trkpt lat="41.5288790" lon="-4.8432030">
        <ele>716.2</ele>
        <time>2019-05-25T11:31:19Z</time>
      </trkpt>
      <trkpt lat="41.5287110" lon="-4.8432850">
        <ele>716.4</ele>
        <time>2019-05-25T11:31:23Z</time>
      </trkpt>
      <trkpt lat="41.5286800" lon="-4.8433210">
        <ele>716.4</ele>
        <time>2019-05-25T11:31:25Z</time>
      </trkpt>
      <trkpt lat="41.5285600" lon="-4.8433870">
        <ele>716.4</ele>
        <time>2019-05-25T11:31:27Z</time>
      </trkpt>
      <trkpt lat="41.5284870" lon="-4.8433720">
        <ele>716.4</ele>
        <time>2019-05-25T11:31:29Z</time>
      </trkpt>
      <trkpt lat="41.5283910" lon="-4.8432290">
        <ele>716.4</ele>
        <time>2019-05-25T11:31:32Z</time>
      </trkpt>
      <trkpt lat="41.5283510" lon="-4.8430890">
        <ele>716.4</ele>
        <time>2019-05-25T11:31:34Z</time>
      </trkpt>
      <trkpt lat="41.5282740" lon="-4.8427950">
        <ele>716.2</ele>
        <time>2019-05-25T11:31:38Z</time>
      </trkpt>
      <trkpt lat="41.5281140" lon="-4.8422180">
        <ele>715.8</ele>
        <time>2019-05-25T11:31:48Z</time>
      </trkpt>
      <trkpt lat="41.5280540" lon="-4.8419020">
        <ele>716.2</ele>
        <time>2019-05-25T11:31:54Z</time>
      </trkpt>
      <trkpt lat="41.5280320" lon="-4.8417980">
        <ele>716.2</ele>
        <time>2019-05-25T11:31:56Z</time>
      </trkpt>
      <trkpt lat="41.5279090" lon="-4.8413100">
        <ele>716.6</ele>
        <time>2019-05-25T11:32:05Z</time>
      </trkpt>
      <trkpt lat="41.5278170" lon="-4.8409110">
        <ele>716.8</ele>
        <time>2019-05-25T11:32:12Z</time>
      </trkpt>
      <trkpt lat="41.5277950" lon="-4.8408500">
        <ele>716.8</ele>
        <time>2019-05-25T11:32:13Z</time>
      </trkpt>
      <trkpt lat="41.5277110" lon="-4.8405550">
        <ele>717.2</ele>
        <time>2019-05-25T11:32:18Z</time>
      </trkpt>
      <trkpt lat="41.5276350" lon="-4.8403020">
        <ele>717.6</ele>
        <time>2019-05-25T11:32:22Z</time>
      </trkpt>
      <trkpt lat="41.5274230" lon="-4.8397710">
        <ele>718.2</ele>
        <time>2019-05-25T11:32:31Z</time>
      </trkpt>
      <trkpt lat="41.5272840" lon="-4.8394330">
        <ele>718.4</ele>
        <time>2019-05-25T11:32:36Z</time>
      </trkpt>
      <trkpt lat="41.5272620" lon="-4.8393070">
        <ele>718.4</ele>
        <time>2019-05-25T11:32:38Z</time>
      </trkpt>
      <trkpt lat="41.5272510" lon="-4.8391730">
        <ele>718.4</ele>
        <time>2019-05-25T11:32:40Z</time>
      </trkpt>
      <trkpt lat="41.5272480" lon="-4.8388300">
        <ele>718.2</ele>
        <time>2019-05-25T11:32:45Z</time>
      </trkpt>
      <trkpt lat="41.5271990" lon="-4.8385550">
        <ele>718.0</ele>
        <time>2019-05-25T11:32:49Z</time>
      </trkpt>
      <trkpt lat="41.5271750" lon="-4.8384230">
        <ele>717.8</ele>
        <time>2019-05-25T11:32:52Z</time>
      </trkpt>
      <trkpt lat="41.5271610" lon="-4.8382950">
        <ele>717.8</ele>
        <time>2019-05-25T11:32:53Z</time>
      </trkpt>
      <trkpt lat="41.5271610" lon="-4.8380990">
        <ele>717.2</ele>
        <time>2019-05-25T11:32:56Z</time>
      </trkpt>
      <trkpt lat="41.5272100" lon="-4.8380330">
        <ele>717.2</ele>
        <time>2019-05-25T11:32:58Z</time>
      </trkpt>
      <trkpt lat="41.5272450" lon="-4.8380150">
        <ele>717.2</ele>
        <time>2019-05-25T11:33:00Z</time>
      </trkpt>
      <trkpt lat="41.5273310" lon="-4.8379990">
        <ele>717.0</ele>
        <time>2019-05-25T11:33:01Z</time>
      </trkpt>
      <trkpt lat="41.5275120" lon="-4.8379890">
        <ele>717.0</ele>
        <time>2019-05-25T11:33:05Z</time>
      </trkpt>
      <trkpt lat="41.5276170" lon="-4.8379740">
        <ele>717.0</ele>
        <time>2019-05-25T11:33:07Z</time>
      </trkpt>
      <trkpt lat="41.5277280" lon="-4.8378970">
        <ele>717.0</ele>
        <time>2019-05-25T11:33:10Z</time>
      </trkpt>
      <trkpt lat="41.5277880" lon="-4.8378240">
        <ele>717.0</ele>
        <time>2019-05-25T11:33:12Z</time>
      </trkpt>
      <trkpt lat="41.5279270" lon="-4.8376930">
        <ele>717.2</ele>
        <time>2019-05-25T11:33:16Z</time>
      </trkpt>
      <trkpt lat="41.5281840" lon="-4.8375030">
        <ele>716.6</ele>
        <time>2019-05-25T11:33:24Z</time>
      </trkpt>
      <trkpt lat="41.5283360" lon="-4.8374370">
        <ele>716.4</ele>
        <time>2019-05-25T11:33:30Z</time>
      </trkpt>
      <trkpt lat="41.5283460" lon="-4.8374210">
        <ele>716.4</ele>
        <time>2019-05-25T11:33:31Z</time>
      </trkpt>
      <trkpt lat="41.5283590" lon="-4.8373970">
        <ele>715.8</ele>
        <time>2019-05-25T11:33:33Z</time>
      </trkpt>
      <trkpt lat="41.5284050" lon="-4.8374280">
        <ele>712.6</ele>
        <time>2019-05-25T11:33:45Z</time>
      </trkpt>
      <trkpt lat="41.5283990" lon="-4.8374380">
        <ele>712.6</ele>
        <time>2019-05-25T11:33:47Z</time>
      </trkpt>
      <trkpt lat="41.5283730" lon="-4.8374420">
        <ele>712.8</ele>
        <time>2019-05-25T11:33:52Z</time>
      </trkpt>
      <trkpt lat="41.5283590" lon="-4.8374470">
        <ele>713.2</ele>
        <time>2019-05-25T11:33:54Z</time>
      </trkpt>
      <trkpt lat="41.5283440" lon="-4.8374520">
        <ele>713.8</ele>
        <time>2019-05-25T11:33:56Z</time>
      </trkpt>
      <trkpt lat="41.5283240" lon="-4.8374770">
        <ele>714.6</ele>
        <time>2019-05-25T11:34:00Z</time>
      </trkpt>
      <trkpt lat="41.5283030" lon="-4.8374910">
        <ele>714.8</ele>
        <time>2019-05-25T11:34:02Z</time>
      </trkpt>
      <trkpt lat="41.5281870" lon="-4.8375310">
        <ele>715.8</ele>
        <time>2019-05-25T11:34:08Z</time>
      </trkpt>
      <trkpt lat="41.5281690" lon="-4.8375380">
        <ele>716.0</ele>
        <time>2019-05-25T11:34:09Z</time>
      </trkpt>
      <trkpt lat="41.5280320" lon="-4.8375680">
        <ele>717.0</ele>
        <time>2019-05-25T11:34:15Z</time>
      </trkpt>
      <trkpt lat="41.5279670" lon="-4.8375340">
        <ele>717.2</ele>
        <time>2019-05-25T11:34:17Z</time>
      </trkpt>
      <trkpt lat="41.5278840" lon="-4.8373650">
        <ele>717.2</ele>
        <time>2019-05-25T11:34:22Z</time>
      </trkpt>
      <trkpt lat="41.5278720" lon="-4.8370970">
        <ele>717.0</ele>
        <time>2019-05-25T11:34:28Z</time>
      </trkpt>
      <trkpt lat="41.5278570" lon="-4.8370090">
        <ele>717.0</ele>
        <time>2019-05-25T11:34:30Z</time>
      </trkpt>
      <trkpt lat="41.5277820" lon="-4.8366230">
        <ele>716.2</ele>
        <time>2019-05-25T11:34:37Z</time>
      </trkpt>
      <trkpt lat="41.5277670" lon="-4.8364360">
        <ele>716.2</ele>
        <time>2019-05-25T11:34:40Z</time>
      </trkpt>
      <trkpt lat="41.5277710" lon="-4.8363960">
        <ele>716.2</ele>
        <time>2019-05-25T11:34:41Z</time>
      </trkpt>
      <trkpt lat="41.5278190" lon="-4.8360050">
        <ele>716.4</ele>
        <time>2019-05-25T11:34:50Z</time>
      </trkpt>
      <trkpt lat="41.5277970" lon="-4.8356260">
        <ele>716.6</ele>
        <time>2019-05-25T11:34:57Z</time>
      </trkpt>
      <trkpt lat="41.5277950" lon="-4.8354840">
        <ele>716.6</ele>
        <time>2019-05-25T11:35:00Z</time>
      </trkpt>
      <trkpt lat="41.5278140" lon="-4.8352660">
        <ele>716.6</ele>
        <time>2019-05-25T11:35:04Z</time>
      </trkpt>
      <trkpt lat="41.5278720" lon="-4.8346780">
        <ele>716.6</ele>
        <time>2019-05-25T11:35:14Z</time>
      </trkpt>
      <trkpt lat="41.5279580" lon="-4.8343300">
        <ele>716.6</ele>
        <time>2019-05-25T11:35:21Z</time>
      </trkpt>
      <trkpt lat="41.5280310" lon="-4.8339180">
        <ele>716.6</ele>
        <time>2019-05-25T11:35:29Z</time>
      </trkpt>
      <trkpt lat="41.5280930" lon="-4.8335200">
        <ele>716.6</ele>
        <time>2019-05-25T11:35:36Z</time>
      </trkpt>
      <trkpt lat="41.5281050" lon="-4.8330890">
        <ele>716.6</ele>
        <time>2019-05-25T11:35:42Z</time>
      </trkpt>
      <trkpt lat="41.5280880" lon="-4.8326110">
        <ele>715.8</ele>
        <time>2019-05-25T11:35:49Z</time>
      </trkpt>
      <trkpt lat="41.5280880" lon="-4.8325410">
        <ele>715.8</ele>
        <time>2019-05-25T11:35:50Z</time>
      </trkpt>
      <trkpt lat="41.5280480" lon="-4.8321250">
        <ele>715.6</ele>
        <time>2019-05-25T11:35:56Z</time>
      </trkpt>
      <trkpt lat="41.5280370" lon="-4.8319350">
        <ele>715.6</ele>
        <time>2019-05-25T11:35:59Z</time>
      </trkpt>
      <trkpt lat="41.5280200" lon="-4.8316470">
        <ele>715.6</ele>
        <time>2019-05-25T11:36:03Z</time>
      </trkpt>
      <trkpt lat="41.5279900" lon="-4.8313620">
        <ele>715.8</ele>
        <time>2019-05-25T11:36:07Z</time>
      </trkpt>
      <trkpt lat="41.5279540" lon="-4.8311070">
        <ele>716.0</ele>
        <time>2019-05-25T11:36:11Z</time>
      </trkpt>
      <trkpt lat="41.5279060" lon="-4.8308400">
        <ele>716.4</ele>
        <time>2019-05-25T11:36:16Z</time>
      </trkpt>
      <trkpt lat="41.5278700" lon="-4.8307490">
        <ele>716.6</ele>
        <time>2019-05-25T11:36:18Z</time>
      </trkpt>
      <trkpt lat="41.5278080" lon="-4.8306470">
        <ele>716.8</ele>
        <time>2019-05-25T11:36:20Z</time>
      </trkpt>
      <trkpt lat="41.5277810" lon="-4.8306050">
        <ele>716.8</ele>
        <time>2019-05-25T11:36:21Z</time>
      </trkpt>
      <trkpt lat="41.5276790" lon="-4.8304350">
        <ele>717.2</ele>
        <time>2019-05-25T11:36:24Z</time>
      </trkpt>
      <trkpt lat="41.5276580" lon="-4.8303880">
        <ele>717.4</ele>
        <time>2019-05-25T11:36:25Z</time>
      </trkpt>
      <trkpt lat="41.5276330" lon="-4.8302170">
        <ele>717.8</ele>
        <time>2019-05-25T11:36:28Z</time>
      </trkpt>
      <trkpt lat="41.5276440" lon="-4.8301020">
        <ele>717.8</ele>
        <time>2019-05-25T11:36:30Z</time>
      </trkpt>
      <trkpt lat="41.5276600" lon="-4.8300470">
        <ele>718.0</ele>
        <time>2019-05-25T11:36:31Z</time>
      </trkpt>
      <trkpt lat="41.5276620" lon="-4.8299070">
        <ele>718.0</ele>
        <time>2019-05-25T11:36:34Z</time>
      </trkpt>
      <trkpt lat="41.5276560" lon="-4.8298690">
        <ele>718.0</ele>
        <time>2019-05-25T11:36:36Z</time>
      </trkpt>
      <trkpt lat="41.5276150" lon="-4.8298390">
        <ele>718.0</ele>
        <time>2019-05-25T11:36:39Z</time>
      </trkpt>
      <trkpt lat="41.5276040" lon="-4.8298650">
        <ele>718.0</ele>
        <time>2019-05-25T11:36:42Z</time>
      </trkpt>
      <trkpt lat="41.5275870" lon="-4.8299160">
        <ele>718.0</ele>
        <time>2019-05-25T11:36:45Z</time>
      </trkpt>
      <trkpt lat="41.5275490" lon="-4.8299470">
        <ele>718.0</ele>
        <time>2019-05-25T11:36:48Z</time>
      </trkpt>
      <trkpt lat="41.5275340" lon="-4.8299370">
        <ele>718.0</ele>
        <time>2019-05-25T11:36:49Z</time>
      </trkpt>
      <trkpt lat="41.5275230" lon="-4.8299190">
        <ele>718.0</ele>
        <time>2019-05-25T11:36:50Z</time>
      </trkpt>
      <trkpt lat="41.5275170" lon="-4.8297670">
        <ele>718.0</ele>
        <time>2019-05-25T11:36:54Z</time>
      </trkpt>
      <trkpt lat="41.5275330" lon="-4.8296770">
        <ele>718.0</ele>
        <time>2019-05-25T11:36:56Z</time>
      </trkpt>
      <trkpt lat="41.5275080" lon="-4.8295250">
        <ele>718.0</ele>
        <time>2019-05-25T11:37:00Z</time>
      </trkpt>
      <trkpt lat="41.5274080" lon="-4.8293460">
        <ele>718.0</ele>
        <time>2019-05-25T11:37:05Z</time>
      </trkpt>
      <trkpt lat="41.5273230" lon="-4.8291690">
        <ele>718.2</ele>
        <time>2019-05-25T11:37:10Z</time>
      </trkpt>
      <trkpt lat="41.5272770" lon="-4.8289920">
        <ele>719.0</ele>
        <time>2019-05-25T11:37:15Z</time>
      </trkpt>
      <trkpt lat="41.5272690" lon="-4.8289570">
        <ele>719.2</ele>
        <time>2019-05-25T11:37:16Z</time>
      </trkpt>
      <trkpt lat="41.5271800" lon="-4.8286400">
        <ele>720.0</ele>
        <time>2019-05-25T11:37:24Z</time>
      </trkpt>
      <trkpt lat="41.5271690" lon="-4.8285910">
        <ele>720.0</ele>
        <time>2019-05-25T11:37:25Z</time>
      </trkpt>
      <trkpt lat="41.5271460" lon="-4.8283520">
        <ele>720.0</ele>
        <time>2019-05-25T11:37:29Z</time>
      </trkpt>
      <trkpt lat="41.5270790" lon="-4.8278550">
        <ele>719.4</ele>
        <time>2019-05-25T11:37:37Z</time>
      </trkpt>
      <trkpt lat="41.5270090" lon="-4.8275050">
        <ele>719.0</ele>
        <time>2019-05-25T11:37:42Z</time>
      </trkpt>
      <trkpt lat="41.5270040" lon="-4.8274600">
        <ele>719.0</ele>
        <time>2019-05-25T11:37:43Z</time>
      </trkpt>
      <trkpt lat="41.5269830" lon="-4.8272640">
        <ele>719.0</ele>
        <time>2019-05-25T11:37:48Z</time>
      </trkpt>
      <trkpt lat="41.5269720" lon="-4.8269240">
        <ele>718.8</ele>
        <time>2019-05-25T11:37:54Z</time>
      </trkpt>
      <trkpt lat="41.5269930" lon="-4.8266620">
        <ele>718.6</ele>
        <time>2019-05-25T11:38:01Z</time>
      </trkpt>
      <trkpt lat="41.5269450" lon="-4.8264590">
        <ele>718.2</ele>
        <time>2019-05-25T11:38:05Z</time>
      </trkpt>
      <trkpt lat="41.5269310" lon="-4.8264120">
        <ele>718.2</ele>
        <time>2019-05-25T11:38:07Z</time>
      </trkpt>
      <trkpt lat="41.5269250" lon="-4.8262300">
        <ele>718.0</ele>
        <time>2019-05-25T11:38:10Z</time>
      </trkpt>
      <trkpt lat="41.5269310" lon="-4.8261400">
        <ele>717.8</ele>
        <time>2019-05-25T11:38:12Z</time>
      </trkpt>
      <trkpt lat="41.5269170" lon="-4.8258760">
        <ele>717.6</ele>
        <time>2019-05-25T11:38:18Z</time>
      </trkpt>
      <trkpt lat="41.5269180" lon="-4.8257270">
        <ele>717.4</ele>
        <time>2019-05-25T11:38:21Z</time>
      </trkpt>
      <trkpt lat="41.5268950" lon="-4.8254850">
        <ele>716.8</ele>
        <time>2019-05-25T11:38:26Z</time>
      </trkpt>
      <trkpt lat="41.5268490" lon="-4.8251170">
        <ele>716.4</ele>
        <time>2019-05-25T11:38:33Z</time>
      </trkpt>
      <trkpt lat="41.5268530" lon="-4.8249890">
        <ele>716.4</ele>
        <time>2019-05-25T11:38:35Z</time>
      </trkpt>
      <trkpt lat="41.5268450" lon="-4.8248000">
        <ele>716.0</ele>
        <time>2019-05-25T11:38:38Z</time>
      </trkpt>
      <trkpt lat="41.5268320" lon="-4.8247120">
        <ele>715.6</ele>
        <time>2019-05-25T11:38:40Z</time>
      </trkpt>
      <trkpt lat="41.5267960" lon="-4.8246110">
        <ele>714.6</ele>
        <time>2019-05-25T11:38:43Z</time>
      </trkpt>
      <trkpt lat="41.5267470" lon="-4.8246020">
        <ele>714.4</ele>
        <time>2019-05-25T11:38:46Z</time>
      </trkpt>
      <trkpt lat="41.5267330" lon="-4.8246110">
        <ele>714.4</ele>
        <time>2019-05-25T11:38:47Z</time>
      </trkpt>
      <trkpt lat="41.5267060" lon="-4.8246110">
        <ele>714.4</ele>
        <time>2019-05-25T11:38:49Z</time>
      </trkpt>
      <trkpt lat="41.5266810" lon="-4.8245790">
        <ele>714.4</ele>
        <time>2019-05-25T11:38:51Z</time>
      </trkpt>
      <trkpt lat="41.5266760" lon="-4.8245550">
        <ele>714.4</ele>
        <time>2019-05-25T11:38:52Z</time>
      </trkpt>
      <trkpt lat="41.5266620" lon="-4.8245000">
        <ele>715.4</ele>
        <time>2019-05-25T11:38:54Z</time>
      </trkpt>
      <trkpt lat="41.5266560" lon="-4.8244680">
        <ele>716.6</ele>
        <time>2019-05-25T11:38:55Z</time>
      </trkpt>
      <trkpt lat="41.5266250" lon="-4.8243870">
        <ele>717.4</ele>
        <time>2019-05-25T11:38:57Z</time>
      </trkpt>
      <trkpt lat="41.5266060" lon="-4.8243450">
        <ele>717.8</ele>
        <time>2019-05-25T11:38:58Z</time>
      </trkpt>
      <trkpt lat="41.5265940" lon="-4.8243060">
        <ele>717.8</ele>
        <time>2019-05-25T11:38:59Z</time>
      </trkpt>
      <trkpt lat="41.5265600" lon="-4.8240060">
        <ele>718.6</ele>
        <time>2019-05-25T11:39:07Z</time>
      </trkpt>
      <trkpt lat="41.5265600" lon="-4.8239650">
        <ele>718.8</ele>
        <time>2019-05-25T11:39:08Z</time>
      </trkpt>
      <trkpt lat="41.5264920" lon="-4.8236790">
        <ele>719.0</ele>
        <time>2019-05-25T11:39:14Z</time>
      </trkpt>
      <trkpt lat="41.5263740" lon="-4.8232420">
        <ele>719.0</ele>
        <time>2019-05-25T11:39:23Z</time>
      </trkpt>
      <trkpt lat="41.5262400" lon="-4.8228680">
        <ele>719.0</ele>
        <time>2019-05-25T11:39:31Z</time>
      </trkpt>
      <trkpt lat="41.5261850" lon="-4.8227030">
        <ele>719.2</ele>
        <time>2019-05-25T11:39:34Z</time>
      </trkpt>
      <trkpt lat="41.5261430" lon="-4.8225480">
        <ele>719.2</ele>
        <time>2019-05-25T11:39:37Z</time>
      </trkpt>
      <trkpt lat="41.5261220" lon="-4.8224630">
        <ele>719.2</ele>
        <time>2019-05-25T11:39:39Z</time>
      </trkpt>
      <trkpt lat="41.5261140" lon="-4.8223110">
        <ele>719.2</ele>
        <time>2019-05-25T11:39:42Z</time>
      </trkpt>
      <trkpt lat="41.5261150" lon="-4.8222610">
        <ele>719.2</ele>
        <time>2019-05-25T11:39:43Z</time>
      </trkpt>
      <trkpt lat="41.5261150" lon="-4.8221570">
        <ele>719.2</ele>
        <time>2019-05-25T11:39:45Z</time>
      </trkpt>
      <trkpt lat="41.5261100" lon="-4.8219870">
        <ele>719.2</ele>
        <time>2019-05-25T11:39:48Z</time>
      </trkpt>
      <trkpt lat="41.5261120" lon="-4.8218800">
        <ele>719.2</ele>
        <time>2019-05-25T11:39:50Z</time>
      </trkpt>
      <trkpt lat="41.5261180" lon="-4.8216280">
        <ele>718.6</ele>
        <time>2019-05-25T11:39:54Z</time>
      </trkpt>
      <trkpt lat="41.5261130" lon="-4.8215000">
        <ele>718.4</ele>
        <time>2019-05-25T11:39:56Z</time>
      </trkpt>
      <trkpt lat="41.5260910" lon="-4.8214250">
        <ele>718.2</ele>
        <time>2019-05-25T11:39:57Z</time>
      </trkpt>
      <trkpt lat="41.5260410" lon="-4.8212480">
        <ele>718.2</ele>
        <time>2019-05-25T11:40:00Z</time>
      </trkpt>
      <trkpt lat="41.5260290" lon="-4.8211870">
        <ele>718.0</ele>
        <time>2019-05-25T11:40:01Z</time>
      </trkpt>
      <trkpt lat="41.5260060" lon="-4.8210590">
        <ele>718.0</ele>
        <time>2019-05-25T11:40:03Z</time>
      </trkpt>
      <trkpt lat="41.5259720" lon="-4.8209390">
        <ele>718.0</ele>
        <time>2019-05-25T11:40:05Z</time>
      </trkpt>
      <trkpt lat="41.5258970" lon="-4.8207260">
        <ele>718.0</ele>
        <time>2019-05-25T11:40:09Z</time>
      </trkpt>
      <trkpt lat="41.5258720" lon="-4.8206810">
        <ele>718.0</ele>
        <time>2019-05-25T11:40:10Z</time>
      </trkpt>
      <trkpt lat="41.5257790" lon="-4.8204930">
        <ele>718.0</ele>
        <time>2019-05-25T11:40:14Z</time>
      </trkpt>
      <trkpt lat="41.5257550" lon="-4.8203860">
        <ele>718.0</ele>
        <time>2019-05-25T11:40:16Z</time>
      </trkpt>
      <trkpt lat="41.5256630" lon="-4.8200470">
        <ele>718.2</ele>
        <time>2019-05-25T11:40:22Z</time>
      </trkpt>
      <trkpt lat="41.5256180" lon="-4.8199420">
        <ele>718.2</ele>
        <time>2019-05-25T11:40:24Z</time>
      </trkpt>
      <trkpt lat="41.5256220" lon="-4.8197000">
        <ele>718.0</ele>
        <time>2019-05-25T11:40:28Z</time>
      </trkpt>
      <trkpt lat="41.5256210" lon="-4.8195010">
        <ele>718.0</ele>
        <time>2019-05-25T11:40:31Z</time>
      </trkpt>
      <trkpt lat="41.5255810" lon="-4.8193250">
        <ele>718.0</ele>
        <time>2019-05-25T11:40:34Z</time>
      </trkpt>
      <trkpt lat="41.5255030" lon="-4.8189960">
        <ele>717.8</ele>
        <time>2019-05-25T11:40:39Z</time>
      </trkpt>
      <trkpt lat="41.5254780" lon="-4.8188690">
        <ele>717.6</ele>
        <time>2019-05-25T11:40:41Z</time>
      </trkpt>
      <trkpt lat="41.5254310" lon="-4.8185760">
        <ele>717.6</ele>
        <time>2019-05-25T11:40:45Z</time>
      </trkpt>
      <trkpt lat="41.5254160" lon="-4.8184210">
        <ele>717.6</ele>
        <time>2019-05-25T11:40:47Z</time>
      </trkpt>
      <trkpt lat="41.5253120" lon="-4.8178160">
        <ele>717.0</ele>
        <time>2019-05-25T11:40:55Z</time>
      </trkpt>
      <trkpt lat="41.5252920" lon="-4.8176050">
        <ele>716.6</ele>
        <time>2019-05-25T11:40:58Z</time>
      </trkpt>
      <trkpt lat="41.5252700" lon="-4.8174670">
        <ele>716.4</ele>
        <time>2019-05-25T11:41:00Z</time>
      </trkpt>
      <trkpt lat="41.5252530" lon="-4.8173980">
        <ele>716.4</ele>
        <time>2019-05-25T11:41:01Z</time>
      </trkpt>
      <trkpt lat="41.5252400" lon="-4.8172630">
        <ele>716.2</ele>
        <time>2019-05-25T11:41:03Z</time>
      </trkpt>
      <trkpt lat="41.5252510" lon="-4.8170460">
        <ele>716.2</ele>
        <time>2019-05-25T11:41:06Z</time>
      </trkpt>
      <trkpt lat="41.5252500" lon="-4.8169050">
        <ele>716.2</ele>
        <time>2019-05-25T11:41:08Z</time>
      </trkpt>
      <trkpt lat="41.5252040" lon="-4.8166210">
        <ele>716.0</ele>
        <time>2019-05-25T11:41:12Z</time>
      </trkpt>
      <trkpt lat="41.5251970" lon="-4.8165520">
        <ele>716.0</ele>
        <time>2019-05-25T11:41:13Z</time>
      </trkpt>
      <trkpt lat="41.5251760" lon="-4.8164020">
        <ele>716.0</ele>
        <time>2019-05-25T11:41:15Z</time>
      </trkpt>
      <trkpt lat="41.5251270" lon="-4.8162610">
        <ele>716.0</ele>
        <time>2019-05-25T11:41:17Z</time>
      </trkpt>
      <trkpt lat="41.5250550" lon="-4.8161480">
        <ele>715.8</ele>
        <time>2019-05-25T11:41:19Z</time>
      </trkpt>
      <trkpt lat="41.5249900" lon="-4.8160340">
        <ele>715.6</ele>
        <time>2019-05-25T11:41:21Z</time>
      </trkpt>
      <trkpt lat="41.5249660" lon="-4.8159670">
        <ele>715.2</ele>
        <time>2019-05-25T11:41:22Z</time>
      </trkpt>
      <trkpt lat="41.5249200" lon="-4.8157160">
        <ele>714.6</ele>
        <time>2019-05-25T11:41:25Z</time>
      </trkpt>
      <trkpt lat="41.5249020" lon="-4.8156280">
        <ele>714.6</ele>
        <time>2019-05-25T11:41:26Z</time>
      </trkpt>
      <trkpt lat="41.5248780" lon="-4.8155480">
        <ele>714.4</ele>
        <time>2019-05-25T11:41:27Z</time>
      </trkpt>
      <trkpt lat="41.5247000" lon="-4.8150950">
        <ele>714.2</ele>
        <time>2019-05-25T11:41:33Z</time>
      </trkpt>
      <trkpt lat="41.5246760" lon="-4.8150360">
        <ele>714.2</ele>
        <time>2019-05-25T11:41:34Z</time>
      </trkpt>
      <trkpt lat="41.5245720" lon="-4.8149170">
        <ele>714.2</ele>
        <time>2019-05-25T11:41:37Z</time>
      </trkpt>
      <trkpt lat="41.5245330" lon="-4.8148840">
        <ele>714.2</ele>
        <time>2019-05-25T11:41:38Z</time>
      </trkpt>
      <trkpt lat="41.5244630" lon="-4.8148080">
        <ele>714.2</ele>
        <time>2019-05-25T11:41:40Z</time>
      </trkpt>
      <trkpt lat="41.5243960" lon="-4.8146620">
        <ele>714.2</ele>
        <time>2019-05-25T11:41:43Z</time>
      </trkpt>
      <trkpt lat="41.5243750" lon="-4.8144430">
        <ele>714.2</ele>
        <time>2019-05-25T11:41:47Z</time>
      </trkpt>
      <trkpt lat="41.5243750" lon="-4.8143840">
        <ele>714.4</ele>
        <time>2019-05-25T11:41:48Z</time>
      </trkpt>
      <trkpt lat="41.5243060" lon="-4.8140290">
        <ele>714.4</ele>
        <time>2019-05-25T11:41:54Z</time>
      </trkpt>
      <trkpt lat="41.5242930" lon="-4.8139800">
        <ele>714.4</ele>
        <time>2019-05-25T11:41:55Z</time>
      </trkpt>
      <trkpt lat="41.5242420" lon="-4.8138360">
        <ele>714.4</ele>
        <time>2019-05-25T11:41:59Z</time>
      </trkpt>
      <trkpt lat="41.5242030" lon="-4.8136010">
        <ele>714.6</ele>
        <time>2019-05-25T11:42:05Z</time>
      </trkpt>
      <trkpt lat="41.5241880" lon="-4.8134880">
        <ele>715.4</ele>
        <time>2019-05-25T11:42:09Z</time>
      </trkpt>
      <trkpt lat="41.5241820" lon="-4.8134680">
        <ele>715.6</ele>
        <time>2019-05-25T11:42:10Z</time>
      </trkpt>
      <trkpt lat="41.5241790" lon="-4.8134180">
        <ele>718.8</ele>
        <time>2019-05-25T11:42:19Z</time>
      </trkpt>
      <trkpt lat="41.5241780" lon="-4.8134090">
        <ele>719.2</ele>
        <time>2019-05-25T11:42:20Z</time>
      </trkpt>
      <trkpt lat="41.5241780" lon="-4.8133990">
        <ele>719.4</ele>
        <time>2019-05-25T11:42:21Z</time>
      </trkpt>
      <trkpt lat="41.5241710" lon="-4.8133680">
        <ele>719.8</ele>
        <time>2019-05-25T11:42:25Z</time>
      </trkpt>
      <trkpt lat="41.5241710" lon="-4.8133530">
        <ele>719.8</ele>
        <time>2019-05-25T11:42:26Z</time>
      </trkpt>
      <trkpt lat="41.5241740" lon="-4.8132530">
        <ele>720.6</ele>
        <time>2019-05-25T11:42:30Z</time>
      </trkpt>
      <trkpt lat="41.5241920" lon="-4.8129900">
        <ele>720.8</ele>
        <time>2019-05-25T11:42:36Z</time>
      </trkpt>
      <trkpt lat="41.5241660" lon="-4.8127120">
        <ele>720.6</ele>
        <time>2019-05-25T11:42:42Z</time>
      </trkpt>
      <trkpt lat="41.5241490" lon="-4.8122770">
        <ele>720.4</ele>
        <time>2019-05-25T11:42:50Z</time>
      </trkpt>
      <trkpt lat="41.5241510" lon="-4.8120290">
        <ele>720.4</ele>
        <time>2019-05-25T11:42:54Z</time>
      </trkpt>
      <trkpt lat="41.5241540" lon="-4.8119600">
        <ele>720.4</ele>
        <time>2019-05-25T11:42:55Z</time>
      </trkpt>
      <trkpt lat="41.5241410" lon="-4.8118060">
        <ele>720.4</ele>
        <time>2019-05-25T11:42:57Z</time>
      </trkpt>
      <trkpt lat="41.5241180" lon="-4.8115830">
        <ele>720.4</ele>
        <time>2019-05-25T11:43:00Z</time>
      </trkpt>
      <trkpt lat="41.5241170" lon="-4.8113970">
        <ele>719.6</ele>
        <time>2019-05-25T11:43:03Z</time>
      </trkpt>
      <trkpt lat="41.5241060" lon="-4.8112970">
        <ele>718.6</ele>
        <time>2019-05-25T11:43:05Z</time>
      </trkpt>
      <trkpt lat="41.5240550" lon="-4.8110910">
        <ele>717.8</ele>
        <time>2019-05-25T11:43:09Z</time>
      </trkpt>
      <trkpt lat="41.5239960" lon="-4.8108170">
        <ele>717.8</ele>
        <time>2019-05-25T11:43:16Z</time>
      </trkpt>
      <trkpt lat="41.5240020" lon="-4.8104520">
        <ele>718.2</ele>
        <time>2019-05-25T11:43:22Z</time>
      </trkpt>
      <trkpt lat="41.5240000" lon="-4.8100120">
        <ele>717.6</ele>
        <time>2019-05-25T11:43:29Z</time>
      </trkpt>
      <trkpt lat="41.5239920" lon="-4.8099510">
        <ele>717.4</ele>
        <time>2019-05-25T11:43:30Z</time>
      </trkpt>
      <trkpt lat="41.5239540" lon="-4.8096750">
        <ele>717.2</ele>
        <time>2019-05-25T11:43:35Z</time>
      </trkpt>
      <trkpt lat="41.5239060" lon="-4.8095500">
        <ele>717.2</ele>
        <time>2019-05-25T11:43:40Z</time>
      </trkpt>
      <trkpt lat="41.5239120" lon="-4.8095240">
        <ele>717.4</ele>
        <time>2019-05-25T11:43:41Z</time>
      </trkpt>
      <trkpt lat="41.5239470" lon="-4.8094380">
        <ele>717.6</ele>
        <time>2019-05-25T11:43:44Z</time>
      </trkpt>
      <trkpt lat="41.5239610" lon="-4.8092570">
        <ele>718.0</ele>
        <time>2019-05-25T11:43:49Z</time>
      </trkpt>
      <trkpt lat="41.5239580" lon="-4.8092130">
        <ele>718.0</ele>
        <time>2019-05-25T11:43:50Z</time>
      </trkpt>
      <trkpt lat="41.5239540" lon="-4.8089360">
        <ele>717.8</ele>
        <time>2019-05-25T11:43:56Z</time>
      </trkpt>
      <trkpt lat="41.5239570" lon="-4.8087460">
        <ele>717.6</ele>
        <time>2019-05-25T11:44:00Z</time>
      </trkpt>
      <trkpt lat="41.5239370" lon="-4.8085410">
        <ele>717.4</ele>
        <time>2019-05-25T11:44:04Z</time>
      </trkpt>
      <trkpt lat="41.5238820" lon="-4.8082190">
        <ele>717.4</ele>
        <time>2019-05-25T11:44:11Z</time>
      </trkpt>
      <trkpt lat="41.5238640" lon="-4.8081300">
        <ele>717.4</ele>
        <time>2019-05-25T11:44:13Z</time>
      </trkpt>
      <trkpt lat="41.5238490" lon="-4.8080560">
        <ele>718.4</ele>
        <time>2019-05-25T11:45:03Z</time>
      </trkpt>
      <trkpt lat="41.5238470" lon="-4.8080370">
        <ele>718.4</ele>
        <time>2019-05-25T11:45:04Z</time>
      </trkpt>
      <trkpt lat="41.5238410" lon="-4.8080100">
        <ele>718.4</ele>
        <time>2019-05-25T11:45:05Z</time>
      </trkpt>
      <trkpt lat="41.5238240" lon="-4.8079380">
        <ele>718.4</ele>
        <time>2019-05-25T11:45:07Z</time>
      </trkpt>
      <trkpt lat="41.5238070" lon="-4.8078650">
        <ele>718.4</ele>
        <time>2019-05-25T11:45:09Z</time>
      </trkpt>
      <trkpt lat="41.5238010" lon="-4.8078270">
        <ele>718.4</ele>
        <time>2019-05-25T11:45:10Z</time>
      </trkpt>
      <trkpt lat="41.5237570" lon="-4.8076200">
        <ele>718.2</ele>
        <time>2019-05-25T11:45:14Z</time>
      </trkpt>
      <trkpt lat="41.5237420" lon="-4.8075150">
        <ele>718.0</ele>
        <time>2019-05-25T11:45:16Z</time>
      </trkpt>
      <trkpt lat="41.5236760" lon="-4.8071880">
        <ele>717.8</ele>
        <time>2019-05-25T11:45:23Z</time>
      </trkpt>
      <trkpt lat="41.5236550" lon="-4.8069530">
        <ele>717.8</ele>
        <time>2019-05-25T11:45:28Z</time>
      </trkpt>
      <trkpt lat="41.5236190" lon="-4.8067750">
        <ele>718.0</ele>
        <time>2019-05-25T11:45:32Z</time>
      </trkpt>
      <trkpt lat="41.5235770" lon="-4.8066370">
        <ele>718.2</ele>
        <time>2019-05-25T11:45:35Z</time>
      </trkpt>
      <trkpt lat="41.5235430" lon="-4.8063730">
        <ele>718.2</ele>
        <time>2019-05-25T11:45:40Z</time>
      </trkpt>
      <trkpt lat="41.5234730" lon="-4.8061210">
        <ele>718.2</ele>
        <time>2019-05-25T11:45:46Z</time>
      </trkpt>
      <trkpt lat="41.5233960" lon="-4.8060290">
        <ele>718.4</ele>
        <time>2019-05-25T11:45:49Z</time>
      </trkpt>
      <trkpt lat="41.5233690" lon="-4.8060320">
        <ele>718.4</ele>
        <time>2019-05-25T11:45:50Z</time>
      </trkpt>
      <trkpt lat="41.5233420" lon="-4.8060460">
        <ele>718.4</ele>
        <time>2019-05-25T11:45:51Z</time>
      </trkpt>
      <trkpt lat="41.5232340" lon="-4.8060240">
        <ele>718.6</ele>
        <time>2019-05-25T11:45:55Z</time>
      </trkpt>
      <trkpt lat="41.5231570" lon="-4.8058150">
        <ele>719.0</ele>
        <time>2019-05-25T11:46:00Z</time>
      </trkpt>
      <trkpt lat="41.5231140" lon="-4.8056580">
        <ele>719.4</ele>
        <time>2019-05-25T11:46:03Z</time>
      </trkpt>
      <trkpt lat="41.5230400" lon="-4.8054240">
        <ele>719.8</ele>
        <time>2019-05-25T11:46:07Z</time>
      </trkpt>
      <trkpt lat="41.5229600" lon="-4.8051440">
        <ele>719.8</ele>
        <time>2019-05-25T11:46:12Z</time>
      </trkpt>
      <trkpt lat="41.5229180" lon="-4.8050550">
        <ele>719.8</ele>
        <time>2019-05-25T11:46:14Z</time>
      </trkpt>
      <trkpt lat="41.5228970" lon="-4.8050020">
        <ele>719.8</ele>
        <time>2019-05-25T11:46:15Z</time>
      </trkpt>
      <trkpt lat="41.5227920" lon="-4.8047120">
        <ele>719.8</ele>
        <time>2019-05-25T11:46:20Z</time>
      </trkpt>
      <trkpt lat="41.5227650" lon="-4.8046570">
        <ele>719.6</ele>
        <time>2019-05-25T11:46:21Z</time>
      </trkpt>
      <trkpt lat="41.5226500" lon="-4.8044340">
        <ele>719.6</ele>
        <time>2019-05-25T11:46:26Z</time>
      </trkpt>
      <trkpt lat="41.5225460" lon="-4.8042660">
        <ele>719.8</ele>
        <time>2019-05-25T11:46:30Z</time>
      </trkpt>
      <trkpt lat="41.5224880" lon="-4.8042290">
        <ele>719.8</ele>
        <time>2019-05-25T11:46:32Z</time>
      </trkpt>
      <trkpt lat="41.5223930" lon="-4.8041490">
        <ele>720.0</ele>
        <time>2019-05-25T11:46:35Z</time>
      </trkpt>
      <trkpt lat="41.5223390" lon="-4.8040880">
        <ele>720.4</ele>
        <time>2019-05-25T11:46:37Z</time>
      </trkpt>
      <trkpt lat="41.5223160" lon="-4.8040530">
        <ele>720.6</ele>
        <time>2019-05-25T11:46:38Z</time>
      </trkpt>
      <trkpt lat="41.5222450" lon="-4.8039110">
        <ele>721.8</ele>
        <time>2019-05-25T11:46:41Z</time>
      </trkpt>
      <trkpt lat="41.5221910" lon="-4.8038140">
        <ele>722.4</ele>
        <time>2019-05-25T11:46:43Z</time>
      </trkpt>
      <trkpt lat="41.5221610" lon="-4.8037670">
        <ele>722.6</ele>
        <time>2019-05-25T11:46:44Z</time>
      </trkpt>
      <trkpt lat="41.5220340" lon="-4.8035710">
        <ele>722.8</ele>
        <time>2019-05-25T11:46:48Z</time>
      </trkpt>
      <trkpt lat="41.5220020" lon="-4.8035160">
        <ele>722.8</ele>
        <time>2019-05-25T11:46:49Z</time>
      </trkpt>
      <trkpt lat="41.5219450" lon="-4.8034080">
        <ele>723.0</ele>
        <time>2019-05-25T11:46:51Z</time>
      </trkpt>
      <trkpt lat="41.5219270" lon="-4.8033510">
        <ele>723.0</ele>
        <time>2019-05-25T11:46:52Z</time>
      </trkpt>
      <trkpt lat="41.5218690" lon="-4.8031430">
        <ele>723.2</ele>
        <time>2019-05-25T11:46:56Z</time>
      </trkpt>
      <trkpt lat="41.5218420" lon="-4.8029450">
        <ele>723.8</ele>
        <time>2019-05-25T11:47:00Z</time>
      </trkpt>
      <trkpt lat="41.5218540" lon="-4.8029130">
        <ele>724.0</ele>
        <time>2019-05-25T11:47:01Z</time>
      </trkpt>
      <trkpt lat="41.5218740" lon="-4.8028860">
        <ele>724.0</ele>
        <time>2019-05-25T11:47:02Z</time>
      </trkpt>
      <trkpt lat="41.5219220" lon="-4.8028090">
        <ele>724.0</ele>
        <time>2019-05-25T11:47:05Z</time>
      </trkpt>
      <trkpt lat="41.5219390" lon="-4.8027630">
        <ele>724.0</ele>
        <time>2019-05-25T11:47:06Z</time>
      </trkpt>
      <trkpt lat="41.5219440" lon="-4.8025440">
        <ele>724.0</ele>
        <time>2019-05-25T11:47:09Z</time>
      </trkpt>
      <trkpt lat="41.5218800" lon="-4.8023260">
        <ele>722.2</ele>
        <time>2019-05-25T11:47:12Z</time>
      </trkpt>
      <trkpt lat="41.5218570" lon="-4.8022620">
        <ele>720.8</ele>
        <time>2019-05-25T11:47:13Z</time>
      </trkpt>
      <trkpt lat="41.5218340" lon="-4.8021980">
        <ele>719.6</ele>
        <time>2019-05-25T11:47:14Z</time>
      </trkpt>
      <trkpt lat="41.5218110" lon="-4.8021360">
        <ele>718.4</ele>
        <time>2019-05-25T11:47:15Z</time>
      </trkpt>
      <trkpt lat="41.5217680" lon="-4.8020160">
        <ele>716.8</ele>
        <time>2019-05-25T11:47:17Z</time>
      </trkpt>
      <trkpt lat="41.5217170" lon="-4.8018200">
        <ele>716.4</ele>
        <time>2019-05-25T11:47:20Z</time>
      </trkpt>
      <trkpt lat="41.5216920" lon="-4.8016900">
        <ele>716.2</ele>
        <time>2019-05-25T11:47:22Z</time>
      </trkpt>
      <trkpt lat="41.5216600" lon="-4.8011920">
        <ele>716.2</ele>
        <time>2019-05-25T11:47:30Z</time>
      </trkpt>
      <trkpt lat="41.5216420" lon="-4.8008250">
        <ele>716.2</ele>
        <time>2019-05-25T11:47:36Z</time>
      </trkpt>
      <trkpt lat="41.5216180" lon="-4.8005660">
        <ele>716.4</ele>
        <time>2019-05-25T11:47:40Z</time>
      </trkpt>
      <trkpt lat="41.5216210" lon="-4.8001140">
        <ele>717.2</ele>
        <time>2019-05-25T11:47:47Z</time>
      </trkpt>
      <trkpt lat="41.5215960" lon="-4.7998840">
        <ele>717.2</ele>
        <time>2019-05-25T11:47:52Z</time>
      </trkpt>
      <trkpt lat="41.5215950" lon="-4.7997310">
        <ele>717.6</ele>
        <time>2019-05-25T11:47:54Z</time>
      </trkpt>
      <trkpt lat="41.5216110" lon="-4.7995530">
        <ele>717.6</ele>
        <time>2019-05-25T11:47:58Z</time>
      </trkpt>
      <trkpt lat="41.5216120" lon="-4.7993650">
        <ele>718.0</ele>
        <time>2019-05-25T11:48:00Z</time>
      </trkpt>
      <trkpt lat="41.5216080" lon="-4.7993030">
        <ele>718.0</ele>
        <time>2019-05-25T11:48:02Z</time>
      </trkpt>
      <trkpt lat="41.5215630" lon="-4.7989990">
        <ele>718.4</ele>
        <time>2019-05-25T11:48:06Z</time>
      </trkpt>
      <trkpt lat="41.5215270" lon="-4.7988950">
        <ele>718.6</ele>
        <time>2019-05-25T11:48:08Z</time>
      </trkpt>
      <trkpt lat="41.5215120" lon="-4.7988390">
        <ele>718.8</ele>
        <time>2019-05-25T11:48:09Z</time>
      </trkpt>
      <trkpt lat="41.5214980" lon="-4.7987820">
        <ele>718.8</ele>
        <time>2019-05-25T11:48:10Z</time>
      </trkpt>
      <trkpt lat="41.5214880" lon="-4.7987230">
        <ele>719.0</ele>
        <time>2019-05-25T11:48:12Z</time>
      </trkpt>
      <trkpt lat="41.5214640" lon="-4.7985590">
        <ele>719.4</ele>
        <time>2019-05-25T11:48:14Z</time>
      </trkpt>
      <trkpt lat="41.5214380" lon="-4.7984450">
        <ele>719.8</ele>
        <time>2019-05-25T11:48:16Z</time>
      </trkpt>
      <trkpt lat="41.5213450" lon="-4.7981070">
        <ele>720.4</ele>
        <time>2019-05-25T11:48:22Z</time>
      </trkpt>
      <trkpt lat="41.5212250" lon="-4.7976300">
        <ele>720.8</ele>
        <time>2019-05-25T11:48:30Z</time>
      </trkpt>
      <trkpt lat="41.5212070" lon="-4.7975710">
        <ele>720.8</ele>
        <time>2019-05-25T11:48:31Z</time>
      </trkpt>
      <trkpt lat="41.5211930" lon="-4.7975070">
        <ele>720.8</ele>
        <time>2019-05-25T11:48:32Z</time>
      </trkpt>
      <trkpt lat="41.5211760" lon="-4.7972550">
        <ele>720.8</ele>
        <time>2019-05-25T11:48:36Z</time>
      </trkpt>
      <trkpt lat="41.5210850" lon="-4.7969240">
        <ele>720.8</ele>
        <time>2019-05-25T11:48:42Z</time>
      </trkpt>
      <trkpt lat="41.5208790" lon="-4.7964580">
        <ele>720.0</ele>
        <time>2019-05-25T11:48:48Z</time>
      </trkpt>
      <trkpt lat="41.5208440" lon="-4.7963990">
        <ele>720.0</ele>
        <time>2019-05-25T11:48:49Z</time>
      </trkpt>
      <trkpt lat="41.5207240" lon="-4.7961420">
        <ele>719.8</ele>
        <time>2019-05-25T11:48:53Z</time>
      </trkpt>
      <trkpt lat="41.5206930" lon="-4.7960830">
        <ele>719.8</ele>
        <time>2019-05-25T11:48:55Z</time>
      </trkpt>
      <trkpt lat="41.5206280" lon="-4.7959640">
        <ele>719.8</ele>
        <time>2019-05-25T11:48:56Z</time>
      </trkpt>
      <trkpt lat="41.5204700" lon="-4.7956750">
        <ele>719.2</ele>
        <time>2019-05-25T11:49:02Z</time>
      </trkpt>
      <trkpt lat="41.5202650" lon="-4.7953150">
        <ele>718.8</ele>
        <time>2019-05-25T11:49:08Z</time>
      </trkpt>
      <trkpt lat="41.5201290" lon="-4.7950660">
        <ele>718.4</ele>
        <time>2019-05-25T11:49:14Z</time>
      </trkpt>
      <trkpt lat="41.5199920" lon="-4.7949560">
        <ele>718.2</ele>
        <time>2019-05-25T11:49:16Z</time>
      </trkpt>
      <trkpt lat="41.5198130" lon="-4.7948230">
        <ele>718.2</ele>
        <time>2019-05-25T11:49:20Z</time>
      </trkpt>
      <trkpt lat="41.5196940" lon="-4.7947130">
        <ele>718.2</ele>
        <time>2019-05-25T11:49:23Z</time>
      </trkpt>
      <trkpt lat="41.5196450" lon="-4.7946890">
        <ele>718.2</ele>
        <time>2019-05-25T11:49:24Z</time>
      </trkpt>
      <trkpt lat="41.5195630" lon="-4.7946490">
        <ele>718.4</ele>
        <time>2019-05-25T11:49:26Z</time>
      </trkpt>
      <trkpt lat="41.5194480" lon="-4.7945350">
        <ele>718.4</ele>
        <time>2019-05-25T11:49:29Z</time>
      </trkpt>
      <trkpt lat="41.5194060" lon="-4.7944980">
        <ele>718.4</ele>
        <time>2019-05-25T11:49:30Z</time>
      </trkpt>
      <trkpt lat="41.5192260" lon="-4.7944040">
        <ele>718.4</ele>
        <time>2019-05-25T11:49:34Z</time>
      </trkpt>
      <trkpt lat="41.5191350" lon="-4.7943930">
        <ele>718.4</ele>
        <time>2019-05-25T11:49:36Z</time>
      </trkpt>
      <trkpt lat="41.5190930" lon="-4.7943870">
        <ele>718.4</ele>
        <time>2019-05-25T11:49:37Z</time>
      </trkpt>
      <trkpt lat="41.5190160" lon="-4.7943440">
        <ele>718.4</ele>
        <time>2019-05-25T11:49:39Z</time>
      </trkpt>
      <trkpt lat="41.5188530" lon="-4.7942590">
        <ele>718.4</ele>
        <time>2019-05-25T11:49:43Z</time>
      </trkpt>
      <trkpt lat="41.5188120" lon="-4.7942400">
        <ele>718.4</ele>
        <time>2019-05-25T11:49:44Z</time>
      </trkpt>
      <trkpt lat="41.5186540" lon="-4.7941370">
        <ele>719.6</ele>
        <time>2019-05-25T11:49:48Z</time>
      </trkpt>
      <trkpt lat="41.5185270" lon="-4.7941470">
        <ele>719.8</ele>
        <time>2019-05-25T11:49:51Z</time>
      </trkpt>
      <trkpt lat="41.5184840" lon="-4.7941560">
        <ele>719.8</ele>
        <time>2019-05-25T11:49:52Z</time>
      </trkpt>
      <trkpt lat="41.5183560" lon="-4.7941390">
        <ele>720.2</ele>
        <time>2019-05-25T11:49:55Z</time>
      </trkpt>
      <trkpt lat="41.5182670" lon="-4.7941340">
        <ele>720.4</ele>
        <time>2019-05-25T11:49:57Z</time>
      </trkpt>
      <trkpt lat="41.5181840" lon="-4.7941340">
        <ele>721.0</ele>
        <time>2019-05-25T11:49:59Z</time>
      </trkpt>
      <trkpt lat="41.5181420" lon="-4.7941280">
        <ele>721.0</ele>
        <time>2019-05-25T11:50:00Z</time>
      </trkpt>
      <trkpt lat="41.5180280" lon="-4.7940470">
        <ele>721.2</ele>
        <time>2019-05-25T11:50:03Z</time>
      </trkpt>
      <trkpt lat="41.5179890" lon="-4.7940090">
        <ele>721.4</ele>
        <time>2019-05-25T11:50:04Z</time>
      </trkpt>
      <trkpt lat="41.5177710" lon="-4.7938600">
        <ele>721.6</ele>
        <time>2019-05-25T11:50:09Z</time>
      </trkpt>
      <trkpt lat="41.5174090" lon="-4.7936660">
        <ele>721.8</ele>
        <time>2019-05-25T11:50:18Z</time>
      </trkpt>
      <trkpt lat="41.5171970" lon="-4.7935290">
        <ele>721.8</ele>
        <time>2019-05-25T11:50:24Z</time>
      </trkpt>
      <trkpt lat="41.5170960" lon="-4.7934290">
        <ele>722.0</ele>
        <time>2019-05-25T11:50:27Z</time>
      </trkpt>
      <trkpt lat="41.5169150" lon="-4.7932450">
        <ele>722.4</ele>
        <time>2019-05-25T11:50:33Z</time>
      </trkpt>
      <trkpt lat="41.5166930" lon="-4.7929530">
        <ele>722.8</ele>
        <time>2019-05-25T11:50:40Z</time>
      </trkpt>
      <trkpt lat="41.5165830" lon="-4.7926080">
        <ele>722.8</ele>
        <time>2019-05-25T11:50:46Z</time>
      </trkpt>
      <trkpt lat="41.5164620" lon="-4.7923640">
        <ele>722.6</ele>
        <time>2019-05-25T11:50:50Z</time>
      </trkpt>
      <trkpt lat="41.5164300" lon="-4.7923080">
        <ele>722.6</ele>
        <time>2019-05-25T11:50:51Z</time>
      </trkpt>
      <trkpt lat="41.5163320" lon="-4.7921110">
        <ele>721.4</ele>
        <time>2019-05-25T11:50:54Z</time>
      </trkpt>
      <trkpt lat="41.5163000" lon="-4.7920410">
        <ele>720.8</ele>
        <time>2019-05-25T11:50:55Z</time>
      </trkpt>
      <trkpt lat="41.5162720" lon="-4.7919990">
        <ele>720.6</ele>
        <time>2019-05-25T11:50:56Z</time>
      </trkpt>
      <trkpt lat="41.5162400" lon="-4.7919530">
        <ele>720.4</ele>
        <time>2019-05-25T11:50:57Z</time>
      </trkpt>
      <trkpt lat="41.5162110" lon="-4.7919080">
        <ele>720.2</ele>
        <time>2019-05-25T11:50:58Z</time>
      </trkpt>
      <trkpt lat="41.5161380" lon="-4.7918010">
        <ele>719.8</ele>
        <time>2019-05-25T11:51:00Z</time>
      </trkpt>
      <trkpt lat="41.5160400" lon="-4.7917040">
        <ele>719.6</ele>
        <time>2019-05-25T11:51:02Z</time>
      </trkpt>
      <trkpt lat="41.5158290" lon="-4.7915990">
        <ele>719.2</ele>
        <time>2019-05-25T11:51:06Z</time>
      </trkpt>
      <trkpt lat="41.5157790" lon="-4.7915860">
        <ele>719.2</ele>
        <time>2019-05-25T11:51:07Z</time>
      </trkpt>
      <trkpt lat="41.5156780" lon="-4.7915320">
        <ele>719.2</ele>
        <time>2019-05-25T11:51:09Z</time>
      </trkpt>
      <trkpt lat="41.5156110" lon="-4.7914190">
        <ele>719.2</ele>
        <time>2019-05-25T11:51:11Z</time>
      </trkpt>
      <trkpt lat="41.5155550" lon="-4.7912810">
        <ele>719.2</ele>
        <time>2019-05-25T11:51:13Z</time>
      </trkpt>
      <trkpt lat="41.5154850" lon="-4.7911440">
        <ele>719.2</ele>
        <time>2019-05-25T11:51:15Z</time>
      </trkpt>
      <trkpt lat="41.5154410" lon="-4.7910820">
        <ele>719.2</ele>
        <time>2019-05-25T11:51:16Z</time>
      </trkpt>
      <trkpt lat="41.5152470" lon="-4.7908600">
        <ele>719.4</ele>
        <time>2019-05-25T11:51:20Z</time>
      </trkpt>
      <trkpt lat="41.5152030" lon="-4.7908250">
        <ele>719.6</ele>
        <time>2019-05-25T11:51:21Z</time>
      </trkpt>
      <trkpt lat="41.5151600" lon="-4.7907810">
        <ele>719.6</ele>
        <time>2019-05-25T11:51:22Z</time>
      </trkpt>
      <trkpt lat="41.5150450" lon="-4.7906020">
        <ele>719.6</ele>
        <time>2019-05-25T11:51:25Z</time>
      </trkpt>
      <trkpt lat="41.5149050" lon="-4.7903550">
        <ele>719.4</ele>
        <time>2019-05-25T11:51:29Z</time>
      </trkpt>
      <trkpt lat="41.5148400" lon="-4.7902210">
        <ele>719.4</ele>
        <time>2019-05-25T11:51:31Z</time>
      </trkpt>
      <trkpt lat="41.5147570" lon="-4.7900970">
        <ele>719.4</ele>
        <time>2019-05-25T11:51:33Z</time>
      </trkpt>
      <trkpt lat="41.5146550" lon="-4.7900040">
        <ele>719.4</ele>
        <time>2019-05-25T11:51:35Z</time>
      </trkpt>
      <trkpt lat="41.5145530" lon="-4.7899370">
        <ele>719.2</ele>
        <time>2019-05-25T11:51:37Z</time>
      </trkpt>
      <trkpt lat="41.5143390" lon="-4.7898100">
        <ele>719.2</ele>
        <time>2019-05-25T11:51:41Z</time>
      </trkpt>
      <trkpt lat="41.5141280" lon="-4.7897260">
        <ele>719.2</ele>
        <time>2019-05-25T11:51:45Z</time>
      </trkpt>
      <trkpt lat="41.5140840" lon="-4.7896910">
        <ele>719.2</ele>
        <time>2019-05-25T11:51:46Z</time>
      </trkpt>
      <trkpt lat="41.5137960" lon="-4.7893940">
        <ele>719.6</ele>
        <time>2019-05-25T11:51:53Z</time>
      </trkpt>
      <trkpt lat="41.5135880" lon="-4.7890610">
        <ele>719.8</ele>
        <time>2019-05-25T11:51:59Z</time>
      </trkpt>
      <trkpt lat="41.5134940" lon="-4.7888750">
        <ele>719.8</ele>
        <time>2019-05-25T11:52:02Z</time>
      </trkpt>
      <trkpt lat="41.5134140" lon="-4.7885950">
        <ele>719.8</ele>
        <time>2019-05-25T11:52:06Z</time>
      </trkpt>
      <trkpt lat="41.5133850" lon="-4.7883730">
        <ele>719.8</ele>
        <time>2019-05-25T11:52:09Z</time>
      </trkpt>
      <trkpt lat="41.5133340" lon="-4.7882300">
        <ele>719.8</ele>
        <time>2019-05-25T11:52:11Z</time>
      </trkpt>
      <trkpt lat="41.5132720" lon="-4.7880980">
        <ele>719.6</ele>
        <time>2019-05-25T11:52:13Z</time>
      </trkpt>
      <trkpt lat="41.5131610" lon="-4.7878610">
        <ele>719.0</ele>
        <time>2019-05-25T11:52:17Z</time>
      </trkpt>
      <trkpt lat="41.5131320" lon="-4.7878060">
        <ele>718.6</ele>
        <time>2019-05-25T11:52:18Z</time>
      </trkpt>
      <trkpt lat="41.5129770" lon="-4.7875740">
        <ele>718.2</ele>
        <time>2019-05-25T11:52:23Z</time>
      </trkpt>
      <trkpt lat="41.5129150" lon="-4.7874990">
        <ele>718.2</ele>
        <time>2019-05-25T11:52:25Z</time>
      </trkpt>
      <trkpt lat="41.5128030" lon="-4.7874220">
        <ele>718.2</ele>
        <time>2019-05-25T11:52:28Z</time>
      </trkpt>
      <trkpt lat="41.5127280" lon="-4.7873880">
        <ele>718.4</ele>
        <time>2019-05-25T11:52:30Z</time>
      </trkpt>
      <trkpt lat="41.5125220" lon="-4.7872410">
        <ele>718.8</ele>
        <time>2019-05-25T11:52:36Z</time>
      </trkpt>
      <trkpt lat="41.5123650" lon="-4.7870990">
        <ele>719.8</ele>
        <time>2019-05-25T11:52:41Z</time>
      </trkpt>
      <trkpt lat="41.5123040" lon="-4.7870070">
        <ele>719.8</ele>
        <time>2019-05-25T11:52:43Z</time>
      </trkpt>
      <trkpt lat="41.5121760" lon="-4.7867490">
        <ele>719.8</ele>
        <time>2019-05-25T11:52:48Z</time>
      </trkpt>
      <trkpt lat="41.5121460" lon="-4.7867030">
        <ele>719.8</ele>
        <time>2019-05-25T11:52:49Z</time>
      </trkpt>
      <trkpt lat="41.5120850" lon="-4.7866260">
        <ele>719.6</ele>
        <time>2019-05-25T11:52:51Z</time>
      </trkpt>
      <trkpt lat="41.5118840" lon="-4.7863380">
        <ele>719.2</ele>
        <time>2019-05-25T11:52:58Z</time>
      </trkpt>
      <trkpt lat="41.5116150" lon="-4.7859920">
        <ele>719.6</ele>
        <time>2019-05-25T11:53:07Z</time>
      </trkpt>
      <trkpt lat="41.5114310" lon="-4.7858320">
        <ele>719.8</ele>
        <time>2019-05-25T11:53:13Z</time>
      </trkpt>
      <trkpt lat="41.5113410" lon="-4.7857740">
        <ele>719.8</ele>
        <time>2019-05-25T11:53:14Z</time>
      </trkpt>
      <trkpt lat="41.5111890" lon="-4.7856600">
        <ele>720.0</ele>
        <time>2019-05-25T11:53:18Z</time>
      </trkpt>
      <trkpt lat="41.5108890" lon="-4.7854220">
        <ele>720.0</ele>
        <time>2019-05-25T11:53:25Z</time>
      </trkpt>
      <trkpt lat="41.5106740" lon="-4.7852620">
        <ele>720.0</ele>
        <time>2019-05-25T11:53:30Z</time>
      </trkpt>
      <trkpt lat="41.5105790" lon="-4.7852280">
        <ele>719.8</ele>
        <time>2019-05-25T11:53:32Z</time>
      </trkpt>
      <trkpt lat="41.5102680" lon="-4.7850740">
        <ele>719.4</ele>
        <time>2019-05-25T11:53:39Z</time>
      </trkpt>
      <trkpt lat="41.5100550" lon="-4.7850100">
        <ele>719.4</ele>
        <time>2019-05-25T11:53:44Z</time>
      </trkpt>
      <trkpt lat="41.5100220" lon="-4.7849880">
        <ele>719.4</ele>
        <time>2019-05-25T11:53:45Z</time>
      </trkpt>
      <trkpt lat="41.5098260" lon="-4.7848750">
        <ele>720.4</ele>
        <time>2019-05-25T11:53:50Z</time>
      </trkpt>
      <trkpt lat="41.5097800" lon="-4.7848620">
        <ele>720.6</ele>
        <time>2019-05-25T11:53:51Z</time>
      </trkpt>
      <trkpt lat="41.5096880" lon="-4.7848290">
        <ele>720.8</ele>
        <time>2019-05-25T11:53:53Z</time>
      </trkpt>
      <trkpt lat="41.5096110" lon="-4.7847550">
        <ele>720.8</ele>
        <time>2019-05-25T11:53:55Z</time>
      </trkpt>
      <trkpt lat="41.5094580" lon="-4.7846070">
        <ele>720.8</ele>
        <time>2019-05-25T11:53:59Z</time>
      </trkpt>
      <trkpt lat="41.5093980" lon="-4.7845370">
        <ele>720.8</ele>
        <time>2019-05-25T11:54:01Z</time>
      </trkpt>
      <trkpt lat="41.5092650" lon="-4.7844490">
        <ele>720.8</ele>
        <time>2019-05-25T11:54:04Z</time>
      </trkpt>
      <trkpt lat="41.5091600" lon="-4.7843070">
        <ele>720.8</ele>
        <time>2019-05-25T11:54:07Z</time>
      </trkpt>
      <trkpt lat="41.5091190" lon="-4.7842640">
        <ele>720.8</ele>
        <time>2019-05-25T11:54:08Z</time>
      </trkpt>
      <trkpt lat="41.5089300" lon="-4.7841430">
        <ele>720.6</ele>
        <time>2019-05-25T11:54:12Z</time>
      </trkpt>
      <trkpt lat="41.5087910" lon="-4.7840620">
        <ele>720.6</ele>
        <time>2019-05-25T11:54:15Z</time>
      </trkpt>
      <trkpt lat="41.5087080" lon="-4.7839910">
        <ele>720.6</ele>
        <time>2019-05-25T11:54:17Z</time>
      </trkpt>
      <trkpt lat="41.5083620" lon="-4.7836510">
        <ele>720.8</ele>
        <time>2019-05-25T11:54:26Z</time>
      </trkpt>
      <trkpt lat="41.5083260" lon="-4.7836250">
        <ele>720.8</ele>
        <time>2019-05-25T11:54:27Z</time>
      </trkpt>
      <trkpt lat="41.5082240" lon="-4.7835750">
        <ele>720.8</ele>
        <time>2019-05-25T11:54:30Z</time>
      </trkpt>
      <trkpt lat="41.5081470" lon="-4.7835530">
        <ele>720.8</ele>
        <time>2019-05-25T11:54:32Z</time>
      </trkpt>
      <trkpt lat="41.5080780" lon="-4.7835800">
        <ele>721.0</ele>
        <time>2019-05-25T11:54:34Z</time>
      </trkpt>
      <trkpt lat="41.5079610" lon="-4.7836230">
        <ele>721.2</ele>
        <time>2019-05-25T11:54:38Z</time>
      </trkpt>
      <trkpt lat="41.5079070" lon="-4.7835740">
        <ele>721.6</ele>
        <time>2019-05-25T11:54:41Z</time>
      </trkpt>
      <trkpt lat="41.5078450" lon="-4.7834990">
        <ele>722.6</ele>
        <time>2019-05-25T11:54:42Z</time>
      </trkpt>
      <trkpt lat="41.5077230" lon="-4.7834580">
        <ele>723.8</ele>
        <time>2019-05-25T11:54:45Z</time>
      </trkpt>
      <trkpt lat="41.5076830" lon="-4.7834460">
        <ele>724.0</ele>
        <time>2019-05-25T11:54:46Z</time>
      </trkpt>
      <trkpt lat="41.5075210" lon="-4.7833930">
        <ele>724.4</ele>
        <time>2019-05-25T11:54:50Z</time>
      </trkpt>
      <trkpt lat="41.5074530" lon="-4.7833260">
        <ele>724.4</ele>
        <time>2019-05-25T11:54:52Z</time>
      </trkpt>
      <trkpt lat="41.5073520" lon="-4.7831510">
        <ele>724.4</ele>
        <time>2019-05-25T11:54:56Z</time>
      </trkpt>
      <trkpt lat="41.5072620" lon="-4.7831570">
        <ele>724.6</ele>
        <time>2019-05-25T11:54:59Z</time>
      </trkpt>
      <trkpt lat="41.5071870" lon="-4.7831150">
        <ele>724.6</ele>
        <time>2019-05-25T11:55:02Z</time>
      </trkpt>
      <trkpt lat="41.5071560" lon="-4.7830990">
        <ele>724.8</ele>
        <time>2019-05-25T11:55:04Z</time>
      </trkpt>
      <trkpt lat="41.5070300" lon="-4.7830630">
        <ele>724.8</ele>
        <time>2019-05-25T11:55:07Z</time>
      </trkpt>
      <trkpt lat="41.5069340" lon="-4.7830290">
        <ele>725.0</ele>
        <time>2019-05-25T11:55:10Z</time>
      </trkpt>
      <trkpt lat="41.5067580" lon="-4.7828400">
        <ele>725.8</ele>
        <time>2019-05-25T11:55:16Z</time>
      </trkpt>
      <trkpt lat="41.5066890" lon="-4.7827640">
        <ele>725.8</ele>
        <time>2019-05-25T11:55:18Z</time>
      </trkpt>
      <trkpt lat="41.5065000" lon="-4.7826100">
        <ele>726.0</ele>
        <time>2019-05-25T11:55:23Z</time>
      </trkpt>
      <trkpt lat="41.5063920" lon="-4.7825470">
        <ele>726.0</ele>
        <time>2019-05-25T11:55:26Z</time>
      </trkpt>
      <trkpt lat="41.5062700" lon="-4.7825070">
        <ele>726.4</ele>
        <time>2019-05-25T11:55:29Z</time>
      </trkpt>
      <trkpt lat="41.5061170" lon="-4.7824380">
        <ele>726.6</ele>
        <time>2019-05-25T11:55:34Z</time>
      </trkpt>
      <trkpt lat="41.5060940" lon="-4.7824140">
        <ele>726.8</ele>
        <time>2019-05-25T11:55:35Z</time>
      </trkpt>
      <trkpt lat="41.5060770" lon="-4.7823900">
        <ele>726.8</ele>
        <time>2019-05-25T11:55:36Z</time>
      </trkpt>
      <trkpt lat="41.5060370" lon="-4.7823300">
        <ele>727.0</ele>
        <time>2019-05-25T11:55:39Z</time>
      </trkpt>
      <trkpt lat="41.5060220" lon="-4.7823180">
        <ele>727.2</ele>
        <time>2019-05-25T11:55:40Z</time>
      </trkpt>
      <trkpt lat="41.5059290" lon="-4.7822800">
        <ele>727.2</ele>
        <time>2019-05-25T11:55:44Z</time>
      </trkpt>
      <trkpt lat="41.5058780" lon="-4.7822410">
        <ele>727.2</ele>
        <time>2019-05-25T11:55:46Z</time>
      </trkpt>
      <trkpt lat="41.5055550" lon="-4.7820500">
        <ele>727.2</ele>
        <time>2019-05-25T11:55:56Z</time>
      </trkpt>
      <trkpt lat="41.5053970" lon="-4.7819850">
        <ele>727.4</ele>
        <time>2019-05-25T11:56:01Z</time>
      </trkpt>
      <trkpt lat="41.5052970" lon="-4.7819130">
        <ele>727.4</ele>
        <time>2019-05-25T11:56:04Z</time>
      </trkpt>
      <trkpt lat="41.5051260" lon="-4.7818090">
        <ele>727.2</ele>
        <time>2019-05-25T11:56:09Z</time>
      </trkpt>
      <trkpt lat="41.5050200" lon="-4.7817370">
        <ele>726.6</ele>
        <time>2019-05-25T11:56:12Z</time>
      </trkpt>
      <trkpt lat="41.5049040" lon="-4.7816560">
        <ele>726.4</ele>
        <time>2019-05-25T11:56:15Z</time>
      </trkpt>
      <trkpt lat="41.5048310" lon="-4.7816080">
        <ele>726.2</ele>
        <time>2019-05-25T11:56:17Z</time>
      </trkpt>
      <trkpt lat="41.5048020" lon="-4.7815890">
        <ele>726.0</ele>
        <time>2019-05-25T11:56:18Z</time>
      </trkpt>
      <trkpt lat="41.5047750" lon="-4.7815740">
        <ele>725.8</ele>
        <time>2019-05-25T11:56:19Z</time>
      </trkpt>
      <trkpt lat="41.5047140" lon="-4.7815440">
        <ele>725.6</ele>
        <time>2019-05-25T11:56:22Z</time>
      </trkpt>
      <trkpt lat="41.5046670" lon="-4.7815220">
        <ele>725.6</ele>
        <time>2019-05-25T11:56:24Z</time>
      </trkpt>
      <trkpt lat="41.5044580" lon="-4.7813930">
        <ele>725.6</ele>
        <time>2019-05-25T11:56:32Z</time>
      </trkpt>
      <trkpt lat="41.5043500" lon="-4.7813040">
        <ele>726.8</ele>
        <time>2019-05-25T11:56:36Z</time>
      </trkpt>
      <trkpt lat="41.5042030" lon="-4.7812030">
        <ele>727.8</ele>
        <time>2019-05-25T11:56:41Z</time>
      </trkpt>
      <trkpt lat="41.5039220" lon="-4.7810020">
        <ele>728.0</ele>
        <time>2019-05-25T11:56:49Z</time>
      </trkpt>
      <trkpt lat="41.5037510" lon="-4.7809170">
        <ele>728.0</ele>
        <time>2019-05-25T11:56:54Z</time>
      </trkpt>
      <trkpt lat="41.5035660" lon="-4.7808200">
        <ele>728.0</ele>
        <time>2019-05-25T11:56:59Z</time>
      </trkpt>
      <trkpt lat="41.5033670" lon="-4.7806380">
        <ele>728.0</ele>
        <time>2019-05-25T11:57:05Z</time>
      </trkpt>
      <trkpt lat="41.5033340" lon="-4.7805990">
        <ele>728.0</ele>
        <time>2019-05-25T11:57:06Z</time>
      </trkpt>
      <trkpt lat="41.5032310" lon="-4.7804620">
        <ele>728.0</ele>
        <time>2019-05-25T11:57:09Z</time>
      </trkpt>
      <trkpt lat="41.5030970" lon="-4.7802980">
        <ele>727.8</ele>
        <time>2019-05-25T11:57:12Z</time>
      </trkpt>
      <trkpt lat="41.5029940" lon="-4.7801820">
        <ele>726.4</ele>
        <time>2019-05-25T11:57:15Z</time>
      </trkpt>
      <trkpt lat="41.5028700" lon="-4.7800480">
        <ele>724.4</ele>
        <time>2019-05-25T11:57:17Z</time>
      </trkpt>
      <trkpt lat="41.5028380" lon="-4.7800020">
        <ele>723.4</ele>
        <time>2019-05-25T11:57:18Z</time>
      </trkpt>
      <trkpt lat="41.5027680" lon="-4.7799150">
        <ele>722.4</ele>
        <time>2019-05-25T11:57:20Z</time>
      </trkpt>
      <trkpt lat="41.5027300" lon="-4.7798780">
        <ele>722.2</ele>
        <time>2019-05-25T11:57:21Z</time>
      </trkpt>
      <trkpt lat="41.5026300" lon="-4.7797750">
        <ele>722.0</ele>
        <time>2019-05-25T11:57:24Z</time>
      </trkpt>
      <trkpt lat="41.5024990" lon="-4.7796130">
        <ele>722.0</ele>
        <time>2019-05-25T11:57:28Z</time>
      </trkpt>
      <trkpt lat="41.5023840" lon="-4.7794960">
        <ele>722.0</ele>
        <time>2019-05-25T11:57:31Z</time>
      </trkpt>
      <trkpt lat="41.5023050" lon="-4.7794640">
        <ele>722.0</ele>
        <time>2019-05-25T11:57:33Z</time>
      </trkpt>
      <trkpt lat="41.5020850" lon="-4.7793900">
        <ele>721.8</ele>
        <time>2019-05-25T11:57:38Z</time>
      </trkpt>
      <trkpt lat="41.5019950" lon="-4.7793920">
        <ele>721.8</ele>
        <time>2019-05-25T11:57:40Z</time>
      </trkpt>
      <trkpt lat="41.5018620" lon="-4.7794480">
        <ele>721.8</ele>
        <time>2019-05-25T11:57:44Z</time>
      </trkpt>
      <trkpt lat="41.5018430" lon="-4.7794710">
        <ele>721.8</ele>
        <time>2019-05-25T11:57:45Z</time>
      </trkpt>
      <trkpt lat="41.5018240" lon="-4.7795160">
        <ele>721.8</ele>
        <time>2019-05-25T11:57:47Z</time>
      </trkpt>
      <trkpt lat="41.5018010" lon="-4.7795610">
        <ele>722.2</ele>
        <time>2019-05-25T11:57:49Z</time>
      </trkpt>
      <trkpt lat="41.5017780" lon="-4.7795700">
        <ele>722.6</ele>
        <time>2019-05-25T11:57:50Z</time>
      </trkpt>
      <trkpt lat="41.5017220" lon="-4.7795600">
        <ele>723.4</ele>
        <time>2019-05-25T11:57:52Z</time>
      </trkpt>
      <trkpt lat="41.5016870" lon="-4.7795510">
        <ele>724.2</ele>
        <time>2019-05-25T11:57:53Z</time>
      </trkpt>
      <trkpt lat="41.5016490" lon="-4.7795410">
        <ele>724.8</ele>
        <time>2019-05-25T11:57:54Z</time>
      </trkpt>
      <trkpt lat="41.5015640" lon="-4.7795310">
        <ele>726.2</ele>
        <time>2019-05-25T11:57:56Z</time>
      </trkpt>
      <trkpt lat="41.5014320" lon="-4.7795430">
        <ele>727.4</ele>
        <time>2019-05-25T11:57:59Z</time>
      </trkpt>
      <trkpt lat="41.5013400" lon="-4.7795530">
        <ele>727.6</ele>
        <time>2019-05-25T11:58:01Z</time>
      </trkpt>
      <trkpt lat="41.5010310" lon="-4.7796180">
        <ele>728.2</ele>
        <time>2019-05-25T11:58:08Z</time>
      </trkpt>
      <trkpt lat="41.5009490" lon="-4.7796030">
        <ele>728.2</ele>
        <time>2019-05-25T11:58:10Z</time>
      </trkpt>
      <trkpt lat="41.5008650" lon="-4.7795710">
        <ele>728.4</ele>
        <time>2019-05-25T11:58:12Z</time>
      </trkpt>
      <trkpt lat="41.5008220" lon="-4.7795540">
        <ele>728.4</ele>
        <time>2019-05-25T11:58:13Z</time>
      </trkpt>
      <trkpt lat="41.5004800" lon="-4.7794600">
        <ele>728.6</ele>
        <time>2019-05-25T11:58:21Z</time>
      </trkpt>
      <trkpt lat="41.5003050" lon="-4.7794230">
        <ele>729.0</ele>
        <time>2019-05-25T11:58:26Z</time>
      </trkpt>
      <trkpt lat="41.5001270" lon="-4.7794850">
        <ele>729.4</ele>
        <time>2019-05-25T11:58:32Z</time>
      </trkpt>
      <trkpt lat="41.5000630" lon="-4.7795080">
        <ele>729.4</ele>
        <time>2019-05-25T11:58:34Z</time>
      </trkpt>
      <trkpt lat="41.4998800" lon="-4.7794960">
        <ele>729.4</ele>
        <time>2019-05-25T11:58:39Z</time>
      </trkpt>
      <trkpt lat="41.4995740" lon="-4.7795590">
        <ele>729.2</ele>
        <time>2019-05-25T11:58:46Z</time>
      </trkpt>
      <trkpt lat="41.4991380" lon="-4.7797430">
        <ele>729.2</ele>
        <time>2019-05-25T11:58:56Z</time>
      </trkpt>
      <trkpt lat="41.4987510" lon="-4.7797760">
        <ele>729.4</ele>
        <time>2019-05-25T11:59:04Z</time>
      </trkpt>
      <trkpt lat="41.4983870" lon="-4.7796360">
        <ele>730.0</ele>
        <time>2019-05-25T11:59:12Z</time>
      </trkpt>
      <trkpt lat="41.4983440" lon="-4.7796090">
        <ele>730.0</ele>
        <time>2019-05-25T11:59:13Z</time>
      </trkpt>
      <trkpt lat="41.4978510" lon="-4.7792980">
        <ele>730.4</ele>
        <time>2019-05-25T11:59:25Z</time>
      </trkpt>
      <trkpt lat="41.4974660" lon="-4.7790860">
        <ele>731.2</ele>
        <time>2019-05-25T11:59:34Z</time>
      </trkpt>
      <trkpt lat="41.4972750" lon="-4.7789080">
        <ele>731.4</ele>
        <time>2019-05-25T11:59:39Z</time>
      </trkpt>
      <trkpt lat="41.4972020" lon="-4.7788290">
        <ele>731.6</ele>
        <time>2019-05-25T11:59:41Z</time>
      </trkpt>
      <trkpt lat="41.4969570" lon="-4.7784700">
        <ele>731.8</ele>
        <time>2019-05-25T11:59:49Z</time>
      </trkpt>
      <trkpt lat="41.4967450" lon="-4.7781170">
        <ele>731.8</ele>
        <time>2019-05-25T11:59:57Z</time>
      </trkpt>
      <trkpt lat="41.4966880" lon="-4.7778370">
        <ele>731.8</ele>
        <time>2019-05-25T12:00:02Z</time>
      </trkpt>
      <trkpt lat="41.4966480" lon="-4.7777160">
        <ele>731.6</ele>
        <time>2019-05-25T12:00:04Z</time>
      </trkpt>
      <trkpt lat="41.4965580" lon="-4.7775810">
        <ele>731.6</ele>
        <time>2019-05-25T12:00:07Z</time>
      </trkpt>
      <trkpt lat="41.4963640" lon="-4.7774770">
        <ele>731.4</ele>
        <time>2019-05-25T12:00:11Z</time>
      </trkpt>
      <trkpt lat="41.4958260" lon="-4.7771680">
        <ele>730.8</ele>
        <time>2019-05-25T12:00:22Z</time>
      </trkpt>
      <trkpt lat="41.4954560" lon="-4.7769840">
        <ele>731.0</ele>
        <time>2019-05-25T12:00:30Z</time>
      </trkpt>
      <trkpt lat="41.4951690" lon="-4.7768520">
        <ele>731.4</ele>
        <time>2019-05-25T12:00:36Z</time>
      </trkpt>
      <trkpt lat="41.4949700" lon="-4.7767600">
        <ele>731.4</ele>
        <time>2019-05-25T12:00:40Z</time>
      </trkpt>
      <trkpt lat="41.4947180" lon="-4.7766570">
        <ele>731.2</ele>
        <time>2019-05-25T12:00:45Z</time>
      </trkpt>
      <trkpt lat="41.4945680" lon="-4.7765920">
        <ele>731.2</ele>
        <time>2019-05-25T12:00:48Z</time>
      </trkpt>
      <trkpt lat="41.4941850" lon="-4.7764770">
        <ele>730.8</ele>
        <time>2019-05-25T12:00:56Z</time>
      </trkpt>
      <trkpt lat="41.4940440" lon="-4.7763800">
        <ele>730.8</ele>
        <time>2019-05-25T12:01:00Z</time>
      </trkpt>
      <trkpt lat="41.4940200" lon="-4.7763610">
        <ele>730.8</ele>
        <time>2019-05-25T12:01:01Z</time>
      </trkpt>
      <trkpt lat="41.4939310" lon="-4.7762370">
        <ele>730.6</ele>
        <time>2019-05-25T12:01:06Z</time>
      </trkpt>
      <trkpt lat="41.4938840" lon="-4.7761110">
        <ele>730.2</ele>
        <time>2019-05-25T12:01:09Z</time>
      </trkpt>
      <trkpt lat="41.4938740" lon="-4.7760230">
        <ele>729.6</ele>
        <time>2019-05-25T12:01:11Z</time>
      </trkpt>
      <trkpt lat="41.4937600" lon="-4.7756380">
        <ele>729.6</ele>
        <time>2019-05-25T12:01:20Z</time>
      </trkpt>
      <trkpt lat="41.4935460" lon="-4.7753770">
        <ele>730.4</ele>
        <time>2019-05-25T12:01:28Z</time>
      </trkpt>
      <trkpt lat="41.4933460" lon="-4.7751490">
        <ele>731.2</ele>
        <time>2019-05-25T12:01:35Z</time>
      </trkpt>
      <trkpt lat="41.4932370" lon="-4.7749910">
        <ele>731.6</ele>
        <time>2019-05-25T12:01:39Z</time>
      </trkpt>
      <trkpt lat="41.4930080" lon="-4.7746250">
        <ele>732.2</ele>
        <time>2019-05-25T12:01:49Z</time>
      </trkpt>
      <trkpt lat="41.4929410" lon="-4.7744970">
        <ele>732.2</ele>
        <time>2019-05-25T12:01:51Z</time>
      </trkpt>
      <trkpt lat="41.4927720" lon="-4.7741780">
        <ele>732.6</ele>
        <time>2019-05-25T12:01:59Z</time>
      </trkpt>
      <trkpt lat="41.4926410" lon="-4.7739150">
        <ele>732.8</ele>
        <time>2019-05-25T12:02:03Z</time>
      </trkpt>
      <trkpt lat="41.4923900" lon="-4.7734160">
        <ele>732.4</ele>
        <time>2019-05-25T12:02:13Z</time>
      </trkpt>
      <trkpt lat="41.4921910" lon="-4.7729730">
        <ele>732.4</ele>
        <time>2019-05-25T12:02:21Z</time>
      </trkpt>
      <trkpt lat="41.4921720" lon="-4.7729200">
        <ele>732.4</ele>
        <time>2019-05-25T12:02:22Z</time>
      </trkpt>
      <trkpt lat="41.4920630" lon="-4.7726110">
        <ele>732.8</ele>
        <time>2019-05-25T12:02:27Z</time>
      </trkpt>
      <trkpt lat="41.4918110" lon="-4.7720790">
        <ele>732.6</ele>
        <time>2019-05-25T12:02:38Z</time>
      </trkpt>
      <trkpt lat="41.4915430" lon="-4.7716000">
        <ele>732.2</ele>
        <time>2019-05-25T12:02:46Z</time>
      </trkpt>
      <trkpt lat="41.4914900" lon="-4.7714960">
        <ele>732.0</ele>
        <time>2019-05-25T12:02:48Z</time>
      </trkpt>
      <trkpt lat="41.4913820" lon="-4.7713020">
        <ele>731.4</ele>
        <time>2019-05-25T12:02:52Z</time>
      </trkpt>
      <trkpt lat="41.4912810" lon="-4.7711620">
        <ele>731.0</ele>
        <time>2019-05-25T12:02:55Z</time>
      </trkpt>
      <trkpt lat="41.4912450" lon="-4.7711200">
        <ele>731.0</ele>
        <time>2019-05-25T12:02:56Z</time>
      </trkpt>
      <trkpt lat="41.4911400" lon="-4.7710010">
        <ele>730.8</ele>
        <time>2019-05-25T12:02:59Z</time>
      </trkpt>
      <trkpt lat="41.4909110" lon="-4.7708110">
        <ele>729.6</ele>
        <time>2019-05-25T12:03:05Z</time>
      </trkpt>
      <trkpt lat="41.4907500" lon="-4.7706930">
        <ele>729.0</ele>
        <time>2019-05-25T12:03:09Z</time>
      </trkpt>
      <trkpt lat="41.4907090" lon="-4.7706610">
        <ele>729.0</ele>
        <time>2019-05-25T12:03:10Z</time>
      </trkpt>
      <trkpt lat="41.4905760" lon="-4.7705570">
        <ele>728.4</ele>
        <time>2019-05-25T12:03:13Z</time>
      </trkpt>
      <trkpt lat="41.4903420" lon="-4.7703540">
        <ele>727.8</ele>
        <time>2019-05-25T12:03:18Z</time>
      </trkpt>
      <trkpt lat="41.4902980" lon="-4.7703020">
        <ele>727.4</ele>
        <time>2019-05-25T12:03:19Z</time>
      </trkpt>
      <trkpt lat="41.4902570" lon="-4.7702420">
        <ele>727.0</ele>
        <time>2019-05-25T12:03:20Z</time>
      </trkpt>
      <trkpt lat="41.4901920" lon="-4.7701130">
        <ele>726.2</ele>
        <time>2019-05-25T12:03:22Z</time>
      </trkpt>
      <trkpt lat="41.4901600" lon="-4.7700520">
        <ele>726.2</ele>
        <time>2019-05-25T12:03:23Z</time>
      </trkpt>
      <trkpt lat="41.4900970" lon="-4.7699450">
        <ele>725.6</ele>
        <time>2019-05-25T12:03:25Z</time>
      </trkpt>
      <trkpt lat="41.4900250" lon="-4.7698840">
        <ele>725.2</ele>
        <time>2019-05-25T12:03:27Z</time>
      </trkpt>
      <trkpt lat="41.4899810" lon="-4.7698760">
        <ele>725.2</ele>
        <time>2019-05-25T12:03:28Z</time>
      </trkpt>
      <trkpt lat="41.4898950" lon="-4.7699150">
        <ele>725.2</ele>
        <time>2019-05-25T12:03:30Z</time>
      </trkpt>
      <trkpt lat="41.4898580" lon="-4.7699490">
        <ele>725.2</ele>
        <time>2019-05-25T12:03:31Z</time>
      </trkpt>
      <trkpt lat="41.4897980" lon="-4.7700310">
        <ele>725.2</ele>
        <time>2019-05-25T12:03:33Z</time>
      </trkpt>
      <trkpt lat="41.4897560" lon="-4.7701110">
        <ele>725.2</ele>
        <time>2019-05-25T12:03:35Z</time>
      </trkpt>
      <trkpt lat="41.4896980" lon="-4.7702330">
        <ele>725.4</ele>
        <time>2019-05-25T12:03:40Z</time>
      </trkpt>
      <trkpt lat="41.4896730" lon="-4.7702260">
        <ele>726.4</ele>
        <time>2019-05-25T12:03:43Z</time>
      </trkpt>
      <trkpt lat="41.4896920" lon="-4.7701510">
        <ele>727.0</ele>
        <time>2019-05-25T12:03:46Z</time>
      </trkpt>
      <trkpt lat="41.4897360" lon="-4.7700290">
        <ele>727.2</ele>
        <time>2019-05-25T12:03:49Z</time>
      </trkpt>
      <trkpt lat="41.4897680" lon="-4.7699450">
        <ele>727.2</ele>
        <time>2019-05-25T12:03:51Z</time>
      </trkpt>
      <trkpt lat="41.4898010" lon="-4.7698990">
        <ele>726.8</ele>
        <time>2019-05-25T12:03:57Z</time>
      </trkpt>
      <trkpt lat="41.4898310" lon="-4.7698890">
        <ele>726.2</ele>
        <time>2019-05-25T12:03:59Z</time>
      </trkpt>
      <trkpt lat="41.4899210" lon="-4.7698530">
        <ele>726.0</ele>
        <time>2019-05-25T12:04:03Z</time>
      </trkpt>
      <trkpt lat="41.4899450" lon="-4.7698440">
        <ele>725.8</ele>
        <time>2019-05-25T12:04:04Z</time>
      </trkpt>
      <trkpt lat="41.4900030" lon="-4.7698330">
        <ele>726.0</ele>
        <time>2019-05-25T12:04:12Z</time>
      </trkpt>
      <trkpt lat="41.4900050" lon="-4.7698380">
        <ele>726.0</ele>
        <time>2019-05-25T12:04:13Z</time>
      </trkpt>
      <trkpt lat="41.4900080" lon="-4.7698490">
        <ele>726.2</ele>
        <time>2019-05-25T12:04:14Z</time>
      </trkpt>
      <trkpt lat="41.4899960" lon="-4.7698790">
        <ele>726.2</ele>
        <time>2019-05-25T12:04:16Z</time>
      </trkpt>
      <trkpt lat="41.4899790" lon="-4.7698910">
        <ele>726.2</ele>
        <time>2019-05-25T12:04:17Z</time>
      </trkpt>
      <trkpt lat="41.4897540" lon="-4.7701650">
        <ele>726.4</ele>
        <time>2019-05-25T12:04:28Z</time>
      </trkpt>
      <trkpt lat="41.4897010" lon="-4.7703070">
        <ele>727.0</ele>
        <time>2019-05-25T12:04:34Z</time>
      </trkpt>
      <trkpt lat="41.4896870" lon="-4.7703340">
        <ele>728.2</ele>
        <time>2019-05-25T12:05:04Z</time>
      </trkpt>
      <trkpt lat="41.4896830" lon="-4.7703370">
        <ele>728.2</ele>
        <time>2019-05-25T12:05:05Z</time>
      </trkpt>
      <trkpt lat="41.4896700" lon="-4.7703560">
        <ele>728.2</ele>
        <time>2019-05-25T12:05:07Z</time>
      </trkpt>
      <trkpt lat="41.4896600" lon="-4.7703720">
        <ele>728.2</ele>
        <time>2019-05-25T12:05:08Z</time>
      </trkpt>
      <trkpt lat="41.4896250" lon="-4.7704210">
        <ele>728.2</ele>
        <time>2019-05-25T12:05:11Z</time>
      </trkpt>
      <trkpt lat="41.4895810" lon="-4.7704270">
        <ele>728.4</ele>
        <time>2019-05-25T12:05:13Z</time>
      </trkpt>
      <trkpt lat="41.4894990" lon="-4.7703830">
        <ele>728.4</ele>
        <time>2019-05-25T12:05:16Z</time>
      </trkpt>
      <trkpt lat="41.4893220" lon="-4.7703120">
        <ele>728.4</ele>
        <time>2019-05-25T12:05:21Z</time>
      </trkpt>
      <trkpt lat="41.4892030" lon="-4.7703340">
        <ele>728.2</ele>
        <time>2019-05-25T12:05:24Z</time>
      </trkpt>
      <trkpt lat="41.4890040" lon="-4.7703770">
        <ele>727.8</ele>
        <time>2019-05-25T12:05:29Z</time>
      </trkpt>
      <trkpt lat="41.4889260" lon="-4.7703950">
        <ele>727.8</ele>
        <time>2019-05-25T12:05:31Z</time>
      </trkpt>
      <trkpt lat="41.4888850" lon="-4.7703990">
        <ele>727.8</ele>
        <time>2019-05-25T12:05:32Z</time>
      </trkpt>
      <trkpt lat="41.4887570" lon="-4.7703930">
        <ele>727.8</ele>
        <time>2019-05-25T12:05:35Z</time>
      </trkpt>
      <trkpt lat="41.4887150" lon="-4.7703930">
        <ele>727.8</ele>
        <time>2019-05-25T12:05:36Z</time>
      </trkpt>
      <trkpt lat="41.4885540" lon="-4.7704190">
        <ele>728.2</ele>
        <time>2019-05-25T12:05:40Z</time>
      </trkpt>
      <trkpt lat="41.4885150" lon="-4.7704330">
        <ele>728.2</ele>
        <time>2019-05-25T12:05:41Z</time>
      </trkpt>
      <trkpt lat="41.4883550" lon="-4.7704910">
        <ele>728.8</ele>
        <time>2019-05-25T12:05:45Z</time>
      </trkpt>
      <trkpt lat="41.4882710" lon="-4.7705140">
        <ele>729.0</ele>
        <time>2019-05-25T12:05:47Z</time>
      </trkpt>
      <trkpt lat="41.4881420" lon="-4.7705420">
        <ele>729.4</ele>
        <time>2019-05-25T12:05:50Z</time>
      </trkpt>
      <trkpt lat="41.4880120" lon="-4.7705690">
        <ele>729.6</ele>
        <time>2019-05-25T12:05:53Z</time>
      </trkpt>
      <trkpt lat="41.4878790" lon="-4.7705810">
        <ele>730.0</ele>
        <time>2019-05-25T12:05:56Z</time>
      </trkpt>
      <trkpt lat="41.4875270" lon="-4.7705650">
        <ele>731.2</ele>
        <time>2019-05-25T12:06:04Z</time>
      </trkpt>
      <trkpt lat="41.4872950" lon="-4.7705440">
        <ele>731.4</ele>
        <time>2019-05-25T12:06:09Z</time>
      </trkpt>
      <trkpt lat="41.4867580" lon="-4.7705050">
        <ele>732.0</ele>
        <time>2019-05-25T12:06:21Z</time>
      </trkpt>
      <trkpt lat="41.4867140" lon="-4.7705080">
        <ele>732.2</ele>
        <time>2019-05-25T12:06:22Z</time>
      </trkpt>
      <trkpt lat="41.4866710" lon="-4.7705080">
        <ele>732.2</ele>
        <time>2019-05-25T12:06:23Z</time>
      </trkpt>
      <trkpt lat="41.4865020" lon="-4.7705100">
        <ele>732.4</ele>
        <time>2019-05-25T12:06:27Z</time>
      </trkpt>
      <trkpt lat="41.4861880" lon="-4.7704860">
        <ele>733.2</ele>
        <time>2019-05-25T12:06:35Z</time>
      </trkpt>
      <trkpt lat="41.4860240" lon="-4.7705010">
        <ele>733.6</ele>
        <time>2019-05-25T12:06:39Z</time>
      </trkpt>
      <trkpt lat="41.4859430" lon="-4.7705170">
        <ele>734.0</ele>
        <time>2019-05-25T12:06:42Z</time>
      </trkpt>
      <trkpt lat="41.4857840" lon="-4.7705170">
        <ele>734.2</ele>
        <time>2019-05-25T12:06:45Z</time>
      </trkpt>
      <trkpt lat="41.4855100" lon="-4.7704920">
        <ele>734.4</ele>
        <time>2019-05-25T12:06:51Z</time>
      </trkpt>
      <trkpt lat="41.4849820" lon="-4.7704490">
        <ele>734.2</ele>
        <time>2019-05-25T12:07:02Z</time>
      </trkpt>
      <trkpt lat="41.4848680" lon="-4.7704330">
        <ele>734.2</ele>
        <time>2019-05-25T12:07:05Z</time>
      </trkpt>
      <trkpt lat="41.4847650" lon="-4.7704210">
        <ele>734.4</ele>
        <time>2019-05-25T12:07:08Z</time>
      </trkpt>
      <trkpt lat="41.4846540" lon="-4.7704080">
        <ele>734.4</ele>
        <time>2019-05-25T12:07:11Z</time>
      </trkpt>
      <trkpt lat="41.4843610" lon="-4.7703740">
        <ele>734.4</ele>
        <time>2019-05-25T12:07:19Z</time>
      </trkpt>
      <trkpt lat="41.4839300" lon="-4.7703880">
        <ele>734.0</ele>
        <time>2019-05-25T12:07:29Z</time>
      </trkpt>
      <trkpt lat="41.4838340" lon="-4.7703950">
        <ele>734.0</ele>
        <time>2019-05-25T12:07:31Z</time>
      </trkpt>
      <trkpt lat="41.4834540" lon="-4.7703670">
        <ele>734.0</ele>
        <time>2019-05-25T12:07:39Z</time>
      </trkpt>
      <trkpt lat="41.4831540" lon="-4.7703740">
        <ele>734.0</ele>
        <time>2019-05-25T12:07:45Z</time>
      </trkpt>
      <trkpt lat="41.4828460" lon="-4.7703590">
        <ele>733.8</ele>
        <time>2019-05-25T12:07:51Z</time>
      </trkpt>
      <trkpt lat="41.4822910" lon="-4.7703240">
        <ele>733.4</ele>
        <time>2019-05-25T12:08:02Z</time>
      </trkpt>
      <trkpt lat="41.4822400" lon="-4.7703220">
        <ele>733.4</ele>
        <time>2019-05-25T12:08:03Z</time>
      </trkpt>
      <trkpt lat="41.4820560" lon="-4.7703140">
        <ele>733.2</ele>
        <time>2019-05-25T12:08:07Z</time>
      </trkpt>
      <trkpt lat="41.4819740" lon="-4.7703210">
        <ele>733.2</ele>
        <time>2019-05-25T12:08:09Z</time>
      </trkpt>
      <trkpt lat="41.4818640" lon="-4.7703240">
        <ele>733.2</ele>
        <time>2019-05-25T12:08:12Z</time>
      </trkpt>
      <trkpt lat="41.4817200" lon="-4.7703320">
        <ele>733.2</ele>
        <time>2019-05-25T12:08:16Z</time>
      </trkpt>
      <trkpt lat="41.4816390" lon="-4.7703370">
        <ele>733.4</ele>
        <time>2019-05-25T12:08:18Z</time>
      </trkpt>
      <trkpt lat="41.4815070" lon="-4.7703440">
        <ele>733.4</ele>
        <time>2019-05-25T12:08:21Z</time>
      </trkpt>
      <trkpt lat="41.4813570" lon="-4.7705530">
        <ele>733.2</ele>
        <time>2019-05-25T12:08:28Z</time>
      </trkpt>
      <trkpt lat="41.4813030" lon="-4.7707070">
        <ele>733.0</ele>
        <time>2019-05-25T12:08:32Z</time>
      </trkpt>
      <trkpt lat="41.4811810" lon="-4.7707280">
        <ele>733.0</ele>
        <time>2019-05-25T12:08:35Z</time>
      </trkpt>
      <trkpt lat="41.4809210" lon="-4.7707180">
        <ele>732.8</ele>
        <time>2019-05-25T12:08:40Z</time>
      </trkpt>
      <trkpt lat="41.4805420" lon="-4.7707100">
        <ele>733.0</ele>
        <time>2019-05-25T12:08:47Z</time>
      </trkpt>
      <trkpt lat="41.4804230" lon="-4.7707050">
        <ele>733.0</ele>
        <time>2019-05-25T12:08:49Z</time>
      </trkpt>
      <trkpt lat="41.4801370" lon="-4.7707260">
        <ele>733.2</ele>
        <time>2019-05-25T12:08:54Z</time>
      </trkpt>
      <trkpt lat="41.4799160" lon="-4.7707660">
        <ele>733.4</ele>
        <time>2019-05-25T12:08:58Z</time>
      </trkpt>
      <trkpt lat="41.4795700" lon="-4.7708350">
        <ele>733.6</ele>
        <time>2019-05-25T12:09:04Z</time>
      </trkpt>
      <trkpt lat="41.4793980" lon="-4.7708710">
        <ele>733.8</ele>
        <time>2019-05-25T12:09:07Z</time>
      </trkpt>
      <trkpt lat="41.4791670" lon="-4.7709320">
        <ele>734.2</ele>
        <time>2019-05-25T12:09:11Z</time>
      </trkpt>
      <trkpt lat="41.4790520" lon="-4.7709530">
        <ele>734.4</ele>
        <time>2019-05-25T12:09:13Z</time>
      </trkpt>
      <trkpt lat="41.4785760" lon="-4.7710260">
        <ele>735.2</ele>
        <time>2019-05-25T12:09:21Z</time>
      </trkpt>
      <trkpt lat="41.4783950" lon="-4.7710490">
        <ele>735.4</ele>
        <time>2019-05-25T12:09:24Z</time>
      </trkpt>
      <trkpt lat="41.4783330" lon="-4.7710590">
        <ele>735.4</ele>
        <time>2019-05-25T12:09:25Z</time>
      </trkpt>
      <trkpt lat="41.4777460" lon="-4.7711290">
        <ele>735.4</ele>
        <time>2019-05-25T12:09:34Z</time>
      </trkpt>
      <trkpt lat="41.4776800" lon="-4.7711370">
        <ele>735.4</ele>
        <time>2019-05-25T12:09:35Z</time>
      </trkpt>
      <trkpt lat="41.4776140" lon="-4.7711450">
        <ele>735.4</ele>
        <time>2019-05-25T12:09:36Z</time>
      </trkpt>
      <trkpt lat="41.4770320" lon="-4.7711640">
        <ele>735.4</ele>
        <time>2019-05-25T12:09:45Z</time>
      </trkpt>
      <trkpt lat="41.4769680" lon="-4.7711600">
        <ele>735.4</ele>
        <time>2019-05-25T12:09:46Z</time>
      </trkpt>
      <trkpt lat="41.4769050" lon="-4.7711530">
        <ele>735.4</ele>
        <time>2019-05-25T12:09:47Z</time>
      </trkpt>
      <trkpt lat="41.4764500" lon="-4.7710650">
        <ele>735.8</ele>
        <time>2019-05-25T12:09:55Z</time>
      </trkpt>
      <trkpt lat="41.4764190" lon="-4.7708060">
        <ele>736.2</ele>
        <time>2019-05-25T12:10:01Z</time>
      </trkpt>
      <trkpt lat="41.4764260" lon="-4.7706780">
        <ele>736.4</ele>
        <time>2019-05-25T12:10:03Z</time>
      </trkpt>
      <trkpt lat="41.4765010" lon="-4.7702720">
        <ele>736.6</ele>
        <time>2019-05-25T12:10:11Z</time>
      </trkpt>
      <trkpt lat="41.4765150" lon="-4.7702560">
        <ele>736.8</ele>
        <time>2019-05-25T12:10:12Z</time>
      </trkpt>
      <trkpt lat="41.4765220" lon="-4.7702350">
        <ele>736.8</ele>
        <time>2019-05-25T12:10:13Z</time>
      </trkpt>
      <trkpt lat="41.4765260" lon="-4.7701790">
        <ele>737.2</ele>
        <time>2019-05-25T12:10:15Z</time>
      </trkpt>
      <trkpt lat="41.4765350" lon="-4.7701420">
        <ele>737.4</ele>
        <time>2019-05-25T12:10:16Z</time>
      </trkpt>
      <trkpt lat="41.4766630" lon="-4.7699940">
        <ele>738.4</ele>
        <time>2019-05-25T12:10:21Z</time>
      </trkpt>
      <trkpt lat="41.4766880" lon="-4.7699650">
        <ele>738.6</ele>
        <time>2019-05-25T12:10:22Z</time>
      </trkpt>
      <trkpt lat="41.4767540" lon="-4.7698530">
        <ele>738.6</ele>
        <time>2019-05-25T12:10:25Z</time>
      </trkpt>
      <trkpt lat="41.4768050" lon="-4.7697640">
        <ele>738.6</ele>
        <time>2019-05-25T12:10:27Z</time>
      </trkpt>
      <trkpt lat="41.4768430" lon="-4.7696960">
        <ele>738.6</ele>
        <time>2019-05-25T12:10:29Z</time>
      </trkpt>
      <trkpt lat="41.4768450" lon="-4.7696500">
        <ele>737.8</ele>
        <time>2019-05-25T12:10:31Z</time>
      </trkpt>
      <trkpt lat="41.4767950" lon="-4.7696200">
        <ele>737.2</ele>
        <time>2019-05-25T12:10:33Z</time>
      </trkpt>
      <trkpt lat="41.4767180" lon="-4.7695970">
        <ele>736.6</ele>
        <time>2019-05-25T12:10:35Z</time>
      </trkpt>
      <trkpt lat="41.4766280" lon="-4.7695650">
        <ele>736.6</ele>
        <time>2019-05-25T12:10:37Z</time>
      </trkpt>
      <trkpt lat="41.4764170" lon="-4.7695540">
        <ele>736.4</ele>
        <time>2019-05-25T12:10:41Z</time>
      </trkpt>
      <trkpt lat="41.4763600" lon="-4.7695420">
        <ele>736.4</ele>
        <time>2019-05-25T12:10:42Z</time>
      </trkpt>
      <trkpt lat="41.4761990" lon="-4.7694980">
        <ele>736.2</ele>
        <time>2019-05-25T12:10:45Z</time>
      </trkpt>
      <trkpt lat="41.4760440" lon="-4.7694620">
        <ele>736.0</ele>
        <time>2019-05-25T12:10:48Z</time>
      </trkpt>
      <trkpt lat="41.4758550" lon="-4.7694120">
        <ele>736.0</ele>
        <time>2019-05-25T12:10:52Z</time>
      </trkpt>
      <trkpt lat="41.4757180" lon="-4.7694520">
        <ele>736.0</ele>
        <time>2019-05-25T12:10:56Z</time>
      </trkpt>
      <trkpt lat="41.4756200" lon="-4.7697050">
        <ele>736.0</ele>
        <time>2019-05-25T12:11:01Z</time>
      </trkpt>
      <trkpt lat="41.4755440" lon="-4.7699470">
        <ele>736.4</ele>
        <time>2019-05-25T12:11:05Z</time>
      </trkpt>
      <trkpt lat="41.4754320" lon="-4.7700140">
        <ele>736.8</ele>
        <time>2019-05-25T12:11:08Z</time>
      </trkpt>
      <trkpt lat="41.4753840" lon="-4.7700070">
        <ele>736.8</ele>
        <time>2019-05-25T12:11:09Z</time>
      </trkpt>
      <trkpt lat="41.4752260" lon="-4.7699520">
        <ele>737.0</ele>
        <time>2019-05-25T12:11:12Z</time>
      </trkpt>
      <trkpt lat="41.4751710" lon="-4.7699380">
        <ele>737.0</ele>
        <time>2019-05-25T12:11:13Z</time>
      </trkpt>
      <trkpt lat="41.4745820" lon="-4.7699440">
        <ele>737.4</ele>
        <time>2019-05-25T12:11:23Z</time>
      </trkpt>
      <trkpt lat="41.4743690" lon="-4.7699210">
        <ele>737.6</ele>
        <time>2019-05-25T12:11:27Z</time>
      </trkpt>
      <trkpt lat="41.4740520" lon="-4.7699620">
        <ele>737.6</ele>
        <time>2019-05-25T12:11:33Z</time>
      </trkpt>
      <trkpt lat="41.4738810" lon="-4.7700250">
        <ele>737.6</ele>
        <time>2019-05-25T12:11:36Z</time>
      </trkpt>
      <trkpt lat="41.4737560" lon="-4.7700610">
        <ele>737.6</ele>
        <time>2019-05-25T12:11:38Z</time>
      </trkpt>
      <trkpt lat="41.4735300" lon="-4.7699770">
        <ele>737.6</ele>
        <time>2019-05-25T12:11:42Z</time>
      </trkpt>
      <trkpt lat="41.4731800" lon="-4.7696610">
        <ele>736.2</ele>
        <time>2019-05-25T12:11:49Z</time>
      </trkpt>
      <trkpt lat="41.4730380" lon="-4.7695510">
        <ele>736.2</ele>
        <time>2019-05-25T12:11:52Z</time>
      </trkpt>
      <trkpt lat="41.4725580" lon="-4.7693130">
        <ele>737.4</ele>
        <time>2019-05-25T12:12:02Z</time>
      </trkpt>
      <trkpt lat="41.4722870" lon="-4.7692700">
        <ele>737.6</ele>
        <time>2019-05-25T12:12:07Z</time>
      </trkpt>
      <trkpt lat="41.4721180" lon="-4.7692440">
        <ele>738.0</ele>
        <time>2019-05-25T12:12:10Z</time>
      </trkpt>
      <trkpt lat="41.4718510" lon="-4.7691760">
        <ele>738.0</ele>
        <time>2019-05-25T12:12:15Z</time>
      </trkpt>
      <trkpt lat="41.4715180" lon="-4.7690260">
        <ele>738.2</ele>
        <time>2019-05-25T12:12:22Z</time>
      </trkpt>
      <trkpt lat="41.4714260" lon="-4.7689770">
        <ele>738.2</ele>
        <time>2019-05-25T12:12:24Z</time>
      </trkpt>
      <trkpt lat="41.4713350" lon="-4.7689250">
        <ele>738.2</ele>
        <time>2019-05-25T12:12:26Z</time>
      </trkpt>
      <trkpt lat="41.4710430" lon="-4.7687690">
        <ele>738.4</ele>
        <time>2019-05-25T12:12:33Z</time>
      </trkpt>
      <trkpt lat="41.4709640" lon="-4.7687280">
        <ele>738.4</ele>
        <time>2019-05-25T12:12:35Z</time>
      </trkpt>
      <trkpt lat="41.4709270" lon="-4.7687130">
        <ele>738.4</ele>
        <time>2019-05-25T12:12:36Z</time>
      </trkpt>
      <trkpt lat="41.4708750" lon="-4.7686910">
        <ele>738.4</ele>
        <time>2019-05-25T12:12:38Z</time>
      </trkpt>
      <trkpt lat="41.4708750" lon="-4.7686800">
        <ele>738.6</ele>
        <time>2019-05-25T12:14:01Z</time>
      </trkpt>
      <trkpt lat="41.4708280" lon="-4.7686530">
        <ele>738.6</ele>
        <time>2019-05-25T12:14:03Z</time>
      </trkpt>
      <trkpt lat="41.4707520" lon="-4.7686150">
        <ele>738.4</ele>
        <time>2019-05-25T12:14:05Z</time>
      </trkpt>
      <trkpt lat="41.4702860" lon="-4.7683870">
        <ele>738.4</ele>
        <time>2019-05-25T12:14:15Z</time>
      </trkpt>
      <trkpt lat="41.4701890" lon="-4.7683420">
        <ele>738.4</ele>
        <time>2019-05-25T12:14:17Z</time>
      </trkpt>
      <trkpt lat="41.4700390" lon="-4.7682770">
        <ele>738.4</ele>
        <time>2019-05-25T12:14:20Z</time>
      </trkpt>
      <trkpt lat="41.4698360" lon="-4.7682070">
        <ele>738.4</ele>
        <time>2019-05-25T12:14:24Z</time>
      </trkpt>
      <trkpt lat="41.4692520" lon="-4.7680260">
        <ele>738.6</ele>
        <time>2019-05-25T12:14:36Z</time>
      </trkpt>
      <trkpt lat="41.4692520" lon="-4.7680260">
        <ele>738.6</ele>
        <time>2019-05-25T12:14:37Z</time>
      </trkpt>
      <trkpt lat="41.4686460" lon="-4.7678250">
        <ele>738.4</ele>
        <time>2019-05-25T12:14:47Z</time>
      </trkpt>
      <trkpt lat="41.4685910" lon="-4.7678060">
        <ele>738.4</ele>
        <time>2019-05-25T12:14:49Z</time>
      </trkpt>
      <trkpt lat="41.4679960" lon="-4.7675430">
        <ele>738.0</ele>
        <time>2019-05-25T12:14:59Z</time>
      </trkpt>
      <trkpt lat="41.4677800" lon="-4.7674110">
        <ele>738.0</ele>
        <time>2019-05-25T12:15:03Z</time>
      </trkpt>
      <trkpt lat="41.4675630" lon="-4.7672820">
        <ele>738.0</ele>
        <time>2019-05-25T12:15:07Z</time>
      </trkpt>
      <trkpt lat="41.4673350" lon="-4.7671560">
        <ele>738.2</ele>
        <time>2019-05-25T12:15:11Z</time>
      </trkpt>
      <trkpt lat="41.4671070" lon="-4.7670210">
        <ele>738.2</ele>
        <time>2019-05-25T12:15:15Z</time>
      </trkpt>
      <trkpt lat="41.4668720" lon="-4.7668760">
        <ele>738.4</ele>
        <time>2019-05-25T12:15:20Z</time>
      </trkpt>
      <trkpt lat="41.4665180" lon="-4.7666660">
        <ele>738.4</ele>
        <time>2019-05-25T12:15:25Z</time>
      </trkpt>
      <trkpt lat="41.4664030" lon="-4.7665950">
        <ele>738.4</ele>
        <time>2019-05-25T12:15:28Z</time>
      </trkpt>
      <trkpt lat="41.4658140" lon="-4.7662570">
        <ele>738.6</ele>
        <time>2019-05-25T12:15:37Z</time>
      </trkpt>
      <trkpt lat="41.4656310" lon="-4.7661480">
        <ele>738.6</ele>
        <time>2019-05-25T12:15:40Z</time>
      </trkpt>
      <trkpt lat="41.4655680" lon="-4.7661090">
        <ele>738.6</ele>
        <time>2019-05-25T12:15:41Z</time>
      </trkpt>
      <trkpt lat="41.4655060" lon="-4.7660680">
        <ele>738.6</ele>
        <time>2019-05-25T12:15:42Z</time>
      </trkpt>
      <trkpt lat="41.4653840" lon="-4.7659790">
        <ele>738.8</ele>
        <time>2019-05-25T12:15:44Z</time>
      </trkpt>
      <trkpt lat="41.4649470" lon="-4.7655720">
        <ele>739.2</ele>
        <time>2019-05-25T12:15:52Z</time>
      </trkpt>
      <trkpt lat="41.4650210" lon="-4.7647410">
        <ele>738.8</ele>
        <time>2019-05-25T12:16:01Z</time>
      </trkpt>
      <trkpt lat="41.4650760" lon="-4.7643250">
        <ele>738.4</ele>
        <time>2019-05-25T12:16:06Z</time>
      </trkpt>
      <trkpt lat="41.4650740" lon="-4.7642350">
        <ele>738.4</ele>
        <time>2019-05-25T12:16:07Z</time>
      </trkpt>
      <trkpt lat="41.4650740" lon="-4.7640460">
        <ele>738.2</ele>
        <time>2019-05-25T12:16:09Z</time>
      </trkpt>
      <trkpt lat="41.4650810" lon="-4.7639440">
        <ele>738.2</ele>
        <time>2019-05-25T12:16:10Z</time>
      </trkpt>
      <trkpt lat="41.4650810" lon="-4.7637450">
        <ele>737.8</ele>
        <time>2019-05-25T12:16:12Z</time>
      </trkpt>
      <trkpt lat="41.4650610" lon="-4.7636540">
        <ele>737.6</ele>
        <time>2019-05-25T12:16:13Z</time>
      </trkpt>
      <trkpt lat="41.4650270" lon="-4.7635730">
        <ele>737.0</ele>
        <time>2019-05-25T12:16:14Z</time>
      </trkpt>
      <trkpt lat="41.4649810" lon="-4.7635040">
        <ele>736.0</ele>
        <time>2019-05-25T12:16:15Z</time>
      </trkpt>
      <trkpt lat="41.4649280" lon="-4.7634420">
        <ele>734.6</ele>
        <time>2019-05-25T12:16:16Z</time>
      </trkpt>
      <trkpt lat="41.4648680" lon="-4.7633820">
        <ele>733.4</ele>
        <time>2019-05-25T12:16:17Z</time>
      </trkpt>
      <trkpt lat="41.4648040" lon="-4.7633360">
        <ele>732.4</ele>
        <time>2019-05-25T12:16:18Z</time>
      </trkpt>
      <trkpt lat="41.4647380" lon="-4.7633000">
        <ele>731.0</ele>
        <time>2019-05-25T12:16:19Z</time>
      </trkpt>
      <trkpt lat="41.4646710" lon="-4.7632680">
        <ele>729.8</ele>
        <time>2019-05-25T12:16:20Z</time>
      </trkpt>
      <trkpt lat="41.4646070" lon="-4.7632390">
        <ele>728.8</ele>
        <time>2019-05-25T12:16:21Z</time>
      </trkpt>
      <trkpt lat="41.4645450" lon="-4.7632040">
        <ele>728.4</ele>
        <time>2019-05-25T12:16:22Z</time>
      </trkpt>
      <trkpt lat="41.4644070" lon="-4.7630950">
        <ele>728.0</ele>
        <time>2019-05-25T12:16:25Z</time>
      </trkpt>
      <trkpt lat="41.4642120" lon="-4.7630160">
        <ele>728.0</ele>
        <time>2019-05-25T12:16:31Z</time>
      </trkpt>
      <trkpt lat="41.4639750" lon="-4.7629800">
        <ele>728.0</ele>
        <time>2019-05-25T12:16:37Z</time>
      </trkpt>
      <trkpt lat="41.4637470" lon="-4.7629470">
        <ele>728.0</ele>
        <time>2019-05-25T12:16:43Z</time>
      </trkpt>
      <trkpt lat="41.4632740" lon="-4.7631370">
        <ele>728.2</ele>
        <time>2019-05-25T12:16:55Z</time>
      </trkpt>
      <trkpt lat="41.4630530" lon="-4.7631950">
        <ele>728.4</ele>
        <time>2019-05-25T12:17:01Z</time>
      </trkpt>
      <trkpt lat="41.4630300" lon="-4.7632040">
        <ele>728.4</ele>
        <time>2019-05-25T12:17:02Z</time>
      </trkpt>
      <trkpt lat="41.4629350" lon="-4.7632380">
        <ele>728.4</ele>
        <time>2019-05-25T12:17:06Z</time>
      </trkpt>
      <trkpt lat="41.4629270" lon="-4.7632330">
        <ele>728.6</ele>
        <time>2019-05-25T12:17:54Z</time>
      </trkpt>
      <trkpt lat="41.4629300" lon="-4.7632280">
        <ele>728.6</ele>
        <time>2019-05-25T12:17:55Z</time>
      </trkpt>
      <trkpt lat="41.4629350" lon="-4.7632220">
        <ele>728.8</ele>
        <time>2019-05-25T12:17:56Z</time>
      </trkpt>
      <trkpt lat="41.4629410" lon="-4.7632160">
        <ele>728.8</ele>
        <time>2019-05-25T12:17:57Z</time>
      </trkpt>
      <trkpt lat="41.4629640" lon="-4.7632030">
        <ele>728.8</ele>
        <time>2019-05-25T12:18:00Z</time>
      </trkpt>
      <trkpt lat="41.4629740" lon="-4.7632040">
        <ele>728.8</ele>
        <time>2019-05-25T12:18:01Z</time>
      </trkpt>
      <trkpt lat="41.4629870" lon="-4.7632110">
        <ele>728.8</ele>
        <time>2019-05-25T12:18:03Z</time>
      </trkpt>
      <trkpt lat="41.4629900" lon="-4.7632120">
        <ele>728.8</ele>
        <time>2019-05-25T12:18:05Z</time>
      </trkpt>
      <trkpt lat="41.4629900" lon="-4.7632110">
        <ele>728.8</ele>
        <time>2019-05-25T12:18:06Z</time>
      </trkpt>
      <trkpt lat="41.4629900" lon="-4.7632110">
        <ele>728.8</ele>
        <time>2019-05-25T12:18:07Z</time>
      </trkpt>
      <trkpt lat="41.4629880" lon="-4.7632430">
        <ele>728.8</ele>
        <time>2019-05-25T12:18:09Z</time>
      </trkpt>
      <trkpt lat="41.4629800" lon="-4.7632680">
        <ele>728.8</ele>
        <time>2019-05-25T12:18:13Z</time>
      </trkpt>
      <trkpt lat="41.4629270" lon="-4.7634300">
        <ele>735.4</ele>
        <time>2019-05-25T12:19:06Z</time>
      </trkpt>
      <trkpt lat="41.4629240" lon="-4.7634520">
        <ele>736.0</ele>
        <time>2019-05-25T12:19:09Z</time>
      </trkpt>
      <trkpt lat="41.4629240" lon="-4.7634520">
        <ele>736.2</ele>
        <time>2019-05-25T12:19:10Z</time>
      </trkpt>
      <trkpt lat="41.4629010" lon="-4.7635470">
        <ele>741.6</ele>
        <time>2019-05-25T12:19:32Z</time>
      </trkpt>
      <trkpt lat="41.4629280" lon="-4.7635390">
        <ele>741.8</ele>
        <time>2019-05-25T12:19:35Z</time>
      </trkpt>
      <trkpt lat="41.4630040" lon="-4.7635300">
        <ele>742.0</ele>
        <time>2019-05-25T12:19:40Z</time>
      </trkpt>
      <trkpt lat="41.4630650" lon="-4.7635320">
        <ele>742.0</ele>
        <time>2019-05-25T12:19:42Z</time>
      </trkpt>
      <trkpt lat="41.4633170" lon="-4.7635210">
        <ele>741.8</ele>
        <time>2019-05-25T12:19:48Z</time>
      </trkpt>
      <trkpt lat="41.4635220" lon="-4.7635850">
        <ele>741.6</ele>
        <time>2019-05-25T12:19:52Z</time>
      </trkpt>
      <trkpt lat="41.4636140" lon="-4.7636060">
        <ele>741.2</ele>
        <time>2019-05-25T12:19:54Z</time>
      </trkpt>
      <trkpt lat="41.4637690" lon="-4.7635940">
        <ele>740.4</ele>
        <time>2019-05-25T12:19:58Z</time>
      </trkpt>
      <trkpt lat="41.4638060" lon="-4.7635770">
        <ele>740.0</ele>
        <time>2019-05-25T12:19:59Z</time>
      </trkpt>
      <trkpt lat="41.4638770" lon="-4.7635390">
        <ele>739.6</ele>
        <time>2019-05-25T12:20:01Z</time>
      </trkpt>
      <trkpt lat="41.4639140" lon="-4.7635250">
        <ele>739.4</ele>
        <time>2019-05-25T12:20:02Z</time>
      </trkpt>
      <trkpt lat="41.4640310" lon="-4.7635050">
        <ele>739.2</ele>
        <time>2019-05-25T12:20:05Z</time>
      </trkpt>
      <trkpt lat="41.4641160" lon="-4.7635180">
        <ele>739.0</ele>
        <time>2019-05-25T12:20:07Z</time>
      </trkpt>
      <trkpt lat="41.4642490" lon="-4.7635680">
        <ele>738.6</ele>
        <time>2019-05-25T12:20:10Z</time>
      </trkpt>
      <trkpt lat="41.4642960" lon="-4.7635930">
        <ele>738.6</ele>
        <time>2019-05-25T12:20:11Z</time>
      </trkpt>
      <trkpt lat="41.4646180" lon="-4.7637740">
        <ele>738.4</ele>
        <time>2019-05-25T12:20:18Z</time>
      </trkpt>
      <trkpt lat="41.4646590" lon="-4.7638060">
        <ele>738.4</ele>
        <time>2019-05-25T12:20:19Z</time>
      </trkpt>
      <trkpt lat="41.4648100" lon="-4.7639470">
        <ele>738.4</ele>
        <time>2019-05-25T12:20:23Z</time>
      </trkpt>
      <trkpt lat="41.4648650" lon="-4.7640470">
        <ele>738.4</ele>
        <time>2019-05-25T12:20:25Z</time>
      </trkpt>
      <trkpt lat="41.4649060" lon="-4.7641590">
        <ele>738.6</ele>
        <time>2019-05-25T12:20:27Z</time>
      </trkpt>
      <trkpt lat="41.4649440" lon="-4.7642810">
        <ele>738.8</ele>
        <time>2019-05-25T12:20:29Z</time>
      </trkpt>
      <trkpt lat="41.4649950" lon="-4.7643900">
        <ele>739.0</ele>
        <time>2019-05-25T12:20:31Z</time>
      </trkpt>
      <trkpt lat="41.4650820" lon="-4.7645300">
        <ele>739.4</ele>
        <time>2019-05-25T12:20:34Z</time>
      </trkpt>
      <trkpt lat="41.4651070" lon="-4.7645750">
        <ele>739.6</ele>
        <time>2019-05-25T12:20:35Z</time>
      </trkpt>
      <trkpt lat="41.4651380" lon="-4.7646760">
        <ele>739.8</ele>
        <time>2019-05-25T12:20:37Z</time>
      </trkpt>
      <trkpt lat="41.4651200" lon="-4.7648980">
        <ele>739.8</ele>
        <time>2019-05-25T12:20:41Z</time>
      </trkpt>
      <trkpt lat="41.4651050" lon="-4.7650070">
        <ele>739.8</ele>
        <time>2019-05-25T12:20:43Z</time>
      </trkpt>
      <trkpt lat="41.4650560" lon="-4.7652390">
        <ele>739.6</ele>
        <time>2019-05-25T12:20:47Z</time>
      </trkpt>
      <trkpt lat="41.4650150" lon="-4.7655200">
        <ele>739.6</ele>
        <time>2019-05-25T12:20:52Z</time>
      </trkpt>
      <trkpt lat="41.4650260" lon="-4.7656340">
        <ele>739.6</ele>
        <time>2019-05-25T12:20:54Z</time>
      </trkpt>
      <trkpt lat="41.4651270" lon="-4.7658180">
        <ele>739.6</ele>
        <time>2019-05-25T12:20:58Z</time>
      </trkpt>
      <trkpt lat="41.4651670" lon="-4.7658530">
        <ele>739.6</ele>
        <time>2019-05-25T12:20:59Z</time>
      </trkpt>
      <trkpt lat="41.4654670" lon="-4.7660620">
        <ele>740.0</ele>
        <time>2019-05-25T12:21:06Z</time>
      </trkpt>
      <trkpt lat="41.4657800" lon="-4.7662690">
        <ele>740.0</ele>
        <time>2019-05-25T12:21:14Z</time>
      </trkpt>
      <trkpt lat="41.4659930" lon="-4.7664100">
        <ele>739.8</ele>
        <time>2019-05-25T12:21:20Z</time>
      </trkpt>
      <trkpt lat="41.4660540" lon="-4.7664450">
        <ele>739.8</ele>
        <time>2019-05-25T12:21:22Z</time>
      </trkpt>
      <trkpt lat="41.4663460" lon="-4.7665800">
        <ele>739.4</ele>
        <time>2019-05-25T12:21:30Z</time>
      </trkpt>
      <trkpt lat="41.4667370" lon="-4.7667940">
        <ele>739.6</ele>
        <time>2019-05-25T12:21:39Z</time>
      </trkpt>
      <trkpt lat="41.4667850" lon="-4.7668180">
        <ele>739.6</ele>
        <time>2019-05-25T12:21:40Z</time>
      </trkpt>
      <trkpt lat="41.4669250" lon="-4.7668890">
        <ele>739.8</ele>
        <time>2019-05-25T12:21:43Z</time>
      </trkpt>
      <trkpt lat="41.4673020" lon="-4.7671130">
        <ele>739.8</ele>
        <time>2019-05-25T12:21:51Z</time>
      </trkpt>
      <trkpt lat="41.4674980" lon="-4.7672210">
        <ele>739.8</ele>
        <time>2019-05-25T12:21:55Z</time>
      </trkpt>
      <trkpt lat="41.4677990" lon="-4.7673840">
        <ele>739.6</ele>
        <time>2019-05-25T12:22:01Z</time>
      </trkpt>
      <trkpt lat="41.4683510" lon="-4.7676940">
        <ele>739.4</ele>
        <time>2019-05-25T12:22:12Z</time>
      </trkpt>
      <trkpt lat="41.4685540" lon="-4.7677850">
        <ele>739.2</ele>
        <time>2019-05-25T12:22:16Z</time>
      </trkpt>
      <trkpt lat="41.4691120" lon="-4.7679740">
        <ele>739.2</ele>
        <time>2019-05-25T12:22:27Z</time>
      </trkpt>
      <trkpt lat="41.4692130" lon="-4.7680090">
        <ele>739.4</ele>
        <time>2019-05-25T12:22:29Z</time>
      </trkpt>
      <trkpt lat="41.4697340" lon="-4.7681890">
        <ele>740.2</ele>
        <time>2019-05-25T12:22:39Z</time>
      </trkpt>
      <trkpt lat="41.4701620" lon="-4.7682980">
        <ele>740.0</ele>
        <time>2019-05-25T12:22:47Z</time>
      </trkpt>
      <trkpt lat="41.4703660" lon="-4.7683840">
        <ele>739.6</ele>
        <time>2019-05-25T12:22:51Z</time>
      </trkpt>
      <trkpt lat="41.4707600" lon="-4.7685840">
        <ele>738.6</ele>
        <time>2019-05-25T12:22:59Z</time>
      </trkpt>
      <trkpt lat="41.4708600" lon="-4.7686340">
        <ele>738.4</ele>
        <time>2019-05-25T12:23:01Z</time>
      </trkpt>
      <trkpt lat="41.4711630" lon="-4.7687890">
        <ele>738.4</ele>
        <time>2019-05-25T12:23:07Z</time>
      </trkpt>
      <trkpt lat="41.4715680" lon="-4.7689980">
        <ele>738.4</ele>
        <time>2019-05-25T12:23:15Z</time>
      </trkpt>
      <trkpt lat="41.4718610" lon="-4.7691350">
        <ele>738.4</ele>
        <time>2019-05-25T12:23:21Z</time>
      </trkpt>
      <trkpt lat="41.4721060" lon="-4.7692770">
        <ele>738.6</ele>
        <time>2019-05-25T12:23:27Z</time>
      </trkpt>
      <trkpt lat="41.4721350" lon="-4.7693170">
        <ele>738.6</ele>
        <time>2019-05-25T12:23:28Z</time>
      </trkpt>
      <trkpt lat="41.4722000" lon="-4.7695510">
        <ele>738.6</ele>
        <time>2019-05-25T12:23:32Z</time>
      </trkpt>
      <trkpt lat="41.4721740" lon="-4.7698940">
        <ele>739.0</ele>
        <time>2019-05-25T12:23:37Z</time>
      </trkpt>
      <trkpt lat="41.4721410" lon="-4.7700230">
        <ele>739.2</ele>
        <time>2019-05-25T12:23:39Z</time>
      </trkpt>
      <trkpt lat="41.4720640" lon="-4.7702710">
        <ele>739.2</ele>
        <time>2019-05-25T12:23:43Z</time>
      </trkpt>
      <trkpt lat="41.4720480" lon="-4.7703320">
        <ele>739.2</ele>
        <time>2019-05-25T12:23:44Z</time>
      </trkpt>
      <trkpt lat="41.4720240" lon="-4.7704530">
        <ele>739.2</ele>
        <time>2019-05-25T12:23:46Z</time>
      </trkpt>
      <trkpt lat="41.4720170" lon="-4.7705100">
        <ele>739.2</ele>
        <time>2019-05-25T12:23:48Z</time>
      </trkpt>
      <trkpt lat="41.4719880" lon="-4.7706000">
        <ele>739.2</ele>
        <time>2019-05-25T12:23:49Z</time>
      </trkpt>
      <trkpt lat="41.4718680" lon="-4.7706400">
        <ele>739.0</ele>
        <time>2019-05-25T12:23:52Z</time>
      </trkpt>
      <trkpt lat="41.4717530" lon="-4.7706290">
        <ele>738.8</ele>
        <time>2019-05-25T12:23:54Z</time>
      </trkpt>
      <trkpt lat="41.4715480" lon="-4.7705980">
        <ele>738.6</ele>
        <time>2019-05-25T12:23:57Z</time>
      </trkpt>
      <trkpt lat="41.4712470" lon="-4.7705480">
        <ele>738.0</ele>
        <time>2019-05-25T12:24:01Z</time>
      </trkpt>
      <trkpt lat="41.4709480" lon="-4.7705050">
        <ele>738.0</ele>
        <time>2019-05-25T12:24:05Z</time>
      </trkpt>
      <trkpt lat="41.4708760" lon="-4.7704910">
        <ele>738.0</ele>
        <time>2019-05-25T12:24:06Z</time>
      </trkpt>
      <trkpt lat="41.4704450" lon="-4.7704180">
        <ele>738.0</ele>
        <time>2019-05-25T12:24:12Z</time>
      </trkpt>
      <trkpt lat="41.4698870" lon="-4.7703400">
        <ele>738.2</ele>
        <time>2019-05-25T12:24:20Z</time>
      </trkpt>
      <trkpt lat="41.4698190" lon="-4.7703340">
        <ele>738.2</ele>
        <time>2019-05-25T12:24:21Z</time>
      </trkpt>
      <trkpt lat="41.4693460" lon="-4.7702820">
        <ele>738.6</ele>
        <time>2019-05-25T12:24:28Z</time>
      </trkpt>
      <trkpt lat="41.4691430" lon="-4.7702480">
        <ele>738.8</ele>
        <time>2019-05-25T12:24:31Z</time>
      </trkpt>
      <trkpt lat="41.4688700" lon="-4.7702060">
        <ele>739.0</ele>
        <time>2019-05-25T12:24:35Z</time>
      </trkpt>
      <trkpt lat="41.4683910" lon="-4.7701180">
        <ele>739.6</ele>
        <time>2019-05-25T12:24:42Z</time>
      </trkpt>
      <trkpt lat="41.4681190" lon="-4.7700710">
        <ele>739.8</ele>
        <time>2019-05-25T12:24:46Z</time>
      </trkpt>
      <trkpt lat="41.4675780" lon="-4.7699990">
        <ele>740.0</ele>
        <time>2019-05-25T12:24:54Z</time>
      </trkpt>
      <trkpt lat="41.4673010" lon="-4.7699730">
        <ele>740.0</ele>
        <time>2019-05-25T12:24:58Z</time>
      </trkpt>
      <trkpt lat="41.4667490" lon="-4.7699180">
        <ele>740.2</ele>
        <time>2019-05-25T12:25:06Z</time>
      </trkpt>
      <trkpt lat="41.4662030" lon="-4.7698550">
        <ele>740.4</ele>
        <time>2019-05-25T12:25:14Z</time>
      </trkpt>
      <trkpt lat="41.4660680" lon="-4.7698280">
        <ele>740.4</ele>
        <time>2019-05-25T12:25:16Z</time>
      </trkpt>
      <trkpt lat="41.4656980" lon="-4.7696410">
        <ele>740.2</ele>
        <time>2019-05-25T12:25:22Z</time>
      </trkpt>
      <trkpt lat="41.4654020" lon="-4.7693830">
        <ele>740.0</ele>
        <time>2019-05-25T12:25:28Z</time>
      </trkpt>
      <trkpt lat="41.4649400" lon="-4.7690230">
        <ele>740.0</ele>
        <time>2019-05-25T12:25:37Z</time>
      </trkpt>
      <trkpt lat="41.4644040" lon="-4.7688000">
        <ele>740.2</ele>
        <time>2019-05-25T12:25:46Z</time>
      </trkpt>
      <trkpt lat="41.4643440" lon="-4.7687720">
        <ele>740.2</ele>
        <time>2019-05-25T12:25:47Z</time>
      </trkpt>
      <trkpt lat="41.4638600" lon="-4.7684940">
        <ele>740.4</ele>
        <time>2019-05-25T12:25:55Z</time>
      </trkpt>
      <trkpt lat="41.4637340" lon="-4.7684180">
        <ele>740.4</ele>
        <time>2019-05-25T12:25:57Z</time>
      </trkpt>
      <trkpt lat="41.4631620" lon="-4.7681440">
        <ele>740.6</ele>
        <time>2019-05-25T12:26:06Z</time>
      </trkpt>
      <trkpt lat="41.4630990" lon="-4.7681200">
        <ele>740.6</ele>
        <time>2019-05-25T12:26:07Z</time>
      </trkpt>
      <trkpt lat="41.4630350" lon="-4.7680960">
        <ele>740.6</ele>
        <time>2019-05-25T12:26:08Z</time>
      </trkpt>
      <trkpt lat="41.4624610" lon="-4.7678970">
        <ele>741.2</ele>
        <time>2019-05-25T12:26:17Z</time>
      </trkpt>
      <trkpt lat="41.4622590" lon="-4.7678410">
        <ele>741.4</ele>
        <time>2019-05-25T12:26:20Z</time>
      </trkpt>
      <trkpt lat="41.4620560" lon="-4.7677930">
        <ele>741.6</ele>
        <time>2019-05-25T12:26:23Z</time>
      </trkpt>
      <trkpt lat="41.4615190" lon="-4.7676680">
        <ele>741.6</ele>
        <time>2019-05-25T12:26:31Z</time>
      </trkpt>
      <trkpt lat="41.4613210" lon="-4.7676240">
        <ele>741.8</ele>
        <time>2019-05-25T12:26:34Z</time>
      </trkpt>
      <trkpt lat="41.4607420" lon="-4.7674970">
        <ele>742.0</ele>
        <time>2019-05-25T12:26:43Z</time>
      </trkpt>
      <trkpt lat="41.4604080" lon="-4.7674390">
        <ele>742.2</ele>
        <time>2019-05-25T12:26:48Z</time>
      </trkpt>
      <trkpt lat="41.4598600" lon="-4.7673750">
        <ele>742.2</ele>
        <time>2019-05-25T12:26:56Z</time>
      </trkpt>
      <trkpt lat="41.4594570" lon="-4.7673170">
        <ele>742.4</ele>
        <time>2019-05-25T12:27:02Z</time>
      </trkpt>
      <trkpt lat="41.4592550" lon="-4.7672930">
        <ele>742.6</ele>
        <time>2019-05-25T12:27:05Z</time>
      </trkpt>
      <trkpt lat="41.4589850" lon="-4.7672600">
        <ele>742.6</ele>
        <time>2019-05-25T12:27:09Z</time>
      </trkpt>
      <trkpt lat="41.4584520" lon="-4.7671630">
        <ele>743.0</ele>
        <time>2019-05-25T12:27:17Z</time>
      </trkpt>
      <trkpt lat="41.4583880" lon="-4.7671460">
        <ele>743.0</ele>
        <time>2019-05-25T12:27:18Z</time>
      </trkpt>
      <trkpt lat="41.4578000" lon="-4.7669770">
        <ele>743.2</ele>
        <time>2019-05-25T12:27:27Z</time>
      </trkpt>
      <trkpt lat="41.4574250" lon="-4.7668550">
        <ele>743.4</ele>
        <time>2019-05-25T12:27:33Z</time>
      </trkpt>
      <trkpt lat="41.4568990" lon="-4.7666000">
        <ele>743.4</ele>
        <time>2019-05-25T12:27:42Z</time>
      </trkpt>
      <trkpt lat="41.4564580" lon="-4.7662960">
        <ele>743.2</ele>
        <time>2019-05-25T12:27:50Z</time>
      </trkpt>
      <trkpt lat="41.4562850" lon="-4.7662010">
        <ele>743.2</ele>
        <time>2019-05-25T12:27:53Z</time>
      </trkpt>
      <trkpt lat="41.4557910" lon="-4.7660030">
        <ele>743.2</ele>
        <time>2019-05-25T12:28:01Z</time>
      </trkpt>
      <trkpt lat="41.4556670" lon="-4.7659530">
        <ele>743.2</ele>
        <time>2019-05-25T12:28:03Z</time>
      </trkpt>
      <trkpt lat="41.4551230" lon="-4.7657090">
        <ele>743.4</ele>
        <time>2019-05-25T12:28:12Z</time>
      </trkpt>
      <trkpt lat="41.4550040" lon="-4.7656480">
        <ele>743.6</ele>
        <time>2019-05-25T12:28:14Z</time>
      </trkpt>
      <trkpt lat="41.4548240" lon="-4.7655510">
        <ele>743.8</ele>
        <time>2019-05-25T12:28:17Z</time>
      </trkpt>
      <trkpt lat="41.4542930" lon="-4.7652420">
        <ele>744.2</ele>
        <time>2019-05-25T12:28:26Z</time>
      </trkpt>
      <trkpt lat="41.4540670" lon="-4.7651050">
        <ele>744.6</ele>
        <time>2019-05-25T12:28:30Z</time>
      </trkpt>
      <trkpt lat="41.4540130" lon="-4.7650690">
        <ele>744.8</ele>
        <time>2019-05-25T12:28:31Z</time>
      </trkpt>
      <trkpt lat="41.4537480" lon="-4.7648620">
        <ele>745.8</ele>
        <time>2019-05-25T12:28:36Z</time>
      </trkpt>
      <trkpt lat="41.4533660" lon="-4.7645680">
        <ele>746.8</ele>
        <time>2019-05-25T12:28:43Z</time>
      </trkpt>
      <trkpt lat="41.4532570" lon="-4.7644910">
        <ele>747.0</ele>
        <time>2019-05-25T12:28:45Z</time>
      </trkpt>
      <trkpt lat="41.4527600" lon="-4.7641550">
        <ele>747.0</ele>
        <time>2019-05-25T12:28:54Z</time>
      </trkpt>
      <trkpt lat="41.4527010" lon="-4.7641160">
        <ele>747.0</ele>
        <time>2019-05-25T12:28:56Z</time>
      </trkpt>
      <trkpt lat="41.4521470" lon="-4.7637390">
        <ele>746.2</ele>
        <time>2019-05-25T12:29:04Z</time>
      </trkpt>
      <trkpt lat="41.4520860" lon="-4.7636960">
        <ele>745.8</ele>
        <time>2019-05-25T12:29:05Z</time>
      </trkpt>
      <trkpt lat="41.4517910" lon="-4.7634880">
        <ele>745.4</ele>
        <time>2019-05-25T12:29:10Z</time>
      </trkpt>
      <trkpt lat="41.4514480" lon="-4.7632430">
        <ele>745.2</ele>
        <time>2019-05-25T12:29:16Z</time>
      </trkpt>
      <trkpt lat="41.4511680" lon="-4.7630420">
        <ele>745.2</ele>
        <time>2019-05-25T12:29:21Z</time>
      </trkpt>
      <trkpt lat="41.4506540" lon="-4.7626870">
        <ele>745.2</ele>
        <time>2019-05-25T12:29:30Z</time>
      </trkpt>
      <trkpt lat="41.4505990" lon="-4.7626450">
        <ele>745.2</ele>
        <time>2019-05-25T12:29:31Z</time>
      </trkpt>
      <trkpt lat="41.4501380" lon="-4.7622540">
        <ele>745.2</ele>
        <time>2019-05-25T12:29:40Z</time>
      </trkpt>
      <trkpt lat="41.4499940" lon="-4.7621190">
        <ele>745.2</ele>
        <time>2019-05-25T12:29:43Z</time>
      </trkpt>
      <trkpt lat="41.4495710" lon="-4.7617190">
        <ele>745.0</ele>
        <time>2019-05-25T12:29:53Z</time>
      </trkpt>
      <trkpt lat="41.4494310" lon="-4.7615950">
        <ele>745.0</ele>
        <time>2019-05-25T12:29:56Z</time>
      </trkpt>
      <trkpt lat="41.4490970" lon="-4.7612900">
        <ele>745.6</ele>
        <time>2019-05-25T12:30:03Z</time>
      </trkpt>
      <trkpt lat="41.4487520" lon="-4.7609740">
        <ele>745.8</ele>
        <time>2019-05-25T12:30:10Z</time>
      </trkpt>
      <trkpt lat="41.4482620" lon="-4.7605570">
        <ele>746.0</ele>
        <time>2019-05-25T12:30:20Z</time>
      </trkpt>
      <trkpt lat="41.4481600" lon="-4.7604950">
        <ele>746.0</ele>
        <time>2019-05-25T12:30:22Z</time>
      </trkpt>
      <trkpt lat="41.4476730" lon="-4.7602810">
        <ele>746.2</ele>
        <time>2019-05-25T12:30:31Z</time>
      </trkpt>
      <trkpt lat="41.4471500" lon="-4.7600760">
        <ele>746.2</ele>
        <time>2019-05-25T12:30:40Z</time>
      </trkpt>
      <trkpt lat="41.4467970" lon="-4.7599460">
        <ele>746.2</ele>
        <time>2019-05-25T12:30:46Z</time>
      </trkpt>
      <trkpt lat="41.4462390" lon="-4.7597620">
        <ele>746.6</ele>
        <time>2019-05-25T12:30:55Z</time>
      </trkpt>
      <trkpt lat="41.4459970" lon="-4.7596830">
        <ele>746.6</ele>
        <time>2019-05-25T12:30:59Z</time>
      </trkpt>
      <trkpt lat="41.4454440" lon="-4.7594820">
        <ele>746.8</ele>
        <time>2019-05-25T12:31:08Z</time>
      </trkpt>
      <trkpt lat="41.4451880" lon="-4.7594060">
        <ele>747.0</ele>
        <time>2019-05-25T12:31:12Z</time>
      </trkpt>
      <trkpt lat="41.4449980" lon="-4.7593830">
        <ele>747.0</ele>
        <time>2019-05-25T12:31:14Z</time>
      </trkpt>
      <trkpt lat="41.4446090" lon="-4.7593490">
        <ele>747.2</ele>
        <time>2019-05-25T12:31:20Z</time>
      </trkpt>
      <trkpt lat="41.4440950" lon="-4.7592260">
        <ele>747.2</ele>
        <time>2019-05-25T12:31:29Z</time>
      </trkpt>
      <trkpt lat="41.4437860" lon="-4.7591470">
        <ele>747.2</ele>
        <time>2019-05-25T12:31:34Z</time>
      </trkpt>
      <trkpt lat="41.4432280" lon="-4.7589980">
        <ele>747.6</ele>
        <time>2019-05-25T12:31:43Z</time>
      </trkpt>
      <trkpt lat="41.4430370" lon="-4.7589550">
        <ele>747.6</ele>
        <time>2019-05-25T12:31:46Z</time>
      </trkpt>
      <trkpt lat="41.4425770" lon="-4.7588310">
        <ele>748.0</ele>
        <time>2019-05-25T12:31:53Z</time>
      </trkpt>
      <trkpt lat="41.4424490" lon="-4.7588010">
        <ele>748.0</ele>
        <time>2019-05-25T12:31:55Z</time>
      </trkpt>
      <trkpt lat="41.4418910" lon="-4.7586570">
        <ele>748.0</ele>
        <time>2019-05-25T12:32:04Z</time>
      </trkpt>
      <trkpt lat="41.4415820" lon="-4.7585880">
        <ele>748.0</ele>
        <time>2019-05-25T12:32:09Z</time>
      </trkpt>
      <trkpt lat="41.4414620" lon="-4.7585550">
        <ele>748.0</ele>
        <time>2019-05-25T12:32:11Z</time>
      </trkpt>
      <trkpt lat="41.4408740" lon="-4.7583860">
        <ele>748.2</ele>
        <time>2019-05-25T12:32:21Z</time>
      </trkpt>
      <trkpt lat="41.4408180" lon="-4.7583710">
        <ele>748.2</ele>
        <time>2019-05-25T12:32:22Z</time>
      </trkpt>
      <trkpt lat="41.4404920" lon="-4.7582890">
        <ele>748.2</ele>
        <time>2019-05-25T12:32:27Z</time>
      </trkpt>
      <trkpt lat="41.4403330" lon="-4.7582420">
        <ele>748.4</ele>
        <time>2019-05-25T12:32:31Z</time>
      </trkpt>
      <trkpt lat="41.4400650" lon="-4.7581460">
        <ele>748.4</ele>
        <time>2019-05-25T12:32:36Z</time>
      </trkpt>
      <trkpt lat="41.4398430" lon="-4.7580280">
        <ele>748.4</ele>
        <time>2019-05-25T12:32:40Z</time>
      </trkpt>
      <trkpt lat="41.4394260" lon="-4.7578190">
        <ele>748.2</ele>
        <time>2019-05-25T12:32:47Z</time>
      </trkpt>
      <trkpt lat="41.4392450" lon="-4.7577510">
        <ele>747.8</ele>
        <time>2019-05-25T12:32:50Z</time>
      </trkpt>
      <trkpt lat="41.4390640" lon="-4.7577030">
        <ele>747.6</ele>
        <time>2019-05-25T12:32:53Z</time>
      </trkpt>
      <trkpt lat="41.4387750" lon="-4.7576320">
        <ele>747.4</ele>
        <time>2019-05-25T12:32:58Z</time>
      </trkpt>
      <trkpt lat="41.4386570" lon="-4.7576040">
        <ele>747.4</ele>
        <time>2019-05-25T12:32:59Z</time>
      </trkpt>
      <trkpt lat="41.4385440" lon="-4.7575760">
        <ele>747.0</ele>
        <time>2019-05-25T12:33:02Z</time>
      </trkpt>
      <trkpt lat="41.4382670" lon="-4.7574990">
        <ele>746.6</ele>
        <time>2019-05-25T12:33:07Z</time>
      </trkpt>
      <trkpt lat="41.4380510" lon="-4.7574220">
        <ele>746.0</ele>
        <time>2019-05-25T12:33:11Z</time>
      </trkpt>
      <trkpt lat="41.4379970" lon="-4.7574010">
        <ele>745.8</ele>
        <time>2019-05-25T12:33:12Z</time>
      </trkpt>
      <trkpt lat="41.4377520" lon="-4.7572960">
        <ele>744.6</ele>
        <time>2019-05-25T12:33:17Z</time>
      </trkpt>
      <trkpt lat="41.4375620" lon="-4.7572180">
        <ele>744.2</ele>
        <time>2019-05-25T12:33:21Z</time>
      </trkpt>
      <trkpt lat="41.4375120" lon="-4.7572000">
        <ele>743.6</ele>
        <time>2019-05-25T12:33:22Z</time>
      </trkpt>
      <trkpt lat="41.4373030" lon="-4.7571150">
        <ele>742.6</ele>
        <time>2019-05-25T12:33:26Z</time>
      </trkpt>
      <trkpt lat="41.4371350" lon="-4.7570450">
        <ele>742.0</ele>
        <time>2019-05-25T12:33:29Z</time>
      </trkpt>
      <trkpt lat="41.4369680" lon="-4.7569690">
        <ele>741.8</ele>
        <time>2019-05-25T12:33:32Z</time>
      </trkpt>
      <trkpt lat="41.4368600" lon="-4.7569160">
        <ele>741.4</ele>
        <time>2019-05-25T12:33:34Z</time>
      </trkpt>
      <trkpt lat="41.4367560" lon="-4.7568630">
        <ele>740.0</ele>
        <time>2019-05-25T12:33:36Z</time>
      </trkpt>
      <trkpt lat="41.4366210" lon="-4.7567530">
        <ele>739.4</ele>
        <time>2019-05-25T12:33:38Z</time>
      </trkpt>
      <trkpt lat="41.4365840" lon="-4.7567000">
        <ele>739.2</ele>
        <time>2019-05-25T12:33:39Z</time>
      </trkpt>
      <trkpt lat="41.4365840" lon="-4.7567000">
        <ele>739.0</ele>
        <time>2019-05-25T12:33:40Z</time>
      </trkpt>
      <trkpt lat="41.4365510" lon="-4.7566380">
        <ele>738.8</ele>
        <time>2019-05-25T12:33:41Z</time>
      </trkpt>
      <trkpt lat="41.4364390" lon="-4.7563450">
        <ele>738.2</ele>
        <time>2019-05-25T12:33:45Z</time>
      </trkpt>
      <trkpt lat="41.4364110" lon="-4.7562760">
        <ele>737.8</ele>
        <time>2019-05-25T12:33:46Z</time>
      </trkpt>
      <trkpt lat="41.4363220" lon="-4.7560920">
        <ele>736.6</ele>
        <time>2019-05-25T12:33:49Z</time>
      </trkpt>
      <trkpt lat="41.4362720" lon="-4.7559820">
        <ele>735.8</ele>
        <time>2019-05-25T12:33:51Z</time>
      </trkpt>
      <trkpt lat="41.4362250" lon="-4.7558720">
        <ele>735.4</ele>
        <time>2019-05-25T12:33:52Z</time>
      </trkpt>
      <trkpt lat="41.4361520" lon="-4.7555790">
        <ele>734.8</ele>
        <time>2019-05-25T12:33:59Z</time>
      </trkpt>
      <trkpt lat="41.4361230" lon="-4.7554370">
        <ele>735.0</ele>
        <time>2019-05-25T12:34:03Z</time>
      </trkpt>
      <trkpt lat="41.4361090" lon="-4.7553450">
        <ele>735.2</ele>
        <time>2019-05-25T12:34:06Z</time>
      </trkpt>
      <trkpt lat="41.4361130" lon="-4.7550800">
        <ele>735.2</ele>
        <time>2019-05-25T12:34:15Z</time>
      </trkpt>
      <trkpt lat="41.4361360" lon="-4.7550910">
        <ele>734.8</ele>
        <time>2019-05-25T12:34:54Z</time>
      </trkpt>
      <trkpt lat="41.4361310" lon="-4.7550700">
        <ele>734.8</ele>
        <time>2019-05-25T12:34:55Z</time>
      </trkpt>
      <trkpt lat="41.4361230" lon="-4.7550460">
        <ele>734.8</ele>
        <time>2019-05-25T12:34:56Z</time>
      </trkpt>
      <trkpt lat="41.4360930" lon="-4.7549080">
        <ele>734.8</ele>
        <time>2019-05-25T12:35:01Z</time>
      </trkpt>
      <trkpt lat="41.4360680" lon="-4.7545180">
        <ele>735.0</ele>
        <time>2019-05-25T12:35:09Z</time>
      </trkpt>
      <trkpt lat="41.4360840" lon="-4.7544920">
        <ele>735.0</ele>
        <time>2019-05-25T12:35:10Z</time>
      </trkpt>
      <trkpt lat="41.4361400" lon="-4.7544860">
        <ele>735.2</ele>
        <time>2019-05-25T12:35:12Z</time>
      </trkpt>
      <trkpt lat="41.4362150" lon="-4.7545150">
        <ele>735.6</ele>
        <time>2019-05-25T12:35:14Z</time>
      </trkpt>
      <trkpt lat="41.4363510" lon="-4.7545550">
        <ele>736.0</ele>
        <time>2019-05-25T12:35:17Z</time>
      </trkpt>
      <trkpt lat="41.4365080" lon="-4.7545600">
        <ele>736.2</ele>
        <time>2019-05-25T12:35:20Z</time>
      </trkpt>
      <trkpt lat="41.4366600" lon="-4.7545350">
        <ele>736.4</ele>
        <time>2019-05-25T12:35:23Z</time>
      </trkpt>
      <trkpt lat="41.4368300" lon="-4.7544470">
        <ele>737.0</ele>
        <time>2019-05-25T12:35:26Z</time>
      </trkpt>
      <trkpt lat="41.4368700" lon="-4.7544220">
        <ele>737.6</ele>
        <time>2019-05-25T12:35:28Z</time>
      </trkpt>
      <trkpt lat="41.4369070" lon="-4.7543930">
        <ele>737.6</ele>
        <time>2019-05-25T12:35:29Z</time>
      </trkpt>
      <trkpt lat="41.4369810" lon="-4.7543350">
        <ele>738.0</ele>
        <time>2019-05-25T12:35:31Z</time>
      </trkpt>
      <trkpt lat="41.4370510" lon="-4.7542780">
        <ele>738.6</ele>
        <time>2019-05-25T12:35:33Z</time>
      </trkpt>
      <trkpt lat="41.4370840" lon="-4.7542500">
        <ele>739.0</ele>
        <time>2019-05-25T12:35:34Z</time>
      </trkpt>
      <trkpt lat="41.4371380" lon="-4.7541960">
        <ele>740.2</ele>
        <time>2019-05-25T12:35:36Z</time>
      </trkpt>
      <trkpt lat="41.4371620" lon="-4.7541740">
        <ele>740.6</ele>
        <time>2019-05-25T12:35:37Z</time>
      </trkpt>
      <trkpt lat="41.4372090" lon="-4.7541310">
        <ele>741.6</ele>
        <time>2019-05-25T12:35:39Z</time>
      </trkpt>
      <trkpt lat="41.4372740" lon="-4.7540730">
        <ele>743.0</ele>
        <time>2019-05-25T12:35:42Z</time>
      </trkpt>
      <trkpt lat="41.4373120" lon="-4.7540330">
        <ele>744.2</ele>
        <time>2019-05-25T12:35:44Z</time>
      </trkpt>
      <trkpt lat="41.4373730" lon="-4.7539680">
        <ele>744.6</ele>
        <time>2019-05-25T12:35:46Z</time>
      </trkpt>
      <trkpt lat="41.4374340" lon="-4.7538740">
        <ele>745.4</ele>
        <time>2019-05-25T12:35:50Z</time>
      </trkpt>
      <trkpt lat="41.4374650" lon="-4.7538630">
        <ele>746.0</ele>
        <time>2019-05-25T12:35:52Z</time>
      </trkpt>
      <trkpt lat="41.4375000" lon="-4.7538730">
        <ele>746.4</ele>
        <time>2019-05-25T12:35:54Z</time>
      </trkpt>
      <trkpt lat="41.4375170" lon="-4.7538770">
        <ele>746.8</ele>
        <time>2019-05-25T12:35:55Z</time>
      </trkpt>
      <trkpt lat="41.4375220" lon="-4.7538540">
        <ele>750.2</ele>
        <time>2019-05-25T12:36:53Z</time>
      </trkpt>
      <trkpt lat="41.4375210" lon="-4.7538350">
        <ele>750.2</ele>
        <time>2019-05-25T12:36:54Z</time>
      </trkpt>
      <trkpt lat="41.4375260" lon="-4.7536920">
        <ele>749.8</ele>
        <time>2019-05-25T12:37:00Z</time>
      </trkpt>
      <trkpt lat="41.4375630" lon="-4.7535460">
        <ele>749.8</ele>
        <time>2019-05-25T12:37:04Z</time>
      </trkpt>
      <trkpt lat="41.4376080" lon="-4.7533560">
        <ele>749.8</ele>
        <time>2019-05-25T12:37:09Z</time>
      </trkpt>
      <trkpt lat="41.4376300" lon="-4.7533630">
        <ele>750.0</ele>
        <time>2019-05-25T12:37:13Z</time>
      </trkpt>
      <trkpt lat="41.4376390" lon="-4.7533900">
        <ele>750.4</ele>
        <time>2019-05-25T12:38:00Z</time>
      </trkpt>
      <trkpt lat="41.4376350" lon="-4.7533970">
        <ele>750.4</ele>
        <time>2019-05-25T12:38:01Z</time>
      </trkpt>
      <trkpt lat="41.4376190" lon="-4.7534300">
        <ele>750.4</ele>
        <time>2019-05-25T12:38:03Z</time>
      </trkpt>
      <trkpt lat="41.4376020" lon="-4.7534800">
        <ele>750.4</ele>
        <time>2019-05-25T12:38:04Z</time>
      </trkpt>
      <trkpt lat="41.4375130" lon="-4.7537670">
        <ele>750.0</ele>
        <time>2019-05-25T12:38:11Z</time>
      </trkpt>
      <trkpt lat="41.4374860" lon="-4.7538270">
        <ele>750.0</ele>
        <time>2019-05-25T12:38:12Z</time>
      </trkpt>
      <trkpt lat="41.4373380" lon="-4.7540340">
        <ele>749.8</ele>
        <time>2019-05-25T12:38:15Z</time>
      </trkpt>
      <trkpt lat="41.4372940" lon="-4.7540770">
        <ele>749.8</ele>
        <time>2019-05-25T12:38:16Z</time>
      </trkpt>
      <trkpt lat="41.4370230" lon="-4.7542980">
        <ele>749.0</ele>
        <time>2019-05-25T12:38:21Z</time>
      </trkpt>
      <trkpt lat="41.4369100" lon="-4.7543880">
        <ele>747.6</ele>
        <time>2019-05-25T12:38:23Z</time>
      </trkpt>
      <trkpt lat="41.4367900" lon="-4.7544760">
        <ele>746.6</ele>
        <time>2019-05-25T12:38:25Z</time>
      </trkpt>
      <trkpt lat="41.4366340" lon="-4.7545570">
        <ele>745.2</ele>
        <time>2019-05-25T12:38:27Z</time>
      </trkpt>
      <trkpt lat="41.4364710" lon="-4.7546030">
        <ele>744.2</ele>
        <time>2019-05-25T12:38:29Z</time>
      </trkpt>
      <trkpt lat="41.4363820" lon="-4.7546090">
        <ele>742.8</ele>
        <time>2019-05-25T12:38:31Z</time>
      </trkpt>
      <trkpt lat="41.4362980" lon="-4.7546030">
        <ele>742.0</ele>
        <time>2019-05-25T12:38:32Z</time>
      </trkpt>
      <trkpt lat="41.4362140" lon="-4.7545820">
        <ele>741.0</ele>
        <time>2019-05-25T12:38:33Z</time>
      </trkpt>
      <trkpt lat="41.4360610" lon="-4.7544920">
        <ele>739.2</ele>
        <time>2019-05-25T12:38:35Z</time>
      </trkpt>
      <trkpt lat="41.4359480" lon="-4.7543580">
        <ele>738.0</ele>
        <time>2019-05-25T12:38:37Z</time>
      </trkpt>
      <trkpt lat="41.4359050" lon="-4.7542790">
        <ele>737.6</ele>
        <time>2019-05-25T12:38:38Z</time>
      </trkpt>
      <trkpt lat="41.4358450" lon="-4.7541130">
        <ele>737.4</ele>
        <time>2019-05-25T12:38:40Z</time>
      </trkpt>
      <trkpt lat="41.4357790" lon="-4.7539670">
        <ele>737.2</ele>
        <time>2019-05-25T12:38:42Z</time>
      </trkpt>
      <trkpt lat="41.4357570" lon="-4.7538920">
        <ele>737.0</ele>
        <time>2019-05-25T12:38:43Z</time>
      </trkpt>
      <trkpt lat="41.4357020" lon="-4.7537560">
        <ele>737.0</ele>
        <time>2019-05-25T12:38:45Z</time>
      </trkpt>
      <trkpt lat="41.4356400" lon="-4.7536400">
        <ele>737.4</ele>
        <time>2019-05-25T12:38:47Z</time>
      </trkpt>
      <trkpt lat="41.4355400" lon="-4.7534950">
        <ele>738.0</ele>
        <time>2019-05-25T12:38:49Z</time>
      </trkpt>
      <trkpt lat="41.4355070" lon="-4.7534530">
        <ele>738.8</ele>
        <time>2019-05-25T12:38:51Z</time>
      </trkpt>
      <trkpt lat="41.4354370" lon="-4.7533760">
        <ele>739.2</ele>
        <time>2019-05-25T12:38:52Z</time>
      </trkpt>
      <trkpt lat="41.4354040" lon="-4.7533370">
        <ele>740.0</ele>
        <time>2019-05-25T12:38:54Z</time>
      </trkpt>
      <trkpt lat="41.4353700" lon="-4.7532990">
        <ele>740.4</ele>
        <time>2019-05-25T12:38:55Z</time>
      </trkpt>
      <trkpt lat="41.4352950" lon="-4.7532310">
        <ele>741.4</ele>
        <time>2019-05-25T12:38:57Z</time>
      </trkpt>
      <trkpt lat="41.4352550" lon="-4.7531950">
        <ele>741.8</ele>
        <time>2019-05-25T12:38:58Z</time>
      </trkpt>
      <trkpt lat="41.4351800" lon="-4.7531250">
        <ele>742.4</ele>
        <time>2019-05-25T12:39:00Z</time>
      </trkpt>
      <trkpt lat="41.4350000" lon="-4.7529580">
        <ele>743.0</ele>
        <time>2019-05-25T12:39:04Z</time>
      </trkpt>
      <trkpt lat="41.4349250" lon="-4.7528920">
        <ele>744.2</ele>
        <time>2019-05-25T12:39:07Z</time>
      </trkpt>
      <trkpt lat="41.4347710" lon="-4.7527580">
        <ele>744.8</ele>
        <time>2019-05-25T12:39:11Z</time>
      </trkpt>
      <trkpt lat="41.4346900" lon="-4.7526930">
        <ele>745.4</ele>
        <time>2019-05-25T12:39:13Z</time>
      </trkpt>
      <trkpt lat="41.4345250" lon="-4.7525740">
        <ele>746.4</ele>
        <time>2019-05-25T12:39:17Z</time>
      </trkpt>
      <trkpt lat="41.4342400" lon="-4.7524030">
        <ele>747.8</ele>
        <time>2019-05-25T12:39:24Z</time>
      </trkpt>
      <trkpt lat="41.4339430" lon="-4.7522870">
        <ele>749.0</ele>
        <time>2019-05-25T12:39:30Z</time>
      </trkpt>
      <trkpt lat="41.4336950" lon="-4.7521650">
        <ele>749.8</ele>
        <time>2019-05-25T12:39:36Z</time>
      </trkpt>
      <trkpt lat="41.4333620" lon="-4.7519990">
        <ele>749.8</ele>
        <time>2019-05-25T12:39:44Z</time>
      </trkpt>
      <trkpt lat="41.4331360" lon="-4.7517970">
        <ele>749.8</ele>
        <time>2019-05-25T12:39:51Z</time>
      </trkpt>
      <trkpt lat="41.4327260" lon="-4.7513840">
        <ele>750.0</ele>
        <time>2019-05-25T12:40:02Z</time>
      </trkpt>
      <trkpt lat="41.4323570" lon="-4.7510040">
        <ele>750.0</ele>
        <time>2019-05-25T12:40:12Z</time>
      </trkpt>
      <trkpt lat="41.4321600" lon="-4.7508250">
        <ele>749.8</ele>
        <time>2019-05-25T12:40:17Z</time>
      </trkpt>
      <trkpt lat="41.4319420" lon="-4.7506370">
        <ele>749.6</ele>
        <time>2019-05-25T12:40:22Z</time>
      </trkpt>
      <trkpt lat="41.4318530" lon="-4.7505600">
        <ele>749.6</ele>
        <time>2019-05-25T12:40:24Z</time>
      </trkpt>
      <trkpt lat="41.4316700" lon="-4.7504110">
        <ele>749.6</ele>
        <time>2019-05-25T12:40:28Z</time>
      </trkpt>
      <trkpt lat="41.4311890" lon="-4.7500370">
        <ele>749.2</ele>
        <time>2019-05-25T12:40:38Z</time>
      </trkpt>
      <trkpt lat="41.4311410" lon="-4.7500030">
        <ele>749.2</ele>
        <time>2019-05-25T12:40:39Z</time>
      </trkpt>
      <trkpt lat="41.4306600" lon="-4.7496400">
        <ele>749.4</ele>
        <time>2019-05-25T12:40:49Z</time>
      </trkpt>
      <trkpt lat="41.4306130" lon="-4.7496050">
        <ele>749.4</ele>
        <time>2019-05-25T12:40:50Z</time>
      </trkpt>
      <trkpt lat="41.4300990" lon="-4.7492310">
        <ele>749.4</ele>
        <time>2019-05-25T12:41:01Z</time>
      </trkpt>
      <trkpt lat="41.4300060" lon="-4.7491650">
        <ele>749.4</ele>
        <time>2019-05-25T12:41:03Z</time>
      </trkpt>
      <trkpt lat="41.4294970" lon="-4.7487690">
        <ele>749.8</ele>
        <time>2019-05-25T12:41:14Z</time>
      </trkpt>
      <trkpt lat="41.4294010" lon="-4.7486940">
        <ele>750.0</ele>
        <time>2019-05-25T12:41:16Z</time>
      </trkpt>
      <trkpt lat="41.4292640" lon="-4.7485790">
        <ele>750.2</ele>
        <time>2019-05-25T12:41:19Z</time>
      </trkpt>
      <trkpt lat="41.4288710" lon="-4.7482480">
        <ele>750.4</ele>
        <time>2019-05-25T12:41:28Z</time>
      </trkpt>
      <trkpt lat="41.4283780" lon="-4.7478420">
        <ele>750.8</ele>
        <time>2019-05-25T12:41:39Z</time>
      </trkpt>
      <trkpt lat="41.4283340" lon="-4.7478090">
        <ele>750.8</ele>
        <time>2019-05-25T12:41:40Z</time>
      </trkpt>
      <trkpt lat="41.4281090" lon="-4.7476190">
        <ele>751.2</ele>
        <time>2019-05-25T12:41:44Z</time>
      </trkpt>
      <trkpt lat="41.4277940" lon="-4.7473640">
        <ele>751.4</ele>
        <time>2019-05-25T12:41:52Z</time>
      </trkpt>
      <trkpt lat="41.4273850" lon="-4.7471280">
        <ele>751.6</ele>
        <time>2019-05-25T12:42:00Z</time>
      </trkpt>
      <trkpt lat="41.4267890" lon="-4.7468230">
        <ele>752.2</ele>
        <time>2019-05-25T12:42:09Z</time>
      </trkpt>
      <trkpt lat="41.4267890" lon="-4.7468230">
        <ele>752.2</ele>
        <time>2019-05-25T12:42:10Z</time>
      </trkpt>
      <trkpt lat="41.4262180" lon="-4.7465300">
        <ele>751.4</ele>
        <time>2019-05-25T12:42:19Z</time>
      </trkpt>
      <trkpt lat="41.4260280" lon="-4.7464320">
        <ele>751.4</ele>
        <time>2019-05-25T12:42:22Z</time>
      </trkpt>
      <trkpt lat="41.4254220" lon="-4.7461050">
        <ele>751.2</ele>
        <time>2019-05-25T12:42:31Z</time>
      </trkpt>
      <trkpt lat="41.4252960" lon="-4.7460320">
        <ele>751.2</ele>
        <time>2019-05-25T12:42:34Z</time>
      </trkpt>
      <trkpt lat="41.4246890" lon="-4.7458050">
        <ele>751.4</ele>
        <time>2019-05-25T12:42:42Z</time>
      </trkpt>
      <trkpt lat="41.4242760" lon="-4.7457140">
        <ele>751.8</ele>
        <time>2019-05-25T12:42:49Z</time>
      </trkpt>
      <trkpt lat="41.4238640" lon="-4.7456360">
        <ele>751.8</ele>
        <time>2019-05-25T12:42:55Z</time>
      </trkpt>
      <trkpt lat="41.4233340" lon="-4.7455480">
        <ele>752.0</ele>
        <time>2019-05-25T12:43:03Z</time>
      </trkpt>
      <trkpt lat="41.4230740" lon="-4.7454600">
        <ele>752.0</ele>
        <time>2019-05-25T12:43:06Z</time>
      </trkpt>
      <trkpt lat="41.4225320" lon="-4.7451480">
        <ele>752.2</ele>
        <time>2019-05-25T12:43:15Z</time>
      </trkpt>
      <trkpt lat="41.4224120" lon="-4.7450770">
        <ele>752.4</ele>
        <time>2019-05-25T12:43:18Z</time>
      </trkpt>
      <trkpt lat="41.4218660" lon="-4.7447560">
        <ele>752.4</ele>
        <time>2019-05-25T12:43:27Z</time>
      </trkpt>
      <trkpt lat="41.4215000" lon="-4.7445470">
        <ele>752.4</ele>
        <time>2019-05-25T12:43:33Z</time>
      </trkpt>
      <trkpt lat="41.4210120" lon="-4.7442730">
        <ele>752.4</ele>
        <time>2019-05-25T12:43:41Z</time>
      </trkpt>
      <trkpt lat="41.4205780" lon="-4.7440260">
        <ele>752.4</ele>
        <time>2019-05-25T12:43:48Z</time>
      </trkpt>
      <trkpt lat="41.4200230" lon="-4.7437060">
        <ele>752.4</ele>
        <time>2019-05-25T12:43:57Z</time>
      </trkpt>
      <trkpt lat="41.4197360" lon="-4.7435390">
        <ele>752.4</ele>
        <time>2019-05-25T12:44:02Z</time>
      </trkpt>
      <trkpt lat="41.4192390" lon="-4.7432550">
        <ele>752.4</ele>
        <time>2019-05-25T12:44:11Z</time>
      </trkpt>
      <trkpt lat="41.4191840" lon="-4.7432240">
        <ele>752.4</ele>
        <time>2019-05-25T12:44:12Z</time>
      </trkpt>
      <trkpt lat="41.4190190" lon="-4.7431280">
        <ele>752.6</ele>
        <time>2019-05-25T12:44:15Z</time>
      </trkpt>
      <trkpt lat="41.4187610" lon="-4.7429850">
        <ele>752.8</ele>
        <time>2019-05-25T12:44:20Z</time>
      </trkpt>
      <trkpt lat="41.4186290" lon="-4.7429070">
        <ele>752.8</ele>
        <time>2019-05-25T12:44:23Z</time>
      </trkpt>
      <trkpt lat="41.4185160" lon="-4.7428440">
        <ele>753.0</ele>
        <time>2019-05-25T12:44:26Z</time>
      </trkpt>
      <trkpt lat="41.4185160" lon="-4.7428440">
        <ele>753.2</ele>
        <time>2019-05-25T12:44:27Z</time>
      </trkpt>
      <trkpt lat="41.4184760" lon="-4.7427780">
        <ele>753.2</ele>
        <time>2019-05-25T12:44:29Z</time>
      </trkpt>
      <trkpt lat="41.4184740" lon="-4.7426880">
        <ele>753.2</ele>
        <time>2019-05-25T12:44:31Z</time>
      </trkpt>
      <trkpt lat="41.4186280" lon="-4.7421410">
        <ele>752.6</ele>
        <time>2019-05-25T12:44:41Z</time>
      </trkpt>
      <trkpt lat="41.4187500" lon="-4.7417120">
        <ele>752.2</ele>
        <time>2019-05-25T12:44:47Z</time>
      </trkpt>
      <trkpt lat="41.4188720" lon="-4.7412750">
        <ele>752.2</ele>
        <time>2019-05-25T12:44:53Z</time>
      </trkpt>
      <trkpt lat="41.4190520" lon="-4.7405640">
        <ele>752.2</ele>
        <time>2019-05-25T12:45:03Z</time>
      </trkpt>
      <trkpt lat="41.4191200" lon="-4.7402780">
        <ele>752.2</ele>
        <time>2019-05-25T12:45:07Z</time>
      </trkpt>
      <trkpt lat="41.4192500" lon="-4.7396940">
        <ele>752.4</ele>
        <time>2019-05-25T12:45:14Z</time>
      </trkpt>
      <trkpt lat="41.4192880" lon="-4.7395410">
        <ele>752.2</ele>
        <time>2019-05-25T12:45:16Z</time>
      </trkpt>
      <trkpt lat="41.4193070" lon="-4.7394620">
        <ele>751.8</ele>
        <time>2019-05-25T12:45:18Z</time>
      </trkpt>
      <trkpt lat="41.4193250" lon="-4.7393830">
        <ele>751.6</ele>
        <time>2019-05-25T12:45:19Z</time>
      </trkpt>
      <trkpt lat="41.4193820" lon="-4.7391380">
        <ele>751.4</ele>
        <time>2019-05-25T12:45:21Z</time>
      </trkpt>
      <trkpt lat="41.4194820" lon="-4.7387730">
        <ele>750.6</ele>
        <time>2019-05-25T12:45:26Z</time>
      </trkpt>
      <trkpt lat="41.4195330" lon="-4.7385700">
        <ele>749.8</ele>
        <time>2019-05-25T12:45:28Z</time>
      </trkpt>
      <trkpt lat="41.4195880" lon="-4.7383620">
        <ele>748.8</ele>
        <time>2019-05-25T12:45:30Z</time>
      </trkpt>
      <trkpt lat="41.4196890" lon="-4.7379560">
        <ele>747.6</ele>
        <time>2019-05-25T12:45:34Z</time>
      </trkpt>
      <trkpt lat="41.4197370" lon="-4.7377550">
        <ele>746.8</ele>
        <time>2019-05-25T12:45:36Z</time>
      </trkpt>
      <trkpt lat="41.4197600" lon="-4.7376580">
        <ele>746.4</ele>
        <time>2019-05-25T12:45:37Z</time>
      </trkpt>
      <trkpt lat="41.4197840" lon="-4.7375610">
        <ele>745.8</ele>
        <time>2019-05-25T12:45:38Z</time>
      </trkpt>
      <trkpt lat="41.4198080" lon="-4.7374660">
        <ele>745.4</ele>
        <time>2019-05-25T12:45:39Z</time>
      </trkpt>
      <trkpt lat="41.4198710" lon="-4.7371880">
        <ele>744.8</ele>
        <time>2019-05-25T12:45:42Z</time>
      </trkpt>
      <trkpt lat="41.4199790" lon="-4.7366970">
        <ele>744.6</ele>
        <time>2019-05-25T12:45:48Z</time>
      </trkpt>
      <trkpt lat="41.4200430" lon="-4.7364590">
        <ele>745.0</ele>
        <time>2019-05-25T12:45:52Z</time>
      </trkpt>
      <trkpt lat="41.4200850" lon="-4.7362620">
        <ele>745.6</ele>
        <time>2019-05-25T12:45:56Z</time>
      </trkpt>
      <trkpt lat="41.4201050" lon="-4.7361240">
        <ele>746.6</ele>
        <time>2019-05-25T12:46:00Z</time>
      </trkpt>
      <trkpt lat="41.4201080" lon="-4.7361100">
        <ele>746.8</ele>
        <time>2019-05-25T12:46:01Z</time>
      </trkpt>
      <trkpt lat="41.4201120" lon="-4.7361050">
        <ele>747.0</ele>
        <time>2019-05-25T12:46:02Z</time>
      </trkpt>
      <trkpt lat="41.4201190" lon="-4.7361080">
        <ele>747.0</ele>
        <time>2019-05-25T12:46:03Z</time>
      </trkpt>
      <trkpt lat="41.4201370" lon="-4.7361270">
        <ele>747.8</ele>
        <time>2019-05-25T12:46:05Z</time>
      </trkpt>
      <trkpt lat="41.4201490" lon="-4.7361380">
        <ele>748.2</ele>
        <time>2019-05-25T12:46:07Z</time>
      </trkpt>
      <trkpt lat="41.4202580" lon="-4.7362010">
        <ele>748.6</ele>
        <time>2019-05-25T12:46:12Z</time>
      </trkpt>
      <trkpt lat="41.4202840" lon="-4.7362190">
        <ele>748.8</ele>
        <time>2019-05-25T12:46:13Z</time>
      </trkpt>
      <trkpt lat="41.4206000" lon="-4.7363170">
        <ele>749.2</ele>
        <time>2019-05-25T12:46:24Z</time>
      </trkpt>
      <trkpt lat="41.4208340" lon="-4.7363800">
        <ele>749.8</ele>
        <time>2019-05-25T12:46:32Z</time>
      </trkpt>
      <trkpt lat="41.4208630" lon="-4.7363940">
        <ele>750.0</ele>
        <time>2019-05-25T12:46:33Z</time>
      </trkpt>
      <trkpt lat="41.4209970" lon="-4.7364500">
        <ele>750.2</ele>
        <time>2019-05-25T12:46:35Z</time>
      </trkpt>
      <trkpt lat="41.4210820" lon="-4.7364830">
        <ele>752.0</ele>
        <time>2019-05-25T12:52:22Z</time>
      </trkpt>
      <trkpt lat="41.4211670" lon="-4.7365160">
        <ele>752.0</ele>
        <time>2019-05-25T12:52:23Z</time>
      </trkpt>
      <trkpt lat="41.4212710" lon="-4.7365360">
        <ele>751.8</ele>
        <time>2019-05-25T12:52:25Z</time>
      </trkpt>
      <trkpt lat="41.4213900" lon="-4.7365650">
        <ele>751.4</ele>
        <time>2019-05-25T12:52:27Z</time>
      </trkpt>
      <trkpt lat="41.4214520" lon="-4.7365800">
        <ele>751.4</ele>
        <time>2019-05-25T12:52:28Z</time>
      </trkpt>
      <trkpt lat="41.4216340" lon="-4.7366360">
        <ele>751.2</ele>
        <time>2019-05-25T12:52:31Z</time>
      </trkpt>
      <trkpt lat="41.4218230" lon="-4.7366970">
        <ele>751.0</ele>
        <time>2019-05-25T12:52:34Z</time>
      </trkpt>
      <trkpt lat="41.4219440" lon="-4.7367380">
        <ele>751.0</ele>
        <time>2019-05-25T12:52:36Z</time>
      </trkpt>
      <trkpt lat="41.4220040" lon="-4.7367560">
        <ele>750.8</ele>
        <time>2019-05-25T12:52:38Z</time>
      </trkpt>
      <trkpt lat="41.4220650" lon="-4.7367720">
        <ele>750.6</ele>
        <time>2019-05-25T12:52:39Z</time>
      </trkpt>
      <trkpt lat="41.4221790" lon="-4.7367970">
        <ele>750.4</ele>
        <time>2019-05-25T12:52:41Z</time>
      </trkpt>
      <trkpt lat="41.4222830" lon="-4.7368100">
        <ele>750.4</ele>
        <time>2019-05-25T12:52:42Z</time>
      </trkpt>
      <trkpt lat="41.4223870" lon="-4.7368190">
        <ele>750.2</ele>
        <time>2019-05-25T12:52:44Z</time>
      </trkpt>
      <trkpt lat="41.4223870" lon="-4.7368190">
        <ele>749.8</ele>
        <time>2019-05-25T12:52:45Z</time>
      </trkpt>
      <trkpt lat="41.4224360" lon="-4.7368220">
        <ele>749.6</ele>
        <time>2019-05-25T12:52:46Z</time>
      </trkpt>
      <trkpt lat="41.4225700" lon="-4.7368560">
        <ele>749.4</ele>
        <time>2019-05-25T12:52:48Z</time>
      </trkpt>
      <trkpt lat="41.4226450" lon="-4.7369130">
        <ele>749.4</ele>
        <time>2019-05-25T12:52:51Z</time>
      </trkpt>
      <trkpt lat="41.4229780" lon="-4.7370960">
        <ele>749.2</ele>
        <time>2019-05-25T12:52:57Z</time>
      </trkpt>
      <trkpt lat="41.4234070" lon="-4.7372170">
        <ele>749.4</ele>
        <time>2019-05-25T12:53:06Z</time>
      </trkpt>
      <trkpt lat="41.4236910" lon="-4.7373940">
        <ele>749.4</ele>
        <time>2019-05-25T12:53:12Z</time>
      </trkpt>
      <trkpt lat="41.4239990" lon="-4.7376910">
        <ele>749.2</ele>
        <time>2019-05-25T12:53:18Z</time>
      </trkpt>
      <trkpt lat="41.4241910" lon="-4.7378580">
        <ele>749.2</ele>
        <time>2019-05-25T12:53:22Z</time>
      </trkpt>
      <trkpt lat="41.4246660" lon="-4.7382830">
        <ele>749.0</ele>
        <time>2019-05-25T12:53:31Z</time>
      </trkpt>
      <trkpt lat="41.4247270" lon="-4.7383410">
        <ele>749.0</ele>
        <time>2019-05-25T12:53:32Z</time>
      </trkpt>
      <trkpt lat="41.4250240" lon="-4.7386300">
        <ele>748.8</ele>
        <time>2019-05-25T12:53:37Z</time>
      </trkpt>
      <trkpt lat="41.4250830" lon="-4.7386850">
        <ele>748.8</ele>
        <time>2019-05-25T12:53:38Z</time>
      </trkpt>
      <trkpt lat="41.4253840" lon="-4.7389520">
        <ele>748.6</ele>
        <time>2019-05-25T12:53:43Z</time>
      </trkpt>
      <trkpt lat="41.4258050" lon="-4.7392780">
        <ele>748.6</ele>
        <time>2019-05-25T12:53:50Z</time>
      </trkpt>
      <trkpt lat="41.4260730" lon="-4.7396680">
        <ele>749.4</ele>
        <time>2019-05-25T12:53:56Z</time>
      </trkpt>
      <trkpt lat="41.4264010" lon="-4.7401190">
        <ele>749.4</ele>
        <time>2019-05-25T12:54:03Z</time>
      </trkpt>
      <trkpt lat="41.4267830" lon="-4.7406310">
        <ele>749.4</ele>
        <time>2019-05-25T12:54:11Z</time>
      </trkpt>
      <trkpt lat="41.4271280" lon="-4.7409590">
        <ele>749.4</ele>
        <time>2019-05-25T12:54:17Z</time>
      </trkpt>
      <trkpt lat="41.4232310" lon="-4.7371670">
        <ele>709.9</ele>
        <time>2019-05-25T12:53:01Z</time>
      </trkpt>
      <trkpt lat="41.4233400" lon="-4.7371970">
        <ele>710.0</ele>
        <time>2019-05-25T12:53:03Z</time>
      </trkpt>
      <trkpt lat="41.4233900" lon="-4.7372090">
        <ele>710.0</ele>
        <time>2019-05-25T12:53:04Z</time>
      </trkpt>
      <trkpt lat="41.4234400" lon="-4.7372280">
        <ele>710.0</ele>
        <time>2019-05-25T12:53:05Z</time>
      </trkpt>
      <trkpt lat="41.4234910" lon="-4.7372530">
        <ele>710.0</ele>
        <time>2019-05-25T12:53:06Z</time>
      </trkpt>
      <trkpt lat="41.4235340" lon="-4.7372800">
        <ele>710.0</ele>
        <time>2019-05-25T12:53:07Z</time>
      </trkpt>
      <trkpt lat="41.4235750" lon="-4.7373170">
        <ele>710.0</ele>
        <time>2019-05-25T12:53:08Z</time>
      </trkpt>
      <trkpt lat="41.4236190" lon="-4.7373590">
        <ele>710.0</ele>
        <time>2019-05-25T12:53:09Z</time>
      </trkpt>
      <trkpt lat="41.4236620" lon="-4.7373980">
        <ele>710.0</ele>
        <time>2019-05-25T12:53:10Z</time>
      </trkpt>
      <trkpt lat="41.4237070" lon="-4.7374400">
        <ele>710.0</ele>
        <time>2019-05-25T12:53:11Z</time>
      </trkpt>
      <trkpt lat="41.4237540" lon="-4.7374810">
        <ele>710.0</ele>
        <time>2019-05-25T12:53:12Z</time>
      </trkpt>
      <trkpt lat="41.4237990" lon="-4.7375260">
        <ele>710.0</ele>
        <time>2019-05-25T12:53:13Z</time>
      </trkpt>
      <trkpt lat="41.4238450" lon="-4.7375620">
        <ele>710.0</ele>
        <time>2019-05-25T12:53:14Z</time>
      </trkpt>
      <trkpt lat="41.4238930" lon="-4.7376070">
        <ele>710.1</ele>
        <time>2019-05-25T12:53:15Z</time>
      </trkpt>
      <trkpt lat="41.4239410" lon="-4.7376430">
        <ele>710.1</ele>
        <time>2019-05-25T12:53:16Z</time>
      </trkpt>
      <trkpt lat="41.4239910" lon="-4.7376780">
        <ele>710.1</ele>
        <time>2019-05-25T12:53:17Z</time>
      </trkpt>
      <trkpt lat="41.4240380" lon="-4.7377160">
        <ele>710.1</ele>
        <time>2019-05-25T12:53:18Z</time>
      </trkpt>
      <trkpt lat="41.4240830" lon="-4.7377660">
        <ele>710.2</ele>
        <time>2019-05-25T12:53:19Z</time>
      </trkpt>
      <trkpt lat="41.4241340" lon="-4.7378090">
        <ele>710.2</ele>
        <time>2019-05-25T12:53:20Z</time>
      </trkpt>
      <trkpt lat="41.4241810" lon="-4.7378380">
        <ele>710.1</ele>
        <time>2019-05-25T12:53:21Z</time>
      </trkpt>
      <trkpt lat="41.4242240" lon="-4.7378830">
        <ele>710.0</ele>
        <time>2019-05-25T12:53:22Z</time>
      </trkpt>
      <trkpt lat="41.4242700" lon="-4.7379250">
        <ele>710.0</ele>
        <time>2019-05-25T12:53:23Z</time>
      </trkpt>
      <trkpt lat="41.4243200" lon="-4.7379640">
        <ele>710.2</ele>
        <time>2019-05-25T12:53:24Z</time>
      </trkpt>
      <trkpt lat="41.4243650" lon="-4.7380140">
        <ele>710.4</ele>
        <time>2019-05-25T12:53:25Z</time>
      </trkpt>
      <trkpt lat="41.4244140" lon="-4.7380650">
        <ele>710.5</ele>
        <time>2019-05-25T12:53:26Z</time>
      </trkpt>
      <trkpt lat="41.4244650" lon="-4.7381310">
        <ele>710.6</ele>
        <time>2019-05-25T12:53:27Z</time>
      </trkpt>
      <trkpt lat="41.4245170" lon="-4.7381700">
        <ele>710.6</ele>
        <time>2019-05-25T12:53:28Z</time>
      </trkpt>
      <trkpt lat="41.4245770" lon="-4.7382390">
        <ele>710.6</ele>
        <time>2019-05-25T12:53:29Z</time>
      </trkpt>
      <trkpt lat="41.4246370" lon="-4.7382830">
        <ele>710.7</ele>
        <time>2019-05-25T12:53:30Z</time>
      </trkpt>
      <trkpt lat="41.4247020" lon="-4.7383250">
        <ele>710.7</ele>
        <time>2019-05-25T12:53:31Z</time>
      </trkpt>
      <trkpt lat="41.4247550" lon="-4.7383940">
        <ele>710.7</ele>
        <time>2019-05-25T12:53:32Z</time>
      </trkpt>
      <trkpt lat="41.4248130" lon="-4.7384320">
        <ele>710.5</ele>
        <time>2019-05-25T12:53:33Z</time>
      </trkpt>
      <trkpt lat="41.4248680" lon="-4.7384910">
        <ele>710.2</ele>
        <time>2019-05-25T12:53:34Z</time>
      </trkpt>
      <trkpt lat="41.4249150" lon="-4.7385450">
        <ele>709.9</ele>
        <time>2019-05-25T12:53:35Z</time>
      </trkpt>
      <trkpt lat="41.4249770" lon="-4.7385900">
        <ele>709.6</ele>
        <time>2019-05-25T12:53:36Z</time>
      </trkpt>
      <trkpt lat="41.4250420" lon="-4.7386210">
        <ele>709.3</ele>
        <time>2019-05-25T12:53:37Z</time>
      </trkpt>
      <trkpt lat="41.4250940" lon="-4.7387470">
        <ele>708.8</ele>
        <time>2019-05-25T12:53:38Z</time>
      </trkpt>
      <trkpt lat="41.4251540" lon="-4.7387800">
        <ele>708.5</ele>
        <time>2019-05-25T12:53:39Z</time>
      </trkpt>
      <trkpt lat="41.4252110" lon="-4.7388210">
        <ele>708.5</ele>
        <time>2019-05-25T12:53:40Z</time>
      </trkpt>
      <trkpt lat="41.4252590" lon="-4.7388810">
        <ele>708.5</ele>
        <time>2019-05-25T12:53:41Z</time>
      </trkpt>
      <trkpt lat="41.4253240" lon="-4.7389370">
        <ele>708.5</ele>
        <time>2019-05-25T12:53:42Z</time>
      </trkpt>
      <trkpt lat="41.4253890" lon="-4.7390140">
        <ele>708.4</ele>
        <time>2019-05-25T12:53:43Z</time>
      </trkpt>
      <trkpt lat="41.4254390" lon="-4.7390880">
        <ele>708.4</ele>
        <time>2019-05-25T12:53:44Z</time>
      </trkpt>
      <trkpt lat="41.4254890" lon="-4.7391400">
        <ele>708.4</ele>
        <time>2019-05-25T12:53:45Z</time>
      </trkpt>
      <trkpt lat="41.4255520" lon="-4.7391690">
        <ele>708.3</ele>
        <time>2019-05-25T12:53:46Z</time>
      </trkpt>
      <trkpt lat="41.4256210" lon="-4.7391720">
        <ele>708.4</ele>
        <time>2019-05-25T12:53:47Z</time>
      </trkpt>
      <trkpt lat="41.4256750" lon="-4.7392410">
        <ele>708.4</ele>
        <time>2019-05-25T12:53:48Z</time>
      </trkpt>
      <trkpt lat="41.4257270" lon="-4.7392900">
        <ele>708.5</ele>
        <time>2019-05-25T12:53:49Z</time>
      </trkpt>
      <trkpt lat="41.4257810" lon="-4.7393350">
        <ele>708.6</ele>
        <time>2019-05-25T12:53:50Z</time>
      </trkpt>
      <trkpt lat="41.4258220" lon="-4.7394010">
        <ele>708.6</ele>
        <time>2019-05-25T12:53:51Z</time>
      </trkpt>
      <trkpt lat="41.4258670" lon="-4.7394560">
        <ele>708.7</ele>
        <time>2019-05-25T12:53:52Z</time>
      </trkpt>
      <trkpt lat="41.4259050" lon="-4.7395140">
        <ele>708.8</ele>
        <time>2019-05-25T12:53:53Z</time>
      </trkpt>
      <trkpt lat="41.4259830" lon="-4.7395570">
        <ele>708.8</ele>
        <time>2019-05-25T12:53:54Z</time>
      </trkpt>
      <trkpt lat="41.4260530" lon="-4.7395860">
        <ele>708.9</ele>
        <time>2019-05-25T12:53:55Z</time>
      </trkpt>
      <trkpt lat="41.4260750" lon="-4.7396800">
        <ele>709.0</ele>
        <time>2019-05-25T12:53:56Z</time>
      </trkpt>
      <trkpt lat="41.4261110" lon="-4.7397190">
        <ele>709.1</ele>
        <time>2019-05-25T12:53:57Z</time>
      </trkpt>
      <trkpt lat="41.4261710" lon="-4.7397800">
        <ele>709.3</ele>
        <time>2019-05-25T12:53:58Z</time>
      </trkpt>
      <trkpt lat="41.4262120" lon="-4.7398500">
        <ele>709.4</ele>
        <time>2019-05-25T12:53:59Z</time>
      </trkpt>
      <trkpt lat="41.4262660" lon="-4.7399340">
        <ele>709.7</ele>
        <time>2019-05-25T12:54:00Z</time>
      </trkpt>
      <trkpt lat="41.4263160" lon="-4.7399760">
        <ele>709.8</ele>
        <time>2019-05-25T12:54:01Z</time>
      </trkpt>
      <trkpt lat="41.4263580" lon="-4.7400280">
        <ele>709.9</ele>
        <time>2019-05-25T12:54:02Z</time>
      </trkpt>
      <trkpt lat="41.4264130" lon="-4.7401090">
        <ele>710.0</ele>
        <time>2019-05-25T12:54:03Z</time>
      </trkpt>
      <trkpt lat="41.4264640" lon="-4.7401860">
        <ele>710.1</ele>
        <time>2019-05-25T12:54:04Z</time>
      </trkpt>
      <trkpt lat="41.4265090" lon="-4.7402660">
        <ele>710.0</ele>
        <time>2019-05-25T12:54:05Z</time>
      </trkpt>
      <trkpt lat="41.4265500" lon="-4.7403020">
        <ele>709.9</ele>
        <time>2019-05-25T12:54:06Z</time>
      </trkpt>
      <trkpt lat="41.4266040" lon="-4.7403720">
        <ele>709.7</ele>
        <time>2019-05-25T12:54:07Z</time>
      </trkpt>
      <trkpt lat="41.4266640" lon="-4.7404600">
        <ele>709.4</ele>
        <time>2019-05-25T12:54:08Z</time>
      </trkpt>
      <trkpt lat="41.4267210" lon="-4.7404940">
        <ele>709.3</ele>
        <time>2019-05-25T12:54:09Z</time>
      </trkpt>
      <trkpt lat="41.4267740" lon="-4.7405750">
        <ele>709.0</ele>
        <time>2019-05-25T12:54:10Z</time>
      </trkpt>
      <trkpt lat="41.4268280" lon="-4.7406680">
        <ele>708.7</ele>
        <time>2019-05-25T12:54:11Z</time>
      </trkpt>
      <trkpt lat="41.4268820" lon="-4.7407250">
        <ele>708.7</ele>
        <time>2019-05-25T12:54:12Z</time>
      </trkpt>
      <trkpt lat="41.4269270" lon="-4.7407860">
        <ele>708.5</ele>
        <time>2019-05-25T12:54:13Z</time>
      </trkpt>
      <trkpt lat="41.4269840" lon="-4.7408380">
        <ele>708.3</ele>
        <time>2019-05-25T12:54:14Z</time>
      </trkpt>
      <trkpt lat="41.4270450" lon="-4.7409060">
        <ele>708.1</ele>
        <time>2019-05-25T12:54:15Z</time>
      </trkpt>
      <trkpt lat="41.4270860" lon="-4.7409570">
        <ele>708.0</ele>
        <time>2019-05-25T12:54:16Z</time>
      </trkpt>
      <trkpt lat="41.4271410" lon="-4.7410010">
        <ele>707.7</ele>
        <time>2019-05-25T12:54:17Z</time>
      </trkpt>
      <trkpt lat="41.4271990" lon="-4.7410420">
        <ele>707.6</ele>
        <time>2019-05-25T12:54:18Z</time>
      </trkpt>
      <trkpt lat="41.4272570" lon="-4.7410660">
        <ele>707.3</ele>
        <time>2019-05-25T12:54:19Z</time>
      </trkpt>
      <trkpt lat="41.4273130" lon="-4.7410890">
        <ele>707.1</ele>
        <time>2019-05-25T12:54:20Z</time>
      </trkpt>
      <trkpt lat="41.4273670" lon="-4.7411470">
        <ele>706.9</ele>
        <time>2019-05-25T12:54:21Z</time>
      </trkpt>
      <trkpt lat="41.4274170" lon="-4.7411850">
        <ele>706.7</ele>
        <time>2019-05-25T12:54:22Z</time>
      </trkpt>
      <trkpt lat="41.4274750" lon="-4.7411860">
        <ele>706.5</ele>
        <time>2019-05-25T12:54:23Z</time>
      </trkpt>
      <trkpt lat="41.4275280" lon="-4.7412230">
        <ele>706.4</ele>
        <time>2019-05-25T12:54:24Z</time>
      </trkpt>
      <trkpt lat="41.4275870" lon="-4.7412450">
        <ele>706.2</ele>
        <time>2019-05-25T12:54:25Z</time>
      </trkpt>
      <trkpt lat="41.4276460" lon="-4.7412950">
        <ele>706.0</ele>
        <time>2019-05-25T12:54:26Z</time>
      </trkpt>
      <trkpt lat="41.4277090" lon="-4.7413260">
        <ele>705.9</ele>
        <time>2019-05-25T12:54:27Z</time>
      </trkpt>
      <trkpt lat="41.4277690" lon="-4.7413850">
        <ele>705.8</ele>
        <time>2019-05-25T12:54:28Z</time>
      </trkpt>
      <trkpt lat="41.4278230" lon="-4.7414370">
        <ele>705.7</ele>
        <time>2019-05-25T12:54:29Z</time>
      </trkpt>
      <trkpt lat="41.4278730" lon="-4.7414890">
        <ele>705.7</ele>
        <time>2019-05-25T12:54:30Z</time>
      </trkpt>
      <trkpt lat="41.4279340" lon="-4.7415270">
        <ele>705.6</ele>
        <time>2019-05-25T12:54:31Z</time>
      </trkpt>
      <trkpt lat="41.4279880" lon="-4.7415450">
        <ele>705.5</ele>
        <time>2019-05-25T12:54:32Z</time>
      </trkpt>
      <trkpt lat="41.4280070" lon="-4.7415880">
        <ele>705.5</ele>
        <time>2019-05-25T12:54:33Z</time>
      </trkpt>
      <trkpt lat="41.4280510" lon="-4.7416360">
        <ele>705.3</ele>
        <time>2019-05-25T12:54:34Z</time>
      </trkpt>
      <trkpt lat="41.4280750" lon="-4.7416840">
        <ele>705.3</ele>
        <time>2019-05-25T12:54:35Z</time>
      </trkpt>
      <trkpt lat="41.4281010" lon="-4.7417140">
        <ele>705.2</ele>
        <time>2019-05-25T12:54:36Z</time>
      </trkpt>
      <trkpt lat="41.4281550" lon="-4.7417760">
        <ele>705.1</ele>
        <time>2019-05-25T12:54:38Z</time>
      </trkpt>
      <trkpt lat="41.4281990" lon="-4.7418330">
        <ele>704.9</ele>
        <time>2019-05-25T12:54:39Z</time>
      </trkpt>
      <trkpt lat="41.4282310" lon="-4.7418550">
        <ele>704.8</ele>
        <time>2019-05-25T12:54:40Z</time>
      </trkpt>
      <trkpt lat="41.4282590" lon="-4.7418800">
        <ele>704.7</ele>
        <time>2019-05-25T12:54:41Z</time>
      </trkpt>
      <trkpt lat="41.4282880" lon="-4.7419200">
        <ele>704.6</ele>
        <time>2019-05-25T12:54:42Z</time>
      </trkpt>
      <trkpt lat="41.4283210" lon="-4.7419760">
        <ele>704.6</ele>
        <time>2019-05-25T12:54:43Z</time>
      </trkpt>
      <trkpt lat="41.4283610" lon="-4.7420300">
        <ele>704.5</ele>
        <time>2019-05-25T12:54:44Z</time>
      </trkpt>
      <trkpt lat="41.4283970" lon="-4.7420800">
        <ele>704.5</ele>
        <time>2019-05-25T12:54:45Z</time>
      </trkpt>
      <trkpt lat="41.4284460" lon="-4.7421480">
        <ele>704.5</ele>
        <time>2019-05-25T12:54:46Z</time>
      </trkpt>
      <trkpt lat="41.4284880" lon="-4.7421890">
        <ele>704.5</ele>
        <time>2019-05-25T12:54:47Z</time>
      </trkpt>
      <trkpt lat="41.4285400" lon="-4.7422410">
        <ele>704.7</ele>
        <time>2019-05-25T12:54:48Z</time>
      </trkpt>
      <trkpt lat="41.4286000" lon="-4.7423110">
        <ele>704.9</ele>
        <time>2019-05-25T12:54:49Z</time>
      </trkpt>
      <trkpt lat="41.4286470" lon="-4.7423600">
        <ele>705.0</ele>
        <time>2019-05-25T12:54:50Z</time>
      </trkpt>
      <trkpt lat="41.4286950" lon="-4.7424230">
        <ele>705.0</ele>
        <time>2019-05-25T12:54:51Z</time>
      </trkpt>
      <trkpt lat="41.4287320" lon="-4.7424660">
        <ele>705.0</ele>
        <time>2019-05-25T12:54:52Z</time>
      </trkpt>
      <trkpt lat="41.4287750" lon="-4.7425280">
        <ele>705.0</ele>
        <time>2019-05-25T12:54:53Z</time>
      </trkpt>
      <trkpt lat="41.4288130" lon="-4.7425820">
        <ele>705.0</ele>
        <time>2019-05-25T12:54:54Z</time>
      </trkpt>
      <trkpt lat="41.4288540" lon="-4.7426330">
        <ele>705.0</ele>
        <time>2019-05-25T12:54:55Z</time>
      </trkpt>
      <trkpt lat="41.4289040" lon="-4.7426770">
        <ele>704.9</ele>
        <time>2019-05-25T12:54:56Z</time>
      </trkpt>
      <trkpt lat="41.4289480" lon="-4.7427380">
        <ele>704.9</ele>
        <time>2019-05-25T12:54:57Z</time>
      </trkpt>
      <trkpt lat="41.4290000" lon="-4.7428000">
        <ele>704.8</ele>
        <time>2019-05-25T12:54:58Z</time>
      </trkpt>
      <trkpt lat="41.4290550" lon="-4.7428600">
        <ele>704.7</ele>
        <time>2019-05-25T12:54:59Z</time>
      </trkpt>
      <trkpt lat="41.4290810" lon="-4.7429070">
        <ele>704.7</ele>
        <time>2019-05-25T12:55:00Z</time>
      </trkpt>
      <trkpt lat="41.4291180" lon="-4.7429570">
        <ele>704.6</ele>
        <time>2019-05-25T12:55:01Z</time>
      </trkpt>
      <trkpt lat="41.4291560" lon="-4.7429980">
        <ele>704.6</ele>
        <time>2019-05-25T12:55:02Z</time>
      </trkpt>
      <trkpt lat="41.4291960" lon="-4.7430420">
        <ele>704.6</ele>
        <time>2019-05-25T12:55:03Z</time>
      </trkpt>
      <trkpt lat="41.4292420" lon="-4.7430820">
        <ele>704.6</ele>
        <time>2019-05-25T12:55:04Z</time>
      </trkpt>
      <trkpt lat="41.4292810" lon="-4.7431640">
        <ele>704.6</ele>
        <time>2019-05-25T12:55:05Z</time>
      </trkpt>
      <trkpt lat="41.4293360" lon="-4.7432200">
        <ele>704.7</ele>
        <time>2019-05-25T12:55:06Z</time>
      </trkpt>
      <trkpt lat="41.4293840" lon="-4.7432910">
        <ele>704.8</ele>
        <time>2019-05-25T12:55:07Z</time>
      </trkpt>
      <trkpt lat="41.4294360" lon="-4.7433680">
        <ele>704.9</ele>
        <time>2019-05-25T12:55:08Z</time>
      </trkpt>
      <trkpt lat="41.4294730" lon="-4.7434340">
        <ele>705.0</ele>
        <time>2019-05-25T12:55:09Z</time>
      </trkpt>
      <trkpt lat="41.4295250" lon="-4.7434850">
        <ele>705.3</ele>
        <time>2019-05-25T12:55:10Z</time>
      </trkpt>
      <trkpt lat="41.4295830" lon="-4.7435230">
        <ele>705.7</ele>
        <time>2019-05-25T12:55:11Z</time>
      </trkpt>
      <trkpt lat="41.4296360" lon="-4.7436140">
        <ele>706.1</ele>
        <time>2019-05-25T12:55:12Z</time>
      </trkpt>
      <trkpt lat="41.4296680" lon="-4.7436440">
        <ele>706.4</ele>
        <time>2019-05-25T12:55:13Z</time>
      </trkpt>
      <trkpt lat="41.4297190" lon="-4.7437170">
        <ele>706.7</ele>
        <time>2019-05-25T12:55:14Z</time>
      </trkpt>
      <trkpt lat="41.4297700" lon="-4.7438120">
        <ele>706.8</ele>
        <time>2019-05-25T12:55:15Z</time>
      </trkpt>
      <trkpt lat="41.4298050" lon="-4.7438500">
        <ele>706.8</ele>
        <time>2019-05-25T12:55:16Z</time>
      </trkpt>
      <trkpt lat="41.4298590" lon="-4.7438720">
        <ele>707.0</ele>
        <time>2019-05-25T12:55:17Z</time>
      </trkpt>
      <trkpt lat="41.4299110" lon="-4.7438770">
        <ele>706.9</ele>
        <time>2019-05-25T12:55:18Z</time>
      </trkpt>
      <trkpt lat="41.4299690" lon="-4.7439170">
        <ele>706.8</ele>
        <time>2019-05-25T12:55:19Z</time>
      </trkpt>
      <trkpt lat="41.4300100" lon="-4.7439410">
        <ele>706.8</ele>
        <time>2019-05-25T12:55:20Z</time>
      </trkpt>
      <trkpt lat="41.4300720" lon="-4.7439700">
        <ele>706.6</ele>
        <time>2019-05-25T12:55:21Z</time>
      </trkpt>
      <trkpt lat="41.4301350" lon="-4.7439810">
        <ele>707.2</ele>
        <time>2019-05-25T12:55:22Z</time>
      </trkpt>
      <trkpt lat="41.4301880" lon="-4.7440040">
        <ele>707.4</ele>
        <time>2019-05-25T12:55:23Z</time>
      </trkpt>
      <trkpt lat="41.4302550" lon="-4.7440110">
        <ele>707.4</ele>
        <time>2019-05-25T12:55:24Z</time>
      </trkpt>
      <trkpt lat="41.4303240" lon="-4.7440360">
        <ele>707.4</ele>
        <time>2019-05-25T12:55:25Z</time>
      </trkpt>
      <trkpt lat="41.4303740" lon="-4.7440600">
        <ele>707.4</ele>
        <time>2019-05-25T12:55:26Z</time>
      </trkpt>
      <trkpt lat="41.4304240" lon="-4.7440920">
        <ele>707.4</ele>
        <time>2019-05-25T12:55:27Z</time>
      </trkpt>
      <trkpt lat="41.4304830" lon="-4.7441260">
        <ele>707.4</ele>
        <time>2019-05-25T12:55:28Z</time>
      </trkpt>
      <trkpt lat="41.4305390" lon="-4.7441720">
        <ele>707.2</ele>
        <time>2019-05-25T12:55:29Z</time>
      </trkpt>
      <trkpt lat="41.4305980" lon="-4.7442260">
        <ele>707.1</ele>
        <time>2019-05-25T12:55:30Z</time>
      </trkpt>
      <trkpt lat="41.4306510" lon="-4.7442750">
        <ele>707.0</ele>
        <time>2019-05-25T12:55:31Z</time>
      </trkpt>
      <trkpt lat="41.4307040" lon="-4.7443130">
        <ele>706.8</ele>
        <time>2019-05-25T12:55:32Z</time>
      </trkpt>
      <trkpt lat="41.4307600" lon="-4.7443400">
        <ele>706.8</ele>
        <time>2019-05-25T12:55:33Z</time>
      </trkpt>
      <trkpt lat="41.4308180" lon="-4.7443800">
        <ele>706.6</ele>
        <time>2019-05-25T12:55:34Z</time>
      </trkpt>
      <trkpt lat="41.4308800" lon="-4.7444350">
        <ele>706.5</ele>
        <time>2019-05-25T12:55:35Z</time>
      </trkpt>
      <trkpt lat="41.4309400" lon="-4.7444750">
        <ele>706.4</ele>
        <time>2019-05-25T12:55:36Z</time>
      </trkpt>
      <trkpt lat="41.4310020" lon="-4.7445160">
        <ele>706.4</ele>
        <time>2019-05-25T12:55:37Z</time>
      </trkpt>
      <trkpt lat="41.4310620" lon="-4.7445590">
        <ele>706.3</ele>
        <time>2019-05-25T12:55:38Z</time>
      </trkpt>
      <trkpt lat="41.4311260" lon="-4.7446000">
        <ele>706.3</ele>
        <time>2019-05-25T12:55:39Z</time>
      </trkpt>
      <trkpt lat="41.4311910" lon="-4.7446440">
        <ele>706.2</ele>
        <time>2019-05-25T12:55:40Z</time>
      </trkpt>
      <trkpt lat="41.4312520" lon="-4.7446770">
        <ele>706.2</ele>
        <time>2019-05-25T12:55:41Z</time>
      </trkpt>
      <trkpt lat="41.4313090" lon="-4.7447100">
        <ele>706.2</ele>
        <time>2019-05-25T12:55:42Z</time>
      </trkpt>
      <trkpt lat="41.4313750" lon="-4.7447550">
        <ele>706.2</ele>
        <time>2019-05-25T12:55:43Z</time>
      </trkpt>
      <trkpt lat="41.4314400" lon="-4.7448140">
        <ele>706.4</ele>
        <time>2019-05-25T12:55:44Z</time>
      </trkpt>
      <trkpt lat="41.4314990" lon="-4.7448430">
        <ele>706.3</ele>
        <time>2019-05-25T12:55:45Z</time>
      </trkpt>
      <trkpt lat="41.4315620" lon="-4.7448650">
        <ele>706.3</ele>
        <time>2019-05-25T12:55:46Z</time>
      </trkpt>
      <trkpt lat="41.4316250" lon="-4.7449070">
        <ele>706.3</ele>
        <time>2019-05-25T12:55:47Z</time>
      </trkpt>
      <trkpt lat="41.4316880" lon="-4.7449460">
        <ele>706.3</ele>
        <time>2019-05-25T12:55:48Z</time>
      </trkpt>
      <trkpt lat="41.4317520" lon="-4.7450020">
        <ele>706.4</ele>
        <time>2019-05-25T12:55:49Z</time>
      </trkpt>
      <trkpt lat="41.4318090" lon="-4.7450440">
        <ele>706.4</ele>
        <time>2019-05-25T12:55:50Z</time>
      </trkpt>
      <trkpt lat="41.4318670" lon="-4.7450900">
        <ele>706.5</ele>
        <time>2019-05-25T12:55:51Z</time>
      </trkpt>
      <trkpt lat="41.4319240" lon="-4.7451450">
        <ele>706.6</ele>
        <time>2019-05-25T12:55:52Z</time>
      </trkpt>
      <trkpt lat="41.4319740" lon="-4.7451840">
        <ele>706.7</ele>
        <time>2019-05-25T12:55:53Z</time>
      </trkpt>
      <trkpt lat="41.4320320" lon="-4.7452160">
        <ele>706.8</ele>
        <time>2019-05-25T12:55:54Z</time>
      </trkpt>
      <trkpt lat="41.4320980" lon="-4.7452370">
        <ele>706.7</ele>
        <time>2019-05-25T12:55:55Z</time>
      </trkpt>
      <trkpt lat="41.4321540" lon="-4.7452740">
        <ele>706.8</ele>
        <time>2019-05-25T12:55:56Z</time>
      </trkpt>
      <trkpt lat="41.4322150" lon="-4.7453050">
        <ele>706.8</ele>
        <time>2019-05-25T12:55:57Z</time>
      </trkpt>
      <trkpt lat="41.4322810" lon="-4.7453300">
        <ele>706.9</ele>
        <time>2019-05-25T12:55:58Z</time>
      </trkpt>
      <trkpt lat="41.4323470" lon="-4.7453710">
        <ele>706.9</ele>
        <time>2019-05-25T12:55:59Z</time>
      </trkpt>
      <trkpt lat="41.4324070" lon="-4.7454080">
        <ele>706.9</ele>
        <time>2019-05-25T12:56:00Z</time>
      </trkpt>
      <trkpt lat="41.4324700" lon="-4.7454430">
        <ele>706.8</ele>
        <time>2019-05-25T12:56:01Z</time>
      </trkpt>
      <trkpt lat="41.4325340" lon="-4.7454790">
        <ele>706.7</ele>
        <time>2019-05-25T12:56:02Z</time>
      </trkpt>
      <trkpt lat="41.4325900" lon="-4.7455210">
        <ele>706.6</ele>
        <time>2019-05-25T12:56:03Z</time>
      </trkpt>
      <trkpt lat="41.4326510" lon="-4.7455750">
        <ele>706.5</ele>
        <time>2019-05-25T12:56:04Z</time>
      </trkpt>
      <trkpt lat="41.4327140" lon="-4.7456130">
        <ele>706.4</ele>
        <time>2019-05-25T12:56:05Z</time>
      </trkpt>
      <trkpt lat="41.4327700" lon="-4.7456450">
        <ele>706.3</ele>
        <time>2019-05-25T12:56:06Z</time>
      </trkpt>
      <trkpt lat="41.4328300" lon="-4.7456800">
        <ele>706.1</ele>
        <time>2019-05-25T12:56:07Z</time>
      </trkpt>
      <trkpt lat="41.4328850" lon="-4.7457220">
        <ele>706.0</ele>
        <time>2019-05-25T12:56:08Z</time>
      </trkpt>
      <trkpt lat="41.4329440" lon="-4.7457650">
        <ele>705.8</ele>
        <time>2019-05-25T12:56:09Z</time>
      </trkpt>
      <trkpt lat="41.4330020" lon="-4.7458080">
        <ele>705.7</ele>
        <time>2019-05-25T12:56:10Z</time>
      </trkpt>
      <trkpt lat="41.4330650" lon="-4.7458510">
        <ele>705.6</ele>
        <time>2019-05-25T12:56:11Z</time>
      </trkpt>
      <trkpt lat="41.4331210" lon="-4.7459030">
        <ele>705.6</ele>
        <time>2019-05-25T12:56:12Z</time>
      </trkpt>
      <trkpt lat="41.4331790" lon="-4.7459440">
        <ele>705.5</ele>
        <time>2019-05-25T12:56:13Z</time>
      </trkpt>
      <trkpt lat="41.4332380" lon="-4.7459880">
        <ele>705.4</ele>
        <time>2019-05-25T12:56:14Z</time>
      </trkpt>
      <trkpt lat="41.4332980" lon="-4.7460330">
        <ele>705.3</ele>
        <time>2019-05-25T12:56:15Z</time>
      </trkpt>
      <trkpt lat="41.4333540" lon="-4.7460720">
        <ele>705.2</ele>
        <time>2019-05-25T12:56:16Z</time>
      </trkpt>
      <trkpt lat="41.4334140" lon="-4.7461170">
        <ele>705.2</ele>
        <time>2019-05-25T12:56:17Z</time>
      </trkpt>
      <trkpt lat="41.4334690" lon="-4.7461760">
        <ele>705.2</ele>
        <time>2019-05-25T12:56:18Z</time>
      </trkpt>
      <trkpt lat="41.4335190" lon="-4.7462210">
        <ele>705.2</ele>
        <time>2019-05-25T12:56:19Z</time>
      </trkpt>
      <trkpt lat="41.4335790" lon="-4.7462630">
        <ele>705.2</ele>
        <time>2019-05-25T12:56:20Z</time>
      </trkpt>
      <trkpt lat="41.4336260" lon="-4.7463090">
        <ele>705.2</ele>
        <time>2019-05-25T12:56:21Z</time>
      </trkpt>
      <trkpt lat="41.4336820" lon="-4.7463470">
        <ele>705.2</ele>
        <time>2019-05-25T12:56:22Z</time>
      </trkpt>
      <trkpt lat="41.4337390" lon="-4.7463970">
        <ele>705.1</ele>
        <time>2019-05-25T12:56:23Z</time>
      </trkpt>
      <trkpt lat="41.4337990" lon="-4.7464310">
        <ele>704.8</ele>
        <time>2019-05-25T12:56:24Z</time>
      </trkpt>
      <trkpt lat="41.4338610" lon="-4.7464710">
        <ele>704.7</ele>
        <time>2019-05-25T12:56:25Z</time>
      </trkpt>
      <trkpt lat="41.4339170" lon="-4.7465120">
        <ele>704.6</ele>
        <time>2019-05-25T12:56:26Z</time>
      </trkpt>
      <trkpt lat="41.4339810" lon="-4.7465620">
        <ele>704.4</ele>
        <time>2019-05-25T12:56:27Z</time>
      </trkpt>
      <trkpt lat="41.4340360" lon="-4.7465990">
        <ele>704.1</ele>
        <time>2019-05-25T12:56:28Z</time>
      </trkpt>
      <trkpt lat="41.4340910" lon="-4.7466340">
        <ele>704.2</ele>
        <time>2019-05-25T12:56:29Z</time>
      </trkpt>
      <trkpt lat="41.4341530" lon="-4.7466740">
        <ele>704.2</ele>
        <time>2019-05-25T12:56:30Z</time>
      </trkpt>
      <trkpt lat="41.4342100" lon="-4.7467190">
        <ele>704.3</ele>
        <time>2019-05-25T12:56:31Z</time>
      </trkpt>
      <trkpt lat="41.4342660" lon="-4.7467650">
        <ele>704.3</ele>
        <time>2019-05-25T12:56:32Z</time>
      </trkpt>
      <trkpt lat="41.4343180" lon="-4.7468030">
        <ele>704.4</ele>
        <time>2019-05-25T12:56:33Z</time>
      </trkpt>
      <trkpt lat="41.4343740" lon="-4.7468410">
        <ele>704.6</ele>
        <time>2019-05-25T12:56:34Z</time>
      </trkpt>
      <trkpt lat="41.4344290" lon="-4.7468850">
        <ele>704.8</ele>
        <time>2019-05-25T12:56:35Z</time>
      </trkpt>
      <trkpt lat="41.4344860" lon="-4.7469210">
        <ele>704.9</ele>
        <time>2019-05-25T12:56:36Z</time>
      </trkpt>
      <trkpt lat="41.4345400" lon="-4.7469520">
        <ele>705.0</ele>
        <time>2019-05-25T12:56:37Z</time>
      </trkpt>
      <trkpt lat="41.4345930" lon="-4.7469870">
        <ele>705.1</ele>
        <time>2019-05-25T12:56:38Z</time>
      </trkpt>
      <trkpt lat="41.4346450" lon="-4.7470220">
        <ele>705.3</ele>
        <time>2019-05-25T12:56:39Z</time>
      </trkpt>
      <trkpt lat="41.4346990" lon="-4.7470590">
        <ele>705.5</ele>
        <time>2019-05-25T12:56:40Z</time>
      </trkpt>
      <trkpt lat="41.4347550" lon="-4.7471000">
        <ele>705.6</ele>
        <time>2019-05-25T12:56:41Z</time>
      </trkpt>
      <trkpt lat="41.4348090" lon="-4.7471400">
        <ele>705.8</ele>
        <time>2019-05-25T12:56:42Z</time>
      </trkpt>
      <trkpt lat="41.4348640" lon="-4.7471880">
        <ele>706.0</ele>
        <time>2019-05-25T12:56:43Z</time>
      </trkpt>
      <trkpt lat="41.4349160" lon="-4.7472300">
        <ele>706.1</ele>
        <time>2019-05-25T12:56:44Z</time>
      </trkpt>
      <trkpt lat="41.4349750" lon="-4.7472650">
        <ele>706.2</ele>
        <time>2019-05-25T12:56:45Z</time>
      </trkpt>
      <trkpt lat="41.4350300" lon="-4.7473020">
        <ele>706.2</ele>
        <time>2019-05-25T12:56:46Z</time>
      </trkpt>
      <trkpt lat="41.4350850" lon="-4.7473490">
        <ele>706.3</ele>
        <time>2019-05-25T12:56:47Z</time>
      </trkpt>
      <trkpt lat="41.4351400" lon="-4.7473780">
        <ele>706.3</ele>
        <time>2019-05-25T12:56:48Z</time>
      </trkpt>
      <trkpt lat="41.4351880" lon="-4.7474230">
        <ele>706.4</ele>
        <time>2019-05-25T12:56:49Z</time>
      </trkpt>
      <trkpt lat="41.4352320" lon="-4.7474660">
        <ele>706.5</ele>
        <time>2019-05-25T12:56:50Z</time>
      </trkpt>
      <trkpt lat="41.4352700" lon="-4.7475210">
        <ele>706.4</ele>
        <time>2019-05-25T12:56:51Z</time>
      </trkpt>
      <trkpt lat="41.4353050" lon="-4.7475970">
        <ele>706.5</ele>
        <time>2019-05-25T12:56:52Z</time>
      </trkpt>
      <trkpt lat="41.4353440" lon="-4.7476590">
        <ele>706.4</ele>
        <time>2019-05-25T12:56:53Z</time>
      </trkpt>
      <trkpt lat="41.4353730" lon="-4.7477140">
        <ele>706.3</ele>
        <time>2019-05-25T12:56:54Z</time>
      </trkpt>
      <trkpt lat="41.4354090" lon="-4.7477790">
        <ele>706.2</ele>
        <time>2019-05-25T12:56:55Z</time>
      </trkpt>
      <trkpt lat="41.4354440" lon="-4.7478430">
        <ele>706.2</ele>
        <time>2019-05-25T12:56:56Z</time>
      </trkpt>
      <trkpt lat="41.4354790" lon="-4.7478920">
        <ele>706.1</ele>
        <time>2019-05-25T12:56:57Z</time>
      </trkpt>
      <trkpt lat="41.4355220" lon="-4.7479550">
        <ele>706.0</ele>
        <time>2019-05-25T12:56:58Z</time>
      </trkpt>
      <trkpt lat="41.4355760" lon="-4.7479730">
        <ele>705.9</ele>
        <time>2019-05-25T12:56:59Z</time>
      </trkpt>
      <trkpt lat="41.4356050" lon="-4.7480060">
        <ele>705.9</ele>
        <time>2019-05-25T12:57:00Z</time>
      </trkpt>
      <trkpt lat="41.4356790" lon="-4.7480030">
        <ele>705.8</ele>
        <time>2019-05-25T12:57:01Z</time>
      </trkpt>
      <trkpt lat="41.4357420" lon="-4.7480440">
        <ele>705.7</ele>
        <time>2019-05-25T12:57:02Z</time>
      </trkpt>
      <trkpt lat="41.4357940" lon="-4.7480820">
        <ele>705.7</ele>
        <time>2019-05-25T12:57:03Z</time>
      </trkpt>
      <trkpt lat="41.4358520" lon="-4.7480960">
        <ele>705.6</ele>
        <time>2019-05-25T12:57:04Z</time>
      </trkpt>
      <trkpt lat="41.4358990" lon="-4.7481290">
        <ele>705.6</ele>
        <time>2019-05-25T12:57:05Z</time>
      </trkpt>
      <trkpt lat="41.4359780" lon="-4.7481570">
        <ele>705.6</ele>
        <time>2019-05-25T12:57:06Z</time>
      </trkpt>
      <trkpt lat="41.4360340" lon="-4.7481640">
        <ele>705.6</ele>
        <time>2019-05-25T12:57:07Z</time>
      </trkpt>
      <trkpt lat="41.4360710" lon="-4.7481840">
        <ele>705.6</ele>
        <time>2019-05-25T12:57:08Z</time>
      </trkpt>
      <trkpt lat="41.4361170" lon="-4.7481980">
        <ele>705.6</ele>
        <time>2019-05-25T12:57:09Z</time>
      </trkpt>
      <trkpt lat="41.4361600" lon="-4.7482330">
        <ele>705.6</ele>
        <time>2019-05-25T12:57:10Z</time>
      </trkpt>
      <trkpt lat="41.4362150" lon="-4.7482610">
        <ele>705.7</ele>
        <time>2019-05-25T12:57:11Z</time>
      </trkpt>
      <trkpt lat="41.4362580" lon="-4.7482970">
        <ele>705.7</ele>
        <time>2019-05-25T12:57:12Z</time>
      </trkpt>
      <trkpt lat="41.4363090" lon="-4.7483240">
        <ele>705.7</ele>
        <time>2019-05-25T12:57:13Z</time>
      </trkpt>
      <trkpt lat="41.4363700" lon="-4.7483910">
        <ele>705.8</ele>
        <time>2019-05-25T12:57:14Z</time>
      </trkpt>
      <trkpt lat="41.4364250" lon="-4.7484390">
        <ele>705.9</ele>
        <time>2019-05-25T12:57:15Z</time>
      </trkpt>
      <trkpt lat="41.4364710" lon="-4.7484900">
        <ele>706.0</ele>
        <time>2019-05-25T12:57:16Z</time>
      </trkpt>
      <trkpt lat="41.4365260" lon="-4.7485040">
        <ele>706.1</ele>
        <time>2019-05-25T12:57:17Z</time>
      </trkpt>
      <trkpt lat="41.4365760" lon="-4.7485450">
        <ele>706.3</ele>
        <time>2019-05-25T12:57:18Z</time>
      </trkpt>
      <trkpt lat="41.4366260" lon="-4.7485630">
        <ele>706.4</ele>
        <time>2019-05-25T12:57:19Z</time>
      </trkpt>
      <trkpt lat="41.4366710" lon="-4.7485710">
        <ele>706.5</ele>
        <time>2019-05-25T12:57:20Z</time>
      </trkpt>
      <trkpt lat="41.4367180" lon="-4.7485810">
        <ele>706.5</ele>
        <time>2019-05-25T12:57:21Z</time>
      </trkpt>
      <trkpt lat="41.4367600" lon="-4.7486050">
        <ele>706.6</ele>
        <time>2019-05-25T12:57:22Z</time>
      </trkpt>
      <trkpt lat="41.4368070" lon="-4.7486510">
        <ele>706.7</ele>
        <time>2019-05-25T12:57:23Z</time>
      </trkpt>
      <trkpt lat="41.4368570" lon="-4.7486760">
        <ele>706.8</ele>
        <time>2019-05-25T12:57:24Z</time>
      </trkpt>
      <trkpt lat="41.4369060" lon="-4.7487220">
        <ele>706.9</ele>
        <time>2019-05-25T12:57:25Z</time>
      </trkpt>
      <trkpt lat="41.4369660" lon="-4.7487700">
        <ele>706.9</ele>
        <time>2019-05-25T12:57:26Z</time>
      </trkpt>
      <trkpt lat="41.4370030" lon="-4.7487950">
        <ele>707.0</ele>
        <time>2019-05-25T12:57:27Z</time>
      </trkpt>
      <trkpt lat="41.4370600" lon="-4.7488100">
        <ele>707.0</ele>
        <time>2019-05-25T12:57:29Z</time>
      </trkpt>
      <trkpt lat="41.4371180" lon="-4.7488330">
        <ele>707.0</ele>
        <time>2019-05-25T12:57:30Z</time>
      </trkpt>
      <trkpt lat="41.4371990" lon="-4.7488660">
        <ele>707.0</ele>
        <time>2019-05-25T12:57:31Z</time>
      </trkpt>
      <trkpt lat="41.4372770" lon="-4.7489030">
        <ele>706.9</ele>
        <time>2019-05-25T12:57:32Z</time>
      </trkpt>
      <trkpt lat="41.4373490" lon="-4.7489860">
        <ele>706.9</ele>
        <time>2019-05-25T12:57:33Z</time>
      </trkpt>
      <trkpt lat="41.4373930" lon="-4.7490050">
        <ele>706.9</ele>
        <time>2019-05-25T12:57:34Z</time>
      </trkpt>
      <trkpt lat="41.4374650" lon="-4.7490430">
        <ele>706.9</ele>
        <time>2019-05-25T12:57:35Z</time>
      </trkpt>
      <trkpt lat="41.4375290" lon="-4.7490650">
        <ele>706.8</ele>
        <time>2019-05-25T12:57:36Z</time>
      </trkpt>
      <trkpt lat="41.4375890" lon="-4.7491130">
        <ele>706.8</ele>
        <time>2019-05-25T12:57:37Z</time>
      </trkpt>
      <trkpt lat="41.4376530" lon="-4.7491420">
        <ele>706.7</ele>
        <time>2019-05-25T12:57:38Z</time>
      </trkpt>
      <trkpt lat="41.4376870" lon="-4.7491240">
        <ele>706.7</ele>
        <time>2019-05-25T12:57:39Z</time>
      </trkpt>
      <trkpt lat="41.4377430" lon="-4.7491540">
        <ele>706.7</ele>
        <time>2019-05-25T12:57:40Z</time>
      </trkpt>
      <trkpt lat="41.4377840" lon="-4.7491630">
        <ele>706.6</ele>
        <time>2019-05-25T12:57:41Z</time>
      </trkpt>
      <trkpt lat="41.4378240" lon="-4.7491140">
        <ele>706.5</ele>
        <time>2019-05-25T12:57:44Z</time>
      </trkpt>
      <trkpt lat="41.4378700" lon="-4.7491130">
        <ele>706.5</ele>
        <time>2019-05-25T12:57:46Z</time>
      </trkpt>
      <trkpt lat="41.4379040" lon="-4.7491260">
        <ele>706.5</ele>
        <time>2019-05-25T12:57:47Z</time>
      </trkpt>
      <trkpt lat="41.4379390" lon="-4.7491370">
        <ele>706.4</ele>
        <time>2019-05-25T12:57:48Z</time>
      </trkpt>
      <trkpt lat="41.4379750" lon="-4.7491540">
        <ele>706.4</ele>
        <time>2019-05-25T12:57:49Z</time>
      </trkpt>
      <trkpt lat="41.4380100" lon="-4.7491750">
        <ele>706.4</ele>
        <time>2019-05-25T12:57:50Z</time>
      </trkpt>
      <trkpt lat="41.4380450" lon="-4.7492010">
        <ele>706.3</ele>
        <time>2019-05-25T12:57:51Z</time>
      </trkpt>
      <trkpt lat="41.4381610" lon="-4.7492560">
        <ele>706.2</ele>
        <time>2019-05-25T12:57:52Z</time>
      </trkpt>
      <trkpt lat="41.4384760" lon="-4.7494400">
        <ele>705.7</ele>
        <time>2019-05-25T12:57:54Z</time>
      </trkpt>
      <trkpt lat="41.4385250" lon="-4.7494840">
        <ele>705.6</ele>
        <time>2019-05-25T12:57:55Z</time>
      </trkpt>
      <trkpt lat="41.4385780" lon="-4.7495120">
        <ele>705.5</ele>
        <time>2019-05-25T12:57:56Z</time>
      </trkpt>
      <trkpt lat="41.4386200" lon="-4.7495420">
        <ele>705.5</ele>
        <time>2019-05-25T12:57:57Z</time>
      </trkpt>
      <trkpt lat="41.4386930" lon="-4.7495750">
        <ele>705.3</ele>
        <time>2019-05-25T12:57:58Z</time>
      </trkpt>
      <trkpt lat="41.4387610" lon="-4.7496160">
        <ele>705.2</ele>
        <time>2019-05-25T12:57:59Z</time>
      </trkpt>
      <trkpt lat="41.4388140" lon="-4.7496260">
        <ele>705.2</ele>
        <time>2019-05-25T12:58:00Z</time>
      </trkpt>
      <trkpt lat="41.4388750" lon="-4.7496510">
        <ele>705.1</ele>
        <time>2019-05-25T12:58:01Z</time>
      </trkpt>
      <trkpt lat="41.4389320" lon="-4.7496390">
        <ele>705.1</ele>
        <time>2019-05-25T12:58:02Z</time>
      </trkpt>
      <trkpt lat="41.4389950" lon="-4.7496420">
        <ele>705.1</ele>
        <time>2019-05-25T12:58:03Z</time>
      </trkpt>
      <trkpt lat="41.4390590" lon="-4.7496680">
        <ele>705.1</ele>
        <time>2019-05-25T12:58:04Z</time>
      </trkpt>
      <trkpt lat="41.4391160" lon="-4.7496780">
        <ele>705.1</ele>
        <time>2019-05-25T12:58:05Z</time>
      </trkpt>
      <trkpt lat="41.4391670" lon="-4.7497100">
        <ele>705.0</ele>
        <time>2019-05-25T12:58:06Z</time>
      </trkpt>
      <trkpt lat="41.4392330" lon="-4.7497360">
        <ele>705.0</ele>
        <time>2019-05-25T12:58:07Z</time>
      </trkpt>
      <trkpt lat="41.4392880" lon="-4.7497470">
        <ele>705.0</ele>
        <time>2019-05-25T12:58:08Z</time>
      </trkpt>
      <trkpt lat="41.4393520" lon="-4.7497870">
        <ele>705.0</ele>
        <time>2019-05-25T12:58:09Z</time>
      </trkpt>
      <trkpt lat="41.4394110" lon="-4.7497940">
        <ele>704.9</ele>
        <time>2019-05-25T12:58:10Z</time>
      </trkpt>
      <trkpt lat="41.4394700" lon="-4.7498290">
        <ele>704.9</ele>
        <time>2019-05-25T12:58:11Z</time>
      </trkpt>
      <trkpt lat="41.4395340" lon="-4.7498730">
        <ele>704.9</ele>
        <time>2019-05-25T12:58:12Z</time>
      </trkpt>
      <trkpt lat="41.4395990" lon="-4.7499260">
        <ele>704.8</ele>
        <time>2019-05-25T12:58:13Z</time>
      </trkpt>
      <trkpt lat="41.4396360" lon="-4.7499360">
        <ele>704.8</ele>
        <time>2019-05-25T12:58:14Z</time>
      </trkpt>
      <trkpt lat="41.4396760" lon="-4.7499320">
        <ele>704.8</ele>
        <time>2019-05-25T12:58:16Z</time>
      </trkpt>
      <trkpt lat="41.4397120" lon="-4.7499330">
        <ele>704.8</ele>
        <time>2019-05-25T12:58:17Z</time>
      </trkpt>
      <trkpt lat="41.4397730" lon="-4.7499420">
        <ele>704.7</ele>
        <time>2019-05-25T12:58:18Z</time>
      </trkpt>
      <trkpt lat="41.4398410" lon="-4.7499550">
        <ele>704.7</ele>
        <time>2019-05-25T12:58:19Z</time>
      </trkpt>
      <trkpt lat="41.4399560" lon="-4.7499750">
        <ele>704.6</ele>
        <time>2019-05-25T12:58:20Z</time>
      </trkpt>
      <trkpt lat="41.4400280" lon="-4.7500220">
        <ele>704.6</ele>
        <time>2019-05-25T12:58:21Z</time>
      </trkpt>
      <trkpt lat="41.4401020" lon="-4.7500650">
        <ele>704.5</ele>
        <time>2019-05-25T12:58:22Z</time>
      </trkpt>
      <trkpt lat="41.4401610" lon="-4.7500910">
        <ele>704.5</ele>
        <time>2019-05-25T12:58:23Z</time>
      </trkpt>
      <trkpt lat="41.4402120" lon="-4.7501120">
        <ele>704.4</ele>
        <time>2019-05-25T12:58:24Z</time>
      </trkpt>
      <trkpt lat="41.4402660" lon="-4.7501330">
        <ele>704.3</ele>
        <time>2019-05-25T12:58:25Z</time>
      </trkpt>
      <trkpt lat="41.4403290" lon="-4.7501650">
        <ele>704.3</ele>
        <time>2019-05-25T12:58:26Z</time>
      </trkpt>
      <trkpt lat="41.4403810" lon="-4.7501700">
        <ele>704.2</ele>
        <time>2019-05-25T12:58:27Z</time>
      </trkpt>
      <trkpt lat="41.4404300" lon="-4.7501920">
        <ele>704.2</ele>
        <time>2019-05-25T12:58:28Z</time>
      </trkpt>
      <trkpt lat="41.4404800" lon="-4.7502020">
        <ele>704.2</ele>
        <time>2019-05-25T12:58:29Z</time>
      </trkpt>
      <trkpt lat="41.4405360" lon="-4.7502450">
        <ele>704.1</ele>
        <time>2019-05-25T12:58:30Z</time>
      </trkpt>
      <trkpt lat="41.4405920" lon="-4.7502590">
        <ele>704.1</ele>
        <time>2019-05-25T12:58:31Z</time>
      </trkpt>
      <trkpt lat="41.4406490" lon="-4.7502780">
        <ele>704.1</ele>
        <time>2019-05-25T12:58:32Z</time>
      </trkpt>
      <trkpt lat="41.4407050" lon="-4.7503130">
        <ele>704.0</ele>
        <time>2019-05-25T12:58:33Z</time>
      </trkpt>
      <trkpt lat="41.4407630" lon="-4.7503300">
        <ele>704.1</ele>
        <time>2019-05-25T12:58:34Z</time>
      </trkpt>
      <trkpt lat="41.4408170" lon="-4.7503670">
        <ele>704.1</ele>
        <time>2019-05-25T12:58:35Z</time>
      </trkpt>
      <trkpt lat="41.4408710" lon="-4.7503870">
        <ele>704.1</ele>
        <time>2019-05-25T12:58:36Z</time>
      </trkpt>
      <trkpt lat="41.4409220" lon="-4.7504280">
        <ele>704.2</ele>
        <time>2019-05-25T12:58:37Z</time>
      </trkpt>
      <trkpt lat="41.4409810" lon="-4.7504670">
        <ele>704.3</ele>
        <time>2019-05-25T12:58:38Z</time>
      </trkpt>
      <trkpt lat="41.4410320" lon="-4.7504910">
        <ele>704.2</ele>
        <time>2019-05-25T12:58:39Z</time>
      </trkpt>
      <trkpt lat="41.4410840" lon="-4.7505250">
        <ele>704.1</ele>
        <time>2019-05-25T12:58:40Z</time>
      </trkpt>
      <trkpt lat="41.4411320" lon="-4.7505620">
        <ele>704.1</ele>
        <time>2019-05-25T12:58:41Z</time>
      </trkpt>
      <trkpt lat="41.4411840" lon="-4.7506230">
        <ele>703.8</ele>
        <time>2019-05-25T12:58:42Z</time>
      </trkpt>
      <trkpt lat="41.4412340" lon="-4.7506800">
        <ele>703.8</ele>
        <time>2019-05-25T12:58:43Z</time>
      </trkpt>
      <trkpt lat="41.4412790" lon="-4.7507350">
        <ele>703.8</ele>
        <time>2019-05-25T12:58:44Z</time>
      </trkpt>
      <trkpt lat="41.4413330" lon="-4.7507880">
        <ele>703.8</ele>
        <time>2019-05-25T12:58:45Z</time>
      </trkpt>
      <trkpt lat="41.4413740" lon="-4.7508270">
        <ele>703.6</ele>
        <time>2019-05-25T12:58:46Z</time>
      </trkpt>
      <trkpt lat="41.4414320" lon="-4.7508710">
        <ele>703.6</ele>
        <time>2019-05-25T12:58:47Z</time>
      </trkpt>
      <trkpt lat="41.4414820" lon="-4.7509150">
        <ele>703.7</ele>
        <time>2019-05-25T12:58:48Z</time>
      </trkpt>
      <trkpt lat="41.4415300" lon="-4.7509500">
        <ele>703.5</ele>
        <time>2019-05-25T12:58:49Z</time>
      </trkpt>
      <trkpt lat="41.4415770" lon="-4.7509860">
        <ele>703.4</ele>
        <time>2019-05-25T12:58:50Z</time>
      </trkpt>
      <trkpt lat="41.4416310" lon="-4.7510180">
        <ele>703.3</ele>
        <time>2019-05-25T12:58:51Z</time>
      </trkpt>
      <trkpt lat="41.4416850" lon="-4.7510430">
        <ele>703.5</ele>
        <time>2019-05-25T12:58:52Z</time>
      </trkpt>
      <trkpt lat="41.4417400" lon="-4.7510720">
        <ele>703.5</ele>
        <time>2019-05-25T12:58:53Z</time>
      </trkpt>
      <trkpt lat="41.4417870" lon="-4.7511000">
        <ele>703.3</ele>
        <time>2019-05-25T12:58:54Z</time>
      </trkpt>
      <trkpt lat="41.4418180" lon="-4.7511150">
        <ele>703.4</ele>
        <time>2019-05-25T12:58:55Z</time>
      </trkpt>
      <trkpt lat="41.4418700" lon="-4.7511400">
        <ele>703.6</ele>
        <time>2019-05-25T12:58:56Z</time>
      </trkpt>
      <trkpt lat="41.4419140" lon="-4.7511640">
        <ele>703.8</ele>
        <time>2019-05-25T12:58:57Z</time>
      </trkpt>
      <trkpt lat="41.4419410" lon="-4.7511710">
        <ele>703.9</ele>
        <time>2019-05-25T12:58:58Z</time>
      </trkpt>
      <trkpt lat="41.4419710" lon="-4.7511700">
        <ele>704.0</ele>
        <time>2019-05-25T12:59:00Z</time>
      </trkpt>
      <trkpt lat="41.4420030" lon="-4.7511760">
        <ele>704.2</ele>
        <time>2019-05-25T12:59:01Z</time>
      </trkpt>
      <trkpt lat="41.4420540" lon="-4.7511910">
        <ele>704.6</ele>
        <time>2019-05-25T12:59:02Z</time>
      </trkpt>
      <trkpt lat="41.4421270" lon="-4.7512200">
        <ele>705.0</ele>
        <time>2019-05-25T12:59:03Z</time>
      </trkpt>
      <trkpt lat="41.4422150" lon="-4.7512520">
        <ele>705.7</ele>
        <time>2019-05-25T12:59:04Z</time>
      </trkpt>
      <trkpt lat="41.4422830" lon="-4.7512730">
        <ele>706.0</ele>
        <time>2019-05-25T12:59:05Z</time>
      </trkpt>
      <trkpt lat="41.4423470" lon="-4.7512920">
        <ele>706.4</ele>
        <time>2019-05-25T12:59:06Z</time>
      </trkpt>
      <trkpt lat="41.4424060" lon="-4.7513070">
        <ele>706.7</ele>
        <time>2019-05-25T12:59:07Z</time>
      </trkpt>
      <trkpt lat="41.4424680" lon="-4.7513240">
        <ele>707.0</ele>
        <time>2019-05-25T12:59:08Z</time>
      </trkpt>
      <trkpt lat="41.4425310" lon="-4.7513430">
        <ele>707.2</ele>
        <time>2019-05-25T12:59:09Z</time>
      </trkpt>
      <trkpt lat="41.4425970" lon="-4.7513650">
        <ele>707.4</ele>
        <time>2019-05-25T12:59:10Z</time>
      </trkpt>
      <trkpt lat="41.4426580" lon="-4.7513830">
        <ele>707.6</ele>
        <time>2019-05-25T12:59:11Z</time>
      </trkpt>
      <trkpt lat="41.4427130" lon="-4.7514020">
        <ele>707.6</ele>
        <time>2019-05-25T12:59:12Z</time>
      </trkpt>
      <trkpt lat="41.4427660" lon="-4.7514110">
        <ele>707.6</ele>
        <time>2019-05-25T12:59:13Z</time>
      </trkpt>
      <trkpt lat="41.4428180" lon="-4.7514260">
        <ele>707.7</ele>
        <time>2019-05-25T12:59:14Z</time>
      </trkpt>
      <trkpt lat="41.4428680" lon="-4.7514510">
        <ele>707.8</ele>
        <time>2019-05-25T12:59:15Z</time>
      </trkpt>
      <trkpt lat="41.4429160" lon="-4.7514720">
        <ele>707.7</ele>
        <time>2019-05-25T12:59:16Z</time>
      </trkpt>
      <trkpt lat="41.4429630" lon="-4.7514970">
        <ele>707.8</ele>
        <time>2019-05-25T12:59:17Z</time>
      </trkpt>
      <trkpt lat="41.4429870" lon="-4.7515190">
        <ele>707.8</ele>
        <time>2019-05-25T12:59:18Z</time>
      </trkpt>
      <trkpt lat="41.4430230" lon="-4.7515370">
        <ele>707.8</ele>
        <time>2019-05-25T12:59:20Z</time>
      </trkpt>
      <trkpt lat="41.4430510" lon="-4.7515460">
        <ele>707.7</ele>
        <time>2019-05-25T12:59:21Z</time>
      </trkpt>
      <trkpt lat="41.4430800" lon="-4.7515520">
        <ele>707.7</ele>
        <time>2019-05-25T12:59:22Z</time>
      </trkpt>
      <trkpt lat="41.4431160" lon="-4.7515620">
        <ele>707.5</ele>
        <time>2019-05-25T12:59:23Z</time>
      </trkpt>
      <trkpt lat="41.4431560" lon="-4.7515710">
        <ele>707.4</ele>
        <time>2019-05-25T12:59:24Z</time>
      </trkpt>
      <trkpt lat="41.4431940" lon="-4.7515870">
        <ele>707.3</ele>
        <time>2019-05-25T12:59:25Z</time>
      </trkpt>
      <trkpt lat="41.4432340" lon="-4.7516050">
        <ele>707.1</ele>
        <time>2019-05-25T12:59:26Z</time>
      </trkpt>
      <trkpt lat="41.4432780" lon="-4.7516350">
        <ele>706.9</ele>
        <time>2019-05-25T12:59:27Z</time>
      </trkpt>
      <trkpt lat="41.4433260" lon="-4.7516620">
        <ele>706.8</ele>
        <time>2019-05-25T12:59:28Z</time>
      </trkpt>
      <trkpt lat="41.4433730" lon="-4.7517000">
        <ele>706.7</ele>
        <time>2019-05-25T12:59:29Z</time>
      </trkpt>
      <trkpt lat="41.4434290" lon="-4.7517360">
        <ele>706.6</ele>
        <time>2019-05-25T12:59:30Z</time>
      </trkpt>
      <trkpt lat="41.4434900" lon="-4.7517710">
        <ele>706.6</ele>
        <time>2019-05-25T12:59:31Z</time>
      </trkpt>
      <trkpt lat="41.4435540" lon="-4.7518110">
        <ele>706.5</ele>
        <time>2019-05-25T12:59:32Z</time>
      </trkpt>
      <trkpt lat="41.4436150" lon="-4.7518460">
        <ele>706.5</ele>
        <time>2019-05-25T12:59:33Z</time>
      </trkpt>
      <trkpt lat="41.4436750" lon="-4.7518780">
        <ele>706.6</ele>
        <time>2019-05-25T12:59:34Z</time>
      </trkpt>
      <trkpt lat="41.4437310" lon="-4.7519130">
        <ele>706.6</ele>
        <time>2019-05-25T12:59:35Z</time>
      </trkpt>
      <trkpt lat="41.4437820" lon="-4.7519340">
        <ele>706.8</ele>
        <time>2019-05-25T12:59:36Z</time>
      </trkpt>
      <trkpt lat="41.4438470" lon="-4.7519730">
        <ele>706.8</ele>
        <time>2019-05-25T12:59:37Z</time>
      </trkpt>
      <trkpt lat="41.4439020" lon="-4.7519960">
        <ele>706.9</ele>
        <time>2019-05-25T12:59:38Z</time>
      </trkpt>
      <trkpt lat="41.4439490" lon="-4.7520060">
        <ele>707.0</ele>
        <time>2019-05-25T12:59:39Z</time>
      </trkpt>
      <trkpt lat="41.4439940" lon="-4.7520410">
        <ele>707.0</ele>
        <time>2019-05-25T12:59:40Z</time>
      </trkpt>
      <trkpt lat="41.4440350" lon="-4.7520530">
        <ele>707.0</ele>
        <time>2019-05-25T12:59:41Z</time>
      </trkpt>
      <trkpt lat="41.4440850" lon="-4.7520600">
        <ele>707.0</ele>
        <time>2019-05-25T12:59:42Z</time>
      </trkpt>
      <trkpt lat="41.4441320" lon="-4.7521030">
        <ele>707.0</ele>
        <time>2019-05-25T12:59:43Z</time>
      </trkpt>
      <trkpt lat="41.4441820" lon="-4.7521420">
        <ele>707.2</ele>
        <time>2019-05-25T12:59:44Z</time>
      </trkpt>
      <trkpt lat="41.4442370" lon="-4.7521770">
        <ele>707.2</ele>
        <time>2019-05-25T12:59:45Z</time>
      </trkpt>
      <trkpt lat="41.4442740" lon="-4.7521950">
        <ele>707.2</ele>
        <time>2019-05-25T12:59:46Z</time>
      </trkpt>
      <trkpt lat="41.4443290" lon="-4.7522070">
        <ele>707.2</ele>
        <time>2019-05-25T12:59:48Z</time>
      </trkpt>
      <trkpt lat="41.4443880" lon="-4.7522230">
        <ele>707.1</ele>
        <time>2019-05-25T12:59:49Z</time>
      </trkpt>
      <trkpt lat="41.4444570" lon="-4.7522360">
        <ele>707.0</ele>
        <time>2019-05-25T12:59:50Z</time>
      </trkpt>
      <trkpt lat="41.4445320" lon="-4.7522510">
        <ele>706.9</ele>
        <time>2019-05-25T12:59:51Z</time>
      </trkpt>
      <trkpt lat="41.4446030" lon="-4.7522760">
        <ele>706.7</ele>
        <time>2019-05-25T12:59:52Z</time>
      </trkpt>
      <trkpt lat="41.4446540" lon="-4.7523110">
        <ele>706.6</ele>
        <time>2019-05-25T12:59:53Z</time>
      </trkpt>
      <trkpt lat="41.4447100" lon="-4.7523550">
        <ele>706.6</ele>
        <time>2019-05-25T12:59:54Z</time>
      </trkpt>
      <trkpt lat="41.4447660" lon="-4.7523980">
        <ele>706.7</ele>
        <time>2019-05-25T12:59:55Z</time>
      </trkpt>
      <trkpt lat="41.4448010" lon="-4.7524240">
        <ele>706.9</ele>
        <time>2019-05-25T12:59:56Z</time>
      </trkpt>
      <trkpt lat="41.4448260" lon="-4.7524400">
        <ele>707.0</ele>
        <time>2019-05-25T12:59:57Z</time>
      </trkpt>
      <trkpt lat="41.4448530" lon="-4.7524450">
        <ele>707.0</ele>
        <time>2019-05-25T12:59:58Z</time>
      </trkpt>
      <trkpt lat="41.4448800" lon="-4.7524460">
        <ele>707.0</ele>
        <time>2019-05-25T12:59:59Z</time>
      </trkpt>
      <trkpt lat="41.4449120" lon="-4.7524550">
        <ele>707.0</ele>
        <time>2019-05-25T13:00:00Z</time>
      </trkpt>
      <trkpt lat="41.4449440" lon="-4.7524580">
        <ele>707.0</ele>
        <time>2019-05-25T13:00:01Z</time>
      </trkpt>
      <trkpt lat="41.4449840" lon="-4.7524820">
        <ele>707.0</ele>
        <time>2019-05-25T13:00:02Z</time>
      </trkpt>
      <trkpt lat="41.4450280" lon="-4.7525080">
        <ele>706.9</ele>
        <time>2019-05-25T13:00:03Z</time>
      </trkpt>
      <trkpt lat="41.4450750" lon="-4.7525300">
        <ele>706.9</ele>
        <time>2019-05-25T13:00:04Z</time>
      </trkpt>
      <trkpt lat="41.4451250" lon="-4.7525520">
        <ele>706.8</ele>
        <time>2019-05-25T13:00:05Z</time>
      </trkpt>
      <trkpt lat="41.4451770" lon="-4.7525700">
        <ele>706.7</ele>
        <time>2019-05-25T13:00:06Z</time>
      </trkpt>
      <trkpt lat="41.4452300" lon="-4.7525820">
        <ele>706.6</ele>
        <time>2019-05-25T13:00:07Z</time>
      </trkpt>
      <trkpt lat="41.4452880" lon="-4.7525940">
        <ele>706.5</ele>
        <time>2019-05-25T13:00:08Z</time>
      </trkpt>
      <trkpt lat="41.4453480" lon="-4.7526120">
        <ele>706.5</ele>
        <time>2019-05-25T13:00:09Z</time>
      </trkpt>
      <trkpt lat="41.4454190" lon="-4.7526450">
        <ele>706.6</ele>
        <time>2019-05-25T13:00:10Z</time>
      </trkpt>
      <trkpt lat="41.4454950" lon="-4.7526740">
        <ele>706.7</ele>
        <time>2019-05-25T13:00:11Z</time>
      </trkpt>
      <trkpt lat="41.4455720" lon="-4.7526990">
        <ele>706.6</ele>
        <time>2019-05-25T13:00:12Z</time>
      </trkpt>
      <trkpt lat="41.4456410" lon="-4.7527210">
        <ele>706.7</ele>
        <time>2019-05-25T13:00:13Z</time>
      </trkpt>
      <trkpt lat="41.4457110" lon="-4.7527530">
        <ele>706.6</ele>
        <time>2019-05-25T13:00:14Z</time>
      </trkpt>
      <trkpt lat="41.4458230" lon="-4.7528110">
        <ele>706.5</ele>
        <time>2019-05-25T13:00:15Z</time>
      </trkpt>
      <trkpt lat="41.4459170" lon="-4.7528560">
        <ele>706.6</ele>
        <time>2019-05-25T13:00:16Z</time>
      </trkpt>
      <trkpt lat="41.4459830" lon="-4.7528780">
        <ele>706.6</ele>
        <time>2019-05-25T13:00:17Z</time>
      </trkpt>
      <trkpt lat="41.4460240" lon="-4.7529140">
        <ele>706.6</ele>
        <time>2019-05-25T13:00:18Z</time>
      </trkpt>
      <trkpt lat="41.4460770" lon="-4.7528830">
        <ele>706.6</ele>
        <time>2019-05-25T13:00:20Z</time>
      </trkpt>
      <trkpt lat="41.4461450" lon="-4.7529170">
        <ele>706.6</ele>
        <time>2019-05-25T13:00:21Z</time>
      </trkpt>
      <trkpt lat="41.4462070" lon="-4.7529350">
        <ele>706.5</ele>
        <time>2019-05-25T13:00:22Z</time>
      </trkpt>
      <trkpt lat="41.4462470" lon="-4.7529260">
        <ele>706.5</ele>
        <time>2019-05-25T13:00:23Z</time>
      </trkpt>
      <trkpt lat="41.4463010" lon="-4.7529370">
        <ele>706.4</ele>
        <time>2019-05-25T13:00:24Z</time>
      </trkpt>
      <trkpt lat="41.4463440" lon="-4.7529530">
        <ele>706.4</ele>
        <time>2019-05-25T13:00:25Z</time>
      </trkpt>
      <trkpt lat="41.4463720" lon="-4.7529700">
        <ele>706.3</ele>
        <time>2019-05-25T13:00:26Z</time>
      </trkpt>
      <trkpt lat="41.4464200" lon="-4.7529860">
        <ele>706.2</ele>
        <time>2019-05-25T13:00:29Z</time>
      </trkpt>
      <trkpt lat="41.4464690" lon="-4.7529930">
        <ele>706.1</ele>
        <time>2019-05-25T13:00:30Z</time>
      </trkpt>
      <trkpt lat="41.4465370" lon="-4.7530060">
        <ele>706.0</ele>
        <time>2019-05-25T13:00:31Z</time>
      </trkpt>
      <trkpt lat="41.4465790" lon="-4.7530130">
        <ele>706.0</ele>
        <time>2019-05-25T13:00:32Z</time>
      </trkpt>
      <trkpt lat="41.4466110" lon="-4.7530210">
        <ele>705.9</ele>
        <time>2019-05-25T13:00:33Z</time>
      </trkpt>
      <trkpt lat="41.4466540" lon="-4.7530270">
        <ele>705.8</ele>
        <time>2019-05-25T13:00:34Z</time>
      </trkpt>
      <trkpt lat="41.4467020" lon="-4.7530360">
        <ele>705.7</ele>
        <time>2019-05-25T13:00:35Z</time>
      </trkpt>
      <trkpt lat="41.4467530" lon="-4.7530490">
        <ele>705.7</ele>
        <time>2019-05-25T13:00:36Z</time>
      </trkpt>
      <trkpt lat="41.4468030" lon="-4.7530690">
        <ele>705.6</ele>
        <time>2019-05-25T13:00:37Z</time>
      </trkpt>
      <trkpt lat="41.4468560" lon="-4.7530920">
        <ele>705.6</ele>
        <time>2019-05-25T13:00:38Z</time>
      </trkpt>
      <trkpt lat="41.4469110" lon="-4.7531240">
        <ele>705.6</ele>
        <time>2019-05-25T13:00:39Z</time>
      </trkpt>
      <trkpt lat="41.4469730" lon="-4.7531520">
        <ele>705.7</ele>
        <time>2019-05-25T13:00:40Z</time>
      </trkpt>
      <trkpt lat="41.4470310" lon="-4.7531670">
        <ele>705.9</ele>
        <time>2019-05-25T13:00:41Z</time>
      </trkpt>
      <trkpt lat="41.4470810" lon="-4.7531700">
        <ele>706.0</ele>
        <time>2019-05-25T13:00:42Z</time>
      </trkpt>
      <trkpt lat="41.4471350" lon="-4.7531790">
        <ele>706.1</ele>
        <time>2019-05-25T13:00:43Z</time>
      </trkpt>
      <trkpt lat="41.4471880" lon="-4.7531940">
        <ele>706.3</ele>
        <time>2019-05-25T13:00:44Z</time>
      </trkpt>
      <trkpt lat="41.4472400" lon="-4.7532200">
        <ele>706.5</ele>
        <time>2019-05-25T13:00:45Z</time>
      </trkpt>
      <trkpt lat="41.4475670" lon="-4.7534540">
        <ele>707.2</ele>
        <time>2019-05-25T13:00:47Z</time>
      </trkpt>
      <trkpt lat="41.4476150" lon="-4.7534720">
        <ele>707.3</ele>
        <time>2019-05-25T13:00:48Z</time>
      </trkpt>
      <trkpt lat="41.4476560" lon="-4.7534780">
        <ele>707.3</ele>
        <time>2019-05-25T13:00:49Z</time>
      </trkpt>
      <trkpt lat="41.4476920" lon="-4.7535310">
        <ele>707.3</ele>
        <time>2019-05-25T13:00:50Z</time>
      </trkpt>
      <trkpt lat="41.4477290" lon="-4.7535330">
        <ele>707.2</ele>
        <time>2019-05-25T13:00:51Z</time>
      </trkpt>
      <trkpt lat="41.4477650" lon="-4.7535430">
        <ele>707.2</ele>
        <time>2019-05-25T13:00:52Z</time>
      </trkpt>
      <trkpt lat="41.4478030" lon="-4.7535470">
        <ele>707.2</ele>
        <time>2019-05-25T13:00:53Z</time>
      </trkpt>
      <trkpt lat="41.4478620" lon="-4.7535620">
        <ele>707.2</ele>
        <time>2019-05-25T13:00:54Z</time>
      </trkpt>
      <trkpt lat="41.4479220" lon="-4.7535880">
        <ele>707.2</ele>
        <time>2019-05-25T13:00:55Z</time>
      </trkpt>
      <trkpt lat="41.4479800" lon="-4.7536060">
        <ele>707.2</ele>
        <time>2019-05-25T13:00:56Z</time>
      </trkpt>
      <trkpt lat="41.4480590" lon="-4.7536160">
        <ele>707.1</ele>
        <time>2019-05-25T13:00:57Z</time>
      </trkpt>
      <trkpt lat="41.4481260" lon="-4.7536600">
        <ele>707.0</ele>
        <time>2019-05-25T13:00:58Z</time>
      </trkpt>
      <trkpt lat="41.4481680" lon="-4.7536480">
        <ele>707.0</ele>
        <time>2019-05-25T13:00:59Z</time>
      </trkpt>
      <trkpt lat="41.4482180" lon="-4.7536760">
        <ele>706.9</ele>
        <time>2019-05-25T13:01:00Z</time>
      </trkpt>
      <trkpt lat="41.4482660" lon="-4.7537210">
        <ele>706.8</ele>
        <time>2019-05-25T13:01:01Z</time>
      </trkpt>
      <trkpt lat="41.4483050" lon="-4.7537230">
        <ele>706.8</ele>
        <time>2019-05-25T13:01:02Z</time>
      </trkpt>
      <trkpt lat="41.4483680" lon="-4.7537270">
        <ele>706.7</ele>
        <time>2019-05-25T13:01:03Z</time>
      </trkpt>
      <trkpt lat="41.4484360" lon="-4.7537220">
        <ele>706.5</ele>
        <time>2019-05-25T13:01:04Z</time>
      </trkpt>
      <trkpt lat="41.4484880" lon="-4.7537310">
        <ele>706.4</ele>
        <time>2019-05-25T13:01:05Z</time>
      </trkpt>
      <trkpt lat="41.4485420" lon="-4.7537340">
        <ele>706.3</ele>
        <time>2019-05-25T13:01:06Z</time>
      </trkpt>
      <trkpt lat="41.4485970" lon="-4.7537610">
        <ele>706.1</ele>
        <time>2019-05-25T13:01:07Z</time>
      </trkpt>
      <trkpt lat="41.4486570" lon="-4.7538020">
        <ele>706.0</ele>
        <time>2019-05-25T13:01:08Z</time>
      </trkpt>
      <trkpt lat="41.4487150" lon="-4.7538180">
        <ele>705.9</ele>
        <time>2019-05-25T13:01:09Z</time>
      </trkpt>
      <trkpt lat="41.4487740" lon="-4.7538420">
        <ele>705.7</ele>
        <time>2019-05-25T13:01:10Z</time>
      </trkpt>
      <trkpt lat="41.4488340" lon="-4.7538540">
        <ele>705.6</ele>
        <time>2019-05-25T13:01:11Z</time>
      </trkpt>
      <trkpt lat="41.4488850" lon="-4.7538700">
        <ele>705.5</ele>
        <time>2019-05-25T13:01:12Z</time>
      </trkpt>
      <trkpt lat="41.4489370" lon="-4.7538870">
        <ele>705.4</ele>
        <time>2019-05-25T13:01:13Z</time>
      </trkpt>
      <trkpt lat="41.4489960" lon="-4.7539200">
        <ele>705.3</ele>
        <time>2019-05-25T13:01:14Z</time>
      </trkpt>
      <trkpt lat="41.4490640" lon="-4.7539560">
        <ele>705.2</ele>
        <time>2019-05-25T13:01:15Z</time>
      </trkpt>
      <trkpt lat="41.4491280" lon="-4.7539510">
        <ele>705.2</ele>
        <time>2019-05-25T13:01:16Z</time>
      </trkpt>
      <trkpt lat="41.4492010" lon="-4.7539830">
        <ele>705.1</ele>
        <time>2019-05-25T13:01:17Z</time>
      </trkpt>
      <trkpt lat="41.4492530" lon="-4.7539760">
        <ele>705.1</ele>
        <time>2019-05-25T13:01:18Z</time>
      </trkpt>
      <trkpt lat="41.4493030" lon="-4.7539840">
        <ele>705.1</ele>
        <time>2019-05-25T13:01:19Z</time>
      </trkpt>
      <trkpt lat="41.4493610" lon="-4.7539950">
        <ele>705.1</ele>
        <time>2019-05-25T13:01:20Z</time>
      </trkpt>
      <trkpt lat="41.4494160" lon="-4.7540320">
        <ele>705.1</ele>
        <time>2019-05-25T13:01:21Z</time>
      </trkpt>
      <trkpt lat="41.4494650" lon="-4.7540210">
        <ele>705.1</ele>
        <time>2019-05-25T13:01:22Z</time>
      </trkpt>
      <trkpt lat="41.4495230" lon="-4.7540210">
        <ele>705.1</ele>
        <time>2019-05-25T13:01:23Z</time>
      </trkpt>
      <trkpt lat="41.4495900" lon="-4.7540520">
        <ele>705.1</ele>
        <time>2019-05-25T13:01:24Z</time>
      </trkpt>
      <trkpt lat="41.4496420" lon="-4.7540350">
        <ele>705.2</ele>
        <time>2019-05-25T13:01:25Z</time>
      </trkpt>
      <trkpt lat="41.4497030" lon="-4.7540410">
        <ele>705.2</ele>
        <time>2019-05-25T13:01:26Z</time>
      </trkpt>
      <trkpt lat="41.4497670" lon="-4.7540610">
        <ele>705.2</ele>
        <time>2019-05-25T13:01:27Z</time>
      </trkpt>
      <trkpt lat="41.4498230" lon="-4.7540660">
        <ele>705.3</ele>
        <time>2019-05-25T13:01:28Z</time>
      </trkpt>
      <trkpt lat="41.4498920" lon="-4.7540880">
        <ele>705.3</ele>
        <time>2019-05-25T13:01:29Z</time>
      </trkpt>
      <trkpt lat="41.4499510" lon="-4.7541190">
        <ele>705.4</ele>
        <time>2019-05-25T13:01:30Z</time>
      </trkpt>
      <trkpt lat="41.4500050" lon="-4.7541170">
        <ele>705.4</ele>
        <time>2019-05-25T13:01:31Z</time>
      </trkpt>
      <trkpt lat="41.4500700" lon="-4.7541450">
        <ele>705.5</ele>
        <time>2019-05-25T13:01:32Z</time>
      </trkpt>
      <trkpt lat="41.4501260" lon="-4.7541530">
        <ele>705.6</ele>
        <time>2019-05-25T13:01:33Z</time>
      </trkpt>
      <trkpt lat="41.4501860" lon="-4.7541820">
        <ele>705.7</ele>
        <time>2019-05-25T13:01:34Z</time>
      </trkpt>
      <trkpt lat="41.4502430" lon="-4.7542060">
        <ele>705.8</ele>
        <time>2019-05-25T13:01:35Z</time>
      </trkpt>
      <trkpt lat="41.4503030" lon="-4.7542300">
        <ele>705.9</ele>
        <time>2019-05-25T13:01:36Z</time>
      </trkpt>
      <trkpt lat="41.4503470" lon="-4.7542640">
        <ele>705.9</ele>
        <time>2019-05-25T13:01:37Z</time>
      </trkpt>
      <trkpt lat="41.4504000" lon="-4.7542960">
        <ele>706.0</ele>
        <time>2019-05-25T13:01:38Z</time>
      </trkpt>
      <trkpt lat="41.4504600" lon="-4.7543160">
        <ele>706.0</ele>
        <time>2019-05-25T13:01:39Z</time>
      </trkpt>
      <trkpt lat="41.4505030" lon="-4.7543470">
        <ele>706.0</ele>
        <time>2019-05-25T13:01:40Z</time>
      </trkpt>
      <trkpt lat="41.4505580" lon="-4.7543970">
        <ele>706.0</ele>
        <time>2019-05-25T13:01:41Z</time>
      </trkpt>
      <trkpt lat="41.4506140" lon="-4.7543920">
        <ele>706.0</ele>
        <time>2019-05-25T13:01:42Z</time>
      </trkpt>
      <trkpt lat="41.4506830" lon="-4.7544240">
        <ele>705.9</ele>
        <time>2019-05-25T13:01:43Z</time>
      </trkpt>
      <trkpt lat="41.4507390" lon="-4.7544390">
        <ele>705.9</ele>
        <time>2019-05-25T13:01:44Z</time>
      </trkpt>
      <trkpt lat="41.4507960" lon="-4.7544710">
        <ele>705.8</ele>
        <time>2019-05-25T13:01:45Z</time>
      </trkpt>
      <trkpt lat="41.4508460" lon="-4.7544780">
        <ele>705.7</ele>
        <time>2019-05-25T13:01:46Z</time>
      </trkpt>
      <trkpt lat="41.4508850" lon="-4.7544800">
        <ele>705.6</ele>
        <time>2019-05-25T13:01:47Z</time>
      </trkpt>
      <trkpt lat="41.4509330" lon="-4.7545320">
        <ele>705.4</ele>
        <time>2019-05-25T13:01:48Z</time>
      </trkpt>
      <trkpt lat="41.4509830" lon="-4.7545640">
        <ele>705.2</ele>
        <time>2019-05-25T13:01:49Z</time>
      </trkpt>
      <trkpt lat="41.4510380" lon="-4.7545880">
        <ele>705.1</ele>
        <time>2019-05-25T13:01:50Z</time>
      </trkpt>
      <trkpt lat="41.4510970" lon="-4.7546330">
        <ele>705.0</ele>
        <time>2019-05-25T13:01:51Z</time>
      </trkpt>
      <trkpt lat="41.4511450" lon="-4.7546730">
        <ele>704.9</ele>
        <time>2019-05-25T13:01:52Z</time>
      </trkpt>
      <trkpt lat="41.4511940" lon="-4.7547200">
        <ele>704.7</ele>
        <time>2019-05-25T13:01:53Z</time>
      </trkpt>
      <trkpt lat="41.4512590" lon="-4.7547770">
        <ele>704.5</ele>
        <time>2019-05-25T13:01:54Z</time>
      </trkpt>
      <trkpt lat="41.4513130" lon="-4.7548060">
        <ele>704.4</ele>
        <time>2019-05-25T13:01:55Z</time>
      </trkpt>
      <trkpt lat="41.4513520" lon="-4.7547850">
        <ele>704.3</ele>
        <time>2019-05-25T13:01:56Z</time>
      </trkpt>
      <trkpt lat="41.4514080" lon="-4.7547880">
        <ele>704.2</ele>
        <time>2019-05-25T13:01:57Z</time>
      </trkpt>
      <trkpt lat="41.4514420" lon="-4.7547750">
        <ele>704.2</ele>
        <time>2019-05-25T13:01:58Z</time>
      </trkpt>
      <trkpt lat="41.4514900" lon="-4.7547760">
        <ele>704.1</ele>
        <time>2019-05-25T13:02:00Z</time>
      </trkpt>
      <trkpt lat="41.4515520" lon="-4.7547740">
        <ele>704.0</ele>
        <time>2019-05-25T13:02:01Z</time>
      </trkpt>
      <trkpt lat="41.4516400" lon="-4.7547880">
        <ele>704.0</ele>
        <time>2019-05-25T13:02:02Z</time>
      </trkpt>
      <trkpt lat="41.4517340" lon="-4.7548160">
        <ele>703.9</ele>
        <time>2019-05-25T13:02:03Z</time>
      </trkpt>
      <trkpt lat="41.4518130" lon="-4.7548620">
        <ele>703.8</ele>
        <time>2019-05-25T13:02:04Z</time>
      </trkpt>
      <trkpt lat="41.4518480" lon="-4.7548960">
        <ele>703.8</ele>
        <time>2019-05-25T13:02:05Z</time>
      </trkpt>
      <trkpt lat="41.4518810" lon="-4.7549340">
        <ele>703.8</ele>
        <time>2019-05-25T13:02:07Z</time>
      </trkpt>
      <trkpt lat="41.4519060" lon="-4.7549550">
        <ele>703.7</ele>
        <time>2019-05-25T13:02:08Z</time>
      </trkpt>
      <trkpt lat="41.4519910" lon="-4.7550310">
        <ele>703.7</ele>
        <time>2019-05-25T13:02:09Z</time>
      </trkpt>
      <trkpt lat="41.4520740" lon="-4.7551070">
        <ele>703.6</ele>
        <time>2019-05-25T13:02:10Z</time>
      </trkpt>
      <trkpt lat="41.4521370" lon="-4.7551420">
        <ele>703.6</ele>
        <time>2019-05-25T13:02:11Z</time>
      </trkpt>
      <trkpt lat="41.4522040" lon="-4.7551650">
        <ele>703.6</ele>
        <time>2019-05-25T13:02:12Z</time>
      </trkpt>
      <trkpt lat="41.4522490" lon="-4.7552020">
        <ele>703.6</ele>
        <time>2019-05-25T13:02:13Z</time>
      </trkpt>
      <trkpt lat="41.4523090" lon="-4.7552180">
        <ele>703.6</ele>
        <time>2019-05-25T13:02:14Z</time>
      </trkpt>
      <trkpt lat="41.4523600" lon="-4.7552410">
        <ele>703.6</ele>
        <time>2019-05-25T13:02:15Z</time>
      </trkpt>
      <trkpt lat="41.4523940" lon="-4.7552960">
        <ele>703.6</ele>
        <time>2019-05-25T13:02:16Z</time>
      </trkpt>
      <trkpt lat="41.4524480" lon="-4.7552940">
        <ele>703.6</ele>
        <time>2019-05-25T13:02:17Z</time>
      </trkpt>
      <trkpt lat="41.4525090" lon="-4.7553220">
        <ele>703.6</ele>
        <time>2019-05-25T13:02:18Z</time>
      </trkpt>
      <trkpt lat="41.4525650" lon="-4.7553690">
        <ele>703.7</ele>
        <time>2019-05-25T13:02:19Z</time>
      </trkpt>
      <trkpt lat="41.4526030" lon="-4.7553860">
        <ele>703.7</ele>
        <time>2019-05-25T13:02:20Z</time>
      </trkpt>
      <trkpt lat="41.4526310" lon="-4.7554020">
        <ele>703.7</ele>
        <time>2019-05-25T13:02:21Z</time>
      </trkpt>
      <trkpt lat="41.4526770" lon="-4.7554270">
        <ele>703.7</ele>
        <time>2019-05-25T13:02:22Z</time>
      </trkpt>
      <trkpt lat="41.4527400" lon="-4.7554650">
        <ele>703.7</ele>
        <time>2019-05-25T13:02:23Z</time>
      </trkpt>
      <trkpt lat="41.4528040" lon="-4.7555040">
        <ele>703.7</ele>
        <time>2019-05-25T13:02:24Z</time>
      </trkpt>
      <trkpt lat="41.4528710" lon="-4.7555480">
        <ele>703.7</ele>
        <time>2019-05-25T13:02:25Z</time>
      </trkpt>
      <trkpt lat="41.4529430" lon="-4.7555900">
        <ele>703.6</ele>
        <time>2019-05-25T13:02:26Z</time>
      </trkpt>
      <trkpt lat="41.4530240" lon="-4.7556310">
        <ele>703.5</ele>
        <time>2019-05-25T13:02:27Z</time>
      </trkpt>
      <trkpt lat="41.4530850" lon="-4.7556570">
        <ele>703.4</ele>
        <time>2019-05-25T13:02:28Z</time>
      </trkpt>
      <trkpt lat="41.4531400" lon="-4.7556630">
        <ele>703.4</ele>
        <time>2019-05-25T13:02:29Z</time>
      </trkpt>
      <trkpt lat="41.4531990" lon="-4.7556970">
        <ele>703.3</ele>
        <time>2019-05-25T13:02:30Z</time>
      </trkpt>
      <trkpt lat="41.4532510" lon="-4.7557020">
        <ele>703.3</ele>
        <time>2019-05-25T13:02:31Z</time>
      </trkpt>
      <trkpt lat="41.4533170" lon="-4.7557440">
        <ele>703.2</ele>
        <time>2019-05-25T13:02:32Z</time>
      </trkpt>
      <trkpt lat="41.4533660" lon="-4.7557660">
        <ele>703.2</ele>
        <time>2019-05-25T13:02:33Z</time>
      </trkpt>
      <trkpt lat="41.4534200" lon="-4.7557810">
        <ele>703.1</ele>
        <time>2019-05-25T13:02:34Z</time>
      </trkpt>
      <trkpt lat="41.4534720" lon="-4.7558000">
        <ele>703.0</ele>
        <time>2019-05-25T13:02:35Z</time>
      </trkpt>
      <trkpt lat="41.4535210" lon="-4.7558350">
        <ele>702.9</ele>
        <time>2019-05-25T13:02:36Z</time>
      </trkpt>
      <trkpt lat="41.4535680" lon="-4.7558420">
        <ele>702.8</ele>
        <time>2019-05-25T13:02:37Z</time>
      </trkpt>
      <trkpt lat="41.4535980" lon="-4.7558500">
        <ele>702.7</ele>
        <time>2019-05-25T13:02:38Z</time>
      </trkpt>
      <trkpt lat="41.4536480" lon="-4.7558820">
        <ele>702.6</ele>
        <time>2019-05-25T13:02:40Z</time>
      </trkpt>
      <trkpt lat="41.4537180" lon="-4.7559380">
        <ele>702.4</ele>
        <time>2019-05-25T13:02:41Z</time>
      </trkpt>
      <trkpt lat="41.4537930" lon="-4.7559940">
        <ele>702.1</ele>
        <time>2019-05-25T13:02:42Z</time>
      </trkpt>
      <trkpt lat="41.4538330" lon="-4.7560240">
        <ele>702.0</ele>
        <time>2019-05-25T13:02:43Z</time>
      </trkpt>
      <trkpt lat="41.4538830" lon="-4.7560470">
        <ele>702.0</ele>
        <time>2019-05-25T13:02:45Z</time>
      </trkpt>
      <trkpt lat="41.4539120" lon="-4.7560510">
        <ele>702.0</ele>
        <time>2019-05-25T13:02:46Z</time>
      </trkpt>
      <trkpt lat="41.4539490" lon="-4.7560670">
        <ele>702.0</ele>
        <time>2019-05-25T13:02:47Z</time>
      </trkpt>
      <trkpt lat="41.4539870" lon="-4.7560870">
        <ele>702.0</ele>
        <time>2019-05-25T13:02:48Z</time>
      </trkpt>
      <trkpt lat="41.4540270" lon="-4.7561160">
        <ele>702.0</ele>
        <time>2019-05-25T13:02:49Z</time>
      </trkpt>
      <trkpt lat="41.4540700" lon="-4.7561470">
        <ele>702.0</ele>
        <time>2019-05-25T13:02:50Z</time>
      </trkpt>
      <trkpt lat="41.4541170" lon="-4.7561740">
        <ele>702.1</ele>
        <time>2019-05-25T13:02:51Z</time>
      </trkpt>
      <trkpt lat="41.4541660" lon="-4.7562050">
        <ele>702.2</ele>
        <time>2019-05-25T13:02:52Z</time>
      </trkpt>
      <trkpt lat="41.4542130" lon="-4.7562500">
        <ele>702.1</ele>
        <time>2019-05-25T13:02:53Z</time>
      </trkpt>
      <trkpt lat="41.4542570" lon="-4.7562940">
        <ele>702.1</ele>
        <time>2019-05-25T13:02:54Z</time>
      </trkpt>
      <trkpt lat="41.4543060" lon="-4.7563380">
        <ele>702.2</ele>
        <time>2019-05-25T13:02:55Z</time>
      </trkpt>
      <trkpt lat="41.4543650" lon="-4.7563870">
        <ele>702.3</ele>
        <time>2019-05-25T13:02:56Z</time>
      </trkpt>
      <trkpt lat="41.4544270" lon="-4.7564320">
        <ele>702.3</ele>
        <time>2019-05-25T13:02:57Z</time>
      </trkpt>
      <trkpt lat="41.4544920" lon="-4.7564750">
        <ele>702.4</ele>
        <time>2019-05-25T13:02:58Z</time>
      </trkpt>
      <trkpt lat="41.4545530" lon="-4.7565140">
        <ele>702.6</ele>
        <time>2019-05-25T13:02:59Z</time>
      </trkpt>
      <trkpt lat="41.4546130" lon="-4.7565540">
        <ele>702.6</ele>
        <time>2019-05-25T13:03:00Z</time>
      </trkpt>
      <trkpt lat="41.4546750" lon="-4.7565960">
        <ele>702.6</ele>
        <time>2019-05-25T13:03:01Z</time>
      </trkpt>
      <trkpt lat="41.4547420" lon="-4.7566550">
        <ele>702.6</ele>
        <time>2019-05-25T13:03:02Z</time>
      </trkpt>
      <trkpt lat="41.4548040" lon="-4.7567220">
        <ele>702.7</ele>
        <time>2019-05-25T13:03:03Z</time>
      </trkpt>
      <trkpt lat="41.4548570" lon="-4.7567860">
        <ele>702.6</ele>
        <time>2019-05-25T13:03:04Z</time>
      </trkpt>
      <trkpt lat="41.4549130" lon="-4.7568480">
        <ele>702.6</ele>
        <time>2019-05-25T13:03:05Z</time>
      </trkpt>
      <trkpt lat="41.4549730" lon="-4.7569100">
        <ele>702.6</ele>
        <time>2019-05-25T13:03:06Z</time>
      </trkpt>
      <trkpt lat="41.4550320" lon="-4.7569780">
        <ele>702.5</ele>
        <time>2019-05-25T13:03:07Z</time>
      </trkpt>
      <trkpt lat="41.4550830" lon="-4.7570340">
        <ele>702.4</ele>
        <time>2019-05-25T13:03:08Z</time>
      </trkpt>
      <trkpt lat="41.4551310" lon="-4.7570870">
        <ele>702.4</ele>
        <time>2019-05-25T13:03:09Z</time>
      </trkpt>
      <trkpt lat="41.4551750" lon="-4.7571330">
        <ele>702.5</ele>
        <time>2019-05-25T13:03:10Z</time>
      </trkpt>
      <trkpt lat="41.4552230" lon="-4.7571740">
        <ele>702.5</ele>
        <time>2019-05-25T13:03:11Z</time>
      </trkpt>
      <trkpt lat="41.4552670" lon="-4.7572240">
        <ele>702.4</ele>
        <time>2019-05-25T13:03:12Z</time>
      </trkpt>
      <trkpt lat="41.4553070" lon="-4.7572900">
        <ele>702.4</ele>
        <time>2019-05-25T13:03:13Z</time>
      </trkpt>
      <trkpt lat="41.4553520" lon="-4.7573510">
        <ele>702.5</ele>
        <time>2019-05-25T13:03:14Z</time>
      </trkpt>
      <trkpt lat="41.4553940" lon="-4.7574040">
        <ele>702.5</ele>
        <time>2019-05-25T13:03:15Z</time>
      </trkpt>
      <trkpt lat="41.4554310" lon="-4.7574770">
        <ele>702.5</ele>
        <time>2019-05-25T13:03:16Z</time>
      </trkpt>
      <trkpt lat="41.4554890" lon="-4.7575230">
        <ele>702.7</ele>
        <time>2019-05-25T13:03:17Z</time>
      </trkpt>
      <trkpt lat="41.4555220" lon="-4.7575610">
        <ele>702.7</ele>
        <time>2019-05-25T13:03:18Z</time>
      </trkpt>
      <trkpt lat="41.4555680" lon="-4.7575940">
        <ele>702.8</ele>
        <time>2019-05-25T13:03:20Z</time>
      </trkpt>
      <trkpt lat="41.4556370" lon="-4.7576490">
        <ele>702.8</ele>
        <time>2019-05-25T13:03:22Z</time>
      </trkpt>
      <trkpt lat="41.4556730" lon="-4.7576760">
        <ele>702.9</ele>
        <time>2019-05-25T13:03:23Z</time>
      </trkpt>
      <trkpt lat="41.4557420" lon="-4.7577440">
        <ele>702.9</ele>
        <time>2019-05-25T13:03:24Z</time>
      </trkpt>
      <trkpt lat="41.4557780" lon="-4.7577830">
        <ele>702.9</ele>
        <time>2019-05-25T13:03:25Z</time>
      </trkpt>
      <trkpt lat="41.4558240" lon="-4.7578520">
        <ele>702.8</ele>
        <time>2019-05-25T13:03:26Z</time>
      </trkpt>
      <trkpt lat="41.4558930" lon="-4.7579060">
        <ele>702.9</ele>
        <time>2019-05-25T13:03:27Z</time>
      </trkpt>
      <trkpt lat="41.4559220" lon="-4.7579480">
        <ele>703.0</ele>
        <time>2019-05-25T13:03:28Z</time>
      </trkpt>
      <trkpt lat="41.4559850" lon="-4.7580300">
        <ele>702.9</ele>
        <time>2019-05-25T13:03:29Z</time>
      </trkpt>
      <trkpt lat="41.4560270" lon="-4.7580610">
        <ele>702.8</ele>
        <time>2019-05-25T13:03:30Z</time>
      </trkpt>
      <trkpt lat="41.4560820" lon="-4.7581140">
        <ele>702.8</ele>
        <time>2019-05-25T13:03:31Z</time>
      </trkpt>
      <trkpt lat="41.4561400" lon="-4.7581670">
        <ele>702.8</ele>
        <time>2019-05-25T13:03:32Z</time>
      </trkpt>
      <trkpt lat="41.4561830" lon="-4.7581940">
        <ele>702.8</ele>
        <time>2019-05-25T13:03:33Z</time>
      </trkpt>
      <trkpt lat="41.4562400" lon="-4.7582260">
        <ele>702.7</ele>
        <time>2019-05-25T13:03:34Z</time>
      </trkpt>
      <trkpt lat="41.4562990" lon="-4.7582820">
        <ele>702.6</ele>
        <time>2019-05-25T13:03:35Z</time>
      </trkpt>
      <trkpt lat="41.4563610" lon="-4.7583390">
        <ele>702.6</ele>
        <time>2019-05-25T13:03:36Z</time>
      </trkpt>
      <trkpt lat="41.4564120" lon="-4.7583580">
        <ele>702.6</ele>
        <time>2019-05-25T13:03:37Z</time>
      </trkpt>
      <trkpt lat="41.4564640" lon="-4.7583880">
        <ele>702.6</ele>
        <time>2019-05-25T13:03:38Z</time>
      </trkpt>
      <trkpt lat="41.4565150" lon="-4.7584130">
        <ele>702.6</ele>
        <time>2019-05-25T13:03:39Z</time>
      </trkpt>
      <trkpt lat="41.4565590" lon="-4.7584590">
        <ele>702.6</ele>
        <time>2019-05-25T13:03:40Z</time>
      </trkpt>
      <trkpt lat="41.4566200" lon="-4.7585260">
        <ele>702.6</ele>
        <time>2019-05-25T13:03:41Z</time>
      </trkpt>
      <trkpt lat="41.4566590" lon="-4.7585670">
        <ele>702.6</ele>
        <time>2019-05-25T13:03:42Z</time>
      </trkpt>
      <trkpt lat="41.4567000" lon="-4.7585800">
        <ele>702.6</ele>
        <time>2019-05-25T13:03:43Z</time>
      </trkpt>
      <trkpt lat="41.4567430" lon="-4.7586220">
        <ele>702.5</ele>
        <time>2019-05-25T13:03:44Z</time>
      </trkpt>
      <trkpt lat="41.4567890" lon="-4.7586790">
        <ele>702.4</ele>
        <time>2019-05-25T13:03:45Z</time>
      </trkpt>
      <trkpt lat="41.4568130" lon="-4.7587000">
        <ele>702.3</ele>
        <time>2019-05-25T13:03:46Z</time>
      </trkpt>
      <trkpt lat="41.4569020" lon="-4.7587570">
        <ele>702.1</ele>
        <time>2019-05-25T13:03:48Z</time>
      </trkpt>
      <trkpt lat="41.4569740" lon="-4.7588420">
        <ele>701.8</ele>
        <time>2019-05-25T13:03:49Z</time>
      </trkpt>
      <trkpt lat="41.4570420" lon="-4.7589270">
        <ele>701.5</ele>
        <time>2019-05-25T13:03:50Z</time>
      </trkpt>
      <trkpt lat="41.4570880" lon="-4.7589830">
        <ele>701.4</ele>
        <time>2019-05-25T13:03:51Z</time>
      </trkpt>
      <trkpt lat="41.4571380" lon="-4.7590470">
        <ele>701.2</ele>
        <time>2019-05-25T13:03:52Z</time>
      </trkpt>
      <trkpt lat="41.4571880" lon="-4.7591090">
        <ele>701.1</ele>
        <time>2019-05-25T13:03:53Z</time>
      </trkpt>
      <trkpt lat="41.4572410" lon="-4.7591710">
        <ele>700.9</ele>
        <time>2019-05-25T13:03:54Z</time>
      </trkpt>
      <trkpt lat="41.4572840" lon="-4.7592400">
        <ele>701.0</ele>
        <time>2019-05-25T13:03:55Z</time>
      </trkpt>
      <trkpt lat="41.4573290" lon="-4.7593040">
        <ele>700.9</ele>
        <time>2019-05-25T13:03:56Z</time>
      </trkpt>
      <trkpt lat="41.4573770" lon="-4.7593440">
        <ele>700.9</ele>
        <time>2019-05-25T13:03:57Z</time>
      </trkpt>
      <trkpt lat="41.4574120" lon="-4.7593920">
        <ele>700.9</ele>
        <time>2019-05-25T13:03:58Z</time>
      </trkpt>
      <trkpt lat="41.4574610" lon="-4.7594450">
        <ele>701.1</ele>
        <time>2019-05-25T13:03:59Z</time>
      </trkpt>
      <trkpt lat="41.4574920" lon="-4.7595000">
        <ele>701.2</ele>
        <time>2019-05-25T13:04:01Z</time>
      </trkpt>
      <trkpt lat="41.4575510" lon="-4.7595140">
        <ele>701.3</ele>
        <time>2019-05-25T13:04:02Z</time>
      </trkpt>
      <trkpt lat="41.4575990" lon="-4.7595480">
        <ele>701.5</ele>
        <time>2019-05-25T13:04:03Z</time>
      </trkpt>
      <trkpt lat="41.4576490" lon="-4.7595620">
        <ele>701.7</ele>
        <time>2019-05-25T13:04:04Z</time>
      </trkpt>
      <trkpt lat="41.4577180" lon="-4.7596040">
        <ele>701.8</ele>
        <time>2019-05-25T13:04:05Z</time>
      </trkpt>
      <trkpt lat="41.4577630" lon="-4.7596150">
        <ele>701.9</ele>
        <time>2019-05-25T13:04:06Z</time>
      </trkpt>
      <trkpt lat="41.4578220" lon="-4.7596410">
        <ele>702.1</ele>
        <time>2019-05-25T13:04:07Z</time>
      </trkpt>
      <trkpt lat="41.4578930" lon="-4.7596920">
        <ele>702.4</ele>
        <time>2019-05-25T13:04:08Z</time>
      </trkpt>
      <trkpt lat="41.4579500" lon="-4.7597180">
        <ele>702.5</ele>
        <time>2019-05-25T13:04:09Z</time>
      </trkpt>
      <trkpt lat="41.4580070" lon="-4.7597580">
        <ele>702.6</ele>
        <time>2019-05-25T13:04:10Z</time>
      </trkpt>
      <trkpt lat="41.4580570" lon="-4.7597720">
        <ele>702.7</ele>
        <time>2019-05-25T13:04:11Z</time>
      </trkpt>
      <trkpt lat="41.4581090" lon="-4.7597930">
        <ele>702.9</ele>
        <time>2019-05-25T13:04:12Z</time>
      </trkpt>
      <trkpt lat="41.4581620" lon="-4.7598270">
        <ele>703.0</ele>
        <time>2019-05-25T13:04:13Z</time>
      </trkpt>
      <trkpt lat="41.4582100" lon="-4.7598340">
        <ele>703.1</ele>
        <time>2019-05-25T13:04:14Z</time>
      </trkpt>
      <trkpt lat="41.4582700" lon="-4.7598460">
        <ele>703.3</ele>
        <time>2019-05-25T13:04:15Z</time>
      </trkpt>
      <trkpt lat="41.4583240" lon="-4.7598410">
        <ele>703.4</ele>
        <time>2019-05-25T13:04:16Z</time>
      </trkpt>
      <trkpt lat="41.4583830" lon="-4.7598880">
        <ele>703.5</ele>
        <time>2019-05-25T13:04:17Z</time>
      </trkpt>
      <trkpt lat="41.4584420" lon="-4.7599090">
        <ele>703.7</ele>
        <time>2019-05-25T13:04:18Z</time>
      </trkpt>
      <trkpt lat="41.4585010" lon="-4.7599470">
        <ele>703.7</ele>
        <time>2019-05-25T13:04:19Z</time>
      </trkpt>
      <trkpt lat="41.4585660" lon="-4.7599880">
        <ele>703.7</ele>
        <time>2019-05-25T13:04:20Z</time>
      </trkpt>
      <trkpt lat="41.4586300" lon="-4.7600190">
        <ele>703.9</ele>
        <time>2019-05-25T13:04:21Z</time>
      </trkpt>
      <trkpt lat="41.4586740" lon="-4.7600410">
        <ele>704.0</ele>
        <time>2019-05-25T13:04:22Z</time>
      </trkpt>
      <trkpt lat="41.4587220" lon="-4.7600600">
        <ele>704.0</ele>
        <time>2019-05-25T13:04:23Z</time>
      </trkpt>
      <trkpt lat="41.4587830" lon="-4.7601120">
        <ele>704.1</ele>
        <time>2019-05-25T13:04:24Z</time>
      </trkpt>
      <trkpt lat="41.4588330" lon="-4.7601460">
        <ele>704.2</ele>
        <time>2019-05-25T13:04:25Z</time>
      </trkpt>
      <trkpt lat="41.4588890" lon="-4.7601620">
        <ele>704.2</ele>
        <time>2019-05-25T13:04:26Z</time>
      </trkpt>
      <trkpt lat="41.4589370" lon="-4.7601790">
        <ele>704.2</ele>
        <time>2019-05-25T13:04:27Z</time>
      </trkpt>
      <trkpt lat="41.4589900" lon="-4.7602060">
        <ele>704.3</ele>
        <time>2019-05-25T13:04:28Z</time>
      </trkpt>
      <trkpt lat="41.4590460" lon="-4.7602470">
        <ele>704.2</ele>
        <time>2019-05-25T13:04:29Z</time>
      </trkpt>
      <trkpt lat="41.4590950" lon="-4.7602870">
        <ele>704.2</ele>
        <time>2019-05-25T13:04:30Z</time>
      </trkpt>
      <trkpt lat="41.4591460" lon="-4.7602900">
        <ele>704.2</ele>
        <time>2019-05-25T13:04:31Z</time>
      </trkpt>
      <trkpt lat="41.4591970" lon="-4.7603070">
        <ele>704.3</ele>
        <time>2019-05-25T13:04:32Z</time>
      </trkpt>
      <trkpt lat="41.4592600" lon="-4.7603170">
        <ele>704.3</ele>
        <time>2019-05-25T13:04:33Z</time>
      </trkpt>
      <trkpt lat="41.4593180" lon="-4.7603240">
        <ele>704.3</ele>
        <time>2019-05-25T13:04:34Z</time>
      </trkpt>
      <trkpt lat="41.4593760" lon="-4.7602970">
        <ele>704.3</ele>
        <time>2019-05-25T13:04:35Z</time>
      </trkpt>
      <trkpt lat="41.4594350" lon="-4.7603040">
        <ele>704.2</ele>
        <time>2019-05-25T13:04:36Z</time>
      </trkpt>
      <trkpt lat="41.4594930" lon="-4.7602910">
        <ele>704.2</ele>
        <time>2019-05-25T13:04:37Z</time>
      </trkpt>
      <trkpt lat="41.4595540" lon="-4.7602950">
        <ele>704.2</ele>
        <time>2019-05-25T13:04:38Z</time>
      </trkpt>
      <trkpt lat="41.4596000" lon="-4.7602740">
        <ele>704.3</ele>
        <time>2019-05-25T13:04:39Z</time>
      </trkpt>
      <trkpt lat="41.4596570" lon="-4.7602670">
        <ele>704.3</ele>
        <time>2019-05-25T13:04:40Z</time>
      </trkpt>
      <trkpt lat="41.4596980" lon="-4.7602430">
        <ele>704.4</ele>
        <time>2019-05-25T13:04:41Z</time>
      </trkpt>
      <trkpt lat="41.4597410" lon="-4.7602320">
        <ele>704.4</ele>
        <time>2019-05-25T13:04:42Z</time>
      </trkpt>
      <trkpt lat="41.4597960" lon="-4.7602250">
        <ele>704.5</ele>
        <time>2019-05-25T13:04:43Z</time>
      </trkpt>
      <trkpt lat="41.4598250" lon="-4.7602140">
        <ele>704.5</ele>
        <time>2019-05-25T13:04:44Z</time>
      </trkpt>
      <trkpt lat="41.4598830" lon="-4.7601730">
        <ele>704.6</ele>
        <time>2019-05-25T13:04:46Z</time>
      </trkpt>
      <trkpt lat="41.4600950" lon="-4.7600890">
        <ele>704.7</ele>
        <time>2019-05-25T13:04:48Z</time>
      </trkpt>
      <trkpt lat="41.4601420" lon="-4.7600550">
        <ele>704.7</ele>
        <time>2019-05-25T13:04:49Z</time>
      </trkpt>
      <trkpt lat="41.4602350" lon="-4.7600170">
        <ele>704.8</ele>
        <time>2019-05-25T13:04:50Z</time>
      </trkpt>
      <trkpt lat="41.4602090" lon="-4.7600020">
        <ele>704.8</ele>
        <time>2019-05-25T13:04:51Z</time>
      </trkpt>
      <trkpt lat="41.4602340" lon="-4.7599720">
        <ele>704.8</ele>
        <time>2019-05-25T13:04:52Z</time>
      </trkpt>
      <trkpt lat="41.4602610" lon="-4.7599350">
        <ele>704.8</ele>
        <time>2019-05-25T13:04:53Z</time>
      </trkpt>
      <trkpt lat="41.4602990" lon="-4.7598910">
        <ele>704.9</ele>
        <time>2019-05-25T13:04:54Z</time>
      </trkpt>
      <trkpt lat="41.4603370" lon="-4.7598370">
        <ele>704.9</ele>
        <time>2019-05-25T13:04:55Z</time>
      </trkpt>
      <trkpt lat="41.4603840" lon="-4.7597800">
        <ele>704.9</ele>
        <time>2019-05-25T13:04:56Z</time>
      </trkpt>
      <trkpt lat="41.4604330" lon="-4.7597210">
        <ele>704.9</ele>
        <time>2019-05-25T13:04:57Z</time>
      </trkpt>
      <trkpt lat="41.4604770" lon="-4.7596590">
        <ele>705.0</ele>
        <time>2019-05-25T13:04:58Z</time>
      </trkpt>
      <trkpt lat="41.4605110" lon="-4.7596050">
        <ele>705.0</ele>
        <time>2019-05-25T13:04:59Z</time>
      </trkpt>
      <trkpt lat="41.4605370" lon="-4.7595490">
        <ele>704.9</ele>
        <time>2019-05-25T13:05:00Z</time>
      </trkpt>
      <trkpt lat="41.4605740" lon="-4.7595090">
        <ele>704.9</ele>
        <time>2019-05-25T13:05:01Z</time>
      </trkpt>
      <trkpt lat="41.4605810" lon="-4.7594520">
        <ele>704.9</ele>
        <time>2019-05-25T13:05:04Z</time>
      </trkpt>
      <trkpt lat="41.4606050" lon="-4.7593930">
        <ele>704.9</ele>
        <time>2019-05-25T13:05:06Z</time>
      </trkpt>
      <trkpt lat="41.4606260" lon="-4.7593630">
        <ele>704.8</ele>
        <time>2019-05-25T13:05:07Z</time>
      </trkpt>
      <trkpt lat="41.4606520" lon="-4.7593300">
        <ele>704.8</ele>
        <time>2019-05-25T13:05:08Z</time>
      </trkpt>
      <trkpt lat="41.4606750" lon="-4.7592900">
        <ele>704.8</ele>
        <time>2019-05-25T13:05:09Z</time>
      </trkpt>
      <trkpt lat="41.4606970" lon="-4.7592350">
        <ele>704.7</ele>
        <time>2019-05-25T13:05:10Z</time>
      </trkpt>
      <trkpt lat="41.4607150" lon="-4.7591690">
        <ele>704.7</ele>
        <time>2019-05-25T13:05:11Z</time>
      </trkpt>
      <trkpt lat="41.4607300" lon="-4.7591030">
        <ele>704.6</ele>
        <time>2019-05-25T13:05:12Z</time>
      </trkpt>
      <trkpt lat="41.4607600" lon="-4.7590400">
        <ele>704.5</ele>
        <time>2019-05-25T13:05:13Z</time>
      </trkpt>
      <trkpt lat="41.4608140" lon="-4.7589940">
        <ele>704.3</ele>
        <time>2019-05-25T13:05:14Z</time>
      </trkpt>
      <trkpt lat="41.4608500" lon="-4.7589910">
        <ele>704.3</ele>
        <time>2019-05-25T13:05:15Z</time>
      </trkpt>
      <trkpt lat="41.4609020" lon="-4.7589810">
        <ele>704.1</ele>
        <time>2019-05-25T13:05:16Z</time>
      </trkpt>
      <trkpt lat="41.4609650" lon="-4.7589610">
        <ele>703.9</ele>
        <time>2019-05-25T13:05:17Z</time>
      </trkpt>
      <trkpt lat="41.4610320" lon="-4.7589540">
        <ele>703.9</ele>
        <time>2019-05-25T13:05:18Z</time>
      </trkpt>
      <trkpt lat="41.4611060" lon="-4.7589540">
        <ele>704.0</ele>
        <time>2019-05-25T13:05:19Z</time>
      </trkpt>
      <trkpt lat="41.4611610" lon="-4.7589410">
        <ele>704.0</ele>
        <time>2019-05-25T13:05:20Z</time>
      </trkpt>
      <trkpt lat="41.4612050" lon="-4.7589310">
        <ele>704.0</ele>
        <time>2019-05-25T13:05:21Z</time>
      </trkpt>
      <trkpt lat="41.4612680" lon="-4.7589150">
        <ele>704.0</ele>
        <time>2019-05-25T13:05:22Z</time>
      </trkpt>
      <trkpt lat="41.4613510" lon="-4.7589050">
        <ele>704.0</ele>
        <time>2019-05-25T13:05:23Z</time>
      </trkpt>
      <trkpt lat="41.4614290" lon="-4.7588790">
        <ele>704.0</ele>
        <time>2019-05-25T13:05:24Z</time>
      </trkpt>
      <trkpt lat="41.4615010" lon="-4.7588700">
        <ele>704.0</ele>
        <time>2019-05-25T13:05:25Z</time>
      </trkpt>
      <trkpt lat="41.4615700" lon="-4.7588690">
        <ele>704.0</ele>
        <time>2019-05-25T13:05:26Z</time>
      </trkpt>
      <trkpt lat="41.4616450" lon="-4.7588640">
        <ele>704.0</ele>
        <time>2019-05-25T13:05:27Z</time>
      </trkpt>
      <trkpt lat="41.4617190" lon="-4.7588790">
        <ele>704.0</ele>
        <time>2019-05-25T13:05:28Z</time>
      </trkpt>
      <trkpt lat="41.4617940" lon="-4.7588890">
        <ele>704.0</ele>
        <time>2019-05-25T13:05:29Z</time>
      </trkpt>
      <trkpt lat="41.4618500" lon="-4.7589160">
        <ele>704.0</ele>
        <time>2019-05-25T13:05:30Z</time>
      </trkpt>
      <trkpt lat="41.4618830" lon="-4.7589160">
        <ele>704.0</ele>
        <time>2019-05-25T13:05:31Z</time>
      </trkpt>
      <trkpt lat="41.4619110" lon="-4.7589090">
        <ele>704.0</ele>
        <time>2019-05-25T13:05:33Z</time>
      </trkpt>
      <trkpt lat="41.4619660" lon="-4.7589080">
        <ele>704.0</ele>
        <time>2019-05-25T13:05:35Z</time>
      </trkpt>
      <trkpt lat="41.4620020" lon="-4.7588940">
        <ele>704.0</ele>
        <time>2019-05-25T13:05:36Z</time>
      </trkpt>
      <trkpt lat="41.4620390" lon="-4.7588780">
        <ele>704.0</ele>
        <time>2019-05-25T13:05:37Z</time>
      </trkpt>
      <trkpt lat="41.4620800" lon="-4.7588630">
        <ele>704.0</ele>
        <time>2019-05-25T13:05:38Z</time>
      </trkpt>
      <trkpt lat="41.4621270" lon="-4.7588660">
        <ele>704.0</ele>
        <time>2019-05-25T13:05:39Z</time>
      </trkpt>
      <trkpt lat="41.4621750" lon="-4.7588820">
        <ele>704.0</ele>
        <time>2019-05-25T13:05:40Z</time>
      </trkpt>
      <trkpt lat="41.4622290" lon="-4.7588790">
        <ele>704.0</ele>
        <time>2019-05-25T13:05:41Z</time>
      </trkpt>
      <trkpt lat="41.4622820" lon="-4.7588900">
        <ele>704.0</ele>
        <time>2019-05-25T13:05:42Z</time>
      </trkpt>
      <trkpt lat="41.4623950" lon="-4.7589370">
        <ele>704.0</ele>
        <time>2019-05-25T13:05:43Z</time>
      </trkpt>
      <trkpt lat="41.4624670" lon="-4.7589380">
        <ele>704.0</ele>
        <time>2019-05-25T13:05:44Z</time>
      </trkpt>
      <trkpt lat="41.4625050" lon="-4.7589250">
        <ele>704.0</ele>
        <time>2019-05-25T13:05:45Z</time>
      </trkpt>
      <trkpt lat="41.4625530" lon="-4.7589280">
        <ele>704.0</ele>
        <time>2019-05-25T13:05:46Z</time>
      </trkpt>
      <trkpt lat="41.4626100" lon="-4.7589230">
        <ele>704.0</ele>
        <time>2019-05-25T13:05:47Z</time>
      </trkpt>
      <trkpt lat="41.4626730" lon="-4.7589330">
        <ele>704.0</ele>
        <time>2019-05-25T13:05:48Z</time>
      </trkpt>
      <trkpt lat="41.4627450" lon="-4.7589300">
        <ele>704.0</ele>
        <time>2019-05-25T13:05:49Z</time>
      </trkpt>
      <trkpt lat="41.4628180" lon="-4.7589200">
        <ele>704.1</ele>
        <time>2019-05-25T13:05:50Z</time>
      </trkpt>
      <trkpt lat="41.4628880" lon="-4.7589060">
        <ele>704.1</ele>
        <time>2019-05-25T13:05:51Z</time>
      </trkpt>
      <trkpt lat="41.4629530" lon="-4.7589210">
        <ele>704.1</ele>
        <time>2019-05-25T13:05:52Z</time>
      </trkpt>
      <trkpt lat="41.4630160" lon="-4.7589470">
        <ele>704.1</ele>
        <time>2019-05-25T13:05:53Z</time>
      </trkpt>
      <trkpt lat="41.4630770" lon="-4.7589830">
        <ele>704.1</ele>
        <time>2019-05-25T13:05:54Z</time>
      </trkpt>
      <trkpt lat="41.4631300" lon="-4.7589970">
        <ele>704.1</ele>
        <time>2019-05-25T13:05:55Z</time>
      </trkpt>
      <trkpt lat="41.4631960" lon="-4.7590150">
        <ele>704.2</ele>
        <time>2019-05-25T13:05:56Z</time>
      </trkpt>
      <trkpt lat="41.4632560" lon="-4.7590200">
        <ele>704.3</ele>
        <time>2019-05-25T13:05:57Z</time>
      </trkpt>
      <trkpt lat="41.4633030" lon="-4.7590390">
        <ele>704.4</ele>
        <time>2019-05-25T13:05:58Z</time>
      </trkpt>
      <trkpt lat="41.4633570" lon="-4.7590520">
        <ele>704.5</ele>
        <time>2019-05-25T13:05:59Z</time>
      </trkpt>
      <trkpt lat="41.4634200" lon="-4.7590440">
        <ele>704.7</ele>
        <time>2019-05-25T13:06:00Z</time>
      </trkpt>
      <trkpt lat="41.4634700" lon="-4.7590700">
        <ele>704.8</ele>
        <time>2019-05-25T13:06:01Z</time>
      </trkpt>
      <trkpt lat="41.4635350" lon="-4.7590670">
        <ele>705.0</ele>
        <time>2019-05-25T13:06:02Z</time>
      </trkpt>
      <trkpt lat="41.4635800" lon="-4.7590370">
        <ele>705.1</ele>
        <time>2019-05-25T13:06:03Z</time>
      </trkpt>
      <trkpt lat="41.4636430" lon="-4.7590400">
        <ele>705.1</ele>
        <time>2019-05-25T13:06:04Z</time>
      </trkpt>
      <trkpt lat="41.4636990" lon="-4.7590390">
        <ele>705.2</ele>
        <time>2019-05-25T13:06:05Z</time>
      </trkpt>
      <trkpt lat="41.4637700" lon="-4.7590550">
        <ele>705.2</ele>
        <time>2019-05-25T13:06:06Z</time>
      </trkpt>
      <trkpt lat="41.4638170" lon="-4.7590800">
        <ele>705.2</ele>
        <time>2019-05-25T13:06:07Z</time>
      </trkpt>
      <trkpt lat="41.4638640" lon="-4.7591090">
        <ele>705.2</ele>
        <time>2019-05-25T13:06:08Z</time>
      </trkpt>
      <trkpt lat="41.4639210" lon="-4.7591440">
        <ele>705.2</ele>
        <time>2019-05-25T13:06:09Z</time>
      </trkpt>
      <trkpt lat="41.4639700" lon="-4.7591810">
        <ele>705.2</ele>
        <time>2019-05-25T13:06:10Z</time>
      </trkpt>
      <trkpt lat="41.4640090" lon="-4.7591840">
        <ele>705.2</ele>
        <time>2019-05-25T13:06:11Z</time>
      </trkpt>
      <trkpt lat="41.4640620" lon="-4.7591980">
        <ele>705.2</ele>
        <time>2019-05-25T13:06:12Z</time>
      </trkpt>
      <trkpt lat="41.4641050" lon="-4.7592010">
        <ele>705.2</ele>
        <time>2019-05-25T13:06:13Z</time>
      </trkpt>
      <trkpt lat="41.4641560" lon="-4.7592400">
        <ele>705.2</ele>
        <time>2019-05-25T13:06:14Z</time>
      </trkpt>
      <trkpt lat="41.4642180" lon="-4.7592450">
        <ele>705.2</ele>
        <time>2019-05-25T13:06:15Z</time>
      </trkpt>
      <trkpt lat="41.4642580" lon="-4.7592570">
        <ele>705.2</ele>
        <time>2019-05-25T13:06:16Z</time>
      </trkpt>
      <trkpt lat="41.4642990" lon="-4.7592540">
        <ele>705.1</ele>
        <time>2019-05-25T13:06:18Z</time>
      </trkpt>
      <trkpt lat="41.4643380" lon="-4.7592540">
        <ele>705.1</ele>
        <time>2019-05-25T13:06:19Z</time>
      </trkpt>
      <trkpt lat="41.4644590" lon="-4.7592660">
        <ele>704.9</ele>
        <time>2019-05-25T13:06:21Z</time>
      </trkpt>
      <trkpt lat="41.4644900" lon="-4.7592760">
        <ele>704.8</ele>
        <time>2019-05-25T13:06:22Z</time>
      </trkpt>
      <trkpt lat="41.4645240" lon="-4.7592890">
        <ele>704.7</ele>
        <time>2019-05-25T13:06:23Z</time>
      </trkpt>
      <trkpt lat="41.4645610" lon="-4.7592950">
        <ele>704.6</ele>
        <time>2019-05-25T13:06:24Z</time>
      </trkpt>
      <trkpt lat="41.4646000" lon="-4.7592960">
        <ele>704.5</ele>
        <time>2019-05-25T13:06:25Z</time>
      </trkpt>
      <trkpt lat="41.4646450" lon="-4.7593000">
        <ele>704.4</ele>
        <time>2019-05-25T13:06:26Z</time>
      </trkpt>
      <trkpt lat="41.4646930" lon="-4.7593020">
        <ele>704.3</ele>
        <time>2019-05-25T13:06:27Z</time>
      </trkpt>
      <trkpt lat="41.4647400" lon="-4.7593010">
        <ele>704.2</ele>
        <time>2019-05-25T13:06:28Z</time>
      </trkpt>
      <trkpt lat="41.4647840" lon="-4.7592920">
        <ele>704.2</ele>
        <time>2019-05-25T13:06:29Z</time>
      </trkpt>
      <trkpt lat="41.4648350" lon="-4.7592980">
        <ele>704.2</ele>
        <time>2019-05-25T13:06:30Z</time>
      </trkpt>
      <trkpt lat="41.4648900" lon="-4.7593120">
        <ele>704.2</ele>
        <time>2019-05-25T13:06:31Z</time>
      </trkpt>
      <trkpt lat="41.4649470" lon="-4.7593300">
        <ele>704.2</ele>
        <time>2019-05-25T13:06:32Z</time>
      </trkpt>
      <trkpt lat="41.4650080" lon="-4.7593450">
        <ele>704.2</ele>
        <time>2019-05-25T13:06:33Z</time>
      </trkpt>
      <trkpt lat="41.4650690" lon="-4.7593490">
        <ele>704.2</ele>
        <time>2019-05-25T13:06:34Z</time>
      </trkpt>
      <trkpt lat="41.4651350" lon="-4.7593540">
        <ele>704.2</ele>
        <time>2019-05-25T13:06:35Z</time>
      </trkpt>
      <trkpt lat="41.4652070" lon="-4.7593700">
        <ele>704.2</ele>
        <time>2019-05-25T13:06:36Z</time>
      </trkpt>
      <trkpt lat="41.4652820" lon="-4.7593900">
        <ele>704.2</ele>
        <time>2019-05-25T13:06:37Z</time>
      </trkpt>
      <trkpt lat="41.4653620" lon="-4.7594140">
        <ele>704.2</ele>
        <time>2019-05-25T13:06:38Z</time>
      </trkpt>
      <trkpt lat="41.4654410" lon="-4.7594320">
        <ele>704.2</ele>
        <time>2019-05-25T13:06:39Z</time>
      </trkpt>
      <trkpt lat="41.4655380" lon="-4.7594560">
        <ele>704.2</ele>
        <time>2019-05-25T13:06:40Z</time>
      </trkpt>
      <trkpt lat="41.4656230" lon="-4.7594900">
        <ele>704.2</ele>
        <time>2019-05-25T13:06:41Z</time>
      </trkpt>
      <trkpt lat="41.4657020" lon="-4.7595120">
        <ele>704.2</ele>
        <time>2019-05-25T13:06:42Z</time>
      </trkpt>
      <trkpt lat="41.4657770" lon="-4.7595260">
        <ele>704.2</ele>
        <time>2019-05-25T13:06:43Z</time>
      </trkpt>
      <trkpt lat="41.4658420" lon="-4.7595260">
        <ele>704.2</ele>
        <time>2019-05-25T13:06:44Z</time>
      </trkpt>
      <trkpt lat="41.4659100" lon="-4.7595390">
        <ele>704.3</ele>
        <time>2019-05-25T13:06:45Z</time>
      </trkpt>
      <trkpt lat="41.4659680" lon="-4.7595400">
        <ele>704.4</ele>
        <time>2019-05-25T13:06:46Z</time>
      </trkpt>
      <trkpt lat="41.4660390" lon="-4.7595380">
        <ele>704.5</ele>
        <time>2019-05-25T13:06:47Z</time>
      </trkpt>
      <trkpt lat="41.4660790" lon="-4.7595570">
        <ele>704.6</ele>
        <time>2019-05-25T13:06:48Z</time>
      </trkpt>
      <trkpt lat="41.4661080" lon="-4.7595620">
        <ele>704.7</ele>
        <time>2019-05-25T13:06:49Z</time>
      </trkpt>
      <trkpt lat="41.4661490" lon="-4.7595660">
        <ele>704.8</ele>
        <time>2019-05-25T13:06:50Z</time>
      </trkpt>
      <trkpt lat="41.4661850" lon="-4.7595420">
        <ele>704.9</ele>
        <time>2019-05-25T13:06:51Z</time>
      </trkpt>
      <trkpt lat="41.4662620" lon="-4.7595500">
        <ele>705.1</ele>
        <time>2019-05-25T13:06:52Z</time>
      </trkpt>
      <trkpt lat="41.4663140" lon="-4.7595510">
        <ele>705.2</ele>
        <time>2019-05-25T13:06:53Z</time>
      </trkpt>
      <trkpt lat="41.4663750" lon="-4.7595360">
        <ele>705.3</ele>
        <time>2019-05-25T13:06:54Z</time>
      </trkpt>
      <trkpt lat="41.4664210" lon="-4.7595460">
        <ele>705.3</ele>
        <time>2019-05-25T13:06:55Z</time>
      </trkpt>
      <trkpt lat="41.4664740" lon="-4.7595640">
        <ele>705.3</ele>
        <time>2019-05-25T13:06:56Z</time>
      </trkpt>
      <trkpt lat="41.4665370" lon="-4.7596130">
        <ele>705.3</ele>
        <time>2019-05-25T13:06:57Z</time>
      </trkpt>
      <trkpt lat="41.4666000" lon="-4.7596330">
        <ele>705.3</ele>
        <time>2019-05-25T13:06:58Z</time>
      </trkpt>
      <trkpt lat="41.4666650" lon="-4.7596720">
        <ele>705.3</ele>
        <time>2019-05-25T13:06:59Z</time>
      </trkpt>
      <trkpt lat="41.4667240" lon="-4.7596930">
        <ele>705.4</ele>
        <time>2019-05-25T13:07:00Z</time>
      </trkpt>
      <trkpt lat="41.4667840" lon="-4.7596990">
        <ele>705.4</ele>
        <time>2019-05-25T13:07:01Z</time>
      </trkpt>
      <trkpt lat="41.4668410" lon="-4.7597360">
        <ele>705.4</ele>
        <time>2019-05-25T13:07:02Z</time>
      </trkpt>
      <trkpt lat="41.4668910" lon="-4.7597210">
        <ele>705.4</ele>
        <time>2019-05-25T13:07:03Z</time>
      </trkpt>
      <trkpt lat="41.4669400" lon="-4.7597220">
        <ele>705.4</ele>
        <time>2019-05-25T13:07:04Z</time>
      </trkpt>
      <trkpt lat="41.4669930" lon="-4.7597140">
        <ele>705.4</ele>
        <time>2019-05-25T13:07:05Z</time>
      </trkpt>
      <trkpt lat="41.4670650" lon="-4.7597420">
        <ele>705.4</ele>
        <time>2019-05-25T13:07:06Z</time>
      </trkpt>
      <trkpt lat="41.4671200" lon="-4.7597540">
        <ele>705.4</ele>
        <time>2019-05-25T13:07:07Z</time>
      </trkpt>
      <trkpt lat="41.4671860" lon="-4.7597510">
        <ele>705.4</ele>
        <time>2019-05-25T13:07:08Z</time>
      </trkpt>
      <trkpt lat="41.4672390" lon="-4.7597580">
        <ele>705.4</ele>
        <time>2019-05-25T13:07:09Z</time>
      </trkpt>
      <trkpt lat="41.4673020" lon="-4.7597720">
        <ele>705.4</ele>
        <time>2019-05-25T13:07:10Z</time>
      </trkpt>
      <trkpt lat="41.4673620" lon="-4.7597760">
        <ele>705.4</ele>
        <time>2019-05-25T13:07:11Z</time>
      </trkpt>
      <trkpt lat="41.4674010" lon="-4.7597760">
        <ele>705.4</ele>
        <time>2019-05-25T13:07:12Z</time>
      </trkpt>
      <trkpt lat="41.4674420" lon="-4.7597710">
        <ele>705.4</ele>
        <time>2019-05-25T13:07:14Z</time>
      </trkpt>
      <trkpt lat="41.4676530" lon="-4.7598380">
        <ele>705.5</ele>
        <time>2019-05-25T13:07:16Z</time>
      </trkpt>
      <trkpt lat="41.4677660" lon="-4.7598830">
        <ele>705.6</ele>
        <time>2019-05-25T13:07:17Z</time>
      </trkpt>
      <trkpt lat="41.4677980" lon="-4.7599150">
        <ele>705.7</ele>
        <time>2019-05-25T13:07:18Z</time>
      </trkpt>
      <trkpt lat="41.4678850" lon="-4.7599500">
        <ele>705.9</ele>
        <time>2019-05-25T13:07:19Z</time>
      </trkpt>
      <trkpt lat="41.4679890" lon="-4.7599540">
        <ele>706.1</ele>
        <time>2019-05-25T13:07:20Z</time>
      </trkpt>
      <trkpt lat="41.4680460" lon="-4.7599810">
        <ele>706.2</ele>
        <time>2019-05-25T13:07:21Z</time>
      </trkpt>
      <trkpt lat="41.4679880" lon="-4.7598910">
        <ele>706.3</ele>
        <time>2019-05-25T13:07:22Z</time>
      </trkpt>
      <trkpt lat="41.4680260" lon="-4.7598860">
        <ele>706.3</ele>
        <time>2019-05-25T13:07:23Z</time>
      </trkpt>
      <trkpt lat="41.4681680" lon="-4.7599050">
        <ele>706.3</ele>
        <time>2019-05-25T13:07:25Z</time>
      </trkpt>
      <trkpt lat="41.4682480" lon="-4.7599380">
        <ele>706.3</ele>
        <time>2019-05-25T13:07:26Z</time>
      </trkpt>
      <trkpt lat="41.4683090" lon="-4.7599510">
        <ele>706.3</ele>
        <time>2019-05-25T13:07:27Z</time>
      </trkpt>
      <trkpt lat="41.4683530" lon="-4.7599580">
        <ele>706.3</ele>
        <time>2019-05-25T13:07:28Z</time>
      </trkpt>
      <trkpt lat="41.4683850" lon="-4.7599520">
        <ele>706.3</ele>
        <time>2019-05-25T13:07:29Z</time>
      </trkpt>
      <trkpt lat="41.4684340" lon="-4.7599670">
        <ele>706.3</ele>
        <time>2019-05-25T13:07:30Z</time>
      </trkpt>
      <trkpt lat="41.4684940" lon="-4.7600010">
        <ele>706.3</ele>
        <time>2019-05-25T13:07:31Z</time>
      </trkpt>
      <trkpt lat="41.4685540" lon="-4.7600340">
        <ele>706.3</ele>
        <time>2019-05-25T13:07:32Z</time>
      </trkpt>
      <trkpt lat="41.4686060" lon="-4.7600520">
        <ele>706.3</ele>
        <time>2019-05-25T13:07:33Z</time>
      </trkpt>
      <trkpt lat="41.4686580" lon="-4.7600660">
        <ele>706.3</ele>
        <time>2019-05-25T13:07:34Z</time>
      </trkpt>
      <trkpt lat="41.4687120" lon="-4.7600690">
        <ele>706.2</ele>
        <time>2019-05-25T13:07:35Z</time>
      </trkpt>
      <trkpt lat="41.4687670" lon="-4.7600670">
        <ele>706.1</ele>
        <time>2019-05-25T13:07:36Z</time>
      </trkpt>
      <trkpt lat="41.4688220" lon="-4.7600690">
        <ele>706.0</ele>
        <time>2019-05-25T13:07:37Z</time>
      </trkpt>
      <trkpt lat="41.4688860" lon="-4.7600780">
        <ele>705.9</ele>
        <time>2019-05-25T13:07:38Z</time>
      </trkpt>
      <trkpt lat="41.4689430" lon="-4.7600850">
        <ele>705.8</ele>
        <time>2019-05-25T13:07:39Z</time>
      </trkpt>
      <trkpt lat="41.4689960" lon="-4.7600910">
        <ele>705.7</ele>
        <time>2019-05-25T13:07:40Z</time>
      </trkpt>
      <trkpt lat="41.4690440" lon="-4.7601090">
        <ele>705.6</ele>
        <time>2019-05-25T13:07:41Z</time>
      </trkpt>
      <trkpt lat="41.4690900" lon="-4.7601240">
        <ele>705.5</ele>
        <time>2019-05-25T13:07:42Z</time>
      </trkpt>
      <trkpt lat="41.4691380" lon="-4.7601340">
        <ele>705.5</ele>
        <time>2019-05-25T13:07:43Z</time>
      </trkpt>
      <trkpt lat="41.4691940" lon="-4.7601390">
        <ele>705.5</ele>
        <time>2019-05-25T13:07:44Z</time>
      </trkpt>
      <trkpt lat="41.4692440" lon="-4.7601370">
        <ele>705.5</ele>
        <time>2019-05-25T13:07:45Z</time>
      </trkpt>
      <trkpt lat="41.4693120" lon="-4.7601210">
        <ele>705.5</ele>
        <time>2019-05-25T13:07:46Z</time>
      </trkpt>
      <trkpt lat="41.4693800" lon="-4.7601120">
        <ele>705.5</ele>
        <time>2019-05-25T13:07:47Z</time>
      </trkpt>
      <trkpt lat="41.4694340" lon="-4.7600990">
        <ele>705.5</ele>
        <time>2019-05-25T13:07:48Z</time>
      </trkpt>
      <trkpt lat="41.4694950" lon="-4.7600990">
        <ele>705.5</ele>
        <time>2019-05-25T13:07:49Z</time>
      </trkpt>
      <trkpt lat="41.4695410" lon="-4.7600820">
        <ele>705.5</ele>
        <time>2019-05-25T13:07:50Z</time>
      </trkpt>
      <trkpt lat="41.4696000" lon="-4.7600700">
        <ele>705.5</ele>
        <time>2019-05-25T13:07:51Z</time>
      </trkpt>
      <trkpt lat="41.4696620" lon="-4.7600800">
        <ele>705.5</ele>
        <time>2019-05-25T13:07:52Z</time>
      </trkpt>
      <trkpt lat="41.4697210" lon="-4.7600770">
        <ele>705.5</ele>
        <time>2019-05-25T13:07:53Z</time>
      </trkpt>
      <trkpt lat="41.4697810" lon="-4.7600700">
        <ele>705.5</ele>
        <time>2019-05-25T13:07:54Z</time>
      </trkpt>
      <trkpt lat="41.4698420" lon="-4.7600600">
        <ele>705.5</ele>
        <time>2019-05-25T13:07:55Z</time>
      </trkpt>
      <trkpt lat="41.4698920" lon="-4.7600430">
        <ele>705.5</ele>
        <time>2019-05-25T13:07:56Z</time>
      </trkpt>
      <trkpt lat="41.4699590" lon="-4.7600410">
        <ele>705.5</ele>
        <time>2019-05-25T13:07:57Z</time>
      </trkpt>
      <trkpt lat="41.4699930" lon="-4.7600380">
        <ele>705.5</ele>
        <time>2019-05-25T13:07:58Z</time>
      </trkpt>
      <trkpt lat="41.4701960" lon="-4.7600020">
        <ele>705.5</ele>
        <time>2019-05-25T13:08:01Z</time>
      </trkpt>
      <trkpt lat="41.4702580" lon="-4.7599910">
        <ele>705.4</ele>
        <time>2019-05-25T13:08:02Z</time>
      </trkpt>
      <trkpt lat="41.4703070" lon="-4.7599820">
        <ele>705.4</ele>
        <time>2019-05-25T13:08:03Z</time>
      </trkpt>
      <trkpt lat="41.4703650" lon="-4.7599680">
        <ele>705.4</ele>
        <time>2019-05-25T13:08:04Z</time>
      </trkpt>
      <trkpt lat="41.4704190" lon="-4.7599480">
        <ele>705.4</ele>
        <time>2019-05-25T13:08:05Z</time>
      </trkpt>
      <trkpt lat="41.4704610" lon="-4.7599430">
        <ele>705.3</ele>
        <time>2019-05-25T13:08:06Z</time>
      </trkpt>
      <trkpt lat="41.4705140" lon="-4.7599190">
        <ele>705.3</ele>
        <time>2019-05-25T13:08:08Z</time>
      </trkpt>
      <trkpt lat="41.4705680" lon="-4.7599030">
        <ele>705.2</ele>
        <time>2019-05-25T13:08:09Z</time>
      </trkpt>
      <trkpt lat="41.4706300" lon="-4.7598890">
        <ele>705.1</ele>
        <time>2019-05-25T13:08:10Z</time>
      </trkpt>
      <trkpt lat="41.4706840" lon="-4.7598830">
        <ele>705.1</ele>
        <time>2019-05-25T13:08:11Z</time>
      </trkpt>
      <trkpt lat="41.4707420" lon="-4.7598820">
        <ele>705.0</ele>
        <time>2019-05-25T13:08:12Z</time>
      </trkpt>
      <trkpt lat="41.4708140" lon="-4.7598880">
        <ele>705.0</ele>
        <time>2019-05-25T13:08:13Z</time>
      </trkpt>
      <trkpt lat="41.4708960" lon="-4.7598960">
        <ele>704.9</ele>
        <time>2019-05-25T13:08:14Z</time>
      </trkpt>
      <trkpt lat="41.4709770" lon="-4.7599070">
        <ele>704.8</ele>
        <time>2019-05-25T13:08:15Z</time>
      </trkpt>
      <trkpt lat="41.4710550" lon="-4.7599220">
        <ele>704.8</ele>
        <time>2019-05-25T13:08:16Z</time>
      </trkpt>
      <trkpt lat="41.4711300" lon="-4.7599420">
        <ele>704.8</ele>
        <time>2019-05-25T13:08:17Z</time>
      </trkpt>
      <trkpt lat="41.4712140" lon="-4.7600210">
        <ele>704.7</ele>
        <time>2019-05-25T13:08:18Z</time>
      </trkpt>
      <trkpt lat="41.4713010" lon="-4.7600330">
        <ele>704.7</ele>
        <time>2019-05-25T13:08:20Z</time>
      </trkpt>
      <trkpt lat="41.4713620" lon="-4.7600630">
        <ele>704.7</ele>
        <time>2019-05-25T13:08:21Z</time>
      </trkpt>
      <trkpt lat="41.4714140" lon="-4.7600940">
        <ele>704.6</ele>
        <time>2019-05-25T13:08:22Z</time>
      </trkpt>
      <trkpt lat="41.4714690" lon="-4.7601200">
        <ele>704.6</ele>
        <time>2019-05-25T13:08:23Z</time>
      </trkpt>
      <trkpt lat="41.4715380" lon="-4.7601560">
        <ele>704.6</ele>
        <time>2019-05-25T13:08:24Z</time>
      </trkpt>
      <trkpt lat="41.4715950" lon="-4.7601970">
        <ele>704.5</ele>
        <time>2019-05-25T13:08:25Z</time>
      </trkpt>
      <trkpt lat="41.4716530" lon="-4.7602430">
        <ele>704.5</ele>
        <time>2019-05-25T13:08:26Z</time>
      </trkpt>
      <trkpt lat="41.4717090" lon="-4.7602800">
        <ele>704.4</ele>
        <time>2019-05-25T13:08:27Z</time>
      </trkpt>
      <trkpt lat="41.4717700" lon="-4.7603140">
        <ele>704.4</ele>
        <time>2019-05-25T13:08:28Z</time>
      </trkpt>
      <trkpt lat="41.4718330" lon="-4.7603350">
        <ele>704.4</ele>
        <time>2019-05-25T13:08:29Z</time>
      </trkpt>
      <trkpt lat="41.4718900" lon="-4.7603470">
        <ele>704.4</ele>
        <time>2019-05-25T13:08:30Z</time>
      </trkpt>
      <trkpt lat="41.4719540" lon="-4.7603550">
        <ele>704.3</ele>
        <time>2019-05-25T13:08:31Z</time>
      </trkpt>
      <trkpt lat="41.4720070" lon="-4.7603810">
        <ele>704.3</ele>
        <time>2019-05-25T13:08:32Z</time>
      </trkpt>
      <trkpt lat="41.4720580" lon="-4.7604110">
        <ele>704.3</ele>
        <time>2019-05-25T13:08:33Z</time>
      </trkpt>
      <trkpt lat="41.4721040" lon="-4.7604560">
        <ele>704.3</ele>
        <time>2019-05-25T13:08:34Z</time>
      </trkpt>
      <trkpt lat="41.4721490" lon="-4.7605170">
        <ele>704.2</ele>
        <time>2019-05-25T13:08:35Z</time>
      </trkpt>
      <trkpt lat="41.4722100" lon="-4.7605480">
        <ele>704.2</ele>
        <time>2019-05-25T13:08:36Z</time>
      </trkpt>
      <trkpt lat="41.4722640" lon="-4.7605780">
        <ele>704.2</ele>
        <time>2019-05-25T13:08:37Z</time>
      </trkpt>
      <trkpt lat="41.4723290" lon="-4.7606180">
        <ele>704.2</ele>
        <time>2019-05-25T13:08:38Z</time>
      </trkpt>
      <trkpt lat="41.4723790" lon="-4.7606510">
        <ele>704.2</ele>
        <time>2019-05-25T13:08:39Z</time>
      </trkpt>
      <trkpt lat="41.4724340" lon="-4.7606870">
        <ele>704.2</ele>
        <time>2019-05-25T13:08:40Z</time>
      </trkpt>
      <trkpt lat="41.4724890" lon="-4.7607330">
        <ele>704.2</ele>
        <time>2019-05-25T13:08:41Z</time>
      </trkpt>
      <trkpt lat="41.4725410" lon="-4.7607530">
        <ele>704.2</ele>
        <time>2019-05-25T13:08:42Z</time>
      </trkpt>
      <trkpt lat="41.4725950" lon="-4.7607760">
        <ele>704.2</ele>
        <time>2019-05-25T13:08:43Z</time>
      </trkpt>
      <trkpt lat="41.4726490" lon="-4.7608000">
        <ele>704.2</ele>
        <time>2019-05-25T13:08:44Z</time>
      </trkpt>
      <trkpt lat="41.4726900" lon="-4.7608480">
        <ele>704.2</ele>
        <time>2019-05-25T13:08:45Z</time>
      </trkpt>
      <trkpt lat="41.4727450" lon="-4.7608840">
        <ele>704.2</ele>
        <time>2019-05-25T13:08:46Z</time>
      </trkpt>
      <trkpt lat="41.4728070" lon="-4.7609290">
        <ele>704.2</ele>
        <time>2019-05-25T13:08:47Z</time>
      </trkpt>
      <trkpt lat="41.4728670" lon="-4.7609500">
        <ele>704.2</ele>
        <time>2019-05-25T13:08:48Z</time>
      </trkpt>
      <trkpt lat="41.4729300" lon="-4.7609510">
        <ele>704.2</ele>
        <time>2019-05-25T13:08:49Z</time>
      </trkpt>
      <trkpt lat="41.4729690" lon="-4.7610140">
        <ele>704.2</ele>
        <time>2019-05-25T13:08:50Z</time>
      </trkpt>
      <trkpt lat="41.4730380" lon="-4.7610290">
        <ele>704.3</ele>
        <time>2019-05-25T13:08:51Z</time>
      </trkpt>
      <trkpt lat="41.4730990" lon="-4.7610270">
        <ele>704.3</ele>
        <time>2019-05-25T13:08:52Z</time>
      </trkpt>
      <trkpt lat="41.4731370" lon="-4.7610540">
        <ele>704.3</ele>
        <time>2019-05-25T13:08:53Z</time>
      </trkpt>
      <trkpt lat="41.4731710" lon="-4.7610710">
        <ele>704.3</ele>
        <time>2019-05-25T13:08:54Z</time>
      </trkpt>
      <trkpt lat="41.4732170" lon="-4.7610950">
        <ele>704.3</ele>
        <time>2019-05-25T13:08:56Z</time>
      </trkpt>
      <trkpt lat="41.4734950" lon="-4.7612770">
        <ele>704.5</ele>
        <time>2019-05-25T13:08:58Z</time>
      </trkpt>
      <trkpt lat="41.4735950" lon="-4.7613260">
        <ele>704.6</ele>
        <time>2019-05-25T13:08:59Z</time>
      </trkpt>
      <trkpt lat="41.4736770" lon="-4.7612890">
        <ele>704.6</ele>
        <time>2019-05-25T13:09:00Z</time>
      </trkpt>
      <trkpt lat="41.4737210" lon="-4.7613870">
        <ele>704.7</ele>
        <time>2019-05-25T13:09:01Z</time>
      </trkpt>
      <trkpt lat="41.4736780" lon="-4.7613100">
        <ele>704.7</ele>
        <time>2019-05-25T13:09:02Z</time>
      </trkpt>
      <trkpt lat="41.4737490" lon="-4.7613460">
        <ele>704.8</ele>
        <time>2019-05-25T13:09:03Z</time>
      </trkpt>
      <trkpt lat="41.4738140" lon="-4.7613750">
        <ele>704.8</ele>
        <time>2019-05-25T13:09:04Z</time>
      </trkpt>
      <trkpt lat="41.4738800" lon="-4.7613740">
        <ele>704.8</ele>
        <time>2019-05-25T13:09:05Z</time>
      </trkpt>
      <trkpt lat="41.4739190" lon="-4.7613760">
        <ele>704.8</ele>
        <time>2019-05-25T13:09:06Z</time>
      </trkpt>
      <trkpt lat="41.4739820" lon="-4.7613990">
        <ele>704.8</ele>
        <time>2019-05-25T13:09:07Z</time>
      </trkpt>
      <trkpt lat="41.4740450" lon="-4.7614020">
        <ele>704.8</ele>
        <time>2019-05-25T13:09:08Z</time>
      </trkpt>
      <trkpt lat="41.4741170" lon="-4.7613930">
        <ele>704.8</ele>
        <time>2019-05-25T13:09:09Z</time>
      </trkpt>
      <trkpt lat="41.4741840" lon="-4.7613970">
        <ele>704.8</ele>
        <time>2019-05-25T13:09:10Z</time>
      </trkpt>
      <trkpt lat="41.4742350" lon="-4.7614140">
        <ele>704.8</ele>
        <time>2019-05-25T13:09:11Z</time>
      </trkpt>
      <trkpt lat="41.4742950" lon="-4.7614200">
        <ele>704.8</ele>
        <time>2019-05-25T13:09:12Z</time>
      </trkpt>
      <trkpt lat="41.4743500" lon="-4.7614320">
        <ele>704.8</ele>
        <time>2019-05-25T13:09:13Z</time>
      </trkpt>
      <trkpt lat="41.4743960" lon="-4.7614330">
        <ele>704.8</ele>
        <time>2019-05-25T13:09:14Z</time>
      </trkpt>
      <trkpt lat="41.4744500" lon="-4.7614400">
        <ele>704.8</ele>
        <time>2019-05-25T13:09:15Z</time>
      </trkpt>
      <trkpt lat="41.4745170" lon="-4.7614550">
        <ele>704.8</ele>
        <time>2019-05-25T13:09:16Z</time>
      </trkpt>
      <trkpt lat="41.4745610" lon="-4.7614450">
        <ele>704.8</ele>
        <time>2019-05-25T13:09:17Z</time>
      </trkpt>
      <trkpt lat="41.4746220" lon="-4.7614460">
        <ele>704.8</ele>
        <time>2019-05-25T13:09:18Z</time>
      </trkpt>
      <trkpt lat="41.4746950" lon="-4.7614730">
        <ele>704.8</ele>
        <time>2019-05-25T13:09:19Z</time>
      </trkpt>
      <trkpt lat="41.4747560" lon="-4.7614710">
        <ele>704.7</ele>
        <time>2019-05-25T13:09:20Z</time>
      </trkpt>
      <trkpt lat="41.4748250" lon="-4.7614910">
        <ele>704.7</ele>
        <time>2019-05-25T13:09:21Z</time>
      </trkpt>
      <trkpt lat="41.4748870" lon="-4.7614830">
        <ele>704.7</ele>
        <time>2019-05-25T13:09:22Z</time>
      </trkpt>
      <trkpt lat="41.4749450" lon="-4.7614920">
        <ele>704.7</ele>
        <time>2019-05-25T13:09:23Z</time>
      </trkpt>
      <trkpt lat="41.4750120" lon="-4.7615100">
        <ele>704.7</ele>
        <time>2019-05-25T13:09:24Z</time>
      </trkpt>
      <trkpt lat="41.4750710" lon="-4.7615240">
        <ele>704.7</ele>
        <time>2019-05-25T13:09:25Z</time>
      </trkpt>
      <trkpt lat="41.4751390" lon="-4.7615340">
        <ele>704.7</ele>
        <time>2019-05-25T13:09:26Z</time>
      </trkpt>
      <trkpt lat="41.4752030" lon="-4.7615580">
        <ele>704.6</ele>
        <time>2019-05-25T13:09:27Z</time>
      </trkpt>
      <trkpt lat="41.4752560" lon="-4.7615610">
        <ele>704.6</ele>
        <time>2019-05-25T13:09:28Z</time>
      </trkpt>
      <trkpt lat="41.4753080" lon="-4.7615650">
        <ele>704.6</ele>
        <time>2019-05-25T13:09:29Z</time>
      </trkpt>
      <trkpt lat="41.4753640" lon="-4.7615820">
        <ele>704.6</ele>
        <time>2019-05-25T13:09:30Z</time>
      </trkpt>
      <trkpt lat="41.4754260" lon="-4.7615970">
        <ele>704.5</ele>
        <time>2019-05-25T13:09:31Z</time>
      </trkpt>
      <trkpt lat="41.4754880" lon="-4.7616170">
        <ele>704.5</ele>
        <time>2019-05-25T13:09:32Z</time>
      </trkpt>
      <trkpt lat="41.4755480" lon="-4.7616290">
        <ele>704.5</ele>
        <time>2019-05-25T13:09:33Z</time>
      </trkpt>
      <trkpt lat="41.4755940" lon="-4.7616410">
        <ele>704.4</ele>
        <time>2019-05-25T13:09:34Z</time>
      </trkpt>
      <trkpt lat="41.4756600" lon="-4.7616620">
        <ele>704.4</ele>
        <time>2019-05-25T13:09:35Z</time>
      </trkpt>
      <trkpt lat="41.4757100" lon="-4.7616690">
        <ele>704.4</ele>
        <time>2019-05-25T13:09:36Z</time>
      </trkpt>
      <trkpt lat="41.4757680" lon="-4.7617000">
        <ele>704.4</ele>
        <time>2019-05-25T13:09:37Z</time>
      </trkpt>
      <trkpt lat="41.4758320" lon="-4.7617120">
        <ele>704.4</ele>
        <time>2019-05-25T13:09:38Z</time>
      </trkpt>
      <trkpt lat="41.4758870" lon="-4.7617290">
        <ele>704.4</ele>
        <time>2019-05-25T13:09:39Z</time>
      </trkpt>
      <trkpt lat="41.4759510" lon="-4.7617660">
        <ele>704.4</ele>
        <time>2019-05-25T13:09:40Z</time>
      </trkpt>
      <trkpt lat="41.4760140" lon="-4.7617850">
        <ele>704.4</ele>
        <time>2019-05-25T13:09:41Z</time>
      </trkpt>
      <trkpt lat="41.4760680" lon="-4.7617850">
        <ele>704.4</ele>
        <time>2019-05-25T13:09:42Z</time>
      </trkpt>
      <trkpt lat="41.4761300" lon="-4.7617980">
        <ele>704.5</ele>
        <time>2019-05-25T13:09:43Z</time>
      </trkpt>
      <trkpt lat="41.4761950" lon="-4.7618630">
        <ele>704.6</ele>
        <time>2019-05-25T13:09:44Z</time>
      </trkpt>
      <trkpt lat="41.4762500" lon="-4.7618820">
        <ele>704.6</ele>
        <time>2019-05-25T13:09:45Z</time>
      </trkpt>
      <trkpt lat="41.4763060" lon="-4.7618900">
        <ele>704.7</ele>
        <time>2019-05-25T13:09:46Z</time>
      </trkpt>
      <trkpt lat="41.4763650" lon="-4.7619120">
        <ele>704.7</ele>
        <time>2019-05-25T13:09:47Z</time>
      </trkpt>
      <trkpt lat="41.4764230" lon="-4.7619420">
        <ele>704.7</ele>
        <time>2019-05-25T13:09:48Z</time>
      </trkpt>
      <trkpt lat="41.4764870" lon="-4.7619460">
        <ele>704.8</ele>
        <time>2019-05-25T13:09:49Z</time>
      </trkpt>
      <trkpt lat="41.4765410" lon="-4.7619660">
        <ele>704.8</ele>
        <time>2019-05-25T13:09:50Z</time>
      </trkpt>
      <trkpt lat="41.4766110" lon="-4.7619870">
        <ele>704.8</ele>
        <time>2019-05-25T13:09:51Z</time>
      </trkpt>
      <trkpt lat="41.4766720" lon="-4.7619960">
        <ele>704.8</ele>
        <time>2019-05-25T13:09:52Z</time>
      </trkpt>
      <trkpt lat="41.4767380" lon="-4.7620210">
        <ele>704.8</ele>
        <time>2019-05-25T13:09:53Z</time>
      </trkpt>
      <trkpt lat="41.4767980" lon="-4.7620430">
        <ele>704.8</ele>
        <time>2019-05-25T13:09:54Z</time>
      </trkpt>
      <trkpt lat="41.4768570" lon="-4.7620340">
        <ele>704.8</ele>
        <time>2019-05-25T13:09:55Z</time>
      </trkpt>
      <trkpt lat="41.4769240" lon="-4.7620620">
        <ele>704.8</ele>
        <time>2019-05-25T13:09:56Z</time>
      </trkpt>
      <trkpt lat="41.4769760" lon="-4.7620750">
        <ele>704.8</ele>
        <time>2019-05-25T13:09:57Z</time>
      </trkpt>
      <trkpt lat="41.4770320" lon="-4.7621180">
        <ele>704.7</ele>
        <time>2019-05-25T13:09:58Z</time>
      </trkpt>
      <trkpt lat="41.4770940" lon="-4.7621300">
        <ele>704.7</ele>
        <time>2019-05-25T13:09:59Z</time>
      </trkpt>
      <trkpt lat="41.4771520" lon="-4.7621310">
        <ele>704.7</ele>
        <time>2019-05-25T13:10:00Z</time>
      </trkpt>
      <trkpt lat="41.4772170" lon="-4.7621530">
        <ele>704.6</ele>
        <time>2019-05-25T13:10:01Z</time>
      </trkpt>
      <trkpt lat="41.4772710" lon="-4.7621710">
        <ele>704.6</ele>
        <time>2019-05-25T13:10:02Z</time>
      </trkpt>
      <trkpt lat="41.4773210" lon="-4.7621570">
        <ele>704.6</ele>
        <time>2019-05-25T13:10:03Z</time>
      </trkpt>
      <trkpt lat="41.4773770" lon="-4.7621480">
        <ele>704.6</ele>
        <time>2019-05-25T13:10:04Z</time>
      </trkpt>
      <trkpt lat="41.4774400" lon="-4.7621720">
        <ele>704.6</ele>
        <time>2019-05-25T13:10:05Z</time>
      </trkpt>
      <trkpt lat="41.4775010" lon="-4.7621710">
        <ele>704.6</ele>
        <time>2019-05-25T13:10:06Z</time>
      </trkpt>
      <trkpt lat="41.4775540" lon="-4.7621820">
        <ele>704.5</ele>
        <time>2019-05-25T13:10:07Z</time>
      </trkpt>
      <trkpt lat="41.4775900" lon="-4.7621900">
        <ele>704.5</ele>
        <time>2019-05-25T13:10:08Z</time>
      </trkpt>
      <trkpt lat="41.4776520" lon="-4.7622110">
        <ele>704.5</ele>
        <time>2019-05-25T13:10:09Z</time>
      </trkpt>
      <trkpt lat="41.4777020" lon="-4.7622110">
        <ele>704.5</ele>
        <time>2019-05-25T13:10:10Z</time>
      </trkpt>
      <trkpt lat="41.4777430" lon="-4.7622310">
        <ele>704.5</ele>
        <time>2019-05-25T13:10:11Z</time>
      </trkpt>
      <trkpt lat="41.4777750" lon="-4.7622540">
        <ele>704.4</ele>
        <time>2019-05-25T13:10:12Z</time>
      </trkpt>
      <trkpt lat="41.4778100" lon="-4.7622630">
        <ele>704.4</ele>
        <time>2019-05-25T13:10:13Z</time>
      </trkpt>
      <trkpt lat="41.4778670" lon="-4.7622860">
        <ele>704.4</ele>
        <time>2019-05-25T13:10:14Z</time>
      </trkpt>
      <trkpt lat="41.4779360" lon="-4.7623090">
        <ele>704.4</ele>
        <time>2019-05-25T13:10:15Z</time>
      </trkpt>
      <trkpt lat="41.4780200" lon="-4.7623500">
        <ele>704.4</ele>
        <time>2019-05-25T13:10:16Z</time>
      </trkpt>
      <trkpt lat="41.4780960" lon="-4.7623850">
        <ele>704.4</ele>
        <time>2019-05-25T13:10:17Z</time>
      </trkpt>
      <trkpt lat="41.4781660" lon="-4.7624090">
        <ele>704.4</ele>
        <time>2019-05-25T13:10:18Z</time>
      </trkpt>
      <trkpt lat="41.4782450" lon="-4.7624370">
        <ele>704.4</ele>
        <time>2019-05-25T13:10:19Z</time>
      </trkpt>
      <trkpt lat="41.4783170" lon="-4.7624480">
        <ele>704.4</ele>
        <time>2019-05-25T13:10:20Z</time>
      </trkpt>
      <trkpt lat="41.4783800" lon="-4.7624590">
        <ele>704.4</ele>
        <time>2019-05-25T13:10:21Z</time>
      </trkpt>
      <trkpt lat="41.4784420" lon="-4.7624680">
        <ele>704.4</ele>
        <time>2019-05-25T13:10:22Z</time>
      </trkpt>
      <trkpt lat="41.4784990" lon="-4.7624790">
        <ele>704.4</ele>
        <time>2019-05-25T13:10:23Z</time>
      </trkpt>
      <trkpt lat="41.4785560" lon="-4.7624930">
        <ele>704.4</ele>
        <time>2019-05-25T13:10:24Z</time>
      </trkpt>
      <trkpt lat="41.4785910" lon="-4.7625080">
        <ele>704.4</ele>
        <time>2019-05-25T13:10:25Z</time>
      </trkpt>
      <trkpt lat="41.4786420" lon="-4.7625420">
        <ele>704.4</ele>
        <time>2019-05-25T13:10:27Z</time>
      </trkpt>
      <trkpt lat="41.4787170" lon="-4.7625980">
        <ele>704.3</ele>
        <time>2019-05-25T13:10:29Z</time>
      </trkpt>
      <trkpt lat="41.4787550" lon="-4.7626400">
        <ele>704.3</ele>
        <time>2019-05-25T13:10:30Z</time>
      </trkpt>
      <trkpt lat="41.4787990" lon="-4.7626780">
        <ele>704.2</ele>
        <time>2019-05-25T13:10:31Z</time>
      </trkpt>
      <trkpt lat="41.4788510" lon="-4.7627200">
        <ele>704.2</ele>
        <time>2019-05-25T13:10:32Z</time>
      </trkpt>
      <trkpt lat="41.4790010" lon="-4.7627450">
        <ele>704.0</ele>
        <time>2019-05-25T13:10:33Z</time>
      </trkpt>
      <trkpt lat="41.4791110" lon="-4.7628650">
        <ele>703.9</ele>
        <time>2019-05-25T13:10:34Z</time>
      </trkpt>
      <trkpt lat="41.4791550" lon="-4.7629110">
        <ele>703.8</ele>
        <time>2019-05-25T13:10:35Z</time>
      </trkpt>
      <trkpt lat="41.4792030" lon="-4.7629550">
        <ele>703.8</ele>
        <time>2019-05-25T13:10:36Z</time>
      </trkpt>
      <trkpt lat="41.4792510" lon="-4.7629890">
        <ele>703.7</ele>
        <time>2019-05-25T13:10:37Z</time>
      </trkpt>
      <trkpt lat="41.4793080" lon="-4.7630170">
        <ele>703.7</ele>
        <time>2019-05-25T13:10:38Z</time>
      </trkpt>
      <trkpt lat="41.4793580" lon="-4.7630670">
        <ele>703.7</ele>
        <time>2019-05-25T13:10:39Z</time>
      </trkpt>
      <trkpt lat="41.4794070" lon="-4.7631100">
        <ele>703.6</ele>
        <time>2019-05-25T13:10:40Z</time>
      </trkpt>
      <trkpt lat="41.4794600" lon="-4.7631470">
        <ele>703.6</ele>
        <time>2019-05-25T13:10:41Z</time>
      </trkpt>
      <trkpt lat="41.4795150" lon="-4.7631810">
        <ele>703.6</ele>
        <time>2019-05-25T13:10:42Z</time>
      </trkpt>
      <trkpt lat="41.4795570" lon="-4.7632090">
        <ele>703.6</ele>
        <time>2019-05-25T13:10:43Z</time>
      </trkpt>
      <trkpt lat="41.4796030" lon="-4.7632550">
        <ele>703.6</ele>
        <time>2019-05-25T13:10:44Z</time>
      </trkpt>
      <trkpt lat="41.4796570" lon="-4.7632830">
        <ele>703.6</ele>
        <time>2019-05-25T13:10:45Z</time>
      </trkpt>
      <trkpt lat="41.4797070" lon="-4.7633170">
        <ele>703.6</ele>
        <time>2019-05-25T13:10:46Z</time>
      </trkpt>
      <trkpt lat="41.4797530" lon="-4.7633480">
        <ele>703.6</ele>
        <time>2019-05-25T13:10:47Z</time>
      </trkpt>
      <trkpt lat="41.4798020" lon="-4.7633930">
        <ele>703.6</ele>
        <time>2019-05-25T13:10:48Z</time>
      </trkpt>
      <trkpt lat="41.4798540" lon="-4.7634220">
        <ele>703.6</ele>
        <time>2019-05-25T13:10:49Z</time>
      </trkpt>
      <trkpt lat="41.4799060" lon="-4.7634760">
        <ele>703.7</ele>
        <time>2019-05-25T13:10:50Z</time>
      </trkpt>
      <trkpt lat="41.4799560" lon="-4.7635060">
        <ele>703.7</ele>
        <time>2019-05-25T13:10:51Z</time>
      </trkpt>
      <trkpt lat="41.4799990" lon="-4.7635430">
        <ele>703.8</ele>
        <time>2019-05-25T13:10:52Z</time>
      </trkpt>
      <trkpt lat="41.4800580" lon="-4.7635790">
        <ele>703.8</ele>
        <time>2019-05-25T13:10:53Z</time>
      </trkpt>
      <trkpt lat="41.4801060" lon="-4.7636120">
        <ele>703.9</ele>
        <time>2019-05-25T13:10:54Z</time>
      </trkpt>
      <trkpt lat="41.4801550" lon="-4.7636380">
        <ele>703.9</ele>
        <time>2019-05-25T13:10:55Z</time>
      </trkpt>
      <trkpt lat="41.4802050" lon="-4.7636630">
        <ele>703.9</ele>
        <time>2019-05-25T13:10:56Z</time>
      </trkpt>
      <trkpt lat="41.4802520" lon="-4.7636980">
        <ele>703.9</ele>
        <time>2019-05-25T13:10:57Z</time>
      </trkpt>
      <trkpt lat="41.4803110" lon="-4.7637290">
        <ele>703.9</ele>
        <time>2019-05-25T13:10:58Z</time>
      </trkpt>
      <trkpt lat="41.4803620" lon="-4.7637670">
        <ele>703.8</ele>
        <time>2019-05-25T13:10:59Z</time>
      </trkpt>
      <trkpt lat="41.4804210" lon="-4.7637920">
        <ele>703.8</ele>
        <time>2019-05-25T13:11:00Z</time>
      </trkpt>
      <trkpt lat="41.4804690" lon="-4.7638230">
        <ele>703.8</ele>
        <time>2019-05-25T13:11:01Z</time>
      </trkpt>
      <trkpt lat="41.4805210" lon="-4.7638620">
        <ele>703.8</ele>
        <time>2019-05-25T13:11:02Z</time>
      </trkpt>
      <trkpt lat="41.4805700" lon="-4.7638800">
        <ele>703.7</ele>
        <time>2019-05-25T13:11:03Z</time>
      </trkpt>
      <trkpt lat="41.4806240" lon="-4.7639100">
        <ele>703.7</ele>
        <time>2019-05-25T13:11:04Z</time>
      </trkpt>
      <trkpt lat="41.4806810" lon="-4.7639280">
        <ele>703.7</ele>
        <time>2019-05-25T13:11:05Z</time>
      </trkpt>
      <trkpt lat="41.4807300" lon="-4.7639530">
        <ele>703.7</ele>
        <time>2019-05-25T13:11:06Z</time>
      </trkpt>
      <trkpt lat="41.4807850" lon="-4.7639700">
        <ele>703.7</ele>
        <time>2019-05-25T13:11:07Z</time>
      </trkpt>
      <trkpt lat="41.4808310" lon="-4.7639940">
        <ele>703.7</ele>
        <time>2019-05-25T13:11:08Z</time>
      </trkpt>
      <trkpt lat="41.4808590" lon="-4.7640420">
        <ele>703.7</ele>
        <time>2019-05-25T13:11:09Z</time>
      </trkpt>
      <trkpt lat="41.4809100" lon="-4.7640700">
        <ele>703.7</ele>
        <time>2019-05-25T13:11:10Z</time>
      </trkpt>
      <trkpt lat="41.4809540" lon="-4.7641230">
        <ele>703.7</ele>
        <time>2019-05-25T13:11:11Z</time>
      </trkpt>
      <trkpt lat="41.4810010" lon="-4.7641460">
        <ele>703.7</ele>
        <time>2019-05-25T13:11:12Z</time>
      </trkpt>
      <trkpt lat="41.4810480" lon="-4.7641930">
        <ele>703.7</ele>
        <time>2019-05-25T13:11:13Z</time>
      </trkpt>
      <trkpt lat="41.4810960" lon="-4.7642380">
        <ele>703.7</ele>
        <time>2019-05-25T13:11:14Z</time>
      </trkpt>
      <trkpt lat="41.4811390" lon="-4.7642830">
        <ele>703.7</ele>
        <time>2019-05-25T13:11:15Z</time>
      </trkpt>
      <trkpt lat="41.4811820" lon="-4.7643210">
        <ele>703.7</ele>
        <time>2019-05-25T13:11:16Z</time>
      </trkpt>
      <trkpt lat="41.4812230" lon="-4.7643540">
        <ele>703.7</ele>
        <time>2019-05-25T13:11:17Z</time>
      </trkpt>
      <trkpt lat="41.4812670" lon="-4.7643760">
        <ele>703.7</ele>
        <time>2019-05-25T13:11:18Z</time>
      </trkpt>
      <trkpt lat="41.4813040" lon="-4.7644130">
        <ele>703.7</ele>
        <time>2019-05-25T13:11:19Z</time>
      </trkpt>
      <trkpt lat="41.4813500" lon="-4.7644490">
        <ele>703.8</ele>
        <time>2019-05-25T13:11:20Z</time>
      </trkpt>
      <trkpt lat="41.4813930" lon="-4.7644830">
        <ele>703.8</ele>
        <time>2019-05-25T13:11:21Z</time>
      </trkpt>
      <trkpt lat="41.4814400" lon="-4.7645110">
        <ele>703.8</ele>
        <time>2019-05-25T13:11:22Z</time>
      </trkpt>
      <trkpt lat="41.4814790" lon="-4.7645480">
        <ele>703.8</ele>
        <time>2019-05-25T13:11:23Z</time>
      </trkpt>
      <trkpt lat="41.4815180" lon="-4.7645920">
        <ele>703.9</ele>
        <time>2019-05-25T13:11:24Z</time>
      </trkpt>
      <trkpt lat="41.4815580" lon="-4.7646180">
        <ele>703.9</ele>
        <time>2019-05-25T13:11:25Z</time>
      </trkpt>
      <trkpt lat="41.4815960" lon="-4.7646170">
        <ele>703.9</ele>
        <time>2019-05-25T13:11:26Z</time>
      </trkpt>
      <trkpt lat="41.4816460" lon="-4.7646380">
        <ele>703.9</ele>
        <time>2019-05-25T13:11:27Z</time>
      </trkpt>
      <trkpt lat="41.4816950" lon="-4.7646790">
        <ele>703.9</ele>
        <time>2019-05-25T13:11:28Z</time>
      </trkpt>
      <trkpt lat="41.4817400" lon="-4.7647150">
        <ele>703.9</ele>
        <time>2019-05-25T13:11:29Z</time>
      </trkpt>
      <trkpt lat="41.4817860" lon="-4.7647510">
        <ele>704.0</ele>
        <time>2019-05-25T13:11:30Z</time>
      </trkpt>
      <trkpt lat="41.4818300" lon="-4.7647690">
        <ele>704.0</ele>
        <time>2019-05-25T13:11:31Z</time>
      </trkpt>
      <trkpt lat="41.4818840" lon="-4.7647980">
        <ele>704.0</ele>
        <time>2019-05-25T13:11:32Z</time>
      </trkpt>
      <trkpt lat="41.4819270" lon="-4.7648450">
        <ele>704.0</ele>
        <time>2019-05-25T13:11:33Z</time>
      </trkpt>
      <trkpt lat="41.4819860" lon="-4.7648800">
        <ele>704.0</ele>
        <time>2019-05-25T13:11:34Z</time>
      </trkpt>
      <trkpt lat="41.4820340" lon="-4.7649150">
        <ele>704.0</ele>
        <time>2019-05-25T13:11:35Z</time>
      </trkpt>
      <trkpt lat="41.4820850" lon="-4.7649500">
        <ele>704.0</ele>
        <time>2019-05-25T13:11:36Z</time>
      </trkpt>
      <trkpt lat="41.4821410" lon="-4.7649850">
        <ele>704.0</ele>
        <time>2019-05-25T13:11:37Z</time>
      </trkpt>
      <trkpt lat="41.4821890" lon="-4.7650030">
        <ele>704.1</ele>
        <time>2019-05-25T13:11:38Z</time>
      </trkpt>
      <trkpt lat="41.4822250" lon="-4.7650370">
        <ele>703.9</ele>
        <time>2019-05-25T13:11:39Z</time>
      </trkpt>
      <trkpt lat="41.4822720" lon="-4.7650900">
        <ele>703.7</ele>
        <time>2019-05-25T13:11:40Z</time>
      </trkpt>
      <trkpt lat="41.4823210" lon="-4.7651370">
        <ele>703.4</ele>
        <time>2019-05-25T13:11:41Z</time>
      </trkpt>
      <trkpt lat="41.4823660" lon="-4.7651950">
        <ele>703.2</ele>
        <time>2019-05-25T13:11:42Z</time>
      </trkpt>
      <trkpt lat="41.4824190" lon="-4.7652370">
        <ele>703.0</ele>
        <time>2019-05-25T13:11:43Z</time>
      </trkpt>
      <trkpt lat="41.4824730" lon="-4.7652790">
        <ele>702.9</ele>
        <time>2019-05-25T13:11:44Z</time>
      </trkpt>
      <trkpt lat="41.4825220" lon="-4.7653100">
        <ele>702.7</ele>
        <time>2019-05-25T13:11:45Z</time>
      </trkpt>
      <trkpt lat="41.4825710" lon="-4.7653510">
        <ele>702.6</ele>
        <time>2019-05-25T13:11:46Z</time>
      </trkpt>
      <trkpt lat="41.4826080" lon="-4.7653900">
        <ele>702.4</ele>
        <time>2019-05-25T13:11:47Z</time>
      </trkpt>
      <trkpt lat="41.4826640" lon="-4.7654140">
        <ele>702.3</ele>
        <time>2019-05-25T13:11:48Z</time>
      </trkpt>
      <trkpt lat="41.4827170" lon="-4.7654340">
        <ele>702.1</ele>
        <time>2019-05-25T13:11:49Z</time>
      </trkpt>
      <trkpt lat="41.4827680" lon="-4.7654970">
        <ele>701.9</ele>
        <time>2019-05-25T13:11:50Z</time>
      </trkpt>
      <trkpt lat="41.4828160" lon="-4.7655350">
        <ele>701.8</ele>
        <time>2019-05-25T13:11:51Z</time>
      </trkpt>
      <trkpt lat="41.4828700" lon="-4.7655810">
        <ele>701.6</ele>
        <time>2019-05-25T13:11:52Z</time>
      </trkpt>
      <trkpt lat="41.4829270" lon="-4.7656260">
        <ele>701.4</ele>
        <time>2019-05-25T13:11:53Z</time>
      </trkpt>
      <trkpt lat="41.4829810" lon="-4.7656730">
        <ele>701.3</ele>
        <time>2019-05-25T13:11:54Z</time>
      </trkpt>
      <trkpt lat="41.4830410" lon="-4.7657090">
        <ele>701.1</ele>
        <time>2019-05-25T13:11:55Z</time>
      </trkpt>
      <trkpt lat="41.4830910" lon="-4.7657320">
        <ele>700.9</ele>
        <time>2019-05-25T13:11:56Z</time>
      </trkpt>
      <trkpt lat="41.4831380" lon="-4.7657640">
        <ele>700.8</ele>
        <time>2019-05-25T13:11:57Z</time>
      </trkpt>
      <trkpt lat="41.4832000" lon="-4.7657930">
        <ele>700.6</ele>
        <time>2019-05-25T13:11:58Z</time>
      </trkpt>
      <trkpt lat="41.4832570" lon="-4.7658300">
        <ele>700.5</ele>
        <time>2019-05-25T13:11:59Z</time>
      </trkpt>
      <trkpt lat="41.4833200" lon="-4.7658730">
        <ele>700.4</ele>
        <time>2019-05-25T13:12:00Z</time>
      </trkpt>
      <trkpt lat="41.4833760" lon="-4.7659040">
        <ele>700.4</ele>
        <time>2019-05-25T13:12:01Z</time>
      </trkpt>
      <trkpt lat="41.4834260" lon="-4.7659320">
        <ele>700.4</ele>
        <time>2019-05-25T13:12:02Z</time>
      </trkpt>
      <trkpt lat="41.4834800" lon="-4.7659530">
        <ele>700.3</ele>
        <time>2019-05-25T13:12:03Z</time>
      </trkpt>
      <trkpt lat="41.4835370" lon="-4.7659680">
        <ele>700.3</ele>
        <time>2019-05-25T13:12:04Z</time>
      </trkpt>
      <trkpt lat="41.4835900" lon="-4.7660100">
        <ele>700.3</ele>
        <time>2019-05-25T13:12:05Z</time>
      </trkpt>
      <trkpt lat="41.4836440" lon="-4.7660440">
        <ele>700.3</ele>
        <time>2019-05-25T13:12:06Z</time>
      </trkpt>
      <trkpt lat="41.4837010" lon="-4.7660830">
        <ele>700.3</ele>
        <time>2019-05-25T13:12:07Z</time>
      </trkpt>
      <trkpt lat="41.4837550" lon="-4.7661170">
        <ele>700.2</ele>
        <time>2019-05-25T13:12:08Z</time>
      </trkpt>
      <trkpt lat="41.4838150" lon="-4.7661410">
        <ele>700.2</ele>
        <time>2019-05-25T13:12:09Z</time>
      </trkpt>
      <trkpt lat="41.4838650" lon="-4.7661680">
        <ele>700.2</ele>
        <time>2019-05-25T13:12:10Z</time>
      </trkpt>
      <trkpt lat="41.4839130" lon="-4.7661860">
        <ele>700.2</ele>
        <time>2019-05-25T13:12:11Z</time>
      </trkpt>
      <trkpt lat="41.4839640" lon="-4.7662040">
        <ele>700.2</ele>
        <time>2019-05-25T13:12:12Z</time>
      </trkpt>
      <trkpt lat="41.4840210" lon="-4.7662410">
        <ele>700.2</ele>
        <time>2019-05-25T13:12:13Z</time>
      </trkpt>
      <trkpt lat="41.4840850" lon="-4.7662690">
        <ele>700.1</ele>
        <time>2019-05-25T13:12:14Z</time>
      </trkpt>
      <trkpt lat="41.4841360" lon="-4.7662920">
        <ele>700.1</ele>
        <time>2019-05-25T13:12:15Z</time>
      </trkpt>
      <trkpt lat="41.4841960" lon="-4.7663450">
        <ele>700.1</ele>
        <time>2019-05-25T13:12:16Z</time>
      </trkpt>
      <trkpt lat="41.4842510" lon="-4.7663780">
        <ele>700.1</ele>
        <time>2019-05-25T13:12:17Z</time>
      </trkpt>
      <trkpt lat="41.4843000" lon="-4.7664040">
        <ele>700.1</ele>
        <time>2019-05-25T13:12:18Z</time>
      </trkpt>
      <trkpt lat="41.4843420" lon="-4.7664190">
        <ele>700.1</ele>
        <time>2019-05-25T13:12:19Z</time>
      </trkpt>
      <trkpt lat="41.4843910" lon="-4.7664380">
        <ele>700.0</ele>
        <time>2019-05-25T13:12:20Z</time>
      </trkpt>
      <trkpt lat="41.4844270" lon="-4.7664650">
        <ele>700.0</ele>
        <time>2019-05-25T13:12:21Z</time>
      </trkpt>
      <trkpt lat="41.4844790" lon="-4.7664780">
        <ele>700.0</ele>
        <time>2019-05-25T13:12:22Z</time>
      </trkpt>
      <trkpt lat="41.4845060" lon="-4.7664820">
        <ele>700.0</ele>
        <time>2019-05-25T13:12:23Z</time>
      </trkpt>
      <trkpt lat="41.4845470" lon="-4.7664880">
        <ele>700.0</ele>
        <time>2019-05-25T13:12:25Z</time>
      </trkpt>
      <trkpt lat="41.4846110" lon="-4.7665100">
        <ele>700.0</ele>
        <time>2019-05-25T13:12:26Z</time>
      </trkpt>
      <trkpt lat="41.4846920" lon="-4.7665380">
        <ele>700.0</ele>
        <time>2019-05-25T13:12:27Z</time>
      </trkpt>
      <trkpt lat="41.4847660" lon="-4.7665650">
        <ele>699.9</ele>
        <time>2019-05-25T13:12:28Z</time>
      </trkpt>
      <trkpt lat="41.4848250" lon="-4.7665980">
        <ele>699.8</ele>
        <time>2019-05-25T13:12:29Z</time>
      </trkpt>
      <trkpt lat="41.4848860" lon="-4.7666180">
        <ele>699.7</ele>
        <time>2019-05-25T13:12:30Z</time>
      </trkpt>
      <trkpt lat="41.4849340" lon="-4.7666440">
        <ele>699.7</ele>
        <time>2019-05-25T13:12:31Z</time>
      </trkpt>
      <trkpt lat="41.4849900" lon="-4.7666580">
        <ele>699.8</ele>
        <time>2019-05-25T13:12:32Z</time>
      </trkpt>
      <trkpt lat="41.4850460" lon="-4.7666800">
        <ele>699.9</ele>
        <time>2019-05-25T13:12:33Z</time>
      </trkpt>
      <trkpt lat="41.4851000" lon="-4.7667010">
        <ele>699.9</ele>
        <time>2019-05-25T13:12:34Z</time>
      </trkpt>
      <trkpt lat="41.4851530" lon="-4.7667400">
        <ele>699.8</ele>
        <time>2019-05-25T13:12:35Z</time>
      </trkpt>
      <trkpt lat="41.4852030" lon="-4.7667520">
        <ele>699.7</ele>
        <time>2019-05-25T13:12:36Z</time>
      </trkpt>
      <trkpt lat="41.4852520" lon="-4.7667570">
        <ele>699.5</ele>
        <time>2019-05-25T13:12:37Z</time>
      </trkpt>
      <trkpt lat="41.4852890" lon="-4.7667780">
        <ele>699.5</ele>
        <time>2019-05-25T13:12:38Z</time>
      </trkpt>
      <trkpt lat="41.4853420" lon="-4.7668010">
        <ele>699.6</ele>
        <time>2019-05-25T13:12:39Z</time>
      </trkpt>
      <trkpt lat="41.4853800" lon="-4.7668050">
        <ele>699.6</ele>
        <time>2019-05-25T13:12:40Z</time>
      </trkpt>
      <trkpt lat="41.4854210" lon="-4.7668120">
        <ele>699.4</ele>
        <time>2019-05-25T13:12:41Z</time>
      </trkpt>
      <trkpt lat="41.4854760" lon="-4.7668230">
        <ele>699.2</ele>
        <time>2019-05-25T13:12:42Z</time>
      </trkpt>
      <trkpt lat="41.4855190" lon="-4.7668440">
        <ele>699.0</ele>
        <time>2019-05-25T13:12:43Z</time>
      </trkpt>
      <trkpt lat="41.4855550" lon="-4.7668650">
        <ele>698.9</ele>
        <time>2019-05-25T13:12:44Z</time>
      </trkpt>
      <trkpt lat="41.4855960" lon="-4.7668860">
        <ele>698.7</ele>
        <time>2019-05-25T13:12:45Z</time>
      </trkpt>
      <trkpt lat="41.4856410" lon="-4.7669050">
        <ele>698.6</ele>
        <time>2019-05-25T13:12:46Z</time>
      </trkpt>
      <trkpt lat="41.4856900" lon="-4.7669280">
        <ele>698.5</ele>
        <time>2019-05-25T13:12:47Z</time>
      </trkpt>
      <trkpt lat="41.4857430" lon="-4.7669530">
        <ele>698.7</ele>
        <time>2019-05-25T13:12:48Z</time>
      </trkpt>
      <trkpt lat="41.4858000" lon="-4.7669800">
        <ele>698.9</ele>
        <time>2019-05-25T13:12:49Z</time>
      </trkpt>
      <trkpt lat="41.4858550" lon="-4.7670060">
        <ele>698.8</ele>
        <time>2019-05-25T13:12:50Z</time>
      </trkpt>
      <trkpt lat="41.4859050" lon="-4.7670250">
        <ele>698.8</ele>
        <time>2019-05-25T13:12:51Z</time>
      </trkpt>
      <trkpt lat="41.4859470" lon="-4.7670400">
        <ele>698.9</ele>
        <time>2019-05-25T13:12:52Z</time>
      </trkpt>
      <trkpt lat="41.4859820" lon="-4.7670500">
        <ele>698.9</ele>
        <time>2019-05-25T13:12:53Z</time>
      </trkpt>
      <trkpt lat="41.4860340" lon="-4.7670650">
        <ele>698.8</ele>
        <time>2019-05-25T13:12:54Z</time>
      </trkpt>
      <trkpt lat="41.4861510" lon="-4.7670810">
        <ele>699.1</ele>
        <time>2019-05-25T13:12:55Z</time>
      </trkpt>
      <trkpt lat="41.4862620" lon="-4.7671610">
        <ele>699.4</ele>
        <time>2019-05-25T13:12:56Z</time>
      </trkpt>
      <trkpt lat="41.4863110" lon="-4.7671780">
        <ele>699.6</ele>
        <time>2019-05-25T13:12:57Z</time>
      </trkpt>
      <trkpt lat="41.4863800" lon="-4.7671810">
        <ele>699.8</ele>
        <time>2019-05-25T13:12:58Z</time>
      </trkpt>
      <trkpt lat="41.4864330" lon="-4.7671920">
        <ele>699.8</ele>
        <time>2019-05-25T13:12:59Z</time>
      </trkpt>
      <trkpt lat="41.4864830" lon="-4.7672250">
        <ele>699.8</ele>
        <time>2019-05-25T13:13:00Z</time>
      </trkpt>
      <trkpt lat="41.4865360" lon="-4.7672430">
        <ele>699.7</ele>
        <time>2019-05-25T13:13:01Z</time>
      </trkpt>
      <trkpt lat="41.4865890" lon="-4.7672580">
        <ele>699.7</ele>
        <time>2019-05-25T13:13:02Z</time>
      </trkpt>
      <trkpt lat="41.4866240" lon="-4.7672840">
        <ele>699.6</ele>
        <time>2019-05-25T13:13:03Z</time>
      </trkpt>
      <trkpt lat="41.4867500" lon="-4.7673440">
        <ele>699.5</ele>
        <time>2019-05-25T13:13:04Z</time>
      </trkpt>
      <trkpt lat="41.4867780" lon="-4.7673530">
        <ele>699.5</ele>
        <time>2019-05-25T13:13:06Z</time>
      </trkpt>
      <trkpt lat="41.4868120" lon="-4.7673580">
        <ele>699.4</ele>
        <time>2019-05-25T13:13:07Z</time>
      </trkpt>
      <trkpt lat="41.4868690" lon="-4.7673680">
        <ele>699.4</ele>
        <time>2019-05-25T13:13:08Z</time>
      </trkpt>
      <trkpt lat="41.4869550" lon="-4.7674120">
        <ele>699.3</ele>
        <time>2019-05-25T13:13:09Z</time>
      </trkpt>
      <trkpt lat="41.4870070" lon="-4.7674250">
        <ele>699.3</ele>
        <time>2019-05-25T13:13:10Z</time>
      </trkpt>
      <trkpt lat="41.4870510" lon="-4.7674380">
        <ele>699.2</ele>
        <time>2019-05-25T13:13:11Z</time>
      </trkpt>
      <trkpt lat="41.4870870" lon="-4.7674520">
        <ele>699.2</ele>
        <time>2019-05-25T13:13:12Z</time>
      </trkpt>
      <trkpt lat="41.4871260" lon="-4.7674980">
        <ele>699.2</ele>
        <time>2019-05-25T13:13:13Z</time>
      </trkpt>
      <trkpt lat="41.4871760" lon="-4.7675270">
        <ele>699.1</ele>
        <time>2019-05-25T13:13:14Z</time>
      </trkpt>
      <trkpt lat="41.4872330" lon="-4.7675570">
        <ele>699.0</ele>
        <time>2019-05-25T13:13:15Z</time>
      </trkpt>
      <trkpt lat="41.4872820" lon="-4.7675870">
        <ele>699.0</ele>
        <time>2019-05-25T13:13:16Z</time>
      </trkpt>
      <trkpt lat="41.4873170" lon="-4.7675960">
        <ele>698.9</ele>
        <time>2019-05-25T13:13:17Z</time>
      </trkpt>
      <trkpt lat="41.4873600" lon="-4.7676000">
        <ele>698.9</ele>
        <time>2019-05-25T13:13:19Z</time>
      </trkpt>
      <trkpt lat="41.4873990" lon="-4.7676030">
        <ele>698.8</ele>
        <time>2019-05-25T13:13:20Z</time>
      </trkpt>
      <trkpt lat="41.4874630" lon="-4.7676240">
        <ele>698.8</ele>
        <time>2019-05-25T13:13:21Z</time>
      </trkpt>
      <trkpt lat="41.4875350" lon="-4.7676550">
        <ele>698.7</ele>
        <time>2019-05-25T13:13:22Z</time>
      </trkpt>
      <trkpt lat="41.4875980" lon="-4.7676920">
        <ele>698.7</ele>
        <time>2019-05-25T13:13:23Z</time>
      </trkpt>
      <trkpt lat="41.4876640" lon="-4.7677300">
        <ele>698.6</ele>
        <time>2019-05-25T13:13:24Z</time>
      </trkpt>
      <trkpt lat="41.4877270" lon="-4.7677650">
        <ele>698.5</ele>
        <time>2019-05-25T13:13:25Z</time>
      </trkpt>
      <trkpt lat="41.4877860" lon="-4.7677960">
        <ele>698.5</ele>
        <time>2019-05-25T13:13:26Z</time>
      </trkpt>
      <trkpt lat="41.4878220" lon="-4.7678150">
        <ele>698.4</ele>
        <time>2019-05-25T13:13:27Z</time>
      </trkpt>
      <trkpt lat="41.4878760" lon="-4.7678330">
        <ele>698.4</ele>
        <time>2019-05-25T13:13:29Z</time>
      </trkpt>
      <trkpt lat="41.4879140" lon="-4.7678430">
        <ele>698.4</ele>
        <time>2019-05-25T13:13:30Z</time>
      </trkpt>
      <trkpt lat="41.4879590" lon="-4.7678540">
        <ele>698.3</ele>
        <time>2019-05-25T13:13:31Z</time>
      </trkpt>
      <trkpt lat="41.4880070" lon="-4.7678670">
        <ele>698.3</ele>
        <time>2019-05-25T13:13:32Z</time>
      </trkpt>
      <trkpt lat="41.4880610" lon="-4.7678840">
        <ele>698.3</ele>
        <time>2019-05-25T13:13:33Z</time>
      </trkpt>
      <trkpt lat="41.4881180" lon="-4.7679000">
        <ele>698.2</ele>
        <time>2019-05-25T13:13:34Z</time>
      </trkpt>
      <trkpt lat="41.4882340" lon="-4.7679420">
        <ele>698.2</ele>
        <time>2019-05-25T13:13:35Z</time>
      </trkpt>
      <trkpt lat="41.4883490" lon="-4.7679940">
        <ele>698.1</ele>
        <time>2019-05-25T13:13:36Z</time>
      </trkpt>
      <trkpt lat="41.4884010" lon="-4.7680010">
        <ele>698.1</ele>
        <time>2019-05-25T13:13:37Z</time>
      </trkpt>
      <trkpt lat="41.4884530" lon="-4.7680250">
        <ele>698.1</ele>
        <time>2019-05-25T13:13:38Z</time>
      </trkpt>
      <trkpt lat="41.4885140" lon="-4.7680480">
        <ele>698.0</ele>
        <time>2019-05-25T13:13:39Z</time>
      </trkpt>
      <trkpt lat="41.4885690" lon="-4.7680620">
        <ele>698.0</ele>
        <time>2019-05-25T13:13:40Z</time>
      </trkpt>
      <trkpt lat="41.4886250" lon="-4.7680750">
        <ele>698.0</ele>
        <time>2019-05-25T13:13:41Z</time>
      </trkpt>
      <trkpt lat="41.4886790" lon="-4.7680750">
        <ele>697.9</ele>
        <time>2019-05-25T13:13:42Z</time>
      </trkpt>
      <trkpt lat="41.4887360" lon="-4.7680860">
        <ele>697.9</ele>
        <time>2019-05-25T13:13:43Z</time>
      </trkpt>
      <trkpt lat="41.4887940" lon="-4.7681030">
        <ele>697.8</ele>
        <time>2019-05-25T13:13:44Z</time>
      </trkpt>
      <trkpt lat="41.4888550" lon="-4.7681340">
        <ele>697.8</ele>
        <time>2019-05-25T13:13:45Z</time>
      </trkpt>
      <trkpt lat="41.4889100" lon="-4.7681470">
        <ele>697.7</ele>
        <time>2019-05-25T13:13:46Z</time>
      </trkpt>
      <trkpt lat="41.4889600" lon="-4.7681730">
        <ele>697.7</ele>
        <time>2019-05-25T13:13:47Z</time>
      </trkpt>
      <trkpt lat="41.4890140" lon="-4.7681790">
        <ele>697.6</ele>
        <time>2019-05-25T13:13:48Z</time>
      </trkpt>
      <trkpt lat="41.4890690" lon="-4.7681920">
        <ele>697.6</ele>
        <time>2019-05-25T13:13:49Z</time>
      </trkpt>
      <trkpt lat="41.4891240" lon="-4.7682090">
        <ele>697.5</ele>
        <time>2019-05-25T13:13:50Z</time>
      </trkpt>
      <trkpt lat="41.4891720" lon="-4.7682150">
        <ele>697.4</ele>
        <time>2019-05-25T13:13:51Z</time>
      </trkpt>
      <trkpt lat="41.4892170" lon="-4.7682250">
        <ele>697.2</ele>
        <time>2019-05-25T13:13:52Z</time>
      </trkpt>
      <trkpt lat="41.4892640" lon="-4.7682410">
        <ele>697.0</ele>
        <time>2019-05-25T13:13:53Z</time>
      </trkpt>
      <trkpt lat="41.4892990" lon="-4.7682520">
        <ele>696.9</ele>
        <time>2019-05-25T13:13:54Z</time>
      </trkpt>
      <trkpt lat="41.4893800" lon="-4.7682740">
        <ele>696.3</ele>
        <time>2019-05-25T13:13:56Z</time>
      </trkpt>
      <trkpt lat="41.4894520" lon="-4.7682900">
        <ele>695.5</ele>
        <time>2019-05-25T13:13:57Z</time>
      </trkpt>
      <trkpt lat="41.4895140" lon="-4.7683040">
        <ele>694.8</ele>
        <time>2019-05-25T13:13:58Z</time>
      </trkpt>
      <trkpt lat="41.4895620" lon="-4.7683200">
        <ele>694.2</ele>
        <time>2019-05-25T13:13:59Z</time>
      </trkpt>
      <trkpt lat="41.4896080" lon="-4.7683360">
        <ele>693.7</ele>
        <time>2019-05-25T13:14:00Z</time>
      </trkpt>
      <trkpt lat="41.4896540" lon="-4.7683530">
        <ele>693.2</ele>
        <time>2019-05-25T13:14:01Z</time>
      </trkpt>
      <trkpt lat="41.4896980" lon="-4.7683730">
        <ele>692.7</ele>
        <time>2019-05-25T13:14:02Z</time>
      </trkpt>
      <trkpt lat="41.4897360" lon="-4.7683970">
        <ele>692.3</ele>
        <time>2019-05-25T13:14:03Z</time>
      </trkpt>
      <trkpt lat="41.4897740" lon="-4.7684260">
        <ele>692.0</ele>
        <time>2019-05-25T13:14:04Z</time>
      </trkpt>
      <trkpt lat="41.4897770" lon="-4.7684900">
        <ele>691.7</ele>
        <time>2019-05-25T13:14:05Z</time>
      </trkpt>
      <trkpt lat="41.4897990" lon="-4.7685410">
        <ele>691.4</ele>
        <time>2019-05-25T13:14:06Z</time>
      </trkpt>
      <trkpt lat="41.4898140" lon="-4.7685830">
        <ele>691.3</ele>
        <time>2019-05-25T13:14:07Z</time>
      </trkpt>
      <trkpt lat="41.4898260" lon="-4.7686450">
        <ele>691.1</ele>
        <time>2019-05-25T13:14:08Z</time>
      </trkpt>
      <trkpt lat="41.4898390" lon="-4.7687230">
        <ele>690.9</ele>
        <time>2019-05-25T13:14:09Z</time>
      </trkpt>
      <trkpt lat="41.4898590" lon="-4.7687960">
        <ele>690.7</ele>
        <time>2019-05-25T13:14:10Z</time>
      </trkpt>
      <trkpt lat="41.4898750" lon="-4.7688640">
        <ele>690.5</ele>
        <time>2019-05-25T13:14:11Z</time>
      </trkpt>
      <trkpt lat="41.4898810" lon="-4.7689080">
        <ele>690.3</ele>
        <time>2019-05-25T13:14:12Z</time>
      </trkpt>
      <trkpt lat="41.4898980" lon="-4.7689390">
        <ele>690.2</ele>
        <time>2019-05-25T13:14:14Z</time>
      </trkpt>
      <trkpt lat="41.4899320" lon="-4.7689510">
        <ele>690.0</ele>
        <time>2019-05-25T13:14:17Z</time>
      </trkpt>
      <trkpt lat="41.4899710" lon="-4.7689730">
        <ele>689.7</ele>
        <time>2019-05-25T13:14:19Z</time>
      </trkpt>
      <trkpt lat="41.4900240" lon="-4.7689990">
        <ele>689.6</ele>
        <time>2019-05-25T13:14:21Z</time>
      </trkpt>
      <trkpt lat="41.4900600" lon="-4.7690150">
        <ele>689.5</ele>
        <time>2019-05-25T13:14:22Z</time>
      </trkpt>
      <trkpt lat="41.4901000" lon="-4.7690230">
        <ele>689.7</ele>
        <time>2019-05-25T13:14:23Z</time>
      </trkpt>
      <trkpt lat="41.4901400" lon="-4.7690190">
        <ele>689.8</ele>
        <time>2019-05-25T13:14:24Z</time>
      </trkpt>
      <trkpt lat="41.4901750" lon="-4.7689960">
        <ele>690.1</ele>
        <time>2019-05-25T13:14:25Z</time>
      </trkpt>
      <trkpt lat="41.4902050" lon="-4.7689560">
        <ele>690.5</ele>
        <time>2019-05-25T13:14:26Z</time>
      </trkpt>
      <trkpt lat="41.4902300" lon="-4.7689100">
        <ele>690.8</ele>
        <time>2019-05-25T13:14:27Z</time>
      </trkpt>
      <trkpt lat="41.4902510" lon="-4.7688580">
        <ele>691.0</ele>
        <time>2019-05-25T13:14:28Z</time>
      </trkpt>
      <trkpt lat="41.4902700" lon="-4.7688090">
        <ele>691.4</ele>
        <time>2019-05-25T13:14:29Z</time>
      </trkpt>
      <trkpt lat="41.4902880" lon="-4.7687570">
        <ele>691.7</ele>
        <time>2019-05-25T13:14:30Z</time>
      </trkpt>
      <trkpt lat="41.4903110" lon="-4.7687090">
        <ele>692.4</ele>
        <time>2019-05-25T13:14:31Z</time>
      </trkpt>
      <trkpt lat="41.4903380" lon="-4.7686630">
        <ele>692.8</ele>
        <time>2019-05-25T13:14:32Z</time>
      </trkpt>
      <trkpt lat="41.4903660" lon="-4.7686130">
        <ele>693.2</ele>
        <time>2019-05-25T13:14:33Z</time>
      </trkpt>
      <trkpt lat="41.4903980" lon="-4.7685610">
        <ele>693.6</ele>
        <time>2019-05-25T13:14:34Z</time>
      </trkpt>
      <trkpt lat="41.4904270" lon="-4.7685070">
        <ele>693.9</ele>
        <time>2019-05-25T13:14:35Z</time>
      </trkpt>
      <trkpt lat="41.4904490" lon="-4.7684480">
        <ele>694.5</ele>
        <time>2019-05-25T13:14:36Z</time>
      </trkpt>
      <trkpt lat="41.4904730" lon="-4.7683850">
        <ele>694.8</ele>
        <time>2019-05-25T13:14:37Z</time>
      </trkpt>
      <trkpt lat="41.4904920" lon="-4.7683250">
        <ele>695.1</ele>
        <time>2019-05-25T13:14:38Z</time>
      </trkpt>
      <trkpt lat="41.4905080" lon="-4.7682670">
        <ele>695.6</ele>
        <time>2019-05-25T13:14:39Z</time>
      </trkpt>
      <trkpt lat="41.4905190" lon="-4.7682120">
        <ele>695.9</ele>
        <time>2019-05-25T13:14:40Z</time>
      </trkpt>
      <trkpt lat="41.4905310" lon="-4.7681610">
        <ele>696.1</ele>
        <time>2019-05-25T13:14:41Z</time>
      </trkpt>
      <trkpt lat="41.4905450" lon="-4.7681100">
        <ele>696.3</ele>
        <time>2019-05-25T13:14:42Z</time>
      </trkpt>
      <trkpt lat="41.4905630" lon="-4.7680550">
        <ele>697.0</ele>
        <time>2019-05-25T13:14:43Z</time>
      </trkpt>
      <trkpt lat="41.4905840" lon="-4.7679840">
        <ele>697.2</ele>
        <time>2019-05-25T13:14:44Z</time>
      </trkpt>
      <trkpt lat="41.4906010" lon="-4.7679070">
        <ele>697.6</ele>
        <time>2019-05-25T13:14:45Z</time>
      </trkpt>
      <trkpt lat="41.4906190" lon="-4.7678310">
        <ele>698.0</ele>
        <time>2019-05-25T13:14:46Z</time>
      </trkpt>
      <trkpt lat="41.4906340" lon="-4.7677550">
        <ele>698.4</ele>
        <time>2019-05-25T13:14:47Z</time>
      </trkpt>
      <trkpt lat="41.4906500" lon="-4.7676880">
        <ele>698.5</ele>
        <time>2019-05-25T13:14:48Z</time>
      </trkpt>
      <trkpt lat="41.4906790" lon="-4.7676350">
        <ele>698.8</ele>
        <time>2019-05-25T13:14:49Z</time>
      </trkpt>
      <trkpt lat="41.4907110" lon="-4.7675890">
        <ele>698.9</ele>
        <time>2019-05-25T13:14:50Z</time>
      </trkpt>
      <trkpt lat="41.4907410" lon="-4.7675460">
        <ele>698.9</ele>
        <time>2019-05-25T13:14:51Z</time>
      </trkpt>
      <trkpt lat="41.4907720" lon="-4.7674960">
        <ele>698.9</ele>
        <time>2019-05-25T13:14:52Z</time>
      </trkpt>
      <trkpt lat="41.4908010" lon="-4.7674420">
        <ele>698.9</ele>
        <time>2019-05-25T13:14:53Z</time>
      </trkpt>
      <trkpt lat="41.4908270" lon="-4.7673880">
        <ele>698.9</ele>
        <time>2019-05-25T13:14:54Z</time>
      </trkpt>
      <trkpt lat="41.4908510" lon="-4.7673470">
        <ele>698.8</ele>
        <time>2019-05-25T13:14:55Z</time>
      </trkpt>
      <trkpt lat="41.4908760" lon="-4.7673060">
        <ele>698.7</ele>
        <time>2019-05-25T13:14:56Z</time>
      </trkpt>
      <trkpt lat="41.4908950" lon="-4.7672590">
        <ele>698.7</ele>
        <time>2019-05-25T13:14:57Z</time>
      </trkpt>
      <trkpt lat="41.4909050" lon="-4.7672080">
        <ele>698.6</ele>
        <time>2019-05-25T13:14:58Z</time>
      </trkpt>
      <trkpt lat="41.4909060" lon="-4.7671340">
        <ele>698.6</ele>
        <time>2019-05-25T13:14:59Z</time>
      </trkpt>
      <trkpt lat="41.4909110" lon="-4.7670600">
        <ele>698.6</ele>
        <time>2019-05-25T13:15:00Z</time>
      </trkpt>
      <trkpt lat="41.4909220" lon="-4.7669870">
        <ele>698.6</ele>
        <time>2019-05-25T13:15:01Z</time>
      </trkpt>
      <trkpt lat="41.4909380" lon="-4.7669260">
        <ele>698.5</ele>
        <time>2019-05-25T13:15:02Z</time>
      </trkpt>
      <trkpt lat="41.4909490" lon="-4.7668580">
        <ele>698.6</ele>
        <time>2019-05-25T13:15:03Z</time>
      </trkpt>
      <trkpt lat="41.4909700" lon="-4.7667900">
        <ele>698.5</ele>
        <time>2019-05-25T13:15:04Z</time>
      </trkpt>
      <trkpt lat="41.4909860" lon="-4.7667190">
        <ele>698.5</ele>
        <time>2019-05-25T13:15:05Z</time>
      </trkpt>
      <trkpt lat="41.4910090" lon="-4.7666590">
        <ele>698.4</ele>
        <time>2019-05-25T13:15:06Z</time>
      </trkpt>
      <trkpt lat="41.4910360" lon="-4.7666060">
        <ele>698.2</ele>
        <time>2019-05-25T13:15:07Z</time>
      </trkpt>
      <trkpt lat="41.4910660" lon="-4.7665550">
        <ele>698.0</ele>
        <time>2019-05-25T13:15:08Z</time>
      </trkpt>
      <trkpt lat="41.4910960" lon="-4.7665080">
        <ele>697.8</ele>
        <time>2019-05-25T13:15:09Z</time>
      </trkpt>
      <trkpt lat="41.4911200" lon="-4.7664690">
        <ele>697.7</ele>
        <time>2019-05-25T13:15:10Z</time>
      </trkpt>
      <trkpt lat="41.4911400" lon="-4.7664400">
        <ele>697.5</ele>
        <time>2019-05-25T13:15:11Z</time>
      </trkpt>
      <trkpt lat="41.4911730" lon="-4.7664110">
        <ele>697.3</ele>
        <time>2019-05-25T13:15:12Z</time>
      </trkpt>
      <trkpt lat="41.4912200" lon="-4.7663910">
        <ele>697.0</ele>
        <time>2019-05-25T13:15:13Z</time>
      </trkpt>
      <trkpt lat="41.4912750" lon="-4.7663830">
        <ele>696.7</ele>
        <time>2019-05-25T13:15:14Z</time>
      </trkpt>
      <trkpt lat="41.4913340" lon="-4.7664050">
        <ele>696.2</ele>
        <time>2019-05-25T13:15:15Z</time>
      </trkpt>
      <trkpt lat="41.4913870" lon="-4.7664440">
        <ele>695.7</ele>
        <time>2019-05-25T13:15:16Z</time>
      </trkpt>
      <trkpt lat="41.4914290" lon="-4.7664970">
        <ele>695.4</ele>
        <time>2019-05-25T13:15:17Z</time>
      </trkpt>
      <trkpt lat="41.4914640" lon="-4.7665600">
        <ele>695.1</ele>
        <time>2019-05-25T13:15:18Z</time>
      </trkpt>
      <trkpt lat="41.4914950" lon="-4.7666230">
        <ele>694.7</ele>
        <time>2019-05-25T13:15:19Z</time>
      </trkpt>
      <trkpt lat="41.4915210" lon="-4.7666730">
        <ele>694.4</ele>
        <time>2019-05-25T13:15:20Z</time>
      </trkpt>
      <trkpt lat="41.4915480" lon="-4.7667150">
        <ele>694.1</ele>
        <time>2019-05-25T13:15:21Z</time>
      </trkpt>
      <trkpt lat="41.4915760" lon="-4.7667540">
        <ele>693.9</ele>
        <time>2019-05-25T13:15:22Z</time>
      </trkpt>
      <trkpt lat="41.4916020" lon="-4.7667940">
        <ele>693.7</ele>
        <time>2019-05-25T13:15:23Z</time>
      </trkpt>
      <trkpt lat="41.4916270" lon="-4.7668330">
        <ele>693.6</ele>
        <time>2019-05-25T13:15:24Z</time>
      </trkpt>
      <trkpt lat="41.4916470" lon="-4.7668650">
        <ele>693.5</ele>
        <time>2019-05-25T13:15:25Z</time>
      </trkpt>
      <trkpt lat="41.4916720" lon="-4.7668830">
        <ele>693.5</ele>
        <time>2019-05-25T13:15:26Z</time>
      </trkpt>
      <trkpt lat="41.4916990" lon="-4.7669110">
        <ele>693.4</ele>
        <time>2019-05-25T13:15:27Z</time>
      </trkpt>
      <trkpt lat="41.4917310" lon="-4.7669490">
        <ele>693.5</ele>
        <time>2019-05-25T13:15:28Z</time>
      </trkpt>
      <trkpt lat="41.4917650" lon="-4.7669810">
        <ele>693.5</ele>
        <time>2019-05-25T13:15:29Z</time>
      </trkpt>
      <trkpt lat="41.4917990" lon="-4.7670130">
        <ele>693.6</ele>
        <time>2019-05-25T13:15:30Z</time>
      </trkpt>
      <trkpt lat="41.4918370" lon="-4.7670480">
        <ele>693.9</ele>
        <time>2019-05-25T13:15:31Z</time>
      </trkpt>
      <trkpt lat="41.4918820" lon="-4.7670800">
        <ele>694.0</ele>
        <time>2019-05-25T13:15:32Z</time>
      </trkpt>
      <trkpt lat="41.4919160" lon="-4.7671050">
        <ele>694.1</ele>
        <time>2019-05-25T13:15:33Z</time>
      </trkpt>
      <trkpt lat="41.4919480" lon="-4.7671240">
        <ele>694.2</ele>
        <time>2019-05-25T13:15:34Z</time>
      </trkpt>
      <trkpt lat="41.4919870" lon="-4.7671440">
        <ele>694.3</ele>
        <time>2019-05-25T13:15:35Z</time>
      </trkpt>
      <trkpt lat="41.4920300" lon="-4.7671610">
        <ele>694.4</ele>
        <time>2019-05-25T13:15:36Z</time>
      </trkpt>
      <trkpt lat="41.4920660" lon="-4.7671770">
        <ele>694.4</ele>
        <time>2019-05-25T13:15:37Z</time>
      </trkpt>
      <trkpt lat="41.4920950" lon="-4.7671910">
        <ele>694.5</ele>
        <time>2019-05-25T13:15:38Z</time>
      </trkpt>
      <trkpt lat="41.4921200" lon="-4.7672100">
        <ele>694.3</ele>
        <time>2019-05-25T13:15:39Z</time>
      </trkpt>
      <trkpt lat="41.4921630" lon="-4.7672550">
        <ele>694.4</ele>
        <time>2019-05-25T13:15:41Z</time>
      </trkpt>
      <trkpt lat="41.4921790" lon="-4.7672870">
        <ele>694.3</ele>
        <time>2019-05-25T13:15:42Z</time>
      </trkpt>
      <trkpt lat="41.4921910" lon="-4.7673310">
        <ele>694.3</ele>
        <time>2019-05-25T13:15:43Z</time>
      </trkpt>
      <trkpt lat="41.4922000" lon="-4.7673900">
        <ele>694.1</ele>
        <time>2019-05-25T13:15:44Z</time>
      </trkpt>
      <trkpt lat="41.4922080" lon="-4.7674390">
        <ele>693.9</ele>
        <time>2019-05-25T13:15:45Z</time>
      </trkpt>
      <trkpt lat="41.4922200" lon="-4.7674830">
        <ele>693.9</ele>
        <time>2019-05-25T13:15:46Z</time>
      </trkpt>
      <trkpt lat="41.4922300" lon="-4.7675260">
        <ele>693.8</ele>
        <time>2019-05-25T13:15:47Z</time>
      </trkpt>
      <trkpt lat="41.4922640" lon="-4.7675560">
        <ele>693.7</ele>
        <time>2019-05-25T13:15:49Z</time>
      </trkpt>
      <trkpt lat="41.4923030" lon="-4.7675480">
        <ele>693.8</ele>
        <time>2019-05-25T13:15:51Z</time>
      </trkpt>
      <trkpt lat="41.4923390" lon="-4.7675270">
        <ele>693.8</ele>
        <time>2019-05-25T13:15:53Z</time>
      </trkpt>
      <trkpt lat="41.4923780" lon="-4.7674980">
        <ele>693.9</ele>
        <time>2019-05-25T13:15:55Z</time>
      </trkpt>
      <trkpt lat="41.4924140" lon="-4.7674670">
        <ele>694.0</ele>
        <time>2019-05-25T13:15:57Z</time>
      </trkpt>
      <trkpt lat="41.4924490" lon="-4.7674530">
        <ele>694.1</ele>
        <time>2019-05-25T13:15:59Z</time>
      </trkpt>
      <trkpt lat="41.4924840" lon="-4.7674460">
        <ele>694.2</ele>
        <time>2019-05-25T13:16:01Z</time>
      </trkpt>
      <trkpt lat="41.4925210" lon="-4.7674480">
        <ele>694.2</ele>
        <time>2019-05-25T13:16:03Z</time>
      </trkpt>
      <trkpt lat="41.4925580" lon="-4.7674340">
        <ele>694.2</ele>
        <time>2019-05-25T13:16:05Z</time>
      </trkpt>
      <trkpt lat="41.4926010" lon="-4.7674250">
        <ele>694.3</ele>
        <time>2019-05-25T13:16:08Z</time>
      </trkpt>
      <trkpt lat="41.4926310" lon="-4.7674260">
        <ele>694.3</ele>
        <time>2019-05-25T13:16:09Z</time>
      </trkpt>
      <trkpt lat="41.4926840" lon="-4.7674280">
        <ele>694.4</ele>
        <time>2019-05-25T13:16:11Z</time>
      </trkpt>
      <trkpt lat="41.4927300" lon="-4.7673960">
        <ele>694.3</ele>
        <time>2019-05-25T13:16:13Z</time>
      </trkpt>
      <trkpt lat="41.4927700" lon="-4.7673430">
        <ele>694.3</ele>
        <time>2019-05-25T13:16:15Z</time>
      </trkpt>
      <trkpt lat="41.4927910" lon="-4.7673180">
        <ele>694.3</ele>
        <time>2019-05-25T13:16:16Z</time>
      </trkpt>
      <trkpt lat="41.4928190" lon="-4.7672870">
        <ele>694.3</ele>
        <time>2019-05-25T13:16:17Z</time>
      </trkpt>
      <trkpt lat="41.4928560" lon="-4.7672560">
        <ele>694.3</ele>
        <time>2019-05-25T13:16:18Z</time>
      </trkpt>
      <trkpt lat="41.4928880" lon="-4.7672230">
        <ele>694.2</ele>
        <time>2019-05-25T13:16:19Z</time>
      </trkpt>
      <trkpt lat="41.4929220" lon="-4.7671940">
        <ele>694.2</ele>
        <time>2019-05-25T13:16:20Z</time>
      </trkpt>
      <trkpt lat="41.4929560" lon="-4.7671670">
        <ele>694.2</ele>
        <time>2019-05-25T13:16:21Z</time>
      </trkpt>
      <trkpt lat="41.4929850" lon="-4.7671380">
        <ele>694.2</ele>
        <time>2019-05-25T13:16:22Z</time>
      </trkpt>
      <trkpt lat="41.4930140" lon="-4.7671110">
        <ele>694.2</ele>
        <time>2019-05-25T13:16:23Z</time>
      </trkpt>
      <trkpt lat="41.4930380" lon="-4.7670820">
        <ele>694.2</ele>
        <time>2019-05-25T13:16:24Z</time>
      </trkpt>
      <trkpt lat="41.4930600" lon="-4.7670550">
        <ele>694.2</ele>
        <time>2019-05-25T13:16:25Z</time>
      </trkpt>
      <trkpt lat="41.4930810" lon="-4.7670270">
        <ele>694.2</ele>
        <time>2019-05-25T13:16:26Z</time>
      </trkpt>
      <trkpt lat="41.4931000" lon="-4.7669960">
        <ele>694.2</ele>
        <time>2019-05-25T13:16:27Z</time>
      </trkpt>
      <trkpt lat="41.4931150" lon="-4.7669640">
        <ele>694.2</ele>
        <time>2019-05-25T13:16:28Z</time>
      </trkpt>
      <trkpt lat="41.4931470" lon="-4.7669050">
        <ele>694.2</ele>
        <time>2019-05-25T13:16:30Z</time>
      </trkpt>
      <trkpt lat="41.4931630" lon="-4.7668750">
        <ele>694.2</ele>
        <time>2019-05-25T13:16:31Z</time>
      </trkpt>
      <trkpt lat="41.4931860" lon="-4.7668400">
        <ele>694.2</ele>
        <time>2019-05-25T13:16:32Z</time>
      </trkpt>
      <trkpt lat="41.4932170" lon="-4.7668040">
        <ele>694.3</ele>
        <time>2019-05-25T13:16:33Z</time>
      </trkpt>
      <trkpt lat="41.4932490" lon="-4.7667690">
        <ele>694.3</ele>
        <time>2019-05-25T13:16:34Z</time>
      </trkpt>
      <trkpt lat="41.4932790" lon="-4.7667310">
        <ele>694.3</ele>
        <time>2019-05-25T13:16:35Z</time>
      </trkpt>
      <trkpt lat="41.4933120" lon="-4.7666860">
        <ele>694.3</ele>
        <time>2019-05-25T13:16:36Z</time>
      </trkpt>
      <trkpt lat="41.4933390" lon="-4.7666410">
        <ele>694.4</ele>
        <time>2019-05-25T13:16:37Z</time>
      </trkpt>
      <trkpt lat="41.4933660" lon="-4.7665930">
        <ele>694.4</ele>
        <time>2019-05-25T13:16:38Z</time>
      </trkpt>
      <trkpt lat="41.4933950" lon="-4.7665460">
        <ele>694.4</ele>
        <time>2019-05-25T13:16:39Z</time>
      </trkpt>
      <trkpt lat="41.4934300" lon="-4.7664950">
        <ele>694.5</ele>
        <time>2019-05-25T13:16:40Z</time>
      </trkpt>
      <trkpt lat="41.4934650" lon="-4.7664470">
        <ele>694.5</ele>
        <time>2019-05-25T13:16:41Z</time>
      </trkpt>
      <trkpt lat="41.4935010" lon="-4.7664040">
        <ele>694.5</ele>
        <time>2019-05-25T13:16:42Z</time>
      </trkpt>
      <trkpt lat="41.4935340" lon="-4.7663610">
        <ele>694.5</ele>
        <time>2019-05-25T13:16:43Z</time>
      </trkpt>
      <trkpt lat="41.4935680" lon="-4.7663160">
        <ele>694.6</ele>
        <time>2019-05-25T13:16:44Z</time>
      </trkpt>
      <trkpt lat="41.4936020" lon="-4.7662670">
        <ele>694.6</ele>
        <time>2019-05-25T13:16:45Z</time>
      </trkpt>
      <trkpt lat="41.4936380" lon="-4.7662180">
        <ele>694.6</ele>
        <time>2019-05-25T13:16:46Z</time>
      </trkpt>
      <trkpt lat="41.4936820" lon="-4.7661760">
        <ele>694.7</ele>
        <time>2019-05-25T13:16:47Z</time>
      </trkpt>
      <trkpt lat="41.4937200" lon="-4.7661200">
        <ele>694.7</ele>
        <time>2019-05-25T13:16:48Z</time>
      </trkpt>
      <trkpt lat="41.4937660" lon="-4.7660750">
        <ele>694.8</ele>
        <time>2019-05-25T13:16:49Z</time>
      </trkpt>
      <trkpt lat="41.4938040" lon="-4.7660220">
        <ele>694.8</ele>
        <time>2019-05-25T13:16:50Z</time>
      </trkpt>
      <trkpt lat="41.4938450" lon="-4.7659680">
        <ele>694.8</ele>
        <time>2019-05-25T13:16:51Z</time>
      </trkpt>
      <trkpt lat="41.4938900" lon="-4.7659150">
        <ele>694.9</ele>
        <time>2019-05-25T13:16:52Z</time>
      </trkpt>
      <trkpt lat="41.4939340" lon="-4.7658640">
        <ele>694.9</ele>
        <time>2019-05-25T13:16:53Z</time>
      </trkpt>
      <trkpt lat="41.4939740" lon="-4.7658010">
        <ele>694.9</ele>
        <time>2019-05-25T13:16:54Z</time>
      </trkpt>
      <trkpt lat="41.4940200" lon="-4.7657470">
        <ele>695.0</ele>
        <time>2019-05-25T13:16:55Z</time>
      </trkpt>
      <trkpt lat="41.4940640" lon="-4.7656960">
        <ele>695.0</ele>
        <time>2019-05-25T13:16:56Z</time>
      </trkpt>
      <trkpt lat="41.4941030" lon="-4.7656470">
        <ele>695.0</ele>
        <time>2019-05-25T13:16:57Z</time>
      </trkpt>
      <trkpt lat="41.4941500" lon="-4.7655950">
        <ele>695.1</ele>
        <time>2019-05-25T13:16:58Z</time>
      </trkpt>
      <trkpt lat="41.4941850" lon="-4.7655570">
        <ele>695.1</ele>
        <time>2019-05-25T13:16:59Z</time>
      </trkpt>
      <trkpt lat="41.4942240" lon="-4.7655050">
        <ele>695.2</ele>
        <time>2019-05-25T13:17:00Z</time>
      </trkpt>
      <trkpt lat="41.4942710" lon="-4.7654510">
        <ele>695.2</ele>
        <time>2019-05-25T13:17:01Z</time>
      </trkpt>
      <trkpt lat="41.4943090" lon="-4.7653860">
        <ele>695.3</ele>
        <time>2019-05-25T13:17:02Z</time>
      </trkpt>
      <trkpt lat="41.4943570" lon="-4.7653350">
        <ele>695.3</ele>
        <time>2019-05-25T13:17:03Z</time>
      </trkpt>
      <trkpt lat="41.4943970" lon="-4.7652780">
        <ele>695.3</ele>
        <time>2019-05-25T13:17:04Z</time>
      </trkpt>
      <trkpt lat="41.4944360" lon="-4.7652280">
        <ele>695.3</ele>
        <time>2019-05-25T13:17:05Z</time>
      </trkpt>
      <trkpt lat="41.4944700" lon="-4.7651770">
        <ele>695.3</ele>
        <time>2019-05-25T13:17:06Z</time>
      </trkpt>
      <trkpt lat="41.4945080" lon="-4.7651360">
        <ele>695.3</ele>
        <time>2019-05-25T13:17:07Z</time>
      </trkpt>
      <trkpt lat="41.4945420" lon="-4.7650890">
        <ele>695.4</ele>
        <time>2019-05-25T13:17:08Z</time>
      </trkpt>
      <trkpt lat="41.4945770" lon="-4.7650480">
        <ele>695.4</ele>
        <time>2019-05-25T13:17:09Z</time>
      </trkpt>
      <trkpt lat="41.4946130" lon="-4.7650030">
        <ele>695.4</ele>
        <time>2019-05-25T13:17:10Z</time>
      </trkpt>
      <trkpt lat="41.4946430" lon="-4.7649640">
        <ele>695.4</ele>
        <time>2019-05-25T13:17:11Z</time>
      </trkpt>
      <trkpt lat="41.4946690" lon="-4.7649260">
        <ele>695.4</ele>
        <time>2019-05-25T13:17:12Z</time>
      </trkpt>
      <trkpt lat="41.4947000" lon="-4.7648890">
        <ele>695.4</ele>
        <time>2019-05-25T13:17:13Z</time>
      </trkpt>
      <trkpt lat="41.4947300" lon="-4.7648440">
        <ele>695.4</ele>
        <time>2019-05-25T13:17:14Z</time>
      </trkpt>
      <trkpt lat="41.4947630" lon="-4.7648010">
        <ele>695.4</ele>
        <time>2019-05-25T13:17:15Z</time>
      </trkpt>
      <trkpt lat="41.4947950" lon="-4.7647540">
        <ele>695.4</ele>
        <time>2019-05-25T13:17:16Z</time>
      </trkpt>
      <trkpt lat="41.4948280" lon="-4.7647050">
        <ele>695.4</ele>
        <time>2019-05-25T13:17:17Z</time>
      </trkpt>
      <trkpt lat="41.4948570" lon="-4.7646510">
        <ele>695.4</ele>
        <time>2019-05-25T13:17:18Z</time>
      </trkpt>
      <trkpt lat="41.4948850" lon="-4.7645930">
        <ele>695.4</ele>
        <time>2019-05-25T13:17:19Z</time>
      </trkpt>
      <trkpt lat="41.4949130" lon="-4.7645320">
        <ele>695.4</ele>
        <time>2019-05-25T13:17:20Z</time>
      </trkpt>
      <trkpt lat="41.4949390" lon="-4.7644690">
        <ele>695.4</ele>
        <time>2019-05-25T13:17:21Z</time>
      </trkpt>
      <trkpt lat="41.4949770" lon="-4.7644190">
        <ele>695.4</ele>
        <time>2019-05-25T13:17:22Z</time>
      </trkpt>
      <trkpt lat="41.4950060" lon="-4.7643610">
        <ele>695.4</ele>
        <time>2019-05-25T13:17:23Z</time>
      </trkpt>
      <trkpt lat="41.4950380" lon="-4.7643080">
        <ele>695.4</ele>
        <time>2019-05-25T13:17:24Z</time>
      </trkpt>
      <trkpt lat="41.4950710" lon="-4.7642500">
        <ele>695.3</ele>
        <time>2019-05-25T13:17:25Z</time>
      </trkpt>
      <trkpt lat="41.4951060" lon="-4.7642120">
        <ele>695.3</ele>
        <time>2019-05-25T13:17:26Z</time>
      </trkpt>
      <trkpt lat="41.4951320" lon="-4.7641550">
        <ele>695.3</ele>
        <time>2019-05-25T13:17:27Z</time>
      </trkpt>
      <trkpt lat="41.4951640" lon="-4.7641090">
        <ele>695.3</ele>
        <time>2019-05-25T13:17:28Z</time>
      </trkpt>
      <trkpt lat="41.4951930" lon="-4.7640610">
        <ele>695.3</ele>
        <time>2019-05-25T13:17:29Z</time>
      </trkpt>
      <trkpt lat="41.4952250" lon="-4.7640150">
        <ele>695.3</ele>
        <time>2019-05-25T13:17:30Z</time>
      </trkpt>
      <trkpt lat="41.4952570" lon="-4.7639650">
        <ele>695.3</ele>
        <time>2019-05-25T13:17:31Z</time>
      </trkpt>
      <trkpt lat="41.4952890" lon="-4.7639180">
        <ele>695.3</ele>
        <time>2019-05-25T13:17:32Z</time>
      </trkpt>
      <trkpt lat="41.4953160" lon="-4.7638680">
        <ele>695.3</ele>
        <time>2019-05-25T13:17:33Z</time>
      </trkpt>
      <trkpt lat="41.4953400" lon="-4.7638140">
        <ele>695.3</ele>
        <time>2019-05-25T13:17:34Z</time>
      </trkpt>
      <trkpt lat="41.4953700" lon="-4.7637690">
        <ele>695.3</ele>
        <time>2019-05-25T13:17:35Z</time>
      </trkpt>
      <trkpt lat="41.4954010" lon="-4.7637210">
        <ele>695.3</ele>
        <time>2019-05-25T13:17:36Z</time>
      </trkpt>
      <trkpt lat="41.4954290" lon="-4.7636680">
        <ele>695.3</ele>
        <time>2019-05-25T13:17:37Z</time>
      </trkpt>
      <trkpt lat="41.4954630" lon="-4.7636270">
        <ele>695.3</ele>
        <time>2019-05-25T13:17:38Z</time>
      </trkpt>
      <trkpt lat="41.4954920" lon="-4.7635800">
        <ele>695.3</ele>
        <time>2019-05-25T13:17:39Z</time>
      </trkpt>
      <trkpt lat="41.4955260" lon="-4.7635320">
        <ele>695.3</ele>
        <time>2019-05-25T13:17:40Z</time>
      </trkpt>
      <trkpt lat="41.4955570" lon="-4.7634780">
        <ele>695.3</ele>
        <time>2019-05-25T13:17:41Z</time>
      </trkpt>
      <trkpt lat="41.4955880" lon="-4.7634360">
        <ele>695.3</ele>
        <time>2019-05-25T13:17:42Z</time>
      </trkpt>
      <trkpt lat="41.4956190" lon="-4.7633890">
        <ele>695.4</ele>
        <time>2019-05-25T13:17:43Z</time>
      </trkpt>
      <trkpt lat="41.4956530" lon="-4.7633430">
        <ele>695.4</ele>
        <time>2019-05-25T13:17:44Z</time>
      </trkpt>
      <trkpt lat="41.4956840" lon="-4.7633100">
        <ele>695.4</ele>
        <time>2019-05-25T13:17:46Z</time>
      </trkpt>
      <trkpt lat="41.4957080" lon="-4.7632820">
        <ele>695.4</ele>
        <time>2019-05-25T13:17:47Z</time>
      </trkpt>
      <trkpt lat="41.4957400" lon="-4.7632270">
        <ele>695.4</ele>
        <time>2019-05-25T13:17:48Z</time>
      </trkpt>
      <trkpt lat="41.4957840" lon="-4.7631830">
        <ele>695.5</ele>
        <time>2019-05-25T13:17:49Z</time>
      </trkpt>
      <trkpt lat="41.4958230" lon="-4.7631300">
        <ele>695.5</ele>
        <time>2019-05-25T13:17:50Z</time>
      </trkpt>
      <trkpt lat="41.4958720" lon="-4.7630860">
        <ele>695.5</ele>
        <time>2019-05-25T13:17:51Z</time>
      </trkpt>
      <trkpt lat="41.4959230" lon="-4.7630410">
        <ele>695.5</ele>
        <time>2019-05-25T13:17:52Z</time>
      </trkpt>
      <trkpt lat="41.4959740" lon="-4.7629940">
        <ele>695.5</ele>
        <time>2019-05-25T13:17:53Z</time>
      </trkpt>
      <trkpt lat="41.4960230" lon="-4.7629460">
        <ele>695.5</ele>
        <time>2019-05-25T13:17:54Z</time>
      </trkpt>
      <trkpt lat="41.4960710" lon="-4.7629150">
        <ele>695.5</ele>
        <time>2019-05-25T13:17:55Z</time>
      </trkpt>
      <trkpt lat="41.4961340" lon="-4.7628810">
        <ele>695.5</ele>
        <time>2019-05-25T13:17:56Z</time>
      </trkpt>
      <trkpt lat="41.4961860" lon="-4.7628480">
        <ele>695.5</ele>
        <time>2019-05-25T13:17:57Z</time>
      </trkpt>
      <trkpt lat="41.4962390" lon="-4.7628100">
        <ele>695.5</ele>
        <time>2019-05-25T13:17:58Z</time>
      </trkpt>
      <trkpt lat="41.4963000" lon="-4.7627960">
        <ele>695.4</ele>
        <time>2019-05-25T13:17:59Z</time>
      </trkpt>
      <trkpt lat="41.4963600" lon="-4.7627810">
        <ele>695.4</ele>
        <time>2019-05-25T13:18:00Z</time>
      </trkpt>
      <trkpt lat="41.4964210" lon="-4.7627560">
        <ele>695.3</ele>
        <time>2019-05-25T13:18:01Z</time>
      </trkpt>
      <trkpt lat="41.4964820" lon="-4.7627370">
        <ele>695.3</ele>
        <time>2019-05-25T13:18:02Z</time>
      </trkpt>
      <trkpt lat="41.4965390" lon="-4.7627020">
        <ele>695.2</ele>
        <time>2019-05-25T13:18:03Z</time>
      </trkpt>
      <trkpt lat="41.4965970" lon="-4.7626820">
        <ele>695.1</ele>
        <time>2019-05-25T13:18:04Z</time>
      </trkpt>
      <trkpt lat="41.4966540" lon="-4.7626710">
        <ele>695.1</ele>
        <time>2019-05-25T13:18:05Z</time>
      </trkpt>
      <trkpt lat="41.4967100" lon="-4.7626390">
        <ele>695.0</ele>
        <time>2019-05-25T13:18:06Z</time>
      </trkpt>
      <trkpt lat="41.4967690" lon="-4.7626210">
        <ele>694.9</ele>
        <time>2019-05-25T13:18:07Z</time>
      </trkpt>
      <trkpt lat="41.4968240" lon="-4.7626010">
        <ele>694.9</ele>
        <time>2019-05-25T13:18:08Z</time>
      </trkpt>
      <trkpt lat="41.4968750" lon="-4.7625710">
        <ele>694.8</ele>
        <time>2019-05-25T13:18:09Z</time>
      </trkpt>
      <trkpt lat="41.4969260" lon="-4.7625430">
        <ele>694.8</ele>
        <time>2019-05-25T13:18:10Z</time>
      </trkpt>
      <trkpt lat="41.4969740" lon="-4.7625070">
        <ele>694.7</ele>
        <time>2019-05-25T13:18:11Z</time>
      </trkpt>
      <trkpt lat="41.4970230" lon="-4.7624840">
        <ele>694.7</ele>
        <time>2019-05-25T13:18:12Z</time>
      </trkpt>
      <trkpt lat="41.4970720" lon="-4.7624580">
        <ele>694.7</ele>
        <time>2019-05-25T13:18:13Z</time>
      </trkpt>
      <trkpt lat="41.4971180" lon="-4.7624210">
        <ele>694.7</ele>
        <time>2019-05-25T13:18:14Z</time>
      </trkpt>
      <trkpt lat="41.4971660" lon="-4.7623890">
        <ele>694.6</ele>
        <time>2019-05-25T13:18:15Z</time>
      </trkpt>
      <trkpt lat="41.4972130" lon="-4.7623620">
        <ele>694.6</ele>
        <time>2019-05-25T13:18:16Z</time>
      </trkpt>
      <trkpt lat="41.4972570" lon="-4.7623240">
        <ele>694.6</ele>
        <time>2019-05-25T13:18:17Z</time>
      </trkpt>
      <trkpt lat="41.4973030" lon="-4.7622930">
        <ele>694.6</ele>
        <time>2019-05-25T13:18:18Z</time>
      </trkpt>
      <trkpt lat="41.4973500" lon="-4.7622640">
        <ele>694.6</ele>
        <time>2019-05-25T13:18:19Z</time>
      </trkpt>
      <trkpt lat="41.4973930" lon="-4.7622210">
        <ele>694.6</ele>
        <time>2019-05-25T13:18:20Z</time>
      </trkpt>
      <trkpt lat="41.4974380" lon="-4.7621980">
        <ele>694.6</ele>
        <time>2019-05-25T13:18:21Z</time>
      </trkpt>
      <trkpt lat="41.4974780" lon="-4.7621600">
        <ele>694.6</ele>
        <time>2019-05-25T13:18:22Z</time>
      </trkpt>
      <trkpt lat="41.4975190" lon="-4.7621250">
        <ele>694.6</ele>
        <time>2019-05-25T13:18:23Z</time>
      </trkpt>
      <trkpt lat="41.4975630" lon="-4.7620950">
        <ele>694.6</ele>
        <time>2019-05-25T13:18:24Z</time>
      </trkpt>
      <trkpt lat="41.4976090" lon="-4.7620540">
        <ele>694.6</ele>
        <time>2019-05-25T13:18:25Z</time>
      </trkpt>
      <trkpt lat="41.4976550" lon="-4.7620140">
        <ele>694.6</ele>
        <time>2019-05-25T13:18:26Z</time>
      </trkpt>
      <trkpt lat="41.4977060" lon="-4.7619880">
        <ele>694.7</ele>
        <time>2019-05-25T13:18:27Z</time>
      </trkpt>
      <trkpt lat="41.4977350" lon="-4.7619460">
        <ele>694.7</ele>
        <time>2019-05-25T13:18:28Z</time>
      </trkpt>
      <trkpt lat="41.4979280" lon="-4.7618120">
        <ele>694.9</ele>
        <time>2019-05-25T13:18:31Z</time>
      </trkpt>
      <trkpt lat="41.4979850" lon="-4.7617860">
        <ele>694.9</ele>
        <time>2019-05-25T13:18:32Z</time>
      </trkpt>
      <trkpt lat="41.4980320" lon="-4.7617620">
        <ele>695.0</ele>
        <time>2019-05-25T13:18:33Z</time>
      </trkpt>
      <trkpt lat="41.4980790" lon="-4.7617190">
        <ele>695.1</ele>
        <time>2019-05-25T13:18:34Z</time>
      </trkpt>
      <trkpt lat="41.4981500" lon="-4.7616920">
        <ele>695.2</ele>
        <time>2019-05-25T13:18:35Z</time>
      </trkpt>
      <trkpt lat="41.4981880" lon="-4.7616640">
        <ele>695.2</ele>
        <time>2019-05-25T13:18:36Z</time>
      </trkpt>
      <trkpt lat="41.4982500" lon="-4.7616410">
        <ele>695.3</ele>
        <time>2019-05-25T13:18:37Z</time>
      </trkpt>
      <trkpt lat="41.4983030" lon="-4.7616080">
        <ele>695.4</ele>
        <time>2019-05-25T13:18:38Z</time>
      </trkpt>
      <trkpt lat="41.4983420" lon="-4.7615920">
        <ele>695.4</ele>
        <time>2019-05-25T13:18:39Z</time>
      </trkpt>
      <trkpt lat="41.4984300" lon="-4.7615500">
        <ele>695.4</ele>
        <time>2019-05-25T13:18:41Z</time>
      </trkpt>
      <trkpt lat="41.4985010" lon="-4.7615080">
        <ele>695.5</ele>
        <time>2019-05-25T13:18:42Z</time>
      </trkpt>
      <trkpt lat="41.4985570" lon="-4.7614760">
        <ele>695.5</ele>
        <time>2019-05-25T13:18:43Z</time>
      </trkpt>
      <trkpt lat="41.4986140" lon="-4.7614470">
        <ele>695.5</ele>
        <time>2019-05-25T13:18:44Z</time>
      </trkpt>
      <trkpt lat="41.4986630" lon="-4.7614200">
        <ele>695.5</ele>
        <time>2019-05-25T13:18:45Z</time>
      </trkpt>
      <trkpt lat="41.4987140" lon="-4.7613920">
        <ele>695.4</ele>
        <time>2019-05-25T13:18:46Z</time>
      </trkpt>
      <trkpt lat="41.4987680" lon="-4.7613650">
        <ele>695.4</ele>
        <time>2019-05-25T13:18:47Z</time>
      </trkpt>
      <trkpt lat="41.4988210" lon="-4.7613350">
        <ele>695.4</ele>
        <time>2019-05-25T13:18:48Z</time>
      </trkpt>
      <trkpt lat="41.4988740" lon="-4.7613150">
        <ele>695.4</ele>
        <time>2019-05-25T13:18:49Z</time>
      </trkpt>
      <trkpt lat="41.4989140" lon="-4.7612810">
        <ele>695.4</ele>
        <time>2019-05-25T13:18:50Z</time>
      </trkpt>
      <trkpt lat="41.4989650" lon="-4.7612530">
        <ele>695.3</ele>
        <time>2019-05-25T13:18:51Z</time>
      </trkpt>
      <trkpt lat="41.4990200" lon="-4.7612240">
        <ele>695.3</ele>
        <time>2019-05-25T13:18:52Z</time>
      </trkpt>
      <trkpt lat="41.4990650" lon="-4.7611940">
        <ele>695.3</ele>
        <time>2019-05-25T13:18:53Z</time>
      </trkpt>
      <trkpt lat="41.4991200" lon="-4.7611650">
        <ele>695.2</ele>
        <time>2019-05-25T13:18:54Z</time>
      </trkpt>
      <trkpt lat="41.4991530" lon="-4.7611440">
        <ele>695.2</ele>
        <time>2019-05-25T13:18:55Z</time>
      </trkpt>
      <trkpt lat="41.4992740" lon="-4.7610770">
        <ele>695.1</ele>
        <time>2019-05-25T13:18:57Z</time>
      </trkpt>
      <trkpt lat="41.4993120" lon="-4.7610440">
        <ele>695.1</ele>
        <time>2019-05-25T13:18:58Z</time>
      </trkpt>
      <trkpt lat="41.4993690" lon="-4.7610060">
        <ele>695.1</ele>
        <time>2019-05-25T13:18:59Z</time>
      </trkpt>
      <trkpt lat="41.4994080" lon="-4.7609650">
        <ele>695.0</ele>
        <time>2019-05-25T13:19:00Z</time>
      </trkpt>
      <trkpt lat="41.4994700" lon="-4.7609280">
        <ele>695.0</ele>
        <time>2019-05-25T13:19:01Z</time>
      </trkpt>
      <trkpt lat="41.4995270" lon="-4.7609060">
        <ele>695.0</ele>
        <time>2019-05-25T13:19:02Z</time>
      </trkpt>
      <trkpt lat="41.4995870" lon="-4.7608880">
        <ele>694.9</ele>
        <time>2019-05-25T13:19:03Z</time>
      </trkpt>
      <trkpt lat="41.4996310" lon="-4.7608540">
        <ele>694.9</ele>
        <time>2019-05-25T13:19:04Z</time>
      </trkpt>
      <trkpt lat="41.4996680" lon="-4.7608100">
        <ele>694.9</ele>
        <time>2019-05-25T13:19:05Z</time>
      </trkpt>
      <trkpt lat="41.4997150" lon="-4.7607830">
        <ele>694.9</ele>
        <time>2019-05-25T13:19:06Z</time>
      </trkpt>
      <trkpt lat="41.4997640" lon="-4.7607550">
        <ele>694.9</ele>
        <time>2019-05-25T13:19:07Z</time>
      </trkpt>
      <trkpt lat="41.4998130" lon="-4.7607210">
        <ele>694.8</ele>
        <time>2019-05-25T13:19:08Z</time>
      </trkpt>
      <trkpt lat="41.4998660" lon="-4.7606820">
        <ele>694.8</ele>
        <time>2019-05-25T13:19:09Z</time>
      </trkpt>
      <trkpt lat="41.4999350" lon="-4.7606630">
        <ele>694.8</ele>
        <time>2019-05-25T13:19:10Z</time>
      </trkpt>
      <trkpt lat="41.4999840" lon="-4.7606370">
        <ele>694.8</ele>
        <time>2019-05-25T13:19:11Z</time>
      </trkpt>
      <trkpt lat="41.5000270" lon="-4.7606010">
        <ele>694.8</ele>
        <time>2019-05-25T13:19:12Z</time>
      </trkpt>
      <trkpt lat="41.5000930" lon="-4.7605730">
        <ele>694.8</ele>
        <time>2019-05-25T13:19:13Z</time>
      </trkpt>
      <trkpt lat="41.5001290" lon="-4.7605390">
        <ele>694.8</ele>
        <time>2019-05-25T13:19:14Z</time>
      </trkpt>
      <trkpt lat="41.5001810" lon="-4.7605010">
        <ele>694.8</ele>
        <time>2019-05-25T13:19:15Z</time>
      </trkpt>
      <trkpt lat="41.5002450" lon="-4.7604700">
        <ele>694.8</ele>
        <time>2019-05-25T13:19:16Z</time>
      </trkpt>
      <trkpt lat="41.5002990" lon="-4.7604340">
        <ele>694.8</ele>
        <time>2019-05-25T13:19:17Z</time>
      </trkpt>
      <trkpt lat="41.5003440" lon="-4.7604090">
        <ele>694.8</ele>
        <time>2019-05-25T13:19:18Z</time>
      </trkpt>
      <trkpt lat="41.5004080" lon="-4.7603820">
        <ele>694.8</ele>
        <time>2019-05-25T13:19:19Z</time>
      </trkpt>
      <trkpt lat="41.5004450" lon="-4.7603440">
        <ele>694.8</ele>
        <time>2019-05-25T13:19:20Z</time>
      </trkpt>
      <trkpt lat="41.5004860" lon="-4.7603220">
        <ele>694.8</ele>
        <time>2019-05-25T13:19:21Z</time>
      </trkpt>
      <trkpt lat="41.5005370" lon="-4.7602850">
        <ele>694.8</ele>
        <time>2019-05-25T13:19:22Z</time>
      </trkpt>
      <trkpt lat="41.5005970" lon="-4.7602630">
        <ele>694.8</ele>
        <time>2019-05-25T13:19:23Z</time>
      </trkpt>
      <trkpt lat="41.5006340" lon="-4.7602410">
        <ele>694.8</ele>
        <time>2019-05-25T13:19:24Z</time>
      </trkpt>
      <trkpt lat="41.5006680" lon="-4.7601980">
        <ele>694.8</ele>
        <time>2019-05-25T13:19:25Z</time>
      </trkpt>
      <trkpt lat="41.5007280" lon="-4.7601690">
        <ele>694.8</ele>
        <time>2019-05-25T13:19:26Z</time>
      </trkpt>
      <trkpt lat="41.5007770" lon="-4.7601450">
        <ele>694.8</ele>
        <time>2019-05-25T13:19:27Z</time>
      </trkpt>
      <trkpt lat="41.5008330" lon="-4.7601160">
        <ele>694.8</ele>
        <time>2019-05-25T13:19:28Z</time>
      </trkpt>
      <trkpt lat="41.5009030" lon="-4.7600930">
        <ele>694.8</ele>
        <time>2019-05-25T13:19:29Z</time>
      </trkpt>
      <trkpt lat="41.5009550" lon="-4.7600540">
        <ele>694.9</ele>
        <time>2019-05-25T13:19:30Z</time>
      </trkpt>
      <trkpt lat="41.5010130" lon="-4.7600290">
        <ele>694.9</ele>
        <time>2019-05-25T13:19:31Z</time>
      </trkpt>
      <trkpt lat="41.5010560" lon="-4.7600000">
        <ele>694.9</ele>
        <time>2019-05-25T13:19:32Z</time>
      </trkpt>
      <trkpt lat="41.5011150" lon="-4.7599720">
        <ele>694.9</ele>
        <time>2019-05-25T13:19:33Z</time>
      </trkpt>
      <trkpt lat="41.5011680" lon="-4.7599440">
        <ele>694.9</ele>
        <time>2019-05-25T13:19:34Z</time>
      </trkpt>
      <trkpt lat="41.5012090" lon="-4.7599130">
        <ele>694.9</ele>
        <time>2019-05-25T13:19:35Z</time>
      </trkpt>
      <trkpt lat="41.5012570" lon="-4.7598750">
        <ele>694.9</ele>
        <time>2019-05-25T13:19:36Z</time>
      </trkpt>
      <trkpt lat="41.5013060" lon="-4.7598390">
        <ele>694.9</ele>
        <time>2019-05-25T13:19:37Z</time>
      </trkpt>
      <trkpt lat="41.5013420" lon="-4.7598130">
        <ele>694.9</ele>
        <time>2019-05-25T13:19:38Z</time>
      </trkpt>
      <trkpt lat="41.5013760" lon="-4.7597790">
        <ele>694.9</ele>
        <time>2019-05-25T13:19:39Z</time>
      </trkpt>
      <trkpt lat="41.5014400" lon="-4.7597570">
        <ele>694.9</ele>
        <time>2019-05-25T13:19:40Z</time>
      </trkpt>
      <trkpt lat="41.5015010" lon="-4.7597410">
        <ele>694.9</ele>
        <time>2019-05-25T13:19:41Z</time>
      </trkpt>
      <trkpt lat="41.5015450" lon="-4.7597140">
        <ele>695.0</ele>
        <time>2019-05-25T13:19:42Z</time>
      </trkpt>
      <trkpt lat="41.5015810" lon="-4.7597020">
        <ele>695.0</ele>
        <time>2019-05-25T13:19:43Z</time>
      </trkpt>
      <trkpt lat="41.5016280" lon="-4.7596870">
        <ele>695.0</ele>
        <time>2019-05-25T13:19:44Z</time>
      </trkpt>
      <trkpt lat="41.5016800" lon="-4.7596740">
        <ele>695.0</ele>
        <time>2019-05-25T13:19:45Z</time>
      </trkpt>
      <trkpt lat="41.5017260" lon="-4.7596590">
        <ele>695.0</ele>
        <time>2019-05-25T13:19:46Z</time>
      </trkpt>
      <trkpt lat="41.5017750" lon="-4.7596410">
        <ele>695.0</ele>
        <time>2019-05-25T13:19:47Z</time>
      </trkpt>
      <trkpt lat="41.5018240" lon="-4.7596220">
        <ele>695.1</ele>
        <time>2019-05-25T13:19:48Z</time>
      </trkpt>
      <trkpt lat="41.5018760" lon="-4.7596040">
        <ele>695.1</ele>
        <time>2019-05-25T13:19:49Z</time>
      </trkpt>
      <trkpt lat="41.5019060" lon="-4.7595900">
        <ele>695.1</ele>
        <time>2019-05-25T13:19:50Z</time>
      </trkpt>
      <trkpt lat="41.5019470" lon="-4.7595580">
        <ele>695.1</ele>
        <time>2019-05-25T13:19:52Z</time>
      </trkpt>
      <trkpt lat="41.5019980" lon="-4.7595200">
        <ele>695.1</ele>
        <time>2019-05-25T13:19:54Z</time>
      </trkpt>
      <trkpt lat="41.5020290" lon="-4.7594970">
        <ele>695.1</ele>
        <time>2019-05-25T13:19:55Z</time>
      </trkpt>
      <trkpt lat="41.5020670" lon="-4.7594760">
        <ele>695.1</ele>
        <time>2019-05-25T13:19:56Z</time>
      </trkpt>
      <trkpt lat="41.5021120" lon="-4.7594490">
        <ele>695.2</ele>
        <time>2019-05-25T13:19:57Z</time>
      </trkpt>
      <trkpt lat="41.5021590" lon="-4.7594150">
        <ele>695.2</ele>
        <time>2019-05-25T13:19:58Z</time>
      </trkpt>
      <trkpt lat="41.5022100" lon="-4.7593820">
        <ele>695.2</ele>
        <time>2019-05-25T13:19:59Z</time>
      </trkpt>
      <trkpt lat="41.5022640" lon="-4.7593510">
        <ele>695.2</ele>
        <time>2019-05-25T13:20:00Z</time>
      </trkpt>
      <trkpt lat="41.5023210" lon="-4.7593280">
        <ele>695.2</ele>
        <time>2019-05-25T13:20:01Z</time>
      </trkpt>
      <trkpt lat="41.5023850" lon="-4.7593070">
        <ele>695.2</ele>
        <time>2019-05-25T13:20:02Z</time>
      </trkpt>
      <trkpt lat="41.5024470" lon="-4.7592810">
        <ele>695.2</ele>
        <time>2019-05-25T13:20:03Z</time>
      </trkpt>
      <trkpt lat="41.5025010" lon="-4.7592380">
        <ele>695.2</ele>
        <time>2019-05-25T13:20:04Z</time>
      </trkpt>
      <trkpt lat="41.5025600" lon="-4.7591970">
        <ele>695.1</ele>
        <time>2019-05-25T13:20:05Z</time>
      </trkpt>
      <trkpt lat="41.5026220" lon="-4.7591520">
        <ele>695.1</ele>
        <time>2019-05-25T13:20:06Z</time>
      </trkpt>
      <trkpt lat="41.5026710" lon="-4.7591240">
        <ele>695.1</ele>
        <time>2019-05-25T13:20:07Z</time>
      </trkpt>
      <trkpt lat="41.5027360" lon="-4.7590810">
        <ele>695.1</ele>
        <time>2019-05-25T13:20:08Z</time>
      </trkpt>
      <trkpt lat="41.5027970" lon="-4.7590310">
        <ele>695.1</ele>
        <time>2019-05-25T13:20:09Z</time>
      </trkpt>
      <trkpt lat="41.5028660" lon="-4.7589820">
        <ele>695.1</ele>
        <time>2019-05-25T13:20:10Z</time>
      </trkpt>
      <trkpt lat="41.5029310" lon="-4.7589440">
        <ele>695.0</ele>
        <time>2019-05-25T13:20:11Z</time>
      </trkpt>
      <trkpt lat="41.5029920" lon="-4.7589130">
        <ele>695.0</ele>
        <time>2019-05-25T13:20:12Z</time>
      </trkpt>
      <trkpt lat="41.5030530" lon="-4.7588840">
        <ele>695.0</ele>
        <time>2019-05-25T13:20:13Z</time>
      </trkpt>
      <trkpt lat="41.5031090" lon="-4.7588540">
        <ele>695.0</ele>
        <time>2019-05-25T13:20:14Z</time>
      </trkpt>
      <trkpt lat="41.5031650" lon="-4.7588280">
        <ele>695.0</ele>
        <time>2019-05-25T13:20:15Z</time>
      </trkpt>
      <trkpt lat="41.5032220" lon="-4.7588060">
        <ele>695.0</ele>
        <time>2019-05-25T13:20:16Z</time>
      </trkpt>
      <trkpt lat="41.5032780" lon="-4.7587870">
        <ele>695.0</ele>
        <time>2019-05-25T13:20:17Z</time>
      </trkpt>
      <trkpt lat="41.5033290" lon="-4.7587430">
        <ele>695.1</ele>
        <time>2019-05-25T13:20:18Z</time>
      </trkpt>
      <trkpt lat="41.5033980" lon="-4.7587400">
        <ele>695.1</ele>
        <time>2019-05-25T13:20:19Z</time>
      </trkpt>
      <trkpt lat="41.5034610" lon="-4.7587410">
        <ele>695.1</ele>
        <time>2019-05-25T13:20:20Z</time>
      </trkpt>
      <trkpt lat="41.5035040" lon="-4.7587340">
        <ele>695.1</ele>
        <time>2019-05-25T13:20:21Z</time>
      </trkpt>
      <trkpt lat="41.5035450" lon="-4.7586990">
        <ele>695.1</ele>
        <time>2019-05-25T13:20:24Z</time>
      </trkpt>
      <trkpt lat="41.5035780" lon="-4.7586510">
        <ele>695.1</ele>
        <time>2019-05-25T13:20:26Z</time>
      </trkpt>
      <trkpt lat="41.5036100" lon="-4.7586340">
        <ele>695.1</ele>
        <time>2019-05-25T13:20:27Z</time>
      </trkpt>
      <trkpt lat="41.5036460" lon="-4.7586210">
        <ele>695.1</ele>
        <time>2019-05-25T13:20:28Z</time>
      </trkpt>
      <trkpt lat="41.5036890" lon="-4.7586060">
        <ele>695.1</ele>
        <time>2019-05-25T13:20:29Z</time>
      </trkpt>
      <trkpt lat="41.5037360" lon="-4.7585910">
        <ele>695.1</ele>
        <time>2019-05-25T13:20:30Z</time>
      </trkpt>
      <trkpt lat="41.5037930" lon="-4.7585680">
        <ele>695.1</ele>
        <time>2019-05-25T13:20:31Z</time>
      </trkpt>
      <trkpt lat="41.5038550" lon="-4.7585450">
        <ele>695.1</ele>
        <time>2019-05-25T13:20:32Z</time>
      </trkpt>
      <trkpt lat="41.5039190" lon="-4.7585180">
        <ele>695.1</ele>
        <time>2019-05-25T13:20:33Z</time>
      </trkpt>
      <trkpt lat="41.5039840" lon="-4.7584870">
        <ele>695.0</ele>
        <time>2019-05-25T13:20:34Z</time>
      </trkpt>
      <trkpt lat="41.5040480" lon="-4.7584560">
        <ele>695.0</ele>
        <time>2019-05-25T13:20:35Z</time>
      </trkpt>
      <trkpt lat="41.5041110" lon="-4.7584240">
        <ele>695.0</ele>
        <time>2019-05-25T13:20:36Z</time>
      </trkpt>
      <trkpt lat="41.5041730" lon="-4.7583980">
        <ele>695.0</ele>
        <time>2019-05-25T13:20:37Z</time>
      </trkpt>
      <trkpt lat="41.5042300" lon="-4.7583730">
        <ele>695.0</ele>
        <time>2019-05-25T13:20:38Z</time>
      </trkpt>
      <trkpt lat="41.5042830" lon="-4.7583600">
        <ele>694.9</ele>
        <time>2019-05-25T13:20:39Z</time>
      </trkpt>
      <trkpt lat="41.5043390" lon="-4.7583650">
        <ele>694.9</ele>
        <time>2019-05-25T13:20:40Z</time>
      </trkpt>
      <trkpt lat="41.5043940" lon="-4.7583640">
        <ele>694.9</ele>
        <time>2019-05-25T13:20:41Z</time>
      </trkpt>
      <trkpt lat="41.5044300" lon="-4.7583580">
        <ele>694.9</ele>
        <time>2019-05-25T13:20:42Z</time>
      </trkpt>
      <trkpt lat="41.5045300" lon="-4.7583320">
        <ele>694.9</ele>
        <time>2019-05-25T13:20:43Z</time>
      </trkpt>
      <trkpt lat="41.5045700" lon="-4.7583150">
        <ele>694.9</ele>
        <time>2019-05-25T13:20:44Z</time>
      </trkpt>
      <trkpt lat="41.5046090" lon="-4.7582810">
        <ele>694.8</ele>
        <time>2019-05-25T13:20:45Z</time>
      </trkpt>
      <trkpt lat="41.5046510" lon="-4.7582430">
        <ele>694.8</ele>
        <time>2019-05-25T13:20:46Z</time>
      </trkpt>
      <trkpt lat="41.5046860" lon="-4.7582090">
        <ele>694.8</ele>
        <time>2019-05-25T13:20:47Z</time>
      </trkpt>
      <trkpt lat="41.5047150" lon="-4.7581930">
        <ele>694.8</ele>
        <time>2019-05-25T13:20:48Z</time>
      </trkpt>
      <trkpt lat="41.5047750" lon="-4.7581730">
        <ele>694.8</ele>
        <time>2019-05-25T13:20:51Z</time>
      </trkpt>
      <trkpt lat="41.5048340" lon="-4.7581600">
        <ele>694.8</ele>
        <time>2019-05-25T13:20:52Z</time>
      </trkpt>
      <trkpt lat="41.5049360" lon="-4.7581600">
        <ele>694.8</ele>
        <time>2019-05-25T13:20:53Z</time>
      </trkpt>
      <trkpt lat="41.5050250" lon="-4.7581450">
        <ele>694.8</ele>
        <time>2019-05-25T13:20:54Z</time>
      </trkpt>
      <trkpt lat="41.5050520" lon="-4.7581250">
        <ele>694.8</ele>
        <time>2019-05-25T13:20:55Z</time>
      </trkpt>
      <trkpt lat="41.5050840" lon="-4.7581170">
        <ele>694.8</ele>
        <time>2019-05-25T13:20:56Z</time>
      </trkpt>
      <trkpt lat="41.5051170" lon="-4.7580990">
        <ele>694.8</ele>
        <time>2019-05-25T13:20:57Z</time>
      </trkpt>
      <trkpt lat="41.5051700" lon="-4.7580770">
        <ele>694.8</ele>
        <time>2019-05-25T13:20:58Z</time>
      </trkpt>
      <trkpt lat="41.5052030" lon="-4.7580680">
        <ele>694.9</ele>
        <time>2019-05-25T13:20:59Z</time>
      </trkpt>
      <trkpt lat="41.5052400" lon="-4.7580510">
        <ele>694.9</ele>
        <time>2019-05-25T13:21:02Z</time>
      </trkpt>
      <trkpt lat="41.5052760" lon="-4.7580350">
        <ele>694.9</ele>
        <time>2019-05-25T13:21:03Z</time>
      </trkpt>
      <trkpt lat="41.5053570" lon="-4.7580170">
        <ele>694.9</ele>
        <time>2019-05-25T13:21:04Z</time>
      </trkpt>
      <trkpt lat="41.5054470" lon="-4.7580000">
        <ele>695.0</ele>
        <time>2019-05-25T13:21:05Z</time>
      </trkpt>
      <trkpt lat="41.5055270" lon="-4.7579940">
        <ele>695.0</ele>
        <time>2019-05-25T13:21:06Z</time>
      </trkpt>
      <trkpt lat="41.5055900" lon="-4.7579930">
        <ele>695.1</ele>
        <time>2019-05-25T13:21:07Z</time>
      </trkpt>
      <trkpt lat="41.5056550" lon="-4.7579920">
        <ele>695.1</ele>
        <time>2019-05-25T13:21:08Z</time>
      </trkpt>
      <trkpt lat="41.5057250" lon="-4.7579940">
        <ele>695.1</ele>
        <time>2019-05-25T13:21:09Z</time>
      </trkpt>
      <trkpt lat="41.5057880" lon="-4.7579920">
        <ele>695.1</ele>
        <time>2019-05-25T13:21:10Z</time>
      </trkpt>
      <trkpt lat="41.5058430" lon="-4.7579800">
        <ele>695.2</ele>
        <time>2019-05-25T13:21:11Z</time>
      </trkpt>
      <trkpt lat="41.5059470" lon="-4.7579520">
        <ele>695.2</ele>
        <time>2019-05-25T13:21:13Z</time>
      </trkpt>
      <trkpt lat="41.5060010" lon="-4.7579490">
        <ele>695.2</ele>
        <time>2019-05-25T13:21:14Z</time>
      </trkpt>
      <trkpt lat="41.5060550" lon="-4.7579510">
        <ele>695.2</ele>
        <time>2019-05-25T13:21:15Z</time>
      </trkpt>
      <trkpt lat="41.5061080" lon="-4.7579520">
        <ele>695.2</ele>
        <time>2019-05-25T13:21:16Z</time>
      </trkpt>
      <trkpt lat="41.5061630" lon="-4.7579480">
        <ele>695.2</ele>
        <time>2019-05-25T13:21:17Z</time>
      </trkpt>
      <trkpt lat="41.5062160" lon="-4.7579420">
        <ele>695.2</ele>
        <time>2019-05-25T13:21:18Z</time>
      </trkpt>
      <trkpt lat="41.5062690" lon="-4.7579410">
        <ele>695.2</ele>
        <time>2019-05-25T13:21:19Z</time>
      </trkpt>
      <trkpt lat="41.5063220" lon="-4.7579450">
        <ele>695.2</ele>
        <time>2019-05-25T13:21:20Z</time>
      </trkpt>
      <trkpt lat="41.5063720" lon="-4.7579380">
        <ele>695.2</ele>
        <time>2019-05-25T13:21:21Z</time>
      </trkpt>
      <trkpt lat="41.5064090" lon="-4.7579430">
        <ele>695.2</ele>
        <time>2019-05-25T13:21:23Z</time>
      </trkpt>
      <trkpt lat="41.5064600" lon="-4.7579550">
        <ele>695.2</ele>
        <time>2019-05-25T13:21:25Z</time>
      </trkpt>
      <trkpt lat="41.5065080" lon="-4.7579680">
        <ele>695.2</ele>
        <time>2019-05-25T13:21:27Z</time>
      </trkpt>
      <trkpt lat="41.5065630" lon="-4.7579830">
        <ele>695.2</ele>
        <time>2019-05-25T13:21:29Z</time>
      </trkpt>
      <trkpt lat="41.5066010" lon="-4.7579940">
        <ele>695.2</ele>
        <time>2019-05-25T13:21:30Z</time>
      </trkpt>
      <trkpt lat="41.5066460" lon="-4.7580030">
        <ele>695.2</ele>
        <time>2019-05-25T13:21:31Z</time>
      </trkpt>
      <trkpt lat="41.5066940" lon="-4.7580140">
        <ele>695.2</ele>
        <time>2019-05-25T13:21:32Z</time>
      </trkpt>
      <trkpt lat="41.5067440" lon="-4.7580220">
        <ele>695.2</ele>
        <time>2019-05-25T13:21:33Z</time>
      </trkpt>
      <trkpt lat="41.5067960" lon="-4.7580310">
        <ele>695.2</ele>
        <time>2019-05-25T13:21:34Z</time>
      </trkpt>
      <trkpt lat="41.5068500" lon="-4.7580460">
        <ele>695.2</ele>
        <time>2019-05-25T13:21:35Z</time>
      </trkpt>
      <trkpt lat="41.5068880" lon="-4.7580510">
        <ele>695.3</ele>
        <time>2019-05-25T13:21:36Z</time>
      </trkpt>
      <trkpt lat="41.5069720" lon="-4.7580570">
        <ele>695.3</ele>
        <time>2019-05-25T13:21:37Z</time>
      </trkpt>
      <trkpt lat="41.5070210" lon="-4.7580610">
        <ele>695.3</ele>
        <time>2019-05-25T13:21:38Z</time>
      </trkpt>
      <trkpt lat="41.5070540" lon="-4.7580660">
        <ele>695.3</ele>
        <time>2019-05-25T13:21:39Z</time>
      </trkpt>
      <trkpt lat="41.5070810" lon="-4.7580700">
        <ele>695.3</ele>
        <time>2019-05-25T13:21:40Z</time>
      </trkpt>
      <trkpt lat="41.5071220" lon="-4.7580760">
        <ele>695.4</ele>
        <time>2019-05-25T13:21:41Z</time>
      </trkpt>
      <trkpt lat="41.5071640" lon="-4.7580790">
        <ele>695.4</ele>
        <time>2019-05-25T13:21:42Z</time>
      </trkpt>
      <trkpt lat="41.5072060" lon="-4.7580780">
        <ele>695.4</ele>
        <time>2019-05-25T13:21:43Z</time>
      </trkpt>
      <trkpt lat="41.5072420" lon="-4.7580760">
        <ele>695.4</ele>
        <time>2019-05-25T13:21:44Z</time>
      </trkpt>
      <trkpt lat="41.5072880" lon="-4.7580700">
        <ele>695.4</ele>
        <time>2019-05-25T13:21:45Z</time>
      </trkpt>
      <trkpt lat="41.5073290" lon="-4.7580650">
        <ele>695.5</ele>
        <time>2019-05-25T13:21:46Z</time>
      </trkpt>
      <trkpt lat="41.5073880" lon="-4.7580600">
        <ele>695.5</ele>
        <time>2019-05-25T13:21:47Z</time>
      </trkpt>
      <trkpt lat="41.5074660" lon="-4.7580280">
        <ele>695.5</ele>
        <time>2019-05-25T13:21:48Z</time>
      </trkpt>
      <trkpt lat="41.5075380" lon="-4.7580420">
        <ele>695.5</ele>
        <time>2019-05-25T13:21:49Z</time>
      </trkpt>
      <trkpt lat="41.5076180" lon="-4.7580490">
        <ele>695.5</ele>
        <time>2019-05-25T13:21:50Z</time>
      </trkpt>
      <trkpt lat="41.5076890" lon="-4.7580630">
        <ele>695.5</ele>
        <time>2019-05-25T13:21:51Z</time>
      </trkpt>
      <trkpt lat="41.5077500" lon="-4.7580670">
        <ele>695.4</ele>
        <time>2019-05-25T13:21:52Z</time>
      </trkpt>
      <trkpt lat="41.5078020" lon="-4.7580670">
        <ele>695.4</ele>
        <time>2019-05-25T13:21:53Z</time>
      </trkpt>
      <trkpt lat="41.5078490" lon="-4.7580660">
        <ele>695.3</ele>
        <time>2019-05-25T13:21:54Z</time>
      </trkpt>
      <trkpt lat="41.5078930" lon="-4.7580640">
        <ele>695.3</ele>
        <time>2019-05-25T13:21:55Z</time>
      </trkpt>
      <trkpt lat="41.5079350" lon="-4.7580610">
        <ele>695.2</ele>
        <time>2019-05-25T13:21:56Z</time>
      </trkpt>
      <trkpt lat="41.5079850" lon="-4.7580490">
        <ele>695.2</ele>
        <time>2019-05-25T13:21:57Z</time>
      </trkpt>
      <trkpt lat="41.5080350" lon="-4.7580420">
        <ele>695.1</ele>
        <time>2019-05-25T13:21:58Z</time>
      </trkpt>
      <trkpt lat="41.5080680" lon="-4.7580340">
        <ele>695.1</ele>
        <time>2019-05-25T13:21:59Z</time>
      </trkpt>
      <trkpt lat="41.5081080" lon="-4.7580230">
        <ele>695.0</ele>
        <time>2019-05-25T13:22:00Z</time>
      </trkpt>
      <trkpt lat="41.5081490" lon="-4.7580160">
        <ele>695.0</ele>
        <time>2019-05-25T13:22:01Z</time>
      </trkpt>
      <trkpt lat="41.5081920" lon="-4.7580120">
        <ele>694.9</ele>
        <time>2019-05-25T13:22:02Z</time>
      </trkpt>
      <trkpt lat="41.5082400" lon="-4.7580170">
        <ele>694.9</ele>
        <time>2019-05-25T13:22:03Z</time>
      </trkpt>
      <trkpt lat="41.5082860" lon="-4.7580180">
        <ele>694.8</ele>
        <time>2019-05-25T13:22:04Z</time>
      </trkpt>
      <trkpt lat="41.5083300" lon="-4.7580100">
        <ele>694.8</ele>
        <time>2019-05-25T13:22:05Z</time>
      </trkpt>
      <trkpt lat="41.5083770" lon="-4.7580040">
        <ele>694.8</ele>
        <time>2019-05-25T13:22:06Z</time>
      </trkpt>
      <trkpt lat="41.5084130" lon="-4.7579960">
        <ele>694.7</ele>
        <time>2019-05-25T13:22:07Z</time>
      </trkpt>
      <trkpt lat="41.5084550" lon="-4.7579850">
        <ele>694.7</ele>
        <time>2019-05-25T13:22:08Z</time>
      </trkpt>
      <trkpt lat="41.5084950" lon="-4.7579730">
        <ele>694.7</ele>
        <time>2019-05-25T13:22:09Z</time>
      </trkpt>
      <trkpt lat="41.5085370" lon="-4.7579600">
        <ele>694.6</ele>
        <time>2019-05-25T13:22:10Z</time>
      </trkpt>
      <trkpt lat="41.5085790" lon="-4.7579440">
        <ele>694.6</ele>
        <time>2019-05-25T13:22:11Z</time>
      </trkpt>
      <trkpt lat="41.5086170" lon="-4.7579320">
        <ele>694.6</ele>
        <time>2019-05-25T13:22:12Z</time>
      </trkpt>
      <trkpt lat="41.5086610" lon="-4.7579180">
        <ele>694.5</ele>
        <time>2019-05-25T13:22:13Z</time>
      </trkpt>
      <trkpt lat="41.5087070" lon="-4.7578970">
        <ele>694.5</ele>
        <time>2019-05-25T13:22:14Z</time>
      </trkpt>
      <trkpt lat="41.5087520" lon="-4.7578750">
        <ele>694.5</ele>
        <time>2019-05-25T13:22:15Z</time>
      </trkpt>
      <trkpt lat="41.5087980" lon="-4.7578500">
        <ele>694.4</ele>
        <time>2019-05-25T13:22:16Z</time>
      </trkpt>
      <trkpt lat="41.5088420" lon="-4.7578280">
        <ele>694.4</ele>
        <time>2019-05-25T13:22:17Z</time>
      </trkpt>
      <trkpt lat="41.5088840" lon="-4.7578090">
        <ele>694.4</ele>
        <time>2019-05-25T13:22:18Z</time>
      </trkpt>
      <trkpt lat="41.5089290" lon="-4.7577840">
        <ele>694.4</ele>
        <time>2019-05-25T13:22:19Z</time>
      </trkpt>
      <trkpt lat="41.5089680" lon="-4.7577610">
        <ele>694.3</ele>
        <time>2019-05-25T13:22:20Z</time>
      </trkpt>
      <trkpt lat="41.5090070" lon="-4.7577370">
        <ele>694.3</ele>
        <time>2019-05-25T13:22:21Z</time>
      </trkpt>
      <trkpt lat="41.5090480" lon="-4.7577130">
        <ele>694.3</ele>
        <time>2019-05-25T13:22:22Z</time>
      </trkpt>
      <trkpt lat="41.5090910" lon="-4.7576890">
        <ele>694.3</ele>
        <time>2019-05-25T13:22:23Z</time>
      </trkpt>
      <trkpt lat="41.5091290" lon="-4.7576600">
        <ele>694.3</ele>
        <time>2019-05-25T13:22:24Z</time>
      </trkpt>
      <trkpt lat="41.5091730" lon="-4.7576390">
        <ele>694.2</ele>
        <time>2019-05-25T13:22:25Z</time>
      </trkpt>
      <trkpt lat="41.5092160" lon="-4.7576130">
        <ele>694.2</ele>
        <time>2019-05-25T13:22:26Z</time>
      </trkpt>
      <trkpt lat="41.5092630" lon="-4.7575970">
        <ele>694.2</ele>
        <time>2019-05-25T13:22:27Z</time>
      </trkpt>
      <trkpt lat="41.5093030" lon="-4.7575710">
        <ele>694.2</ele>
        <time>2019-05-25T13:22:28Z</time>
      </trkpt>
      <trkpt lat="41.5093490" lon="-4.7575510">
        <ele>694.2</ele>
        <time>2019-05-25T13:22:29Z</time>
      </trkpt>
      <trkpt lat="41.5093960" lon="-4.7575380">
        <ele>694.1</ele>
        <time>2019-05-25T13:22:30Z</time>
      </trkpt>
      <trkpt lat="41.5094430" lon="-4.7575190">
        <ele>694.1</ele>
        <time>2019-05-25T13:22:31Z</time>
      </trkpt>
      <trkpt lat="41.5094920" lon="-4.7575070">
        <ele>694.1</ele>
        <time>2019-05-25T13:22:32Z</time>
      </trkpt>
      <trkpt lat="41.5095370" lon="-4.7574900">
        <ele>694.0</ele>
        <time>2019-05-25T13:22:33Z</time>
      </trkpt>
      <trkpt lat="41.5095860" lon="-4.7574780">
        <ele>694.0</ele>
        <time>2019-05-25T13:22:34Z</time>
      </trkpt>
      <trkpt lat="41.5096350" lon="-4.7574600">
        <ele>694.0</ele>
        <time>2019-05-25T13:22:35Z</time>
      </trkpt>
      <trkpt lat="41.5096840" lon="-4.7574440">
        <ele>693.9</ele>
        <time>2019-05-25T13:22:36Z</time>
      </trkpt>
      <trkpt lat="41.5097360" lon="-4.7574340">
        <ele>693.9</ele>
        <time>2019-05-25T13:22:37Z</time>
      </trkpt>
      <trkpt lat="41.5097900" lon="-4.7574220">
        <ele>693.8</ele>
        <time>2019-05-25T13:22:38Z</time>
      </trkpt>
      <trkpt lat="41.5098390" lon="-4.7574130">
        <ele>693.8</ele>
        <time>2019-05-25T13:22:39Z</time>
      </trkpt>
      <trkpt lat="41.5098980" lon="-4.7574040">
        <ele>693.7</ele>
        <time>2019-05-25T13:22:40Z</time>
      </trkpt>
      <trkpt lat="41.5099540" lon="-4.7573960">
        <ele>693.7</ele>
        <time>2019-05-25T13:22:41Z</time>
      </trkpt>
      <trkpt lat="41.5100110" lon="-4.7573940">
        <ele>693.6</ele>
        <time>2019-05-25T13:22:42Z</time>
      </trkpt>
      <trkpt lat="41.5100670" lon="-4.7573940">
        <ele>693.6</ele>
        <time>2019-05-25T13:22:43Z</time>
      </trkpt>
      <trkpt lat="41.5101220" lon="-4.7573970">
        <ele>693.5</ele>
        <time>2019-05-25T13:22:44Z</time>
      </trkpt>
      <trkpt lat="41.5101760" lon="-4.7574050">
        <ele>693.5</ele>
        <time>2019-05-25T13:22:45Z</time>
      </trkpt>
      <trkpt lat="41.5102290" lon="-4.7574090">
        <ele>693.5</ele>
        <time>2019-05-25T13:22:46Z</time>
      </trkpt>
      <trkpt lat="41.5102780" lon="-4.7574200">
        <ele>693.4</ele>
        <time>2019-05-25T13:22:47Z</time>
      </trkpt>
      <trkpt lat="41.5103250" lon="-4.7574240">
        <ele>693.4</ele>
        <time>2019-05-25T13:22:48Z</time>
      </trkpt>
      <trkpt lat="41.5103690" lon="-4.7574300">
        <ele>693.4</ele>
        <time>2019-05-25T13:22:49Z</time>
      </trkpt>
      <trkpt lat="41.5104120" lon="-4.7574280">
        <ele>693.4</ele>
        <time>2019-05-25T13:22:50Z</time>
      </trkpt>
      <trkpt lat="41.5104580" lon="-4.7574340">
        <ele>693.4</ele>
        <time>2019-05-25T13:22:51Z</time>
      </trkpt>
      <trkpt lat="41.5105030" lon="-4.7574550">
        <ele>693.4</ele>
        <time>2019-05-25T13:22:52Z</time>
      </trkpt>
      <trkpt lat="41.5105570" lon="-4.7574440">
        <ele>693.4</ele>
        <time>2019-05-25T13:22:53Z</time>
      </trkpt>
      <trkpt lat="41.5106060" lon="-4.7574490">
        <ele>693.4</ele>
        <time>2019-05-25T13:22:54Z</time>
      </trkpt>
      <trkpt lat="41.5106560" lon="-4.7574490">
        <ele>693.4</ele>
        <time>2019-05-25T13:22:55Z</time>
      </trkpt>
      <trkpt lat="41.5107050" lon="-4.7574500">
        <ele>693.4</ele>
        <time>2019-05-25T13:22:56Z</time>
      </trkpt>
      <trkpt lat="41.5107530" lon="-4.7574480">
        <ele>693.4</ele>
        <time>2019-05-25T13:22:57Z</time>
      </trkpt>
      <trkpt lat="41.5108000" lon="-4.7574480">
        <ele>693.4</ele>
        <time>2019-05-25T13:22:58Z</time>
      </trkpt>
      <trkpt lat="41.5108460" lon="-4.7574450">
        <ele>693.4</ele>
        <time>2019-05-25T13:22:59Z</time>
      </trkpt>
      <trkpt lat="41.5108930" lon="-4.7574410">
        <ele>693.4</ele>
        <time>2019-05-25T13:23:00Z</time>
      </trkpt>
      <trkpt lat="41.5109410" lon="-4.7574430">
        <ele>693.4</ele>
        <time>2019-05-25T13:23:01Z</time>
      </trkpt>
      <trkpt lat="41.5109920" lon="-4.7574400">
        <ele>693.5</ele>
        <time>2019-05-25T13:23:02Z</time>
      </trkpt>
      <trkpt lat="41.5110430" lon="-4.7574340">
        <ele>693.5</ele>
        <time>2019-05-25T13:23:03Z</time>
      </trkpt>
      <trkpt lat="41.5110920" lon="-4.7574370">
        <ele>693.5</ele>
        <time>2019-05-25T13:23:04Z</time>
      </trkpt>
      <trkpt lat="41.5111450" lon="-4.7574290">
        <ele>693.5</ele>
        <time>2019-05-25T13:23:05Z</time>
      </trkpt>
      <trkpt lat="41.5111980" lon="-4.7574260">
        <ele>693.6</ele>
        <time>2019-05-25T13:23:06Z</time>
      </trkpt>
      <trkpt lat="41.5112520" lon="-4.7574290">
        <ele>693.6</ele>
        <time>2019-05-25T13:23:07Z</time>
      </trkpt>
      <trkpt lat="41.5113040" lon="-4.7574180">
        <ele>693.6</ele>
        <time>2019-05-25T13:23:08Z</time>
      </trkpt>
      <trkpt lat="41.5113540" lon="-4.7574010">
        <ele>693.7</ele>
        <time>2019-05-25T13:23:09Z</time>
      </trkpt>
      <trkpt lat="41.5114030" lon="-4.7573890">
        <ele>693.7</ele>
        <time>2019-05-25T13:23:10Z</time>
      </trkpt>
      <trkpt lat="41.5114530" lon="-4.7573820">
        <ele>693.7</ele>
        <time>2019-05-25T13:23:11Z</time>
      </trkpt>
      <trkpt lat="41.5114980" lon="-4.7573690">
        <ele>693.7</ele>
        <time>2019-05-25T13:23:12Z</time>
      </trkpt>
      <trkpt lat="41.5115470" lon="-4.7573620">
        <ele>693.7</ele>
        <time>2019-05-25T13:23:13Z</time>
      </trkpt>
      <trkpt lat="41.5115960" lon="-4.7573570">
        <ele>693.8</ele>
        <time>2019-05-25T13:23:14Z</time>
      </trkpt>
      <trkpt lat="41.5116410" lon="-4.7573350">
        <ele>693.8</ele>
        <time>2019-05-25T13:23:15Z</time>
      </trkpt>
      <trkpt lat="41.5116960" lon="-4.7573240">
        <ele>693.8</ele>
        <time>2019-05-25T13:23:16Z</time>
      </trkpt>
      <trkpt lat="41.5117610" lon="-4.7573260">
        <ele>693.7</ele>
        <time>2019-05-25T13:23:17Z</time>
      </trkpt>
      <trkpt lat="41.5118190" lon="-4.7573210">
        <ele>693.7</ele>
        <time>2019-05-25T13:23:18Z</time>
      </trkpt>
      <trkpt lat="41.5118600" lon="-4.7573180">
        <ele>693.7</ele>
        <time>2019-05-25T13:23:19Z</time>
      </trkpt>
      <trkpt lat="41.5118900" lon="-4.7573110">
        <ele>693.7</ele>
        <time>2019-05-25T13:23:20Z</time>
      </trkpt>
      <trkpt lat="41.5119210" lon="-4.7573020">
        <ele>693.7</ele>
        <time>2019-05-25T13:23:21Z</time>
      </trkpt>
      <trkpt lat="41.5119530" lon="-4.7572960">
        <ele>693.7</ele>
        <time>2019-05-25T13:23:22Z</time>
      </trkpt>
      <trkpt lat="41.5119870" lon="-4.7572860">
        <ele>693.6</ele>
        <time>2019-05-25T13:23:23Z</time>
      </trkpt>
      <trkpt lat="41.5120300" lon="-4.7572730">
        <ele>693.6</ele>
        <time>2019-05-25T13:23:24Z</time>
      </trkpt>
      <trkpt lat="41.5120800" lon="-4.7572640">
        <ele>693.6</ele>
        <time>2019-05-25T13:23:25Z</time>
      </trkpt>
      <trkpt lat="41.5121300" lon="-4.7572570">
        <ele>693.6</ele>
        <time>2019-05-25T13:23:26Z</time>
      </trkpt>
      <trkpt lat="41.5121780" lon="-4.7572500">
        <ele>693.5</ele>
        <time>2019-05-25T13:23:27Z</time>
      </trkpt>
      <trkpt lat="41.5122240" lon="-4.7572440">
        <ele>693.5</ele>
        <time>2019-05-25T13:23:28Z</time>
      </trkpt>
      <trkpt lat="41.5122670" lon="-4.7572380">
        <ele>693.5</ele>
        <time>2019-05-25T13:23:29Z</time>
      </trkpt>
      <trkpt lat="41.5123110" lon="-4.7572280">
        <ele>693.5</ele>
        <time>2019-05-25T13:23:30Z</time>
      </trkpt>
      <trkpt lat="41.5123560" lon="-4.7572160">
        <ele>693.4</ele>
        <time>2019-05-25T13:23:31Z</time>
      </trkpt>
      <trkpt lat="41.5124070" lon="-4.7572020">
        <ele>693.4</ele>
        <time>2019-05-25T13:23:32Z</time>
      </trkpt>
      <trkpt lat="41.5124610" lon="-4.7571950">
        <ele>693.4</ele>
        <time>2019-05-25T13:23:33Z</time>
      </trkpt>
      <trkpt lat="41.5125140" lon="-4.7571900">
        <ele>693.4</ele>
        <time>2019-05-25T13:23:34Z</time>
      </trkpt>
      <trkpt lat="41.5125650" lon="-4.7571860">
        <ele>693.4</ele>
        <time>2019-05-25T13:23:35Z</time>
      </trkpt>
      <trkpt lat="41.5126170" lon="-4.7571820">
        <ele>693.4</ele>
        <time>2019-05-25T13:23:36Z</time>
      </trkpt>
      <trkpt lat="41.5126670" lon="-4.7571770">
        <ele>693.3</ele>
        <time>2019-05-25T13:23:37Z</time>
      </trkpt>
      <trkpt lat="41.5127180" lon="-4.7571710">
        <ele>693.3</ele>
        <time>2019-05-25T13:23:38Z</time>
      </trkpt>
      <trkpt lat="41.5127700" lon="-4.7571580">
        <ele>693.3</ele>
        <time>2019-05-25T13:23:39Z</time>
      </trkpt>
      <trkpt lat="41.5128170" lon="-4.7571500">
        <ele>693.3</ele>
        <time>2019-05-25T13:23:40Z</time>
      </trkpt>
      <trkpt lat="41.5128670" lon="-4.7571550">
        <ele>693.2</ele>
        <time>2019-05-25T13:23:41Z</time>
      </trkpt>
      <trkpt lat="41.5129220" lon="-4.7571620">
        <ele>693.2</ele>
        <time>2019-05-25T13:23:42Z</time>
      </trkpt>
      <trkpt lat="41.5129700" lon="-4.7571730">
        <ele>693.2</ele>
        <time>2019-05-25T13:23:43Z</time>
      </trkpt>
      <trkpt lat="41.5130130" lon="-4.7571790">
        <ele>693.1</ele>
        <time>2019-05-25T13:23:44Z</time>
      </trkpt>
      <trkpt lat="41.5130580" lon="-4.7571910">
        <ele>693.1</ele>
        <time>2019-05-25T13:23:45Z</time>
      </trkpt>
      <trkpt lat="41.5131030" lon="-4.7572010">
        <ele>693.1</ele>
        <time>2019-05-25T13:23:46Z</time>
      </trkpt>
      <trkpt lat="41.5131510" lon="-4.7572090">
        <ele>693.0</ele>
        <time>2019-05-25T13:23:47Z</time>
      </trkpt>
      <trkpt lat="41.5132010" lon="-4.7572200">
        <ele>693.0</ele>
        <time>2019-05-25T13:23:48Z</time>
      </trkpt>
      <trkpt lat="41.5132520" lon="-4.7572250">
        <ele>692.9</ele>
        <time>2019-05-25T13:23:49Z</time>
      </trkpt>
      <trkpt lat="41.5133040" lon="-4.7572320">
        <ele>692.9</ele>
        <time>2019-05-25T13:23:50Z</time>
      </trkpt>
      <trkpt lat="41.5133580" lon="-4.7572390">
        <ele>692.8</ele>
        <time>2019-05-25T13:23:51Z</time>
      </trkpt>
      <trkpt lat="41.5134160" lon="-4.7572430">
        <ele>692.7</ele>
        <time>2019-05-25T13:23:52Z</time>
      </trkpt>
      <trkpt lat="41.5134690" lon="-4.7572430">
        <ele>692.7</ele>
        <time>2019-05-25T13:23:53Z</time>
      </trkpt>
      <trkpt lat="41.5135160" lon="-4.7572430">
        <ele>692.6</ele>
        <time>2019-05-25T13:23:54Z</time>
      </trkpt>
      <trkpt lat="41.5135640" lon="-4.7572410">
        <ele>692.5</ele>
        <time>2019-05-25T13:23:55Z</time>
      </trkpt>
      <trkpt lat="41.5136150" lon="-4.7572370">
        <ele>692.5</ele>
        <time>2019-05-25T13:23:56Z</time>
      </trkpt>
      <trkpt lat="41.5136670" lon="-4.7572370">
        <ele>692.4</ele>
        <time>2019-05-25T13:23:57Z</time>
      </trkpt>
      <trkpt lat="41.5137190" lon="-4.7572330">
        <ele>692.4</ele>
        <time>2019-05-25T13:23:58Z</time>
      </trkpt>
      <trkpt lat="41.5137690" lon="-4.7572340">
        <ele>692.3</ele>
        <time>2019-05-25T13:23:59Z</time>
      </trkpt>
      <trkpt lat="41.5138190" lon="-4.7572290">
        <ele>692.3</ele>
        <time>2019-05-25T13:24:00Z</time>
      </trkpt>
      <trkpt lat="41.5138700" lon="-4.7572250">
        <ele>692.3</ele>
        <time>2019-05-25T13:24:01Z</time>
      </trkpt>
      <trkpt lat="41.5139190" lon="-4.7572250">
        <ele>692.2</ele>
        <time>2019-05-25T13:24:02Z</time>
      </trkpt>
      <trkpt lat="41.5139670" lon="-4.7572140">
        <ele>692.2</ele>
        <time>2019-05-25T13:24:03Z</time>
      </trkpt>
      <trkpt lat="41.5140190" lon="-4.7572060">
        <ele>692.2</ele>
        <time>2019-05-25T13:24:04Z</time>
      </trkpt>
      <trkpt lat="41.5140720" lon="-4.7571950">
        <ele>692.2</ele>
        <time>2019-05-25T13:24:05Z</time>
      </trkpt>
      <trkpt lat="41.5141230" lon="-4.7571850">
        <ele>692.2</ele>
        <time>2019-05-25T13:24:06Z</time>
      </trkpt>
      <trkpt lat="41.5141750" lon="-4.7571760">
        <ele>692.2</ele>
        <time>2019-05-25T13:24:07Z</time>
      </trkpt>
      <trkpt lat="41.5141990" lon="-4.7571550">
        <ele>692.2</ele>
        <time>2019-05-25T13:24:08Z</time>
      </trkpt>
      <trkpt lat="41.5142250" lon="-4.7571440">
        <ele>692.2</ele>
        <time>2019-05-25T13:24:09Z</time>
      </trkpt>
      <trkpt lat="41.5142630" lon="-4.7570890">
        <ele>692.2</ele>
        <time>2019-05-25T13:24:10Z</time>
      </trkpt>
      <trkpt lat="41.5143080" lon="-4.7570630">
        <ele>692.2</ele>
        <time>2019-05-25T13:24:11Z</time>
      </trkpt>
      <trkpt lat="41.5143630" lon="-4.7570590">
        <ele>692.2</ele>
        <time>2019-05-25T13:24:12Z</time>
      </trkpt>
      <trkpt lat="41.5144000" lon="-4.7570290">
        <ele>692.2</ele>
        <time>2019-05-25T13:24:13Z</time>
      </trkpt>
      <trkpt lat="41.5144500" lon="-4.7570080">
        <ele>692.2</ele>
        <time>2019-05-25T13:24:14Z</time>
      </trkpt>
      <trkpt lat="41.5144980" lon="-4.7569940">
        <ele>692.2</ele>
        <time>2019-05-25T13:24:15Z</time>
      </trkpt>
      <trkpt lat="41.5145430" lon="-4.7569780">
        <ele>692.2</ele>
        <time>2019-05-25T13:24:16Z</time>
      </trkpt>
      <trkpt lat="41.5146000" lon="-4.7569780">
        <ele>692.2</ele>
        <time>2019-05-25T13:24:17Z</time>
      </trkpt>
      <trkpt lat="41.5146450" lon="-4.7569750">
        <ele>692.2</ele>
        <time>2019-05-25T13:24:18Z</time>
      </trkpt>
      <trkpt lat="41.5147020" lon="-4.7569760">
        <ele>692.2</ele>
        <time>2019-05-25T13:24:19Z</time>
      </trkpt>
      <trkpt lat="41.5147550" lon="-4.7569740">
        <ele>692.2</ele>
        <time>2019-05-25T13:24:20Z</time>
      </trkpt>
      <trkpt lat="41.5148050" lon="-4.7569640">
        <ele>692.2</ele>
        <time>2019-05-25T13:24:21Z</time>
      </trkpt>
      <trkpt lat="41.5148510" lon="-4.7569590">
        <ele>692.2</ele>
        <time>2019-05-25T13:24:22Z</time>
      </trkpt>
      <trkpt lat="41.5148980" lon="-4.7569520">
        <ele>692.2</ele>
        <time>2019-05-25T13:24:23Z</time>
      </trkpt>
      <trkpt lat="41.5149400" lon="-4.7569530">
        <ele>692.2</ele>
        <time>2019-05-25T13:24:24Z</time>
      </trkpt>
      <trkpt lat="41.5149820" lon="-4.7569510">
        <ele>692.2</ele>
        <time>2019-05-25T13:24:25Z</time>
      </trkpt>
      <trkpt lat="41.5150370" lon="-4.7569480">
        <ele>692.2</ele>
        <time>2019-05-25T13:24:26Z</time>
      </trkpt>
      <trkpt lat="41.5150840" lon="-4.7569530">
        <ele>692.2</ele>
        <time>2019-05-25T13:24:27Z</time>
      </trkpt>
      <trkpt lat="41.5151320" lon="-4.7569410">
        <ele>692.2</ele>
        <time>2019-05-25T13:24:28Z</time>
      </trkpt>
      <trkpt lat="41.5151780" lon="-4.7569270">
        <ele>692.2</ele>
        <time>2019-05-25T13:24:29Z</time>
      </trkpt>
      <trkpt lat="41.5152290" lon="-4.7569190">
        <ele>692.2</ele>
        <time>2019-05-25T13:24:30Z</time>
      </trkpt>
      <trkpt lat="41.5152740" lon="-4.7569140">
        <ele>692.2</ele>
        <time>2019-05-25T13:24:31Z</time>
      </trkpt>
      <trkpt lat="41.5153200" lon="-4.7569010">
        <ele>692.2</ele>
        <time>2019-05-25T13:24:32Z</time>
      </trkpt>
      <trkpt lat="41.5153700" lon="-4.7568980">
        <ele>692.2</ele>
        <time>2019-05-25T13:24:33Z</time>
      </trkpt>
      <trkpt lat="41.5154170" lon="-4.7568890">
        <ele>692.2</ele>
        <time>2019-05-25T13:24:34Z</time>
      </trkpt>
      <trkpt lat="41.5154700" lon="-4.7568710">
        <ele>692.2</ele>
        <time>2019-05-25T13:24:35Z</time>
      </trkpt>
      <trkpt lat="41.5155210" lon="-4.7568630">
        <ele>692.2</ele>
        <time>2019-05-25T13:24:36Z</time>
      </trkpt>
      <trkpt lat="41.5155730" lon="-4.7568570">
        <ele>692.2</ele>
        <time>2019-05-25T13:24:37Z</time>
      </trkpt>
      <trkpt lat="41.5156220" lon="-4.7568340">
        <ele>692.3</ele>
        <time>2019-05-25T13:24:38Z</time>
      </trkpt>
      <trkpt lat="41.5156620" lon="-4.7568040">
        <ele>692.3</ele>
        <time>2019-05-25T13:24:39Z</time>
      </trkpt>
      <trkpt lat="41.5157030" lon="-4.7567830">
        <ele>692.3</ele>
        <time>2019-05-25T13:24:40Z</time>
      </trkpt>
      <trkpt lat="41.5157470" lon="-4.7567640">
        <ele>692.3</ele>
        <time>2019-05-25T13:24:41Z</time>
      </trkpt>
      <trkpt lat="41.5157960" lon="-4.7567550">
        <ele>692.3</ele>
        <time>2019-05-25T13:24:42Z</time>
      </trkpt>
      <trkpt lat="41.5158440" lon="-4.7567340">
        <ele>692.3</ele>
        <time>2019-05-25T13:24:43Z</time>
      </trkpt>
      <trkpt lat="41.5158890" lon="-4.7567120">
        <ele>692.3</ele>
        <time>2019-05-25T13:24:44Z</time>
      </trkpt>
      <trkpt lat="41.5159320" lon="-4.7566980">
        <ele>692.4</ele>
        <time>2019-05-25T13:24:45Z</time>
      </trkpt>
      <trkpt lat="41.5159770" lon="-4.7566780">
        <ele>692.4</ele>
        <time>2019-05-25T13:24:46Z</time>
      </trkpt>
      <trkpt lat="41.5160110" lon="-4.7566630">
        <ele>692.4</ele>
        <time>2019-05-25T13:24:47Z</time>
      </trkpt>
      <trkpt lat="41.5160860" lon="-4.7566290">
        <ele>692.4</ele>
        <time>2019-05-25T13:24:48Z</time>
      </trkpt>
      <trkpt lat="41.5161360" lon="-4.7565880">
        <ele>692.4</ele>
        <time>2019-05-25T13:24:51Z</time>
      </trkpt>
      <trkpt lat="41.5161770" lon="-4.7565630">
        <ele>692.4</ele>
        <time>2019-05-25T13:24:52Z</time>
      </trkpt>
      <trkpt lat="41.5162210" lon="-4.7565290">
        <ele>692.4</ele>
        <time>2019-05-25T13:24:53Z</time>
      </trkpt>
      <trkpt lat="41.5162680" lon="-4.7564910">
        <ele>692.4</ele>
        <time>2019-05-25T13:24:54Z</time>
      </trkpt>
      <trkpt lat="41.5163160" lon="-4.7564560">
        <ele>692.4</ele>
        <time>2019-05-25T13:24:55Z</time>
      </trkpt>
      <trkpt lat="41.5163630" lon="-4.7564270">
        <ele>692.4</ele>
        <time>2019-05-25T13:24:56Z</time>
      </trkpt>
      <trkpt lat="41.5164080" lon="-4.7564010">
        <ele>692.4</ele>
        <time>2019-05-25T13:24:57Z</time>
      </trkpt>
      <trkpt lat="41.5164530" lon="-4.7563770">
        <ele>692.4</ele>
        <time>2019-05-25T13:24:58Z</time>
      </trkpt>
      <trkpt lat="41.5164960" lon="-4.7563530">
        <ele>692.4</ele>
        <time>2019-05-25T13:24:59Z</time>
      </trkpt>
      <trkpt lat="41.5165390" lon="-4.7563290">
        <ele>692.4</ele>
        <time>2019-05-25T13:25:00Z</time>
      </trkpt>
      <trkpt lat="41.5165670" lon="-4.7563090">
        <ele>692.4</ele>
        <time>2019-05-25T13:25:01Z</time>
      </trkpt>
      <trkpt lat="41.5166170" lon="-4.7562640">
        <ele>692.4</ele>
        <time>2019-05-25T13:25:03Z</time>
      </trkpt>
      <trkpt lat="41.5166570" lon="-4.7562370">
        <ele>692.4</ele>
        <time>2019-05-25T13:25:04Z</time>
      </trkpt>
      <trkpt lat="41.5167000" lon="-4.7562110">
        <ele>692.4</ele>
        <time>2019-05-25T13:25:05Z</time>
      </trkpt>
      <trkpt lat="41.5167450" lon="-4.7561910">
        <ele>692.4</ele>
        <time>2019-05-25T13:25:06Z</time>
      </trkpt>
      <trkpt lat="41.5167930" lon="-4.7561640">
        <ele>692.4</ele>
        <time>2019-05-25T13:25:07Z</time>
      </trkpt>
      <trkpt lat="41.5168420" lon="-4.7561340">
        <ele>692.4</ele>
        <time>2019-05-25T13:25:08Z</time>
      </trkpt>
      <trkpt lat="41.5168890" lon="-4.7561040">
        <ele>692.4</ele>
        <time>2019-05-25T13:25:09Z</time>
      </trkpt>
      <trkpt lat="41.5169360" lon="-4.7560720">
        <ele>692.5</ele>
        <time>2019-05-25T13:25:10Z</time>
      </trkpt>
      <trkpt lat="41.5169840" lon="-4.7560400">
        <ele>692.5</ele>
        <time>2019-05-25T13:25:11Z</time>
      </trkpt>
      <trkpt lat="41.5170350" lon="-4.7560030">
        <ele>692.5</ele>
        <time>2019-05-25T13:25:12Z</time>
      </trkpt>
      <trkpt lat="41.5170860" lon="-4.7559660">
        <ele>692.6</ele>
        <time>2019-05-25T13:25:13Z</time>
      </trkpt>
      <trkpt lat="41.5171330" lon="-4.7559300">
        <ele>692.6</ele>
        <time>2019-05-25T13:25:14Z</time>
      </trkpt>
      <trkpt lat="41.5171800" lon="-4.7558960">
        <ele>692.7</ele>
        <time>2019-05-25T13:25:15Z</time>
      </trkpt>
      <trkpt lat="41.5172620" lon="-4.7558240">
        <ele>692.8</ele>
        <time>2019-05-25T13:25:16Z</time>
      </trkpt>
      <trkpt lat="41.5173140" lon="-4.7558040">
        <ele>692.9</ele>
        <time>2019-05-25T13:25:17Z</time>
      </trkpt>
      <trkpt lat="41.5173490" lon="-4.7557730">
        <ele>693.0</ele>
        <time>2019-05-25T13:25:18Z</time>
      </trkpt>
      <trkpt lat="41.5173910" lon="-4.7557490">
        <ele>693.1</ele>
        <time>2019-05-25T13:25:19Z</time>
      </trkpt>
      <trkpt lat="41.5174220" lon="-4.7557170">
        <ele>693.3</ele>
        <time>2019-05-25T13:25:20Z</time>
      </trkpt>
      <trkpt lat="41.5174540" lon="-4.7556910">
        <ele>693.5</ele>
        <time>2019-05-25T13:25:21Z</time>
      </trkpt>
      <trkpt lat="41.5174870" lon="-4.7556600">
        <ele>693.6</ele>
        <time>2019-05-25T13:25:22Z</time>
      </trkpt>
      <trkpt lat="41.5175130" lon="-4.7556300">
        <ele>693.8</ele>
        <time>2019-05-25T13:25:23Z</time>
      </trkpt>
      <trkpt lat="41.5175390" lon="-4.7555970">
        <ele>694.0</ele>
        <time>2019-05-25T13:25:24Z</time>
      </trkpt>
      <trkpt lat="41.5175670" lon="-4.7555690">
        <ele>694.2</ele>
        <time>2019-05-25T13:25:25Z</time>
      </trkpt>
      <trkpt lat="41.5175980" lon="-4.7555510">
        <ele>694.3</ele>
        <time>2019-05-25T13:25:26Z</time>
      </trkpt>
      <trkpt lat="41.5176300" lon="-4.7555310">
        <ele>694.5</ele>
        <time>2019-05-25T13:25:27Z</time>
      </trkpt>
      <trkpt lat="41.5176590" lon="-4.7555070">
        <ele>694.6</ele>
        <time>2019-05-25T13:25:28Z</time>
      </trkpt>
      <trkpt lat="41.5176890" lon="-4.7554860">
        <ele>694.8</ele>
        <time>2019-05-25T13:25:29Z</time>
      </trkpt>
      <trkpt lat="41.5177190" lon="-4.7554710">
        <ele>694.9</ele>
        <time>2019-05-25T13:25:30Z</time>
      </trkpt>
      <trkpt lat="41.5177490" lon="-4.7554610">
        <ele>695.0</ele>
        <time>2019-05-25T13:25:31Z</time>
      </trkpt>
      <trkpt lat="41.5177810" lon="-4.7554580">
        <ele>695.0</ele>
        <time>2019-05-25T13:25:32Z</time>
      </trkpt>
      <trkpt lat="41.5178130" lon="-4.7554580">
        <ele>695.1</ele>
        <time>2019-05-25T13:25:33Z</time>
      </trkpt>
      <trkpt lat="41.5178450" lon="-4.7554590">
        <ele>695.2</ele>
        <time>2019-05-25T13:25:34Z</time>
      </trkpt>
      <trkpt lat="41.5179010" lon="-4.7554670">
        <ele>695.2</ele>
        <time>2019-05-25T13:25:36Z</time>
      </trkpt>
      <trkpt lat="41.5179540" lon="-4.7554840">
        <ele>695.3</ele>
        <time>2019-05-25T13:25:37Z</time>
      </trkpt>
      <trkpt lat="41.5179960" lon="-4.7555000">
        <ele>695.4</ele>
        <time>2019-05-25T13:25:38Z</time>
      </trkpt>
      <trkpt lat="41.5180300" lon="-4.7555150">
        <ele>695.4</ele>
        <time>2019-05-25T13:25:39Z</time>
      </trkpt>
      <trkpt lat="41.5180600" lon="-4.7555270">
        <ele>695.4</ele>
        <time>2019-05-25T13:25:40Z</time>
      </trkpt>
      <trkpt lat="41.5180910" lon="-4.7555390">
        <ele>695.4</ele>
        <time>2019-05-25T13:25:41Z</time>
      </trkpt>
      <trkpt lat="41.5181270" lon="-4.7555530">
        <ele>695.4</ele>
        <time>2019-05-25T13:25:42Z</time>
      </trkpt>
      <trkpt lat="41.5181580" lon="-4.7555670">
        <ele>695.5</ele>
        <time>2019-05-25T13:25:43Z</time>
      </trkpt>
      <trkpt lat="41.5181910" lon="-4.7555800">
        <ele>695.5</ele>
        <time>2019-05-25T13:25:44Z</time>
      </trkpt>
      <trkpt lat="41.5182210" lon="-4.7555890">
        <ele>695.5</ele>
        <time>2019-05-25T13:25:45Z</time>
      </trkpt>
      <trkpt lat="41.5182510" lon="-4.7555960">
        <ele>695.5</ele>
        <time>2019-05-25T13:25:46Z</time>
      </trkpt>
      <trkpt lat="41.5182780" lon="-4.7556060">
        <ele>695.5</ele>
        <time>2019-05-25T13:25:47Z</time>
      </trkpt>
      <trkpt lat="41.5182960" lon="-4.7556370">
        <ele>695.5</ele>
        <time>2019-05-25T13:25:51Z</time>
      </trkpt>
      <trkpt lat="41.5182830" lon="-4.7556020">
        <ele>695.4</ele>
        <time>2019-05-25T13:26:25Z</time>
      </trkpt>
      <trkpt lat="41.5182450" lon="-4.7555870">
        <ele>695.4</ele>
        <time>2019-05-25T13:26:28Z</time>
      </trkpt>
      <trkpt lat="41.5181890" lon="-4.7555720">
        <ele>695.4</ele>
        <time>2019-05-25T13:26:31Z</time>
      </trkpt>
      <trkpt lat="41.5181000" lon="-4.7555600">
        <ele>695.4</ele>
        <time>2019-05-25T13:26:32Z</time>
      </trkpt>
      <trkpt lat="41.5179890" lon="-4.7554990">
        <ele>695.3</ele>
        <time>2019-05-25T13:26:33Z</time>
      </trkpt>
      <trkpt lat="41.5179450" lon="-4.7555020">
        <ele>695.3</ele>
        <time>2019-05-25T13:26:34Z</time>
      </trkpt>
      <trkpt lat="41.5179090" lon="-4.7554830">
        <ele>695.2</ele>
        <time>2019-05-25T13:26:35Z</time>
      </trkpt>
      <trkpt lat="41.5178580" lon="-4.7554830">
        <ele>695.2</ele>
        <time>2019-05-25T13:26:36Z</time>
      </trkpt>
      <trkpt lat="41.5178170" lon="-4.7554770">
        <ele>695.1</ele>
        <time>2019-05-25T13:26:37Z</time>
      </trkpt>
      <trkpt lat="41.5177840" lon="-4.7554510">
        <ele>695.1</ele>
        <time>2019-05-25T13:26:38Z</time>
      </trkpt>
      <trkpt lat="41.5177690" lon="-4.7554110">
        <ele>695.0</ele>
        <time>2019-05-25T13:26:39Z</time>
      </trkpt>
      <trkpt lat="41.5177570" lon="-4.7553610">
        <ele>694.5</ele>
        <time>2019-05-25T13:26:40Z</time>
      </trkpt>
      <trkpt lat="41.5177600" lon="-4.7553210">
        <ele>694.4</ele>
        <time>2019-05-25T13:26:41Z</time>
      </trkpt>
      <trkpt lat="41.5177810" lon="-4.7552780">
        <ele>694.4</ele>
        <time>2019-05-25T13:26:43Z</time>
      </trkpt>
      <trkpt lat="41.5177950" lon="-4.7552430">
        <ele>694.3</ele>
        <time>2019-05-25T13:26:45Z</time>
      </trkpt>
      <trkpt lat="41.5178410" lon="-4.7551750">
        <ele>694.1</ele>
        <time>2019-05-25T13:26:47Z</time>
      </trkpt>
      <trkpt lat="41.5179610" lon="-4.7551010">
        <ele>693.9</ele>
        <time>2019-05-25T13:26:48Z</time>
      </trkpt>
      <trkpt lat="41.5179980" lon="-4.7550820">
        <ele>693.8</ele>
        <time>2019-05-25T13:26:49Z</time>
      </trkpt>
      <trkpt lat="41.5180300" lon="-4.7550560">
        <ele>693.8</ele>
        <time>2019-05-25T13:26:50Z</time>
      </trkpt>
      <trkpt lat="41.5180680" lon="-4.7550240">
        <ele>693.7</ele>
        <time>2019-05-25T13:26:51Z</time>
      </trkpt>
      <trkpt lat="41.5180970" lon="-4.7550070">
        <ele>693.7</ele>
        <time>2019-05-25T13:26:52Z</time>
      </trkpt>
      <trkpt lat="41.5181320" lon="-4.7549820">
        <ele>693.6</ele>
        <time>2019-05-25T13:26:53Z</time>
      </trkpt>
      <trkpt lat="41.5181680" lon="-4.7549500">
        <ele>693.6</ele>
        <time>2019-05-25T13:26:54Z</time>
      </trkpt>
      <trkpt lat="41.5182020" lon="-4.7549220">
        <ele>693.5</ele>
        <time>2019-05-25T13:26:55Z</time>
      </trkpt>
      <trkpt lat="41.5182330" lon="-4.7548970">
        <ele>693.5</ele>
        <time>2019-05-25T13:26:56Z</time>
      </trkpt>
      <trkpt lat="41.5182680" lon="-4.7548740">
        <ele>693.4</ele>
        <time>2019-05-25T13:26:57Z</time>
      </trkpt>
      <trkpt lat="41.5183130" lon="-4.7548470">
        <ele>693.4</ele>
        <time>2019-05-25T13:26:58Z</time>
      </trkpt>
      <trkpt lat="41.5183560" lon="-4.7548140">
        <ele>693.3</ele>
        <time>2019-05-25T13:26:59Z</time>
      </trkpt>
      <trkpt lat="41.5183910" lon="-4.7547720">
        <ele>693.3</ele>
        <time>2019-05-25T13:27:00Z</time>
      </trkpt>
      <trkpt lat="41.5184140" lon="-4.7547210">
        <ele>693.2</ele>
        <time>2019-05-25T13:27:01Z</time>
      </trkpt>
      <trkpt lat="41.5184240" lon="-4.7546600">
        <ele>693.2</ele>
        <time>2019-05-25T13:27:02Z</time>
      </trkpt>
      <trkpt lat="41.5184300" lon="-4.7546000">
        <ele>693.2</ele>
        <time>2019-05-25T13:27:03Z</time>
      </trkpt>
      <trkpt lat="41.5184250" lon="-4.7545370">
        <ele>693.2</ele>
        <time>2019-05-25T13:27:04Z</time>
      </trkpt>
      <trkpt lat="41.5184200" lon="-4.7544820">
        <ele>693.2</ele>
        <time>2019-05-25T13:27:05Z</time>
      </trkpt>
      <trkpt lat="41.5184190" lon="-4.7544280">
        <ele>693.2</ele>
        <time>2019-05-25T13:27:06Z</time>
      </trkpt>
      <trkpt lat="41.5184200" lon="-4.7543830">
        <ele>693.2</ele>
        <time>2019-05-25T13:27:07Z</time>
      </trkpt>
      <trkpt lat="41.5184270" lon="-4.7543350">
        <ele>693.2</ele>
        <time>2019-05-25T13:27:08Z</time>
      </trkpt>
      <trkpt lat="41.5184380" lon="-4.7542930">
        <ele>693.2</ele>
        <time>2019-05-25T13:27:09Z</time>
      </trkpt>
      <trkpt lat="41.5184620" lon="-4.7542620">
        <ele>693.2</ele>
        <time>2019-05-25T13:27:10Z</time>
      </trkpt>
      <trkpt lat="41.5184920" lon="-4.7542510">
        <ele>693.2</ele>
        <time>2019-05-25T13:27:11Z</time>
      </trkpt>
      <trkpt lat="41.5185290" lon="-4.7542540">
        <ele>693.3</ele>
        <time>2019-05-25T13:27:12Z</time>
      </trkpt>
      <trkpt lat="41.5185680" lon="-4.7542660">
        <ele>693.3</ele>
        <time>2019-05-25T13:27:13Z</time>
      </trkpt>
      <trkpt lat="41.5186030" lon="-4.7542800">
        <ele>693.3</ele>
        <time>2019-05-25T13:27:14Z</time>
      </trkpt>
      <trkpt lat="41.5186350" lon="-4.7542940">
        <ele>693.4</ele>
        <time>2019-05-25T13:27:15Z</time>
      </trkpt>
      <trkpt lat="41.5186670" lon="-4.7543070">
        <ele>693.4</ele>
        <time>2019-05-25T13:27:16Z</time>
      </trkpt>
      <trkpt lat="41.5186980" lon="-4.7543190">
        <ele>693.5</ele>
        <time>2019-05-25T13:27:17Z</time>
      </trkpt>
      <trkpt lat="41.5187300" lon="-4.7543320">
        <ele>693.5</ele>
        <time>2019-05-25T13:27:18Z</time>
      </trkpt>
      <trkpt lat="41.5187610" lon="-4.7543390">
        <ele>693.6</ele>
        <time>2019-05-25T13:27:19Z</time>
      </trkpt>
      <trkpt lat="41.5188020" lon="-4.7543440">
        <ele>693.6</ele>
        <time>2019-05-25T13:27:20Z</time>
      </trkpt>
      <trkpt lat="41.5188460" lon="-4.7543460">
        <ele>693.7</ele>
        <time>2019-05-25T13:27:21Z</time>
      </trkpt>
      <trkpt lat="41.5188820" lon="-4.7543480">
        <ele>693.7</ele>
        <time>2019-05-25T13:27:22Z</time>
      </trkpt>
      <trkpt lat="41.5189100" lon="-4.7543510">
        <ele>693.8</ele>
        <time>2019-05-25T13:27:23Z</time>
      </trkpt>
      <trkpt lat="41.5189410" lon="-4.7543520">
        <ele>693.8</ele>
        <time>2019-05-25T13:27:24Z</time>
      </trkpt>
      <trkpt lat="41.5189770" lon="-4.7543550">
        <ele>693.9</ele>
        <time>2019-05-25T13:27:25Z</time>
      </trkpt>
      <trkpt lat="41.5190120" lon="-4.7543600">
        <ele>694.0</ele>
        <time>2019-05-25T13:27:26Z</time>
      </trkpt>
      <trkpt lat="41.5190460" lon="-4.7543630">
        <ele>694.0</ele>
        <time>2019-05-25T13:27:27Z</time>
      </trkpt>
      <trkpt lat="41.5190790" lon="-4.7543710">
        <ele>694.1</ele>
        <time>2019-05-25T13:27:28Z</time>
      </trkpt>
      <trkpt lat="41.5191230" lon="-4.7543850">
        <ele>694.2</ele>
        <time>2019-05-25T13:27:30Z</time>
      </trkpt>
      <trkpt lat="41.5191640" lon="-4.7543910">
        <ele>694.3</ele>
        <time>2019-05-25T13:27:31Z</time>
      </trkpt>
      <trkpt lat="41.5191950" lon="-4.7543990">
        <ele>694.4</ele>
        <time>2019-05-25T13:27:32Z</time>
      </trkpt>
      <trkpt lat="41.5192500" lon="-4.7544170">
        <ele>694.5</ele>
        <time>2019-05-25T13:27:34Z</time>
      </trkpt>
      <trkpt lat="41.5192910" lon="-4.7544250">
        <ele>694.6</ele>
        <time>2019-05-25T13:27:35Z</time>
      </trkpt>
      <trkpt lat="41.5193220" lon="-4.7544240">
        <ele>694.7</ele>
        <time>2019-05-25T13:27:36Z</time>
      </trkpt>
      <trkpt lat="41.5193620" lon="-4.7544280">
        <ele>694.8</ele>
        <time>2019-05-25T13:27:37Z</time>
      </trkpt>
      <trkpt lat="41.5194040" lon="-4.7544380">
        <ele>694.9</ele>
        <time>2019-05-25T13:27:38Z</time>
      </trkpt>
      <trkpt lat="41.5194420" lon="-4.7544390">
        <ele>694.9</ele>
        <time>2019-05-25T13:27:39Z</time>
      </trkpt>
      <trkpt lat="41.5194720" lon="-4.7544410">
        <ele>695.0</ele>
        <time>2019-05-25T13:27:40Z</time>
      </trkpt>
      <trkpt lat="41.5195130" lon="-4.7544430">
        <ele>695.1</ele>
        <time>2019-05-25T13:27:42Z</time>
      </trkpt>
      <trkpt lat="41.5195460" lon="-4.7544490">
        <ele>695.2</ele>
        <time>2019-05-25T13:27:43Z</time>
      </trkpt>
      <trkpt lat="41.5195890" lon="-4.7544570">
        <ele>695.3</ele>
        <time>2019-05-25T13:27:44Z</time>
      </trkpt>
      <trkpt lat="41.5196340" lon="-4.7544670">
        <ele>695.4</ele>
        <time>2019-05-25T13:27:45Z</time>
      </trkpt>
      <trkpt lat="41.5196750" lon="-4.7544770">
        <ele>695.4</ele>
        <time>2019-05-25T13:27:46Z</time>
      </trkpt>
      <trkpt lat="41.5197120" lon="-4.7544880">
        <ele>695.5</ele>
        <time>2019-05-25T13:27:47Z</time>
      </trkpt>
      <trkpt lat="41.5197470" lon="-4.7545000">
        <ele>695.6</ele>
        <time>2019-05-25T13:27:48Z</time>
      </trkpt>
      <trkpt lat="41.5197830" lon="-4.7545080">
        <ele>695.6</ele>
        <time>2019-05-25T13:27:49Z</time>
      </trkpt>
      <trkpt lat="41.5198240" lon="-4.7545150">
        <ele>695.7</ele>
        <time>2019-05-25T13:27:50Z</time>
      </trkpt>
      <trkpt lat="41.5198710" lon="-4.7545180">
        <ele>695.8</ele>
        <time>2019-05-25T13:27:51Z</time>
      </trkpt>
      <trkpt lat="41.5199090" lon="-4.7545180">
        <ele>695.8</ele>
        <time>2019-05-25T13:27:52Z</time>
      </trkpt>
      <trkpt lat="41.5199590" lon="-4.7545230">
        <ele>695.8</ele>
        <time>2019-05-25T13:27:54Z</time>
      </trkpt>
      <trkpt lat="41.5199900" lon="-4.7545240">
        <ele>695.9</ele>
        <time>2019-05-25T13:27:55Z</time>
      </trkpt>
      <trkpt lat="41.5200220" lon="-4.7545270">
        <ele>695.9</ele>
        <time>2019-05-25T13:27:56Z</time>
      </trkpt>
      <trkpt lat="41.5200560" lon="-4.7545290">
        <ele>695.9</ele>
        <time>2019-05-25T13:27:57Z</time>
      </trkpt>
      <trkpt lat="41.5200840" lon="-4.7545150">
        <ele>695.9</ele>
        <time>2019-05-25T13:27:58Z</time>
      </trkpt>
      <trkpt lat="41.5201180" lon="-4.7545180">
        <ele>696.0</ele>
        <time>2019-05-25T13:27:59Z</time>
      </trkpt>
      <trkpt lat="41.5201520" lon="-4.7545230">
        <ele>696.0</ele>
        <time>2019-05-25T13:28:00Z</time>
      </trkpt>
      <trkpt lat="41.5201880" lon="-4.7545220">
        <ele>696.0</ele>
        <time>2019-05-25T13:28:01Z</time>
      </trkpt>
      <trkpt lat="41.5202270" lon="-4.7545240">
        <ele>696.0</ele>
        <time>2019-05-25T13:28:02Z</time>
      </trkpt>
      <trkpt lat="41.5202560" lon="-4.7545270">
        <ele>696.0</ele>
        <time>2019-05-25T13:28:03Z</time>
      </trkpt>
      <trkpt lat="41.5203090" lon="-4.7545300">
        <ele>696.0</ele>
        <time>2019-05-25T13:28:05Z</time>
      </trkpt>
      <trkpt lat="41.5203570" lon="-4.7545360">
        <ele>696.0</ele>
        <time>2019-05-25T13:28:06Z</time>
      </trkpt>
      <trkpt lat="41.5204020" lon="-4.7545370">
        <ele>696.0</ele>
        <time>2019-05-25T13:28:07Z</time>
      </trkpt>
      <trkpt lat="41.5204340" lon="-4.7545350">
        <ele>696.0</ele>
        <time>2019-05-25T13:28:08Z</time>
      </trkpt>
      <trkpt lat="41.5204790" lon="-4.7545250">
        <ele>696.0</ele>
        <time>2019-05-25T13:28:09Z</time>
      </trkpt>
      <trkpt lat="41.5205300" lon="-4.7545210">
        <ele>695.9</ele>
        <time>2019-05-25T13:28:10Z</time>
      </trkpt>
      <trkpt lat="41.5205860" lon="-4.7545270">
        <ele>695.9</ele>
        <time>2019-05-25T13:28:11Z</time>
      </trkpt>
      <trkpt lat="41.5206400" lon="-4.7545350">
        <ele>695.9</ele>
        <time>2019-05-25T13:28:12Z</time>
      </trkpt>
      <trkpt lat="41.5206950" lon="-4.7545430">
        <ele>695.8</ele>
        <time>2019-05-25T13:28:13Z</time>
      </trkpt>
      <trkpt lat="41.5207520" lon="-4.7545540">
        <ele>695.8</ele>
        <time>2019-05-25T13:28:14Z</time>
      </trkpt>
      <trkpt lat="41.5208060" lon="-4.7545650">
        <ele>695.7</ele>
        <time>2019-05-25T13:28:15Z</time>
      </trkpt>
      <trkpt lat="41.5208410" lon="-4.7545700">
        <ele>695.7</ele>
        <time>2019-05-25T13:28:16Z</time>
      </trkpt>
      <trkpt lat="41.5208750" lon="-4.7545770">
        <ele>695.6</ele>
        <time>2019-05-25T13:28:17Z</time>
      </trkpt>
      <trkpt lat="41.5209190" lon="-4.7545860">
        <ele>695.5</ele>
        <time>2019-05-25T13:28:18Z</time>
      </trkpt>
      <trkpt lat="41.5209680" lon="-4.7545940">
        <ele>695.5</ele>
        <time>2019-05-25T13:28:19Z</time>
      </trkpt>
      <trkpt lat="41.5210520" lon="-4.7546200">
        <ele>695.3</ele>
        <time>2019-05-25T13:28:20Z</time>
      </trkpt>
      <trkpt lat="41.5210960" lon="-4.7546240">
        <ele>695.2</ele>
        <time>2019-05-25T13:28:21Z</time>
      </trkpt>
      <trkpt lat="41.5211550" lon="-4.7546270">
        <ele>695.1</ele>
        <time>2019-05-25T13:28:22Z</time>
      </trkpt>
      <trkpt lat="41.5211930" lon="-4.7546310">
        <ele>695.0</ele>
        <time>2019-05-25T13:28:23Z</time>
      </trkpt>
      <trkpt lat="41.5212390" lon="-4.7546410">
        <ele>694.8</ele>
        <time>2019-05-25T13:28:24Z</time>
      </trkpt>
      <trkpt lat="41.5212900" lon="-4.7546520">
        <ele>694.7</ele>
        <time>2019-05-25T13:28:25Z</time>
      </trkpt>
      <trkpt lat="41.5213200" lon="-4.7546540">
        <ele>694.6</ele>
        <time>2019-05-25T13:28:26Z</time>
      </trkpt>
      <trkpt lat="41.5213870" lon="-4.7546580">
        <ele>694.5</ele>
        <time>2019-05-25T13:28:28Z</time>
      </trkpt>
      <trkpt lat="41.5214650" lon="-4.7546630">
        <ele>694.3</ele>
        <time>2019-05-25T13:28:29Z</time>
      </trkpt>
      <trkpt lat="41.5215270" lon="-4.7546680">
        <ele>694.1</ele>
        <time>2019-05-25T13:28:30Z</time>
      </trkpt>
      <trkpt lat="41.5216130" lon="-4.7546830">
        <ele>693.9</ele>
        <time>2019-05-25T13:28:31Z</time>
      </trkpt>
      <trkpt lat="41.5216400" lon="-4.7546880">
        <ele>693.8</ele>
        <time>2019-05-25T13:28:32Z</time>
      </trkpt>
      <trkpt lat="41.5216940" lon="-4.7546980">
        <ele>693.7</ele>
        <time>2019-05-25T13:28:33Z</time>
      </trkpt>
      <trkpt lat="41.5217440" lon="-4.7547110">
        <ele>693.6</ele>
        <time>2019-05-25T13:28:34Z</time>
      </trkpt>
      <trkpt lat="41.5217950" lon="-4.7547200">
        <ele>693.5</ele>
        <time>2019-05-25T13:28:35Z</time>
      </trkpt>
      <trkpt lat="41.5218330" lon="-4.7547440">
        <ele>693.4</ele>
        <time>2019-05-25T13:28:36Z</time>
      </trkpt>
      <trkpt lat="41.5218690" lon="-4.7547540">
        <ele>693.4</ele>
        <time>2019-05-25T13:28:37Z</time>
      </trkpt>
      <trkpt lat="41.5219010" lon="-4.7547720">
        <ele>693.4</ele>
        <time>2019-05-25T13:28:38Z</time>
      </trkpt>
      <trkpt lat="41.5219430" lon="-4.7547810">
        <ele>693.3</ele>
        <time>2019-05-25T13:28:40Z</time>
      </trkpt>
      <trkpt lat="41.5219910" lon="-4.7547890">
        <ele>693.3</ele>
        <time>2019-05-25T13:28:41Z</time>
      </trkpt>
      <trkpt lat="41.5220600" lon="-4.7547970">
        <ele>693.2</ele>
        <time>2019-05-25T13:28:42Z</time>
      </trkpt>
      <trkpt lat="41.5221060" lon="-4.7548030">
        <ele>693.1</ele>
        <time>2019-05-25T13:28:43Z</time>
      </trkpt>
      <trkpt lat="41.5221480" lon="-4.7548090">
        <ele>693.1</ele>
        <time>2019-05-25T13:28:44Z</time>
      </trkpt>
      <trkpt lat="41.5222030" lon="-4.7548200">
        <ele>693.1</ele>
        <time>2019-05-25T13:28:45Z</time>
      </trkpt>
      <trkpt lat="41.5222530" lon="-4.7548350">
        <ele>693.0</ele>
        <time>2019-05-25T13:28:46Z</time>
      </trkpt>
      <trkpt lat="41.5223030" lon="-4.7548550">
        <ele>693.0</ele>
        <time>2019-05-25T13:28:47Z</time>
      </trkpt>
      <trkpt lat="41.5223500" lon="-4.7548780">
        <ele>692.9</ele>
        <time>2019-05-25T13:28:48Z</time>
      </trkpt>
      <trkpt lat="41.5224110" lon="-4.7549260">
        <ele>692.8</ele>
        <time>2019-05-25T13:28:49Z</time>
      </trkpt>
      <trkpt lat="41.5224580" lon="-4.7549490">
        <ele>692.8</ele>
        <time>2019-05-25T13:28:50Z</time>
      </trkpt>
      <trkpt lat="41.5225080" lon="-4.7549560">
        <ele>692.7</ele>
        <time>2019-05-25T13:28:51Z</time>
      </trkpt>
      <trkpt lat="41.5225510" lon="-4.7549740">
        <ele>692.7</ele>
        <time>2019-05-25T13:28:52Z</time>
      </trkpt>
      <trkpt lat="41.5225950" lon="-4.7549910">
        <ele>692.6</ele>
        <time>2019-05-25T13:28:53Z</time>
      </trkpt>
      <trkpt lat="41.5226360" lon="-4.7550210">
        <ele>692.5</ele>
        <time>2019-05-25T13:28:54Z</time>
      </trkpt>
      <trkpt lat="41.5226660" lon="-4.7550310">
        <ele>692.5</ele>
        <time>2019-05-25T13:28:55Z</time>
      </trkpt>
      <trkpt lat="41.5227080" lon="-4.7550450">
        <ele>692.4</ele>
        <time>2019-05-25T13:28:57Z</time>
      </trkpt>
      <trkpt lat="41.5227450" lon="-4.7550620">
        <ele>692.3</ele>
        <time>2019-05-25T13:28:58Z</time>
      </trkpt>
      <trkpt lat="41.5227710" lon="-4.7550750">
        <ele>692.3</ele>
        <time>2019-05-25T13:28:59Z</time>
      </trkpt>
      <trkpt lat="41.5228280" lon="-4.7551030">
        <ele>692.2</ele>
        <time>2019-05-25T13:29:00Z</time>
      </trkpt>
      <trkpt lat="41.5228960" lon="-4.7551300">
        <ele>692.0</ele>
        <time>2019-05-25T13:29:01Z</time>
      </trkpt>
      <trkpt lat="41.5229430" lon="-4.7551350">
        <ele>692.0</ele>
        <time>2019-05-25T13:29:02Z</time>
      </trkpt>
      <trkpt lat="41.5229830" lon="-4.7551280">
        <ele>692.0</ele>
        <time>2019-05-25T13:29:03Z</time>
      </trkpt>
      <trkpt lat="41.5230250" lon="-4.7551440">
        <ele>692.0</ele>
        <time>2019-05-25T13:29:04Z</time>
      </trkpt>
      <trkpt lat="41.5230690" lon="-4.7551510">
        <ele>692.0</ele>
        <time>2019-05-25T13:29:05Z</time>
      </trkpt>
      <trkpt lat="41.5231120" lon="-4.7551500">
        <ele>692.0</ele>
        <time>2019-05-25T13:29:06Z</time>
      </trkpt>
      <trkpt lat="41.5231600" lon="-4.7551710">
        <ele>692.0</ele>
        <time>2019-05-25T13:29:07Z</time>
      </trkpt>
      <trkpt lat="41.5231950" lon="-4.7551800">
        <ele>691.9</ele>
        <time>2019-05-25T13:29:08Z</time>
      </trkpt>
      <trkpt lat="41.5233050" lon="-4.7551980">
        <ele>691.9</ele>
        <time>2019-05-25T13:29:09Z</time>
      </trkpt>
      <trkpt lat="41.5233410" lon="-4.7551980">
        <ele>691.9</ele>
        <time>2019-05-25T13:29:10Z</time>
      </trkpt>
      <trkpt lat="41.5233940" lon="-4.7551910">
        <ele>691.9</ele>
        <time>2019-05-25T13:29:11Z</time>
      </trkpt>
      <trkpt lat="41.5234840" lon="-4.7552250">
        <ele>691.9</ele>
        <time>2019-05-25T13:29:12Z</time>
      </trkpt>
      <trkpt lat="41.5234480" lon="-4.7552020">
        <ele>691.9</ele>
        <time>2019-05-25T13:29:13Z</time>
      </trkpt>
      <trkpt lat="41.5234810" lon="-4.7552110">
        <ele>691.9</ele>
        <time>2019-05-25T13:29:14Z</time>
      </trkpt>
      <trkpt lat="41.5235230" lon="-4.7552140">
        <ele>691.9</ele>
        <time>2019-05-25T13:29:15Z</time>
      </trkpt>
      <trkpt lat="41.5235640" lon="-4.7552150">
        <ele>691.9</ele>
        <time>2019-05-25T13:29:16Z</time>
      </trkpt>
      <trkpt lat="41.5236070" lon="-4.7552140">
        <ele>691.9</ele>
        <time>2019-05-25T13:29:17Z</time>
      </trkpt>
      <trkpt lat="41.5236520" lon="-4.7552130">
        <ele>691.9</ele>
        <time>2019-05-25T13:29:18Z</time>
      </trkpt>
      <trkpt lat="41.5237040" lon="-4.7552130">
        <ele>691.9</ele>
        <time>2019-05-25T13:29:19Z</time>
      </trkpt>
      <trkpt lat="41.5237590" lon="-4.7552190">
        <ele>691.9</ele>
        <time>2019-05-25T13:29:20Z</time>
      </trkpt>
      <trkpt lat="41.5238110" lon="-4.7552260">
        <ele>691.9</ele>
        <time>2019-05-25T13:29:21Z</time>
      </trkpt>
      <trkpt lat="41.5238670" lon="-4.7552370">
        <ele>691.9</ele>
        <time>2019-05-25T13:29:22Z</time>
      </trkpt>
      <trkpt lat="41.5239210" lon="-4.7552450">
        <ele>691.9</ele>
        <time>2019-05-25T13:29:23Z</time>
      </trkpt>
      <trkpt lat="41.5239770" lon="-4.7552510">
        <ele>691.9</ele>
        <time>2019-05-25T13:29:24Z</time>
      </trkpt>
      <trkpt lat="41.5240370" lon="-4.7552570">
        <ele>691.9</ele>
        <time>2019-05-25T13:29:25Z</time>
      </trkpt>
      <trkpt lat="41.5240960" lon="-4.7552640">
        <ele>691.9</ele>
        <time>2019-05-25T13:29:26Z</time>
      </trkpt>
      <trkpt lat="41.5241510" lon="-4.7552700">
        <ele>691.9</ele>
        <time>2019-05-25T13:29:27Z</time>
      </trkpt>
      <trkpt lat="41.5242040" lon="-4.7552780">
        <ele>691.9</ele>
        <time>2019-05-25T13:29:28Z</time>
      </trkpt>
      <trkpt lat="41.5242610" lon="-4.7552860">
        <ele>691.9</ele>
        <time>2019-05-25T13:29:29Z</time>
      </trkpt>
      <trkpt lat="41.5243140" lon="-4.7552940">
        <ele>691.9</ele>
        <time>2019-05-25T13:29:30Z</time>
      </trkpt>
      <trkpt lat="41.5243660" lon="-4.7553050">
        <ele>691.9</ele>
        <time>2019-05-25T13:29:31Z</time>
      </trkpt>
      <trkpt lat="41.5244160" lon="-4.7553210">
        <ele>691.9</ele>
        <time>2019-05-25T13:29:32Z</time>
      </trkpt>
      <trkpt lat="41.5244650" lon="-4.7553440">
        <ele>691.9</ele>
        <time>2019-05-25T13:29:33Z</time>
      </trkpt>
      <trkpt lat="41.5245170" lon="-4.7553660">
        <ele>691.9</ele>
        <time>2019-05-25T13:29:34Z</time>
      </trkpt>
      <trkpt lat="41.5245670" lon="-4.7553870">
        <ele>691.9</ele>
        <time>2019-05-25T13:29:35Z</time>
      </trkpt>
      <trkpt lat="41.5246160" lon="-4.7554100">
        <ele>691.9</ele>
        <time>2019-05-25T13:29:36Z</time>
      </trkpt>
      <trkpt lat="41.5246700" lon="-4.7554290">
        <ele>691.9</ele>
        <time>2019-05-25T13:29:37Z</time>
      </trkpt>
      <trkpt lat="41.5247230" lon="-4.7554490">
        <ele>691.9</ele>
        <time>2019-05-25T13:29:38Z</time>
      </trkpt>
      <trkpt lat="41.5247770" lon="-4.7554640">
        <ele>691.9</ele>
        <time>2019-05-25T13:29:39Z</time>
      </trkpt>
      <trkpt lat="41.5248220" lon="-4.7554760">
        <ele>691.9</ele>
        <time>2019-05-25T13:29:40Z</time>
      </trkpt>
      <trkpt lat="41.5248590" lon="-4.7554830">
        <ele>691.9</ele>
        <time>2019-05-25T13:29:41Z</time>
      </trkpt>
      <trkpt lat="41.5248990" lon="-4.7554880">
        <ele>691.8</ele>
        <time>2019-05-25T13:29:42Z</time>
      </trkpt>
      <trkpt lat="41.5249380" lon="-4.7554970">
        <ele>691.8</ele>
        <time>2019-05-25T13:29:43Z</time>
      </trkpt>
      <trkpt lat="41.5249780" lon="-4.7555060">
        <ele>691.8</ele>
        <time>2019-05-25T13:29:44Z</time>
      </trkpt>
      <trkpt lat="41.5250170" lon="-4.7555180">
        <ele>691.8</ele>
        <time>2019-05-25T13:29:45Z</time>
      </trkpt>
      <trkpt lat="41.5250550" lon="-4.7555320">
        <ele>691.8</ele>
        <time>2019-05-25T13:29:46Z</time>
      </trkpt>
      <trkpt lat="41.5250950" lon="-4.7555470">
        <ele>691.8</ele>
        <time>2019-05-25T13:29:47Z</time>
      </trkpt>
      <trkpt lat="41.5251400" lon="-4.7555470">
        <ele>691.8</ele>
        <time>2019-05-25T13:29:48Z</time>
      </trkpt>
      <trkpt lat="41.5251850" lon="-4.7555820">
        <ele>691.8</ele>
        <time>2019-05-25T13:29:49Z</time>
      </trkpt>
      <trkpt lat="41.5252320" lon="-4.7556000">
        <ele>691.8</ele>
        <time>2019-05-25T13:29:50Z</time>
      </trkpt>
      <trkpt lat="41.5252800" lon="-4.7556200">
        <ele>691.8</ele>
        <time>2019-05-25T13:29:51Z</time>
      </trkpt>
      <trkpt lat="41.5253300" lon="-4.7556390">
        <ele>691.8</ele>
        <time>2019-05-25T13:29:52Z</time>
      </trkpt>
      <trkpt lat="41.5253760" lon="-4.7556560">
        <ele>691.8</ele>
        <time>2019-05-25T13:29:53Z</time>
      </trkpt>
      <trkpt lat="41.5254270" lon="-4.7556780">
        <ele>691.7</ele>
        <time>2019-05-25T13:29:54Z</time>
      </trkpt>
      <trkpt lat="41.5254730" lon="-4.7556920">
        <ele>691.6</ele>
        <time>2019-05-25T13:29:55Z</time>
      </trkpt>
      <trkpt lat="41.5255200" lon="-4.7557090">
        <ele>691.5</ele>
        <time>2019-05-25T13:29:56Z</time>
      </trkpt>
      <trkpt lat="41.5255680" lon="-4.7557250">
        <ele>691.5</ele>
        <time>2019-05-25T13:29:57Z</time>
      </trkpt>
      <trkpt lat="41.5256140" lon="-4.7557460">
        <ele>691.5</ele>
        <time>2019-05-25T13:29:58Z</time>
      </trkpt>
      <trkpt lat="41.5256590" lon="-4.7557540">
        <ele>691.4</ele>
        <time>2019-05-25T13:29:59Z</time>
      </trkpt>
      <trkpt lat="41.5257040" lon="-4.7557650">
        <ele>691.4</ele>
        <time>2019-05-25T13:30:00Z</time>
      </trkpt>
      <trkpt lat="41.5257490" lon="-4.7557800">
        <ele>691.3</ele>
        <time>2019-05-25T13:30:01Z</time>
      </trkpt>
      <trkpt lat="41.5257930" lon="-4.7557840">
        <ele>691.3</ele>
        <time>2019-05-25T13:30:02Z</time>
      </trkpt>
      <trkpt lat="41.5258430" lon="-4.7557880">
        <ele>691.3</ele>
        <time>2019-05-25T13:30:03Z</time>
      </trkpt>
      <trkpt lat="41.5258950" lon="-4.7557950">
        <ele>691.3</ele>
        <time>2019-05-25T13:30:04Z</time>
      </trkpt>
      <trkpt lat="41.5259420" lon="-4.7557990">
        <ele>691.3</ele>
        <time>2019-05-25T13:30:05Z</time>
      </trkpt>
      <trkpt lat="41.5259770" lon="-4.7557850">
        <ele>691.2</ele>
        <time>2019-05-25T13:30:07Z</time>
      </trkpt>
      <trkpt lat="41.5260160" lon="-4.7557790">
        <ele>691.2</ele>
        <time>2019-05-25T13:30:08Z</time>
      </trkpt>
      <trkpt lat="41.5260570" lon="-4.7557820">
        <ele>691.2</ele>
        <time>2019-05-25T13:30:09Z</time>
      </trkpt>
      <trkpt lat="41.5261000" lon="-4.7557930">
        <ele>691.2</ele>
        <time>2019-05-25T13:30:10Z</time>
      </trkpt>
      <trkpt lat="41.5261410" lon="-4.7557970">
        <ele>691.2</ele>
        <time>2019-05-25T13:30:11Z</time>
      </trkpt>
      <trkpt lat="41.5261800" lon="-4.7558270">
        <ele>691.2</ele>
        <time>2019-05-25T13:30:12Z</time>
      </trkpt>
      <trkpt lat="41.5262130" lon="-4.7558580">
        <ele>691.2</ele>
        <time>2019-05-25T13:30:13Z</time>
      </trkpt>
      <trkpt lat="41.5262450" lon="-4.7558900">
        <ele>691.2</ele>
        <time>2019-05-25T13:30:14Z</time>
      </trkpt>
      <trkpt lat="41.5262800" lon="-4.7559120">
        <ele>691.2</ele>
        <time>2019-05-25T13:30:15Z</time>
      </trkpt>
      <trkpt lat="41.5263200" lon="-4.7559300">
        <ele>691.2</ele>
        <time>2019-05-25T13:30:16Z</time>
      </trkpt>
      <trkpt lat="41.5263560" lon="-4.7559440">
        <ele>691.2</ele>
        <time>2019-05-25T13:30:17Z</time>
      </trkpt>
      <trkpt lat="41.5264030" lon="-4.7559680">
        <ele>691.2</ele>
        <time>2019-05-25T13:30:18Z</time>
      </trkpt>
      <trkpt lat="41.5264620" lon="-4.7559990">
        <ele>691.2</ele>
        <time>2019-05-25T13:30:19Z</time>
      </trkpt>
      <trkpt lat="41.5265050" lon="-4.7560170">
        <ele>691.2</ele>
        <time>2019-05-25T13:30:20Z</time>
      </trkpt>
      <trkpt lat="41.5265360" lon="-4.7560220">
        <ele>691.2</ele>
        <time>2019-05-25T13:30:21Z</time>
      </trkpt>
      <trkpt lat="41.5265680" lon="-4.7560140">
        <ele>691.1</ele>
        <time>2019-05-25T13:30:22Z</time>
      </trkpt>
      <trkpt lat="41.5266010" lon="-4.7559960">
        <ele>691.0</ele>
        <time>2019-05-25T13:30:23Z</time>
      </trkpt>
      <trkpt lat="41.5266340" lon="-4.7559850">
        <ele>690.9</ele>
        <time>2019-05-25T13:30:24Z</time>
      </trkpt>
      <trkpt lat="41.5266650" lon="-4.7559520">
        <ele>690.9</ele>
        <time>2019-05-25T13:30:25Z</time>
      </trkpt>
      <trkpt lat="41.5266970" lon="-4.7559280">
        <ele>690.8</ele>
        <time>2019-05-25T13:30:26Z</time>
      </trkpt>
      <trkpt lat="41.5267370" lon="-4.7559020">
        <ele>690.8</ele>
        <time>2019-05-25T13:30:27Z</time>
      </trkpt>
      <trkpt lat="41.5267390" lon="-4.7557740">
        <ele>690.7</ele>
        <time>2019-05-25T13:30:28Z</time>
      </trkpt>
      <trkpt lat="41.5267760" lon="-4.7557350">
        <ele>690.7</ele>
        <time>2019-05-25T13:30:29Z</time>
      </trkpt>
      <trkpt lat="41.5268130" lon="-4.7556950">
        <ele>690.7</ele>
        <time>2019-05-25T13:30:30Z</time>
      </trkpt>
      <trkpt lat="41.5268450" lon="-4.7556540">
        <ele>690.7</ele>
        <time>2019-05-25T13:30:31Z</time>
      </trkpt>
      <trkpt lat="41.5268690" lon="-4.7556070">
        <ele>690.7</ele>
        <time>2019-05-25T13:30:32Z</time>
      </trkpt>
      <trkpt lat="41.5268880" lon="-4.7555610">
        <ele>690.7</ele>
        <time>2019-05-25T13:30:33Z</time>
      </trkpt>
      <trkpt lat="41.5269080" lon="-4.7555070">
        <ele>690.7</ele>
        <time>2019-05-25T13:30:34Z</time>
      </trkpt>
      <trkpt lat="41.5269270" lon="-4.7554540">
        <ele>690.8</ele>
        <time>2019-05-25T13:30:35Z</time>
      </trkpt>
      <trkpt lat="41.5269470" lon="-4.7554050">
        <ele>690.8</ele>
        <time>2019-05-25T13:30:36Z</time>
      </trkpt>
      <trkpt lat="41.5269690" lon="-4.7553620">
        <ele>690.8</ele>
        <time>2019-05-25T13:30:37Z</time>
      </trkpt>
      <trkpt lat="41.5269900" lon="-4.7553200">
        <ele>690.8</ele>
        <time>2019-05-25T13:30:38Z</time>
      </trkpt>
      <trkpt lat="41.5270090" lon="-4.7552750">
        <ele>690.8</ele>
        <time>2019-05-25T13:30:39Z</time>
      </trkpt>
      <trkpt lat="41.5270250" lon="-4.7552280">
        <ele>690.8</ele>
        <time>2019-05-25T13:30:40Z</time>
      </trkpt>
      <trkpt lat="41.5270330" lon="-4.7551820">
        <ele>690.8</ele>
        <time>2019-05-25T13:30:41Z</time>
      </trkpt>
      <trkpt lat="41.5270380" lon="-4.7551340">
        <ele>690.8</ele>
        <time>2019-05-25T13:30:42Z</time>
      </trkpt>
      <trkpt lat="41.5270450" lon="-4.7550830">
        <ele>690.9</ele>
        <time>2019-05-25T13:30:43Z</time>
      </trkpt>
      <trkpt lat="41.5270500" lon="-4.7550330">
        <ele>690.9</ele>
        <time>2019-05-25T13:30:44Z</time>
      </trkpt>
      <trkpt lat="41.5270560" lon="-4.7549750">
        <ele>691.0</ele>
        <time>2019-05-25T13:30:45Z</time>
      </trkpt>
      <trkpt lat="41.5270570" lon="-4.7549230">
        <ele>691.0</ele>
        <time>2019-05-25T13:30:46Z</time>
      </trkpt>
      <trkpt lat="41.5270610" lon="-4.7548770">
        <ele>691.0</ele>
        <time>2019-05-25T13:30:47Z</time>
      </trkpt>
      <trkpt lat="41.5270650" lon="-4.7548330">
        <ele>691.1</ele>
        <time>2019-05-25T13:30:48Z</time>
      </trkpt>
      <trkpt lat="41.5270650" lon="-4.7547950">
        <ele>691.1</ele>
        <time>2019-05-25T13:30:49Z</time>
      </trkpt>
      <trkpt lat="41.5270480" lon="-4.7547250">
        <ele>691.1</ele>
        <time>2019-05-25T13:30:51Z</time>
      </trkpt>
      <trkpt lat="41.5270350" lon="-4.7546890">
        <ele>691.1</ele>
        <time>2019-05-25T13:30:52Z</time>
      </trkpt>
      <trkpt lat="41.5270220" lon="-4.7546530">
        <ele>691.2</ele>
        <time>2019-05-25T13:30:53Z</time>
      </trkpt>
      <trkpt lat="41.5270150" lon="-4.7546100">
        <ele>691.2</ele>
        <time>2019-05-25T13:30:54Z</time>
      </trkpt>
      <trkpt lat="41.5270220" lon="-4.7545660">
        <ele>691.2</ele>
        <time>2019-05-25T13:30:55Z</time>
      </trkpt>
      <trkpt lat="41.5270430" lon="-4.7545290">
        <ele>691.2</ele>
        <time>2019-05-25T13:30:56Z</time>
      </trkpt>
      <trkpt lat="41.5270740" lon="-4.7545030">
        <ele>691.2</ele>
        <time>2019-05-25T13:30:57Z</time>
      </trkpt>
      <trkpt lat="41.5271100" lon="-4.7544820">
        <ele>691.2</ele>
        <time>2019-05-25T13:30:58Z</time>
      </trkpt>
      <trkpt lat="41.5271500" lon="-4.7544600">
        <ele>691.2</ele>
        <time>2019-05-25T13:30:59Z</time>
      </trkpt>
      <trkpt lat="41.5271950" lon="-4.7544310">
        <ele>691.2</ele>
        <time>2019-05-25T13:31:00Z</time>
      </trkpt>
      <trkpt lat="41.5272440" lon="-4.7544000">
        <ele>691.2</ele>
        <time>2019-05-25T13:31:01Z</time>
      </trkpt>
      <trkpt lat="41.5272880" lon="-4.7543570">
        <ele>691.2</ele>
        <time>2019-05-25T13:31:02Z</time>
      </trkpt>
      <trkpt lat="41.5273240" lon="-4.7543020">
        <ele>691.2</ele>
        <time>2019-05-25T13:31:03Z</time>
      </trkpt>
      <trkpt lat="41.5273610" lon="-4.7542430">
        <ele>691.2</ele>
        <time>2019-05-25T13:31:04Z</time>
      </trkpt>
      <trkpt lat="41.5273970" lon="-4.7541910">
        <ele>691.2</ele>
        <time>2019-05-25T13:31:05Z</time>
      </trkpt>
      <trkpt lat="41.5274360" lon="-4.7541470">
        <ele>691.2</ele>
        <time>2019-05-25T13:31:06Z</time>
      </trkpt>
      <trkpt lat="41.5274740" lon="-4.7541080">
        <ele>691.3</ele>
        <time>2019-05-25T13:31:07Z</time>
      </trkpt>
      <trkpt lat="41.5275090" lon="-4.7540680">
        <ele>691.3</ele>
        <time>2019-05-25T13:31:08Z</time>
      </trkpt>
      <trkpt lat="41.5275460" lon="-4.7540270">
        <ele>691.4</ele>
        <time>2019-05-25T13:31:09Z</time>
      </trkpt>
      <trkpt lat="41.5275840" lon="-4.7539810">
        <ele>691.4</ele>
        <time>2019-05-25T13:31:10Z</time>
      </trkpt>
      <trkpt lat="41.5276120" lon="-4.7539300">
        <ele>691.5</ele>
        <time>2019-05-25T13:31:11Z</time>
      </trkpt>
      <trkpt lat="41.5276490" lon="-4.7538770">
        <ele>691.6</ele>
        <time>2019-05-25T13:31:12Z</time>
      </trkpt>
      <trkpt lat="41.5276820" lon="-4.7538300">
        <ele>691.7</ele>
        <time>2019-05-25T13:31:13Z</time>
      </trkpt>
      <trkpt lat="41.5276980" lon="-4.7537760">
        <ele>691.8</ele>
        <time>2019-05-25T13:31:14Z</time>
      </trkpt>
      <trkpt lat="41.5277190" lon="-4.7537200">
        <ele>691.9</ele>
        <time>2019-05-25T13:31:15Z</time>
      </trkpt>
      <trkpt lat="41.5277460" lon="-4.7536630">
        <ele>692.0</ele>
        <time>2019-05-25T13:31:16Z</time>
      </trkpt>
      <trkpt lat="41.5277620" lon="-4.7536070">
        <ele>692.1</ele>
        <time>2019-05-25T13:31:17Z</time>
      </trkpt>
      <trkpt lat="41.5277710" lon="-4.7535700">
        <ele>692.1</ele>
        <time>2019-05-25T13:31:18Z</time>
      </trkpt>
      <trkpt lat="41.5277790" lon="-4.7535170">
        <ele>692.2</ele>
        <time>2019-05-25T13:31:21Z</time>
      </trkpt>
      <trkpt lat="41.5277790" lon="-4.7533500">
        <ele>692.4</ele>
        <time>2019-05-25T13:31:23Z</time>
      </trkpt>
      <trkpt lat="41.5278050" lon="-4.7532030">
        <ele>692.5</ele>
        <time>2019-05-25T13:31:24Z</time>
      </trkpt>
      <trkpt lat="41.5278010" lon="-4.7531660">
        <ele>692.5</ele>
        <time>2019-05-25T13:31:25Z</time>
      </trkpt>
      <trkpt lat="41.5278020" lon="-4.7531040">
        <ele>692.5</ele>
        <time>2019-05-25T13:31:26Z</time>
      </trkpt>
      <trkpt lat="41.5277930" lon="-4.7530400">
        <ele>692.5</ele>
        <time>2019-05-25T13:31:27Z</time>
      </trkpt>
      <trkpt lat="41.5277920" lon="-4.7529770">
        <ele>692.5</ele>
        <time>2019-05-25T13:31:28Z</time>
      </trkpt>
      <trkpt lat="41.5277910" lon="-4.7529360">
        <ele>692.5</ele>
        <time>2019-05-25T13:31:30Z</time>
      </trkpt>
      <trkpt lat="41.5277500" lon="-4.7528930">
        <ele>692.5</ele>
        <time>2019-05-25T13:31:33Z</time>
      </trkpt>
      <trkpt lat="41.5277250" lon="-4.7528530">
        <ele>692.5</ele>
        <time>2019-05-25T13:31:34Z</time>
      </trkpt>
      <trkpt lat="41.5277090" lon="-4.7528180">
        <ele>692.5</ele>
        <time>2019-05-25T13:31:35Z</time>
      </trkpt>
      <trkpt lat="41.5276930" lon="-4.7527880">
        <ele>692.5</ele>
        <time>2019-05-25T13:31:36Z</time>
      </trkpt>
      <trkpt lat="41.5276600" lon="-4.7527380">
        <ele>692.5</ele>
        <time>2019-05-25T13:31:38Z</time>
      </trkpt>
      <trkpt lat="41.5276300" lon="-4.7526790">
        <ele>692.5</ele>
        <time>2019-05-25T13:31:40Z</time>
      </trkpt>
      <trkpt lat="41.5276140" lon="-4.7526470">
        <ele>692.5</ele>
        <time>2019-05-25T13:31:41Z</time>
      </trkpt>
      <trkpt lat="41.5275950" lon="-4.7526190">
        <ele>692.5</ele>
        <time>2019-05-25T13:31:42Z</time>
      </trkpt>
      <trkpt lat="41.5275780" lon="-4.7525820">
        <ele>692.5</ele>
        <time>2019-05-25T13:31:43Z</time>
      </trkpt>
      <trkpt lat="41.5275660" lon="-4.7525340">
        <ele>692.5</ele>
        <time>2019-05-25T13:31:44Z</time>
      </trkpt>
      <trkpt lat="41.5275550" lon="-4.7524820">
        <ele>692.5</ele>
        <time>2019-05-25T13:31:45Z</time>
      </trkpt>
      <trkpt lat="41.5275410" lon="-4.7524360">
        <ele>692.4</ele>
        <time>2019-05-25T13:31:46Z</time>
      </trkpt>
      <trkpt lat="41.5275210" lon="-4.7524000">
        <ele>692.3</ele>
        <time>2019-05-25T13:31:47Z</time>
      </trkpt>
      <trkpt lat="41.5274970" lon="-4.7523760">
        <ele>692.3</ele>
        <time>2019-05-25T13:31:48Z</time>
      </trkpt>
      <trkpt lat="41.5274680" lon="-4.7523560">
        <ele>691.9</ele>
        <time>2019-05-25T13:31:49Z</time>
      </trkpt>
      <trkpt lat="41.5274350" lon="-4.7523410">
        <ele>691.9</ele>
        <time>2019-05-25T13:31:50Z</time>
      </trkpt>
      <trkpt lat="41.5274000" lon="-4.7523340">
        <ele>691.9</ele>
        <time>2019-05-25T13:31:51Z</time>
      </trkpt>
      <trkpt lat="41.5273580" lon="-4.7523270">
        <ele>691.9</ele>
        <time>2019-05-25T13:31:52Z</time>
      </trkpt>
      <trkpt lat="41.5273060" lon="-4.7523260">
        <ele>691.9</ele>
        <time>2019-05-25T13:31:53Z</time>
      </trkpt>
      <trkpt lat="41.5272460" lon="-4.7523250">
        <ele>691.9</ele>
        <time>2019-05-25T13:31:54Z</time>
      </trkpt>
      <trkpt lat="41.5270960" lon="-4.7523100">
        <ele>691.9</ele>
        <time>2019-05-25T13:31:55Z</time>
      </trkpt>
      <trkpt lat="41.5267400" lon="-4.7522210">
        <ele>691.9</ele>
        <time>2019-05-25T13:31:57Z</time>
      </trkpt>
      <trkpt lat="41.5266970" lon="-4.7522370">
        <ele>691.9</ele>
        <time>2019-05-25T13:31:58Z</time>
      </trkpt>
      <trkpt lat="41.5266370" lon="-4.7522470">
        <ele>691.8</ele>
        <time>2019-05-25T13:31:59Z</time>
      </trkpt>
      <trkpt lat="41.5265750" lon="-4.7522480">
        <ele>691.8</ele>
        <time>2019-05-25T13:32:00Z</time>
      </trkpt>
      <trkpt lat="41.5265170" lon="-4.7522450">
        <ele>691.8</ele>
        <time>2019-05-25T13:32:01Z</time>
      </trkpt>
      <trkpt lat="41.5264640" lon="-4.7522660">
        <ele>691.8</ele>
        <time>2019-05-25T13:32:02Z</time>
      </trkpt>
      <trkpt lat="41.5264000" lon="-4.7522820">
        <ele>691.8</ele>
        <time>2019-05-25T13:32:03Z</time>
      </trkpt>
      <trkpt lat="41.5263420" lon="-4.7522890">
        <ele>691.7</ele>
        <time>2019-05-25T13:32:04Z</time>
      </trkpt>
      <trkpt lat="41.5262790" lon="-4.7523030">
        <ele>691.7</ele>
        <time>2019-05-25T13:32:05Z</time>
      </trkpt>
      <trkpt lat="41.5262140" lon="-4.7523110">
        <ele>691.7</ele>
        <time>2019-05-25T13:32:06Z</time>
      </trkpt>
      <trkpt lat="41.5261690" lon="-4.7523240">
        <ele>691.6</ele>
        <time>2019-05-25T13:32:07Z</time>
      </trkpt>
      <trkpt lat="41.5261170" lon="-4.7523330">
        <ele>691.6</ele>
        <time>2019-05-25T13:32:08Z</time>
      </trkpt>
      <trkpt lat="41.5260480" lon="-4.7523510">
        <ele>691.5</ele>
        <time>2019-05-25T13:32:09Z</time>
      </trkpt>
      <trkpt lat="41.5260060" lon="-4.7523600">
        <ele>691.5</ele>
        <time>2019-05-25T13:32:10Z</time>
      </trkpt>
      <trkpt lat="41.5259510" lon="-4.7523600">
        <ele>691.4</ele>
        <time>2019-05-25T13:32:11Z</time>
      </trkpt>
      <trkpt lat="41.5259000" lon="-4.7523670">
        <ele>691.3</ele>
        <time>2019-05-25T13:32:12Z</time>
      </trkpt>
      <trkpt lat="41.5258290" lon="-4.7523870">
        <ele>691.2</ele>
        <time>2019-05-25T13:32:14Z</time>
      </trkpt>
      <trkpt lat="41.5257800" lon="-4.7523760">
        <ele>691.2</ele>
        <time>2019-05-25T13:32:16Z</time>
      </trkpt>
      <trkpt lat="41.5257580" lon="-4.7523500">
        <ele>691.1</ele>
        <time>2019-05-25T13:32:21Z</time>
      </trkpt>
      <trkpt lat="41.5257350" lon="-4.7523250">
        <ele>691.1</ele>
        <time>2019-05-25T13:32:22Z</time>
      </trkpt>
      <trkpt lat="41.5257220" lon="-4.7522760">
        <ele>691.1</ele>
        <time>2019-05-25T13:32:23Z</time>
      </trkpt>
      <trkpt lat="41.5257250" lon="-4.7522290">
        <ele>691.1</ele>
        <time>2019-05-25T13:32:24Z</time>
      </trkpt>
      <trkpt lat="41.5257340" lon="-4.7521870">
        <ele>691.1</ele>
        <time>2019-05-25T13:32:25Z</time>
      </trkpt>
      <trkpt lat="41.5257280" lon="-4.7521210">
        <ele>691.2</ele>
        <time>2019-05-25T13:32:26Z</time>
      </trkpt>
      <trkpt lat="41.5257350" lon="-4.7520650">
        <ele>691.2</ele>
        <time>2019-05-25T13:32:27Z</time>
      </trkpt>
      <trkpt lat="41.5257380" lon="-4.7520190">
        <ele>691.2</ele>
        <time>2019-05-25T13:32:28Z</time>
      </trkpt>
      <trkpt lat="41.5257440" lon="-4.7519660">
        <ele>691.3</ele>
        <time>2019-05-25T13:32:30Z</time>
      </trkpt>
      <trkpt lat="41.5257490" lon="-4.7519180">
        <ele>691.3</ele>
        <time>2019-05-25T13:32:31Z</time>
      </trkpt>
      <trkpt lat="41.5257610" lon="-4.7518560">
        <ele>691.3</ele>
        <time>2019-05-25T13:32:32Z</time>
      </trkpt>
      <trkpt lat="41.5257720" lon="-4.7517920">
        <ele>691.3</ele>
        <time>2019-05-25T13:32:33Z</time>
      </trkpt>
      <trkpt lat="41.5257810" lon="-4.7517250">
        <ele>691.2</ele>
        <time>2019-05-25T13:32:34Z</time>
      </trkpt>
      <trkpt lat="41.5257920" lon="-4.7516550">
        <ele>691.2</ele>
        <time>2019-05-25T13:32:35Z</time>
      </trkpt>
      <trkpt lat="41.5258040" lon="-4.7515780">
        <ele>691.2</ele>
        <time>2019-05-25T13:32:36Z</time>
      </trkpt>
      <trkpt lat="41.5258140" lon="-4.7514970">
        <ele>691.2</ele>
        <time>2019-05-25T13:32:37Z</time>
      </trkpt>
      <trkpt lat="41.5258220" lon="-4.7514190">
        <ele>691.2</ele>
        <time>2019-05-25T13:32:38Z</time>
      </trkpt>
      <trkpt lat="41.5258270" lon="-4.7513440">
        <ele>691.2</ele>
        <time>2019-05-25T13:32:39Z</time>
      </trkpt>
      <trkpt lat="41.5258390" lon="-4.7512660">
        <ele>691.2</ele>
        <time>2019-05-25T13:32:40Z</time>
      </trkpt>
      <trkpt lat="41.5258480" lon="-4.7511890">
        <ele>691.2</ele>
        <time>2019-05-25T13:32:41Z</time>
      </trkpt>
      <trkpt lat="41.5258540" lon="-4.7511140">
        <ele>691.3</ele>
        <time>2019-05-25T13:32:42Z</time>
      </trkpt>
      <trkpt lat="41.5258590" lon="-4.7510460">
        <ele>691.3</ele>
        <time>2019-05-25T13:32:43Z</time>
      </trkpt>
      <trkpt lat="41.5258650" lon="-4.7509700">
        <ele>691.4</ele>
        <time>2019-05-25T13:32:44Z</time>
      </trkpt>
      <trkpt lat="41.5258710" lon="-4.7509150">
        <ele>691.4</ele>
        <time>2019-05-25T13:32:45Z</time>
      </trkpt>
      <trkpt lat="41.5258760" lon="-4.7508730">
        <ele>691.5</ele>
        <time>2019-05-25T13:32:46Z</time>
      </trkpt>
      <trkpt lat="41.5258780" lon="-4.7508290">
        <ele>691.5</ele>
        <time>2019-05-25T13:32:47Z</time>
      </trkpt>
      <trkpt lat="41.5258780" lon="-4.7507840">
        <ele>691.6</ele>
        <time>2019-05-25T13:32:48Z</time>
      </trkpt>
      <trkpt lat="41.5258760" lon="-4.7507390">
        <ele>691.6</ele>
        <time>2019-05-25T13:32:49Z</time>
      </trkpt>
      <trkpt lat="41.5258750" lon="-4.7506910">
        <ele>691.6</ele>
        <time>2019-05-25T13:32:50Z</time>
      </trkpt>
      <trkpt lat="41.5258710" lon="-4.7506390">
        <ele>691.6</ele>
        <time>2019-05-25T13:32:51Z</time>
      </trkpt>
      <trkpt lat="41.5258710" lon="-4.7505810">
        <ele>691.6</ele>
        <time>2019-05-25T13:32:52Z</time>
      </trkpt>
      <trkpt lat="41.5258700" lon="-4.7505220">
        <ele>691.6</ele>
        <time>2019-05-25T13:32:53Z</time>
      </trkpt>
      <trkpt lat="41.5258760" lon="-4.7504620">
        <ele>691.6</ele>
        <time>2019-05-25T13:32:54Z</time>
      </trkpt>
      <trkpt lat="41.5258880" lon="-4.7503880">
        <ele>691.6</ele>
        <time>2019-05-25T13:32:55Z</time>
      </trkpt>
      <trkpt lat="41.5259000" lon="-4.7503090">
        <ele>691.6</ele>
        <time>2019-05-25T13:32:56Z</time>
      </trkpt>
      <trkpt lat="41.5259120" lon="-4.7502280">
        <ele>691.6</ele>
        <time>2019-05-25T13:32:57Z</time>
      </trkpt>
      <trkpt lat="41.5259220" lon="-4.7501530">
        <ele>691.6</ele>
        <time>2019-05-25T13:32:58Z</time>
      </trkpt>
      <trkpt lat="41.5259340" lon="-4.7500780">
        <ele>691.6</ele>
        <time>2019-05-25T13:32:59Z</time>
      </trkpt>
      <trkpt lat="41.5259440" lon="-4.7499990">
        <ele>691.6</ele>
        <time>2019-05-25T13:33:00Z</time>
      </trkpt>
      <trkpt lat="41.5259530" lon="-4.7499200">
        <ele>691.6</ele>
        <time>2019-05-25T13:33:01Z</time>
      </trkpt>
      <trkpt lat="41.5259630" lon="-4.7498420">
        <ele>691.6</ele>
        <time>2019-05-25T13:33:02Z</time>
      </trkpt>
      <trkpt lat="41.5259710" lon="-4.7497620">
        <ele>691.6</ele>
        <time>2019-05-25T13:33:03Z</time>
      </trkpt>
      <trkpt lat="41.5259790" lon="-4.7496810">
        <ele>691.6</ele>
        <time>2019-05-25T13:33:04Z</time>
      </trkpt>
      <trkpt lat="41.5259910" lon="-4.7496050">
        <ele>691.6</ele>
        <time>2019-05-25T13:33:05Z</time>
      </trkpt>
      <trkpt lat="41.5260010" lon="-4.7495290">
        <ele>691.7</ele>
        <time>2019-05-25T13:33:06Z</time>
      </trkpt>
      <trkpt lat="41.5260140" lon="-4.7494500">
        <ele>691.8</ele>
        <time>2019-05-25T13:33:07Z</time>
      </trkpt>
      <trkpt lat="41.5260200" lon="-4.7493710">
        <ele>691.9</ele>
        <time>2019-05-25T13:33:08Z</time>
      </trkpt>
      <trkpt lat="41.5260320" lon="-4.7492920">
        <ele>692.0</ele>
        <time>2019-05-25T13:33:09Z</time>
      </trkpt>
      <trkpt lat="41.5260390" lon="-4.7492220">
        <ele>692.1</ele>
        <time>2019-05-25T13:33:10Z</time>
      </trkpt>
      <trkpt lat="41.5260520" lon="-4.7491530">
        <ele>692.3</ele>
        <time>2019-05-25T13:33:11Z</time>
      </trkpt>
      <trkpt lat="41.5260600" lon="-4.7490950">
        <ele>692.3</ele>
        <time>2019-05-25T13:33:12Z</time>
      </trkpt>
      <trkpt lat="41.5260680" lon="-4.7490260">
        <ele>692.4</ele>
        <time>2019-05-25T13:33:13Z</time>
      </trkpt>
      <trkpt lat="41.5260760" lon="-4.7489580">
        <ele>692.4</ele>
        <time>2019-05-25T13:33:14Z</time>
      </trkpt>
      <trkpt lat="41.5260820" lon="-4.7488940">
        <ele>692.5</ele>
        <time>2019-05-25T13:33:15Z</time>
      </trkpt>
      <trkpt lat="41.5260890" lon="-4.7488400">
        <ele>692.5</ele>
        <time>2019-05-25T13:33:16Z</time>
      </trkpt>
      <trkpt lat="41.5260950" lon="-4.7487800">
        <ele>692.5</ele>
        <time>2019-05-25T13:33:17Z</time>
      </trkpt>
      <trkpt lat="41.5261010" lon="-4.7487160">
        <ele>692.5</ele>
        <time>2019-05-25T13:33:18Z</time>
      </trkpt>
      <trkpt lat="41.5261080" lon="-4.7486580">
        <ele>692.5</ele>
        <time>2019-05-25T13:33:19Z</time>
      </trkpt>
      <trkpt lat="41.5261180" lon="-4.7486070">
        <ele>692.5</ele>
        <time>2019-05-25T13:33:20Z</time>
      </trkpt>
      <trkpt lat="41.5261210" lon="-4.7485560">
        <ele>692.5</ele>
        <time>2019-05-25T13:33:21Z</time>
      </trkpt>
      <trkpt lat="41.5261320" lon="-4.7485010">
        <ele>692.6</ele>
        <time>2019-05-25T13:33:22Z</time>
      </trkpt>
      <trkpt lat="41.5261300" lon="-4.7484420">
        <ele>692.6</ele>
        <time>2019-05-25T13:33:23Z</time>
      </trkpt>
      <trkpt lat="41.5261380" lon="-4.7483800">
        <ele>692.6</ele>
        <time>2019-05-25T13:33:24Z</time>
      </trkpt>
      <trkpt lat="41.5261490" lon="-4.7483190">
        <ele>692.6</ele>
        <time>2019-05-25T13:33:25Z</time>
      </trkpt>
      <trkpt lat="41.5261580" lon="-4.7482590">
        <ele>692.6</ele>
        <time>2019-05-25T13:33:26Z</time>
      </trkpt>
      <trkpt lat="41.5261660" lon="-4.7481970">
        <ele>692.5</ele>
        <time>2019-05-25T13:33:27Z</time>
      </trkpt>
      <trkpt lat="41.5261760" lon="-4.7481350">
        <ele>692.5</ele>
        <time>2019-05-25T13:33:28Z</time>
      </trkpt>
      <trkpt lat="41.5261930" lon="-4.7480750">
        <ele>692.4</ele>
        <time>2019-05-25T13:33:29Z</time>
      </trkpt>
      <trkpt lat="41.5261990" lon="-4.7480090">
        <ele>692.3</ele>
        <time>2019-05-25T13:33:30Z</time>
      </trkpt>
      <trkpt lat="41.5262000" lon="-4.7479410">
        <ele>692.2</ele>
        <time>2019-05-25T13:33:31Z</time>
      </trkpt>
      <trkpt lat="41.5262040" lon="-4.7478720">
        <ele>692.2</ele>
        <time>2019-05-25T13:33:32Z</time>
      </trkpt>
      <trkpt lat="41.5262090" lon="-4.7478070">
        <ele>692.1</ele>
        <time>2019-05-25T13:33:33Z</time>
      </trkpt>
      <trkpt lat="41.5262170" lon="-4.7477420">
        <ele>692.1</ele>
        <time>2019-05-25T13:33:34Z</time>
      </trkpt>
      <trkpt lat="41.5262230" lon="-4.7476740">
        <ele>692.0</ele>
        <time>2019-05-25T13:33:35Z</time>
      </trkpt>
      <trkpt lat="41.5262290" lon="-4.7476050">
        <ele>692.0</ele>
        <time>2019-05-25T13:33:36Z</time>
      </trkpt>
      <trkpt lat="41.5262400" lon="-4.7475350">
        <ele>692.0</ele>
        <time>2019-05-25T13:33:37Z</time>
      </trkpt>
      <trkpt lat="41.5262500" lon="-4.7474650">
        <ele>692.0</ele>
        <time>2019-05-25T13:33:38Z</time>
      </trkpt>
      <trkpt lat="41.5262600" lon="-4.7473920">
        <ele>692.1</ele>
        <time>2019-05-25T13:33:39Z</time>
      </trkpt>
      <trkpt lat="41.5262710" lon="-4.7473130">
        <ele>692.2</ele>
        <time>2019-05-25T13:33:40Z</time>
      </trkpt>
      <trkpt lat="41.5262820" lon="-4.7472350">
        <ele>692.3</ele>
        <time>2019-05-25T13:33:41Z</time>
      </trkpt>
      <trkpt lat="41.5262920" lon="-4.7471530">
        <ele>692.4</ele>
        <time>2019-05-25T13:33:42Z</time>
      </trkpt>
      <trkpt lat="41.5263040" lon="-4.7470730">
        <ele>692.5</ele>
        <time>2019-05-25T13:33:43Z</time>
      </trkpt>
      <trkpt lat="41.5263190" lon="-4.7469940">
        <ele>692.6</ele>
        <time>2019-05-25T13:33:44Z</time>
      </trkpt>
      <trkpt lat="41.5263290" lon="-4.7469180">
        <ele>692.6</ele>
        <time>2019-05-25T13:33:45Z</time>
      </trkpt>
      <trkpt lat="41.5263390" lon="-4.7468440">
        <ele>692.7</ele>
        <time>2019-05-25T13:33:46Z</time>
      </trkpt>
      <trkpt lat="41.5263520" lon="-4.7467740">
        <ele>692.7</ele>
        <time>2019-05-25T13:33:47Z</time>
      </trkpt>
      <trkpt lat="41.5263630" lon="-4.7467080">
        <ele>692.7</ele>
        <time>2019-05-25T13:33:48Z</time>
      </trkpt>
      <trkpt lat="41.5263730" lon="-4.7466410">
        <ele>692.6</ele>
        <time>2019-05-25T13:33:49Z</time>
      </trkpt>
      <trkpt lat="41.5263850" lon="-4.7465750">
        <ele>692.6</ele>
        <time>2019-05-25T13:33:50Z</time>
      </trkpt>
      <trkpt lat="41.5263980" lon="-4.7465100">
        <ele>692.6</ele>
        <time>2019-05-25T13:33:51Z</time>
      </trkpt>
      <trkpt lat="41.5264030" lon="-4.7464440">
        <ele>692.6</ele>
        <time>2019-05-25T13:33:52Z</time>
      </trkpt>
      <trkpt lat="41.5264090" lon="-4.7463770">
        <ele>692.6</ele>
        <time>2019-05-25T13:33:53Z</time>
      </trkpt>
      <trkpt lat="41.5263740" lon="-4.7463280">
        <ele>692.6</ele>
        <time>2019-05-25T13:33:54Z</time>
      </trkpt>
      <trkpt lat="41.5263960" lon="-4.7462510">
        <ele>692.6</ele>
        <time>2019-05-25T13:33:55Z</time>
      </trkpt>
      <trkpt lat="41.5263820" lon="-4.7462880">
        <ele>692.6</ele>
        <time>2019-05-25T13:34:01Z</time>
      </trkpt>
      <trkpt lat="41.5263800" lon="-4.7463330">
        <ele>692.6</ele>
        <time>2019-05-25T13:34:03Z</time>
      </trkpt>
      <trkpt lat="41.5263820" lon="-4.7463710">
        <ele>692.5</ele>
        <time>2019-05-25T13:34:06Z</time>
      </trkpt>
      <trkpt lat="41.5264060" lon="-4.7463850">
        <ele>692.5</ele>
        <time>2019-05-25T13:34:13Z</time>
      </trkpt>
      <trkpt lat="41.5264320" lon="-4.7463240">
        <ele>692.5</ele>
        <time>2019-05-25T13:34:15Z</time>
      </trkpt>
      <trkpt lat="41.5264420" lon="-4.7462910">
        <ele>692.4</ele>
        <time>2019-05-25T13:34:16Z</time>
      </trkpt>
      <trkpt lat="41.5264510" lon="-4.7462530">
        <ele>692.4</ele>
        <time>2019-05-25T13:34:17Z</time>
      </trkpt>
      <trkpt lat="41.5264570" lon="-4.7462120">
        <ele>692.3</ele>
        <time>2019-05-25T13:34:18Z</time>
      </trkpt>
      <trkpt lat="41.5264610" lon="-4.7461630">
        <ele>692.3</ele>
        <time>2019-05-25T13:34:19Z</time>
      </trkpt>
      <trkpt lat="41.5264660" lon="-4.7460890">
        <ele>692.3</ele>
        <time>2019-05-25T13:34:20Z</time>
      </trkpt>
      <trkpt lat="41.5264720" lon="-4.7460000">
        <ele>692.3</ele>
        <time>2019-05-25T13:34:21Z</time>
      </trkpt>
      <trkpt lat="41.5264810" lon="-4.7459180">
        <ele>692.3</ele>
        <time>2019-05-25T13:34:22Z</time>
      </trkpt>
      <trkpt lat="41.5264930" lon="-4.7458650">
        <ele>692.3</ele>
        <time>2019-05-25T13:34:23Z</time>
      </trkpt>
      <trkpt lat="41.5265170" lon="-4.7458340">
        <ele>692.3</ele>
        <time>2019-05-25T13:34:24Z</time>
      </trkpt>
      <trkpt lat="41.5265600" lon="-4.7458210">
        <ele>692.3</ele>
        <time>2019-05-25T13:34:25Z</time>
      </trkpt>
      <trkpt lat="41.5266270" lon="-4.7458370">
        <ele>692.3</ele>
        <time>2019-05-25T13:34:26Z</time>
      </trkpt>
      <trkpt lat="41.5267650" lon="-4.7458910">
        <ele>692.4</ele>
        <time>2019-05-25T13:34:27Z</time>
      </trkpt>
      <trkpt lat="41.5268290" lon="-4.7459060">
        <ele>692.4</ele>
        <time>2019-05-25T13:34:28Z</time>
      </trkpt>
      <trkpt lat="41.5268950" lon="-4.7459170">
        <ele>692.5</ele>
        <time>2019-05-25T13:34:29Z</time>
      </trkpt>
      <trkpt lat="41.5269590" lon="-4.7459280">
        <ele>692.6</ele>
        <time>2019-05-25T13:34:30Z</time>
      </trkpt>
      <trkpt lat="41.5270200" lon="-4.7459300">
        <ele>692.8</ele>
        <time>2019-05-25T13:34:31Z</time>
      </trkpt>
      <trkpt lat="41.5270850" lon="-4.7459390">
        <ele>693.0</ele>
        <time>2019-05-25T13:34:32Z</time>
      </trkpt>
      <trkpt lat="41.5271490" lon="-4.7459520">
        <ele>693.2</ele>
        <time>2019-05-25T13:34:33Z</time>
      </trkpt>
      <trkpt lat="41.5272150" lon="-4.7459550">
        <ele>693.3</ele>
        <time>2019-05-25T13:34:34Z</time>
      </trkpt>
      <trkpt lat="41.5272770" lon="-4.7459650">
        <ele>693.4</ele>
        <time>2019-05-25T13:34:35Z</time>
      </trkpt>
      <trkpt lat="41.5273390" lon="-4.7459740">
        <ele>693.5</ele>
        <time>2019-05-25T13:34:36Z</time>
      </trkpt>
      <trkpt lat="41.5274060" lon="-4.7459780">
        <ele>693.5</ele>
        <time>2019-05-25T13:34:37Z</time>
      </trkpt>
      <trkpt lat="41.5274720" lon="-4.7459910">
        <ele>693.6</ele>
        <time>2019-05-25T13:34:38Z</time>
      </trkpt>
      <trkpt lat="41.5275420" lon="-4.7460080">
        <ele>693.6</ele>
        <time>2019-05-25T13:34:39Z</time>
      </trkpt>
      <trkpt lat="41.5276070" lon="-4.7460100">
        <ele>693.6</ele>
        <time>2019-05-25T13:34:40Z</time>
      </trkpt>
      <trkpt lat="41.5276720" lon="-4.7460230">
        <ele>693.7</ele>
        <time>2019-05-25T13:34:41Z</time>
      </trkpt>
      <trkpt lat="41.5277350" lon="-4.7460260">
        <ele>693.7</ele>
        <time>2019-05-25T13:34:42Z</time>
      </trkpt>
      <trkpt lat="41.5278000" lon="-4.7460280">
        <ele>693.7</ele>
        <time>2019-05-25T13:34:43Z</time>
      </trkpt>
      <trkpt lat="41.5278640" lon="-4.7460270">
        <ele>693.7</ele>
        <time>2019-05-25T13:34:44Z</time>
      </trkpt>
      <trkpt lat="41.5279330" lon="-4.7460410">
        <ele>693.8</ele>
        <time>2019-05-25T13:34:45Z</time>
      </trkpt>
      <trkpt lat="41.5279980" lon="-4.7460440">
        <ele>693.8</ele>
        <time>2019-05-25T13:34:46Z</time>
      </trkpt>
      <trkpt lat="41.5280620" lon="-4.7460600">
        <ele>693.8</ele>
        <time>2019-05-25T13:34:47Z</time>
      </trkpt>
      <trkpt lat="41.5281280" lon="-4.7460780">
        <ele>693.9</ele>
        <time>2019-05-25T13:34:48Z</time>
      </trkpt>
      <trkpt lat="41.5281910" lon="-4.7460830">
        <ele>693.9</ele>
        <time>2019-05-25T13:34:49Z</time>
      </trkpt>
      <trkpt lat="41.5282540" lon="-4.7460880">
        <ele>694.0</ele>
        <time>2019-05-25T13:34:50Z</time>
      </trkpt>
      <trkpt lat="41.5283180" lon="-4.7460960">
        <ele>694.0</ele>
        <time>2019-05-25T13:34:51Z</time>
      </trkpt>
      <trkpt lat="41.5283760" lon="-4.7461100">
        <ele>694.0</ele>
        <time>2019-05-25T13:34:52Z</time>
      </trkpt>
      <trkpt lat="41.5284330" lon="-4.7461180">
        <ele>694.0</ele>
        <time>2019-05-25T13:34:53Z</time>
      </trkpt>
      <trkpt lat="41.5284880" lon="-4.7461170">
        <ele>694.1</ele>
        <time>2019-05-25T13:34:54Z</time>
      </trkpt>
      <trkpt lat="41.5285440" lon="-4.7461400">
        <ele>694.1</ele>
        <time>2019-05-25T13:34:55Z</time>
      </trkpt>
      <trkpt lat="41.5286060" lon="-4.7461510">
        <ele>694.1</ele>
        <time>2019-05-25T13:34:56Z</time>
      </trkpt>
      <trkpt lat="41.5286700" lon="-4.7461590">
        <ele>694.1</ele>
        <time>2019-05-25T13:34:57Z</time>
      </trkpt>
      <trkpt lat="41.5287270" lon="-4.7461670">
        <ele>694.1</ele>
        <time>2019-05-25T13:34:58Z</time>
      </trkpt>
      <trkpt lat="41.5287840" lon="-4.7461730">
        <ele>694.1</ele>
        <time>2019-05-25T13:34:59Z</time>
      </trkpt>
      <trkpt lat="41.5288390" lon="-4.7461830">
        <ele>694.0</ele>
        <time>2019-05-25T13:35:00Z</time>
      </trkpt>
      <trkpt lat="41.5288900" lon="-4.7461810">
        <ele>693.8</ele>
        <time>2019-05-25T13:35:01Z</time>
      </trkpt>
      <trkpt lat="41.5289490" lon="-4.7461860">
        <ele>693.6</ele>
        <time>2019-05-25T13:35:02Z</time>
      </trkpt>
      <trkpt lat="41.5290020" lon="-4.7461930">
        <ele>693.4</ele>
        <time>2019-05-25T13:35:03Z</time>
      </trkpt>
      <trkpt lat="41.5290620" lon="-4.7462030">
        <ele>693.1</ele>
        <time>2019-05-25T13:35:04Z</time>
      </trkpt>
      <trkpt lat="41.5291230" lon="-4.7462110">
        <ele>692.9</ele>
        <time>2019-05-25T13:35:05Z</time>
      </trkpt>
      <trkpt lat="41.5291820" lon="-4.7462190">
        <ele>692.7</ele>
        <time>2019-05-25T13:35:06Z</time>
      </trkpt>
      <trkpt lat="41.5292430" lon="-4.7462220">
        <ele>692.5</ele>
        <time>2019-05-25T13:35:07Z</time>
      </trkpt>
      <trkpt lat="41.5293020" lon="-4.7462300">
        <ele>692.4</ele>
        <time>2019-05-25T13:35:08Z</time>
      </trkpt>
      <trkpt lat="41.5293590" lon="-4.7462220">
        <ele>692.2</ele>
        <time>2019-05-25T13:35:09Z</time>
      </trkpt>
      <trkpt lat="41.5294090" lon="-4.7462360">
        <ele>692.1</ele>
        <time>2019-05-25T13:35:10Z</time>
      </trkpt>
      <trkpt lat="41.5294520" lon="-4.7462420">
        <ele>692.0</ele>
        <time>2019-05-25T13:35:11Z</time>
      </trkpt>
      <trkpt lat="41.5294980" lon="-4.7462430">
        <ele>691.8</ele>
        <time>2019-05-25T13:35:12Z</time>
      </trkpt>
      <trkpt lat="41.5295410" lon="-4.7462560">
        <ele>691.7</ele>
        <time>2019-05-25T13:35:13Z</time>
      </trkpt>
      <trkpt lat="41.5295730" lon="-4.7462740">
        <ele>691.7</ele>
        <time>2019-05-25T13:35:14Z</time>
      </trkpt>
      <trkpt lat="41.5296100" lon="-4.7463160">
        <ele>691.7</ele>
        <time>2019-05-25T13:35:15Z</time>
      </trkpt>
      <trkpt lat="41.5296460" lon="-4.7463720">
        <ele>691.5</ele>
        <time>2019-05-25T13:35:16Z</time>
      </trkpt>
      <trkpt lat="41.5296610" lon="-4.7464450">
        <ele>691.4</ele>
        <time>2019-05-25T13:35:17Z</time>
      </trkpt>
      <trkpt lat="41.5296840" lon="-4.7465110">
        <ele>691.2</ele>
        <time>2019-05-25T13:35:18Z</time>
      </trkpt>
      <trkpt lat="41.5296820" lon="-4.7465760">
        <ele>691.1</ele>
        <time>2019-05-25T13:35:19Z</time>
      </trkpt>
      <trkpt lat="41.5296890" lon="-4.7466420">
        <ele>691.0</ele>
        <time>2019-05-25T13:35:20Z</time>
      </trkpt>
      <trkpt lat="41.5297060" lon="-4.7467130">
        <ele>690.9</ele>
        <time>2019-05-25T13:35:21Z</time>
      </trkpt>
      <trkpt lat="41.5297140" lon="-4.7467730">
        <ele>690.9</ele>
        <time>2019-05-25T13:35:22Z</time>
      </trkpt>
      <trkpt lat="41.5297350" lon="-4.7468490">
        <ele>690.9</ele>
        <time>2019-05-25T13:35:23Z</time>
      </trkpt>
      <trkpt lat="41.5297550" lon="-4.7469170">
        <ele>690.9</ele>
        <time>2019-05-25T13:35:24Z</time>
      </trkpt>
      <trkpt lat="41.5297770" lon="-4.7469940">
        <ele>691.0</ele>
        <time>2019-05-25T13:35:25Z</time>
      </trkpt>
      <trkpt lat="41.5297910" lon="-4.7470600">
        <ele>691.0</ele>
        <time>2019-05-25T13:35:26Z</time>
      </trkpt>
      <trkpt lat="41.5298100" lon="-4.7471340">
        <ele>691.0</ele>
        <time>2019-05-25T13:35:27Z</time>
      </trkpt>
      <trkpt lat="41.5298410" lon="-4.7472180">
        <ele>691.0</ele>
        <time>2019-05-25T13:35:28Z</time>
      </trkpt>
      <trkpt lat="41.5298680" lon="-4.7472870">
        <ele>691.0</ele>
        <time>2019-05-25T13:35:29Z</time>
      </trkpt>
      <trkpt lat="41.5298690" lon="-4.7473590">
        <ele>691.1</ele>
        <time>2019-05-25T13:35:30Z</time>
      </trkpt>
      <trkpt lat="41.5298960" lon="-4.7474270">
        <ele>691.1</ele>
        <time>2019-05-25T13:35:31Z</time>
      </trkpt>
      <trkpt lat="41.5298990" lon="-4.7474920">
        <ele>691.1</ele>
        <time>2019-05-25T13:35:32Z</time>
      </trkpt>
      <trkpt lat="41.5299180" lon="-4.7475600">
        <ele>691.1</ele>
        <time>2019-05-25T13:35:33Z</time>
      </trkpt>
      <trkpt lat="41.5299310" lon="-4.7476330">
        <ele>691.1</ele>
        <time>2019-05-25T13:35:34Z</time>
      </trkpt>
      <trkpt lat="41.5299470" lon="-4.7477010">
        <ele>691.1</ele>
        <time>2019-05-25T13:35:35Z</time>
      </trkpt>
      <trkpt lat="41.5299720" lon="-4.7477870">
        <ele>691.2</ele>
        <time>2019-05-25T13:35:36Z</time>
      </trkpt>
      <trkpt lat="41.5299860" lon="-4.7478520">
        <ele>691.2</ele>
        <time>2019-05-25T13:35:37Z</time>
      </trkpt>
      <trkpt lat="41.5299990" lon="-4.7479220">
        <ele>691.2</ele>
        <time>2019-05-25T13:35:38Z</time>
      </trkpt>
      <trkpt lat="41.5300160" lon="-4.7479810">
        <ele>691.2</ele>
        <time>2019-05-25T13:35:39Z</time>
      </trkpt>
      <trkpt lat="41.5300250" lon="-4.7480490">
        <ele>691.1</ele>
        <time>2019-05-25T13:35:40Z</time>
      </trkpt>
      <trkpt lat="41.5300330" lon="-4.7481170">
        <ele>691.1</ele>
        <time>2019-05-25T13:35:41Z</time>
      </trkpt>
      <trkpt lat="41.5300380" lon="-4.7481810">
        <ele>691.0</ele>
        <time>2019-05-25T13:35:42Z</time>
      </trkpt>
      <trkpt lat="41.5300530" lon="-4.7482550">
        <ele>690.6</ele>
        <time>2019-05-25T13:35:43Z</time>
      </trkpt>
      <trkpt lat="41.5300640" lon="-4.7483300">
        <ele>690.1</ele>
        <time>2019-05-25T13:35:44Z</time>
      </trkpt>
      <trkpt lat="41.5300720" lon="-4.7484050">
        <ele>689.6</ele>
        <time>2019-05-25T13:35:45Z</time>
      </trkpt>
      <trkpt lat="41.5300690" lon="-4.7484690">
        <ele>689.6</ele>
        <time>2019-05-25T13:35:46Z</time>
      </trkpt>
      <trkpt lat="41.5300710" lon="-4.7485460">
        <ele>689.6</ele>
        <time>2019-05-25T13:35:47Z</time>
      </trkpt>
      <trkpt lat="41.5300590" lon="-4.7486110">
        <ele>689.6</ele>
        <time>2019-05-25T13:35:48Z</time>
      </trkpt>
      <trkpt lat="41.5300380" lon="-4.7486990">
        <ele>689.5</ele>
        <time>2019-05-25T13:35:49Z</time>
      </trkpt>
      <trkpt lat="41.5300170" lon="-4.7487830">
        <ele>689.5</ele>
        <time>2019-05-25T13:35:50Z</time>
      </trkpt>
      <trkpt lat="41.5300000" lon="-4.7488660">
        <ele>689.5</ele>
        <time>2019-05-25T13:35:51Z</time>
      </trkpt>
      <trkpt lat="41.5299790" lon="-4.7489370">
        <ele>689.5</ele>
        <time>2019-05-25T13:35:52Z</time>
      </trkpt>
      <trkpt lat="41.5299610" lon="-4.7490260">
        <ele>689.5</ele>
        <time>2019-05-25T13:35:53Z</time>
      </trkpt>
      <trkpt lat="41.5299400" lon="-4.7491030">
        <ele>689.5</ele>
        <time>2019-05-25T13:35:54Z</time>
      </trkpt>
      <trkpt lat="41.5299240" lon="-4.7491750">
        <ele>689.5</ele>
        <time>2019-05-25T13:35:55Z</time>
      </trkpt>
      <trkpt lat="41.5299090" lon="-4.7492590">
        <ele>689.5</ele>
        <time>2019-05-25T13:35:56Z</time>
      </trkpt>
      <trkpt lat="41.5299120" lon="-4.7493330">
        <ele>689.5</ele>
        <time>2019-05-25T13:35:57Z</time>
      </trkpt>
      <trkpt lat="41.5299210" lon="-4.7494140">
        <ele>689.5</ele>
        <time>2019-05-25T13:35:58Z</time>
      </trkpt>
      <trkpt lat="41.5299330" lon="-4.7494840">
        <ele>689.5</ele>
        <time>2019-05-25T13:35:59Z</time>
      </trkpt>
      <trkpt lat="41.5299310" lon="-4.7495330">
        <ele>689.5</ele>
        <time>2019-05-25T13:36:00Z</time>
      </trkpt>
      <trkpt lat="41.5299410" lon="-4.7495920">
        <ele>689.5</ele>
        <time>2019-05-25T13:36:01Z</time>
      </trkpt>
      <trkpt lat="41.5299320" lon="-4.7496630">
        <ele>689.5</ele>
        <time>2019-05-25T13:36:02Z</time>
      </trkpt>
      <trkpt lat="41.5299230" lon="-4.7497410">
        <ele>689.5</ele>
        <time>2019-05-25T13:36:03Z</time>
      </trkpt>
      <trkpt lat="41.5298880" lon="-4.7498100">
        <ele>689.5</ele>
        <time>2019-05-25T13:36:04Z</time>
      </trkpt>
      <trkpt lat="41.5299120" lon="-4.7498860">
        <ele>689.5</ele>
        <time>2019-05-25T13:36:05Z</time>
      </trkpt>
      <trkpt lat="41.5299340" lon="-4.7499520">
        <ele>689.5</ele>
        <time>2019-05-25T13:36:06Z</time>
      </trkpt>
      <trkpt lat="41.5299610" lon="-4.7500160">
        <ele>689.5</ele>
        <time>2019-05-25T13:36:07Z</time>
      </trkpt>
      <trkpt lat="41.5299880" lon="-4.7500780">
        <ele>689.5</ele>
        <time>2019-05-25T13:36:08Z</time>
      </trkpt>
      <trkpt lat="41.5299970" lon="-4.7501520">
        <ele>689.5</ele>
        <time>2019-05-25T13:36:09Z</time>
      </trkpt>
      <trkpt lat="41.5300150" lon="-4.7502350">
        <ele>689.5</ele>
        <time>2019-05-25T13:36:10Z</time>
      </trkpt>
      <trkpt lat="41.5300450" lon="-4.7503120">
        <ele>689.5</ele>
        <time>2019-05-25T13:36:11Z</time>
      </trkpt>
      <trkpt lat="41.5300680" lon="-4.7504080">
        <ele>689.5</ele>
        <time>2019-05-25T13:36:12Z</time>
      </trkpt>
      <trkpt lat="41.5300810" lon="-4.7504790">
        <ele>689.5</ele>
        <time>2019-05-25T13:36:13Z</time>
      </trkpt>
      <trkpt lat="41.5301010" lon="-4.7505520">
        <ele>689.5</ele>
        <time>2019-05-25T13:36:14Z</time>
      </trkpt>
      <trkpt lat="41.5301220" lon="-4.7506280">
        <ele>689.5</ele>
        <time>2019-05-25T13:36:15Z</time>
      </trkpt>
      <trkpt lat="41.5301430" lon="-4.7507100">
        <ele>689.5</ele>
        <time>2019-05-25T13:36:16Z</time>
      </trkpt>
      <trkpt lat="41.5301710" lon="-4.7507780">
        <ele>689.5</ele>
        <time>2019-05-25T13:36:17Z</time>
      </trkpt>
      <trkpt lat="41.5301910" lon="-4.7508460">
        <ele>689.5</ele>
        <time>2019-05-25T13:36:18Z</time>
      </trkpt>
      <trkpt lat="41.5302060" lon="-4.7509100">
        <ele>689.5</ele>
        <time>2019-05-25T13:36:19Z</time>
      </trkpt>
      <trkpt lat="41.5302100" lon="-4.7509610">
        <ele>689.6</ele>
        <time>2019-05-25T13:36:20Z</time>
      </trkpt>
      <trkpt lat="41.5302180" lon="-4.7510150">
        <ele>689.7</ele>
        <time>2019-05-25T13:36:21Z</time>
      </trkpt>
      <trkpt lat="41.5301870" lon="-4.7510200">
        <ele>689.8</ele>
        <time>2019-05-25T13:36:22Z</time>
      </trkpt>
      <trkpt lat="41.5301810" lon="-4.7510680">
        <ele>689.9</ele>
        <time>2019-05-25T13:36:23Z</time>
      </trkpt>
      <trkpt lat="41.5302050" lon="-4.7511670">
        <ele>690.2</ele>
        <time>2019-05-25T13:36:24Z</time>
      </trkpt>
      <trkpt lat="41.5302130" lon="-4.7512450">
        <ele>690.6</ele>
        <time>2019-05-25T13:36:25Z</time>
      </trkpt>
      <trkpt lat="41.5302040" lon="-4.7513090">
        <ele>690.9</ele>
        <time>2019-05-25T13:36:26Z</time>
      </trkpt>
      <trkpt lat="41.5301960" lon="-4.7513630">
        <ele>691.0</ele>
        <time>2019-05-25T13:36:27Z</time>
      </trkpt>
      <trkpt lat="41.5301910" lon="-4.7514150">
        <ele>691.2</ele>
        <time>2019-05-25T13:36:28Z</time>
      </trkpt>
      <trkpt lat="41.5301980" lon="-4.7514500">
        <ele>691.3</ele>
        <time>2019-05-25T13:36:29Z</time>
      </trkpt>
      <trkpt lat="41.5301870" lon="-4.7514990">
        <ele>691.3</ele>
        <time>2019-05-25T13:36:30Z</time>
      </trkpt>
      <trkpt lat="41.5301860" lon="-4.7515420">
        <ele>691.4</ele>
        <time>2019-05-25T13:36:31Z</time>
      </trkpt>
      <trkpt lat="41.5301930" lon="-4.7515850">
        <ele>691.4</ele>
        <time>2019-05-25T13:36:32Z</time>
      </trkpt>
      <trkpt lat="41.5301690" lon="-4.7516110">
        <ele>691.5</ele>
        <time>2019-05-25T13:36:45Z</time>
      </trkpt>
      <trkpt lat="41.5301620" lon="-4.7516540">
        <ele>691.6</ele>
        <time>2019-05-25T13:37:36Z</time>
      </trkpt>
      <trkpt lat="41.5301200" lon="-4.7516970">
        <ele>691.6</ele>
        <time>2019-05-25T13:37:38Z</time>
      </trkpt>
      <trkpt lat="41.5300910" lon="-4.7517030">
        <ele>691.6</ele>
        <time>2019-05-25T13:37:39Z</time>
      </trkpt>
      <trkpt lat="41.5300610" lon="-4.7517020">
        <ele>691.6</ele>
        <time>2019-05-25T13:37:40Z</time>
      </trkpt>
      <trkpt lat="41.5300260" lon="-4.7516920">
        <ele>691.7</ele>
        <time>2019-05-25T13:37:41Z</time>
      </trkpt>
      <trkpt lat="41.5299860" lon="-4.7516750">
        <ele>691.7</ele>
        <time>2019-05-25T13:37:42Z</time>
      </trkpt>
      <trkpt lat="41.5299460" lon="-4.7516620">
        <ele>691.7</ele>
        <time>2019-05-25T13:37:43Z</time>
      </trkpt>
      <trkpt lat="41.5299100" lon="-4.7516510">
        <ele>691.7</ele>
        <time>2019-05-25T13:37:44Z</time>
      </trkpt>
      <trkpt lat="41.5298540" lon="-4.7516390">
        <ele>691.8</ele>
        <time>2019-05-25T13:37:45Z</time>
      </trkpt>
      <trkpt lat="41.5298130" lon="-4.7516150">
        <ele>691.8</ele>
        <time>2019-05-25T13:37:46Z</time>
      </trkpt>
      <trkpt lat="41.5297570" lon="-4.7515810">
        <ele>691.8</ele>
        <time>2019-05-25T13:37:47Z</time>
      </trkpt>
      <trkpt lat="41.5297160" lon="-4.7515740">
        <ele>691.8</ele>
        <time>2019-05-25T13:37:48Z</time>
      </trkpt>
      <trkpt lat="41.5296760" lon="-4.7515660">
        <ele>691.8</ele>
        <time>2019-05-25T13:37:49Z</time>
      </trkpt>
      <trkpt lat="41.5296360" lon="-4.7515550">
        <ele>691.9</ele>
        <time>2019-05-25T13:37:50Z</time>
      </trkpt>
      <trkpt lat="41.5295900" lon="-4.7515450">
        <ele>691.9</ele>
        <time>2019-05-25T13:37:51Z</time>
      </trkpt>
      <trkpt lat="41.5295490" lon="-4.7515400">
        <ele>691.9</ele>
        <time>2019-05-25T13:37:52Z</time>
      </trkpt>
      <trkpt lat="41.5295010" lon="-4.7515620">
        <ele>691.9</ele>
        <time>2019-05-25T13:37:54Z</time>
      </trkpt>
      <trkpt lat="41.5294770" lon="-4.7516010">
        <ele>691.9</ele>
        <time>2019-05-25T13:37:55Z</time>
      </trkpt>
      <trkpt lat="41.5294690" lon="-4.7516500">
        <ele>692.1</ele>
        <time>2019-05-25T13:37:56Z</time>
      </trkpt>
      <trkpt lat="41.5294650" lon="-4.7517040">
        <ele>692.1</ele>
        <time>2019-05-25T13:37:57Z</time>
      </trkpt>
      <trkpt lat="41.5294600" lon="-4.7517580">
        <ele>692.2</ele>
        <time>2019-05-25T13:37:58Z</time>
      </trkpt>
      <trkpt lat="41.5294570" lon="-4.7518130">
        <ele>692.2</ele>
        <time>2019-05-25T13:37:59Z</time>
      </trkpt>
      <trkpt lat="41.5294520" lon="-4.7518720">
        <ele>692.3</ele>
        <time>2019-05-25T13:38:00Z</time>
      </trkpt>
      <trkpt lat="41.5294450" lon="-4.7519260">
        <ele>692.3</ele>
        <time>2019-05-25T13:38:01Z</time>
      </trkpt>
      <trkpt lat="41.5294380" lon="-4.7519800">
        <ele>692.3</ele>
        <time>2019-05-25T13:38:02Z</time>
      </trkpt>
      <trkpt lat="41.5294290" lon="-4.7520360">
        <ele>692.3</ele>
        <time>2019-05-25T13:38:03Z</time>
      </trkpt>
      <trkpt lat="41.5294030" lon="-4.7520990">
        <ele>692.3</ele>
        <time>2019-05-25T13:38:04Z</time>
      </trkpt>
      <trkpt lat="41.5293930" lon="-4.7521510">
        <ele>692.3</ele>
        <time>2019-05-25T13:38:05Z</time>
      </trkpt>
      <trkpt lat="41.5293820" lon="-4.7522000">
        <ele>692.3</ele>
        <time>2019-05-25T13:38:06Z</time>
      </trkpt>
      <trkpt lat="41.5293710" lon="-4.7522420">
        <ele>692.3</ele>
        <time>2019-05-25T13:38:07Z</time>
      </trkpt>
      <trkpt lat="41.5293690" lon="-4.7522800">
        <ele>692.3</ele>
        <time>2019-05-25T13:38:08Z</time>
      </trkpt>
      <trkpt lat="41.5293720" lon="-4.7523230">
        <ele>692.3</ele>
        <time>2019-05-25T13:38:09Z</time>
      </trkpt>
      <trkpt lat="41.5293390" lon="-4.7523410">
        <ele>692.3</ele>
        <time>2019-05-25T13:38:11Z</time>
      </trkpt>
      <trkpt lat="41.5292990" lon="-4.7523340">
        <ele>692.2</ele>
        <time>2019-05-25T13:38:12Z</time>
      </trkpt>
      <trkpt lat="41.5292720" lon="-4.7523350">
        <ele>692.2</ele>
        <time>2019-05-25T13:38:13Z</time>
      </trkpt>
      <trkpt lat="41.5292280" lon="-4.7523390">
        <ele>692.2</ele>
        <time>2019-05-25T13:38:14Z</time>
      </trkpt>
      <trkpt lat="41.5291920" lon="-4.7523400">
        <ele>692.2</ele>
        <time>2019-05-25T13:38:15Z</time>
      </trkpt>
      <trkpt lat="41.5291530" lon="-4.7523340">
        <ele>692.2</ele>
        <time>2019-05-25T13:38:16Z</time>
      </trkpt>
      <trkpt lat="41.5291080" lon="-4.7523190">
        <ele>692.2</ele>
        <time>2019-05-25T13:38:17Z</time>
      </trkpt>
      <trkpt lat="41.5290630" lon="-4.7523190">
        <ele>692.1</ele>
        <time>2019-05-25T13:38:18Z</time>
      </trkpt>
      <trkpt lat="41.5290190" lon="-4.7523160">
        <ele>692.1</ele>
        <time>2019-05-25T13:38:19Z</time>
      </trkpt>
      <trkpt lat="41.5289920" lon="-4.7523050">
        <ele>692.1</ele>
        <time>2019-05-25T13:38:20Z</time>
      </trkpt>
      <trkpt lat="41.5289370" lon="-4.7523400">
        <ele>692.2</ele>
        <time>2019-05-25T13:38:22Z</time>
      </trkpt>
      <trkpt lat="41.5289360" lon="-4.7524020">
        <ele>692.2</ele>
        <time>2019-05-25T13:38:23Z</time>
      </trkpt>
      <trkpt lat="41.5288780" lon="-4.7524380">
        <ele>692.2</ele>
        <time>2019-05-25T13:38:25Z</time>
      </trkpt>
      <trkpt lat="41.5288540" lon="-4.7524600">
        <ele>692.2</ele>
        <time>2019-05-25T13:38:26Z</time>
      </trkpt>
      <trkpt lat="41.5288190" lon="-4.7524760">
        <ele>692.2</ele>
        <time>2019-05-25T13:38:27Z</time>
      </trkpt>
      <trkpt lat="41.5288060" lon="-4.7525080">
        <ele>692.2</ele>
        <time>2019-05-25T13:38:34Z</time>
      </trkpt>
      <trkpt lat="41.5287790" lon="-4.7525100">
        <ele>692.2</ele>
        <time>2019-05-25T13:38:41Z</time>
      </trkpt>
      <trkpt lat="41.5287510" lon="-4.7525520">
        <ele>692.2</ele>
        <time>2019-05-25T13:38:51Z</time>
      </trkpt>
      <trkpt lat="41.5287350" lon="-4.7525840">
        <ele>692.2</ele>
        <time>2019-05-25T13:38:53Z</time>
      </trkpt>
      <trkpt lat="41.5286910" lon="-4.7526210">
        <ele>692.2</ele>
        <time>2019-05-25T13:38:55Z</time>
      </trkpt>
      <trkpt lat="41.5286570" lon="-4.7526320">
        <ele>692.2</ele>
        <time>2019-05-25T13:38:56Z</time>
      </trkpt>
      <trkpt lat="41.5286220" lon="-4.7526370">
        <ele>692.2</ele>
        <time>2019-05-25T13:38:57Z</time>
      </trkpt>
      <trkpt lat="41.5285830" lon="-4.7526390">
        <ele>692.3</ele>
        <time>2019-05-25T13:38:58Z</time>
      </trkpt>
      <trkpt lat="41.5285440" lon="-4.7526370">
        <ele>692.4</ele>
        <time>2019-05-25T13:38:59Z</time>
      </trkpt>
      <trkpt lat="41.5285130" lon="-4.7526570">
        <ele>692.4</ele>
        <time>2019-05-25T13:39:00Z</time>
      </trkpt>
      <trkpt lat="41.5284900" lon="-4.7526900">
        <ele>692.4</ele>
        <time>2019-05-25T13:39:01Z</time>
      </trkpt>
      <trkpt lat="41.5284760" lon="-4.7527300">
        <ele>692.4</ele>
        <time>2019-05-25T13:39:02Z</time>
      </trkpt>
      <trkpt lat="41.5284640" lon="-4.7527730">
        <ele>692.4</ele>
        <time>2019-05-25T13:39:03Z</time>
      </trkpt>
      <trkpt lat="41.5284490" lon="-4.7528140">
        <ele>692.4</ele>
        <time>2019-05-25T13:39:04Z</time>
      </trkpt>
      <trkpt lat="41.5284340" lon="-4.7528550">
        <ele>692.4</ele>
        <time>2019-05-25T13:39:05Z</time>
      </trkpt>
      <trkpt lat="41.5284200" lon="-4.7528930">
        <ele>692.4</ele>
        <time>2019-05-25T13:39:06Z</time>
      </trkpt>
      <trkpt lat="41.5284150" lon="-4.7529550">
        <ele>692.4</ele>
        <time>2019-05-25T13:39:08Z</time>
      </trkpt>
      <trkpt lat="41.5284430" lon="-4.7529780">
        <ele>692.4</ele>
        <time>2019-05-25T13:39:10Z</time>
      </trkpt>
      <trkpt lat="41.5284700" lon="-4.7529660">
        <ele>692.4</ele>
        <time>2019-05-25T13:39:24Z</time>
      </trkpt>
      <trkpt lat="41.5284430" lon="-4.7529630">
        <ele>692.5</ele>
        <time>2019-05-25T13:39:30Z</time>
      </trkpt>
      <trkpt lat="41.5284190" lon="-4.7529160">
        <ele>692.5</ele>
        <time>2019-05-25T13:41:07Z</time>
      </trkpt>
      <trkpt lat="41.5284240" lon="-4.7528360">
        <ele>692.4</ele>
        <time>2019-05-25T13:41:09Z</time>
      </trkpt>
      <trkpt lat="41.5284310" lon="-4.7527970">
        <ele>692.4</ele>
        <time>2019-05-25T13:41:10Z</time>
      </trkpt>
      <trkpt lat="41.5284380" lon="-4.7527550">
        <ele>692.4</ele>
        <time>2019-05-25T13:41:12Z</time>
      </trkpt>
      <trkpt lat="41.5284610" lon="-4.7527190">
        <ele>692.4</ele>
        <time>2019-05-25T13:41:16Z</time>
      </trkpt>
      <trkpt lat="41.5285020" lon="-4.7526980">
        <ele>692.4</ele>
        <time>2019-05-25T13:41:19Z</time>
      </trkpt>
      <trkpt lat="41.5285340" lon="-4.7526700">
        <ele>692.4</ele>
        <time>2019-05-25T13:41:20Z</time>
      </trkpt>
      <trkpt lat="41.5285690" lon="-4.7526300">
        <ele>692.3</ele>
        <time>2019-05-25T13:41:23Z</time>
      </trkpt>
      <trkpt lat="41.5285870" lon="-4.7526010">
        <ele>692.3</ele>
        <time>2019-05-25T13:41:24Z</time>
      </trkpt>
      <trkpt lat="41.5288780" lon="-4.7525200">
        <ele>691.9</ele>
        <time>2019-05-25T13:41:26Z</time>
      </trkpt>
      <trkpt lat="41.5288980" lon="-4.7524460">
        <ele>691.8</ele>
        <time>2019-05-25T13:41:27Z</time>
      </trkpt>
      <trkpt lat="41.5289370" lon="-4.7523780">
        <ele>692.0</ele>
        <time>2019-05-25T13:41:28Z</time>
      </trkpt>
      <trkpt lat="41.5289490" lon="-4.7523260">
        <ele>692.1</ele>
        <time>2019-05-25T13:41:30Z</time>
      </trkpt>
      <trkpt lat="41.5289810" lon="-4.7522650">
        <ele>692.1</ele>
        <time>2019-05-25T13:41:32Z</time>
      </trkpt>
      <trkpt lat="41.5290030" lon="-4.7522390">
        <ele>692.2</ele>
        <time>2019-05-25T13:41:33Z</time>
      </trkpt>
      <trkpt lat="41.5290530" lon="-4.7522220">
        <ele>692.2</ele>
        <time>2019-05-25T13:41:34Z</time>
      </trkpt>
      <trkpt lat="41.5290950" lon="-4.7521810">
        <ele>692.2</ele>
        <time>2019-05-25T13:41:35Z</time>
      </trkpt>
      <trkpt lat="41.5291340" lon="-4.7521710">
        <ele>692.2</ele>
        <time>2019-05-25T13:41:36Z</time>
      </trkpt>
      <trkpt lat="41.5291800" lon="-4.7521750">
        <ele>692.2</ele>
        <time>2019-05-25T13:41:37Z</time>
      </trkpt>
      <trkpt lat="41.5292080" lon="-4.7521860">
        <ele>692.2</ele>
        <time>2019-05-25T13:41:39Z</time>
      </trkpt>
      <trkpt lat="41.5293010" lon="-4.7521990">
        <ele>692.3</ele>
        <time>2019-05-25T13:41:42Z</time>
      </trkpt>
      <trkpt lat="41.5293680" lon="-4.7522320">
        <ele>692.3</ele>
        <time>2019-05-25T13:41:43Z</time>
      </trkpt>
      <trkpt lat="41.5293750" lon="-4.7521760">
        <ele>692.3</ele>
        <time>2019-05-25T13:41:44Z</time>
      </trkpt>
      <trkpt lat="41.5294000" lon="-4.7521490">
        <ele>692.3</ele>
        <time>2019-05-25T13:41:45Z</time>
      </trkpt>
      <trkpt lat="41.5294090" lon="-4.7520990">
        <ele>692.3</ele>
        <time>2019-05-25T13:41:46Z</time>
      </trkpt>
      <trkpt lat="41.5294170" lon="-4.7520450">
        <ele>692.3</ele>
        <time>2019-05-25T13:41:47Z</time>
      </trkpt>
      <trkpt lat="41.5294180" lon="-4.7519900">
        <ele>692.3</ele>
        <time>2019-05-25T13:41:48Z</time>
      </trkpt>
      <trkpt lat="41.5294180" lon="-4.7519340">
        <ele>692.3</ele>
        <time>2019-05-25T13:41:49Z</time>
      </trkpt>
      <trkpt lat="41.5294110" lon="-4.7518760">
        <ele>692.3</ele>
        <time>2019-05-25T13:41:50Z</time>
      </trkpt>
      <trkpt lat="41.5294060" lon="-4.7518170">
        <ele>692.3</ele>
        <time>2019-05-25T13:41:51Z</time>
      </trkpt>
      <trkpt lat="41.5294040" lon="-4.7517710">
        <ele>692.2</ele>
        <time>2019-05-25T13:41:52Z</time>
      </trkpt>
      <trkpt lat="41.5294050" lon="-4.7517190">
        <ele>692.2</ele>
        <time>2019-05-25T13:41:53Z</time>
      </trkpt>
      <trkpt lat="41.5294150" lon="-4.7516480">
        <ele>692.1</ele>
        <time>2019-05-25T13:41:54Z</time>
      </trkpt>
      <trkpt lat="41.5294330" lon="-4.7515850">
        <ele>692.0</ele>
        <time>2019-05-25T13:41:55Z</time>
      </trkpt>
      <trkpt lat="41.5294690" lon="-4.7515320">
        <ele>691.9</ele>
        <time>2019-05-25T13:41:56Z</time>
      </trkpt>
      <trkpt lat="41.5295220" lon="-4.7515030">
        <ele>691.9</ele>
        <time>2019-05-25T13:41:57Z</time>
      </trkpt>
      <trkpt lat="41.5295790" lon="-4.7515030">
        <ele>691.9</ele>
        <time>2019-05-25T13:41:58Z</time>
      </trkpt>
      <trkpt lat="41.5296340" lon="-4.7515200">
        <ele>691.9</ele>
        <time>2019-05-25T13:41:59Z</time>
      </trkpt>
      <trkpt lat="41.5296820" lon="-4.7515360">
        <ele>691.9</ele>
        <time>2019-05-25T13:42:00Z</time>
      </trkpt>
      <trkpt lat="41.5297300" lon="-4.7515490">
        <ele>691.8</ele>
        <time>2019-05-25T13:42:01Z</time>
      </trkpt>
      <trkpt lat="41.5297790" lon="-4.7515630">
        <ele>691.8</ele>
        <time>2019-05-25T13:42:02Z</time>
      </trkpt>
      <trkpt lat="41.5298220" lon="-4.7515750">
        <ele>691.8</ele>
        <time>2019-05-25T13:42:03Z</time>
      </trkpt>
      <trkpt lat="41.5298660" lon="-4.7515850">
        <ele>691.8</ele>
        <time>2019-05-25T13:42:04Z</time>
      </trkpt>
      <trkpt lat="41.5299150" lon="-4.7515980">
        <ele>691.8</ele>
        <time>2019-05-25T13:42:05Z</time>
      </trkpt>
      <trkpt lat="41.5299620" lon="-4.7516100">
        <ele>691.7</ele>
        <time>2019-05-25T13:42:06Z</time>
      </trkpt>
      <trkpt lat="41.5300070" lon="-4.7516330">
        <ele>691.7</ele>
        <time>2019-05-25T13:42:07Z</time>
      </trkpt>
      <trkpt lat="41.5300500" lon="-4.7516540">
        <ele>691.7</ele>
        <time>2019-05-25T13:42:08Z</time>
      </trkpt>
      <trkpt lat="41.5300930" lon="-4.7516740">
        <ele>691.7</ele>
        <time>2019-05-25T13:42:09Z</time>
      </trkpt>
      <trkpt lat="41.5301270" lon="-4.7516920">
        <ele>691.7</ele>
        <time>2019-05-25T13:42:10Z</time>
      </trkpt>
      <trkpt lat="41.5301600" lon="-4.7517130">
        <ele>691.6</ele>
        <time>2019-05-25T13:42:11Z</time>
      </trkpt>
      <trkpt lat="41.5301870" lon="-4.7517400">
        <ele>691.6</ele>
        <time>2019-05-25T13:42:12Z</time>
      </trkpt>
      <trkpt lat="41.5302060" lon="-4.7517770">
        <ele>691.6</ele>
        <time>2019-05-25T13:42:13Z</time>
      </trkpt>
      <trkpt lat="41.5301890" lon="-4.7518270">
        <ele>691.7</ele>
        <time>2019-05-25T13:42:15Z</time>
      </trkpt>
      <trkpt lat="41.5301510" lon="-4.7518420">
        <ele>691.7</ele>
        <time>2019-05-25T13:42:16Z</time>
      </trkpt>
      <trkpt lat="41.5301050" lon="-4.7518230">
        <ele>691.7</ele>
        <time>2019-05-25T13:42:17Z</time>
      </trkpt>
      <trkpt lat="41.5300660" lon="-4.7517900">
        <ele>691.7</ele>
        <time>2019-05-25T13:42:18Z</time>
      </trkpt>
      <trkpt lat="41.5300460" lon="-4.7517650">
        <ele>691.7</ele>
        <time>2019-05-25T13:42:19Z</time>
      </trkpt>
      <trkpt lat="41.5300330" lon="-4.7517300">
        <ele>691.7</ele>
        <time>2019-05-25T13:42:22Z</time>
      </trkpt>
      <trkpt lat="41.5300180" lon="-4.7516920">
        <ele>691.7</ele>
        <time>2019-05-25T13:42:28Z</time>
      </trkpt>
      <trkpt lat="41.5300310" lon="-4.7516580">
        <ele>691.7</ele>
        <time>2019-05-25T13:42:35Z</time>
      </trkpt>
      <trkpt lat="41.5300630" lon="-4.7516460">
        <ele>691.6</ele>
        <time>2019-05-25T13:42:36Z</time>
      </trkpt>
      <trkpt lat="41.5301020" lon="-4.7516420">
        <ele>691.5</ele>
        <time>2019-05-25T13:42:37Z</time>
      </trkpt>
      <trkpt lat="41.5301390" lon="-4.7516470">
        <ele>691.4</ele>
        <time>2019-05-25T13:42:38Z</time>
      </trkpt>
      <trkpt lat="41.5301720" lon="-4.7516640">
        <ele>691.3</ele>
        <time>2019-05-25T13:42:39Z</time>
      </trkpt>
      <trkpt lat="41.5302040" lon="-4.7516840">
        <ele>691.2</ele>
        <time>2019-05-25T13:42:40Z</time>
      </trkpt>
      <trkpt lat="41.5302370" lon="-4.7516980">
        <ele>691.2</ele>
        <time>2019-05-25T13:42:41Z</time>
      </trkpt>
      <trkpt lat="41.5302690" lon="-4.7517020">
        <ele>691.1</ele>
        <time>2019-05-25T13:42:43Z</time>
      </trkpt>
      <trkpt lat="41.5303470" lon="-4.7516770">
        <ele>690.9</ele>
        <time>2019-05-25T13:43:15Z</time>
      </trkpt>
      <trkpt lat="41.5303770" lon="-4.7516700">
        <ele>690.8</ele>
        <time>2019-05-25T13:43:16Z</time>
      </trkpt>
      <trkpt lat="41.5304070" lon="-4.7516630">
        <ele>690.7</ele>
        <time>2019-05-25T13:43:17Z</time>
      </trkpt>
      <trkpt lat="41.5304360" lon="-4.7516560">
        <ele>690.7</ele>
        <time>2019-05-25T13:43:18Z</time>
      </trkpt>
      <trkpt lat="41.5304660" lon="-4.7516470">
        <ele>690.6</ele>
        <time>2019-05-25T13:43:19Z</time>
      </trkpt>
      <trkpt lat="41.5304940" lon="-4.7516330">
        <ele>690.6</ele>
        <time>2019-05-25T13:43:20Z</time>
      </trkpt>
      <trkpt lat="41.5305210" lon="-4.7516160">
        <ele>690.6</ele>
        <time>2019-05-25T13:43:21Z</time>
      </trkpt>
      <trkpt lat="41.5305490" lon="-4.7516010">
        <ele>690.6</ele>
        <time>2019-05-25T13:43:22Z</time>
      </trkpt>
      <trkpt lat="41.5305810" lon="-4.7515900">
        <ele>690.6</ele>
        <time>2019-05-25T13:43:23Z</time>
      </trkpt>
      <trkpt lat="41.5306090" lon="-4.7515820">
        <ele>690.6</ele>
        <time>2019-05-25T13:43:24Z</time>
      </trkpt>
      <trkpt lat="41.5306410" lon="-4.7515760">
        <ele>690.6</ele>
        <time>2019-05-25T13:43:25Z</time>
      </trkpt>
      <trkpt lat="41.5306700" lon="-4.7515760">
        <ele>690.6</ele>
        <time>2019-05-25T13:43:26Z</time>
      </trkpt>
      <trkpt lat="41.5307010" lon="-4.7515740">
        <ele>690.6</ele>
        <time>2019-05-25T13:43:27Z</time>
      </trkpt>
      <trkpt lat="41.5307320" lon="-4.7515640">
        <ele>690.6</ele>
        <time>2019-05-25T13:43:28Z</time>
      </trkpt>
      <trkpt lat="41.5307630" lon="-4.7515560">
        <ele>690.7</ele>
        <time>2019-05-25T13:43:29Z</time>
      </trkpt>
      <trkpt lat="41.5307930" lon="-4.7515450">
        <ele>690.7</ele>
        <time>2019-05-25T13:43:30Z</time>
      </trkpt>
      <trkpt lat="41.5308250" lon="-4.7515310">
        <ele>690.8</ele>
        <time>2019-05-25T13:43:31Z</time>
      </trkpt>
      <trkpt lat="41.5308610" lon="-4.7515210">
        <ele>690.9</ele>
        <time>2019-05-25T13:43:32Z</time>
      </trkpt>
      <trkpt lat="41.5308960" lon="-4.7515130">
        <ele>691.0</ele>
        <time>2019-05-25T13:43:33Z</time>
      </trkpt>
      <trkpt lat="41.5309350" lon="-4.7515080">
        <ele>691.1</ele>
        <time>2019-05-25T13:43:34Z</time>
      </trkpt>
      <trkpt lat="41.5309730" lon="-4.7514950">
        <ele>691.2</ele>
        <time>2019-05-25T13:43:35Z</time>
      </trkpt>
      <trkpt lat="41.5310040" lon="-4.7514720">
        <ele>691.4</ele>
        <time>2019-05-25T13:43:36Z</time>
      </trkpt>
      <trkpt lat="41.5310260" lon="-4.7514340">
        <ele>691.6</ele>
        <time>2019-05-25T13:43:37Z</time>
      </trkpt>
      <trkpt lat="41.5310330" lon="-4.7513870">
        <ele>691.6</ele>
        <time>2019-05-25T13:43:38Z</time>
      </trkpt>
      <trkpt lat="41.5310330" lon="-4.7513320">
        <ele>691.6</ele>
        <time>2019-05-25T13:43:39Z</time>
      </trkpt>
      <trkpt lat="41.5310340" lon="-4.7512800">
        <ele>691.7</ele>
        <time>2019-05-25T13:43:40Z</time>
      </trkpt>
      <trkpt lat="41.5310360" lon="-4.7512300">
        <ele>691.7</ele>
        <time>2019-05-25T13:43:41Z</time>
      </trkpt>
      <trkpt lat="41.5310440" lon="-4.7511770">
        <ele>692.0</ele>
        <time>2019-05-25T13:43:42Z</time>
      </trkpt>
      <trkpt lat="41.5310540" lon="-4.7511240">
        <ele>692.0</ele>
        <time>2019-05-25T13:43:43Z</time>
      </trkpt>
      <trkpt lat="41.5310630" lon="-4.7510740">
        <ele>692.0</ele>
        <time>2019-05-25T13:43:44Z</time>
      </trkpt>
      <trkpt lat="41.5310770" lon="-4.7510140">
        <ele>692.3</ele>
        <time>2019-05-25T13:43:45Z</time>
      </trkpt>
      <trkpt lat="41.5310790" lon="-4.7509360">
        <ele>692.3</ele>
        <time>2019-05-25T13:43:46Z</time>
      </trkpt>
      <trkpt lat="41.5310790" lon="-4.7508590">
        <ele>692.3</ele>
        <time>2019-05-25T13:43:47Z</time>
      </trkpt>
      <trkpt lat="41.5310830" lon="-4.7507850">
        <ele>692.3</ele>
        <time>2019-05-25T13:43:48Z</time>
      </trkpt>
      <trkpt lat="41.5310890" lon="-4.7507190">
        <ele>692.3</ele>
        <time>2019-05-25T13:43:49Z</time>
      </trkpt>
      <trkpt lat="41.5310960" lon="-4.7506570">
        <ele>692.3</ele>
        <time>2019-05-25T13:43:50Z</time>
      </trkpt>
      <trkpt lat="41.5311060" lon="-4.7506000">
        <ele>692.6</ele>
        <time>2019-05-25T13:43:51Z</time>
      </trkpt>
      <trkpt lat="41.5311210" lon="-4.7505440">
        <ele>692.8</ele>
        <time>2019-05-25T13:43:52Z</time>
      </trkpt>
      <trkpt lat="41.5311270" lon="-4.7504600">
        <ele>692.9</ele>
        <time>2019-05-25T13:43:53Z</time>
      </trkpt>
      <trkpt lat="41.5311330" lon="-4.7503720">
        <ele>693.1</ele>
        <time>2019-05-25T13:43:54Z</time>
      </trkpt>
      <trkpt lat="41.5311420" lon="-4.7502800">
        <ele>693.6</ele>
        <time>2019-05-25T13:43:55Z</time>
      </trkpt>
      <trkpt lat="41.5311650" lon="-4.7502030">
        <ele>693.7</ele>
        <time>2019-05-25T13:43:56Z</time>
      </trkpt>
      <trkpt lat="41.5311950" lon="-4.7501400">
        <ele>694.0</ele>
        <time>2019-05-25T13:43:57Z</time>
      </trkpt>
      <trkpt lat="41.5312200" lon="-4.7500750">
        <ele>694.3</ele>
        <time>2019-05-25T13:43:58Z</time>
      </trkpt>
      <trkpt lat="41.5312480" lon="-4.7500160">
        <ele>694.5</ele>
        <time>2019-05-25T13:43:59Z</time>
      </trkpt>
      <trkpt lat="41.5312770" lon="-4.7499600">
        <ele>694.7</ele>
        <time>2019-05-25T13:44:00Z</time>
      </trkpt>
      <trkpt lat="41.5313060" lon="-4.7499050">
        <ele>694.9</ele>
        <time>2019-05-25T13:44:01Z</time>
      </trkpt>
      <trkpt lat="41.5313290" lon="-4.7498490">
        <ele>695.0</ele>
        <time>2019-05-25T13:44:02Z</time>
      </trkpt>
      <trkpt lat="41.5313560" lon="-4.7497990">
        <ele>695.0</ele>
        <time>2019-05-25T13:44:03Z</time>
      </trkpt>
      <trkpt lat="41.5313920" lon="-4.7497620">
        <ele>695.4</ele>
        <time>2019-05-25T13:44:04Z</time>
      </trkpt>
      <trkpt lat="41.5314290" lon="-4.7497310">
        <ele>695.6</ele>
        <time>2019-05-25T13:44:05Z</time>
      </trkpt>
      <trkpt lat="41.5314640" lon="-4.7497070">
        <ele>695.8</ele>
        <time>2019-05-25T13:44:06Z</time>
      </trkpt>
      <trkpt lat="41.5314930" lon="-4.7496810">
        <ele>696.0</ele>
        <time>2019-05-25T13:44:07Z</time>
      </trkpt>
      <trkpt lat="41.5315270" lon="-4.7496500">
        <ele>696.2</ele>
        <time>2019-05-25T13:44:09Z</time>
      </trkpt>
      <trkpt lat="41.5315680" lon="-4.7496160">
        <ele>696.4</ele>
        <time>2019-05-25T13:44:11Z</time>
      </trkpt>
      <trkpt lat="41.5315950" lon="-4.7496030">
        <ele>696.6</ele>
        <time>2019-05-25T13:44:12Z</time>
      </trkpt>
      <trkpt lat="41.5316280" lon="-4.7495920">
        <ele>696.8</ele>
        <time>2019-05-25T13:44:13Z</time>
      </trkpt>
      <trkpt lat="41.5316570" lon="-4.7495660">
        <ele>697.1</ele>
        <time>2019-05-25T13:44:14Z</time>
      </trkpt>
      <trkpt lat="41.5316860" lon="-4.7495350">
        <ele>697.3</ele>
        <time>2019-05-25T13:44:15Z</time>
      </trkpt>
      <trkpt lat="41.5317210" lon="-4.7494720">
        <ele>697.5</ele>
        <time>2019-05-25T13:44:16Z</time>
      </trkpt>
      <trkpt lat="41.5317580" lon="-4.7493960">
        <ele>697.6</ele>
        <time>2019-05-25T13:44:17Z</time>
      </trkpt>
      <trkpt lat="41.5317930" lon="-4.7493200">
        <ele>697.8</ele>
        <time>2019-05-25T13:44:18Z</time>
      </trkpt>
      <trkpt lat="41.5318250" lon="-4.7492510">
        <ele>697.9</ele>
        <time>2019-05-25T13:44:19Z</time>
      </trkpt>
      <trkpt lat="41.5318600" lon="-4.7491890">
        <ele>698.1</ele>
        <time>2019-05-25T13:44:20Z</time>
      </trkpt>
      <trkpt lat="41.5319030" lon="-4.7491370">
        <ele>698.2</ele>
        <time>2019-05-25T13:44:21Z</time>
      </trkpt>
      <trkpt lat="41.5319390" lon="-4.7490990">
        <ele>698.6</ele>
        <time>2019-05-25T13:44:22Z</time>
      </trkpt>
      <trkpt lat="41.5319760" lon="-4.7490750">
        <ele>698.7</ele>
        <time>2019-05-25T13:44:23Z</time>
      </trkpt>
      <trkpt lat="41.5320130" lon="-4.7490460">
        <ele>698.8</ele>
        <time>2019-05-25T13:44:24Z</time>
      </trkpt>
      <trkpt lat="41.5320490" lon="-4.7490150">
        <ele>699.0</ele>
        <time>2019-05-25T13:44:25Z</time>
      </trkpt>
      <trkpt lat="41.5320790" lon="-4.7489780">
        <ele>699.1</ele>
        <time>2019-05-25T13:44:26Z</time>
      </trkpt>
      <trkpt lat="41.5321060" lon="-4.7489380">
        <ele>699.2</ele>
        <time>2019-05-25T13:44:27Z</time>
      </trkpt>
      <trkpt lat="41.5321230" lon="-4.7488930">
        <ele>699.1</ele>
        <time>2019-05-25T13:44:28Z</time>
      </trkpt>
      <trkpt lat="41.5321040" lon="-4.7488410">
        <ele>699.0</ele>
        <time>2019-05-25T13:44:29Z</time>
      </trkpt>
      <trkpt lat="41.5320790" lon="-4.7487910">
        <ele>698.8</ele>
        <time>2019-05-25T13:44:30Z</time>
      </trkpt>
      <trkpt lat="41.5320620" lon="-4.7487430">
        <ele>698.7</ele>
        <time>2019-05-25T13:44:31Z</time>
      </trkpt>
      <trkpt lat="41.5320490" lon="-4.7486980">
        <ele>698.6</ele>
        <time>2019-05-25T13:44:32Z</time>
      </trkpt>
      <trkpt lat="41.5320390" lon="-4.7486490">
        <ele>698.6</ele>
        <time>2019-05-25T13:44:33Z</time>
      </trkpt>
      <trkpt lat="41.5320140" lon="-4.7485850">
        <ele>698.4</ele>
        <time>2019-05-25T13:44:34Z</time>
      </trkpt>
      <trkpt lat="41.5319960" lon="-4.7485070">
        <ele>698.2</ele>
        <time>2019-05-25T13:44:35Z</time>
      </trkpt>
      <trkpt lat="41.5319760" lon="-4.7484400">
        <ele>698.1</ele>
        <time>2019-05-25T13:44:36Z</time>
      </trkpt>
      <trkpt lat="41.5319750" lon="-4.7483750">
        <ele>698.1</ele>
        <time>2019-05-25T13:44:37Z</time>
      </trkpt>
      <trkpt lat="41.5319700" lon="-4.7483120">
        <ele>698.0</ele>
        <time>2019-05-25T13:44:38Z</time>
      </trkpt>
      <trkpt lat="41.5319700" lon="-4.7482610">
        <ele>698.0</ele>
        <time>2019-05-25T13:44:39Z</time>
      </trkpt>
      <trkpt lat="41.5319990" lon="-4.7484570">
        <ele>698.2</ele>
        <time>2019-05-25T13:45:51Z</time>
      </trkpt>
      <trkpt lat="41.5319840" lon="-4.7484400">
        <ele>698.1</ele>
        <time>2019-05-25T13:45:52Z</time>
      </trkpt>
      <trkpt lat="41.5319690" lon="-4.7483980">
        <ele>697.9</ele>
        <time>2019-05-25T13:45:53Z</time>
      </trkpt>
      <trkpt lat="41.5319530" lon="-4.7483540">
        <ele>697.9</ele>
        <time>2019-05-25T13:45:54Z</time>
      </trkpt>
      <trkpt lat="41.5319370" lon="-4.7483080">
        <ele>697.9</ele>
        <time>2019-05-25T13:45:55Z</time>
      </trkpt>
      <trkpt lat="41.5319260" lon="-4.7482600">
        <ele>697.7</ele>
        <time>2019-05-25T13:45:56Z</time>
      </trkpt>
      <trkpt lat="41.5319200" lon="-4.7482130">
        <ele>697.7</ele>
        <time>2019-05-25T13:45:57Z</time>
      </trkpt>
      <trkpt lat="41.5319210" lon="-4.7481680">
        <ele>697.7</ele>
        <time>2019-05-25T13:45:58Z</time>
      </trkpt>
      <trkpt lat="41.5319280" lon="-4.7481270">
        <ele>697.7</ele>
        <time>2019-05-25T13:45:59Z</time>
      </trkpt>
      <trkpt lat="41.5319340" lon="-4.7480880">
        <ele>697.6</ele>
        <time>2019-05-25T13:46:00Z</time>
      </trkpt>
      <trkpt lat="41.5319380" lon="-4.7480470">
        <ele>697.8</ele>
        <time>2019-05-25T13:46:01Z</time>
      </trkpt>
      <trkpt lat="41.5319360" lon="-4.7480090">
        <ele>697.6</ele>
        <time>2019-05-25T13:46:02Z</time>
      </trkpt>
      <trkpt lat="41.5319310" lon="-4.7479390">
        <ele>697.6</ele>
        <time>2019-05-25T13:46:04Z</time>
      </trkpt>
      <trkpt lat="41.5319380" lon="-4.7478700">
        <ele>697.7</ele>
        <time>2019-05-25T13:46:06Z</time>
      </trkpt>
      <trkpt lat="41.5319580" lon="-4.7478070">
        <ele>697.7</ele>
        <time>2019-05-25T13:46:08Z</time>
      </trkpt>
      <trkpt lat="41.5319840" lon="-4.7477530">
        <ele>697.8</ele>
        <time>2019-05-25T13:46:10Z</time>
      </trkpt>
      <trkpt lat="41.5319990" lon="-4.7477070">
        <ele>697.8</ele>
        <time>2019-05-25T13:46:12Z</time>
      </trkpt>
      <trkpt lat="41.5319990" lon="-4.7476440">
        <ele>697.8</ele>
        <time>2019-05-25T13:46:14Z</time>
      </trkpt>
      <trkpt lat="41.5320000" lon="-4.7476070">
        <ele>697.8</ele>
        <time>2019-05-25T13:46:15Z</time>
      </trkpt>
      <trkpt lat="41.5319990" lon="-4.7475680">
        <ele>697.8</ele>
        <time>2019-05-25T13:46:16Z</time>
      </trkpt>
      <trkpt lat="41.5320000" lon="-4.7475300">
        <ele>697.7</ele>
        <time>2019-05-25T13:46:17Z</time>
      </trkpt>
      <trkpt lat="41.5320050" lon="-4.7474880">
        <ele>697.8</ele>
        <time>2019-05-25T13:46:18Z</time>
      </trkpt>
      <trkpt lat="41.5320060" lon="-4.7474480">
        <ele>697.8</ele>
        <time>2019-05-25T13:46:19Z</time>
      </trkpt>
      <trkpt lat="41.5320130" lon="-4.7474100">
        <ele>697.8</ele>
        <time>2019-05-25T13:46:20Z</time>
      </trkpt>
      <trkpt lat="41.5320120" lon="-4.7473710">
        <ele>697.7</ele>
        <time>2019-05-25T13:46:21Z</time>
      </trkpt>
      <trkpt lat="41.5320100" lon="-4.7473290">
        <ele>697.7</ele>
        <time>2019-05-25T13:46:22Z</time>
      </trkpt>
      <trkpt lat="41.5320020" lon="-4.7472890">
        <ele>697.7</ele>
        <time>2019-05-25T13:46:23Z</time>
      </trkpt>
      <trkpt lat="41.5319940" lon="-4.7472500">
        <ele>697.5</ele>
        <time>2019-05-25T13:46:24Z</time>
      </trkpt>
      <trkpt lat="41.5319940" lon="-4.7472030">
        <ele>697.4</ele>
        <time>2019-05-25T13:46:25Z</time>
      </trkpt>
      <trkpt lat="41.5320000" lon="-4.7471550">
        <ele>697.4</ele>
        <time>2019-05-25T13:46:26Z</time>
      </trkpt>
      <trkpt lat="41.5320070" lon="-4.7471010">
        <ele>697.5</ele>
        <time>2019-05-25T13:46:27Z</time>
      </trkpt>
      <trkpt lat="41.5320190" lon="-4.7470420">
        <ele>697.5</ele>
        <time>2019-05-25T13:46:28Z</time>
      </trkpt>
      <trkpt lat="41.5320300" lon="-4.7469830">
        <ele>697.4</ele>
        <time>2019-05-25T13:46:29Z</time>
      </trkpt>
      <trkpt lat="41.5320440" lon="-4.7469250">
        <ele>697.6</ele>
        <time>2019-05-25T13:46:30Z</time>
      </trkpt>
      <trkpt lat="41.5320610" lon="-4.7468670">
        <ele>697.6</ele>
        <time>2019-05-25T13:46:31Z</time>
      </trkpt>
      <trkpt lat="41.5320820" lon="-4.7468090">
        <ele>697.7</ele>
        <time>2019-05-25T13:46:32Z</time>
      </trkpt>
      <trkpt lat="41.5321080" lon="-4.7467550">
        <ele>697.9</ele>
        <time>2019-05-25T13:46:33Z</time>
      </trkpt>
      <trkpt lat="41.5321240" lon="-4.7466860">
        <ele>697.8</ele>
        <time>2019-05-25T13:46:34Z</time>
      </trkpt>
      <trkpt lat="41.5321380" lon="-4.7466160">
        <ele>698.1</ele>
        <time>2019-05-25T13:46:35Z</time>
      </trkpt>
      <trkpt lat="41.5321410" lon="-4.7465440">
        <ele>698.0</ele>
        <time>2019-05-25T13:46:36Z</time>
      </trkpt>
      <trkpt lat="41.5321420" lon="-4.7464710">
        <ele>697.9</ele>
        <time>2019-05-25T13:46:37Z</time>
      </trkpt>
      <trkpt lat="41.5321420" lon="-4.7464050">
        <ele>697.9</ele>
        <time>2019-05-25T13:46:38Z</time>
      </trkpt>
      <trkpt lat="41.5321440" lon="-4.7463380">
        <ele>697.9</ele>
        <time>2019-05-25T13:46:39Z</time>
      </trkpt>
      <trkpt lat="41.5321490" lon="-4.7462700">
        <ele>697.9</ele>
        <time>2019-05-25T13:46:40Z</time>
      </trkpt>
      <trkpt lat="41.5321630" lon="-4.7462080">
        <ele>698.1</ele>
        <time>2019-05-25T13:46:41Z</time>
      </trkpt>
      <trkpt lat="41.5321780" lon="-4.7461460">
        <ele>698.1</ele>
        <time>2019-05-25T13:46:42Z</time>
      </trkpt>
      <trkpt lat="41.5321880" lon="-4.7460860">
        <ele>698.0</ele>
        <time>2019-05-25T13:46:43Z</time>
      </trkpt>
      <trkpt lat="41.5321870" lon="-4.7460020">
        <ele>698.0</ele>
        <time>2019-05-25T13:46:44Z</time>
      </trkpt>
      <trkpt lat="41.5321770" lon="-4.7459280">
        <ele>698.1</ele>
        <time>2019-05-25T13:46:45Z</time>
      </trkpt>
      <trkpt lat="41.5321810" lon="-4.7458720">
        <ele>698.1</ele>
        <time>2019-05-25T13:46:46Z</time>
      </trkpt>
      <trkpt lat="41.5321510" lon="-4.7457810">
        <ele>697.9</ele>
        <time>2019-05-25T13:46:50Z</time>
      </trkpt>
      <trkpt lat="41.5321300" lon="-4.7457320">
        <ele>697.9</ele>
        <time>2019-05-25T13:46:51Z</time>
      </trkpt>
      <trkpt lat="41.5321860" lon="-4.7453930">
        <ele>698.0</ele>
        <time>2019-05-25T13:46:53Z</time>
      </trkpt>
      <trkpt lat="41.5321860" lon="-4.7453400">
        <ele>698.0</ele>
        <time>2019-05-25T13:46:54Z</time>
      </trkpt>
      <trkpt lat="41.5322100" lon="-4.7452170">
        <ele>698.2</ele>
        <time>2019-05-25T13:46:55Z</time>
      </trkpt>
      <trkpt lat="41.5322130" lon="-4.7451630">
        <ele>698.2</ele>
        <time>2019-05-25T13:46:56Z</time>
      </trkpt>
      <trkpt lat="41.5321930" lon="-4.7451120">
        <ele>697.8</ele>
        <time>2019-05-25T13:46:58Z</time>
      </trkpt>
      <trkpt lat="41.5321780" lon="-4.7450690">
        <ele>697.9</ele>
        <time>2019-05-25T13:46:59Z</time>
      </trkpt>
      <trkpt lat="41.5321590" lon="-4.7449990">
        <ele>697.7</ele>
        <time>2019-05-25T13:47:00Z</time>
      </trkpt>
      <trkpt lat="41.5321370" lon="-4.7449310">
        <ele>697.9</ele>
        <time>2019-05-25T13:47:01Z</time>
      </trkpt>
      <trkpt lat="41.5321190" lon="-4.7448670">
        <ele>697.7</ele>
        <time>2019-05-25T13:47:02Z</time>
      </trkpt>
      <trkpt lat="41.5320900" lon="-4.7447890">
        <ele>697.6</ele>
        <time>2019-05-25T13:47:03Z</time>
      </trkpt>
      <trkpt lat="41.5320580" lon="-4.7447120">
        <ele>697.5</ele>
        <time>2019-05-25T13:47:04Z</time>
      </trkpt>
      <trkpt lat="41.5320250" lon="-4.7446440">
        <ele>697.3</ele>
        <time>2019-05-25T13:47:05Z</time>
      </trkpt>
      <trkpt lat="41.5319950" lon="-4.7445770">
        <ele>697.1</ele>
        <time>2019-05-25T13:47:06Z</time>
      </trkpt>
      <trkpt lat="41.5319680" lon="-4.7444580">
        <ele>697.0</ele>
        <time>2019-05-25T13:47:07Z</time>
      </trkpt>
      <trkpt lat="41.5319570" lon="-4.7443350">
        <ele>697.2</ele>
        <time>2019-05-25T13:47:08Z</time>
      </trkpt>
      <trkpt lat="41.5319470" lon="-4.7442600">
        <ele>697.5</ele>
        <time>2019-05-25T13:47:09Z</time>
      </trkpt>
      <trkpt lat="41.5319110" lon="-4.7441860">
        <ele>697.6</ele>
        <time>2019-05-25T13:47:10Z</time>
      </trkpt>
      <trkpt lat="41.5319450" lon="-4.7440460">
        <ele>698.5</ele>
        <time>2019-05-25T13:47:11Z</time>
      </trkpt>
      <trkpt lat="41.5319050" lon="-4.7440390">
        <ele>698.2</ele>
        <time>2019-05-25T13:47:12Z</time>
      </trkpt>
      <trkpt lat="41.5318620" lon="-4.7440390">
        <ele>697.7</ele>
        <time>2019-05-25T13:47:13Z</time>
      </trkpt>
      <trkpt lat="41.5318260" lon="-4.7440000">
        <ele>697.7</ele>
        <time>2019-05-25T13:47:14Z</time>
      </trkpt>
      <trkpt lat="41.5317940" lon="-4.7439550">
        <ele>697.7</ele>
        <time>2019-05-25T13:47:15Z</time>
      </trkpt>
      <trkpt lat="41.5317710" lon="-4.7439160">
        <ele>697.7</ele>
        <time>2019-05-25T13:47:17Z</time>
      </trkpt>
      <trkpt lat="41.5317230" lon="-4.7438650">
        <ele>697.6</ele>
        <time>2019-05-25T13:47:20Z</time>
      </trkpt>
      <trkpt lat="41.5316820" lon="-4.7437310">
        <ele>698.0</ele>
        <time>2019-05-25T13:47:21Z</time>
      </trkpt>
      <trkpt lat="41.5316460" lon="-4.7435450">
        <ele>698.0</ele>
        <time>2019-05-25T13:47:22Z</time>
      </trkpt>
      <trkpt lat="41.5316040" lon="-4.7434820">
        <ele>697.9</ele>
        <time>2019-05-25T13:47:23Z</time>
      </trkpt>
      <trkpt lat="41.5316090" lon="-4.7434200">
        <ele>698.2</ele>
        <time>2019-05-25T13:47:24Z</time>
      </trkpt>
      <trkpt lat="41.5316010" lon="-4.7433470">
        <ele>698.5</ele>
        <time>2019-05-25T13:47:25Z</time>
      </trkpt>
      <trkpt lat="41.5315920" lon="-4.7433120">
        <ele>698.5</ele>
        <time>2019-05-25T13:47:26Z</time>
      </trkpt>
      <trkpt lat="41.5315750" lon="-4.7432540">
        <ele>698.5</ele>
        <time>2019-05-25T13:47:28Z</time>
      </trkpt>
      <trkpt lat="41.5315570" lon="-4.7431950">
        <ele>698.5</ele>
        <time>2019-05-25T13:47:29Z</time>
      </trkpt>
      <trkpt lat="41.5315310" lon="-4.7431260">
        <ele>698.4</ele>
        <time>2019-05-25T13:47:30Z</time>
      </trkpt>
      <trkpt lat="41.5315010" lon="-4.7430700">
        <ele>698.2</ele>
        <time>2019-05-25T13:47:32Z</time>
      </trkpt>
      <trkpt lat="41.5314680" lon="-4.7430190">
        <ele>698.0</ele>
        <time>2019-05-25T13:47:34Z</time>
      </trkpt>
      <trkpt lat="41.5314800" lon="-4.7429340">
        <ele>698.1</ele>
        <time>2019-05-25T13:47:35Z</time>
      </trkpt>
      <trkpt lat="41.5315030" lon="-4.7428350">
        <ele>698.5</ele>
        <time>2019-05-25T13:47:36Z</time>
      </trkpt>
      <trkpt lat="41.5315180" lon="-4.7427540">
        <ele>698.6</ele>
        <time>2019-05-25T13:47:37Z</time>
      </trkpt>
      <trkpt lat="41.5315380" lon="-4.7426880">
        <ele>698.9</ele>
        <time>2019-05-25T13:47:38Z</time>
      </trkpt>
      <trkpt lat="41.5315590" lon="-4.7426220">
        <ele>699.3</ele>
        <time>2019-05-25T13:47:39Z</time>
      </trkpt>
      <trkpt lat="41.5315800" lon="-4.7425550">
        <ele>699.4</ele>
        <time>2019-05-25T13:47:40Z</time>
      </trkpt>
      <trkpt lat="41.5316000" lon="-4.7424920">
        <ele>699.7</ele>
        <time>2019-05-25T13:47:41Z</time>
      </trkpt>
      <trkpt lat="41.5316130" lon="-4.7424310">
        <ele>699.8</ele>
        <time>2019-05-25T13:47:42Z</time>
      </trkpt>
      <trkpt lat="41.5316190" lon="-4.7423630">
        <ele>700.0</ele>
        <time>2019-05-25T13:47:43Z</time>
      </trkpt>
      <trkpt lat="41.5316240" lon="-4.7423060">
        <ele>700.1</ele>
        <time>2019-05-25T13:47:44Z</time>
      </trkpt>
      <trkpt lat="41.5316590" lon="-4.7422410">
        <ele>700.3</ele>
        <time>2019-05-25T13:47:45Z</time>
      </trkpt>
      <trkpt lat="41.5316960" lon="-4.7421720">
        <ele>700.4</ele>
        <time>2019-05-25T13:47:46Z</time>
      </trkpt>
      <trkpt lat="41.5317270" lon="-4.7421090">
        <ele>700.4</ele>
        <time>2019-05-25T13:47:47Z</time>
      </trkpt>
      <trkpt lat="41.5317510" lon="-4.7420480">
        <ele>700.4</ele>
        <time>2019-05-25T13:47:48Z</time>
      </trkpt>
      <trkpt lat="41.5317720" lon="-4.7419880">
        <ele>700.3</ele>
        <time>2019-05-25T13:47:49Z</time>
      </trkpt>
      <trkpt lat="41.5317930" lon="-4.7419300">
        <ele>700.2</ele>
        <time>2019-05-25T13:47:50Z</time>
      </trkpt>
      <trkpt lat="41.5318080" lon="-4.7418750">
        <ele>700.1</ele>
        <time>2019-05-25T13:47:51Z</time>
      </trkpt>
      <trkpt lat="41.5318190" lon="-4.7418260">
        <ele>700.0</ele>
        <time>2019-05-25T13:47:52Z</time>
      </trkpt>
      <trkpt lat="41.5318340" lon="-4.7417850">
        <ele>699.9</ele>
        <time>2019-05-25T13:47:53Z</time>
      </trkpt>
      <trkpt lat="41.5318510" lon="-4.7417480">
        <ele>699.8</ele>
        <time>2019-05-25T13:47:54Z</time>
      </trkpt>
      <trkpt lat="41.5318680" lon="-4.7417160">
        <ele>699.7</ele>
        <time>2019-05-25T13:47:55Z</time>
      </trkpt>
      <trkpt lat="41.5318870" lon="-4.7416840">
        <ele>699.7</ele>
        <time>2019-05-25T13:47:56Z</time>
      </trkpt>
      <trkpt lat="41.5319050" lon="-4.7416540">
        <ele>699.6</ele>
        <time>2019-05-25T13:47:57Z</time>
      </trkpt>
      <trkpt lat="41.5319240" lon="-4.7416280">
        <ele>699.5</ele>
        <time>2019-05-25T13:47:58Z</time>
      </trkpt>
      <trkpt lat="41.5319420" lon="-4.7416000">
        <ele>699.5</ele>
        <time>2019-05-25T13:47:59Z</time>
      </trkpt>
      <trkpt lat="41.5319760" lon="-4.7415480">
        <ele>699.4</ele>
        <time>2019-05-25T13:48:01Z</time>
      </trkpt>
      <trkpt lat="41.5320110" lon="-4.7414970">
        <ele>699.2</ele>
        <time>2019-05-25T13:48:03Z</time>
      </trkpt>
      <trkpt lat="41.5320290" lon="-4.7414640">
        <ele>699.2</ele>
        <time>2019-05-25T13:48:04Z</time>
      </trkpt>
      <trkpt lat="41.5320880" lon="-4.7414430">
        <ele>699.1</ele>
        <time>2019-05-25T13:48:05Z</time>
      </trkpt>
      <trkpt lat="41.5321340" lon="-4.7414060">
        <ele>699.0</ele>
        <time>2019-05-25T13:48:06Z</time>
      </trkpt>
      <trkpt lat="41.5321750" lon="-4.7413440">
        <ele>699.0</ele>
        <time>2019-05-25T13:48:07Z</time>
      </trkpt>
      <trkpt lat="41.5322090" lon="-4.7412770">
        <ele>698.8</ele>
        <time>2019-05-25T13:48:08Z</time>
      </trkpt>
      <trkpt lat="41.5322350" lon="-4.7412120">
        <ele>698.9</ele>
        <time>2019-05-25T13:48:09Z</time>
      </trkpt>
      <trkpt lat="41.5322550" lon="-4.7411710">
        <ele>698.8</ele>
        <time>2019-05-25T13:48:10Z</time>
      </trkpt>
      <trkpt lat="41.5322840" lon="-4.7411140">
        <ele>698.8</ele>
        <time>2019-05-25T13:48:12Z</time>
      </trkpt>
      <trkpt lat="41.5323040" lon="-4.7410650">
        <ele>699.0</ele>
        <time>2019-05-25T13:48:14Z</time>
      </trkpt>
      <trkpt lat="41.5323960" lon="-4.7408620">
        <ele>699.5</ele>
        <time>2019-05-25T13:48:18Z</time>
      </trkpt>
      <trkpt lat="41.5323720" lon="-4.7408410">
        <ele>699.2</ele>
        <time>2019-05-25T13:48:19Z</time>
      </trkpt>
      <trkpt lat="41.5323550" lon="-4.7407900">
        <ele>699.2</ele>
        <time>2019-05-25T13:48:20Z</time>
      </trkpt>
      <trkpt lat="41.5323690" lon="-4.7407250">
        <ele>699.3</ele>
        <time>2019-05-25T13:48:22Z</time>
      </trkpt>
      <trkpt lat="41.5323730" lon="-4.7406640">
        <ele>699.3</ele>
        <time>2019-05-25T13:48:24Z</time>
      </trkpt>
      <trkpt lat="41.5323720" lon="-4.7405940">
        <ele>699.5</ele>
        <time>2019-05-25T13:48:26Z</time>
      </trkpt>
      <trkpt lat="41.5323740" lon="-4.7405510">
        <ele>699.6</ele>
        <time>2019-05-25T13:48:27Z</time>
      </trkpt>
      <trkpt lat="41.5323750" lon="-4.7404990">
        <ele>699.7</ele>
        <time>2019-05-25T13:48:28Z</time>
      </trkpt>
      <trkpt lat="41.5323820" lon="-4.7404500">
        <ele>699.8</ele>
        <time>2019-05-25T13:48:29Z</time>
      </trkpt>
      <trkpt lat="41.5323950" lon="-4.7404060">
        <ele>700.1</ele>
        <time>2019-05-25T13:48:30Z</time>
      </trkpt>
      <trkpt lat="41.5324150" lon="-4.7403670">
        <ele>700.3</ele>
        <time>2019-05-25T13:48:31Z</time>
      </trkpt>
      <trkpt lat="41.5324420" lon="-4.7403330">
        <ele>700.6</ele>
        <time>2019-05-25T13:48:32Z</time>
      </trkpt>
      <trkpt lat="41.5324720" lon="-4.7403000">
        <ele>701.0</ele>
        <time>2019-05-25T13:48:33Z</time>
      </trkpt>
      <trkpt lat="41.5324940" lon="-4.7402630">
        <ele>701.3</ele>
        <time>2019-05-25T13:48:34Z</time>
      </trkpt>
      <trkpt lat="41.5325110" lon="-4.7402170">
        <ele>701.4</ele>
        <time>2019-05-25T13:48:35Z</time>
      </trkpt>
      <trkpt lat="41.5325160" lon="-4.7401760">
        <ele>701.7</ele>
        <time>2019-05-25T13:48:36Z</time>
      </trkpt>
      <trkpt lat="41.5325260" lon="-4.7401310">
        <ele>701.8</ele>
        <time>2019-05-25T13:48:37Z</time>
      </trkpt>
      <trkpt lat="41.5325340" lon="-4.7400810">
        <ele>701.9</ele>
        <time>2019-05-25T13:48:38Z</time>
      </trkpt>
      <trkpt lat="41.5325380" lon="-4.7400290">
        <ele>701.9</ele>
        <time>2019-05-25T13:48:39Z</time>
      </trkpt>
      <trkpt lat="41.5325440" lon="-4.7399830">
        <ele>702.0</ele>
        <time>2019-05-25T13:48:40Z</time>
      </trkpt>
      <trkpt lat="41.5325570" lon="-4.7399380">
        <ele>702.3</ele>
        <time>2019-05-25T13:48:41Z</time>
      </trkpt>
      <trkpt lat="41.5325680" lon="-4.7398900">
        <ele>702.3</ele>
        <time>2019-05-25T13:48:42Z</time>
      </trkpt>
      <trkpt lat="41.5325870" lon="-4.7398460">
        <ele>702.6</ele>
        <time>2019-05-25T13:48:43Z</time>
      </trkpt>
      <trkpt lat="41.5326140" lon="-4.7398070">
        <ele>702.8</ele>
        <time>2019-05-25T13:48:44Z</time>
      </trkpt>
      <trkpt lat="41.5326370" lon="-4.7397650">
        <ele>702.9</ele>
        <time>2019-05-25T13:48:45Z</time>
      </trkpt>
      <trkpt lat="41.5326600" lon="-4.7397270">
        <ele>703.1</ele>
        <time>2019-05-25T13:48:46Z</time>
      </trkpt>
      <trkpt lat="41.5326830" lon="-4.7396880">
        <ele>703.3</ele>
        <time>2019-05-25T13:48:47Z</time>
      </trkpt>
      <trkpt lat="41.5326960" lon="-4.7396240">
        <ele>703.3</ele>
        <time>2019-05-25T13:48:48Z</time>
      </trkpt>
      <trkpt lat="41.5327130" lon="-4.7395700">
        <ele>703.5</ele>
        <time>2019-05-25T13:48:49Z</time>
      </trkpt>
      <trkpt lat="41.5327270" lon="-4.7395160">
        <ele>703.5</ele>
        <time>2019-05-25T13:48:50Z</time>
      </trkpt>
      <trkpt lat="41.5327350" lon="-4.7394670">
        <ele>703.5</ele>
        <time>2019-05-25T13:48:51Z</time>
      </trkpt>
      <trkpt lat="41.5327410" lon="-4.7394210">
        <ele>703.6</ele>
        <time>2019-05-25T13:48:52Z</time>
      </trkpt>
      <trkpt lat="41.5327440" lon="-4.7393750">
        <ele>703.5</ele>
        <time>2019-05-25T13:48:53Z</time>
      </trkpt>
      <trkpt lat="41.5327420" lon="-4.7393300">
        <ele>703.5</ele>
        <time>2019-05-25T13:48:54Z</time>
      </trkpt>
      <trkpt lat="41.5327460" lon="-4.7392870">
        <ele>703.4</ele>
        <time>2019-05-25T13:48:55Z</time>
      </trkpt>
      <trkpt lat="41.5327510" lon="-4.7392440">
        <ele>703.4</ele>
        <time>2019-05-25T13:48:56Z</time>
      </trkpt>
      <trkpt lat="41.5327570" lon="-4.7392010">
        <ele>703.3</ele>
        <time>2019-05-25T13:48:57Z</time>
      </trkpt>
      <trkpt lat="41.5327670" lon="-4.7391590">
        <ele>703.3</ele>
        <time>2019-05-25T13:48:58Z</time>
      </trkpt>
      <trkpt lat="41.5327800" lon="-4.7391190">
        <ele>703.3</ele>
        <time>2019-05-25T13:48:59Z</time>
      </trkpt>
      <trkpt lat="41.5327960" lon="-4.7390790">
        <ele>703.2</ele>
        <time>2019-05-25T13:49:00Z</time>
      </trkpt>
      <trkpt lat="41.5328100" lon="-4.7390380">
        <ele>703.2</ele>
        <time>2019-05-25T13:49:01Z</time>
      </trkpt>
      <trkpt lat="41.5328210" lon="-4.7389970">
        <ele>703.2</ele>
        <time>2019-05-25T13:49:02Z</time>
      </trkpt>
      <trkpt lat="41.5328270" lon="-4.7389190">
        <ele>703.1</ele>
        <time>2019-05-25T13:49:04Z</time>
      </trkpt>
      <trkpt lat="41.5328390" lon="-4.7388720">
        <ele>703.2</ele>
        <time>2019-05-25T13:49:05Z</time>
      </trkpt>
      <trkpt lat="41.5328600" lon="-4.7388170">
        <ele>703.2</ele>
        <time>2019-05-25T13:49:06Z</time>
      </trkpt>
      <trkpt lat="41.5328870" lon="-4.7387620">
        <ele>703.3</ele>
        <time>2019-05-25T13:49:07Z</time>
      </trkpt>
      <trkpt lat="41.5329020" lon="-4.7387080">
        <ele>703.3</ele>
        <time>2019-05-25T13:49:08Z</time>
      </trkpt>
      <trkpt lat="41.5329090" lon="-4.7386600">
        <ele>703.3</ele>
        <time>2019-05-25T13:49:09Z</time>
      </trkpt>
      <trkpt lat="41.5329260" lon="-4.7386130">
        <ele>703.2</ele>
        <time>2019-05-25T13:49:10Z</time>
      </trkpt>
      <trkpt lat="41.5329410" lon="-4.7385670">
        <ele>703.3</ele>
        <time>2019-05-25T13:49:11Z</time>
      </trkpt>
      <trkpt lat="41.5329570" lon="-4.7385240">
        <ele>703.2</ele>
        <time>2019-05-25T13:49:12Z</time>
      </trkpt>
      <trkpt lat="41.5329750" lon="-4.7384700">
        <ele>703.3</ele>
        <time>2019-05-25T13:49:13Z</time>
      </trkpt>
      <trkpt lat="41.5329910" lon="-4.7384170">
        <ele>703.3</ele>
        <time>2019-05-25T13:49:14Z</time>
      </trkpt>
      <trkpt lat="41.5329970" lon="-4.7383610">
        <ele>703.2</ele>
        <time>2019-05-25T13:49:15Z</time>
      </trkpt>
      <trkpt lat="41.5330110" lon="-4.7383030">
        <ele>703.4</ele>
        <time>2019-05-25T13:49:16Z</time>
      </trkpt>
      <trkpt lat="41.5330200" lon="-4.7382540">
        <ele>703.4</ele>
        <time>2019-05-25T13:49:17Z</time>
      </trkpt>
      <trkpt lat="41.5330340" lon="-4.7382060">
        <ele>703.5</ele>
        <time>2019-05-25T13:49:18Z</time>
      </trkpt>
      <trkpt lat="41.5330550" lon="-4.7381600">
        <ele>703.5</ele>
        <time>2019-05-25T13:49:19Z</time>
      </trkpt>
      <trkpt lat="41.5330620" lon="-4.7381100">
        <ele>703.6</ele>
        <time>2019-05-25T13:49:20Z</time>
      </trkpt>
      <trkpt lat="41.5330650" lon="-4.7380610">
        <ele>703.6</ele>
        <time>2019-05-25T13:49:21Z</time>
      </trkpt>
      <trkpt lat="41.5330680" lon="-4.7380110">
        <ele>703.7</ele>
        <time>2019-05-25T13:49:22Z</time>
      </trkpt>
      <trkpt lat="41.5330680" lon="-4.7379600">
        <ele>703.7</ele>
        <time>2019-05-25T13:49:23Z</time>
      </trkpt>
      <trkpt lat="41.5330690" lon="-4.7379080">
        <ele>703.7</ele>
        <time>2019-05-25T13:49:24Z</time>
      </trkpt>
      <trkpt lat="41.5330680" lon="-4.7378580">
        <ele>703.8</ele>
        <time>2019-05-25T13:49:25Z</time>
      </trkpt>
      <trkpt lat="41.5330620" lon="-4.7377900">
        <ele>703.8</ele>
        <time>2019-05-25T13:49:26Z</time>
      </trkpt>
      <trkpt lat="41.5330510" lon="-4.7377320">
        <ele>703.8</ele>
        <time>2019-05-25T13:49:27Z</time>
      </trkpt>
      <trkpt lat="41.5330480" lon="-4.7376680">
        <ele>703.8</ele>
        <time>2019-05-25T13:49:28Z</time>
      </trkpt>
      <trkpt lat="41.5330500" lon="-4.7376150">
        <ele>703.8</ele>
        <time>2019-05-25T13:49:29Z</time>
      </trkpt>
      <trkpt lat="41.5330520" lon="-4.7375600">
        <ele>703.8</ele>
        <time>2019-05-25T13:49:30Z</time>
      </trkpt>
      <trkpt lat="41.5330530" lon="-4.7374850">
        <ele>703.9</ele>
        <time>2019-05-25T13:49:31Z</time>
      </trkpt>
      <trkpt lat="41.5330470" lon="-4.7374160">
        <ele>703.9</ele>
        <time>2019-05-25T13:49:32Z</time>
      </trkpt>
      <trkpt lat="41.5330370" lon="-4.7373580">
        <ele>703.9</ele>
        <time>2019-05-25T13:49:33Z</time>
      </trkpt>
      <trkpt lat="41.5330300" lon="-4.7373060">
        <ele>703.9</ele>
        <time>2019-05-25T13:49:34Z</time>
      </trkpt>
      <trkpt lat="41.5330260" lon="-4.7372490">
        <ele>703.9</ele>
        <time>2019-05-25T13:49:35Z</time>
      </trkpt>
      <trkpt lat="41.5330200" lon="-4.7371960">
        <ele>703.9</ele>
        <time>2019-05-25T13:49:36Z</time>
      </trkpt>
      <trkpt lat="41.5330150" lon="-4.7371410">
        <ele>703.9</ele>
        <time>2019-05-25T13:49:37Z</time>
      </trkpt>
      <trkpt lat="41.5330150" lon="-4.7370900">
        <ele>703.9</ele>
        <time>2019-05-25T13:49:38Z</time>
      </trkpt>
      <trkpt lat="41.5330160" lon="-4.7370440">
        <ele>703.9</ele>
        <time>2019-05-25T13:49:39Z</time>
      </trkpt>
      <trkpt lat="41.5330230" lon="-4.7369900">
        <ele>703.9</ele>
        <time>2019-05-25T13:49:40Z</time>
      </trkpt>
      <trkpt lat="41.5330210" lon="-4.7369370">
        <ele>703.9</ele>
        <time>2019-05-25T13:49:41Z</time>
      </trkpt>
      <trkpt lat="41.5330210" lon="-4.7368810">
        <ele>703.9</ele>
        <time>2019-05-25T13:49:42Z</time>
      </trkpt>
      <trkpt lat="41.5330200" lon="-4.7368280">
        <ele>703.9</ele>
        <time>2019-05-25T13:49:43Z</time>
      </trkpt>
      <trkpt lat="41.5330190" lon="-4.7367730">
        <ele>703.9</ele>
        <time>2019-05-25T13:49:44Z</time>
      </trkpt>
      <trkpt lat="41.5330180" lon="-4.7367220">
        <ele>703.9</ele>
        <time>2019-05-25T13:49:45Z</time>
      </trkpt>
      <trkpt lat="41.5330150" lon="-4.7366700">
        <ele>703.9</ele>
        <time>2019-05-25T13:49:46Z</time>
      </trkpt>
      <trkpt lat="41.5330210" lon="-4.7366180">
        <ele>703.9</ele>
        <time>2019-05-25T13:49:47Z</time>
      </trkpt>
      <trkpt lat="41.5330300" lon="-4.7365650">
        <ele>703.9</ele>
        <time>2019-05-25T13:49:48Z</time>
      </trkpt>
      <trkpt lat="41.5330410" lon="-4.7365150">
        <ele>703.9</ele>
        <time>2019-05-25T13:49:49Z</time>
      </trkpt>
      <trkpt lat="41.5330560" lon="-4.7364690">
        <ele>703.9</ele>
        <time>2019-05-25T13:49:50Z</time>
      </trkpt>
      <trkpt lat="41.5330680" lon="-4.7364250">
        <ele>703.9</ele>
        <time>2019-05-25T13:49:51Z</time>
      </trkpt>
      <trkpt lat="41.5330750" lon="-4.7363790">
        <ele>703.9</ele>
        <time>2019-05-25T13:49:52Z</time>
      </trkpt>
      <trkpt lat="41.5330860" lon="-4.7363350">
        <ele>704.0</ele>
        <time>2019-05-25T13:49:53Z</time>
      </trkpt>
      <trkpt lat="41.5331010" lon="-4.7362950">
        <ele>704.0</ele>
        <time>2019-05-25T13:49:54Z</time>
      </trkpt>
      <trkpt lat="41.5331250" lon="-4.7362410">
        <ele>704.0</ele>
        <time>2019-05-25T13:49:55Z</time>
      </trkpt>
      <trkpt lat="41.5331450" lon="-4.7361920">
        <ele>704.0</ele>
        <time>2019-05-25T13:49:56Z</time>
      </trkpt>
      <trkpt lat="41.5331750" lon="-4.7361480">
        <ele>704.0</ele>
        <time>2019-05-25T13:49:57Z</time>
      </trkpt>
      <trkpt lat="41.5332170" lon="-4.7361180">
        <ele>704.1</ele>
        <time>2019-05-25T13:49:58Z</time>
      </trkpt>
      <trkpt lat="41.5332580" lon="-4.7360930">
        <ele>704.1</ele>
        <time>2019-05-25T13:49:59Z</time>
      </trkpt>
      <trkpt lat="41.5333000" lon="-4.7360800">
        <ele>704.3</ele>
        <time>2019-05-25T13:50:00Z</time>
      </trkpt>
      <trkpt lat="41.5333380" lon="-4.7360640">
        <ele>704.4</ele>
        <time>2019-05-25T13:50:01Z</time>
      </trkpt>
      <trkpt lat="41.5333770" lon="-4.7360540">
        <ele>704.6</ele>
        <time>2019-05-25T13:50:02Z</time>
      </trkpt>
      <trkpt lat="41.5334160" lon="-4.7360460">
        <ele>704.7</ele>
        <time>2019-05-25T13:50:03Z</time>
      </trkpt>
      <trkpt lat="41.5334540" lon="-4.7360320">
        <ele>704.8</ele>
        <time>2019-05-25T13:50:04Z</time>
      </trkpt>
      <trkpt lat="41.5334920" lon="-4.7360170">
        <ele>704.8</ele>
        <time>2019-05-25T13:50:05Z</time>
      </trkpt>
      <trkpt lat="41.5335260" lon="-4.7359960">
        <ele>704.9</ele>
        <time>2019-05-25T13:50:06Z</time>
      </trkpt>
      <trkpt lat="41.5335580" lon="-4.7359870">
        <ele>704.9</ele>
        <time>2019-05-25T13:50:07Z</time>
      </trkpt>
      <trkpt lat="41.5335850" lon="-4.7360300">
        <ele>705.0</ele>
        <time>2019-05-25T13:50:08Z</time>
      </trkpt>
      <trkpt lat="41.5335990" lon="-4.7360800">
        <ele>705.0</ele>
        <time>2019-05-25T13:50:09Z</time>
      </trkpt>
      <trkpt lat="41.5335970" lon="-4.7361240">
        <ele>705.0</ele>
        <time>2019-05-25T13:50:10Z</time>
      </trkpt>
      <trkpt lat="41.5336070" lon="-4.7361790">
        <ele>705.0</ele>
        <time>2019-05-25T13:50:11Z</time>
      </trkpt>
      <trkpt lat="41.5336130" lon="-4.7362230">
        <ele>705.0</ele>
        <time>2019-05-25T13:50:12Z</time>
      </trkpt>
      <trkpt lat="41.5336150" lon="-4.7362660">
        <ele>705.0</ele>
        <time>2019-05-25T13:50:13Z</time>
      </trkpt>
      <trkpt lat="41.5336140" lon="-4.7363050">
        <ele>705.0</ele>
        <time>2019-05-25T13:50:14Z</time>
      </trkpt>
      <trkpt lat="41.5336220" lon="-4.7363390">
        <ele>705.0</ele>
        <time>2019-05-25T13:50:15Z</time>
      </trkpt>
      <trkpt lat="41.5336180" lon="-4.7363850">
        <ele>705.0</ele>
        <time>2019-05-25T13:50:16Z</time>
      </trkpt>
      <trkpt lat="41.5336310" lon="-4.7364340">
        <ele>705.0</ele>
        <time>2019-05-25T13:50:17Z</time>
      </trkpt>
      <trkpt lat="41.5336260" lon="-4.7364920">
        <ele>705.0</ele>
        <time>2019-05-25T13:50:18Z</time>
      </trkpt>
      <trkpt lat="41.5336390" lon="-4.7365420">
        <ele>705.0</ele>
        <time>2019-05-25T13:50:19Z</time>
      </trkpt>
      <trkpt lat="41.5336390" lon="-4.7366010">
        <ele>705.0</ele>
        <time>2019-05-25T13:50:20Z</time>
      </trkpt>
      <trkpt lat="41.5336430" lon="-4.7366580">
        <ele>705.0</ele>
        <time>2019-05-25T13:50:21Z</time>
      </trkpt>
      <trkpt lat="41.5336460" lon="-4.7367190">
        <ele>705.0</ele>
        <time>2019-05-25T13:50:22Z</time>
      </trkpt>
      <trkpt lat="41.5336490" lon="-4.7367810">
        <ele>705.0</ele>
        <time>2019-05-25T13:50:23Z</time>
      </trkpt>
      <trkpt lat="41.5336470" lon="-4.7368450">
        <ele>705.0</ele>
        <time>2019-05-25T13:50:24Z</time>
      </trkpt>
      <trkpt lat="41.5336480" lon="-4.7369150">
        <ele>705.0</ele>
        <time>2019-05-25T13:50:25Z</time>
      </trkpt>
      <trkpt lat="41.5336390" lon="-4.7369900">
        <ele>704.9</ele>
        <time>2019-05-25T13:50:26Z</time>
      </trkpt>
      <trkpt lat="41.5336330" lon="-4.7370670">
        <ele>704.9</ele>
        <time>2019-05-25T13:50:27Z</time>
      </trkpt>
      <trkpt lat="41.5336230" lon="-4.7371460">
        <ele>704.9</ele>
        <time>2019-05-25T13:50:28Z</time>
      </trkpt>
      <trkpt lat="41.5336150" lon="-4.7372240">
        <ele>704.9</ele>
        <time>2019-05-25T13:50:29Z</time>
      </trkpt>
      <trkpt lat="41.5336020" lon="-4.7373050">
        <ele>704.9</ele>
        <time>2019-05-25T13:50:30Z</time>
      </trkpt>
      <trkpt lat="41.5335990" lon="-4.7373890">
        <ele>704.9</ele>
        <time>2019-05-25T13:50:31Z</time>
      </trkpt>
      <trkpt lat="41.5335900" lon="-4.7374740">
        <ele>704.9</ele>
        <time>2019-05-25T13:50:32Z</time>
      </trkpt>
      <trkpt lat="41.5335890" lon="-4.7375610">
        <ele>704.9</ele>
        <time>2019-05-25T13:50:33Z</time>
      </trkpt>
      <trkpt lat="41.5335880" lon="-4.7376450">
        <ele>704.9</ele>
        <time>2019-05-25T13:50:34Z</time>
      </trkpt>
      <trkpt lat="41.5335890" lon="-4.7377330">
        <ele>704.9</ele>
        <time>2019-05-25T13:50:35Z</time>
      </trkpt>
      <trkpt lat="41.5335900" lon="-4.7378200">
        <ele>704.9</ele>
        <time>2019-05-25T13:50:36Z</time>
      </trkpt>
      <trkpt lat="41.5335920" lon="-4.7379070">
        <ele>704.8</ele>
        <time>2019-05-25T13:50:37Z</time>
      </trkpt>
      <trkpt lat="41.5335970" lon="-4.7379900">
        <ele>704.8</ele>
        <time>2019-05-25T13:50:38Z</time>
      </trkpt>
      <trkpt lat="41.5335990" lon="-4.7380730">
        <ele>704.8</ele>
        <time>2019-05-25T13:50:39Z</time>
      </trkpt>
      <trkpt lat="41.5336050" lon="-4.7381500">
        <ele>704.8</ele>
        <time>2019-05-25T13:50:40Z</time>
      </trkpt>
      <trkpt lat="41.5336150" lon="-4.7382300">
        <ele>704.8</ele>
        <time>2019-05-25T13:50:41Z</time>
      </trkpt>
      <trkpt lat="41.5336180" lon="-4.7383050">
        <ele>704.9</ele>
        <time>2019-05-25T13:50:42Z</time>
      </trkpt>
      <trkpt lat="41.5336230" lon="-4.7383810">
        <ele>704.9</ele>
        <time>2019-05-25T13:50:43Z</time>
      </trkpt>
      <trkpt lat="41.5336310" lon="-4.7384550">
        <ele>705.0</ele>
        <time>2019-05-25T13:50:44Z</time>
      </trkpt>
      <trkpt lat="41.5336350" lon="-4.7385290">
        <ele>705.2</ele>
        <time>2019-05-25T13:50:45Z</time>
      </trkpt>
      <trkpt lat="41.5336370" lon="-4.7386010">
        <ele>705.4</ele>
        <time>2019-05-25T13:50:46Z</time>
      </trkpt>
      <trkpt lat="41.5336350" lon="-4.7386770">
        <ele>705.5</ele>
        <time>2019-05-25T13:50:47Z</time>
      </trkpt>
      <trkpt lat="41.5336360" lon="-4.7387470">
        <ele>705.6</ele>
        <time>2019-05-25T13:50:48Z</time>
      </trkpt>
      <trkpt lat="41.5336390" lon="-4.7388010">
        <ele>705.7</ele>
        <time>2019-05-25T13:50:49Z</time>
      </trkpt>
      <trkpt lat="41.5336370" lon="-4.7388630">
        <ele>705.8</ele>
        <time>2019-05-25T13:50:50Z</time>
      </trkpt>
      <trkpt lat="41.5336360" lon="-4.7389220">
        <ele>705.8</ele>
        <time>2019-05-25T13:50:51Z</time>
      </trkpt>
      <trkpt lat="41.5336380" lon="-4.7389800">
        <ele>705.8</ele>
        <time>2019-05-25T13:50:52Z</time>
      </trkpt>
      <trkpt lat="41.5336390" lon="-4.7390420">
        <ele>705.8</ele>
        <time>2019-05-25T13:50:53Z</time>
      </trkpt>
      <trkpt lat="41.5336390" lon="-4.7391030">
        <ele>705.8</ele>
        <time>2019-05-25T13:50:54Z</time>
      </trkpt>
      <trkpt lat="41.5336410" lon="-4.7391670">
        <ele>705.8</ele>
        <time>2019-05-25T13:50:55Z</time>
      </trkpt>
      <trkpt lat="41.5336400" lon="-4.7392290">
        <ele>705.8</ele>
        <time>2019-05-25T13:50:56Z</time>
      </trkpt>
      <trkpt lat="41.5336410" lon="-4.7392900">
        <ele>705.8</ele>
        <time>2019-05-25T13:50:57Z</time>
      </trkpt>
      <trkpt lat="41.5336380" lon="-4.7393550">
        <ele>705.8</ele>
        <time>2019-05-25T13:50:58Z</time>
      </trkpt>
      <trkpt lat="41.5336440" lon="-4.7394200">
        <ele>705.8</ele>
        <time>2019-05-25T13:50:59Z</time>
      </trkpt>
      <trkpt lat="41.5336440" lon="-4.7394890">
        <ele>705.8</ele>
        <time>2019-05-25T13:51:00Z</time>
      </trkpt>
      <trkpt lat="41.5336420" lon="-4.7395610">
        <ele>705.7</ele>
        <time>2019-05-25T13:51:01Z</time>
      </trkpt>
      <trkpt lat="41.5336410" lon="-4.7396350">
        <ele>705.7</ele>
        <time>2019-05-25T13:51:02Z</time>
      </trkpt>
      <trkpt lat="41.5336390" lon="-4.7397080">
        <ele>705.7</ele>
        <time>2019-05-25T13:51:03Z</time>
      </trkpt>
      <trkpt lat="41.5336370" lon="-4.7397800">
        <ele>705.7</ele>
        <time>2019-05-25T13:51:04Z</time>
      </trkpt>
      <trkpt lat="41.5336370" lon="-4.7398520">
        <ele>705.7</ele>
        <time>2019-05-25T13:51:05Z</time>
      </trkpt>
      <trkpt lat="41.5336370" lon="-4.7399240">
        <ele>705.7</ele>
        <time>2019-05-25T13:51:06Z</time>
      </trkpt>
      <trkpt lat="41.5336310" lon="-4.7399930">
        <ele>705.7</ele>
        <time>2019-05-25T13:51:07Z</time>
      </trkpt>
      <trkpt lat="41.5336330" lon="-4.7400580">
        <ele>705.7</ele>
        <time>2019-05-25T13:51:08Z</time>
      </trkpt>
      <trkpt lat="41.5336350" lon="-4.7401230">
        <ele>705.7</ele>
        <time>2019-05-25T13:51:09Z</time>
      </trkpt>
      <trkpt lat="41.5336360" lon="-4.7401880">
        <ele>705.7</ele>
        <time>2019-05-25T13:51:10Z</time>
      </trkpt>
      <trkpt lat="41.5336350" lon="-4.7402530">
        <ele>705.7</ele>
        <time>2019-05-25T13:51:11Z</time>
      </trkpt>
      <trkpt lat="41.5336380" lon="-4.7403190">
        <ele>705.7</ele>
        <time>2019-05-25T13:51:12Z</time>
      </trkpt>
      <trkpt lat="41.5336380" lon="-4.7403840">
        <ele>705.6</ele>
        <time>2019-05-25T13:51:13Z</time>
      </trkpt>
      <trkpt lat="41.5336410" lon="-4.7404490">
        <ele>705.6</ele>
        <time>2019-05-25T13:51:14Z</time>
      </trkpt>
      <trkpt lat="41.5336430" lon="-4.7405140">
        <ele>705.6</ele>
        <time>2019-05-25T13:51:15Z</time>
      </trkpt>
      <trkpt lat="41.5336400" lon="-4.7405750">
        <ele>705.6</ele>
        <time>2019-05-25T13:51:16Z</time>
      </trkpt>
      <trkpt lat="41.5336340" lon="-4.7406410">
        <ele>705.6</ele>
        <time>2019-05-25T13:51:17Z</time>
      </trkpt>
      <trkpt lat="41.5336250" lon="-4.7407150">
        <ele>705.5</ele>
        <time>2019-05-25T13:51:18Z</time>
      </trkpt>
      <trkpt lat="41.5336200" lon="-4.7407840">
        <ele>705.4</ele>
        <time>2019-05-25T13:51:19Z</time>
      </trkpt>
      <trkpt lat="41.5336050" lon="-4.7408510">
        <ele>705.3</ele>
        <time>2019-05-25T13:51:20Z</time>
      </trkpt>
      <trkpt lat="41.5335960" lon="-4.7409130">
        <ele>705.2</ele>
        <time>2019-05-25T13:51:21Z</time>
      </trkpt>
      <trkpt lat="41.5335890" lon="-4.7409840">
        <ele>705.0</ele>
        <time>2019-05-25T13:51:22Z</time>
      </trkpt>
      <trkpt lat="41.5335760" lon="-4.7410650">
        <ele>704.9</ele>
        <time>2019-05-25T13:51:23Z</time>
      </trkpt>
      <trkpt lat="41.5335660" lon="-4.7411520">
        <ele>704.7</ele>
        <time>2019-05-25T13:51:24Z</time>
      </trkpt>
      <trkpt lat="41.5335660" lon="-4.7412160">
        <ele>704.6</ele>
        <time>2019-05-25T13:51:25Z</time>
      </trkpt>
      <trkpt lat="41.5335640" lon="-4.7412950">
        <ele>704.5</ele>
        <time>2019-05-25T13:51:26Z</time>
      </trkpt>
      <trkpt lat="41.5335590" lon="-4.7413740">
        <ele>704.5</ele>
        <time>2019-05-25T13:51:27Z</time>
      </trkpt>
      <trkpt lat="41.5335530" lon="-4.7414500">
        <ele>704.4</ele>
        <time>2019-05-25T13:51:28Z</time>
      </trkpt>
      <trkpt lat="41.5335440" lon="-4.7415300">
        <ele>704.4</ele>
        <time>2019-05-25T13:51:29Z</time>
      </trkpt>
      <trkpt lat="41.5335400" lon="-4.7416130">
        <ele>704.3</ele>
        <time>2019-05-25T13:51:30Z</time>
      </trkpt>
      <trkpt lat="41.5335130" lon="-4.7417280">
        <ele>704.2</ele>
        <time>2019-05-25T13:51:31Z</time>
      </trkpt>
      <trkpt lat="41.5335100" lon="-4.7418200">
        <ele>704.0</ele>
        <time>2019-05-25T13:51:32Z</time>
      </trkpt>
      <trkpt lat="41.5335080" lon="-4.7418950">
        <ele>703.9</ele>
        <time>2019-05-25T13:51:33Z</time>
      </trkpt>
      <trkpt lat="41.5334880" lon="-4.7419630">
        <ele>703.7</ele>
        <time>2019-05-25T13:51:34Z</time>
      </trkpt>
      <trkpt lat="41.5334830" lon="-4.7420420">
        <ele>703.6</ele>
        <time>2019-05-25T13:51:35Z</time>
      </trkpt>
      <trkpt lat="41.5334780" lon="-4.7421270">
        <ele>703.5</ele>
        <time>2019-05-25T13:51:36Z</time>
      </trkpt>
      <trkpt lat="41.5334720" lon="-4.7422100">
        <ele>703.4</ele>
        <time>2019-05-25T13:51:37Z</time>
      </trkpt>
      <trkpt lat="41.5334690" lon="-4.7422920">
        <ele>703.3</ele>
        <time>2019-05-25T13:51:38Z</time>
      </trkpt>
      <trkpt lat="41.5334460" lon="-4.7423590">
        <ele>703.3</ele>
        <time>2019-05-25T13:51:39Z</time>
      </trkpt>
      <trkpt lat="41.5334330" lon="-4.7424460">
        <ele>703.3</ele>
        <time>2019-05-25T13:51:40Z</time>
      </trkpt>
      <trkpt lat="41.5334210" lon="-4.7425490">
        <ele>703.3</ele>
        <time>2019-05-25T13:51:41Z</time>
      </trkpt>
      <trkpt lat="41.5334000" lon="-4.7426670">
        <ele>703.3</ele>
        <time>2019-05-25T13:51:42Z</time>
      </trkpt>
      <trkpt lat="41.5333930" lon="-4.7427610">
        <ele>703.3</ele>
        <time>2019-05-25T13:51:43Z</time>
      </trkpt>
      <trkpt lat="41.5333950" lon="-4.7428660">
        <ele>703.3</ele>
        <time>2019-05-25T13:51:44Z</time>
      </trkpt>
      <trkpt lat="41.5333790" lon="-4.7429500">
        <ele>703.2</ele>
        <time>2019-05-25T13:51:45Z</time>
      </trkpt>
      <trkpt lat="41.5333600" lon="-4.7430450">
        <ele>703.2</ele>
        <time>2019-05-25T13:51:46Z</time>
      </trkpt>
      <trkpt lat="41.5333580" lon="-4.7431360">
        <ele>703.2</ele>
        <time>2019-05-25T13:51:47Z</time>
      </trkpt>
      <trkpt lat="41.5333400" lon="-4.7432250">
        <ele>703.2</ele>
        <time>2019-05-25T13:51:48Z</time>
      </trkpt>
      <trkpt lat="41.5333250" lon="-4.7433080">
        <ele>703.2</ele>
        <time>2019-05-25T13:51:49Z</time>
      </trkpt>
      <trkpt lat="41.5333140" lon="-4.7433880">
        <ele>703.2</ele>
        <time>2019-05-25T13:51:50Z</time>
      </trkpt>
      <trkpt lat="41.5333020" lon="-4.7434730">
        <ele>703.2</ele>
        <time>2019-05-25T13:51:51Z</time>
      </trkpt>
      <trkpt lat="41.5332940" lon="-4.7435520">
        <ele>703.1</ele>
        <time>2019-05-25T13:51:52Z</time>
      </trkpt>
      <trkpt lat="41.5332840" lon="-4.7436390">
        <ele>703.1</ele>
        <time>2019-05-25T13:51:53Z</time>
      </trkpt>
      <trkpt lat="41.5332560" lon="-4.7437260">
        <ele>703.0</ele>
        <time>2019-05-25T13:51:54Z</time>
      </trkpt>
      <trkpt lat="41.5332380" lon="-4.7438070">
        <ele>702.8</ele>
        <time>2019-05-25T13:51:55Z</time>
      </trkpt>
      <trkpt lat="41.5332350" lon="-4.7438820">
        <ele>702.7</ele>
        <time>2019-05-25T13:51:56Z</time>
      </trkpt>
      <trkpt lat="41.5332390" lon="-4.7439500">
        <ele>702.5</ele>
        <time>2019-05-25T13:51:57Z</time>
      </trkpt>
      <trkpt lat="41.5332220" lon="-4.7440200">
        <ele>702.4</ele>
        <time>2019-05-25T13:51:58Z</time>
      </trkpt>
      <trkpt lat="41.5332000" lon="-4.7440980">
        <ele>702.3</ele>
        <time>2019-05-25T13:51:59Z</time>
      </trkpt>
      <trkpt lat="41.5331650" lon="-4.7441740">
        <ele>702.2</ele>
        <time>2019-05-25T13:52:00Z</time>
      </trkpt>
      <trkpt lat="41.5331530" lon="-4.7442640">
        <ele>702.1</ele>
        <time>2019-05-25T13:52:01Z</time>
      </trkpt>
      <trkpt lat="41.5331470" lon="-4.7443380">
        <ele>702.1</ele>
        <time>2019-05-25T13:52:02Z</time>
      </trkpt>
      <trkpt lat="41.5331170" lon="-4.7444320">
        <ele>701.9</ele>
        <time>2019-05-25T13:52:03Z</time>
      </trkpt>
      <trkpt lat="41.5331110" lon="-4.7445160">
        <ele>701.8</ele>
        <time>2019-05-25T13:52:04Z</time>
      </trkpt>
      <trkpt lat="41.5330970" lon="-4.7446230">
        <ele>701.5</ele>
        <time>2019-05-25T13:52:05Z</time>
      </trkpt>
      <trkpt lat="41.5330670" lon="-4.7447070">
        <ele>701.3</ele>
        <time>2019-05-25T13:52:06Z</time>
      </trkpt>
      <trkpt lat="41.5330500" lon="-4.7447960">
        <ele>701.2</ele>
        <time>2019-05-25T13:52:07Z</time>
      </trkpt>
      <trkpt lat="41.5330360" lon="-4.7448790">
        <ele>701.1</ele>
        <time>2019-05-25T13:52:08Z</time>
      </trkpt>
      <trkpt lat="41.5330350" lon="-4.7449710">
        <ele>701.0</ele>
        <time>2019-05-25T13:52:09Z</time>
      </trkpt>
      <trkpt lat="41.5330240" lon="-4.7450560">
        <ele>701.0</ele>
        <time>2019-05-25T13:52:10Z</time>
      </trkpt>
      <trkpt lat="41.5330300" lon="-4.7451480">
        <ele>700.9</ele>
        <time>2019-05-25T13:52:11Z</time>
      </trkpt>
      <trkpt lat="41.5330040" lon="-4.7452430">
        <ele>700.9</ele>
        <time>2019-05-25T13:52:12Z</time>
      </trkpt>
      <trkpt lat="41.5329830" lon="-4.7453410">
        <ele>700.8</ele>
        <time>2019-05-25T13:52:13Z</time>
      </trkpt>
      <trkpt lat="41.5329820" lon="-4.7454250">
        <ele>700.6</ele>
        <time>2019-05-25T13:52:14Z</time>
      </trkpt>
      <trkpt lat="41.5329700" lon="-4.7455160">
        <ele>700.5</ele>
        <time>2019-05-25T13:52:15Z</time>
      </trkpt>
      <trkpt lat="41.5329380" lon="-4.7456010">
        <ele>700.3</ele>
        <time>2019-05-25T13:52:16Z</time>
      </trkpt>
      <trkpt lat="41.5329210" lon="-4.7457000">
        <ele>700.2</ele>
        <time>2019-05-25T13:52:17Z</time>
      </trkpt>
      <trkpt lat="41.5329070" lon="-4.7457970">
        <ele>700.1</ele>
        <time>2019-05-25T13:52:18Z</time>
      </trkpt>
      <trkpt lat="41.5328980" lon="-4.7458680">
        <ele>700.0</ele>
        <time>2019-05-25T13:52:19Z</time>
      </trkpt>
      <trkpt lat="41.5328930" lon="-4.7459650">
        <ele>700.0</ele>
        <time>2019-05-25T13:52:20Z</time>
      </trkpt>
      <trkpt lat="41.5328820" lon="-4.7460290">
        <ele>700.0</ele>
        <time>2019-05-25T13:52:21Z</time>
      </trkpt>
      <trkpt lat="41.5328610" lon="-4.7461090">
        <ele>700.0</ele>
        <time>2019-05-25T13:52:22Z</time>
      </trkpt>
      <trkpt lat="41.5328490" lon="-4.7462100">
        <ele>700.0</ele>
        <time>2019-05-25T13:52:23Z</time>
      </trkpt>
      <trkpt lat="41.5328570" lon="-4.7462930">
        <ele>700.0</ele>
        <time>2019-05-25T13:52:24Z</time>
      </trkpt>
      <trkpt lat="41.5328220" lon="-4.7463720">
        <ele>699.9</ele>
        <time>2019-05-25T13:52:25Z</time>
      </trkpt>
      <trkpt lat="41.5327900" lon="-4.7464620">
        <ele>699.9</ele>
        <time>2019-05-25T13:52:26Z</time>
      </trkpt>
      <trkpt lat="41.5327960" lon="-4.7465500">
        <ele>699.9</ele>
        <time>2019-05-25T13:52:27Z</time>
      </trkpt>
      <trkpt lat="41.5327790" lon="-4.7466100">
        <ele>699.9</ele>
        <time>2019-05-25T13:52:28Z</time>
      </trkpt>
      <trkpt lat="41.5327640" lon="-4.7466870">
        <ele>699.9</ele>
        <time>2019-05-25T13:52:29Z</time>
      </trkpt>
      <trkpt lat="41.5327310" lon="-4.7467730">
        <ele>699.9</ele>
        <time>2019-05-25T13:52:30Z</time>
      </trkpt>
      <trkpt lat="41.5327160" lon="-4.7468480">
        <ele>699.9</ele>
        <time>2019-05-25T13:52:31Z</time>
      </trkpt>
      <trkpt lat="41.5327070" lon="-4.7469340">
        <ele>699.9</ele>
        <time>2019-05-25T13:52:32Z</time>
      </trkpt>
      <trkpt lat="41.5327000" lon="-4.7470230">
        <ele>699.9</ele>
        <time>2019-05-25T13:52:33Z</time>
      </trkpt>
      <trkpt lat="41.5326620" lon="-4.7471100">
        <ele>699.9</ele>
        <time>2019-05-25T13:52:34Z</time>
      </trkpt>
      <trkpt lat="41.5326610" lon="-4.7472050">
        <ele>699.8</ele>
        <time>2019-05-25T13:52:35Z</time>
      </trkpt>
      <trkpt lat="41.5326510" lon="-4.7472760">
        <ele>699.8</ele>
        <time>2019-05-25T13:52:36Z</time>
      </trkpt>
      <trkpt lat="41.5326390" lon="-4.7473320">
        <ele>699.8</ele>
        <time>2019-05-25T13:52:37Z</time>
      </trkpt>
      <trkpt lat="41.5326210" lon="-4.7473920">
        <ele>699.8</ele>
        <time>2019-05-25T13:52:38Z</time>
      </trkpt>
      <trkpt lat="41.5326190" lon="-4.7474890">
        <ele>699.8</ele>
        <time>2019-05-25T13:52:39Z</time>
      </trkpt>
      <trkpt lat="41.5326170" lon="-4.7475670">
        <ele>699.7</ele>
        <time>2019-05-25T13:52:40Z</time>
      </trkpt>
      <trkpt lat="41.5326090" lon="-4.7476700">
        <ele>699.6</ele>
        <time>2019-05-25T13:52:41Z</time>
      </trkpt>
      <trkpt lat="41.5325910" lon="-4.7477610">
        <ele>699.4</ele>
        <time>2019-05-25T13:52:42Z</time>
      </trkpt>
      <trkpt lat="41.5325780" lon="-4.7478540">
        <ele>699.2</ele>
        <time>2019-05-25T13:52:43Z</time>
      </trkpt>
      <trkpt lat="41.5325840" lon="-4.7479500">
        <ele>699.0</ele>
        <time>2019-05-25T13:52:44Z</time>
      </trkpt>
      <trkpt lat="41.5325920" lon="-4.7480200">
        <ele>698.9</ele>
        <time>2019-05-25T13:52:45Z</time>
      </trkpt>
      <trkpt lat="41.5325770" lon="-4.7481160">
        <ele>698.7</ele>
        <time>2019-05-25T13:52:46Z</time>
      </trkpt>
      <trkpt lat="41.5325910" lon="-4.7482190">
        <ele>698.7</ele>
        <time>2019-05-25T13:52:47Z</time>
      </trkpt>
      <trkpt lat="41.5325730" lon="-4.7483030">
        <ele>698.6</ele>
        <time>2019-05-25T13:52:48Z</time>
      </trkpt>
      <trkpt lat="41.5325870" lon="-4.7483880">
        <ele>698.6</ele>
        <time>2019-05-25T13:52:49Z</time>
      </trkpt>
      <trkpt lat="41.5325780" lon="-4.7484820">
        <ele>698.6</ele>
        <time>2019-05-25T13:52:50Z</time>
      </trkpt>
      <trkpt lat="41.5325620" lon="-4.7485520">
        <ele>698.6</ele>
        <time>2019-05-25T13:52:51Z</time>
      </trkpt>
      <trkpt lat="41.5325640" lon="-4.7486350">
        <ele>698.6</ele>
        <time>2019-05-25T13:52:52Z</time>
      </trkpt>
      <trkpt lat="41.5325620" lon="-4.7487360">
        <ele>698.6</ele>
        <time>2019-05-25T13:52:53Z</time>
      </trkpt>
      <trkpt lat="41.5325590" lon="-4.7488310">
        <ele>698.5</ele>
        <time>2019-05-25T13:52:54Z</time>
      </trkpt>
      <trkpt lat="41.5325580" lon="-4.7489170">
        <ele>698.5</ele>
        <time>2019-05-25T13:52:55Z</time>
      </trkpt>
      <trkpt lat="41.5325570" lon="-4.7490100">
        <ele>698.5</ele>
        <time>2019-05-25T13:52:56Z</time>
      </trkpt>
      <trkpt lat="41.5325480" lon="-4.7491070">
        <ele>698.4</ele>
        <time>2019-05-25T13:52:57Z</time>
      </trkpt>
      <trkpt lat="41.5325640" lon="-4.7492250">
        <ele>698.3</ele>
        <time>2019-05-25T13:52:58Z</time>
      </trkpt>
      <trkpt lat="41.5325730" lon="-4.7492910">
        <ele>698.2</ele>
        <time>2019-05-25T13:52:59Z</time>
      </trkpt>
      <trkpt lat="41.5325730" lon="-4.7494080">
        <ele>698.0</ele>
        <time>2019-05-25T13:53:00Z</time>
      </trkpt>
      <trkpt lat="41.5325880" lon="-4.7494970">
        <ele>697.8</ele>
        <time>2019-05-25T13:53:01Z</time>
      </trkpt>
      <trkpt lat="41.5325960" lon="-4.7495860">
        <ele>697.6</ele>
        <time>2019-05-25T13:53:02Z</time>
      </trkpt>
      <trkpt lat="41.5325840" lon="-4.7496710">
        <ele>697.5</ele>
        <time>2019-05-25T13:53:03Z</time>
      </trkpt>
      <trkpt lat="41.5325860" lon="-4.7497290">
        <ele>697.4</ele>
        <time>2019-05-25T13:53:04Z</time>
      </trkpt>
      <trkpt lat="41.5325870" lon="-4.7497980">
        <ele>697.2</ele>
        <time>2019-05-25T13:53:05Z</time>
      </trkpt>
      <trkpt lat="41.5325990" lon="-4.7498810">
        <ele>697.0</ele>
        <time>2019-05-25T13:53:06Z</time>
      </trkpt>
      <trkpt lat="41.5325840" lon="-4.7499720">
        <ele>696.8</ele>
        <time>2019-05-25T13:53:07Z</time>
      </trkpt>
      <trkpt lat="41.5325950" lon="-4.7500490">
        <ele>696.6</ele>
        <time>2019-05-25T13:53:08Z</time>
      </trkpt>
      <trkpt lat="41.5326100" lon="-4.7501350">
        <ele>696.5</ele>
        <time>2019-05-25T13:53:09Z</time>
      </trkpt>
      <trkpt lat="41.5326060" lon="-4.7502430">
        <ele>696.4</ele>
        <time>2019-05-25T13:53:10Z</time>
      </trkpt>
      <trkpt lat="41.5326090" lon="-4.7503440">
        <ele>696.4</ele>
        <time>2019-05-25T13:53:11Z</time>
      </trkpt>
      <trkpt lat="41.5325550" lon="-4.7504120">
        <ele>696.4</ele>
        <time>2019-05-25T13:53:12Z</time>
      </trkpt>
      <trkpt lat="41.5325710" lon="-4.7505150">
        <ele>696.3</ele>
        <time>2019-05-25T13:53:13Z</time>
      </trkpt>
      <trkpt lat="41.5325570" lon="-4.7505960">
        <ele>696.3</ele>
        <time>2019-05-25T13:53:14Z</time>
      </trkpt>
      <trkpt lat="41.5325740" lon="-4.7506750">
        <ele>696.2</ele>
        <time>2019-05-25T13:53:15Z</time>
      </trkpt>
      <trkpt lat="41.5325860" lon="-4.7507540">
        <ele>696.1</ele>
        <time>2019-05-25T13:53:16Z</time>
      </trkpt>
      <trkpt lat="41.5326040" lon="-4.7508320">
        <ele>696.0</ele>
        <time>2019-05-25T13:53:17Z</time>
      </trkpt>
      <trkpt lat="41.5326200" lon="-4.7509080">
        <ele>695.8</ele>
        <time>2019-05-25T13:53:18Z</time>
      </trkpt>
      <trkpt lat="41.5326270" lon="-4.7509830">
        <ele>695.7</ele>
        <time>2019-05-25T13:53:19Z</time>
      </trkpt>
      <trkpt lat="41.5326410" lon="-4.7510790">
        <ele>695.5</ele>
        <time>2019-05-25T13:53:20Z</time>
      </trkpt>
      <trkpt lat="41.5326520" lon="-4.7511520">
        <ele>695.5</ele>
        <time>2019-05-25T13:53:21Z</time>
      </trkpt>
      <trkpt lat="41.5326650" lon="-4.7512500">
        <ele>695.4</ele>
        <time>2019-05-25T13:53:22Z</time>
      </trkpt>
      <trkpt lat="41.5326650" lon="-4.7513340">
        <ele>695.4</ele>
        <time>2019-05-25T13:53:23Z</time>
      </trkpt>
      <trkpt lat="41.5326800" lon="-4.7514250">
        <ele>695.4</ele>
        <time>2019-05-25T13:53:24Z</time>
      </trkpt>
      <trkpt lat="41.5326850" lon="-4.7514960">
        <ele>695.4</ele>
        <time>2019-05-25T13:53:25Z</time>
      </trkpt>
      <trkpt lat="41.5326970" lon="-4.7515680">
        <ele>695.5</ele>
        <time>2019-05-25T13:53:26Z</time>
      </trkpt>
      <trkpt lat="41.5327050" lon="-4.7516470">
        <ele>695.6</ele>
        <time>2019-05-25T13:53:27Z</time>
      </trkpt>
      <trkpt lat="41.5327170" lon="-4.7517130">
        <ele>695.7</ele>
        <time>2019-05-25T13:53:28Z</time>
      </trkpt>
      <trkpt lat="41.5327310" lon="-4.7517840">
        <ele>695.9</ele>
        <time>2019-05-25T13:53:29Z</time>
      </trkpt>
      <trkpt lat="41.5327400" lon="-4.7518450">
        <ele>696.0</ele>
        <time>2019-05-25T13:53:30Z</time>
      </trkpt>
      <trkpt lat="41.5327420" lon="-4.7519140">
        <ele>696.1</ele>
        <time>2019-05-25T13:53:31Z</time>
      </trkpt>
      <trkpt lat="41.5327600" lon="-4.7519670">
        <ele>696.1</ele>
        <time>2019-05-25T13:53:32Z</time>
      </trkpt>
      <trkpt lat="41.5327740" lon="-4.7520200">
        <ele>696.1</ele>
        <time>2019-05-25T13:53:33Z</time>
      </trkpt>
      <trkpt lat="41.5327940" lon="-4.7520910">
        <ele>696.1</ele>
        <time>2019-05-25T13:53:34Z</time>
      </trkpt>
      <trkpt lat="41.5328010" lon="-4.7521500">
        <ele>696.1</ele>
        <time>2019-05-25T13:53:35Z</time>
      </trkpt>
      <trkpt lat="41.5328160" lon="-4.7522140">
        <ele>696.1</ele>
        <time>2019-05-25T13:53:36Z</time>
      </trkpt>
      <trkpt lat="41.5328330" lon="-4.7522990">
        <ele>696.1</ele>
        <time>2019-05-25T13:53:37Z</time>
      </trkpt>
      <trkpt lat="41.5328410" lon="-4.7523660">
        <ele>696.1</ele>
        <time>2019-05-25T13:53:38Z</time>
      </trkpt>
      <trkpt lat="41.5328590" lon="-4.7524250">
        <ele>696.1</ele>
        <time>2019-05-25T13:53:39Z</time>
      </trkpt>
      <trkpt lat="41.5328760" lon="-4.7524640">
        <ele>696.1</ele>
        <time>2019-05-25T13:53:40Z</time>
      </trkpt>
      <trkpt lat="41.5328910" lon="-4.7525100">
        <ele>696.1</ele>
        <time>2019-05-25T13:53:41Z</time>
      </trkpt>
      <trkpt lat="41.5329170" lon="-4.7525800">
        <ele>696.0</ele>
        <time>2019-05-25T13:53:42Z</time>
      </trkpt>
      <trkpt lat="41.5329400" lon="-4.7526480">
        <ele>695.9</ele>
        <time>2019-05-25T13:53:43Z</time>
      </trkpt>
      <trkpt lat="41.5329530" lon="-4.7526810">
        <ele>695.9</ele>
        <time>2019-05-25T13:53:44Z</time>
      </trkpt>
      <trkpt lat="41.5329530" lon="-4.7527590">
        <ele>695.7</ele>
        <time>2019-05-25T13:53:45Z</time>
      </trkpt>
      <trkpt lat="41.5329790" lon="-4.7528260">
        <ele>695.6</ele>
        <time>2019-05-25T13:53:46Z</time>
      </trkpt>
      <trkpt lat="41.5329890" lon="-4.7528730">
        <ele>695.5</ele>
        <time>2019-05-25T13:53:48Z</time>
      </trkpt>
      <trkpt lat="41.5330000" lon="-4.7529210">
        <ele>695.4</ele>
        <time>2019-05-25T13:53:49Z</time>
      </trkpt>
      <trkpt lat="41.5330130" lon="-4.7529650">
        <ele>695.3</ele>
        <time>2019-05-25T13:53:50Z</time>
      </trkpt>
      <trkpt lat="41.5330250" lon="-4.7530100">
        <ele>695.2</ele>
        <time>2019-05-25T13:53:51Z</time>
      </trkpt>
      <trkpt lat="41.5330410" lon="-4.7530550">
        <ele>695.1</ele>
        <time>2019-05-25T13:53:52Z</time>
      </trkpt>
      <trkpt lat="41.5330610" lon="-4.7531090">
        <ele>695.0</ele>
        <time>2019-05-25T13:53:53Z</time>
      </trkpt>
      <trkpt lat="41.5330840" lon="-4.7531630">
        <ele>694.9</ele>
        <time>2019-05-25T13:53:54Z</time>
      </trkpt>
      <trkpt lat="41.5331100" lon="-4.7532210">
        <ele>694.8</ele>
        <time>2019-05-25T13:53:55Z</time>
      </trkpt>
      <trkpt lat="41.5331350" lon="-4.7532870">
        <ele>694.6</ele>
        <time>2019-05-25T13:53:56Z</time>
      </trkpt>
      <trkpt lat="41.5331580" lon="-4.7533610">
        <ele>694.5</ele>
        <time>2019-05-25T13:53:57Z</time>
      </trkpt>
      <trkpt lat="41.5332320" lon="-4.7538670">
        <ele>693.8</ele>
        <time>2019-05-25T13:53:59Z</time>
      </trkpt>
      <trkpt lat="41.5332510" lon="-4.7539330">
        <ele>693.6</ele>
        <time>2019-05-25T13:54:00Z</time>
      </trkpt>
      <trkpt lat="41.5332750" lon="-4.7539910">
        <ele>693.5</ele>
        <time>2019-05-25T13:54:01Z</time>
      </trkpt>
      <trkpt lat="41.5332950" lon="-4.7540580">
        <ele>693.3</ele>
        <time>2019-05-25T13:54:02Z</time>
      </trkpt>
      <trkpt lat="41.5333190" lon="-4.7541240">
        <ele>693.2</ele>
        <time>2019-05-25T13:54:03Z</time>
      </trkpt>
      <trkpt lat="41.5333470" lon="-4.7541920">
        <ele>693.0</ele>
        <time>2019-05-25T13:54:04Z</time>
      </trkpt>
      <trkpt lat="41.5333660" lon="-4.7542580">
        <ele>693.0</ele>
        <time>2019-05-25T13:54:05Z</time>
      </trkpt>
      <trkpt lat="41.5333710" lon="-4.7543190">
        <ele>692.9</ele>
        <time>2019-05-25T13:54:06Z</time>
      </trkpt>
      <trkpt lat="41.5333940" lon="-4.7543990">
        <ele>692.9</ele>
        <time>2019-05-25T13:54:07Z</time>
      </trkpt>
      <trkpt lat="41.5334220" lon="-4.7544560">
        <ele>692.9</ele>
        <time>2019-05-25T13:54:08Z</time>
      </trkpt>
      <trkpt lat="41.5334550" lon="-4.7545170">
        <ele>692.9</ele>
        <time>2019-05-25T13:54:09Z</time>
      </trkpt>
      <trkpt lat="41.5334820" lon="-4.7545830">
        <ele>692.9</ele>
        <time>2019-05-25T13:54:10Z</time>
      </trkpt>
      <trkpt lat="41.5335110" lon="-4.7546590">
        <ele>692.9</ele>
        <time>2019-05-25T13:54:11Z</time>
      </trkpt>
      <trkpt lat="41.5335310" lon="-4.7547180">
        <ele>692.8</ele>
        <time>2019-05-25T13:54:12Z</time>
      </trkpt>
      <trkpt lat="41.5335550" lon="-4.7547750">
        <ele>692.8</ele>
        <time>2019-05-25T13:54:13Z</time>
      </trkpt>
      <trkpt lat="41.5335800" lon="-4.7548470">
        <ele>692.8</ele>
        <time>2019-05-25T13:54:14Z</time>
      </trkpt>
      <trkpt lat="41.5336090" lon="-4.7549100">
        <ele>692.8</ele>
        <time>2019-05-25T13:54:15Z</time>
      </trkpt>
      <trkpt lat="41.5336350" lon="-4.7549790">
        <ele>692.8</ele>
        <time>2019-05-25T13:54:16Z</time>
      </trkpt>
      <trkpt lat="41.5336590" lon="-4.7550340">
        <ele>692.8</ele>
        <time>2019-05-25T13:54:17Z</time>
      </trkpt>
      <trkpt lat="41.5336920" lon="-4.7550920">
        <ele>692.8</ele>
        <time>2019-05-25T13:54:18Z</time>
      </trkpt>
      <trkpt lat="41.5337110" lon="-4.7551370">
        <ele>692.8</ele>
        <time>2019-05-25T13:54:19Z</time>
      </trkpt>
      <trkpt lat="41.5337260" lon="-4.7551820">
        <ele>692.8</ele>
        <time>2019-05-25T13:54:21Z</time>
      </trkpt>
      <trkpt lat="41.5337530" lon="-4.7552480">
        <ele>692.8</ele>
        <time>2019-05-25T13:54:23Z</time>
      </trkpt>
      <trkpt lat="41.5337790" lon="-4.7553100">
        <ele>692.7</ele>
        <time>2019-05-25T13:54:24Z</time>
      </trkpt>
      <trkpt lat="41.5340300" lon="-4.7557310">
        <ele>692.1</ele>
        <time>2019-05-25T13:54:26Z</time>
      </trkpt>
      <trkpt lat="41.5339820" lon="-4.7557020">
        <ele>692.0</ele>
        <time>2019-05-25T13:54:27Z</time>
      </trkpt>
      <trkpt lat="41.5339790" lon="-4.7556600">
        <ele>691.9</ele>
        <time>2019-05-25T13:54:28Z</time>
      </trkpt>
      <trkpt lat="41.5340090" lon="-4.7556650">
        <ele>691.9</ele>
        <time>2019-05-25T13:54:29Z</time>
      </trkpt>
      <trkpt lat="41.5340370" lon="-4.7557180">
        <ele>691.8</ele>
        <time>2019-05-25T13:54:31Z</time>
      </trkpt>
      <trkpt lat="41.5340610" lon="-4.7557780">
        <ele>691.8</ele>
        <time>2019-05-25T13:54:33Z</time>
      </trkpt>
      <trkpt lat="41.5340750" lon="-4.7558110">
        <ele>691.8</ele>
        <time>2019-05-25T13:54:34Z</time>
      </trkpt>
      <trkpt lat="41.5340930" lon="-4.7558410">
        <ele>691.8</ele>
        <time>2019-05-25T13:54:35Z</time>
      </trkpt>
      <trkpt lat="41.5341260" lon="-4.7558850">
        <ele>691.5</ele>
        <time>2019-05-25T13:54:37Z</time>
      </trkpt>
      <trkpt lat="41.5341580" lon="-4.7559300">
        <ele>691.4</ele>
        <time>2019-05-25T13:54:39Z</time>
      </trkpt>
      <trkpt lat="41.5341820" lon="-4.7559900">
        <ele>691.3</ele>
        <time>2019-05-25T13:54:41Z</time>
      </trkpt>
      <trkpt lat="41.5342120" lon="-4.7560450">
        <ele>691.3</ele>
        <time>2019-05-25T13:54:43Z</time>
      </trkpt>
      <trkpt lat="41.5342530" lon="-4.7560820">
        <ele>691.2</ele>
        <time>2019-05-25T13:54:45Z</time>
      </trkpt>
      <trkpt lat="41.5343000" lon="-4.7561030">
        <ele>691.1</ele>
        <time>2019-05-25T13:54:47Z</time>
      </trkpt>
      <trkpt lat="41.5343490" lon="-4.7561260">
        <ele>691.0</ele>
        <time>2019-05-25T13:54:49Z</time>
      </trkpt>
      <trkpt lat="41.5343740" lon="-4.7561410">
        <ele>691.0</ele>
        <time>2019-05-25T13:54:50Z</time>
      </trkpt>
      <trkpt lat="41.5344000" lon="-4.7561580">
        <ele>690.9</ele>
        <time>2019-05-25T13:54:51Z</time>
      </trkpt>
      <trkpt lat="41.5344270" lon="-4.7561750">
        <ele>690.9</ele>
        <time>2019-05-25T13:54:52Z</time>
      </trkpt>
      <trkpt lat="41.5344560" lon="-4.7561920">
        <ele>690.8</ele>
        <time>2019-05-25T13:54:53Z</time>
      </trkpt>
      <trkpt lat="41.5344850" lon="-4.7562070">
        <ele>690.8</ele>
        <time>2019-05-25T13:54:54Z</time>
      </trkpt>
      <trkpt lat="41.5345140" lon="-4.7562160">
        <ele>690.8</ele>
        <time>2019-05-25T13:54:55Z</time>
      </trkpt>
      <trkpt lat="41.5345470" lon="-4.7562320">
        <ele>690.7</ele>
        <time>2019-05-25T13:54:56Z</time>
      </trkpt>
      <trkpt lat="41.5345780" lon="-4.7562470">
        <ele>690.7</ele>
        <time>2019-05-25T13:54:57Z</time>
      </trkpt>
      <trkpt lat="41.5346070" lon="-4.7562590">
        <ele>690.7</ele>
        <time>2019-05-25T13:54:58Z</time>
      </trkpt>
      <trkpt lat="41.5346470" lon="-4.7562770">
        <ele>690.6</ele>
        <time>2019-05-25T13:54:59Z</time>
      </trkpt>
      <trkpt lat="41.5347310" lon="-4.7563120">
        <ele>690.6</ele>
        <time>2019-05-25T13:55:00Z</time>
      </trkpt>
      <trkpt lat="41.5350540" lon="-4.7566230">
        <ele>690.6</ele>
        <time>2019-05-25T13:55:02Z</time>
      </trkpt>
      <trkpt lat="41.5350900" lon="-4.7566220">
        <ele>690.6</ele>
        <time>2019-05-25T13:55:03Z</time>
      </trkpt>
      <trkpt lat="41.5351480" lon="-4.7566300">
        <ele>690.7</ele>
        <time>2019-05-25T13:55:04Z</time>
      </trkpt>
      <trkpt lat="41.5351770" lon="-4.7566480">
        <ele>690.7</ele>
        <time>2019-05-25T13:55:05Z</time>
      </trkpt>
      <trkpt lat="41.5352040" lon="-4.7566740">
        <ele>690.7</ele>
        <time>2019-05-25T13:55:06Z</time>
      </trkpt>
      <trkpt lat="41.5352370" lon="-4.7567000">
        <ele>690.7</ele>
        <time>2019-05-25T13:55:07Z</time>
      </trkpt>
      <trkpt lat="41.5352710" lon="-4.7567240">
        <ele>690.7</ele>
        <time>2019-05-25T13:55:08Z</time>
      </trkpt>
      <trkpt lat="41.5353270" lon="-4.7567610">
        <ele>690.7</ele>
        <time>2019-05-25T13:55:09Z</time>
      </trkpt>
      <trkpt lat="41.5353800" lon="-4.7568040">
        <ele>690.7</ele>
        <time>2019-05-25T13:55:10Z</time>
      </trkpt>
      <trkpt lat="41.5354400" lon="-4.7568580">
        <ele>690.7</ele>
        <time>2019-05-25T13:55:11Z</time>
      </trkpt>
      <trkpt lat="41.5355010" lon="-4.7568880">
        <ele>690.7</ele>
        <time>2019-05-25T13:55:12Z</time>
      </trkpt>
      <trkpt lat="41.5356410" lon="-4.7569600">
        <ele>690.6</ele>
        <time>2019-05-25T13:55:13Z</time>
      </trkpt>
      <trkpt lat="41.5356660" lon="-4.7570560">
        <ele>690.6</ele>
        <time>2019-05-25T13:55:14Z</time>
      </trkpt>
      <trkpt lat="41.5357250" lon="-4.7570980">
        <ele>690.5</ele>
        <time>2019-05-25T13:55:15Z</time>
      </trkpt>
      <trkpt lat="41.5357760" lon="-4.7571320">
        <ele>690.5</ele>
        <time>2019-05-25T13:55:16Z</time>
      </trkpt>
      <trkpt lat="41.5358300" lon="-4.7571670">
        <ele>690.5</ele>
        <time>2019-05-25T13:55:17Z</time>
      </trkpt>
      <trkpt lat="41.5358820" lon="-4.7572050">
        <ele>690.5</ele>
        <time>2019-05-25T13:55:18Z</time>
      </trkpt>
      <trkpt lat="41.5359220" lon="-4.7572460">
        <ele>690.5</ele>
        <time>2019-05-25T13:55:19Z</time>
      </trkpt>
      <trkpt lat="41.5359580" lon="-4.7572870">
        <ele>690.5</ele>
        <time>2019-05-25T13:55:20Z</time>
      </trkpt>
      <trkpt lat="41.5359940" lon="-4.7573210">
        <ele>690.5</ele>
        <time>2019-05-25T13:55:21Z</time>
      </trkpt>
      <trkpt lat="41.5360330" lon="-4.7573610">
        <ele>690.5</ele>
        <time>2019-05-25T13:55:22Z</time>
      </trkpt>
      <trkpt lat="41.5360660" lon="-4.7574080">
        <ele>690.5</ele>
        <time>2019-05-25T13:55:23Z</time>
      </trkpt>
      <trkpt lat="41.5361010" lon="-4.7574540">
        <ele>690.5</ele>
        <time>2019-05-25T13:55:24Z</time>
      </trkpt>
      <trkpt lat="41.5361430" lon="-4.7574970">
        <ele>690.5</ele>
        <time>2019-05-25T13:55:25Z</time>
      </trkpt>
      <trkpt lat="41.5361880" lon="-4.7575250">
        <ele>690.5</ele>
        <time>2019-05-25T13:55:26Z</time>
      </trkpt>
      <trkpt lat="41.5362370" lon="-4.7575380">
        <ele>690.5</ele>
        <time>2019-05-25T13:55:27Z</time>
      </trkpt>
      <trkpt lat="41.5362850" lon="-4.7575490">
        <ele>690.6</ele>
        <time>2019-05-25T13:55:28Z</time>
      </trkpt>
      <trkpt lat="41.5363280" lon="-4.7575670">
        <ele>690.6</ele>
        <time>2019-05-25T13:55:29Z</time>
      </trkpt>
      <trkpt lat="41.5363700" lon="-4.7575960">
        <ele>690.6</ele>
        <time>2019-05-25T13:55:30Z</time>
      </trkpt>
      <trkpt lat="41.5364110" lon="-4.7576310">
        <ele>690.6</ele>
        <time>2019-05-25T13:55:31Z</time>
      </trkpt>
      <trkpt lat="41.5364470" lon="-4.7576760">
        <ele>690.6</ele>
        <time>2019-05-25T13:55:32Z</time>
      </trkpt>
      <trkpt lat="41.5364820" lon="-4.7577160">
        <ele>690.6</ele>
        <time>2019-05-25T13:55:33Z</time>
      </trkpt>
      <trkpt lat="41.5365110" lon="-4.7577370">
        <ele>690.6</ele>
        <time>2019-05-25T13:55:34Z</time>
      </trkpt>
      <trkpt lat="41.5365480" lon="-4.7577600">
        <ele>690.5</ele>
        <time>2019-05-25T13:55:35Z</time>
      </trkpt>
      <trkpt lat="41.5365840" lon="-4.7577820">
        <ele>690.5</ele>
        <time>2019-05-25T13:55:36Z</time>
      </trkpt>
      <trkpt lat="41.5366270" lon="-4.7578070">
        <ele>690.5</ele>
        <time>2019-05-25T13:55:37Z</time>
      </trkpt>
      <trkpt lat="41.5366770" lon="-4.7578360">
        <ele>690.5</ele>
        <time>2019-05-25T13:55:38Z</time>
      </trkpt>
      <trkpt lat="41.5367290" lon="-4.7578710">
        <ele>690.4</ele>
        <time>2019-05-25T13:55:39Z</time>
      </trkpt>
      <trkpt lat="41.5367800" lon="-4.7579050">
        <ele>690.4</ele>
        <time>2019-05-25T13:55:40Z</time>
      </trkpt>
      <trkpt lat="41.5368280" lon="-4.7579330">
        <ele>690.4</ele>
        <time>2019-05-25T13:55:41Z</time>
      </trkpt>
      <trkpt lat="41.5368740" lon="-4.7579610">
        <ele>690.4</ele>
        <time>2019-05-25T13:55:42Z</time>
      </trkpt>
      <trkpt lat="41.5369200" lon="-4.7579920">
        <ele>690.4</ele>
        <time>2019-05-25T13:55:43Z</time>
      </trkpt>
      <trkpt lat="41.5369650" lon="-4.7580280">
        <ele>690.4</ele>
        <time>2019-05-25T13:55:44Z</time>
      </trkpt>
      <trkpt lat="41.5370080" lon="-4.7581050">
        <ele>690.5</ele>
        <time>2019-05-25T13:55:45Z</time>
      </trkpt>
      <trkpt lat="41.5370530" lon="-4.7581640">
        <ele>690.5</ele>
        <time>2019-05-25T13:55:46Z</time>
      </trkpt>
      <trkpt lat="41.5370940" lon="-4.7581840">
        <ele>690.6</ele>
        <time>2019-05-25T13:55:47Z</time>
      </trkpt>
      <trkpt lat="41.5371340" lon="-4.7582280">
        <ele>690.6</ele>
        <time>2019-05-25T13:55:48Z</time>
      </trkpt>
      <trkpt lat="41.5371780" lon="-4.7582660">
        <ele>690.7</ele>
        <time>2019-05-25T13:55:49Z</time>
      </trkpt>
      <trkpt lat="41.5372200" lon="-4.7582930">
        <ele>690.7</ele>
        <time>2019-05-25T13:55:50Z</time>
      </trkpt>
      <trkpt lat="41.5372730" lon="-4.7583290">
        <ele>690.8</ele>
        <time>2019-05-25T13:55:51Z</time>
      </trkpt>
      <trkpt lat="41.5373150" lon="-4.7583630">
        <ele>690.8</ele>
        <time>2019-05-25T13:55:52Z</time>
      </trkpt>
      <trkpt lat="41.5373480" lon="-4.7583970">
        <ele>690.8</ele>
        <time>2019-05-25T13:55:53Z</time>
      </trkpt>
      <trkpt lat="41.5373790" lon="-4.7584280">
        <ele>690.9</ele>
        <time>2019-05-25T13:55:54Z</time>
      </trkpt>
      <trkpt lat="41.5374170" lon="-4.7584740">
        <ele>690.9</ele>
        <time>2019-05-25T13:55:55Z</time>
      </trkpt>
      <trkpt lat="41.5374540" lon="-4.7585140">
        <ele>690.9</ele>
        <time>2019-05-25T13:55:56Z</time>
      </trkpt>
      <trkpt lat="41.5374890" lon="-4.7585610">
        <ele>690.9</ele>
        <time>2019-05-25T13:55:57Z</time>
      </trkpt>
      <trkpt lat="41.5375480" lon="-4.7585960">
        <ele>691.0</ele>
        <time>2019-05-25T13:55:59Z</time>
      </trkpt>
      <trkpt lat="41.5375830" lon="-4.7586100">
        <ele>691.0</ele>
        <time>2019-05-25T13:56:01Z</time>
      </trkpt>
      <trkpt lat="41.5376170" lon="-4.7586240">
        <ele>691.0</ele>
        <time>2019-05-25T13:56:06Z</time>
      </trkpt>
      <trkpt lat="41.5376520" lon="-4.7586380">
        <ele>691.0</ele>
        <time>2019-05-25T13:56:07Z</time>
      </trkpt>
      <trkpt lat="41.5377210" lon="-4.7586710">
        <ele>691.0</ele>
        <time>2019-05-25T13:56:08Z</time>
      </trkpt>
      <trkpt lat="41.5377900" lon="-4.7586960">
        <ele>691.0</ele>
        <time>2019-05-25T13:56:09Z</time>
      </trkpt>
      <trkpt lat="41.5378640" lon="-4.7587280">
        <ele>691.0</ele>
        <time>2019-05-25T13:56:10Z</time>
      </trkpt>
      <trkpt lat="41.5379360" lon="-4.7587600">
        <ele>690.9</ele>
        <time>2019-05-25T13:56:11Z</time>
      </trkpt>
      <trkpt lat="41.5380060" lon="-4.7587860">
        <ele>690.9</ele>
        <time>2019-05-25T13:56:12Z</time>
      </trkpt>
      <trkpt lat="41.5380750" lon="-4.7588140">
        <ele>690.9</ele>
        <time>2019-05-25T13:56:13Z</time>
      </trkpt>
      <trkpt lat="41.5381360" lon="-4.7588390">
        <ele>690.9</ele>
        <time>2019-05-25T13:56:14Z</time>
      </trkpt>
      <trkpt lat="41.5381970" lon="-4.7588570">
        <ele>690.9</ele>
        <time>2019-05-25T13:56:15Z</time>
      </trkpt>
      <trkpt lat="41.5382540" lon="-4.7588820">
        <ele>690.9</ele>
        <time>2019-05-25T13:56:16Z</time>
      </trkpt>
      <trkpt lat="41.5383090" lon="-4.7589020">
        <ele>690.9</ele>
        <time>2019-05-25T13:56:17Z</time>
      </trkpt>
      <trkpt lat="41.5383580" lon="-4.7589160">
        <ele>690.9</ele>
        <time>2019-05-25T13:56:18Z</time>
      </trkpt>
      <trkpt lat="41.5384130" lon="-4.7589390">
        <ele>690.9</ele>
        <time>2019-05-25T13:56:19Z</time>
      </trkpt>
      <trkpt lat="41.5384790" lon="-4.7589740">
        <ele>690.8</ele>
        <time>2019-05-25T13:56:20Z</time>
      </trkpt>
      <trkpt lat="41.5385450" lon="-4.7590220">
        <ele>690.8</ele>
        <time>2019-05-25T13:56:21Z</time>
      </trkpt>
      <trkpt lat="41.5386170" lon="-4.7590640">
        <ele>690.7</ele>
        <time>2019-05-25T13:56:22Z</time>
      </trkpt>
      <trkpt lat="41.5386800" lon="-4.7590950">
        <ele>690.7</ele>
        <time>2019-05-25T13:56:23Z</time>
      </trkpt>
      <trkpt lat="41.5387370" lon="-4.7591200">
        <ele>690.7</ele>
        <time>2019-05-25T13:56:24Z</time>
      </trkpt>
      <trkpt lat="41.5388050" lon="-4.7591490">
        <ele>690.7</ele>
        <time>2019-05-25T13:56:25Z</time>
      </trkpt>
      <trkpt lat="41.5388610" lon="-4.7591770">
        <ele>690.7</ele>
        <time>2019-05-25T13:56:26Z</time>
      </trkpt>
      <trkpt lat="41.5389200" lon="-4.7592050">
        <ele>690.7</ele>
        <time>2019-05-25T13:56:27Z</time>
      </trkpt>
      <trkpt lat="41.5389880" lon="-4.7592240">
        <ele>690.6</ele>
        <time>2019-05-25T13:56:28Z</time>
      </trkpt>
      <trkpt lat="41.5390470" lon="-4.7592380">
        <ele>690.6</ele>
        <time>2019-05-25T13:56:29Z</time>
      </trkpt>
      <trkpt lat="41.5391010" lon="-4.7592530">
        <ele>690.6</ele>
        <time>2019-05-25T13:56:30Z</time>
      </trkpt>
      <trkpt lat="41.5391610" lon="-4.7592640">
        <ele>690.5</ele>
        <time>2019-05-25T13:56:31Z</time>
      </trkpt>
      <trkpt lat="41.5391960" lon="-4.7592680">
        <ele>690.5</ele>
        <time>2019-05-25T13:56:32Z</time>
      </trkpt>
      <trkpt lat="41.5392440" lon="-4.7592600">
        <ele>690.5</ele>
        <time>2019-05-25T13:56:35Z</time>
      </trkpt>
      <trkpt lat="41.5392660" lon="-4.7592710">
        <ele>690.5</ele>
        <time>2019-05-25T13:56:36Z</time>
      </trkpt>
      <trkpt lat="41.5393100" lon="-4.7592820">
        <ele>690.5</ele>
        <time>2019-05-25T13:56:37Z</time>
      </trkpt>
      <trkpt lat="41.5393510" lon="-4.7593250">
        <ele>690.5</ele>
        <time>2019-05-25T13:56:39Z</time>
      </trkpt>
      <trkpt lat="41.5393940" lon="-4.7593410">
        <ele>690.4</ele>
        <time>2019-05-25T13:56:40Z</time>
      </trkpt>
      <trkpt lat="41.5394330" lon="-4.7593510">
        <ele>690.4</ele>
        <time>2019-05-25T13:56:41Z</time>
      </trkpt>
      <trkpt lat="41.5394030" lon="-4.7592990">
        <ele>690.4</ele>
        <time>2019-05-25T13:56:43Z</time>
      </trkpt>
      <trkpt lat="41.5394340" lon="-4.7592860">
        <ele>690.4</ele>
        <time>2019-05-25T13:56:44Z</time>
      </trkpt>
      <trkpt lat="41.5394920" lon="-4.7592980">
        <ele>690.3</ele>
        <time>2019-05-25T13:56:45Z</time>
      </trkpt>
      <trkpt lat="41.5395410" lon="-4.7593150">
        <ele>690.3</ele>
        <time>2019-05-25T13:56:46Z</time>
      </trkpt>
      <trkpt lat="41.5395930" lon="-4.7593270">
        <ele>690.2</ele>
        <time>2019-05-25T13:56:47Z</time>
      </trkpt>
      <trkpt lat="41.5396520" lon="-4.7593360">
        <ele>690.1</ele>
        <time>2019-05-25T13:56:48Z</time>
      </trkpt>
      <trkpt lat="41.5397180" lon="-4.7593420">
        <ele>690.1</ele>
        <time>2019-05-25T13:56:49Z</time>
      </trkpt>
      <trkpt lat="41.5397980" lon="-4.7593590">
        <ele>690.0</ele>
        <time>2019-05-25T13:56:50Z</time>
      </trkpt>
      <trkpt lat="41.5398830" lon="-4.7593820">
        <ele>689.9</ele>
        <time>2019-05-25T13:56:51Z</time>
      </trkpt>
      <trkpt lat="41.5399680" lon="-4.7593980">
        <ele>689.8</ele>
        <time>2019-05-25T13:56:52Z</time>
      </trkpt>
      <trkpt lat="41.5400390" lon="-4.7594220">
        <ele>689.8</ele>
        <time>2019-05-25T13:56:53Z</time>
      </trkpt>
      <trkpt lat="41.5400830" lon="-4.7594260">
        <ele>689.8</ele>
        <time>2019-05-25T13:56:54Z</time>
      </trkpt>
      <trkpt lat="41.5401160" lon="-4.7594240">
        <ele>689.7</ele>
        <time>2019-05-25T13:56:55Z</time>
      </trkpt>
      <trkpt lat="41.5401450" lon="-4.7594200">
        <ele>689.7</ele>
        <time>2019-05-25T13:56:56Z</time>
      </trkpt>
      <trkpt lat="41.5402000" lon="-4.7594150">
        <ele>689.7</ele>
        <time>2019-05-25T13:56:58Z</time>
      </trkpt>
      <trkpt lat="41.5402340" lon="-4.7594180">
        <ele>689.7</ele>
        <time>2019-05-25T13:56:59Z</time>
      </trkpt>
      <trkpt lat="41.5402720" lon="-4.7594120">
        <ele>689.7</ele>
        <time>2019-05-25T13:57:00Z</time>
      </trkpt>
      <trkpt lat="41.5403100" lon="-4.7594060">
        <ele>689.7</ele>
        <time>2019-05-25T13:57:01Z</time>
      </trkpt>
      <trkpt lat="41.5403510" lon="-4.7594080">
        <ele>689.7</ele>
        <time>2019-05-25T13:57:02Z</time>
      </trkpt>
      <trkpt lat="41.5403910" lon="-4.7594140">
        <ele>689.7</ele>
        <time>2019-05-25T13:57:03Z</time>
      </trkpt>
      <trkpt lat="41.5404390" lon="-4.7594320">
        <ele>689.7</ele>
        <time>2019-05-25T13:57:04Z</time>
      </trkpt>
      <trkpt lat="41.5404940" lon="-4.7594540">
        <ele>689.6</ele>
        <time>2019-05-25T13:57:05Z</time>
      </trkpt>
      <trkpt lat="41.5405530" lon="-4.7594660">
        <ele>689.6</ele>
        <time>2019-05-25T13:57:06Z</time>
      </trkpt>
      <trkpt lat="41.5406120" lon="-4.7594730">
        <ele>689.6</ele>
        <time>2019-05-25T13:57:07Z</time>
      </trkpt>
      <trkpt lat="41.5406670" lon="-4.7594730">
        <ele>689.6</ele>
        <time>2019-05-25T13:57:08Z</time>
      </trkpt>
      <trkpt lat="41.5407150" lon="-4.7594690">
        <ele>689.6</ele>
        <time>2019-05-25T13:57:09Z</time>
      </trkpt>
      <trkpt lat="41.5407620" lon="-4.7594610">
        <ele>689.6</ele>
        <time>2019-05-25T13:57:10Z</time>
      </trkpt>
      <trkpt lat="41.5408080" lon="-4.7594520">
        <ele>689.6</ele>
        <time>2019-05-25T13:57:11Z</time>
      </trkpt>
      <trkpt lat="41.5408640" lon="-4.7594450">
        <ele>689.5</ele>
        <time>2019-05-25T13:57:12Z</time>
      </trkpt>
      <trkpt lat="41.5409210" lon="-4.7594480">
        <ele>689.5</ele>
        <time>2019-05-25T13:57:13Z</time>
      </trkpt>
      <trkpt lat="41.5409660" lon="-4.7594560">
        <ele>689.6</ele>
        <time>2019-05-25T13:57:14Z</time>
      </trkpt>
      <trkpt lat="41.5410180" lon="-4.7594650">
        <ele>689.6</ele>
        <time>2019-05-25T13:57:15Z</time>
      </trkpt>
      <trkpt lat="41.5410720" lon="-4.7594780">
        <ele>689.6</ele>
        <time>2019-05-25T13:57:16Z</time>
      </trkpt>
      <trkpt lat="41.5411400" lon="-4.7595000">
        <ele>689.6</ele>
        <time>2019-05-25T13:57:17Z</time>
      </trkpt>
      <trkpt lat="41.5412450" lon="-4.7595090">
        <ele>689.6</ele>
        <time>2019-05-25T13:57:18Z</time>
      </trkpt>
      <trkpt lat="41.5413540" lon="-4.7595220">
        <ele>689.6</ele>
        <time>2019-05-25T13:57:19Z</time>
      </trkpt>
      <trkpt lat="41.5414730" lon="-4.7595560">
        <ele>689.6</ele>
        <time>2019-05-25T13:57:20Z</time>
      </trkpt>
      <trkpt lat="41.5415850" lon="-4.7595770">
        <ele>689.6</ele>
        <time>2019-05-25T13:57:21Z</time>
      </trkpt>
      <trkpt lat="41.5416790" lon="-4.7595980">
        <ele>689.6</ele>
        <time>2019-05-25T13:57:22Z</time>
      </trkpt>
      <trkpt lat="41.5417640" lon="-4.7596250">
        <ele>689.6</ele>
        <time>2019-05-25T13:57:23Z</time>
      </trkpt>
      <trkpt lat="41.5418450" lon="-4.7596460">
        <ele>689.6</ele>
        <time>2019-05-25T13:57:24Z</time>
      </trkpt>
      <trkpt lat="41.5419230" lon="-4.7596650">
        <ele>689.6</ele>
        <time>2019-05-25T13:57:25Z</time>
      </trkpt>
      <trkpt lat="41.5419990" lon="-4.7596830">
        <ele>689.6</ele>
        <time>2019-05-25T13:57:26Z</time>
      </trkpt>
      <trkpt lat="41.5419500" lon="-4.7597040">
        <ele>689.7</ele>
        <time>2019-05-25T13:57:28Z</time>
      </trkpt>
      <trkpt lat="41.5419090" lon="-4.7597180">
        <ele>689.7</ele>
        <time>2019-05-25T13:57:29Z</time>
      </trkpt>
      <trkpt lat="41.5418730" lon="-4.7597430">
        <ele>689.8</ele>
        <time>2019-05-25T13:57:30Z</time>
      </trkpt>
      <trkpt lat="41.5420010" lon="-4.7596570">
        <ele>689.9</ele>
        <time>2019-05-25T13:57:32Z</time>
      </trkpt>
      <trkpt lat="41.5421160" lon="-4.7596110">
        <ele>690.1</ele>
        <time>2019-05-25T13:57:34Z</time>
      </trkpt>
      <trkpt lat="41.5421440" lon="-4.7596040">
        <ele>690.2</ele>
        <time>2019-05-25T13:57:35Z</time>
      </trkpt>
      <trkpt lat="41.5421820" lon="-4.7596070">
        <ele>690.2</ele>
        <time>2019-05-25T13:57:36Z</time>
      </trkpt>
      <trkpt lat="41.5421090" lon="-4.7596310">
        <ele>690.3</ele>
        <time>2019-05-25T13:57:39Z</time>
      </trkpt>
      <trkpt lat="41.5420200" lon="-4.7596510">
        <ele>690.3</ele>
        <time>2019-05-25T13:57:40Z</time>
      </trkpt>
      <trkpt lat="41.5419390" lon="-4.7596690">
        <ele>690.3</ele>
        <time>2019-05-25T13:57:41Z</time>
      </trkpt>
      <trkpt lat="41.5418640" lon="-4.7596930">
        <ele>690.3</ele>
        <time>2019-05-25T13:57:42Z</time>
      </trkpt>
      <trkpt lat="41.5417950" lon="-4.7597230">
        <ele>690.3</ele>
        <time>2019-05-25T13:57:43Z</time>
      </trkpt>
      <trkpt lat="41.5417310" lon="-4.7597470">
        <ele>690.3</ele>
        <time>2019-05-25T13:57:44Z</time>
      </trkpt>
      <trkpt lat="41.5420500" lon="-4.7592120">
        <ele>690.4</ele>
        <time>2019-05-25T13:57:46Z</time>
      </trkpt>
      <trkpt lat="41.5430700" lon="-4.7596200">
        <ele>690.1</ele>
        <time>2019-05-25T13:57:49Z</time>
      </trkpt>
      <trkpt lat="41.5431370" lon="-4.7596290">
        <ele>689.9</ele>
        <time>2019-05-25T13:57:50Z</time>
      </trkpt>
      <trkpt lat="41.5431970" lon="-4.7596070">
        <ele>689.8</ele>
        <time>2019-05-25T13:57:51Z</time>
      </trkpt>
      <trkpt lat="41.5432400" lon="-4.7596360">
        <ele>689.7</ele>
        <time>2019-05-25T13:57:52Z</time>
      </trkpt>
      <trkpt lat="41.5432910" lon="-4.7596390">
        <ele>689.7</ele>
        <time>2019-05-25T13:57:53Z</time>
      </trkpt>
      <trkpt lat="41.5433400" lon="-4.7596430">
        <ele>689.6</ele>
        <time>2019-05-25T13:57:54Z</time>
      </trkpt>
      <trkpt lat="41.5433910" lon="-4.7596400">
        <ele>689.6</ele>
        <time>2019-05-25T13:57:55Z</time>
      </trkpt>
      <trkpt lat="41.5434470" lon="-4.7596190">
        <ele>689.5</ele>
        <time>2019-05-25T13:57:56Z</time>
      </trkpt>
      <trkpt lat="41.5434810" lon="-4.7596280">
        <ele>689.5</ele>
        <time>2019-05-25T13:57:57Z</time>
      </trkpt>
      <trkpt lat="41.5435320" lon="-4.7596320">
        <ele>689.5</ele>
        <time>2019-05-25T13:57:59Z</time>
      </trkpt>
      <trkpt lat="41.5436010" lon="-4.7596460">
        <ele>689.4</ele>
        <time>2019-05-25T13:58:00Z</time>
      </trkpt>
      <trkpt lat="41.5436860" lon="-4.7596620">
        <ele>689.4</ele>
        <time>2019-05-25T13:58:01Z</time>
      </trkpt>
      <trkpt lat="41.5437730" lon="-4.7596790">
        <ele>689.3</ele>
        <time>2019-05-25T13:58:02Z</time>
      </trkpt>
      <trkpt lat="41.5438590" lon="-4.7596940">
        <ele>689.2</ele>
        <time>2019-05-25T13:58:03Z</time>
      </trkpt>
      <trkpt lat="41.5439350" lon="-4.7597030">
        <ele>689.1</ele>
        <time>2019-05-25T13:58:04Z</time>
      </trkpt>
      <trkpt lat="41.5440010" lon="-4.7597090">
        <ele>689.1</ele>
        <time>2019-05-25T13:58:05Z</time>
      </trkpt>
      <trkpt lat="41.5440690" lon="-4.7597180">
        <ele>689.1</ele>
        <time>2019-05-25T13:58:06Z</time>
      </trkpt>
      <trkpt lat="41.5441310" lon="-4.7597230">
        <ele>689.1</ele>
        <time>2019-05-25T13:58:07Z</time>
      </trkpt>
      <trkpt lat="41.5441690" lon="-4.7597360">
        <ele>689.1</ele>
        <time>2019-05-25T13:58:08Z</time>
      </trkpt>
      <trkpt lat="41.5442320" lon="-4.7597620">
        <ele>689.1</ele>
        <time>2019-05-25T13:58:10Z</time>
      </trkpt>
      <trkpt lat="41.5442850" lon="-4.7597390">
        <ele>689.0</ele>
        <time>2019-05-25T13:58:11Z</time>
      </trkpt>
      <trkpt lat="41.5443320" lon="-4.7597350">
        <ele>689.0</ele>
        <time>2019-05-25T13:58:12Z</time>
      </trkpt>
      <trkpt lat="41.5443730" lon="-4.7597480">
        <ele>689.0</ele>
        <time>2019-05-25T13:58:13Z</time>
      </trkpt>
      <trkpt lat="41.5444260" lon="-4.7597460">
        <ele>689.0</ele>
        <time>2019-05-25T13:58:14Z</time>
      </trkpt>
      <trkpt lat="41.5444710" lon="-4.7597560">
        <ele>689.0</ele>
        <time>2019-05-25T13:58:15Z</time>
      </trkpt>
      <trkpt lat="41.5445240" lon="-4.7597450">
        <ele>689.0</ele>
        <time>2019-05-25T13:58:16Z</time>
      </trkpt>
      <trkpt lat="41.5445820" lon="-4.7597450">
        <ele>689.0</ele>
        <time>2019-05-25T13:58:17Z</time>
      </trkpt>
      <trkpt lat="41.5446470" lon="-4.7597410">
        <ele>689.0</ele>
        <time>2019-05-25T13:58:18Z</time>
      </trkpt>
      <trkpt lat="41.5447250" lon="-4.7597310">
        <ele>689.1</ele>
        <time>2019-05-25T13:58:19Z</time>
      </trkpt>
      <trkpt lat="41.5447910" lon="-4.7597190">
        <ele>689.1</ele>
        <time>2019-05-25T13:58:20Z</time>
      </trkpt>
      <trkpt lat="41.5448600" lon="-4.7597130">
        <ele>689.1</ele>
        <time>2019-05-25T13:58:21Z</time>
      </trkpt>
      <trkpt lat="41.5449340" lon="-4.7597040">
        <ele>689.2</ele>
        <time>2019-05-25T13:58:22Z</time>
      </trkpt>
      <trkpt lat="41.5450120" lon="-4.7597020">
        <ele>689.2</ele>
        <time>2019-05-25T13:58:23Z</time>
      </trkpt>
      <trkpt lat="41.5450990" lon="-4.7597090">
        <ele>689.3</ele>
        <time>2019-05-25T13:58:24Z</time>
      </trkpt>
      <trkpt lat="41.5451750" lon="-4.7597120">
        <ele>689.3</ele>
        <time>2019-05-25T13:58:25Z</time>
      </trkpt>
      <trkpt lat="41.5452410" lon="-4.7597430">
        <ele>689.4</ele>
        <time>2019-05-25T13:58:26Z</time>
      </trkpt>
      <trkpt lat="41.5452860" lon="-4.7597430">
        <ele>689.4</ele>
        <time>2019-05-25T13:58:27Z</time>
      </trkpt>
      <trkpt lat="41.5453140" lon="-4.7596320">
        <ele>689.4</ele>
        <time>2019-05-25T13:58:28Z</time>
      </trkpt>
      <trkpt lat="41.5453870" lon="-4.7596460">
        <ele>689.4</ele>
        <time>2019-05-25T13:58:29Z</time>
      </trkpt>
      <trkpt lat="41.5454060" lon="-4.7596160">
        <ele>689.4</ele>
        <time>2019-05-25T13:58:30Z</time>
      </trkpt>
      <trkpt lat="41.5454490" lon="-4.7596640">
        <ele>689.4</ele>
        <time>2019-05-25T13:58:31Z</time>
      </trkpt>
      <trkpt lat="41.5454930" lon="-4.7597010">
        <ele>689.4</ele>
        <time>2019-05-25T13:58:32Z</time>
      </trkpt>
      <trkpt lat="41.5455560" lon="-4.7597120">
        <ele>689.4</ele>
        <time>2019-05-25T13:58:33Z</time>
      </trkpt>
      <trkpt lat="41.5456120" lon="-4.7597310">
        <ele>689.3</ele>
        <time>2019-05-25T13:58:34Z</time>
      </trkpt>
      <trkpt lat="41.5456770" lon="-4.7597260">
        <ele>689.3</ele>
        <time>2019-05-25T13:58:35Z</time>
      </trkpt>
      <trkpt lat="41.5457240" lon="-4.7597340">
        <ele>689.3</ele>
        <time>2019-05-25T13:58:36Z</time>
      </trkpt>
      <trkpt lat="41.5457760" lon="-4.7597320">
        <ele>689.3</ele>
        <time>2019-05-25T13:58:37Z</time>
      </trkpt>
      <trkpt lat="41.5458460" lon="-4.7597210">
        <ele>689.3</ele>
        <time>2019-05-25T13:58:38Z</time>
      </trkpt>
      <trkpt lat="41.5458990" lon="-4.7597090">
        <ele>689.3</ele>
        <time>2019-05-25T13:58:39Z</time>
      </trkpt>
      <trkpt lat="41.5459430" lon="-4.7597070">
        <ele>689.3</ele>
        <time>2019-05-25T13:58:40Z</time>
      </trkpt>
      <trkpt lat="41.5459980" lon="-4.7597010">
        <ele>689.3</ele>
        <time>2019-05-25T13:58:41Z</time>
      </trkpt>
      <trkpt lat="41.5460570" lon="-4.7596700">
        <ele>689.3</ele>
        <time>2019-05-25T13:58:42Z</time>
      </trkpt>
      <trkpt lat="41.5460950" lon="-4.7596560">
        <ele>689.4</ele>
        <time>2019-05-25T13:58:43Z</time>
      </trkpt>
      <trkpt lat="41.5461290" lon="-4.7596340">
        <ele>689.4</ele>
        <time>2019-05-25T13:58:45Z</time>
      </trkpt>
      <trkpt lat="41.5461790" lon="-4.7596190">
        <ele>689.4</ele>
        <time>2019-05-25T13:58:46Z</time>
      </trkpt>
      <trkpt lat="41.5462470" lon="-4.7595960">
        <ele>689.3</ele>
        <time>2019-05-25T13:58:47Z</time>
      </trkpt>
      <trkpt lat="41.5463170" lon="-4.7595800">
        <ele>689.3</ele>
        <time>2019-05-25T13:58:48Z</time>
      </trkpt>
      <trkpt lat="41.5464210" lon="-4.7595550">
        <ele>689.2</ele>
        <time>2019-05-25T13:58:49Z</time>
      </trkpt>
      <trkpt lat="41.5465070" lon="-4.7595440">
        <ele>689.1</ele>
        <time>2019-05-25T13:58:50Z</time>
      </trkpt>
      <trkpt lat="41.5465690" lon="-4.7595470">
        <ele>689.0</ele>
        <time>2019-05-25T13:58:51Z</time>
      </trkpt>
      <trkpt lat="41.5466110" lon="-4.7594960">
        <ele>688.9</ele>
        <time>2019-05-25T13:58:52Z</time>
      </trkpt>
      <trkpt lat="41.5466780" lon="-4.7594800">
        <ele>688.8</ele>
        <time>2019-05-25T13:58:53Z</time>
      </trkpt>
      <trkpt lat="41.5467320" lon="-4.7594630">
        <ele>688.6</ele>
        <time>2019-05-25T13:58:54Z</time>
      </trkpt>
      <trkpt lat="41.5467900" lon="-4.7594470">
        <ele>688.5</ele>
        <time>2019-05-25T13:58:55Z</time>
      </trkpt>
      <trkpt lat="41.5468460" lon="-4.7594330">
        <ele>688.4</ele>
        <time>2019-05-25T13:58:56Z</time>
      </trkpt>
      <trkpt lat="41.5468960" lon="-4.7594300">
        <ele>688.3</ele>
        <time>2019-05-25T13:58:57Z</time>
      </trkpt>
      <trkpt lat="41.5469260" lon="-4.7594170">
        <ele>688.2</ele>
        <time>2019-05-25T13:58:58Z</time>
      </trkpt>
      <trkpt lat="41.5469550" lon="-4.7594040">
        <ele>688.2</ele>
        <time>2019-05-25T13:59:00Z</time>
      </trkpt>
      <trkpt lat="41.5470290" lon="-4.7593630">
        <ele>688.0</ele>
        <time>2019-05-25T13:59:02Z</time>
      </trkpt>
      <trkpt lat="41.5470810" lon="-4.7593270">
        <ele>688.0</ele>
        <time>2019-05-25T13:59:03Z</time>
      </trkpt>
      <trkpt lat="41.5471280" lon="-4.7592980">
        <ele>687.9</ele>
        <time>2019-05-25T13:59:04Z</time>
      </trkpt>
      <trkpt lat="41.5471790" lon="-4.7592750">
        <ele>687.9</ele>
        <time>2019-05-25T13:59:05Z</time>
      </trkpt>
      <trkpt lat="41.5472340" lon="-4.7592710">
        <ele>687.8</ele>
        <time>2019-05-25T13:59:06Z</time>
      </trkpt>
      <trkpt lat="41.5472890" lon="-4.7592920">
        <ele>687.7</ele>
        <time>2019-05-25T13:59:07Z</time>
      </trkpt>
      <trkpt lat="41.5473390" lon="-4.7593340">
        <ele>687.6</ele>
        <time>2019-05-25T13:59:08Z</time>
      </trkpt>
      <trkpt lat="41.5473770" lon="-4.7593950">
        <ele>687.6</ele>
        <time>2019-05-25T13:59:09Z</time>
      </trkpt>
      <trkpt lat="41.5473940" lon="-4.7594460">
        <ele>687.7</ele>
        <time>2019-05-25T13:59:10Z</time>
      </trkpt>
      <trkpt lat="41.5474010" lon="-4.7594870">
        <ele>687.7</ele>
        <time>2019-05-25T13:59:11Z</time>
      </trkpt>
      <trkpt lat="41.5474040" lon="-4.7595340">
        <ele>687.8</ele>
        <time>2019-05-25T13:59:12Z</time>
      </trkpt>
      <trkpt lat="41.5474070" lon="-4.7595860">
        <ele>687.8</ele>
        <time>2019-05-25T13:59:13Z</time>
      </trkpt>
      <trkpt lat="41.5474130" lon="-4.7596440">
        <ele>687.9</ele>
        <time>2019-05-25T13:59:14Z</time>
      </trkpt>
      <trkpt lat="41.5474240" lon="-4.7597960">
        <ele>688.1</ele>
        <time>2019-05-25T13:59:15Z</time>
      </trkpt>
      <trkpt lat="41.5474780" lon="-4.7600250">
        <ele>688.2</ele>
        <time>2019-05-25T13:59:16Z</time>
      </trkpt>
      <trkpt lat="41.5474860" lon="-4.7601270">
        <ele>688.2</ele>
        <time>2019-05-25T13:59:17Z</time>
      </trkpt>
      <trkpt lat="41.5474720" lon="-4.7601930">
        <ele>688.3</ele>
        <time>2019-05-25T13:59:18Z</time>
      </trkpt>
      <trkpt lat="41.5474660" lon="-4.7602630">
        <ele>688.3</ele>
        <time>2019-05-25T13:59:19Z</time>
      </trkpt>
      <trkpt lat="41.5474380" lon="-4.7603220">
        <ele>688.3</ele>
        <time>2019-05-25T13:59:20Z</time>
      </trkpt>
      <trkpt lat="41.5474210" lon="-4.7603770">
        <ele>688.3</ele>
        <time>2019-05-25T13:59:21Z</time>
      </trkpt>
      <trkpt lat="41.5473750" lon="-4.7604210">
        <ele>688.3</ele>
        <time>2019-05-25T13:59:22Z</time>
      </trkpt>
      <trkpt lat="41.5473900" lon="-4.7605180">
        <ele>688.3</ele>
        <time>2019-05-25T13:59:23Z</time>
      </trkpt>
      <trkpt lat="41.5473680" lon="-4.7605420">
        <ele>688.3</ele>
        <time>2019-05-25T13:59:24Z</time>
      </trkpt>
      <trkpt lat="41.5473510" lon="-4.7606140">
        <ele>688.4</ele>
        <time>2019-05-25T13:59:27Z</time>
      </trkpt>
      <trkpt lat="41.5473140" lon="-4.7606830">
        <ele>688.4</ele>
        <time>2019-05-25T13:59:28Z</time>
      </trkpt>
      <trkpt lat="41.5472910" lon="-4.7607480">
        <ele>688.4</ele>
        <time>2019-05-25T13:59:29Z</time>
      </trkpt>
      <trkpt lat="41.5472780" lon="-4.7608110">
        <ele>688.4</ele>
        <time>2019-05-25T13:59:30Z</time>
      </trkpt>
      <trkpt lat="41.5472600" lon="-4.7608650">
        <ele>688.4</ele>
        <time>2019-05-25T13:59:31Z</time>
      </trkpt>
      <trkpt lat="41.5472470" lon="-4.7609110">
        <ele>688.4</ele>
        <time>2019-05-25T13:59:32Z</time>
      </trkpt>
      <trkpt lat="41.5472530" lon="-4.7609550">
        <ele>688.4</ele>
        <time>2019-05-25T13:59:33Z</time>
      </trkpt>
      <trkpt lat="41.5472450" lon="-4.7610140">
        <ele>688.3</ele>
        <time>2019-05-25T13:59:35Z</time>
      </trkpt>
      <trkpt lat="41.5472150" lon="-4.7610730">
        <ele>688.4</ele>
        <time>2019-05-25T13:59:37Z</time>
      </trkpt>
      <trkpt lat="41.5471970" lon="-4.7611070">
        <ele>688.4</ele>
        <time>2019-05-25T13:59:38Z</time>
      </trkpt>
      <trkpt lat="41.5471710" lon="-4.7611340">
        <ele>688.4</ele>
        <time>2019-05-25T13:59:39Z</time>
      </trkpt>
      <trkpt lat="41.5471370" lon="-4.7611550">
        <ele>688.5</ele>
        <time>2019-05-25T13:59:40Z</time>
      </trkpt>
      <trkpt lat="41.5471030" lon="-4.7611720">
        <ele>688.5</ele>
        <time>2019-05-25T13:59:41Z</time>
      </trkpt>
      <trkpt lat="41.5470660" lon="-4.7611730">
        <ele>688.7</ele>
        <time>2019-05-25T13:59:42Z</time>
      </trkpt>
      <trkpt lat="41.5470480" lon="-4.7611410">
        <ele>688.7</ele>
        <time>2019-05-25T13:59:43Z</time>
      </trkpt>
      <trkpt lat="41.5470450" lon="-4.7610990">
        <ele>688.6</ele>
        <time>2019-05-25T13:59:44Z</time>
      </trkpt>
      <trkpt lat="41.5470590" lon="-4.7610630">
        <ele>688.6</ele>
        <time>2019-05-25T13:59:45Z</time>
      </trkpt>
      <trkpt lat="41.5470800" lon="-4.7610380">
        <ele>688.5</ele>
        <time>2019-05-25T13:59:46Z</time>
      </trkpt>
      <trkpt lat="41.5471130" lon="-4.7609840">
        <ele>688.5</ele>
        <time>2019-05-25T13:59:48Z</time>
      </trkpt>
      <trkpt lat="41.5471230" lon="-4.7609480">
        <ele>688.5</ele>
        <time>2019-05-25T13:59:49Z</time>
      </trkpt>
      <trkpt lat="41.5471400" lon="-4.7609050">
        <ele>688.4</ele>
        <time>2019-05-25T13:59:50Z</time>
      </trkpt>
      <trkpt lat="41.5471610" lon="-4.7608700">
        <ele>688.4</ele>
        <time>2019-05-25T13:59:51Z</time>
      </trkpt>
      <trkpt lat="41.5471760" lon="-4.7608290">
        <ele>688.4</ele>
        <time>2019-05-25T13:59:52Z</time>
      </trkpt>
      <trkpt lat="41.5471900" lon="-4.7607890">
        <ele>688.4</ele>
        <time>2019-05-25T13:59:53Z</time>
      </trkpt>
      <trkpt lat="41.5472050" lon="-4.7607460">
        <ele>688.4</ele>
        <time>2019-05-25T13:59:54Z</time>
      </trkpt>
      <trkpt lat="41.5472180" lon="-4.7607050">
        <ele>688.4</ele>
        <time>2019-05-25T13:59:55Z</time>
      </trkpt>
      <trkpt lat="41.5472310" lon="-4.7606600">
        <ele>688.3</ele>
        <time>2019-05-25T13:59:56Z</time>
      </trkpt>
      <trkpt lat="41.5472430" lon="-4.7606120">
        <ele>688.3</ele>
        <time>2019-05-25T13:59:57Z</time>
      </trkpt>
      <trkpt lat="41.5472550" lon="-4.7605640">
        <ele>688.3</ele>
        <time>2019-05-25T13:59:58Z</time>
      </trkpt>
      <trkpt lat="41.5472630" lon="-4.7605250">
        <ele>688.3</ele>
        <time>2019-05-25T13:59:59Z</time>
      </trkpt>
      <trkpt lat="41.5472610" lon="-4.7604620">
        <ele>688.3</ele>
        <time>2019-05-25T14:00:01Z</time>
      </trkpt>
      <trkpt lat="41.5472880" lon="-4.7604730">
        <ele>688.3</ele>
        <time>2019-05-25T14:00:08Z</time>
      </trkpt>
      <trkpt lat="41.5473220" lon="-4.7604750">
        <ele>688.2</ele>
        <time>2019-05-25T14:01:31Z</time>
      </trkpt>
      <trkpt lat="41.5473650" lon="-4.7604110">
        <ele>688.1</ele>
        <time>2019-05-25T14:01:33Z</time>
      </trkpt>
      <trkpt lat="41.5473880" lon="-4.7603770">
        <ele>688.1</ele>
        <time>2019-05-25T14:01:34Z</time>
      </trkpt>
      <trkpt lat="41.5474130" lon="-4.7603360">
        <ele>688.1</ele>
        <time>2019-05-25T14:01:35Z</time>
      </trkpt>
      <trkpt lat="41.5474330" lon="-4.7602980">
        <ele>688.1</ele>
        <time>2019-05-25T14:01:36Z</time>
      </trkpt>
      <trkpt lat="41.5474540" lon="-4.7602390">
        <ele>688.1</ele>
        <time>2019-05-25T14:01:37Z</time>
      </trkpt>
      <trkpt lat="41.5474710" lon="-4.7601890">
        <ele>688.0</ele>
        <time>2019-05-25T14:01:38Z</time>
      </trkpt>
      <trkpt lat="41.5474680" lon="-4.7601370">
        <ele>688.0</ele>
        <time>2019-05-25T14:01:39Z</time>
      </trkpt>
      <trkpt lat="41.5474660" lon="-4.7600830">
        <ele>688.0</ele>
        <time>2019-05-25T14:01:41Z</time>
      </trkpt>
      <trkpt lat="41.5474480" lon="-4.7600150">
        <ele>688.0</ele>
        <time>2019-05-25T14:01:43Z</time>
      </trkpt>
      <trkpt lat="41.5474410" lon="-4.7599690">
        <ele>687.9</ele>
        <time>2019-05-25T14:01:44Z</time>
      </trkpt>
      <trkpt lat="41.5474370" lon="-4.7599180">
        <ele>687.9</ele>
        <time>2019-05-25T14:01:45Z</time>
      </trkpt>
      <trkpt lat="41.5474340" lon="-4.7598680">
        <ele>687.8</ele>
        <time>2019-05-25T14:01:46Z</time>
      </trkpt>
      <trkpt lat="41.5474320" lon="-4.7598200">
        <ele>687.8</ele>
        <time>2019-05-25T14:01:47Z</time>
      </trkpt>
      <trkpt lat="41.5474300" lon="-4.7597750">
        <ele>687.7</ele>
        <time>2019-05-25T14:01:48Z</time>
      </trkpt>
      <trkpt lat="41.5474260" lon="-4.7597300">
        <ele>687.7</ele>
        <time>2019-05-25T14:01:49Z</time>
      </trkpt>
      <trkpt lat="41.5474180" lon="-4.7596820">
        <ele>687.7</ele>
        <time>2019-05-25T14:01:50Z</time>
      </trkpt>
      <trkpt lat="41.5474090" lon="-4.7596350">
        <ele>687.6</ele>
        <time>2019-05-25T14:01:51Z</time>
      </trkpt>
      <trkpt lat="41.5474000" lon="-4.7595890">
        <ele>687.6</ele>
        <time>2019-05-25T14:01:52Z</time>
      </trkpt>
      <trkpt lat="41.5473870" lon="-4.7595420">
        <ele>687.5</ele>
        <time>2019-05-25T14:01:53Z</time>
      </trkpt>
      <trkpt lat="41.5473690" lon="-4.7594960">
        <ele>687.5</ele>
        <time>2019-05-25T14:01:54Z</time>
      </trkpt>
      <trkpt lat="41.5473510" lon="-4.7594620">
        <ele>687.5</ele>
        <time>2019-05-25T14:01:55Z</time>
      </trkpt>
      <trkpt lat="41.5473310" lon="-4.7594280">
        <ele>687.4</ele>
        <time>2019-05-25T14:01:56Z</time>
      </trkpt>
      <trkpt lat="41.5473110" lon="-4.7593910">
        <ele>687.4</ele>
        <time>2019-05-25T14:01:57Z</time>
      </trkpt>
      <trkpt lat="41.5472990" lon="-4.7593570">
        <ele>687.4</ele>
        <time>2019-05-25T14:01:58Z</time>
      </trkpt>
      <trkpt lat="41.5472920" lon="-4.7593220">
        <ele>687.3</ele>
        <time>2019-05-25T14:01:59Z</time>
      </trkpt>
      <trkpt lat="41.5472880" lon="-4.7592560">
        <ele>687.3</ele>
        <time>2019-05-25T14:02:01Z</time>
      </trkpt>
      <trkpt lat="41.5472860" lon="-4.7591830">
        <ele>687.2</ele>
        <time>2019-05-25T14:02:03Z</time>
      </trkpt>
      <trkpt lat="41.5472910" lon="-4.7591470">
        <ele>687.2</ele>
        <time>2019-05-25T14:02:04Z</time>
      </trkpt>
      <trkpt lat="41.5473060" lon="-4.7591000">
        <ele>687.1</ele>
        <time>2019-05-25T14:02:06Z</time>
      </trkpt>
      <trkpt lat="41.5473470" lon="-4.7591280">
        <ele>687.0</ele>
        <time>2019-05-25T14:06:36Z</time>
      </trkpt>
      <trkpt lat="41.5473420" lon="-4.7591570">
        <ele>687.1</ele>
        <time>2019-05-25T14:06:37Z</time>
      </trkpt>
      <trkpt lat="41.5473300" lon="-4.7592180">
        <ele>687.1</ele>
        <time>2019-05-25T14:06:39Z</time>
      </trkpt>
      <trkpt lat="41.5473280" lon="-4.7592550">
        <ele>687.1</ele>
        <time>2019-05-25T14:06:40Z</time>
      </trkpt>
      <trkpt lat="41.5473320" lon="-4.7592940">
        <ele>687.2</ele>
        <time>2019-05-25T14:06:41Z</time>
      </trkpt>
      <trkpt lat="41.5473410" lon="-4.7593320">
        <ele>687.2</ele>
        <time>2019-05-25T14:06:42Z</time>
      </trkpt>
      <trkpt lat="41.5473540" lon="-4.7593710">
        <ele>687.3</ele>
        <time>2019-05-25T14:06:43Z</time>
      </trkpt>
      <trkpt lat="41.5473700" lon="-4.7594090">
        <ele>687.3</ele>
        <time>2019-05-25T14:06:44Z</time>
      </trkpt>
      <trkpt lat="41.5473860" lon="-4.7594540">
        <ele>687.3</ele>
        <time>2019-05-25T14:06:45Z</time>
      </trkpt>
      <trkpt lat="41.5474010" lon="-4.7594980">
        <ele>687.3</ele>
        <time>2019-05-25T14:06:46Z</time>
      </trkpt>
      <trkpt lat="41.5474170" lon="-4.7595450">
        <ele>687.4</ele>
        <time>2019-05-25T14:06:47Z</time>
      </trkpt>
      <trkpt lat="41.5474310" lon="-4.7595950">
        <ele>687.4</ele>
        <time>2019-05-25T14:06:48Z</time>
      </trkpt>
      <trkpt lat="41.5474430" lon="-4.7596440">
        <ele>687.5</ele>
        <time>2019-05-25T14:06:49Z</time>
      </trkpt>
      <trkpt lat="41.5474520" lon="-4.7596910">
        <ele>687.5</ele>
        <time>2019-05-25T14:06:50Z</time>
      </trkpt>
      <trkpt lat="41.5474570" lon="-4.7597380">
        <ele>687.5</ele>
        <time>2019-05-25T14:06:51Z</time>
      </trkpt>
      <trkpt lat="41.5474570" lon="-4.7597810">
        <ele>687.6</ele>
        <time>2019-05-25T14:06:52Z</time>
      </trkpt>
      <trkpt lat="41.5474560" lon="-4.7598200">
        <ele>687.6</ele>
        <time>2019-05-25T14:06:53Z</time>
      </trkpt>
      <trkpt lat="41.5474560" lon="-4.7598590">
        <ele>687.7</ele>
        <time>2019-05-25T14:06:54Z</time>
      </trkpt>
      <trkpt lat="41.5474580" lon="-4.7598980">
        <ele>687.7</ele>
        <time>2019-05-25T14:06:55Z</time>
      </trkpt>
      <trkpt lat="41.5474620" lon="-4.7599680">
        <ele>687.7</ele>
        <time>2019-05-25T14:06:57Z</time>
      </trkpt>
      <trkpt lat="41.5474380" lon="-4.7599490">
        <ele>687.7</ele>
        <time>2019-05-25T14:07:15Z</time>
      </trkpt>
      <trkpt lat="41.5474110" lon="-4.7599340">
        <ele>687.7</ele>
        <time>2019-05-25T14:08:14Z</time>
      </trkpt>
      <trkpt lat="41.5473800" lon="-4.7599630">
        <ele>687.8</ele>
        <time>2019-05-25T14:08:18Z</time>
      </trkpt>
      <trkpt lat="41.5473690" lon="-4.7600030">
        <ele>687.8</ele>
        <time>2019-05-25T14:08:19Z</time>
      </trkpt>
      <trkpt lat="41.5473690" lon="-4.7600410">
        <ele>687.8</ele>
        <time>2019-05-25T14:08:20Z</time>
      </trkpt>
      <trkpt lat="41.5473620" lon="-4.7601400">
        <ele>687.8</ele>
        <time>2019-05-25T14:08:22Z</time>
      </trkpt>
      <trkpt lat="41.5473590" lon="-4.7601970">
        <ele>687.8</ele>
        <time>2019-05-25T14:08:23Z</time>
      </trkpt>
      <trkpt lat="41.5473490" lon="-4.7602410">
        <ele>687.9</ele>
        <time>2019-05-25T14:08:24Z</time>
      </trkpt>
      <trkpt lat="41.5473340" lon="-4.7602820">
        <ele>687.9</ele>
        <time>2019-05-25T14:08:25Z</time>
      </trkpt>
      <trkpt lat="41.5473130" lon="-4.7603140">
        <ele>687.9</ele>
        <time>2019-05-25T14:08:26Z</time>
      </trkpt>
      <trkpt lat="41.5472630" lon="-4.7603450">
        <ele>688.0</ele>
        <time>2019-05-25T14:08:28Z</time>
      </trkpt>
      <trkpt lat="41.5472290" lon="-4.7603650">
        <ele>688.0</ele>
        <time>2019-05-25T14:08:29Z</time>
      </trkpt>
      <trkpt lat="41.5471930" lon="-4.7603630">
        <ele>688.1</ele>
        <time>2019-05-25T14:08:30Z</time>
      </trkpt>
      <trkpt lat="41.5471640" lon="-4.7603530">
        <ele>688.1</ele>
        <time>2019-05-25T14:08:31Z</time>
      </trkpt>
      <trkpt lat="41.5471410" lon="-4.7603340">
        <ele>688.1</ele>
        <time>2019-05-25T14:08:32Z</time>
      </trkpt>
      <trkpt lat="41.5471160" lon="-4.7603120">
        <ele>688.2</ele>
        <time>2019-05-25T14:08:33Z</time>
      </trkpt>
      <trkpt lat="41.5470870" lon="-4.7602900">
        <ele>688.2</ele>
        <time>2019-05-25T14:08:34Z</time>
      </trkpt>
      <trkpt lat="41.5470610" lon="-4.7602730">
        <ele>688.3</ele>
        <time>2019-05-25T14:08:35Z</time>
      </trkpt>
      <trkpt lat="41.5470080" lon="-4.7602540">
        <ele>688.3</ele>
        <time>2019-05-25T14:08:37Z</time>
      </trkpt>
      <trkpt lat="41.5469810" lon="-4.7602510">
        <ele>688.4</ele>
        <time>2019-05-25T14:08:38Z</time>
      </trkpt>
      <trkpt lat="41.5469520" lon="-4.7602500">
        <ele>688.4</ele>
        <time>2019-05-25T14:08:39Z</time>
      </trkpt>
      <trkpt lat="41.5469200" lon="-4.7602470">
        <ele>688.5</ele>
        <time>2019-05-25T14:08:40Z</time>
      </trkpt>
      <trkpt lat="41.5468880" lon="-4.7602420">
        <ele>688.6</ele>
        <time>2019-05-25T14:08:41Z</time>
      </trkpt>
      <trkpt lat="41.5468570" lon="-4.7602350">
        <ele>688.7</ele>
        <time>2019-05-25T14:08:42Z</time>
      </trkpt>
      <trkpt lat="41.5468240" lon="-4.7602300">
        <ele>688.8</ele>
        <time>2019-05-25T14:08:43Z</time>
      </trkpt>
      <trkpt lat="41.5467890" lon="-4.7602300">
        <ele>688.9</ele>
        <time>2019-05-25T14:08:44Z</time>
      </trkpt>
      <trkpt lat="41.5467500" lon="-4.7602330">
        <ele>689.0</ele>
        <time>2019-05-25T14:08:45Z</time>
      </trkpt>
      <trkpt lat="41.5467070" lon="-4.7602390">
        <ele>689.3</ele>
        <time>2019-05-25T14:08:46Z</time>
      </trkpt>
      <trkpt lat="41.5466630" lon="-4.7602450">
        <ele>689.4</ele>
        <time>2019-05-25T14:08:47Z</time>
      </trkpt>
      <trkpt lat="41.5466160" lon="-4.7602510">
        <ele>689.8</ele>
        <time>2019-05-25T14:08:48Z</time>
      </trkpt>
      <trkpt lat="41.5465630" lon="-4.7602540">
        <ele>689.9</ele>
        <time>2019-05-25T14:08:49Z</time>
      </trkpt>
      <trkpt lat="41.5465060" lon="-4.7602560">
        <ele>690.2</ele>
        <time>2019-05-25T14:08:50Z</time>
      </trkpt>
      <trkpt lat="41.5464490" lon="-4.7602540">
        <ele>690.5</ele>
        <time>2019-05-25T14:08:51Z</time>
      </trkpt>
      <trkpt lat="41.5463900" lon="-4.7602520">
        <ele>690.7</ele>
        <time>2019-05-25T14:08:52Z</time>
      </trkpt>
      <trkpt lat="41.5463350" lon="-4.7602560">
        <ele>690.9</ele>
        <time>2019-05-25T14:08:53Z</time>
      </trkpt>
      <trkpt lat="41.5462880" lon="-4.7602650">
        <ele>691.1</ele>
        <time>2019-05-25T14:08:54Z</time>
      </trkpt>
      <trkpt lat="41.5462460" lon="-4.7602720">
        <ele>691.2</ele>
        <time>2019-05-25T14:08:55Z</time>
      </trkpt>
      <trkpt lat="41.5462090" lon="-4.7602790">
        <ele>691.3</ele>
        <time>2019-05-25T14:08:56Z</time>
      </trkpt>
      <trkpt lat="41.5461740" lon="-4.7602870">
        <ele>691.4</ele>
        <time>2019-05-25T14:08:57Z</time>
      </trkpt>
      <trkpt lat="41.5461410" lon="-4.7602940">
        <ele>691.4</ele>
        <time>2019-05-25T14:08:58Z</time>
      </trkpt>
      <trkpt lat="41.5461070" lon="-4.7603010">
        <ele>691.5</ele>
        <time>2019-05-25T14:08:59Z</time>
      </trkpt>
      <trkpt lat="41.5460740" lon="-4.7603070">
        <ele>691.6</ele>
        <time>2019-05-25T14:09:00Z</time>
      </trkpt>
      <trkpt lat="41.5460400" lon="-4.7603130">
        <ele>691.7</ele>
        <time>2019-05-25T14:09:01Z</time>
      </trkpt>
      <trkpt lat="41.5460030" lon="-4.7603210">
        <ele>691.8</ele>
        <time>2019-05-25T14:09:02Z</time>
      </trkpt>
      <trkpt lat="41.5459680" lon="-4.7603240">
        <ele>691.8</ele>
        <time>2019-05-25T14:09:03Z</time>
      </trkpt>
      <trkpt lat="41.5459310" lon="-4.7603270">
        <ele>691.8</ele>
        <time>2019-05-25T14:09:04Z</time>
      </trkpt>
      <trkpt lat="41.5458910" lon="-4.7603280">
        <ele>691.9</ele>
        <time>2019-05-25T14:09:05Z</time>
      </trkpt>
      <trkpt lat="41.5458440" lon="-4.7603290">
        <ele>691.9</ele>
        <time>2019-05-25T14:09:06Z</time>
      </trkpt>
      <trkpt lat="41.5457870" lon="-4.7603280">
        <ele>692.0</ele>
        <time>2019-05-25T14:09:07Z</time>
      </trkpt>
      <trkpt lat="41.5457330" lon="-4.7603290">
        <ele>692.0</ele>
        <time>2019-05-25T14:09:08Z</time>
      </trkpt>
      <trkpt lat="41.5456820" lon="-4.7603310">
        <ele>692.0</ele>
        <time>2019-05-25T14:09:09Z</time>
      </trkpt>
      <trkpt lat="41.5456350" lon="-4.7603350">
        <ele>692.0</ele>
        <time>2019-05-25T14:09:10Z</time>
      </trkpt>
      <trkpt lat="41.5455880" lon="-4.7603420">
        <ele>692.0</ele>
        <time>2019-05-25T14:09:11Z</time>
      </trkpt>
      <trkpt lat="41.5455420" lon="-4.7603510">
        <ele>692.0</ele>
        <time>2019-05-25T14:09:12Z</time>
      </trkpt>
      <trkpt lat="41.5454980" lon="-4.7603650">
        <ele>692.0</ele>
        <time>2019-05-25T14:09:13Z</time>
      </trkpt>
      <trkpt lat="41.5454570" lon="-4.7603770">
        <ele>692.0</ele>
        <time>2019-05-25T14:09:14Z</time>
      </trkpt>
      <trkpt lat="41.5454080" lon="-4.7603860">
        <ele>691.9</ele>
        <time>2019-05-25T14:09:15Z</time>
      </trkpt>
      <trkpt lat="41.5453590" lon="-4.7603950">
        <ele>691.9</ele>
        <time>2019-05-25T14:09:16Z</time>
      </trkpt>
      <trkpt lat="41.5453050" lon="-4.7604070">
        <ele>691.9</ele>
        <time>2019-05-25T14:09:17Z</time>
      </trkpt>
      <trkpt lat="41.5452550" lon="-4.7604200">
        <ele>691.8</ele>
        <time>2019-05-25T14:09:18Z</time>
      </trkpt>
      <trkpt lat="41.5452050" lon="-4.7604350">
        <ele>691.8</ele>
        <time>2019-05-25T14:09:19Z</time>
      </trkpt>
      <trkpt lat="41.5451540" lon="-4.7604390">
        <ele>691.8</ele>
        <time>2019-05-25T14:09:20Z</time>
      </trkpt>
      <trkpt lat="41.5450990" lon="-4.7604420">
        <ele>691.7</ele>
        <time>2019-05-25T14:09:21Z</time>
      </trkpt>
      <trkpt lat="41.5450550" lon="-4.7604420">
        <ele>691.7</ele>
        <time>2019-05-25T14:09:22Z</time>
      </trkpt>
      <trkpt lat="41.5449910" lon="-4.7604530">
        <ele>691.7</ele>
        <time>2019-05-25T14:09:23Z</time>
      </trkpt>
      <trkpt lat="41.5449130" lon="-4.7604820">
        <ele>691.8</ele>
        <time>2019-05-25T14:09:24Z</time>
      </trkpt>
      <trkpt lat="41.5448360" lon="-4.7604800">
        <ele>691.9</ele>
        <time>2019-05-25T14:09:25Z</time>
      </trkpt>
      <trkpt lat="41.5447700" lon="-4.7604790">
        <ele>691.9</ele>
        <time>2019-05-25T14:09:26Z</time>
      </trkpt>
      <trkpt lat="41.5447050" lon="-4.7604810">
        <ele>692.0</ele>
        <time>2019-05-25T14:09:27Z</time>
      </trkpt>
      <trkpt lat="41.5446390" lon="-4.7604800">
        <ele>692.1</ele>
        <time>2019-05-25T14:09:28Z</time>
      </trkpt>
      <trkpt lat="41.5445810" lon="-4.7604830">
        <ele>692.2</ele>
        <time>2019-05-25T14:09:29Z</time>
      </trkpt>
      <trkpt lat="41.5445320" lon="-4.7605040">
        <ele>692.2</ele>
        <time>2019-05-25T14:09:30Z</time>
      </trkpt>
      <trkpt lat="41.5444790" lon="-4.7605120">
        <ele>692.3</ele>
        <time>2019-05-25T14:09:31Z</time>
      </trkpt>
      <trkpt lat="41.5444180" lon="-4.7605240">
        <ele>692.5</ele>
        <time>2019-05-25T14:09:32Z</time>
      </trkpt>
      <trkpt lat="41.5443690" lon="-4.7605290">
        <ele>692.6</ele>
        <time>2019-05-25T14:09:33Z</time>
      </trkpt>
      <trkpt lat="41.5443210" lon="-4.7605300">
        <ele>692.7</ele>
        <time>2019-05-25T14:09:34Z</time>
      </trkpt>
      <trkpt lat="41.5442570" lon="-4.7605490">
        <ele>692.9</ele>
        <time>2019-05-25T14:09:35Z</time>
      </trkpt>
      <trkpt lat="41.5442030" lon="-4.7605640">
        <ele>693.1</ele>
        <time>2019-05-25T14:09:36Z</time>
      </trkpt>
      <trkpt lat="41.5441390" lon="-4.7605670">
        <ele>693.3</ele>
        <time>2019-05-25T14:09:37Z</time>
      </trkpt>
      <trkpt lat="41.5440940" lon="-4.7605710">
        <ele>693.4</ele>
        <time>2019-05-25T14:09:38Z</time>
      </trkpt>
      <trkpt lat="41.5440200" lon="-4.7605720">
        <ele>693.5</ele>
        <time>2019-05-25T14:09:39Z</time>
      </trkpt>
      <trkpt lat="41.5439660" lon="-4.7605840">
        <ele>693.5</ele>
        <time>2019-05-25T14:09:40Z</time>
      </trkpt>
      <trkpt lat="41.5439010" lon="-4.7605960">
        <ele>693.5</ele>
        <time>2019-05-25T14:09:41Z</time>
      </trkpt>
      <trkpt lat="41.5438560" lon="-4.7605990">
        <ele>693.5</ele>
        <time>2019-05-25T14:09:42Z</time>
      </trkpt>
      <trkpt lat="41.5437940" lon="-4.7606130">
        <ele>693.6</ele>
        <time>2019-05-25T14:09:43Z</time>
      </trkpt>
      <trkpt lat="41.5437380" lon="-4.7606200">
        <ele>693.5</ele>
        <time>2019-05-25T14:09:44Z</time>
      </trkpt>
      <trkpt lat="41.5436850" lon="-4.7606350">
        <ele>693.5</ele>
        <time>2019-05-25T14:09:45Z</time>
      </trkpt>
      <trkpt lat="41.5436320" lon="-4.7606430">
        <ele>693.5</ele>
        <time>2019-05-25T14:09:46Z</time>
      </trkpt>
      <trkpt lat="41.5435760" lon="-4.7606520">
        <ele>693.4</ele>
        <time>2019-05-25T14:09:47Z</time>
      </trkpt>
      <trkpt lat="41.5435160" lon="-4.7606500">
        <ele>693.3</ele>
        <time>2019-05-25T14:09:48Z</time>
      </trkpt>
      <trkpt lat="41.5434610" lon="-4.7606580">
        <ele>693.2</ele>
        <time>2019-05-25T14:09:49Z</time>
      </trkpt>
      <trkpt lat="41.5434080" lon="-4.7606630">
        <ele>693.2</ele>
        <time>2019-05-25T14:09:50Z</time>
      </trkpt>
      <trkpt lat="41.5433530" lon="-4.7606780">
        <ele>693.1</ele>
        <time>2019-05-25T14:09:51Z</time>
      </trkpt>
      <trkpt lat="41.5432970" lon="-4.7606910">
        <ele>693.1</ele>
        <time>2019-05-25T14:09:52Z</time>
      </trkpt>
      <trkpt lat="41.5432370" lon="-4.7606910">
        <ele>693.0</ele>
        <time>2019-05-25T14:09:53Z</time>
      </trkpt>
      <trkpt lat="41.5431810" lon="-4.7607040">
        <ele>693.0</ele>
        <time>2019-05-25T14:09:54Z</time>
      </trkpt>
      <trkpt lat="41.5431300" lon="-4.7607070">
        <ele>693.0</ele>
        <time>2019-05-25T14:09:55Z</time>
      </trkpt>
      <trkpt lat="41.5430770" lon="-4.7607150">
        <ele>692.9</ele>
        <time>2019-05-25T14:09:56Z</time>
      </trkpt>
      <trkpt lat="41.5430210" lon="-4.7607230">
        <ele>692.9</ele>
        <time>2019-05-25T14:09:57Z</time>
      </trkpt>
      <trkpt lat="41.5429700" lon="-4.7607240">
        <ele>692.9</ele>
        <time>2019-05-25T14:09:58Z</time>
      </trkpt>
      <trkpt lat="41.5429190" lon="-4.7607340">
        <ele>692.9</ele>
        <time>2019-05-25T14:09:59Z</time>
      </trkpt>
      <trkpt lat="41.5428490" lon="-4.7607320">
        <ele>692.9</ele>
        <time>2019-05-25T14:10:00Z</time>
      </trkpt>
      <trkpt lat="41.5427960" lon="-4.7607380">
        <ele>692.9</ele>
        <time>2019-05-25T14:10:01Z</time>
      </trkpt>
      <trkpt lat="41.5427470" lon="-4.7607480">
        <ele>692.9</ele>
        <time>2019-05-25T14:10:02Z</time>
      </trkpt>
      <trkpt lat="41.5426910" lon="-4.7607510">
        <ele>692.9</ele>
        <time>2019-05-25T14:10:03Z</time>
      </trkpt>
      <trkpt lat="41.5426380" lon="-4.7607590">
        <ele>692.9</ele>
        <time>2019-05-25T14:10:04Z</time>
      </trkpt>
      <trkpt lat="41.5425760" lon="-4.7607680">
        <ele>692.9</ele>
        <time>2019-05-25T14:10:05Z</time>
      </trkpt>
      <trkpt lat="41.5425150" lon="-4.7607710">
        <ele>692.9</ele>
        <time>2019-05-25T14:10:06Z</time>
      </trkpt>
      <trkpt lat="41.5424630" lon="-4.7607820">
        <ele>692.9</ele>
        <time>2019-05-25T14:10:07Z</time>
      </trkpt>
      <trkpt lat="41.5424050" lon="-4.7608010">
        <ele>692.8</ele>
        <time>2019-05-25T14:10:08Z</time>
      </trkpt>
      <trkpt lat="41.5423430" lon="-4.7608070">
        <ele>692.8</ele>
        <time>2019-05-25T14:10:09Z</time>
      </trkpt>
      <trkpt lat="41.5422790" lon="-4.7608150">
        <ele>692.8</ele>
        <time>2019-05-25T14:10:10Z</time>
      </trkpt>
      <trkpt lat="41.5422130" lon="-4.7608170">
        <ele>692.8</ele>
        <time>2019-05-25T14:10:11Z</time>
      </trkpt>
      <trkpt lat="41.5421540" lon="-4.7608300">
        <ele>692.7</ele>
        <time>2019-05-25T14:10:12Z</time>
      </trkpt>
      <trkpt lat="41.5420980" lon="-4.7608410">
        <ele>692.7</ele>
        <time>2019-05-25T14:10:13Z</time>
      </trkpt>
      <trkpt lat="41.5420410" lon="-4.7608570">
        <ele>692.7</ele>
        <time>2019-05-25T14:10:14Z</time>
      </trkpt>
      <trkpt lat="41.5419800" lon="-4.7608800">
        <ele>692.6</ele>
        <time>2019-05-25T14:10:15Z</time>
      </trkpt>
      <trkpt lat="41.5419310" lon="-4.7608940">
        <ele>692.6</ele>
        <time>2019-05-25T14:10:16Z</time>
      </trkpt>
      <trkpt lat="41.5418670" lon="-4.7609050">
        <ele>692.6</ele>
        <time>2019-05-25T14:10:17Z</time>
      </trkpt>
      <trkpt lat="41.5418060" lon="-4.7609400">
        <ele>692.6</ele>
        <time>2019-05-25T14:10:18Z</time>
      </trkpt>
      <trkpt lat="41.5417560" lon="-4.7609530">
        <ele>692.6</ele>
        <time>2019-05-25T14:10:19Z</time>
      </trkpt>
      <trkpt lat="41.5416940" lon="-4.7609410">
        <ele>692.5</ele>
        <time>2019-05-25T14:10:20Z</time>
      </trkpt>
      <trkpt lat="41.5416280" lon="-4.7609470">
        <ele>692.6</ele>
        <time>2019-05-25T14:10:21Z</time>
      </trkpt>
      <trkpt lat="41.5415570" lon="-4.7609560">
        <ele>692.6</ele>
        <time>2019-05-25T14:10:22Z</time>
      </trkpt>
      <trkpt lat="41.5415160" lon="-4.7609840">
        <ele>692.6</ele>
        <time>2019-05-25T14:10:23Z</time>
      </trkpt>
      <trkpt lat="41.5414480" lon="-4.7609920">
        <ele>692.7</ele>
        <time>2019-05-25T14:10:24Z</time>
      </trkpt>
      <trkpt lat="41.5413940" lon="-4.7610030">
        <ele>692.8</ele>
        <time>2019-05-25T14:10:25Z</time>
      </trkpt>
      <trkpt lat="41.5413380" lon="-4.7610050">
        <ele>692.8</ele>
        <time>2019-05-25T14:10:26Z</time>
      </trkpt>
      <trkpt lat="41.5412740" lon="-4.7610290">
        <ele>692.9</ele>
        <time>2019-05-25T14:10:27Z</time>
      </trkpt>
      <trkpt lat="41.5412220" lon="-4.7610130">
        <ele>692.9</ele>
        <time>2019-05-25T14:10:28Z</time>
      </trkpt>
      <trkpt lat="41.5411560" lon="-4.7610270">
        <ele>693.0</ele>
        <time>2019-05-25T14:10:29Z</time>
      </trkpt>
      <trkpt lat="41.5411040" lon="-4.7610380">
        <ele>693.1</ele>
        <time>2019-05-25T14:10:30Z</time>
      </trkpt>
      <trkpt lat="41.5410550" lon="-4.7610520">
        <ele>693.1</ele>
        <time>2019-05-25T14:10:31Z</time>
      </trkpt>
      <trkpt lat="41.5410000" lon="-4.7610680">
        <ele>693.1</ele>
        <time>2019-05-25T14:10:32Z</time>
      </trkpt>
      <trkpt lat="41.5409440" lon="-4.7610810">
        <ele>693.2</ele>
        <time>2019-05-25T14:10:33Z</time>
      </trkpt>
      <trkpt lat="41.5408900" lon="-4.7610860">
        <ele>693.2</ele>
        <time>2019-05-25T14:10:34Z</time>
      </trkpt>
      <trkpt lat="41.5408330" lon="-4.7611000">
        <ele>693.2</ele>
        <time>2019-05-25T14:10:35Z</time>
      </trkpt>
      <trkpt lat="41.5407770" lon="-4.7611050">
        <ele>693.2</ele>
        <time>2019-05-25T14:10:36Z</time>
      </trkpt>
      <trkpt lat="41.5407180" lon="-4.7611140">
        <ele>693.2</ele>
        <time>2019-05-25T14:10:37Z</time>
      </trkpt>
      <trkpt lat="41.5406610" lon="-4.7611230">
        <ele>693.1</ele>
        <time>2019-05-25T14:10:38Z</time>
      </trkpt>
      <trkpt lat="41.5406130" lon="-4.7611370">
        <ele>693.1</ele>
        <time>2019-05-25T14:10:39Z</time>
      </trkpt>
      <trkpt lat="41.5405650" lon="-4.7611380">
        <ele>693.1</ele>
        <time>2019-05-25T14:10:40Z</time>
      </trkpt>
      <trkpt lat="41.5405590" lon="-4.7611840">
        <ele>693.0</ele>
        <time>2019-05-25T14:10:42Z</time>
      </trkpt>
      <trkpt lat="41.5405590" lon="-4.7612260">
        <ele>693.0</ele>
        <time>2019-05-25T14:10:44Z</time>
      </trkpt>
      <trkpt lat="41.5405800" lon="-4.7612680">
        <ele>692.9</ele>
        <time>2019-05-25T14:10:47Z</time>
      </trkpt>
      <trkpt lat="41.5405960" lon="-4.7612270">
        <ele>693.0</ele>
        <time>2019-05-25T14:10:53Z</time>
      </trkpt>
      <trkpt lat="41.5405460" lon="-4.7616890">
        <ele>692.0</ele>
        <time>2019-05-25T14:12:05Z</time>
      </trkpt>
      <trkpt lat="41.5405260" lon="-4.7617140">
        <ele>692.0</ele>
        <time>2019-05-25T14:12:06Z</time>
      </trkpt>
      <trkpt lat="41.5404970" lon="-4.7616980">
        <ele>692.0</ele>
        <time>2019-05-25T14:12:07Z</time>
      </trkpt>
      <trkpt lat="41.5404640" lon="-4.7617130">
        <ele>692.0</ele>
        <time>2019-05-25T14:12:08Z</time>
      </trkpt>
      <trkpt lat="41.5404070" lon="-4.7617320">
        <ele>691.9</ele>
        <time>2019-05-25T14:12:09Z</time>
      </trkpt>
      <trkpt lat="41.5403740" lon="-4.7617520">
        <ele>691.9</ele>
        <time>2019-05-25T14:12:10Z</time>
      </trkpt>
      <trkpt lat="41.5403260" lon="-4.7617780">
        <ele>691.8</ele>
        <time>2019-05-25T14:12:11Z</time>
      </trkpt>
      <trkpt lat="41.5402770" lon="-4.7617890">
        <ele>691.8</ele>
        <time>2019-05-25T14:12:12Z</time>
      </trkpt>
      <trkpt lat="41.5402270" lon="-4.7617940">
        <ele>691.8</ele>
        <time>2019-05-25T14:12:13Z</time>
      </trkpt>
      <trkpt lat="41.5401760" lon="-4.7617980">
        <ele>691.7</ele>
        <time>2019-05-25T14:12:14Z</time>
      </trkpt>
      <trkpt lat="41.5401170" lon="-4.7618200">
        <ele>691.7</ele>
        <time>2019-05-25T14:12:15Z</time>
      </trkpt>
      <trkpt lat="41.5400660" lon="-4.7618410">
        <ele>691.7</ele>
        <time>2019-05-25T14:12:16Z</time>
      </trkpt>
      <trkpt lat="41.5400280" lon="-4.7618540">
        <ele>691.7</ele>
        <time>2019-05-25T14:12:17Z</time>
      </trkpt>
      <trkpt lat="41.5399800" lon="-4.7618670">
        <ele>691.7</ele>
        <time>2019-05-25T14:12:19Z</time>
      </trkpt>
      <trkpt lat="41.5399520" lon="-4.7618750">
        <ele>691.7</ele>
        <time>2019-05-25T14:12:20Z</time>
      </trkpt>
      <trkpt lat="41.5398900" lon="-4.7618890">
        <ele>691.7</ele>
        <time>2019-05-25T14:12:21Z</time>
      </trkpt>
      <trkpt lat="41.5398130" lon="-4.7619000">
        <ele>691.8</ele>
        <time>2019-05-25T14:12:22Z</time>
      </trkpt>
      <trkpt lat="41.5397500" lon="-4.7619120">
        <ele>691.9</ele>
        <time>2019-05-25T14:12:23Z</time>
      </trkpt>
      <trkpt lat="41.5396870" lon="-4.7619290">
        <ele>692.0</ele>
        <time>2019-05-25T14:12:24Z</time>
      </trkpt>
      <trkpt lat="41.5396240" lon="-4.7619490">
        <ele>692.1</ele>
        <time>2019-05-25T14:12:25Z</time>
      </trkpt>
      <trkpt lat="41.5395660" lon="-4.7619650">
        <ele>692.3</ele>
        <time>2019-05-25T14:12:26Z</time>
      </trkpt>
      <trkpt lat="41.5395170" lon="-4.7619790">
        <ele>692.5</ele>
        <time>2019-05-25T14:12:27Z</time>
      </trkpt>
      <trkpt lat="41.5394650" lon="-4.7619970">
        <ele>692.5</ele>
        <time>2019-05-25T14:12:28Z</time>
      </trkpt>
      <trkpt lat="41.5394050" lon="-4.7620170">
        <ele>692.8</ele>
        <time>2019-05-25T14:12:29Z</time>
      </trkpt>
      <trkpt lat="41.5393450" lon="-4.7620360">
        <ele>692.9</ele>
        <time>2019-05-25T14:12:30Z</time>
      </trkpt>
      <trkpt lat="41.5393130" lon="-4.7620510">
        <ele>692.9</ele>
        <time>2019-05-25T14:12:31Z</time>
      </trkpt>
      <trkpt lat="41.5392870" lon="-4.7620620">
        <ele>693.1</ele>
        <time>2019-05-25T14:12:32Z</time>
      </trkpt>
      <trkpt lat="41.5392570" lon="-4.7620720">
        <ele>693.1</ele>
        <time>2019-05-25T14:12:33Z</time>
      </trkpt>
      <trkpt lat="41.5392250" lon="-4.7620840">
        <ele>693.2</ele>
        <time>2019-05-25T14:12:34Z</time>
      </trkpt>
      <trkpt lat="41.5391880" lon="-4.7620940">
        <ele>693.2</ele>
        <time>2019-05-25T14:12:35Z</time>
      </trkpt>
      <trkpt lat="41.5391480" lon="-4.7621070">
        <ele>693.4</ele>
        <time>2019-05-25T14:12:36Z</time>
      </trkpt>
      <trkpt lat="41.5391020" lon="-4.7621230">
        <ele>693.4</ele>
        <time>2019-05-25T14:12:37Z</time>
      </trkpt>
      <trkpt lat="41.5390530" lon="-4.7621360">
        <ele>693.5</ele>
        <time>2019-05-25T14:12:38Z</time>
      </trkpt>
      <trkpt lat="41.5390030" lon="-4.7621530">
        <ele>693.6</ele>
        <time>2019-05-25T14:12:39Z</time>
      </trkpt>
      <trkpt lat="41.5389480" lon="-4.7621670">
        <ele>693.6</ele>
        <time>2019-05-25T14:12:40Z</time>
      </trkpt>
      <trkpt lat="41.5388790" lon="-4.7621890">
        <ele>693.7</ele>
        <time>2019-05-25T14:12:41Z</time>
      </trkpt>
      <trkpt lat="41.5388100" lon="-4.7622100">
        <ele>693.7</ele>
        <time>2019-05-25T14:12:42Z</time>
      </trkpt>
      <trkpt lat="41.5387360" lon="-4.7622290">
        <ele>693.7</ele>
        <time>2019-05-25T14:12:43Z</time>
      </trkpt>
      <trkpt lat="41.5386540" lon="-4.7622510">
        <ele>693.7</ele>
        <time>2019-05-25T14:12:44Z</time>
      </trkpt>
      <trkpt lat="41.5385680" lon="-4.7622690">
        <ele>693.6</ele>
        <time>2019-05-25T14:12:45Z</time>
      </trkpt>
      <trkpt lat="41.5384860" lon="-4.7622820">
        <ele>693.5</ele>
        <time>2019-05-25T14:12:46Z</time>
      </trkpt>
      <trkpt lat="41.5383940" lon="-4.7623030">
        <ele>693.4</ele>
        <time>2019-05-25T14:12:47Z</time>
      </trkpt>
      <trkpt lat="41.5382990" lon="-4.7623160">
        <ele>693.2</ele>
        <time>2019-05-25T14:12:48Z</time>
      </trkpt>
      <trkpt lat="41.5382290" lon="-4.7623290">
        <ele>692.8</ele>
        <time>2019-05-25T14:12:49Z</time>
      </trkpt>
      <trkpt lat="41.5381190" lon="-4.7623480">
        <ele>692.5</ele>
        <time>2019-05-25T14:12:51Z</time>
      </trkpt>
      <trkpt lat="41.5380650" lon="-4.7623610">
        <ele>692.1</ele>
        <time>2019-05-25T14:12:52Z</time>
      </trkpt>
      <trkpt lat="41.5380170" lon="-4.7623750">
        <ele>691.9</ele>
        <time>2019-05-25T14:12:53Z</time>
      </trkpt>
      <trkpt lat="41.5379780" lon="-4.7624060">
        <ele>691.6</ele>
        <time>2019-05-25T14:12:54Z</time>
      </trkpt>
      <trkpt lat="41.5379170" lon="-4.7624160">
        <ele>691.2</ele>
        <time>2019-05-25T14:12:55Z</time>
      </trkpt>
      <trkpt lat="41.5378650" lon="-4.7624380">
        <ele>690.8</ele>
        <time>2019-05-25T14:12:56Z</time>
      </trkpt>
      <trkpt lat="41.5378150" lon="-4.7624480">
        <ele>690.2</ele>
        <time>2019-05-25T14:12:57Z</time>
      </trkpt>
      <trkpt lat="41.5377690" lon="-4.7624630">
        <ele>690.0</ele>
        <time>2019-05-25T14:12:58Z</time>
      </trkpt>
      <trkpt lat="41.5377250" lon="-4.7624890">
        <ele>689.6</ele>
        <time>2019-05-25T14:12:59Z</time>
      </trkpt>
      <trkpt lat="41.5376820" lon="-4.7625110">
        <ele>689.3</ele>
        <time>2019-05-25T14:13:00Z</time>
      </trkpt>
      <trkpt lat="41.5376300" lon="-4.7625120">
        <ele>689.2</ele>
        <time>2019-05-25T14:13:01Z</time>
      </trkpt>
      <trkpt lat="41.5375810" lon="-4.7625330">
        <ele>688.9</ele>
        <time>2019-05-25T14:13:02Z</time>
      </trkpt>
      <trkpt lat="41.5375350" lon="-4.7625460">
        <ele>688.8</ele>
        <time>2019-05-25T14:13:03Z</time>
      </trkpt>
      <trkpt lat="41.5374960" lon="-4.7625480">
        <ele>688.7</ele>
        <time>2019-05-25T14:13:04Z</time>
      </trkpt>
      <trkpt lat="41.5374450" lon="-4.7625240">
        <ele>688.7</ele>
        <time>2019-05-25T14:13:05Z</time>
      </trkpt>
      <trkpt lat="41.5374010" lon="-4.7625150">
        <ele>688.6</ele>
        <time>2019-05-25T14:13:06Z</time>
      </trkpt>
      <trkpt lat="41.5373550" lon="-4.7624640">
        <ele>688.7</ele>
        <time>2019-05-25T14:13:07Z</time>
      </trkpt>
      <trkpt lat="41.5373060" lon="-4.7624350">
        <ele>688.7</ele>
        <time>2019-05-25T14:13:08Z</time>
      </trkpt>
      <trkpt lat="41.5372880" lon="-4.7623960">
        <ele>688.7</ele>
        <time>2019-05-25T14:13:09Z</time>
      </trkpt>
      <trkpt lat="41.5372890" lon="-4.7623520">
        <ele>688.7</ele>
        <time>2019-05-25T14:13:11Z</time>
      </trkpt>
      <trkpt lat="41.5373020" lon="-4.7622930">
        <ele>688.8</ele>
        <time>2019-05-25T14:13:13Z</time>
      </trkpt>
      <trkpt lat="41.5373190" lon="-4.7621710">
        <ele>688.9</ele>
        <time>2019-05-25T14:13:14Z</time>
      </trkpt>
      <trkpt lat="41.5373030" lon="-4.7620190">
        <ele>689.1</ele>
        <time>2019-05-25T14:13:15Z</time>
      </trkpt>
      <trkpt lat="41.5373250" lon="-4.7619680">
        <ele>689.3</ele>
        <time>2019-05-25T14:13:16Z</time>
      </trkpt>
      <trkpt lat="41.5372910" lon="-4.7618620">
        <ele>689.3</ele>
        <time>2019-05-25T14:13:19Z</time>
      </trkpt>
      <trkpt lat="41.5372620" lon="-4.7618210">
        <ele>689.3</ele>
        <time>2019-05-25T14:13:20Z</time>
      </trkpt>
      <trkpt lat="41.5372450" lon="-4.7617320">
        <ele>689.5</ele>
        <time>2019-05-25T14:13:21Z</time>
      </trkpt>
      <trkpt lat="41.5372580" lon="-4.7616610">
        <ele>689.8</ele>
        <time>2019-05-25T14:13:22Z</time>
      </trkpt>
      <trkpt lat="41.5372410" lon="-4.7616170">
        <ele>689.9</ele>
        <time>2019-05-25T14:13:23Z</time>
      </trkpt>
      <trkpt lat="41.5372170" lon="-4.7615550">
        <ele>689.8</ele>
        <time>2019-05-25T14:13:24Z</time>
      </trkpt>
      <trkpt lat="41.5372080" lon="-4.7615160">
        <ele>689.9</ele>
        <time>2019-05-25T14:13:25Z</time>
      </trkpt>
      <trkpt lat="41.5371820" lon="-4.7614450">
        <ele>690.0</ele>
        <time>2019-05-25T14:13:27Z</time>
      </trkpt>
      <trkpt lat="41.5371550" lon="-4.7613640">
        <ele>690.1</ele>
        <time>2019-05-25T14:13:28Z</time>
      </trkpt>
      <trkpt lat="41.5371330" lon="-4.7612800">
        <ele>690.2</ele>
        <time>2019-05-25T14:13:29Z</time>
      </trkpt>
      <trkpt lat="41.5371140" lon="-4.7612030">
        <ele>690.2</ele>
        <time>2019-05-25T14:13:30Z</time>
      </trkpt>
      <trkpt lat="41.5370990" lon="-4.7611290">
        <ele>690.2</ele>
        <time>2019-05-25T14:13:31Z</time>
      </trkpt>
      <trkpt lat="41.5370890" lon="-4.7610850">
        <ele>690.3</ele>
        <time>2019-05-25T14:13:32Z</time>
      </trkpt>
      <trkpt lat="41.5370480" lon="-4.7610330">
        <ele>690.2</ele>
        <time>2019-05-25T14:13:34Z</time>
      </trkpt>
      <trkpt lat="41.5370180" lon="-4.7610090">
        <ele>690.2</ele>
        <time>2019-05-25T14:13:35Z</time>
      </trkpt>
      <trkpt lat="41.5369900" lon="-4.7609830">
        <ele>690.1</ele>
        <time>2019-05-25T14:13:36Z</time>
      </trkpt>
      <trkpt lat="41.5369590" lon="-4.7609560">
        <ele>690.0</ele>
        <time>2019-05-25T14:13:37Z</time>
      </trkpt>
      <trkpt lat="41.5369250" lon="-4.7609270">
        <ele>690.0</ele>
        <time>2019-05-25T14:13:38Z</time>
      </trkpt>
      <trkpt lat="41.5368870" lon="-4.7608990">
        <ele>690.0</ele>
        <time>2019-05-25T14:13:39Z</time>
      </trkpt>
      <trkpt lat="41.5368510" lon="-4.7608680">
        <ele>689.8</ele>
        <time>2019-05-25T14:13:40Z</time>
      </trkpt>
      <trkpt lat="41.5368180" lon="-4.7608450">
        <ele>689.8</ele>
        <time>2019-05-25T14:13:41Z</time>
      </trkpt>
      <trkpt lat="41.5367860" lon="-4.7608250">
        <ele>689.7</ele>
        <time>2019-05-25T14:13:42Z</time>
      </trkpt>
      <trkpt lat="41.5367540" lon="-4.7608060">
        <ele>689.7</ele>
        <time>2019-05-25T14:13:43Z</time>
      </trkpt>
      <trkpt lat="41.5367060" lon="-4.7607670">
        <ele>689.7</ele>
        <time>2019-05-25T14:13:44Z</time>
      </trkpt>
      <trkpt lat="41.5366600" lon="-4.7607320">
        <ele>689.6</ele>
        <time>2019-05-25T14:13:45Z</time>
      </trkpt>
      <trkpt lat="41.5366140" lon="-4.7606950">
        <ele>689.5</ele>
        <time>2019-05-25T14:13:46Z</time>
      </trkpt>
      <trkpt lat="41.5365660" lon="-4.7606640">
        <ele>689.6</ele>
        <time>2019-05-25T14:13:47Z</time>
      </trkpt>
      <trkpt lat="41.5365250" lon="-4.7606300">
        <ele>689.5</ele>
        <time>2019-05-25T14:13:48Z</time>
      </trkpt>
      <trkpt lat="41.5364890" lon="-4.7605930">
        <ele>689.6</ele>
        <time>2019-05-25T14:13:49Z</time>
      </trkpt>
      <trkpt lat="41.5364500" lon="-4.7605570">
        <ele>689.6</ele>
        <time>2019-05-25T14:13:50Z</time>
      </trkpt>
      <trkpt lat="41.5364120" lon="-4.7605160">
        <ele>689.6</ele>
        <time>2019-05-25T14:13:51Z</time>
      </trkpt>
      <trkpt lat="41.5363750" lon="-4.7604730">
        <ele>689.7</ele>
        <time>2019-05-25T14:13:52Z</time>
      </trkpt>
      <trkpt lat="41.5363360" lon="-4.7604290">
        <ele>689.7</ele>
        <time>2019-05-25T14:13:53Z</time>
      </trkpt>
      <trkpt lat="41.5362960" lon="-4.7603780">
        <ele>689.8</ele>
        <time>2019-05-25T14:13:54Z</time>
      </trkpt>
      <trkpt lat="41.5362580" lon="-4.7603240">
        <ele>689.9</ele>
        <time>2019-05-25T14:13:55Z</time>
      </trkpt>
      <trkpt lat="41.5362210" lon="-4.7602700">
        <ele>689.9</ele>
        <time>2019-05-25T14:13:56Z</time>
      </trkpt>
      <trkpt lat="41.5361860" lon="-4.7602170">
        <ele>689.9</ele>
        <time>2019-05-25T14:13:57Z</time>
      </trkpt>
      <trkpt lat="41.5361490" lon="-4.7601630">
        <ele>689.9</ele>
        <time>2019-05-25T14:13:58Z</time>
      </trkpt>
      <trkpt lat="41.5361100" lon="-4.7601080">
        <ele>689.8</ele>
        <time>2019-05-25T14:13:59Z</time>
      </trkpt>
      <trkpt lat="41.5360740" lon="-4.7600500">
        <ele>689.7</ele>
        <time>2019-05-25T14:14:00Z</time>
      </trkpt>
      <trkpt lat="41.5360360" lon="-4.7599890">
        <ele>689.7</ele>
        <time>2019-05-25T14:14:01Z</time>
      </trkpt>
      <trkpt lat="41.5359930" lon="-4.7599220">
        <ele>689.6</ele>
        <time>2019-05-25T14:14:02Z</time>
      </trkpt>
      <trkpt lat="41.5359480" lon="-4.7598520">
        <ele>689.4</ele>
        <time>2019-05-25T14:14:03Z</time>
      </trkpt>
      <trkpt lat="41.5359020" lon="-4.7597880">
        <ele>689.4</ele>
        <time>2019-05-25T14:14:04Z</time>
      </trkpt>
      <trkpt lat="41.5358540" lon="-4.7597270">
        <ele>689.2</ele>
        <time>2019-05-25T14:14:05Z</time>
      </trkpt>
      <trkpt lat="41.5358080" lon="-4.7596760">
        <ele>689.2</ele>
        <time>2019-05-25T14:14:06Z</time>
      </trkpt>
      <trkpt lat="41.5357630" lon="-4.7596240">
        <ele>689.1</ele>
        <time>2019-05-25T14:14:07Z</time>
      </trkpt>
      <trkpt lat="41.5357240" lon="-4.7595670">
        <ele>689.1</ele>
        <time>2019-05-25T14:14:08Z</time>
      </trkpt>
      <trkpt lat="41.5356870" lon="-4.7595100">
        <ele>689.1</ele>
        <time>2019-05-25T14:14:09Z</time>
      </trkpt>
      <trkpt lat="41.5356710" lon="-4.7594720">
        <ele>689.2</ele>
        <time>2019-05-25T14:14:10Z</time>
      </trkpt>
      <trkpt lat="41.5356300" lon="-4.7594270">
        <ele>689.2</ele>
        <time>2019-05-25T14:14:12Z</time>
      </trkpt>
      <trkpt lat="41.5355920" lon="-4.7594000">
        <ele>689.1</ele>
        <time>2019-05-25T14:14:13Z</time>
      </trkpt>
      <trkpt lat="41.5355550" lon="-4.7593770">
        <ele>689.1</ele>
        <time>2019-05-25T14:14:14Z</time>
      </trkpt>
      <trkpt lat="41.5355180" lon="-4.7593530">
        <ele>689.1</ele>
        <time>2019-05-25T14:14:15Z</time>
      </trkpt>
      <trkpt lat="41.5354740" lon="-4.7593170">
        <ele>689.0</ele>
        <time>2019-05-25T14:14:16Z</time>
      </trkpt>
      <trkpt lat="41.5354280" lon="-4.7592750">
        <ele>689.0</ele>
        <time>2019-05-25T14:14:17Z</time>
      </trkpt>
      <trkpt lat="41.5353950" lon="-4.7592270">
        <ele>689.1</ele>
        <time>2019-05-25T14:14:18Z</time>
      </trkpt>
      <trkpt lat="41.5353660" lon="-4.7591780">
        <ele>689.3</ele>
        <time>2019-05-25T14:14:19Z</time>
      </trkpt>
      <trkpt lat="41.5353380" lon="-4.7591220">
        <ele>689.4</ele>
        <time>2019-05-25T14:14:20Z</time>
      </trkpt>
      <trkpt lat="41.5353090" lon="-4.7590670">
        <ele>689.5</ele>
        <time>2019-05-25T14:14:21Z</time>
      </trkpt>
      <trkpt lat="41.5352750" lon="-4.7590060">
        <ele>689.6</ele>
        <time>2019-05-25T14:14:22Z</time>
      </trkpt>
      <trkpt lat="41.5352470" lon="-4.7589460">
        <ele>689.7</ele>
        <time>2019-05-25T14:14:23Z</time>
      </trkpt>
      <trkpt lat="41.5352280" lon="-4.7588960">
        <ele>689.7</ele>
        <time>2019-05-25T14:14:24Z</time>
      </trkpt>
      <trkpt lat="41.5352060" lon="-4.7588430">
        <ele>689.8</ele>
        <time>2019-05-25T14:14:25Z</time>
      </trkpt>
      <trkpt lat="41.5351770" lon="-4.7587890">
        <ele>689.9</ele>
        <time>2019-05-25T14:14:26Z</time>
      </trkpt>
      <trkpt lat="41.5351580" lon="-4.7587380">
        <ele>689.9</ele>
        <time>2019-05-25T14:14:27Z</time>
      </trkpt>
      <trkpt lat="41.5351400" lon="-4.7586790">
        <ele>690.0</ele>
        <time>2019-05-25T14:14:28Z</time>
      </trkpt>
      <trkpt lat="41.5351150" lon="-4.7586140">
        <ele>690.0</ele>
        <time>2019-05-25T14:14:29Z</time>
      </trkpt>
      <trkpt lat="41.5350920" lon="-4.7585480">
        <ele>690.1</ele>
        <time>2019-05-25T14:14:30Z</time>
      </trkpt>
      <trkpt lat="41.5350700" lon="-4.7584850">
        <ele>690.1</ele>
        <time>2019-05-25T14:14:31Z</time>
      </trkpt>
      <trkpt lat="41.5350490" lon="-4.7584180">
        <ele>690.2</ele>
        <time>2019-05-25T14:14:32Z</time>
      </trkpt>
      <trkpt lat="41.5350250" lon="-4.7583480">
        <ele>690.3</ele>
        <time>2019-05-25T14:14:33Z</time>
      </trkpt>
      <trkpt lat="41.5350020" lon="-4.7582800">
        <ele>690.3</ele>
        <time>2019-05-25T14:14:34Z</time>
      </trkpt>
      <trkpt lat="41.5349720" lon="-4.7582190">
        <ele>690.4</ele>
        <time>2019-05-25T14:14:35Z</time>
      </trkpt>
      <trkpt lat="41.5349510" lon="-4.7581450">
        <ele>690.4</ele>
        <time>2019-05-25T14:14:36Z</time>
      </trkpt>
      <trkpt lat="41.5349230" lon="-4.7580780">
        <ele>690.4</ele>
        <time>2019-05-25T14:14:37Z</time>
      </trkpt>
      <trkpt lat="41.5348920" lon="-4.7580130">
        <ele>690.5</ele>
        <time>2019-05-25T14:14:38Z</time>
      </trkpt>
      <trkpt lat="41.5348600" lon="-4.7579420">
        <ele>690.5</ele>
        <time>2019-05-25T14:14:39Z</time>
      </trkpt>
      <trkpt lat="41.5348310" lon="-4.7578650">
        <ele>690.6</ele>
        <time>2019-05-25T14:14:40Z</time>
      </trkpt>
      <trkpt lat="41.5348000" lon="-4.7577960">
        <ele>690.6</ele>
        <time>2019-05-25T14:14:41Z</time>
      </trkpt>
      <trkpt lat="41.5347700" lon="-4.7577140">
        <ele>690.6</ele>
        <time>2019-05-25T14:14:42Z</time>
      </trkpt>
      <trkpt lat="41.5347450" lon="-4.7576380">
        <ele>690.7</ele>
        <time>2019-05-25T14:14:43Z</time>
      </trkpt>
      <trkpt lat="41.5347200" lon="-4.7575630">
        <ele>690.7</ele>
        <time>2019-05-25T14:14:44Z</time>
      </trkpt>
      <trkpt lat="41.5346950" lon="-4.7574870">
        <ele>690.7</ele>
        <time>2019-05-25T14:14:45Z</time>
      </trkpt>
      <trkpt lat="41.5346730" lon="-4.7574170">
        <ele>690.7</ele>
        <time>2019-05-25T14:14:46Z</time>
      </trkpt>
      <trkpt lat="41.5346530" lon="-4.7573490">
        <ele>690.8</ele>
        <time>2019-05-25T14:14:47Z</time>
      </trkpt>
      <trkpt lat="41.5346320" lon="-4.7572810">
        <ele>690.8</ele>
        <time>2019-05-25T14:14:48Z</time>
      </trkpt>
      <trkpt lat="41.5346130" lon="-4.7572120">
        <ele>690.8</ele>
        <time>2019-05-25T14:14:49Z</time>
      </trkpt>
      <trkpt lat="41.5345920" lon="-4.7571470">
        <ele>690.8</ele>
        <time>2019-05-25T14:14:50Z</time>
      </trkpt>
      <trkpt lat="41.5345710" lon="-4.7570820">
        <ele>690.9</ele>
        <time>2019-05-25T14:14:51Z</time>
      </trkpt>
      <trkpt lat="41.5345500" lon="-4.7570360">
        <ele>690.9</ele>
        <time>2019-05-25T14:14:52Z</time>
      </trkpt>
      <trkpt lat="41.5345300" lon="-4.7569840">
        <ele>690.9</ele>
        <time>2019-05-25T14:14:53Z</time>
      </trkpt>
      <trkpt lat="41.5345060" lon="-4.7569320">
        <ele>690.9</ele>
        <time>2019-05-25T14:14:54Z</time>
      </trkpt>
      <trkpt lat="41.5344790" lon="-4.7568730">
        <ele>691.0</ele>
        <time>2019-05-25T14:14:55Z</time>
      </trkpt>
      <trkpt lat="41.5344580" lon="-4.7568200">
        <ele>691.0</ele>
        <time>2019-05-25T14:14:56Z</time>
      </trkpt>
      <trkpt lat="41.5344410" lon="-4.7567780">
        <ele>691.1</ele>
        <time>2019-05-25T14:14:57Z</time>
      </trkpt>
      <trkpt lat="41.5344380" lon="-4.7567410">
        <ele>691.1</ele>
        <time>2019-05-25T14:14:58Z</time>
      </trkpt>
      <trkpt lat="41.5344160" lon="-4.7566930">
        <ele>691.2</ele>
        <time>2019-05-25T14:14:59Z</time>
      </trkpt>
      <trkpt lat="41.5343840" lon="-4.7566470">
        <ele>691.2</ele>
        <time>2019-05-25T14:15:00Z</time>
      </trkpt>
      <trkpt lat="41.5343450" lon="-4.7565980">
        <ele>691.3</ele>
        <time>2019-05-25T14:15:01Z</time>
      </trkpt>
      <trkpt lat="41.5343010" lon="-4.7565510">
        <ele>691.3</ele>
        <time>2019-05-25T14:15:02Z</time>
      </trkpt>
      <trkpt lat="41.5342460" lon="-4.7565120">
        <ele>691.4</ele>
        <time>2019-05-25T14:15:03Z</time>
      </trkpt>
      <trkpt lat="41.5341940" lon="-4.7564880">
        <ele>691.5</ele>
        <time>2019-05-25T14:15:04Z</time>
      </trkpt>
      <trkpt lat="41.5341420" lon="-4.7564640">
        <ele>691.5</ele>
        <time>2019-05-25T14:15:05Z</time>
      </trkpt>
      <trkpt lat="41.5341030" lon="-4.7564430">
        <ele>691.6</ele>
        <time>2019-05-25T14:15:06Z</time>
      </trkpt>
      <trkpt lat="41.5340770" lon="-4.7564150">
        <ele>691.6</ele>
        <time>2019-05-25T14:15:07Z</time>
      </trkpt>
      <trkpt lat="41.5340500" lon="-4.7563870">
        <ele>691.6</ele>
        <time>2019-05-25T14:15:08Z</time>
      </trkpt>
      <trkpt lat="41.5340180" lon="-4.7563610">
        <ele>691.6</ele>
        <time>2019-05-25T14:15:09Z</time>
      </trkpt>
      <trkpt lat="41.5339850" lon="-4.7563440">
        <ele>691.7</ele>
        <time>2019-05-25T14:15:10Z</time>
      </trkpt>
      <trkpt lat="41.5339430" lon="-4.7563400">
        <ele>691.7</ele>
        <time>2019-05-25T14:15:11Z</time>
      </trkpt>
      <trkpt lat="41.5338900" lon="-4.7563530">
        <ele>691.7</ele>
        <time>2019-05-25T14:15:12Z</time>
      </trkpt>
      <trkpt lat="41.5338370" lon="-4.7563580">
        <ele>691.7</ele>
        <time>2019-05-25T14:15:13Z</time>
      </trkpt>
      <trkpt lat="41.5337940" lon="-4.7563900">
        <ele>691.7</ele>
        <time>2019-05-25T14:15:14Z</time>
      </trkpt>
      <trkpt lat="41.5337580" lon="-4.7564170">
        <ele>691.7</ele>
        <time>2019-05-25T14:15:15Z</time>
      </trkpt>
      <trkpt lat="41.5337210" lon="-4.7564280">
        <ele>691.7</ele>
        <time>2019-05-25T14:15:16Z</time>
      </trkpt>
      <trkpt lat="41.5337020" lon="-4.7564770">
        <ele>691.7</ele>
        <time>2019-05-25T14:15:17Z</time>
      </trkpt>
      <trkpt lat="41.5336760" lon="-4.7564920">
        <ele>691.7</ele>
        <time>2019-05-25T14:15:18Z</time>
      </trkpt>
      <trkpt lat="41.5336500" lon="-4.7565080">
        <ele>691.7</ele>
        <time>2019-05-25T14:15:19Z</time>
      </trkpt>
      <trkpt lat="41.5336490" lon="-4.7565610">
        <ele>691.6</ele>
        <time>2019-05-25T14:15:20Z</time>
      </trkpt>
      <trkpt lat="41.5336570" lon="-4.7566130">
        <ele>691.6</ele>
        <time>2019-05-25T14:15:21Z</time>
      </trkpt>
      <trkpt lat="41.5336720" lon="-4.7566660">
        <ele>691.6</ele>
        <time>2019-05-25T14:15:22Z</time>
      </trkpt>
      <trkpt lat="41.5336960" lon="-4.7567170">
        <ele>691.5</ele>
        <time>2019-05-25T14:15:23Z</time>
      </trkpt>
      <trkpt lat="41.5337320" lon="-4.7567620">
        <ele>691.5</ele>
        <time>2019-05-25T14:15:24Z</time>
      </trkpt>
      <trkpt lat="41.5337700" lon="-4.7567960">
        <ele>691.4</ele>
        <time>2019-05-25T14:15:25Z</time>
      </trkpt>
      <trkpt lat="41.5338030" lon="-4.7568230">
        <ele>691.4</ele>
        <time>2019-05-25T14:15:26Z</time>
      </trkpt>
      <trkpt lat="41.5338410" lon="-4.7568590">
        <ele>691.4</ele>
        <time>2019-05-25T14:15:28Z</time>
      </trkpt>
      <trkpt lat="41.5338700" lon="-4.7568800">
        <ele>691.3</ele>
        <time>2019-05-25T14:15:30Z</time>
      </trkpt>
      <trkpt lat="41.5338970" lon="-4.7569060">
        <ele>691.3</ele>
        <time>2019-05-25T14:15:34Z</time>
      </trkpt>
      <trkpt lat="41.5339060" lon="-4.7568580">
        <ele>691.3</ele>
        <time>2019-05-25T14:16:30Z</time>
      </trkpt>
      <trkpt lat="41.5339210" lon="-4.7568890">
        <ele>691.3</ele>
        <time>2019-05-25T14:16:31Z</time>
      </trkpt>
      <trkpt lat="41.5339390" lon="-4.7569420">
        <ele>691.2</ele>
        <time>2019-05-25T14:16:32Z</time>
      </trkpt>
      <trkpt lat="41.5339600" lon="-4.7569880">
        <ele>691.2</ele>
        <time>2019-05-25T14:16:33Z</time>
      </trkpt>
      <trkpt lat="41.5339940" lon="-4.7570560">
        <ele>691.2</ele>
        <time>2019-05-25T14:16:35Z</time>
      </trkpt>
      <trkpt lat="41.5340250" lon="-4.7571090">
        <ele>691.1</ele>
        <time>2019-05-25T14:16:36Z</time>
      </trkpt>
      <trkpt lat="41.5340510" lon="-4.7571490">
        <ele>691.1</ele>
        <time>2019-05-25T14:16:37Z</time>
      </trkpt>
      <trkpt lat="41.5340740" lon="-4.7571910">
        <ele>691.1</ele>
        <time>2019-05-25T14:16:38Z</time>
      </trkpt>
      <trkpt lat="41.5340900" lon="-4.7572410">
        <ele>691.0</ele>
        <time>2019-05-25T14:16:39Z</time>
      </trkpt>
      <trkpt lat="41.5341110" lon="-4.7572970">
        <ele>691.0</ele>
        <time>2019-05-25T14:16:40Z</time>
      </trkpt>
      <trkpt lat="41.5341340" lon="-4.7573640">
        <ele>691.0</ele>
        <time>2019-05-25T14:16:41Z</time>
      </trkpt>
      <trkpt lat="41.5341550" lon="-4.7574360">
        <ele>690.9</ele>
        <time>2019-05-25T14:16:42Z</time>
      </trkpt>
      <trkpt lat="41.5341850" lon="-4.7575190">
        <ele>690.9</ele>
        <time>2019-05-25T14:16:43Z</time>
      </trkpt>
      <trkpt lat="41.5342100" lon="-4.7576040">
        <ele>690.9</ele>
        <time>2019-05-25T14:16:44Z</time>
      </trkpt>
      <trkpt lat="41.5342330" lon="-4.7576810">
        <ele>690.8</ele>
        <time>2019-05-25T14:16:45Z</time>
      </trkpt>
      <trkpt lat="41.5342530" lon="-4.7577410">
        <ele>690.8</ele>
        <time>2019-05-25T14:16:46Z</time>
      </trkpt>
      <trkpt lat="41.5342740" lon="-4.7577940">
        <ele>690.8</ele>
        <time>2019-05-25T14:16:47Z</time>
      </trkpt>
      <trkpt lat="41.5342920" lon="-4.7578400">
        <ele>690.8</ele>
        <time>2019-05-25T14:16:48Z</time>
      </trkpt>
      <trkpt lat="41.5343110" lon="-4.7578890">
        <ele>690.8</ele>
        <time>2019-05-25T14:16:49Z</time>
      </trkpt>
      <trkpt lat="41.5343300" lon="-4.7579400">
        <ele>690.8</ele>
        <time>2019-05-25T14:16:50Z</time>
      </trkpt>
      <trkpt lat="41.5343520" lon="-4.7579930">
        <ele>690.8</ele>
        <time>2019-05-25T14:16:51Z</time>
      </trkpt>
      <trkpt lat="41.5343710" lon="-4.7580450">
        <ele>690.7</ele>
        <time>2019-05-25T14:16:52Z</time>
      </trkpt>
      <trkpt lat="41.5343920" lon="-4.7580950">
        <ele>690.7</ele>
        <time>2019-05-25T14:16:53Z</time>
      </trkpt>
      <trkpt lat="41.5344150" lon="-4.7581520">
        <ele>690.7</ele>
        <time>2019-05-25T14:16:54Z</time>
      </trkpt>
      <trkpt lat="41.5344380" lon="-4.7582140">
        <ele>690.7</ele>
        <time>2019-05-25T14:16:55Z</time>
      </trkpt>
      <trkpt lat="41.5344600" lon="-4.7582750">
        <ele>690.7</ele>
        <time>2019-05-25T14:16:56Z</time>
      </trkpt>
      <trkpt lat="41.5344800" lon="-4.7583350">
        <ele>690.7</ele>
        <time>2019-05-25T14:16:57Z</time>
      </trkpt>
      <trkpt lat="41.5345010" lon="-4.7583940">
        <ele>690.7</ele>
        <time>2019-05-25T14:16:58Z</time>
      </trkpt>
      <trkpt lat="41.5345240" lon="-4.7584590">
        <ele>690.6</ele>
        <time>2019-05-25T14:16:59Z</time>
      </trkpt>
      <trkpt lat="41.5345460" lon="-4.7585250">
        <ele>690.6</ele>
        <time>2019-05-25T14:17:00Z</time>
      </trkpt>
      <trkpt lat="41.5345660" lon="-4.7585870">
        <ele>690.6</ele>
        <time>2019-05-25T14:17:01Z</time>
      </trkpt>
      <trkpt lat="41.5345790" lon="-4.7586520">
        <ele>690.6</ele>
        <time>2019-05-25T14:17:02Z</time>
      </trkpt>
      <trkpt lat="41.5345900" lon="-4.7587110">
        <ele>690.6</ele>
        <time>2019-05-25T14:17:03Z</time>
      </trkpt>
      <trkpt lat="41.5346030" lon="-4.7587590">
        <ele>690.5</ele>
        <time>2019-05-25T14:17:04Z</time>
      </trkpt>
      <trkpt lat="41.5346180" lon="-4.7587990">
        <ele>690.5</ele>
        <time>2019-05-25T14:17:05Z</time>
      </trkpt>
      <trkpt lat="41.5346400" lon="-4.7588410">
        <ele>690.5</ele>
        <time>2019-05-25T14:17:06Z</time>
      </trkpt>
      <trkpt lat="41.5346600" lon="-4.7588780">
        <ele>690.5</ele>
        <time>2019-05-25T14:17:07Z</time>
      </trkpt>
      <trkpt lat="41.5346800" lon="-4.7589140">
        <ele>690.5</ele>
        <time>2019-05-25T14:17:08Z</time>
      </trkpt>
      <trkpt lat="41.5347020" lon="-4.7589560">
        <ele>690.5</ele>
        <time>2019-05-25T14:17:09Z</time>
      </trkpt>
      <trkpt lat="41.5347260" lon="-4.7589930">
        <ele>690.5</ele>
        <time>2019-05-25T14:17:10Z</time>
      </trkpt>
      <trkpt lat="41.5347510" lon="-4.7590320">
        <ele>690.4</ele>
        <time>2019-05-25T14:17:11Z</time>
      </trkpt>
      <trkpt lat="41.5347760" lon="-4.7590640">
        <ele>690.4</ele>
        <time>2019-05-25T14:17:12Z</time>
      </trkpt>
      <trkpt lat="41.5348060" lon="-4.7590910">
        <ele>690.4</ele>
        <time>2019-05-25T14:17:14Z</time>
      </trkpt>
      <trkpt lat="41.5348340" lon="-4.7591160">
        <ele>690.4</ele>
        <time>2019-05-25T14:17:16Z</time>
      </trkpt>
      <trkpt lat="41.5348640" lon="-4.7591680">
        <ele>690.4</ele>
        <time>2019-05-25T14:17:18Z</time>
      </trkpt>
      <trkpt lat="41.5348830" lon="-4.7592010">
        <ele>690.3</ele>
        <time>2019-05-25T14:17:19Z</time>
      </trkpt>
      <trkpt lat="41.5349030" lon="-4.7592380">
        <ele>690.3</ele>
        <time>2019-05-25T14:17:20Z</time>
      </trkpt>
      <trkpt lat="41.5349230" lon="-4.7592790">
        <ele>690.3</ele>
        <time>2019-05-25T14:17:21Z</time>
      </trkpt>
      <trkpt lat="41.5349420" lon="-4.7593210">
        <ele>690.3</ele>
        <time>2019-05-25T14:17:22Z</time>
      </trkpt>
      <trkpt lat="41.5349600" lon="-4.7593650">
        <ele>690.3</ele>
        <time>2019-05-25T14:17:23Z</time>
      </trkpt>
      <trkpt lat="41.5349720" lon="-4.7594000">
        <ele>690.2</ele>
        <time>2019-05-25T14:17:24Z</time>
      </trkpt>
      <trkpt lat="41.5349870" lon="-4.7594640">
        <ele>690.2</ele>
        <time>2019-05-25T14:17:26Z</time>
      </trkpt>
      <trkpt lat="41.5350020" lon="-4.7595570">
        <ele>690.2</ele>
        <time>2019-05-25T14:17:28Z</time>
      </trkpt>
      <trkpt lat="41.5350170" lon="-4.7596030">
        <ele>690.1</ele>
        <time>2019-05-25T14:17:29Z</time>
      </trkpt>
      <trkpt lat="41.5350560" lon="-4.7596240">
        <ele>690.1</ele>
        <time>2019-05-25T14:17:32Z</time>
      </trkpt>
      <trkpt lat="41.5350760" lon="-4.7596490">
        <ele>690.1</ele>
        <time>2019-05-25T14:17:34Z</time>
      </trkpt>
      <trkpt lat="41.5350940" lon="-4.7596790">
        <ele>690.1</ele>
        <time>2019-05-25T14:17:37Z</time>
      </trkpt>
      <trkpt lat="41.5350600" lon="-4.7596550">
        <ele>690.0</ele>
        <time>2019-05-25T14:17:44Z</time>
      </trkpt>
      <trkpt lat="41.5350410" lon="-4.7596270">
        <ele>690.0</ele>
        <time>2019-05-25T14:17:46Z</time>
      </trkpt>
      <trkpt lat="41.5350220" lon="-4.7595970">
        <ele>690.0</ele>
        <time>2019-05-25T14:17:48Z</time>
      </trkpt>
      <trkpt lat="41.5350020" lon="-4.7595640">
        <ele>690.0</ele>
        <time>2019-05-25T14:17:50Z</time>
      </trkpt>
      <trkpt lat="41.5349870" lon="-4.7595260">
        <ele>689.9</ele>
        <time>2019-05-25T14:17:52Z</time>
      </trkpt>
      <trkpt lat="41.5349700" lon="-4.7594880">
        <ele>689.9</ele>
        <time>2019-05-25T14:17:54Z</time>
      </trkpt>
      <trkpt lat="41.5349470" lon="-4.7594570">
        <ele>689.9</ele>
        <time>2019-05-25T14:17:56Z</time>
      </trkpt>
      <trkpt lat="41.5349190" lon="-4.7594340">
        <ele>689.8</ele>
        <time>2019-05-25T14:17:58Z</time>
      </trkpt>
      <trkpt lat="41.5348900" lon="-4.7594130">
        <ele>689.8</ele>
        <time>2019-05-25T14:18:00Z</time>
      </trkpt>
      <trkpt lat="41.5348660" lon="-4.7593850">
        <ele>689.8</ele>
        <time>2019-05-25T14:18:02Z</time>
      </trkpt>
      <trkpt lat="41.5348430" lon="-4.7593550">
        <ele>689.7</ele>
        <time>2019-05-25T14:18:04Z</time>
      </trkpt>
      <trkpt lat="41.5348160" lon="-4.7593360">
        <ele>689.7</ele>
        <time>2019-05-25T14:18:06Z</time>
      </trkpt>
      <trkpt lat="41.5347930" lon="-4.7593100">
        <ele>689.7</ele>
        <time>2019-05-25T14:18:08Z</time>
      </trkpt>
      <trkpt lat="41.5347860" lon="-4.7592720">
        <ele>689.7</ele>
        <time>2019-05-25T14:18:10Z</time>
      </trkpt>
      <trkpt lat="41.5350080" lon="-4.7592340">
        <ele>689.4</ele>
        <time>2019-05-25T14:18:13Z</time>
      </trkpt>
      <trkpt lat="41.5350350" lon="-4.7592310">
        <ele>689.4</ele>
        <time>2019-05-25T14:18:22Z</time>
      </trkpt>
      <trkpt lat="41.5350580" lon="-4.7592090">
        <ele>689.4</ele>
        <time>2019-05-25T14:18:33Z</time>
      </trkpt>
      <trkpt lat="41.5350630" lon="-4.7591690">
        <ele>689.3</ele>
        <time>2019-05-25T14:18:38Z</time>
      </trkpt>
      <trkpt lat="41.5350660" lon="-4.7591320">
        <ele>689.3</ele>
        <time>2019-05-25T14:18:43Z</time>
      </trkpt>
      <trkpt lat="41.5350910" lon="-4.7591650">
        <ele>689.3</ele>
        <time>2019-05-25T14:18:53Z</time>
      </trkpt>
      <trkpt lat="41.5351230" lon="-4.7591780">
        <ele>689.2</ele>
        <time>2019-05-25T14:18:55Z</time>
      </trkpt>
      <trkpt lat="41.5351490" lon="-4.7592170">
        <ele>689.2</ele>
        <time>2019-05-25T14:18:57Z</time>
      </trkpt>
      <trkpt lat="41.5351810" lon="-4.7592990">
        <ele>689.1</ele>
        <time>2019-05-25T14:18:59Z</time>
      </trkpt>
      <trkpt lat="41.5352090" lon="-4.7593710">
        <ele>689.0</ele>
        <time>2019-05-25T14:19:00Z</time>
      </trkpt>
      <trkpt lat="41.5352800" lon="-4.7595410">
        <ele>688.7</ele>
        <time>2019-05-25T14:19:01Z</time>
      </trkpt>
      <trkpt lat="41.5353120" lon="-4.7596170">
        <ele>688.6</ele>
        <time>2019-05-25T14:19:02Z</time>
      </trkpt>
      <trkpt lat="41.5353400" lon="-4.7596750">
        <ele>688.4</ele>
        <time>2019-05-25T14:19:03Z</time>
      </trkpt>
      <trkpt lat="41.5353750" lon="-4.7597450">
        <ele>688.3</ele>
        <time>2019-05-25T14:19:04Z</time>
      </trkpt>
      <trkpt lat="41.5353990" lon="-4.7598090">
        <ele>688.2</ele>
        <time>2019-05-25T14:19:05Z</time>
      </trkpt>
      <trkpt lat="41.5354250" lon="-4.7598670">
        <ele>688.1</ele>
        <time>2019-05-25T14:19:06Z</time>
      </trkpt>
      <trkpt lat="41.5354510" lon="-4.7599300">
        <ele>688.0</ele>
        <time>2019-05-25T14:19:07Z</time>
      </trkpt>
      <trkpt lat="41.5354770" lon="-4.7600020">
        <ele>688.1</ele>
        <time>2019-05-25T14:19:08Z</time>
      </trkpt>
      <trkpt lat="41.5355020" lon="-4.7600640">
        <ele>688.2</ele>
        <time>2019-05-25T14:19:09Z</time>
      </trkpt>
      <trkpt lat="41.5355240" lon="-4.7601460">
        <ele>688.3</ele>
        <time>2019-05-25T14:19:10Z</time>
      </trkpt>
      <trkpt lat="41.5355570" lon="-4.7602080">
        <ele>688.4</ele>
        <time>2019-05-25T14:19:11Z</time>
      </trkpt>
      <trkpt lat="41.5355850" lon="-4.7602780">
        <ele>688.5</ele>
        <time>2019-05-25T14:19:12Z</time>
      </trkpt>
      <trkpt lat="41.5356210" lon="-4.7603270">
        <ele>688.6</ele>
        <time>2019-05-25T14:19:13Z</time>
      </trkpt>
      <trkpt lat="41.5356480" lon="-4.7604290">
        <ele>688.8</ele>
        <time>2019-05-25T14:19:14Z</time>
      </trkpt>
      <trkpt lat="41.5356860" lon="-4.7605170">
        <ele>688.9</ele>
        <time>2019-05-25T14:19:15Z</time>
      </trkpt>
      <trkpt lat="41.5357210" lon="-4.7605840">
        <ele>689.0</ele>
        <time>2019-05-25T14:19:16Z</time>
      </trkpt>
      <trkpt lat="41.5357670" lon="-4.7606670">
        <ele>689.1</ele>
        <time>2019-05-25T14:19:17Z</time>
      </trkpt>
      <trkpt lat="41.5358050" lon="-4.7607840">
        <ele>689.1</ele>
        <time>2019-05-25T14:19:18Z</time>
      </trkpt>
      <trkpt lat="41.5358310" lon="-4.7608700">
        <ele>689.2</ele>
        <time>2019-05-25T14:19:19Z</time>
      </trkpt>
      <trkpt lat="41.5358690" lon="-4.7609430">
        <ele>689.2</ele>
        <time>2019-05-25T14:19:20Z</time>
      </trkpt>
      <trkpt lat="41.5359120" lon="-4.7610390">
        <ele>689.1</ele>
        <time>2019-05-25T14:19:21Z</time>
      </trkpt>
      <trkpt lat="41.5359500" lon="-4.7611210">
        <ele>689.0</ele>
        <time>2019-05-25T14:19:22Z</time>
      </trkpt>
      <trkpt lat="41.5359790" lon="-4.7612040">
        <ele>688.9</ele>
        <time>2019-05-25T14:19:23Z</time>
      </trkpt>
      <trkpt lat="41.5360120" lon="-4.7612790">
        <ele>688.7</ele>
        <time>2019-05-25T14:19:24Z</time>
      </trkpt>
      <trkpt lat="41.5360510" lon="-4.7613790">
        <ele>688.5</ele>
        <time>2019-05-25T14:19:25Z</time>
      </trkpt>
      <trkpt lat="41.5360880" lon="-4.7614650">
        <ele>688.3</ele>
        <time>2019-05-25T14:19:26Z</time>
      </trkpt>
      <trkpt lat="41.5361220" lon="-4.7615440">
        <ele>688.3</ele>
        <time>2019-05-25T14:19:27Z</time>
      </trkpt>
      <trkpt lat="41.5361620" lon="-4.7616330">
        <ele>688.2</ele>
        <time>2019-05-25T14:19:28Z</time>
      </trkpt>
      <trkpt lat="41.5361940" lon="-4.7617090">
        <ele>688.2</ele>
        <time>2019-05-25T14:19:29Z</time>
      </trkpt>
      <trkpt lat="41.5362300" lon="-4.7618020">
        <ele>688.1</ele>
        <time>2019-05-25T14:19:30Z</time>
      </trkpt>
      <trkpt lat="41.5362700" lon="-4.7618820">
        <ele>688.1</ele>
        <time>2019-05-25T14:19:31Z</time>
      </trkpt>
      <trkpt lat="41.5363110" lon="-4.7619670">
        <ele>688.1</ele>
        <time>2019-05-25T14:19:32Z</time>
      </trkpt>
      <trkpt lat="41.5363460" lon="-4.7620500">
        <ele>688.1</ele>
        <time>2019-05-25T14:19:33Z</time>
      </trkpt>
      <trkpt lat="41.5363720" lon="-4.7621280">
        <ele>688.2</ele>
        <time>2019-05-25T14:19:34Z</time>
      </trkpt>
      <trkpt lat="41.5364060" lon="-4.7622130">
        <ele>688.3</ele>
        <time>2019-05-25T14:19:35Z</time>
      </trkpt>
      <trkpt lat="41.5364380" lon="-4.7623030">
        <ele>688.4</ele>
        <time>2019-05-25T14:19:36Z</time>
      </trkpt>
      <trkpt lat="41.5364670" lon="-4.7623690">
        <ele>688.5</ele>
        <time>2019-05-25T14:19:37Z</time>
      </trkpt>
      <trkpt lat="41.5365010" lon="-4.7624450">
        <ele>688.6</ele>
        <time>2019-05-25T14:19:38Z</time>
      </trkpt>
      <trkpt lat="41.5365350" lon="-4.7625180">
        <ele>688.7</ele>
        <time>2019-05-25T14:19:39Z</time>
      </trkpt>
      <trkpt lat="41.5365610" lon="-4.7626110">
        <ele>688.8</ele>
        <time>2019-05-25T14:19:40Z</time>
      </trkpt>
      <trkpt lat="41.5365850" lon="-4.7626890">
        <ele>688.9</ele>
        <time>2019-05-25T14:19:41Z</time>
      </trkpt>
      <trkpt lat="41.5366060" lon="-4.7627600">
        <ele>689.0</ele>
        <time>2019-05-25T14:19:42Z</time>
      </trkpt>
      <trkpt lat="41.5366300" lon="-4.7628540">
        <ele>689.1</ele>
        <time>2019-05-25T14:19:43Z</time>
      </trkpt>
      <trkpt lat="41.5366570" lon="-4.7629320">
        <ele>689.2</ele>
        <time>2019-05-25T14:19:44Z</time>
      </trkpt>
      <trkpt lat="41.5366850" lon="-4.7630020">
        <ele>689.3</ele>
        <time>2019-05-25T14:19:45Z</time>
      </trkpt>
      <trkpt lat="41.5367240" lon="-4.7630880">
        <ele>689.5</ele>
        <time>2019-05-25T14:19:46Z</time>
      </trkpt>
      <trkpt lat="41.5367600" lon="-4.7632020">
        <ele>689.7</ele>
        <time>2019-05-25T14:19:47Z</time>
      </trkpt>
      <trkpt lat="41.5367880" lon="-4.7632850">
        <ele>689.9</ele>
        <time>2019-05-25T14:19:48Z</time>
      </trkpt>
      <trkpt lat="41.5368090" lon="-4.7633570">
        <ele>690.2</ele>
        <time>2019-05-25T14:19:49Z</time>
      </trkpt>
      <trkpt lat="41.5368390" lon="-4.7634400">
        <ele>690.5</ele>
        <time>2019-05-25T14:19:50Z</time>
      </trkpt>
      <trkpt lat="41.5368690" lon="-4.7635250">
        <ele>690.8</ele>
        <time>2019-05-25T14:19:51Z</time>
      </trkpt>
      <trkpt lat="41.5368980" lon="-4.7636340">
        <ele>691.1</ele>
        <time>2019-05-25T14:19:52Z</time>
      </trkpt>
      <trkpt lat="41.5369210" lon="-4.7637200">
        <ele>691.4</ele>
        <time>2019-05-25T14:19:53Z</time>
      </trkpt>
      <trkpt lat="41.5369410" lon="-4.7638080">
        <ele>691.7</ele>
        <time>2019-05-25T14:19:54Z</time>
      </trkpt>
      <trkpt lat="41.5369650" lon="-4.7638810">
        <ele>692.0</ele>
        <time>2019-05-25T14:19:55Z</time>
      </trkpt>
      <trkpt lat="41.5369840" lon="-4.7639560">
        <ele>692.3</ele>
        <time>2019-05-25T14:19:56Z</time>
      </trkpt>
      <trkpt lat="41.5370120" lon="-4.7640350">
        <ele>692.6</ele>
        <time>2019-05-25T14:19:57Z</time>
      </trkpt>
      <trkpt lat="41.5370380" lon="-4.7641250">
        <ele>692.9</ele>
        <time>2019-05-25T14:19:58Z</time>
      </trkpt>
      <trkpt lat="41.5370560" lon="-4.7641990">
        <ele>693.2</ele>
        <time>2019-05-25T14:19:59Z</time>
      </trkpt>
      <trkpt lat="41.5370820" lon="-4.7642800">
        <ele>693.5</ele>
        <time>2019-05-25T14:20:00Z</time>
      </trkpt>
      <trkpt lat="41.5371010" lon="-4.7643690">
        <ele>693.8</ele>
        <time>2019-05-25T14:20:01Z</time>
      </trkpt>
      <trkpt lat="41.5371260" lon="-4.7644600">
        <ele>694.2</ele>
        <time>2019-05-25T14:20:02Z</time>
      </trkpt>
      <trkpt lat="41.5371530" lon="-4.7645440">
        <ele>694.6</ele>
        <time>2019-05-25T14:20:03Z</time>
      </trkpt>
      <trkpt lat="41.5371780" lon="-4.7646320">
        <ele>695.0</ele>
        <time>2019-05-25T14:20:04Z</time>
      </trkpt>
      <trkpt lat="41.5371990" lon="-4.7647160">
        <ele>695.4</ele>
        <time>2019-05-25T14:20:05Z</time>
      </trkpt>
      <trkpt lat="41.5372240" lon="-4.7647880">
        <ele>695.6</ele>
        <time>2019-05-25T14:20:06Z</time>
      </trkpt>
      <trkpt lat="41.5372520" lon="-4.7648680">
        <ele>695.5</ele>
        <time>2019-05-25T14:20:07Z</time>
      </trkpt>
      <trkpt lat="41.5372810" lon="-4.7649420">
        <ele>695.2</ele>
        <time>2019-05-25T14:20:08Z</time>
      </trkpt>
      <trkpt lat="41.5372990" lon="-4.7650300">
        <ele>694.9</ele>
        <time>2019-05-25T14:20:09Z</time>
      </trkpt>
      <trkpt lat="41.5373150" lon="-4.7651170">
        <ele>694.6</ele>
        <time>2019-05-25T14:20:10Z</time>
      </trkpt>
      <trkpt lat="41.5373450" lon="-4.7652010">
        <ele>694.4</ele>
        <time>2019-05-25T14:20:11Z</time>
      </trkpt>
      <trkpt lat="41.5373730" lon="-4.7652870">
        <ele>694.2</ele>
        <time>2019-05-25T14:20:12Z</time>
      </trkpt>
      <trkpt lat="41.5373970" lon="-4.7653690">
        <ele>694.0</ele>
        <time>2019-05-25T14:20:13Z</time>
      </trkpt>
      <trkpt lat="41.5374260" lon="-4.7654530">
        <ele>694.0</ele>
        <time>2019-05-25T14:20:14Z</time>
      </trkpt>
      <trkpt lat="41.5374510" lon="-4.7655280">
        <ele>694.0</ele>
        <time>2019-05-25T14:20:15Z</time>
      </trkpt>
      <trkpt lat="41.5374760" lon="-4.7656090">
        <ele>694.1</ele>
        <time>2019-05-25T14:20:16Z</time>
      </trkpt>
      <trkpt lat="41.5374990" lon="-4.7656790">
        <ele>694.2</ele>
        <time>2019-05-25T14:20:17Z</time>
      </trkpt>
      <trkpt lat="41.5375190" lon="-4.7657530">
        <ele>694.4</ele>
        <time>2019-05-25T14:20:18Z</time>
      </trkpt>
      <trkpt lat="41.5375350" lon="-4.7658250">
        <ele>694.5</ele>
        <time>2019-05-25T14:20:19Z</time>
      </trkpt>
      <trkpt lat="41.5375570" lon="-4.7659020">
        <ele>694.7</ele>
        <time>2019-05-25T14:20:20Z</time>
      </trkpt>
      <trkpt lat="41.5375920" lon="-4.7659750">
        <ele>694.9</ele>
        <time>2019-05-25T14:20:21Z</time>
      </trkpt>
      <trkpt lat="41.5376110" lon="-4.7660610">
        <ele>695.1</ele>
        <time>2019-05-25T14:20:22Z</time>
      </trkpt>
      <trkpt lat="41.5376370" lon="-4.7661440">
        <ele>695.2</ele>
        <time>2019-05-25T14:20:23Z</time>
      </trkpt>
      <trkpt lat="41.5376630" lon="-4.7662260">
        <ele>695.3</ele>
        <time>2019-05-25T14:20:24Z</time>
      </trkpt>
      <trkpt lat="41.5376790" lon="-4.7663480">
        <ele>695.4</ele>
        <time>2019-05-25T14:20:25Z</time>
      </trkpt>
      <trkpt lat="41.5377070" lon="-4.7664290">
        <ele>695.4</ele>
        <time>2019-05-25T14:20:26Z</time>
      </trkpt>
      <trkpt lat="41.5377500" lon="-4.7664610">
        <ele>695.4</ele>
        <time>2019-05-25T14:20:27Z</time>
      </trkpt>
      <trkpt lat="41.5377750" lon="-4.7665340">
        <ele>695.3</ele>
        <time>2019-05-25T14:20:28Z</time>
      </trkpt>
      <trkpt lat="41.5378110" lon="-4.7666150">
        <ele>695.3</ele>
        <time>2019-05-25T14:20:29Z</time>
      </trkpt>
      <trkpt lat="41.5378380" lon="-4.7666700">
        <ele>695.2</ele>
        <time>2019-05-25T14:20:30Z</time>
      </trkpt>
      <trkpt lat="41.5378730" lon="-4.7667690">
        <ele>695.1</ele>
        <time>2019-05-25T14:20:31Z</time>
      </trkpt>
      <trkpt lat="41.5379060" lon="-4.7668040">
        <ele>695.1</ele>
        <time>2019-05-25T14:20:32Z</time>
      </trkpt>
      <trkpt lat="41.5379410" lon="-4.7669070">
        <ele>695.0</ele>
        <time>2019-05-25T14:20:33Z</time>
      </trkpt>
      <trkpt lat="41.5379560" lon="-4.7669880">
        <ele>694.9</ele>
        <time>2019-05-25T14:20:34Z</time>
      </trkpt>
      <trkpt lat="41.5379900" lon="-4.7670600">
        <ele>694.8</ele>
        <time>2019-05-25T14:20:35Z</time>
      </trkpt>
      <trkpt lat="41.5380150" lon="-4.7671220">
        <ele>694.7</ele>
        <time>2019-05-25T14:20:36Z</time>
      </trkpt>
      <trkpt lat="41.5380450" lon="-4.7671860">
        <ele>694.5</ele>
        <time>2019-05-25T14:20:37Z</time>
      </trkpt>
      <trkpt lat="41.5380840" lon="-4.7672670">
        <ele>694.4</ele>
        <time>2019-05-25T14:20:38Z</time>
      </trkpt>
      <trkpt lat="41.5381120" lon="-4.7673620">
        <ele>694.2</ele>
        <time>2019-05-25T14:20:39Z</time>
      </trkpt>
      <trkpt lat="41.5381420" lon="-4.7674420">
        <ele>694.0</ele>
        <time>2019-05-25T14:20:40Z</time>
      </trkpt>
      <trkpt lat="41.5381710" lon="-4.7675340">
        <ele>693.8</ele>
        <time>2019-05-25T14:20:41Z</time>
      </trkpt>
      <trkpt lat="41.5382040" lon="-4.7676000">
        <ele>693.6</ele>
        <time>2019-05-25T14:20:42Z</time>
      </trkpt>
      <trkpt lat="41.5382340" lon="-4.7676970">
        <ele>693.3</ele>
        <time>2019-05-25T14:20:43Z</time>
      </trkpt>
      <trkpt lat="41.5382690" lon="-4.7677780">
        <ele>693.1</ele>
        <time>2019-05-25T14:20:44Z</time>
      </trkpt>
      <trkpt lat="41.5383060" lon="-4.7678580">
        <ele>692.8</ele>
        <time>2019-05-25T14:20:45Z</time>
      </trkpt>
      <trkpt lat="41.5383440" lon="-4.7679300">
        <ele>692.6</ele>
        <time>2019-05-25T14:20:46Z</time>
      </trkpt>
      <trkpt lat="41.5383730" lon="-4.7679940">
        <ele>692.4</ele>
        <time>2019-05-25T14:20:47Z</time>
      </trkpt>
      <trkpt lat="41.5384060" lon="-4.7680720">
        <ele>692.3</ele>
        <time>2019-05-25T14:20:48Z</time>
      </trkpt>
      <trkpt lat="41.5384480" lon="-4.7681750">
        <ele>692.1</ele>
        <time>2019-05-25T14:20:49Z</time>
      </trkpt>
      <trkpt lat="41.5384850" lon="-4.7682510">
        <ele>691.9</ele>
        <time>2019-05-25T14:20:50Z</time>
      </trkpt>
      <trkpt lat="41.5385160" lon="-4.7683220">
        <ele>691.8</ele>
        <time>2019-05-25T14:20:51Z</time>
      </trkpt>
      <trkpt lat="41.5385490" lon="-4.7683880">
        <ele>691.6</ele>
        <time>2019-05-25T14:20:52Z</time>
      </trkpt>
      <trkpt lat="41.5385750" lon="-4.7684570">
        <ele>691.6</ele>
        <time>2019-05-25T14:20:53Z</time>
      </trkpt>
      <trkpt lat="41.5386050" lon="-4.7685200">
        <ele>691.5</ele>
        <time>2019-05-25T14:20:54Z</time>
      </trkpt>
      <trkpt lat="41.5386480" lon="-4.7686140">
        <ele>691.5</ele>
        <time>2019-05-25T14:20:55Z</time>
      </trkpt>
      <trkpt lat="41.5386810" lon="-4.7687000">
        <ele>691.6</ele>
        <time>2019-05-25T14:20:56Z</time>
      </trkpt>
      <trkpt lat="41.5387160" lon="-4.7687960">
        <ele>691.7</ele>
        <time>2019-05-25T14:20:57Z</time>
      </trkpt>
      <trkpt lat="41.5387390" lon="-4.7688680">
        <ele>691.8</ele>
        <time>2019-05-25T14:20:58Z</time>
      </trkpt>
      <trkpt lat="41.5387720" lon="-4.7689470">
        <ele>691.9</ele>
        <time>2019-05-25T14:20:59Z</time>
      </trkpt>
      <trkpt lat="41.5388030" lon="-4.7690100">
        <ele>692.0</ele>
        <time>2019-05-25T14:21:00Z</time>
      </trkpt>
      <trkpt lat="41.5388400" lon="-4.7690860">
        <ele>692.1</ele>
        <time>2019-05-25T14:21:01Z</time>
      </trkpt>
      <trkpt lat="41.5388620" lon="-4.7691570">
        <ele>692.2</ele>
        <time>2019-05-25T14:21:02Z</time>
      </trkpt>
      <trkpt lat="41.5388910" lon="-4.7692360">
        <ele>692.3</ele>
        <time>2019-05-25T14:21:03Z</time>
      </trkpt>
      <trkpt lat="41.5389230" lon="-4.7693060">
        <ele>692.3</ele>
        <time>2019-05-25T14:21:04Z</time>
      </trkpt>
      <trkpt lat="41.5389450" lon="-4.7693860">
        <ele>692.4</ele>
        <time>2019-05-25T14:21:05Z</time>
      </trkpt>
      <trkpt lat="41.5389680" lon="-4.7694580">
        <ele>692.4</ele>
        <time>2019-05-25T14:21:06Z</time>
      </trkpt>
      <trkpt lat="41.5389920" lon="-4.7695260">
        <ele>692.5</ele>
        <time>2019-05-25T14:21:07Z</time>
      </trkpt>
      <trkpt lat="41.5390260" lon="-4.7695970">
        <ele>692.6</ele>
        <time>2019-05-25T14:21:08Z</time>
      </trkpt>
      <trkpt lat="41.5390480" lon="-4.7696800">
        <ele>692.8</ele>
        <time>2019-05-25T14:21:09Z</time>
      </trkpt>
      <trkpt lat="41.5390770" lon="-4.7697500">
        <ele>693.0</ele>
        <time>2019-05-25T14:21:10Z</time>
      </trkpt>
      <trkpt lat="41.5390930" lon="-4.7698120">
        <ele>693.2</ele>
        <time>2019-05-25T14:21:11Z</time>
      </trkpt>
      <trkpt lat="41.5391240" lon="-4.7698810">
        <ele>693.4</ele>
        <time>2019-05-25T14:21:12Z</time>
      </trkpt>
      <trkpt lat="41.5391540" lon="-4.7699680">
        <ele>693.7</ele>
        <time>2019-05-25T14:21:13Z</time>
      </trkpt>
      <trkpt lat="41.5391830" lon="-4.7700720">
        <ele>693.9</ele>
        <time>2019-05-25T14:21:14Z</time>
      </trkpt>
      <trkpt lat="41.5391990" lon="-4.7701490">
        <ele>694.0</ele>
        <time>2019-05-25T14:21:15Z</time>
      </trkpt>
      <trkpt lat="41.5392210" lon="-4.7702540">
        <ele>694.0</ele>
        <time>2019-05-25T14:21:16Z</time>
      </trkpt>
      <trkpt lat="41.5392420" lon="-4.7703410">
        <ele>694.0</ele>
        <time>2019-05-25T14:21:17Z</time>
      </trkpt>
      <trkpt lat="41.5392610" lon="-4.7704160">
        <ele>694.0</ele>
        <time>2019-05-25T14:21:18Z</time>
      </trkpt>
      <trkpt lat="41.5392880" lon="-4.7705100">
        <ele>694.0</ele>
        <time>2019-05-25T14:21:19Z</time>
      </trkpt>
      <trkpt lat="41.5393090" lon="-4.7705910">
        <ele>694.0</ele>
        <time>2019-05-25T14:21:20Z</time>
      </trkpt>
      <trkpt lat="41.5393280" lon="-4.7706730">
        <ele>693.9</ele>
        <time>2019-05-25T14:21:21Z</time>
      </trkpt>
      <trkpt lat="41.5393370" lon="-4.7707670">
        <ele>693.8</ele>
        <time>2019-05-25T14:21:22Z</time>
      </trkpt>
      <trkpt lat="41.5393490" lon="-4.7708460">
        <ele>693.8</ele>
        <time>2019-05-25T14:21:23Z</time>
      </trkpt>
      <trkpt lat="41.5393620" lon="-4.7709230">
        <ele>693.8</ele>
        <time>2019-05-25T14:21:24Z</time>
      </trkpt>
      <trkpt lat="41.5393600" lon="-4.7710320">
        <ele>693.7</ele>
        <time>2019-05-25T14:21:25Z</time>
      </trkpt>
      <trkpt lat="41.5393820" lon="-4.7711340">
        <ele>693.7</ele>
        <time>2019-05-25T14:21:26Z</time>
      </trkpt>
      <trkpt lat="41.5394010" lon="-4.7712310">
        <ele>693.8</ele>
        <time>2019-05-25T14:21:27Z</time>
      </trkpt>
      <trkpt lat="41.5394140" lon="-4.7713050">
        <ele>693.8</ele>
        <time>2019-05-25T14:21:28Z</time>
      </trkpt>
      <trkpt lat="41.5394330" lon="-4.7713920">
        <ele>693.9</ele>
        <time>2019-05-25T14:21:29Z</time>
      </trkpt>
      <trkpt lat="41.5394550" lon="-4.7714520">
        <ele>693.9</ele>
        <time>2019-05-25T14:21:30Z</time>
      </trkpt>
      <trkpt lat="41.5394750" lon="-4.7715570">
        <ele>694.0</ele>
        <time>2019-05-25T14:21:31Z</time>
      </trkpt>
      <trkpt lat="41.5394910" lon="-4.7716320">
        <ele>694.0</ele>
        <time>2019-05-25T14:21:32Z</time>
      </trkpt>
      <trkpt lat="41.5395040" lon="-4.7717000">
        <ele>694.0</ele>
        <time>2019-05-25T14:21:33Z</time>
      </trkpt>
      <trkpt lat="41.5395160" lon="-4.7717790">
        <ele>694.1</ele>
        <time>2019-05-25T14:21:34Z</time>
      </trkpt>
      <trkpt lat="41.5395200" lon="-4.7718450">
        <ele>694.1</ele>
        <time>2019-05-25T14:21:35Z</time>
      </trkpt>
      <trkpt lat="41.5395380" lon="-4.7719420">
        <ele>694.2</ele>
        <time>2019-05-25T14:21:36Z</time>
      </trkpt>
      <trkpt lat="41.5395510" lon="-4.7720290">
        <ele>694.2</ele>
        <time>2019-05-25T14:21:37Z</time>
      </trkpt>
      <trkpt lat="41.5395690" lon="-4.7721170">
        <ele>694.2</ele>
        <time>2019-05-25T14:21:38Z</time>
      </trkpt>
      <trkpt lat="41.5395740" lon="-4.7721880">
        <ele>694.2</ele>
        <time>2019-05-25T14:21:39Z</time>
      </trkpt>
      <trkpt lat="41.5395800" lon="-4.7722640">
        <ele>694.2</ele>
        <time>2019-05-25T14:21:40Z</time>
      </trkpt>
      <trkpt lat="41.5395900" lon="-4.7723470">
        <ele>694.2</ele>
        <time>2019-05-25T14:21:41Z</time>
      </trkpt>
      <trkpt lat="41.5396110" lon="-4.7724320">
        <ele>694.2</ele>
        <time>2019-05-25T14:21:42Z</time>
      </trkpt>
      <trkpt lat="41.5396290" lon="-4.7725300">
        <ele>694.1</ele>
        <time>2019-05-25T14:21:43Z</time>
      </trkpt>
      <trkpt lat="41.5396400" lon="-4.7726130">
        <ele>694.1</ele>
        <time>2019-05-25T14:21:44Z</time>
      </trkpt>
      <trkpt lat="41.5396530" lon="-4.7726950">
        <ele>694.0</ele>
        <time>2019-05-25T14:21:45Z</time>
      </trkpt>
      <trkpt lat="41.5396870" lon="-4.7727900">
        <ele>693.8</ele>
        <time>2019-05-25T14:21:46Z</time>
      </trkpt>
      <trkpt lat="41.5397070" lon="-4.7728770">
        <ele>693.7</ele>
        <time>2019-05-25T14:21:47Z</time>
      </trkpt>
      <trkpt lat="41.5397280" lon="-4.7729430">
        <ele>693.6</ele>
        <time>2019-05-25T14:21:48Z</time>
      </trkpt>
      <trkpt lat="41.5397500" lon="-4.7730340">
        <ele>693.5</ele>
        <time>2019-05-25T14:21:49Z</time>
      </trkpt>
      <trkpt lat="41.5397550" lon="-4.7731010">
        <ele>693.4</ele>
        <time>2019-05-25T14:21:50Z</time>
      </trkpt>
      <trkpt lat="41.5397850" lon="-4.7731680">
        <ele>693.3</ele>
        <time>2019-05-25T14:21:51Z</time>
      </trkpt>
      <trkpt lat="41.5398070" lon="-4.7732770">
        <ele>693.2</ele>
        <time>2019-05-25T14:21:52Z</time>
      </trkpt>
      <trkpt lat="41.5398460" lon="-4.7733730">
        <ele>693.1</ele>
        <time>2019-05-25T14:21:53Z</time>
      </trkpt>
      <trkpt lat="41.5398640" lon="-4.7734310">
        <ele>693.0</ele>
        <time>2019-05-25T14:21:54Z</time>
      </trkpt>
      <trkpt lat="41.5398910" lon="-4.7734900">
        <ele>692.9</ele>
        <time>2019-05-25T14:21:55Z</time>
      </trkpt>
      <trkpt lat="41.5399240" lon="-4.7735630">
        <ele>692.7</ele>
        <time>2019-05-25T14:21:56Z</time>
      </trkpt>
      <trkpt lat="41.5399590" lon="-4.7736200">
        <ele>692.6</ele>
        <time>2019-05-25T14:21:57Z</time>
      </trkpt>
      <trkpt lat="41.5399890" lon="-4.7736910">
        <ele>692.4</ele>
        <time>2019-05-25T14:21:58Z</time>
      </trkpt>
      <trkpt lat="41.5400200" lon="-4.7737650">
        <ele>692.2</ele>
        <time>2019-05-25T14:21:59Z</time>
      </trkpt>
      <trkpt lat="41.5400550" lon="-4.7738170">
        <ele>692.1</ele>
        <time>2019-05-25T14:22:00Z</time>
      </trkpt>
      <trkpt lat="41.5400980" lon="-4.7739010">
        <ele>691.9</ele>
        <time>2019-05-25T14:22:01Z</time>
      </trkpt>
      <trkpt lat="41.5401350" lon="-4.7739800">
        <ele>691.8</ele>
        <time>2019-05-25T14:22:02Z</time>
      </trkpt>
      <trkpt lat="41.5401800" lon="-4.7740570">
        <ele>691.6</ele>
        <time>2019-05-25T14:22:03Z</time>
      </trkpt>
      <trkpt lat="41.5402190" lon="-4.7741020">
        <ele>691.6</ele>
        <time>2019-05-25T14:22:04Z</time>
      </trkpt>
      <trkpt lat="41.5402600" lon="-4.7741540">
        <ele>691.6</ele>
        <time>2019-05-25T14:22:05Z</time>
      </trkpt>
      <trkpt lat="41.5403050" lon="-4.7742020">
        <ele>691.5</ele>
        <time>2019-05-25T14:22:06Z</time>
      </trkpt>
      <trkpt lat="41.5403460" lon="-4.7742590">
        <ele>691.4</ele>
        <time>2019-05-25T14:22:07Z</time>
      </trkpt>
      <trkpt lat="41.5403860" lon="-4.7743140">
        <ele>691.4</ele>
        <time>2019-05-25T14:22:08Z</time>
      </trkpt>
      <trkpt lat="41.5404230" lon="-4.7743790">
        <ele>691.3</ele>
        <time>2019-05-25T14:22:09Z</time>
      </trkpt>
      <trkpt lat="41.5404720" lon="-4.7744350">
        <ele>691.3</ele>
        <time>2019-05-25T14:22:10Z</time>
      </trkpt>
      <trkpt lat="41.5405090" lon="-4.7744960">
        <ele>691.2</ele>
        <time>2019-05-25T14:22:11Z</time>
      </trkpt>
      <trkpt lat="41.5405540" lon="-4.7745630">
        <ele>691.1</ele>
        <time>2019-05-25T14:22:12Z</time>
      </trkpt>
      <trkpt lat="41.5405930" lon="-4.7746430">
        <ele>691.0</ele>
        <time>2019-05-25T14:22:13Z</time>
      </trkpt>
      <trkpt lat="41.5406270" lon="-4.7747020">
        <ele>690.9</ele>
        <time>2019-05-25T14:22:14Z</time>
      </trkpt>
      <trkpt lat="41.5406710" lon="-4.7747430">
        <ele>690.8</ele>
        <time>2019-05-25T14:22:15Z</time>
      </trkpt>
      <trkpt lat="41.5407100" lon="-4.7748320">
        <ele>690.7</ele>
        <time>2019-05-25T14:22:16Z</time>
      </trkpt>
      <trkpt lat="41.5407550" lon="-4.7748810">
        <ele>690.6</ele>
        <time>2019-05-25T14:22:17Z</time>
      </trkpt>
      <trkpt lat="41.5407930" lon="-4.7749400">
        <ele>690.5</ele>
        <time>2019-05-25T14:22:18Z</time>
      </trkpt>
      <trkpt lat="41.5408350" lon="-4.7750260">
        <ele>690.4</ele>
        <time>2019-05-25T14:22:19Z</time>
      </trkpt>
      <trkpt lat="41.5408630" lon="-4.7750990">
        <ele>690.4</ele>
        <time>2019-05-25T14:22:20Z</time>
      </trkpt>
      <trkpt lat="41.5409040" lon="-4.7751330">
        <ele>690.4</ele>
        <time>2019-05-25T14:22:21Z</time>
      </trkpt>
      <trkpt lat="41.5409460" lon="-4.7752020">
        <ele>690.4</ele>
        <time>2019-05-25T14:22:22Z</time>
      </trkpt>
      <trkpt lat="41.5409850" lon="-4.7752780">
        <ele>690.5</ele>
        <time>2019-05-25T14:22:23Z</time>
      </trkpt>
      <trkpt lat="41.5410230" lon="-4.7753190">
        <ele>690.5</ele>
        <time>2019-05-25T14:22:24Z</time>
      </trkpt>
      <trkpt lat="41.5410610" lon="-4.7753790">
        <ele>690.5</ele>
        <time>2019-05-25T14:22:25Z</time>
      </trkpt>
      <trkpt lat="41.5411070" lon="-4.7754310">
        <ele>690.5</ele>
        <time>2019-05-25T14:22:26Z</time>
      </trkpt>
      <trkpt lat="41.5411640" lon="-4.7755040">
        <ele>690.5</ele>
        <time>2019-05-25T14:22:27Z</time>
      </trkpt>
      <trkpt lat="41.5412080" lon="-4.7755550">
        <ele>690.5</ele>
        <time>2019-05-25T14:22:28Z</time>
      </trkpt>
      <trkpt lat="41.5412430" lon="-4.7756190">
        <ele>690.5</ele>
        <time>2019-05-25T14:22:29Z</time>
      </trkpt>
      <trkpt lat="41.5412870" lon="-4.7756880">
        <ele>690.5</ele>
        <time>2019-05-25T14:22:30Z</time>
      </trkpt>
      <trkpt lat="41.5413270" lon="-4.7757380">
        <ele>690.4</ele>
        <time>2019-05-25T14:22:31Z</time>
      </trkpt>
      <trkpt lat="41.5413590" lon="-4.7758080">
        <ele>690.4</ele>
        <time>2019-05-25T14:22:32Z</time>
      </trkpt>
      <trkpt lat="41.5414050" lon="-4.7758630">
        <ele>690.3</ele>
        <time>2019-05-25T14:22:33Z</time>
      </trkpt>
      <trkpt lat="41.5414290" lon="-4.7759270">
        <ele>690.2</ele>
        <time>2019-05-25T14:22:34Z</time>
      </trkpt>
      <trkpt lat="41.5414580" lon="-4.7759820">
        <ele>690.1</ele>
        <time>2019-05-25T14:22:35Z</time>
      </trkpt>
      <trkpt lat="41.5414990" lon="-4.7760520">
        <ele>690.0</ele>
        <time>2019-05-25T14:22:36Z</time>
      </trkpt>
      <trkpt lat="41.5415390" lon="-4.7761120">
        <ele>689.8</ele>
        <time>2019-05-25T14:22:37Z</time>
      </trkpt>
      <trkpt lat="41.5415710" lon="-4.7761560">
        <ele>689.7</ele>
        <time>2019-05-25T14:22:38Z</time>
      </trkpt>
      <trkpt lat="41.5415900" lon="-4.7762080">
        <ele>689.6</ele>
        <time>2019-05-25T14:22:39Z</time>
      </trkpt>
      <trkpt lat="41.5416260" lon="-4.7762720">
        <ele>689.4</ele>
        <time>2019-05-25T14:22:40Z</time>
      </trkpt>
      <trkpt lat="41.5416610" lon="-4.7763340">
        <ele>689.3</ele>
        <time>2019-05-25T14:22:41Z</time>
      </trkpt>
      <trkpt lat="41.5417270" lon="-4.7763930">
        <ele>689.1</ele>
        <time>2019-05-25T14:22:42Z</time>
      </trkpt>
      <trkpt lat="41.5417710" lon="-4.7764490">
        <ele>689.0</ele>
        <time>2019-05-25T14:22:43Z</time>
      </trkpt>
      <trkpt lat="41.5418200" lon="-4.7765200">
        <ele>689.0</ele>
        <time>2019-05-25T14:22:44Z</time>
      </trkpt>
      <trkpt lat="41.5418570" lon="-4.7765860">
        <ele>689.0</ele>
        <time>2019-05-25T14:22:45Z</time>
      </trkpt>
      <trkpt lat="41.5419050" lon="-4.7766550">
        <ele>689.0</ele>
        <time>2019-05-25T14:22:46Z</time>
      </trkpt>
      <trkpt lat="41.5419360" lon="-4.7767220">
        <ele>689.0</ele>
        <time>2019-05-25T14:22:47Z</time>
      </trkpt>
      <trkpt lat="41.5419910" lon="-4.7767890">
        <ele>689.0</ele>
        <time>2019-05-25T14:22:48Z</time>
      </trkpt>
      <trkpt lat="41.5420260" lon="-4.7768410">
        <ele>689.0</ele>
        <time>2019-05-25T14:22:49Z</time>
      </trkpt>
      <trkpt lat="41.5420600" lon="-4.7769060">
        <ele>689.1</ele>
        <time>2019-05-25T14:22:50Z</time>
      </trkpt>
      <trkpt lat="41.5421090" lon="-4.7769690">
        <ele>689.2</ele>
        <time>2019-05-25T14:22:51Z</time>
      </trkpt>
      <trkpt lat="41.5421450" lon="-4.7770410">
        <ele>689.2</ele>
        <time>2019-05-25T14:22:52Z</time>
      </trkpt>
      <trkpt lat="41.5421840" lon="-4.7771040">
        <ele>689.3</ele>
        <time>2019-05-25T14:22:53Z</time>
      </trkpt>
      <trkpt lat="41.5422240" lon="-4.7771710">
        <ele>689.2</ele>
        <time>2019-05-25T14:22:54Z</time>
      </trkpt>
      <trkpt lat="41.5422660" lon="-4.7772290">
        <ele>689.1</ele>
        <time>2019-05-25T14:22:55Z</time>
      </trkpt>
      <trkpt lat="41.5422970" lon="-4.7773150">
        <ele>689.0</ele>
        <time>2019-05-25T14:22:56Z</time>
      </trkpt>
      <trkpt lat="41.5423360" lon="-4.7773640">
        <ele>688.9</ele>
        <time>2019-05-25T14:22:57Z</time>
      </trkpt>
      <trkpt lat="41.5423760" lon="-4.7774250">
        <ele>688.7</ele>
        <time>2019-05-25T14:22:58Z</time>
      </trkpt>
      <trkpt lat="41.5424030" lon="-4.7774990">
        <ele>688.6</ele>
        <time>2019-05-25T14:22:59Z</time>
      </trkpt>
      <trkpt lat="41.5424420" lon="-4.7775440">
        <ele>688.5</ele>
        <time>2019-05-25T14:23:00Z</time>
      </trkpt>
      <trkpt lat="41.5424740" lon="-4.7775910">
        <ele>688.4</ele>
        <time>2019-05-25T14:23:01Z</time>
      </trkpt>
      <trkpt lat="41.5424930" lon="-4.7776720">
        <ele>688.3</ele>
        <time>2019-05-25T14:23:02Z</time>
      </trkpt>
      <trkpt lat="41.5425020" lon="-4.7777590">
        <ele>688.2</ele>
        <time>2019-05-25T14:23:03Z</time>
      </trkpt>
      <trkpt lat="41.5425420" lon="-4.7778890">
        <ele>688.1</ele>
        <time>2019-05-25T14:23:04Z</time>
      </trkpt>
      <trkpt lat="41.5425540" lon="-4.7779590">
        <ele>688.1</ele>
        <time>2019-05-25T14:23:05Z</time>
      </trkpt>
      <trkpt lat="41.5425920" lon="-4.7780580">
        <ele>688.1</ele>
        <time>2019-05-25T14:23:06Z</time>
      </trkpt>
      <trkpt lat="41.5426280" lon="-4.7781520">
        <ele>688.1</ele>
        <time>2019-05-25T14:23:07Z</time>
      </trkpt>
      <trkpt lat="41.5426460" lon="-4.7782350">
        <ele>688.2</ele>
        <time>2019-05-25T14:23:08Z</time>
      </trkpt>
      <trkpt lat="41.5426800" lon="-4.7782920">
        <ele>688.2</ele>
        <time>2019-05-25T14:23:09Z</time>
      </trkpt>
      <trkpt lat="41.5427110" lon="-4.7783610">
        <ele>688.2</ele>
        <time>2019-05-25T14:23:10Z</time>
      </trkpt>
      <trkpt lat="41.5427610" lon="-4.7784740">
        <ele>688.3</ele>
        <time>2019-05-25T14:23:11Z</time>
      </trkpt>
      <trkpt lat="41.5427860" lon="-4.7785050">
        <ele>688.3</ele>
        <time>2019-05-25T14:23:12Z</time>
      </trkpt>
      <trkpt lat="41.5428260" lon="-4.7785750">
        <ele>688.4</ele>
        <time>2019-05-25T14:23:14Z</time>
      </trkpt>
      <trkpt lat="41.5428450" lon="-4.7787140">
        <ele>688.4</ele>
        <time>2019-05-25T14:23:15Z</time>
      </trkpt>
      <trkpt lat="41.5428960" lon="-4.7787470">
        <ele>688.3</ele>
        <time>2019-05-25T14:23:16Z</time>
      </trkpt>
      <trkpt lat="41.5428980" lon="-4.7787880">
        <ele>688.3</ele>
        <time>2019-05-25T14:23:17Z</time>
      </trkpt>
      <trkpt lat="41.5429340" lon="-4.7788450">
        <ele>688.3</ele>
        <time>2019-05-25T14:23:18Z</time>
      </trkpt>
      <trkpt lat="41.5429950" lon="-4.7789930">
        <ele>688.2</ele>
        <time>2019-05-25T14:23:19Z</time>
      </trkpt>
      <trkpt lat="41.5430140" lon="-4.7790290">
        <ele>688.2</ele>
        <time>2019-05-25T14:23:20Z</time>
      </trkpt>
      <trkpt lat="41.5430410" lon="-4.7791390">
        <ele>688.1</ele>
        <time>2019-05-25T14:23:21Z</time>
      </trkpt>
      <trkpt lat="41.5431000" lon="-4.7792410">
        <ele>688.2</ele>
        <time>2019-05-25T14:23:22Z</time>
      </trkpt>
      <trkpt lat="41.5431180" lon="-4.7792920">
        <ele>688.2</ele>
        <time>2019-05-25T14:23:23Z</time>
      </trkpt>
      <trkpt lat="41.5431540" lon="-4.7793800">
        <ele>688.2</ele>
        <time>2019-05-25T14:23:24Z</time>
      </trkpt>
      <trkpt lat="41.5431730" lon="-4.7794120">
        <ele>688.2</ele>
        <time>2019-05-25T14:23:25Z</time>
      </trkpt>
      <trkpt lat="41.5431880" lon="-4.7794670">
        <ele>688.2</ele>
        <time>2019-05-25T14:23:26Z</time>
      </trkpt>
      <trkpt lat="41.5432250" lon="-4.7795510">
        <ele>688.2</ele>
        <time>2019-05-25T14:23:27Z</time>
      </trkpt>
      <trkpt lat="41.5432720" lon="-4.7796350">
        <ele>688.3</ele>
        <time>2019-05-25T14:23:28Z</time>
      </trkpt>
      <trkpt lat="41.5433080" lon="-4.7796810">
        <ele>688.3</ele>
        <time>2019-05-25T14:23:29Z</time>
      </trkpt>
      <trkpt lat="41.5433570" lon="-4.7797880">
        <ele>688.3</ele>
        <time>2019-05-25T14:23:30Z</time>
      </trkpt>
      <trkpt lat="41.5433830" lon="-4.7798390">
        <ele>688.3</ele>
        <time>2019-05-25T14:23:31Z</time>
      </trkpt>
      <trkpt lat="41.5434120" lon="-4.7799210">
        <ele>688.3</ele>
        <time>2019-05-25T14:23:32Z</time>
      </trkpt>
      <trkpt lat="41.5434420" lon="-4.7799840">
        <ele>688.4</ele>
        <time>2019-05-25T14:23:33Z</time>
      </trkpt>
      <trkpt lat="41.5434750" lon="-4.7800490">
        <ele>688.4</ele>
        <time>2019-05-25T14:23:34Z</time>
      </trkpt>
      <trkpt lat="41.5435070" lon="-4.7800910">
        <ele>688.5</ele>
        <time>2019-05-25T14:23:35Z</time>
      </trkpt>
      <trkpt lat="41.5435330" lon="-4.7801460">
        <ele>688.5</ele>
        <time>2019-05-25T14:23:36Z</time>
      </trkpt>
      <trkpt lat="41.5435680" lon="-4.7802140">
        <ele>688.5</ele>
        <time>2019-05-25T14:23:37Z</time>
      </trkpt>
      <trkpt lat="41.5436050" lon="-4.7802650">
        <ele>688.6</ele>
        <time>2019-05-25T14:23:38Z</time>
      </trkpt>
      <trkpt lat="41.5436500" lon="-4.7803450">
        <ele>688.7</ele>
        <time>2019-05-25T14:23:39Z</time>
      </trkpt>
      <trkpt lat="41.5437060" lon="-4.7804440">
        <ele>688.8</ele>
        <time>2019-05-25T14:23:40Z</time>
      </trkpt>
      <trkpt lat="41.5437490" lon="-4.7805180">
        <ele>688.9</ele>
        <time>2019-05-25T14:23:41Z</time>
      </trkpt>
      <trkpt lat="41.5437820" lon="-4.7805580">
        <ele>688.9</ele>
        <time>2019-05-25T14:23:42Z</time>
      </trkpt>
      <trkpt lat="41.5438180" lon="-4.7806490">
        <ele>689.0</ele>
        <time>2019-05-25T14:23:43Z</time>
      </trkpt>
      <trkpt lat="41.5438610" lon="-4.7806710">
        <ele>689.0</ele>
        <time>2019-05-25T14:23:44Z</time>
      </trkpt>
      <trkpt lat="41.5438990" lon="-4.7807600">
        <ele>689.1</ele>
        <time>2019-05-25T14:23:45Z</time>
      </trkpt>
      <trkpt lat="41.5439430" lon="-4.7808430">
        <ele>688.9</ele>
        <time>2019-05-25T14:23:46Z</time>
      </trkpt>
      <trkpt lat="41.5439780" lon="-4.7809060">
        <ele>688.9</ele>
        <time>2019-05-25T14:23:47Z</time>
      </trkpt>
      <trkpt lat="41.5440100" lon="-4.7809470">
        <ele>688.9</ele>
        <time>2019-05-25T14:23:48Z</time>
      </trkpt>
      <trkpt lat="41.5440550" lon="-4.7810080">
        <ele>688.8</ele>
        <time>2019-05-25T14:23:49Z</time>
      </trkpt>
      <trkpt lat="41.5440990" lon="-4.7810630">
        <ele>688.8</ele>
        <time>2019-05-25T14:23:50Z</time>
      </trkpt>
      <trkpt lat="41.5441380" lon="-4.7811270">
        <ele>688.7</ele>
        <time>2019-05-25T14:23:51Z</time>
      </trkpt>
      <trkpt lat="41.5441710" lon="-4.7811750">
        <ele>688.7</ele>
        <time>2019-05-25T14:23:52Z</time>
      </trkpt>
      <trkpt lat="41.5442100" lon="-4.7812420">
        <ele>688.7</ele>
        <time>2019-05-25T14:23:53Z</time>
      </trkpt>
      <trkpt lat="41.5442700" lon="-4.7813090">
        <ele>688.6</ele>
        <time>2019-05-25T14:23:54Z</time>
      </trkpt>
      <trkpt lat="41.5443000" lon="-4.7813800">
        <ele>688.5</ele>
        <time>2019-05-25T14:23:55Z</time>
      </trkpt>
      <trkpt lat="41.5443680" lon="-4.7814130">
        <ele>688.4</ele>
        <time>2019-05-25T14:23:56Z</time>
      </trkpt>
      <trkpt lat="41.5443930" lon="-4.7814820">
        <ele>688.4</ele>
        <time>2019-05-25T14:23:57Z</time>
      </trkpt>
      <trkpt lat="41.5444090" lon="-4.7815430">
        <ele>688.3</ele>
        <time>2019-05-25T14:23:58Z</time>
      </trkpt>
      <trkpt lat="41.5444510" lon="-4.7816180">
        <ele>688.2</ele>
        <time>2019-05-25T14:23:59Z</time>
      </trkpt>
      <trkpt lat="41.5444940" lon="-4.7817110">
        <ele>688.0</ele>
        <time>2019-05-25T14:24:00Z</time>
      </trkpt>
      <trkpt lat="41.5445340" lon="-4.7817640">
        <ele>688.0</ele>
        <time>2019-05-25T14:24:01Z</time>
      </trkpt>
      <trkpt lat="41.5445580" lon="-4.7818250">
        <ele>687.9</ele>
        <time>2019-05-25T14:24:02Z</time>
      </trkpt>
      <trkpt lat="41.5445990" lon="-4.7819140">
        <ele>687.8</ele>
        <time>2019-05-25T14:24:03Z</time>
      </trkpt>
      <trkpt lat="41.5446370" lon="-4.7819710">
        <ele>687.7</ele>
        <time>2019-05-25T14:24:04Z</time>
      </trkpt>
      <trkpt lat="41.5446790" lon="-4.7820300">
        <ele>687.6</ele>
        <time>2019-05-25T14:24:05Z</time>
      </trkpt>
      <trkpt lat="41.5447170" lon="-4.7821120">
        <ele>687.5</ele>
        <time>2019-05-25T14:24:06Z</time>
      </trkpt>
      <trkpt lat="41.5447520" lon="-4.7821720">
        <ele>687.5</ele>
        <time>2019-05-25T14:24:07Z</time>
      </trkpt>
      <trkpt lat="41.5447950" lon="-4.7822330">
        <ele>687.5</ele>
        <time>2019-05-25T14:24:08Z</time>
      </trkpt>
      <trkpt lat="41.5448350" lon="-4.7822930">
        <ele>687.5</ele>
        <time>2019-05-25T14:24:09Z</time>
      </trkpt>
      <trkpt lat="41.5448820" lon="-4.7823680">
        <ele>687.5</ele>
        <time>2019-05-25T14:24:10Z</time>
      </trkpt>
      <trkpt lat="41.5449290" lon="-4.7824230">
        <ele>687.5</ele>
        <time>2019-05-25T14:24:11Z</time>
      </trkpt>
      <trkpt lat="41.5449700" lon="-4.7824680">
        <ele>687.5</ele>
        <time>2019-05-25T14:24:12Z</time>
      </trkpt>
      <trkpt lat="41.5450110" lon="-4.7825180">
        <ele>687.5</ele>
        <time>2019-05-25T14:24:13Z</time>
      </trkpt>
      <trkpt lat="41.5450440" lon="-4.7825540">
        <ele>687.5</ele>
        <time>2019-05-25T14:24:14Z</time>
      </trkpt>
      <trkpt lat="41.5450960" lon="-4.7826330">
        <ele>687.5</ele>
        <time>2019-05-25T14:24:15Z</time>
      </trkpt>
      <trkpt lat="41.5451470" lon="-4.7826980">
        <ele>687.6</ele>
        <time>2019-05-25T14:24:16Z</time>
      </trkpt>
      <trkpt lat="41.5452010" lon="-4.7827500">
        <ele>687.6</ele>
        <time>2019-05-25T14:24:17Z</time>
      </trkpt>
      <trkpt lat="41.5452370" lon="-4.7828040">
        <ele>687.6</ele>
        <time>2019-05-25T14:24:18Z</time>
      </trkpt>
      <trkpt lat="41.5452720" lon="-4.7828660">
        <ele>687.6</ele>
        <time>2019-05-25T14:24:19Z</time>
      </trkpt>
      <trkpt lat="41.5453190" lon="-4.7829350">
        <ele>687.6</ele>
        <time>2019-05-25T14:24:20Z</time>
      </trkpt>
      <trkpt lat="41.5453670" lon="-4.7830140">
        <ele>687.6</ele>
        <time>2019-05-25T14:24:21Z</time>
      </trkpt>
      <trkpt lat="41.5454010" lon="-4.7830710">
        <ele>687.6</ele>
        <time>2019-05-25T14:24:22Z</time>
      </trkpt>
      <trkpt lat="41.5454450" lon="-4.7831460">
        <ele>687.6</ele>
        <time>2019-05-25T14:24:23Z</time>
      </trkpt>
      <trkpt lat="41.5454810" lon="-4.7832210">
        <ele>687.6</ele>
        <time>2019-05-25T14:24:24Z</time>
      </trkpt>
      <trkpt lat="41.5455210" lon="-4.7832520">
        <ele>687.6</ele>
        <time>2019-05-25T14:24:25Z</time>
      </trkpt>
      <trkpt lat="41.5455900" lon="-4.7833060">
        <ele>687.6</ele>
        <time>2019-05-25T14:24:26Z</time>
      </trkpt>
      <trkpt lat="41.5456190" lon="-4.7833610">
        <ele>687.6</ele>
        <time>2019-05-25T14:24:27Z</time>
      </trkpt>
      <trkpt lat="41.5456470" lon="-4.7834310">
        <ele>687.6</ele>
        <time>2019-05-25T14:24:28Z</time>
      </trkpt>
      <trkpt lat="41.5456960" lon="-4.7835300">
        <ele>687.5</ele>
        <time>2019-05-25T14:24:29Z</time>
      </trkpt>
      <trkpt lat="41.5457380" lon="-4.7835720">
        <ele>687.5</ele>
        <time>2019-05-25T14:24:30Z</time>
      </trkpt>
      <trkpt lat="41.5457720" lon="-4.7836530">
        <ele>687.5</ele>
        <time>2019-05-25T14:24:31Z</time>
      </trkpt>
      <trkpt lat="41.5458110" lon="-4.7836880">
        <ele>687.5</ele>
        <time>2019-05-25T14:24:32Z</time>
      </trkpt>
      <trkpt lat="41.5458450" lon="-4.7837210">
        <ele>687.5</ele>
        <time>2019-05-25T14:24:33Z</time>
      </trkpt>
      <trkpt lat="41.5458810" lon="-4.7837710">
        <ele>687.5</ele>
        <time>2019-05-25T14:24:34Z</time>
      </trkpt>
      <trkpt lat="41.5459360" lon="-4.7838220">
        <ele>687.5</ele>
        <time>2019-05-25T14:24:35Z</time>
      </trkpt>
      <trkpt lat="41.5459850" lon="-4.7838910">
        <ele>687.4</ele>
        <time>2019-05-25T14:24:36Z</time>
      </trkpt>
      <trkpt lat="41.5460280" lon="-4.7839790">
        <ele>687.4</ele>
        <time>2019-05-25T14:24:37Z</time>
      </trkpt>
      <trkpt lat="41.5460580" lon="-4.7840070">
        <ele>687.4</ele>
        <time>2019-05-25T14:24:38Z</time>
      </trkpt>
      <trkpt lat="41.5460950" lon="-4.7840840">
        <ele>687.4</ele>
        <time>2019-05-25T14:24:39Z</time>
      </trkpt>
      <trkpt lat="41.5461520" lon="-4.7841430">
        <ele>687.4</ele>
        <time>2019-05-25T14:24:40Z</time>
      </trkpt>
      <trkpt lat="41.5461920" lon="-4.7842000">
        <ele>687.4</ele>
        <time>2019-05-25T14:24:41Z</time>
      </trkpt>
      <trkpt lat="41.5462410" lon="-4.7842790">
        <ele>687.3</ele>
        <time>2019-05-25T14:24:42Z</time>
      </trkpt>
      <trkpt lat="41.5462880" lon="-4.7843250">
        <ele>687.3</ele>
        <time>2019-05-25T14:24:43Z</time>
      </trkpt>
      <trkpt lat="41.5463360" lon="-4.7843860">
        <ele>687.3</ele>
        <time>2019-05-25T14:24:44Z</time>
      </trkpt>
      <trkpt lat="41.5463660" lon="-4.7844340">
        <ele>687.3</ele>
        <time>2019-05-25T14:24:45Z</time>
      </trkpt>
      <trkpt lat="41.5464030" lon="-4.7844740">
        <ele>687.3</ele>
        <time>2019-05-25T14:24:46Z</time>
      </trkpt>
      <trkpt lat="41.5464540" lon="-4.7845220">
        <ele>687.3</ele>
        <time>2019-05-25T14:24:47Z</time>
      </trkpt>
      <trkpt lat="41.5465090" lon="-4.7845990">
        <ele>687.3</ele>
        <time>2019-05-25T14:24:48Z</time>
      </trkpt>
      <trkpt lat="41.5465440" lon="-4.7846450">
        <ele>687.3</ele>
        <time>2019-05-25T14:24:49Z</time>
      </trkpt>
      <trkpt lat="41.5465830" lon="-4.7846870">
        <ele>687.3</ele>
        <time>2019-05-25T14:24:50Z</time>
      </trkpt>
      <trkpt lat="41.5466170" lon="-4.7847480">
        <ele>687.3</ele>
        <time>2019-05-25T14:24:51Z</time>
      </trkpt>
      <trkpt lat="41.5466710" lon="-4.7847730">
        <ele>687.3</ele>
        <time>2019-05-25T14:24:52Z</time>
      </trkpt>
      <trkpt lat="41.5467110" lon="-4.7848450">
        <ele>687.3</ele>
        <time>2019-05-25T14:24:53Z</time>
      </trkpt>
      <trkpt lat="41.5467580" lon="-4.7848940">
        <ele>687.3</ele>
        <time>2019-05-25T14:24:54Z</time>
      </trkpt>
      <trkpt lat="41.5467990" lon="-4.7849660">
        <ele>687.3</ele>
        <time>2019-05-25T14:24:55Z</time>
      </trkpt>
      <trkpt lat="41.5468570" lon="-4.7850240">
        <ele>687.3</ele>
        <time>2019-05-25T14:24:56Z</time>
      </trkpt>
      <trkpt lat="41.5469150" lon="-4.7850840">
        <ele>687.3</ele>
        <time>2019-05-25T14:24:57Z</time>
      </trkpt>
      <trkpt lat="41.5469750" lon="-4.7851440">
        <ele>687.3</ele>
        <time>2019-05-25T14:24:58Z</time>
      </trkpt>
      <trkpt lat="41.5470190" lon="-4.7852000">
        <ele>687.3</ele>
        <time>2019-05-25T14:24:59Z</time>
      </trkpt>
      <trkpt lat="41.5470620" lon="-4.7852490">
        <ele>687.2</ele>
        <time>2019-05-25T14:25:00Z</time>
      </trkpt>
      <trkpt lat="41.5470970" lon="-4.7852930">
        <ele>687.2</ele>
        <time>2019-05-25T14:25:01Z</time>
      </trkpt>
      <trkpt lat="41.5471320" lon="-4.7853640">
        <ele>687.1</ele>
        <time>2019-05-25T14:25:02Z</time>
      </trkpt>
      <trkpt lat="41.5471750" lon="-4.7854200">
        <ele>687.0</ele>
        <time>2019-05-25T14:25:03Z</time>
      </trkpt>
      <trkpt lat="41.5472240" lon="-4.7854850">
        <ele>686.9</ele>
        <time>2019-05-25T14:25:04Z</time>
      </trkpt>
      <trkpt lat="41.5472610" lon="-4.7855330">
        <ele>686.9</ele>
        <time>2019-05-25T14:25:05Z</time>
      </trkpt>
      <trkpt lat="41.5473080" lon="-4.7855900">
        <ele>686.7</ele>
        <time>2019-05-25T14:25:06Z</time>
      </trkpt>
      <trkpt lat="41.5473690" lon="-4.7856430">
        <ele>686.6</ele>
        <time>2019-05-25T14:25:07Z</time>
      </trkpt>
      <trkpt lat="41.5473920" lon="-4.7856940">
        <ele>686.4</ele>
        <time>2019-05-25T14:25:08Z</time>
      </trkpt>
      <trkpt lat="41.5474210" lon="-4.7857420">
        <ele>686.3</ele>
        <time>2019-05-25T14:25:09Z</time>
      </trkpt>
      <trkpt lat="41.5474540" lon="-4.7857880">
        <ele>686.1</ele>
        <time>2019-05-25T14:25:10Z</time>
      </trkpt>
      <trkpt lat="41.5474840" lon="-4.7858400">
        <ele>685.9</ele>
        <time>2019-05-25T14:25:11Z</time>
      </trkpt>
      <trkpt lat="41.5475240" lon="-4.7858920">
        <ele>685.7</ele>
        <time>2019-05-25T14:25:12Z</time>
      </trkpt>
      <trkpt lat="41.5475540" lon="-4.7859410">
        <ele>685.5</ele>
        <time>2019-05-25T14:25:13Z</time>
      </trkpt>
      <trkpt lat="41.5475770" lon="-4.7859860">
        <ele>685.4</ele>
        <time>2019-05-25T14:25:14Z</time>
      </trkpt>
      <trkpt lat="41.5476230" lon="-4.7860380">
        <ele>685.1</ele>
        <time>2019-05-25T14:25:15Z</time>
      </trkpt>
      <trkpt lat="41.5476530" lon="-4.7860830">
        <ele>684.9</ele>
        <time>2019-05-25T14:25:16Z</time>
      </trkpt>
      <trkpt lat="41.5476900" lon="-4.7861320">
        <ele>684.8</ele>
        <time>2019-05-25T14:25:17Z</time>
      </trkpt>
      <trkpt lat="41.5477250" lon="-4.7861700">
        <ele>684.7</ele>
        <time>2019-05-25T14:25:18Z</time>
      </trkpt>
      <trkpt lat="41.5477510" lon="-4.7862010">
        <ele>684.6</ele>
        <time>2019-05-25T14:25:19Z</time>
      </trkpt>
      <trkpt lat="41.5477830" lon="-4.7862580">
        <ele>684.7</ele>
        <time>2019-05-25T14:25:20Z</time>
      </trkpt>
      <trkpt lat="41.5478110" lon="-4.7863060">
        <ele>684.8</ele>
        <time>2019-05-25T14:25:21Z</time>
      </trkpt>
      <trkpt lat="41.5478430" lon="-4.7863560">
        <ele>684.8</ele>
        <time>2019-05-25T14:25:22Z</time>
      </trkpt>
      <trkpt lat="41.5478920" lon="-4.7864200">
        <ele>684.9</ele>
        <time>2019-05-25T14:25:23Z</time>
      </trkpt>
      <trkpt lat="41.5479290" lon="-4.7864520">
        <ele>685.0</ele>
        <time>2019-05-25T14:25:24Z</time>
      </trkpt>
      <trkpt lat="41.5479700" lon="-4.7865070">
        <ele>685.1</ele>
        <time>2019-05-25T14:25:25Z</time>
      </trkpt>
      <trkpt lat="41.5480120" lon="-4.7865660">
        <ele>685.2</ele>
        <time>2019-05-25T14:25:26Z</time>
      </trkpt>
      <trkpt lat="41.5480470" lon="-4.7866020">
        <ele>685.3</ele>
        <time>2019-05-25T14:25:27Z</time>
      </trkpt>
      <trkpt lat="41.5480820" lon="-4.7866580">
        <ele>685.4</ele>
        <time>2019-05-25T14:25:28Z</time>
      </trkpt>
      <trkpt lat="41.5481180" lon="-4.7867100">
        <ele>685.5</ele>
        <time>2019-05-25T14:25:29Z</time>
      </trkpt>
      <trkpt lat="41.5481550" lon="-4.7867530">
        <ele>685.6</ele>
        <time>2019-05-25T14:25:30Z</time>
      </trkpt>
      <trkpt lat="41.5481890" lon="-4.7868100">
        <ele>685.8</ele>
        <time>2019-05-25T14:25:31Z</time>
      </trkpt>
      <trkpt lat="41.5482320" lon="-4.7868840">
        <ele>686.0</ele>
        <time>2019-05-25T14:25:32Z</time>
      </trkpt>
      <trkpt lat="41.5482700" lon="-4.7869300">
        <ele>686.1</ele>
        <time>2019-05-25T14:25:33Z</time>
      </trkpt>
      <trkpt lat="41.5483110" lon="-4.7869740">
        <ele>686.2</ele>
        <time>2019-05-25T14:25:34Z</time>
      </trkpt>
      <trkpt lat="41.5483620" lon="-4.7870120">
        <ele>686.4</ele>
        <time>2019-05-25T14:25:35Z</time>
      </trkpt>
      <trkpt lat="41.5484070" lon="-4.7870520">
        <ele>686.5</ele>
        <time>2019-05-25T14:25:36Z</time>
      </trkpt>
      <trkpt lat="41.5484580" lon="-4.7870960">
        <ele>686.6</ele>
        <time>2019-05-25T14:25:37Z</time>
      </trkpt>
      <trkpt lat="41.5484890" lon="-4.7871100">
        <ele>686.7</ele>
        <time>2019-05-25T14:25:38Z</time>
      </trkpt>
      <trkpt lat="41.5485210" lon="-4.7871370">
        <ele>686.8</ele>
        <time>2019-05-25T14:25:39Z</time>
      </trkpt>
      <trkpt lat="41.5485810" lon="-4.7871380">
        <ele>686.9</ele>
        <time>2019-05-25T14:25:41Z</time>
      </trkpt>
      <trkpt lat="41.5486220" lon="-4.7871460">
        <ele>687.0</ele>
        <time>2019-05-25T14:25:42Z</time>
      </trkpt>
      <trkpt lat="41.5486660" lon="-4.7871460">
        <ele>687.1</ele>
        <time>2019-05-25T14:25:43Z</time>
      </trkpt>
      <trkpt lat="41.5487070" lon="-4.7871350">
        <ele>687.1</ele>
        <time>2019-05-25T14:25:44Z</time>
      </trkpt>
      <trkpt lat="41.5487420" lon="-4.7871310">
        <ele>687.1</ele>
        <time>2019-05-25T14:25:45Z</time>
      </trkpt>
      <trkpt lat="41.5487900" lon="-4.7871420">
        <ele>687.1</ele>
        <time>2019-05-25T14:25:46Z</time>
      </trkpt>
      <trkpt lat="41.5488280" lon="-4.7871460">
        <ele>687.2</ele>
        <time>2019-05-25T14:25:47Z</time>
      </trkpt>
      <trkpt lat="41.5488680" lon="-4.7871640">
        <ele>687.2</ele>
        <time>2019-05-25T14:25:48Z</time>
      </trkpt>
      <trkpt lat="41.5489100" lon="-4.7871990">
        <ele>687.2</ele>
        <time>2019-05-25T14:25:49Z</time>
      </trkpt>
      <trkpt lat="41.5489360" lon="-4.7872270">
        <ele>687.2</ele>
        <time>2019-05-25T14:25:50Z</time>
      </trkpt>
      <trkpt lat="41.5489790" lon="-4.7872700">
        <ele>687.2</ele>
        <time>2019-05-25T14:25:51Z</time>
      </trkpt>
      <trkpt lat="41.5490290" lon="-4.7873250">
        <ele>687.1</ele>
        <time>2019-05-25T14:25:52Z</time>
      </trkpt>
      <trkpt lat="41.5490690" lon="-4.7873790">
        <ele>687.0</ele>
        <time>2019-05-25T14:25:53Z</time>
      </trkpt>
      <trkpt lat="41.5490960" lon="-4.7874350">
        <ele>687.0</ele>
        <time>2019-05-25T14:25:54Z</time>
      </trkpt>
      <trkpt lat="41.5491140" lon="-4.7874920">
        <ele>686.9</ele>
        <time>2019-05-25T14:25:55Z</time>
      </trkpt>
      <trkpt lat="41.5491240" lon="-4.7875500">
        <ele>686.9</ele>
        <time>2019-05-25T14:25:56Z</time>
      </trkpt>
      <trkpt lat="41.5491270" lon="-4.7876100">
        <ele>686.8</ele>
        <time>2019-05-25T14:25:57Z</time>
      </trkpt>
      <trkpt lat="41.5491260" lon="-4.7876690">
        <ele>686.7</ele>
        <time>2019-05-25T14:25:58Z</time>
      </trkpt>
      <trkpt lat="41.5491290" lon="-4.7877430">
        <ele>686.7</ele>
        <time>2019-05-25T14:25:59Z</time>
      </trkpt>
      <trkpt lat="41.5491250" lon="-4.7878190">
        <ele>686.2</ele>
        <time>2019-05-25T14:26:00Z</time>
      </trkpt>
      <trkpt lat="41.5491160" lon="-4.7878910">
        <ele>686.0</ele>
        <time>2019-05-25T14:26:01Z</time>
      </trkpt>
      <trkpt lat="41.5491110" lon="-4.7879680">
        <ele>685.8</ele>
        <time>2019-05-25T14:26:02Z</time>
      </trkpt>
      <trkpt lat="41.5491180" lon="-4.7880450">
        <ele>685.7</ele>
        <time>2019-05-25T14:26:03Z</time>
      </trkpt>
      <trkpt lat="41.5491330" lon="-4.7881190">
        <ele>685.4</ele>
        <time>2019-05-25T14:26:04Z</time>
      </trkpt>
      <trkpt lat="41.5491470" lon="-4.7881640">
        <ele>685.4</ele>
        <time>2019-05-25T14:26:05Z</time>
      </trkpt>
      <trkpt lat="41.5491620" lon="-4.7881970">
        <ele>685.4</ele>
        <time>2019-05-25T14:26:06Z</time>
      </trkpt>
      <trkpt lat="41.5491810" lon="-4.7882340">
        <ele>685.4</ele>
        <time>2019-05-25T14:26:07Z</time>
      </trkpt>
      <trkpt lat="41.5492000" lon="-4.7882720">
        <ele>685.4</ele>
        <time>2019-05-25T14:26:08Z</time>
      </trkpt>
      <trkpt lat="41.5492200" lon="-4.7883140">
        <ele>685.4</ele>
        <time>2019-05-25T14:26:09Z</time>
      </trkpt>
      <trkpt lat="41.5492430" lon="-4.7883570">
        <ele>685.4</ele>
        <time>2019-05-25T14:26:10Z</time>
      </trkpt>
      <trkpt lat="41.5492670" lon="-4.7884030">
        <ele>685.4</ele>
        <time>2019-05-25T14:26:11Z</time>
      </trkpt>
      <trkpt lat="41.5492950" lon="-4.7884500">
        <ele>685.4</ele>
        <time>2019-05-25T14:26:12Z</time>
      </trkpt>
      <trkpt lat="41.5493240" lon="-4.7884990">
        <ele>685.4</ele>
        <time>2019-05-25T14:26:13Z</time>
      </trkpt>
      <trkpt lat="41.5493540" lon="-4.7885490">
        <ele>685.4</ele>
        <time>2019-05-25T14:26:14Z</time>
      </trkpt>
      <trkpt lat="41.5493830" lon="-4.7885980">
        <ele>685.4</ele>
        <time>2019-05-25T14:26:15Z</time>
      </trkpt>
      <trkpt lat="41.5494100" lon="-4.7886500">
        <ele>685.4</ele>
        <time>2019-05-25T14:26:16Z</time>
      </trkpt>
      <trkpt lat="41.5494350" lon="-4.7886990">
        <ele>685.4</ele>
        <time>2019-05-25T14:26:17Z</time>
      </trkpt>
      <trkpt lat="41.5494620" lon="-4.7887510">
        <ele>685.4</ele>
        <time>2019-05-25T14:26:18Z</time>
      </trkpt>
      <trkpt lat="41.5494900" lon="-4.7888080">
        <ele>685.4</ele>
        <time>2019-05-25T14:26:19Z</time>
      </trkpt>
      <trkpt lat="41.5495170" lon="-4.7888710">
        <ele>685.4</ele>
        <time>2019-05-25T14:26:20Z</time>
      </trkpt>
      <trkpt lat="41.5495450" lon="-4.7889370">
        <ele>685.4</ele>
        <time>2019-05-25T14:26:21Z</time>
      </trkpt>
      <trkpt lat="41.5495700" lon="-4.7890070">
        <ele>685.4</ele>
        <time>2019-05-25T14:26:22Z</time>
      </trkpt>
      <trkpt lat="41.5495940" lon="-4.7890780">
        <ele>685.3</ele>
        <time>2019-05-25T14:26:23Z</time>
      </trkpt>
      <trkpt lat="41.5496210" lon="-4.7891500">
        <ele>685.3</ele>
        <time>2019-05-25T14:26:24Z</time>
      </trkpt>
      <trkpt lat="41.5496430" lon="-4.7892140">
        <ele>685.3</ele>
        <time>2019-05-25T14:26:25Z</time>
      </trkpt>
      <trkpt lat="41.5496710" lon="-4.7892840">
        <ele>685.3</ele>
        <time>2019-05-25T14:26:26Z</time>
      </trkpt>
      <trkpt lat="41.5496980" lon="-4.7893540">
        <ele>685.2</ele>
        <time>2019-05-25T14:26:27Z</time>
      </trkpt>
      <trkpt lat="41.5497250" lon="-4.7894210">
        <ele>685.2</ele>
        <time>2019-05-25T14:26:28Z</time>
      </trkpt>
      <trkpt lat="41.5497540" lon="-4.7894870">
        <ele>685.2</ele>
        <time>2019-05-25T14:26:29Z</time>
      </trkpt>
      <trkpt lat="41.5497830" lon="-4.7895590">
        <ele>685.1</ele>
        <time>2019-05-25T14:26:30Z</time>
      </trkpt>
      <trkpt lat="41.5498120" lon="-4.7896350">
        <ele>685.1</ele>
        <time>2019-05-25T14:26:31Z</time>
      </trkpt>
      <trkpt lat="41.5498410" lon="-4.7897070">
        <ele>685.1</ele>
        <time>2019-05-25T14:26:32Z</time>
      </trkpt>
      <trkpt lat="41.5498650" lon="-4.7897730">
        <ele>685.1</ele>
        <time>2019-05-25T14:26:33Z</time>
      </trkpt>
      <trkpt lat="41.5498860" lon="-4.7898410">
        <ele>685.0</ele>
        <time>2019-05-25T14:26:34Z</time>
      </trkpt>
      <trkpt lat="41.5499080" lon="-4.7899060">
        <ele>685.0</ele>
        <time>2019-05-25T14:26:35Z</time>
      </trkpt>
      <trkpt lat="41.5499300" lon="-4.7899680">
        <ele>685.0</ele>
        <time>2019-05-25T14:26:36Z</time>
      </trkpt>
      <trkpt lat="41.5499520" lon="-4.7900310">
        <ele>685.0</ele>
        <time>2019-05-25T14:26:37Z</time>
      </trkpt>
      <trkpt lat="41.5499750" lon="-4.7900960">
        <ele>685.0</ele>
        <time>2019-05-25T14:26:38Z</time>
      </trkpt>
      <trkpt lat="41.5499990" lon="-4.7901610">
        <ele>685.0</ele>
        <time>2019-05-25T14:26:39Z</time>
      </trkpt>
      <trkpt lat="41.5500210" lon="-4.7902230">
        <ele>685.0</ele>
        <time>2019-05-25T14:26:40Z</time>
      </trkpt>
      <trkpt lat="41.5500490" lon="-4.7902840">
        <ele>685.0</ele>
        <time>2019-05-25T14:26:41Z</time>
      </trkpt>
      <trkpt lat="41.5500770" lon="-4.7903440">
        <ele>685.0</ele>
        <time>2019-05-25T14:26:42Z</time>
      </trkpt>
      <trkpt lat="41.5501060" lon="-4.7904080">
        <ele>685.0</ele>
        <time>2019-05-25T14:26:43Z</time>
      </trkpt>
      <trkpt lat="41.5501360" lon="-4.7904680">
        <ele>685.0</ele>
        <time>2019-05-25T14:26:44Z</time>
      </trkpt>
      <trkpt lat="41.5501700" lon="-4.7905360">
        <ele>685.0</ele>
        <time>2019-05-25T14:26:45Z</time>
      </trkpt>
      <trkpt lat="41.5502080" lon="-4.7906000">
        <ele>684.9</ele>
        <time>2019-05-25T14:26:46Z</time>
      </trkpt>
      <trkpt lat="41.5502450" lon="-4.7906650">
        <ele>684.9</ele>
        <time>2019-05-25T14:26:47Z</time>
      </trkpt>
      <trkpt lat="41.5502840" lon="-4.7906880">
        <ele>684.9</ele>
        <time>2019-05-25T14:26:48Z</time>
      </trkpt>
      <trkpt lat="41.5503320" lon="-4.7907600">
        <ele>684.9</ele>
        <time>2019-05-25T14:26:49Z</time>
      </trkpt>
      <trkpt lat="41.5503780" lon="-4.7908160">
        <ele>684.9</ele>
        <time>2019-05-25T14:26:50Z</time>
      </trkpt>
      <trkpt lat="41.5504130" lon="-4.7908670">
        <ele>684.9</ele>
        <time>2019-05-25T14:26:51Z</time>
      </trkpt>
      <trkpt lat="41.5504560" lon="-4.7909120">
        <ele>684.9</ele>
        <time>2019-05-25T14:26:52Z</time>
      </trkpt>
      <trkpt lat="41.5505020" lon="-4.7909740">
        <ele>684.9</ele>
        <time>2019-05-25T14:26:53Z</time>
      </trkpt>
      <trkpt lat="41.5505530" lon="-4.7910380">
        <ele>684.9</ele>
        <time>2019-05-25T14:26:54Z</time>
      </trkpt>
      <trkpt lat="41.5505930" lon="-4.7910880">
        <ele>684.9</ele>
        <time>2019-05-25T14:26:55Z</time>
      </trkpt>
      <trkpt lat="41.5506320" lon="-4.7911360">
        <ele>684.9</ele>
        <time>2019-05-25T14:26:56Z</time>
      </trkpt>
      <trkpt lat="41.5506760" lon="-4.7911820">
        <ele>684.9</ele>
        <time>2019-05-25T14:26:57Z</time>
      </trkpt>
      <trkpt lat="41.5506990" lon="-4.7912510">
        <ele>684.9</ele>
        <time>2019-05-25T14:26:58Z</time>
      </trkpt>
      <trkpt lat="41.5507410" lon="-4.7912870">
        <ele>684.9</ele>
        <time>2019-05-25T14:26:59Z</time>
      </trkpt>
      <trkpt lat="41.5507930" lon="-4.7913680">
        <ele>684.9</ele>
        <time>2019-05-25T14:27:00Z</time>
      </trkpt>
      <trkpt lat="41.5508360" lon="-4.7914230">
        <ele>684.9</ele>
        <time>2019-05-25T14:27:01Z</time>
      </trkpt>
      <trkpt lat="41.5508780" lon="-4.7914530">
        <ele>684.9</ele>
        <time>2019-05-25T14:27:02Z</time>
      </trkpt>
      <trkpt lat="41.5509090" lon="-4.7914640">
        <ele>684.9</ele>
        <time>2019-05-25T14:27:03Z</time>
      </trkpt>
      <trkpt lat="41.5509530" lon="-4.7915170">
        <ele>684.8</ele>
        <time>2019-05-25T14:27:04Z</time>
      </trkpt>
      <trkpt lat="41.5509990" lon="-4.7915540">
        <ele>684.8</ele>
        <time>2019-05-25T14:27:05Z</time>
      </trkpt>
      <trkpt lat="41.5510460" lon="-4.7916160">
        <ele>684.8</ele>
        <time>2019-05-25T14:27:06Z</time>
      </trkpt>
      <trkpt lat="41.5510740" lon="-4.7916490">
        <ele>684.7</ele>
        <time>2019-05-25T14:27:07Z</time>
      </trkpt>
      <trkpt lat="41.5510900" lon="-4.7916830">
        <ele>684.7</ele>
        <time>2019-05-25T14:27:08Z</time>
      </trkpt>
      <trkpt lat="41.5511260" lon="-4.7917390">
        <ele>684.6</ele>
        <time>2019-05-25T14:27:10Z</time>
      </trkpt>
      <trkpt lat="41.5512870" lon="-4.7919350">
        <ele>684.4</ele>
        <time>2019-05-25T14:27:12Z</time>
      </trkpt>
      <trkpt lat="41.5513350" lon="-4.7919730">
        <ele>684.3</ele>
        <time>2019-05-25T14:27:15Z</time>
      </trkpt>
      <trkpt lat="41.5513670" lon="-4.7920030">
        <ele>684.2</ele>
        <time>2019-05-25T14:27:16Z</time>
      </trkpt>
      <trkpt lat="41.5514030" lon="-4.7920380">
        <ele>684.1</ele>
        <time>2019-05-25T14:27:17Z</time>
      </trkpt>
      <trkpt lat="41.5514430" lon="-4.7920720">
        <ele>683.9</ele>
        <time>2019-05-25T14:27:18Z</time>
      </trkpt>
      <trkpt lat="41.5514900" lon="-4.7921020">
        <ele>683.8</ele>
        <time>2019-05-25T14:27:19Z</time>
      </trkpt>
      <trkpt lat="41.5515390" lon="-4.7921290">
        <ele>683.7</ele>
        <time>2019-05-25T14:27:20Z</time>
      </trkpt>
      <trkpt lat="41.5515940" lon="-4.7921490">
        <ele>683.6</ele>
        <time>2019-05-25T14:27:21Z</time>
      </trkpt>
      <trkpt lat="41.5516460" lon="-4.7921580">
        <ele>683.4</ele>
        <time>2019-05-25T14:27:22Z</time>
      </trkpt>
      <trkpt lat="41.5516900" lon="-4.7921600">
        <ele>683.3</ele>
        <time>2019-05-25T14:27:23Z</time>
      </trkpt>
      <trkpt lat="41.5517280" lon="-4.7921590">
        <ele>683.2</ele>
        <time>2019-05-25T14:27:24Z</time>
      </trkpt>
      <trkpt lat="41.5517640" lon="-4.7921540">
        <ele>683.0</ele>
        <time>2019-05-25T14:27:25Z</time>
      </trkpt>
      <trkpt lat="41.5518020" lon="-4.7921440">
        <ele>682.9</ele>
        <time>2019-05-25T14:27:27Z</time>
      </trkpt>
      <trkpt lat="41.5517750" lon="-4.7921240">
        <ele>682.8</ele>
        <time>2019-05-25T14:27:31Z</time>
      </trkpt>
      <trkpt lat="41.5518530" lon="-4.7921590">
        <ele>682.3</ele>
        <time>2019-05-25T14:28:24Z</time>
      </trkpt>
      <trkpt lat="41.5518840" lon="-4.7921600">
        <ele>682.2</ele>
        <time>2019-05-25T14:28:25Z</time>
      </trkpt>
      <trkpt lat="41.5519130" lon="-4.7921560">
        <ele>682.1</ele>
        <time>2019-05-25T14:28:26Z</time>
      </trkpt>
      <trkpt lat="41.5519400" lon="-4.7921530">
        <ele>682.0</ele>
        <time>2019-05-25T14:28:27Z</time>
      </trkpt>
      <trkpt lat="41.5519680" lon="-4.7921460">
        <ele>682.5</ele>
        <time>2019-05-25T14:28:28Z</time>
      </trkpt>
      <trkpt lat="41.5520170" lon="-4.7921330">
        <ele>682.8</ele>
        <time>2019-05-25T14:28:30Z</time>
      </trkpt>
      <trkpt lat="41.5520590" lon="-4.7921180">
        <ele>683.0</ele>
        <time>2019-05-25T14:28:32Z</time>
      </trkpt>
      <trkpt lat="41.5520940" lon="-4.7920870">
        <ele>683.3</ele>
        <time>2019-05-25T14:28:34Z</time>
      </trkpt>
      <trkpt lat="41.5521320" lon="-4.7920490">
        <ele>683.4</ele>
        <time>2019-05-25T14:28:36Z</time>
      </trkpt>
      <trkpt lat="41.5521720" lon="-4.7920110">
        <ele>683.6</ele>
        <time>2019-05-25T14:28:38Z</time>
      </trkpt>
      <trkpt lat="41.5522100" lon="-4.7919730">
        <ele>683.7</ele>
        <time>2019-05-25T14:28:40Z</time>
      </trkpt>
      <trkpt lat="41.5522360" lon="-4.7919500">
        <ele>683.7</ele>
        <time>2019-05-25T14:28:41Z</time>
      </trkpt>
      <trkpt lat="41.5522640" lon="-4.7919270">
        <ele>683.8</ele>
        <time>2019-05-25T14:28:42Z</time>
      </trkpt>
      <trkpt lat="41.5522920" lon="-4.7919070">
        <ele>683.8</ele>
        <time>2019-05-25T14:28:43Z</time>
      </trkpt>
      <trkpt lat="41.5523200" lon="-4.7918850">
        <ele>683.8</ele>
        <time>2019-05-25T14:28:44Z</time>
      </trkpt>
      <trkpt lat="41.5523490" lon="-4.7918640">
        <ele>683.8</ele>
        <time>2019-05-25T14:28:45Z</time>
      </trkpt>
      <trkpt lat="41.5523840" lon="-4.7918410">
        <ele>683.8</ele>
        <time>2019-05-25T14:28:46Z</time>
      </trkpt>
      <trkpt lat="41.5524190" lon="-4.7918160">
        <ele>683.8</ele>
        <time>2019-05-25T14:28:47Z</time>
      </trkpt>
      <trkpt lat="41.5524530" lon="-4.7917920">
        <ele>683.8</ele>
        <time>2019-05-25T14:28:48Z</time>
      </trkpt>
      <trkpt lat="41.5525090" lon="-4.7917510">
        <ele>683.7</ele>
        <time>2019-05-25T14:28:50Z</time>
      </trkpt>
      <trkpt lat="41.5526010" lon="-4.7916880">
        <ele>683.6</ele>
        <time>2019-05-25T14:28:51Z</time>
      </trkpt>
      <trkpt lat="41.5526410" lon="-4.7916540">
        <ele>683.5</ele>
        <time>2019-05-25T14:28:52Z</time>
      </trkpt>
      <trkpt lat="41.5526920" lon="-4.7916200">
        <ele>683.5</ele>
        <time>2019-05-25T14:28:53Z</time>
      </trkpt>
      <trkpt lat="41.5527440" lon="-4.7916000">
        <ele>683.4</ele>
        <time>2019-05-25T14:28:54Z</time>
      </trkpt>
      <trkpt lat="41.5527970" lon="-4.7915650">
        <ele>683.8</ele>
        <time>2019-05-25T14:28:55Z</time>
      </trkpt>
      <trkpt lat="41.5528470" lon="-4.7915390">
        <ele>684.0</ele>
        <time>2019-05-25T14:28:56Z</time>
      </trkpt>
      <trkpt lat="41.5529020" lon="-4.7915110">
        <ele>684.3</ele>
        <time>2019-05-25T14:28:57Z</time>
      </trkpt>
      <trkpt lat="41.5529590" lon="-4.7914880">
        <ele>684.7</ele>
        <time>2019-05-25T14:28:58Z</time>
      </trkpt>
      <trkpt lat="41.5530110" lon="-4.7914470">
        <ele>685.0</ele>
        <time>2019-05-25T14:28:59Z</time>
      </trkpt>
      <trkpt lat="41.5530470" lon="-4.7913990">
        <ele>685.7</ele>
        <time>2019-05-25T14:29:00Z</time>
      </trkpt>
      <trkpt lat="41.5530980" lon="-4.7913590">
        <ele>685.9</ele>
        <time>2019-05-25T14:29:01Z</time>
      </trkpt>
      <trkpt lat="41.5531480" lon="-4.7913140">
        <ele>686.2</ele>
        <time>2019-05-25T14:29:02Z</time>
      </trkpt>
      <trkpt lat="41.5532030" lon="-4.7912820">
        <ele>686.4</ele>
        <time>2019-05-25T14:29:03Z</time>
      </trkpt>
      <trkpt lat="41.5532670" lon="-4.7912540">
        <ele>686.9</ele>
        <time>2019-05-25T14:29:04Z</time>
      </trkpt>
      <trkpt lat="41.5533070" lon="-4.7912030">
        <ele>687.0</ele>
        <time>2019-05-25T14:29:05Z</time>
      </trkpt>
      <trkpt lat="41.5533430" lon="-4.7911910">
        <ele>687.1</ele>
        <time>2019-05-25T14:29:06Z</time>
      </trkpt>
      <trkpt lat="41.5535830" lon="-4.7910310">
        <ele>687.7</ele>
        <time>2019-05-25T14:29:09Z</time>
      </trkpt>
      <trkpt lat="41.5535950" lon="-4.7909860">
        <ele>687.7</ele>
        <time>2019-05-25T14:29:10Z</time>
      </trkpt>
      <trkpt lat="41.5536590" lon="-4.7909400">
        <ele>687.7</ele>
        <time>2019-05-25T14:29:11Z</time>
      </trkpt>
      <trkpt lat="41.5537100" lon="-4.7908670">
        <ele>687.6</ele>
        <time>2019-05-25T14:29:12Z</time>
      </trkpt>
      <trkpt lat="41.5537460" lon="-4.7909010">
        <ele>687.5</ele>
        <time>2019-05-25T14:29:14Z</time>
      </trkpt>
      <trkpt lat="41.5537840" lon="-4.7908660">
        <ele>687.4</ele>
        <time>2019-05-25T14:29:15Z</time>
      </trkpt>
      <trkpt lat="41.5538410" lon="-4.7908390">
        <ele>687.3</ele>
        <time>2019-05-25T14:29:16Z</time>
      </trkpt>
      <trkpt lat="41.5539090" lon="-4.7908150">
        <ele>687.2</ele>
        <time>2019-05-25T14:29:17Z</time>
      </trkpt>
      <trkpt lat="41.5539540" lon="-4.7907630">
        <ele>687.1</ele>
        <time>2019-05-25T14:29:18Z</time>
      </trkpt>
      <trkpt lat="41.5540000" lon="-4.7907420">
        <ele>687.1</ele>
        <time>2019-05-25T14:29:19Z</time>
      </trkpt>
      <trkpt lat="41.5540330" lon="-4.7907220">
        <ele>687.1</ele>
        <time>2019-05-25T14:29:20Z</time>
      </trkpt>
      <trkpt lat="41.5541650" lon="-4.7906750">
        <ele>687.2</ele>
        <time>2019-05-25T14:29:22Z</time>
      </trkpt>
      <trkpt lat="41.5542680" lon="-4.7906470">
        <ele>687.0</ele>
        <time>2019-05-25T14:29:24Z</time>
      </trkpt>
      <trkpt lat="41.5542930" lon="-4.7906010">
        <ele>687.0</ele>
        <time>2019-05-25T14:29:25Z</time>
      </trkpt>
      <trkpt lat="41.5543740" lon="-4.7905430">
        <ele>686.9</ele>
        <time>2019-05-25T14:29:26Z</time>
      </trkpt>
      <trkpt lat="41.5544950" lon="-4.7904770">
        <ele>686.9</ele>
        <time>2019-05-25T14:29:27Z</time>
      </trkpt>
      <trkpt lat="41.5545510" lon="-4.7904470">
        <ele>686.9</ele>
        <time>2019-05-25T14:29:28Z</time>
      </trkpt>
      <trkpt lat="41.5546050" lon="-4.7904020">
        <ele>686.9</ele>
        <time>2019-05-25T14:29:29Z</time>
      </trkpt>
      <trkpt lat="41.5545580" lon="-4.7903930">
        <ele>686.9</ele>
        <time>2019-05-25T14:29:30Z</time>
      </trkpt>
      <trkpt lat="41.5546300" lon="-4.7903540">
        <ele>687.0</ele>
        <time>2019-05-25T14:29:31Z</time>
      </trkpt>
      <trkpt lat="41.5546750" lon="-4.7903200">
        <ele>687.1</ele>
        <time>2019-05-25T14:29:32Z</time>
      </trkpt>
      <trkpt lat="41.5547270" lon="-4.7902780">
        <ele>687.1</ele>
        <time>2019-05-25T14:29:33Z</time>
      </trkpt>
      <trkpt lat="41.5547890" lon="-4.7902470">
        <ele>687.2</ele>
        <time>2019-05-25T14:29:34Z</time>
      </trkpt>
      <trkpt lat="41.5548390" lon="-4.7902250">
        <ele>687.2</ele>
        <time>2019-05-25T14:29:35Z</time>
      </trkpt>
      <trkpt lat="41.5548990" lon="-4.7902070">
        <ele>687.3</ele>
        <time>2019-05-25T14:29:36Z</time>
      </trkpt>
      <trkpt lat="41.5549670" lon="-4.7901910">
        <ele>687.3</ele>
        <time>2019-05-25T14:29:37Z</time>
      </trkpt>
      <trkpt lat="41.5550110" lon="-4.7901530">
        <ele>687.4</ele>
        <time>2019-05-25T14:29:38Z</time>
      </trkpt>
      <trkpt lat="41.5550700" lon="-4.7901400">
        <ele>687.4</ele>
        <time>2019-05-25T14:29:39Z</time>
      </trkpt>
      <trkpt lat="41.5551210" lon="-4.7901110">
        <ele>687.4</ele>
        <time>2019-05-25T14:29:40Z</time>
      </trkpt>
      <trkpt lat="41.5551680" lon="-4.7900740">
        <ele>687.4</ele>
        <time>2019-05-25T14:29:41Z</time>
      </trkpt>
      <trkpt lat="41.5552010" lon="-4.7900580">
        <ele>687.4</ele>
        <time>2019-05-25T14:29:42Z</time>
      </trkpt>
      <trkpt lat="41.5552460" lon="-4.7900420">
        <ele>687.5</ele>
        <time>2019-05-25T14:29:44Z</time>
      </trkpt>
      <trkpt lat="41.5552960" lon="-4.7900170">
        <ele>687.5</ele>
        <time>2019-05-25T14:29:45Z</time>
      </trkpt>
      <trkpt lat="41.5553640" lon="-4.7899820">
        <ele>687.5</ele>
        <time>2019-05-25T14:29:46Z</time>
      </trkpt>
      <trkpt lat="41.5554270" lon="-4.7899350">
        <ele>687.5</ele>
        <time>2019-05-25T14:29:47Z</time>
      </trkpt>
      <trkpt lat="41.5554910" lon="-4.7898880">
        <ele>687.5</ele>
        <time>2019-05-25T14:29:48Z</time>
      </trkpt>
      <trkpt lat="41.5555520" lon="-4.7898480">
        <ele>687.5</ele>
        <time>2019-05-25T14:29:49Z</time>
      </trkpt>
      <trkpt lat="41.5555830" lon="-4.7898260">
        <ele>687.5</ele>
        <time>2019-05-25T14:29:50Z</time>
      </trkpt>
      <trkpt lat="41.5556290" lon="-4.7898030">
        <ele>687.5</ele>
        <time>2019-05-25T14:29:52Z</time>
      </trkpt>
      <trkpt lat="41.5556610" lon="-4.7897920">
        <ele>687.5</ele>
        <time>2019-05-25T14:29:53Z</time>
      </trkpt>
      <trkpt lat="41.5557030" lon="-4.7897810">
        <ele>687.4</ele>
        <time>2019-05-25T14:29:54Z</time>
      </trkpt>
      <trkpt lat="41.5557500" lon="-4.7897680">
        <ele>687.4</ele>
        <time>2019-05-25T14:29:55Z</time>
      </trkpt>
      <trkpt lat="41.5558030" lon="-4.7897490">
        <ele>687.3</ele>
        <time>2019-05-25T14:29:56Z</time>
      </trkpt>
      <trkpt lat="41.5558600" lon="-4.7897260">
        <ele>687.2</ele>
        <time>2019-05-25T14:29:57Z</time>
      </trkpt>
      <trkpt lat="41.5559140" lon="-4.7897070">
        <ele>687.2</ele>
        <time>2019-05-25T14:29:58Z</time>
      </trkpt>
      <trkpt lat="41.5559680" lon="-4.7896960">
        <ele>687.2</ele>
        <time>2019-05-25T14:29:59Z</time>
      </trkpt>
      <trkpt lat="41.5560250" lon="-4.7896860">
        <ele>687.2</ele>
        <time>2019-05-25T14:30:00Z</time>
      </trkpt>
      <trkpt lat="41.5560800" lon="-4.7896760">
        <ele>687.2</ele>
        <time>2019-05-25T14:30:01Z</time>
      </trkpt>
      <trkpt lat="41.5561490" lon="-4.7896680">
        <ele>687.3</ele>
        <time>2019-05-25T14:30:02Z</time>
      </trkpt>
      <trkpt lat="41.5562180" lon="-4.7896600">
        <ele>687.3</ele>
        <time>2019-05-25T14:30:03Z</time>
      </trkpt>
      <trkpt lat="41.5562810" lon="-4.7896430">
        <ele>687.3</ele>
        <time>2019-05-25T14:30:04Z</time>
      </trkpt>
      <trkpt lat="41.5563320" lon="-4.7896050">
        <ele>687.3</ele>
        <time>2019-05-25T14:30:05Z</time>
      </trkpt>
      <trkpt lat="41.5564080" lon="-4.7895790">
        <ele>687.3</ele>
        <time>2019-05-25T14:30:06Z</time>
      </trkpt>
      <trkpt lat="41.5565150" lon="-4.7895650">
        <ele>687.3</ele>
        <time>2019-05-25T14:30:07Z</time>
      </trkpt>
      <trkpt lat="41.5565900" lon="-4.7895800">
        <ele>687.3</ele>
        <time>2019-05-25T14:30:08Z</time>
      </trkpt>
      <trkpt lat="41.5566290" lon="-4.7895620">
        <ele>687.3</ele>
        <time>2019-05-25T14:30:09Z</time>
      </trkpt>
      <trkpt lat="41.5566900" lon="-4.7895510">
        <ele>687.3</ele>
        <time>2019-05-25T14:30:10Z</time>
      </trkpt>
      <trkpt lat="41.5567270" lon="-4.7895390">
        <ele>687.4</ele>
        <time>2019-05-25T14:30:11Z</time>
      </trkpt>
      <trkpt lat="41.5567850" lon="-4.7895220">
        <ele>687.4</ele>
        <time>2019-05-25T14:30:12Z</time>
      </trkpt>
      <trkpt lat="41.5568180" lon="-4.7895130">
        <ele>687.4</ele>
        <time>2019-05-25T14:30:13Z</time>
      </trkpt>
      <trkpt lat="41.5570660" lon="-4.7894110">
        <ele>687.5</ele>
        <time>2019-05-25T14:30:16Z</time>
      </trkpt>
      <trkpt lat="41.5571340" lon="-4.7893870">
        <ele>687.5</ele>
        <time>2019-05-25T14:30:17Z</time>
      </trkpt>
      <trkpt lat="41.5571630" lon="-4.7893650">
        <ele>687.4</ele>
        <time>2019-05-25T14:30:18Z</time>
      </trkpt>
      <trkpt lat="41.5572260" lon="-4.7893420">
        <ele>687.4</ele>
        <time>2019-05-25T14:30:19Z</time>
      </trkpt>
      <trkpt lat="41.5572750" lon="-4.7893060">
        <ele>687.4</ele>
        <time>2019-05-25T14:30:20Z</time>
      </trkpt>
      <trkpt lat="41.5573230" lon="-4.7893280">
        <ele>687.4</ele>
        <time>2019-05-25T14:30:21Z</time>
      </trkpt>
      <trkpt lat="41.5573520" lon="-4.7893040">
        <ele>687.4</ele>
        <time>2019-05-25T14:30:23Z</time>
      </trkpt>
      <trkpt lat="41.5574030" lon="-4.7892910">
        <ele>687.5</ele>
        <time>2019-05-25T14:30:25Z</time>
      </trkpt>
      <trkpt lat="41.5574360" lon="-4.7892810">
        <ele>687.5</ele>
        <time>2019-05-25T14:30:26Z</time>
      </trkpt>
      <trkpt lat="41.5574740" lon="-4.7892680">
        <ele>687.6</ele>
        <time>2019-05-25T14:30:27Z</time>
      </trkpt>
      <trkpt lat="41.5575200" lon="-4.7892520">
        <ele>687.6</ele>
        <time>2019-05-25T14:30:28Z</time>
      </trkpt>
      <trkpt lat="41.5575670" lon="-4.7892430">
        <ele>687.7</ele>
        <time>2019-05-25T14:30:29Z</time>
      </trkpt>
      <trkpt lat="41.5576160" lon="-4.7892530">
        <ele>687.7</ele>
        <time>2019-05-25T14:30:30Z</time>
      </trkpt>
      <trkpt lat="41.5576590" lon="-4.7892790">
        <ele>687.6</ele>
        <time>2019-05-25T14:30:31Z</time>
      </trkpt>
      <trkpt lat="41.5576950" lon="-4.7893210">
        <ele>687.5</ele>
        <time>2019-05-25T14:30:32Z</time>
      </trkpt>
      <trkpt lat="41.5577250" lon="-4.7893690">
        <ele>687.4</ele>
        <time>2019-05-25T14:30:33Z</time>
      </trkpt>
      <trkpt lat="41.5577530" lon="-4.7894200">
        <ele>687.2</ele>
        <time>2019-05-25T14:30:34Z</time>
      </trkpt>
      <trkpt lat="41.5577810" lon="-4.7894660">
        <ele>687.0</ele>
        <time>2019-05-25T14:30:35Z</time>
      </trkpt>
      <trkpt lat="41.5578120" lon="-4.7895040">
        <ele>686.9</ele>
        <time>2019-05-25T14:30:36Z</time>
      </trkpt>
      <trkpt lat="41.5578380" lon="-4.7895250">
        <ele>686.8</ele>
        <time>2019-05-25T14:30:37Z</time>
      </trkpt>
      <trkpt lat="41.5579010" lon="-4.7895370">
        <ele>686.8</ele>
        <time>2019-05-25T14:30:39Z</time>
      </trkpt>
      <trkpt lat="41.5579430" lon="-4.7895370">
        <ele>686.8</ele>
        <time>2019-05-25T14:30:40Z</time>
      </trkpt>
      <trkpt lat="41.5579920" lon="-4.7895350">
        <ele>686.8</ele>
        <time>2019-05-25T14:30:41Z</time>
      </trkpt>
      <trkpt lat="41.5580490" lon="-4.7895360">
        <ele>686.8</ele>
        <time>2019-05-25T14:30:42Z</time>
      </trkpt>
      <trkpt lat="41.5581120" lon="-4.7895350">
        <ele>686.8</ele>
        <time>2019-05-25T14:30:43Z</time>
      </trkpt>
      <trkpt lat="41.5581830" lon="-4.7895390">
        <ele>686.7</ele>
        <time>2019-05-25T14:30:44Z</time>
      </trkpt>
      <trkpt lat="41.5582550" lon="-4.7895410">
        <ele>686.7</ele>
        <time>2019-05-25T14:30:45Z</time>
      </trkpt>
      <trkpt lat="41.5583230" lon="-4.7895400">
        <ele>686.6</ele>
        <time>2019-05-25T14:30:46Z</time>
      </trkpt>
      <trkpt lat="41.5583890" lon="-4.7895390">
        <ele>686.6</ele>
        <time>2019-05-25T14:30:47Z</time>
      </trkpt>
      <trkpt lat="41.5584540" lon="-4.7895340">
        <ele>686.5</ele>
        <time>2019-05-25T14:30:48Z</time>
      </trkpt>
      <trkpt lat="41.5585170" lon="-4.7895250">
        <ele>686.6</ele>
        <time>2019-05-25T14:30:49Z</time>
      </trkpt>
      <trkpt lat="41.5585750" lon="-4.7895190">
        <ele>686.6</ele>
        <time>2019-05-25T14:30:50Z</time>
      </trkpt>
      <trkpt lat="41.5586330" lon="-4.7895050">
        <ele>686.6</ele>
        <time>2019-05-25T14:30:51Z</time>
      </trkpt>
      <trkpt lat="41.5586930" lon="-4.7894920">
        <ele>686.6</ele>
        <time>2019-05-25T14:30:52Z</time>
      </trkpt>
      <trkpt lat="41.5587460" lon="-4.7894800">
        <ele>686.6</ele>
        <time>2019-05-25T14:30:53Z</time>
      </trkpt>
      <trkpt lat="41.5587770" lon="-4.7894690">
        <ele>686.7</ele>
        <time>2019-05-25T14:30:54Z</time>
      </trkpt>
      <trkpt lat="41.5588290" lon="-4.7894410">
        <ele>686.7</ele>
        <time>2019-05-25T14:30:56Z</time>
      </trkpt>
      <trkpt lat="41.5588600" lon="-4.7894240">
        <ele>686.7</ele>
        <time>2019-05-25T14:30:57Z</time>
      </trkpt>
      <trkpt lat="41.5588930" lon="-4.7894100">
        <ele>686.7</ele>
        <time>2019-05-25T14:30:58Z</time>
      </trkpt>
      <trkpt lat="41.5589310" lon="-4.7893960">
        <ele>686.7</ele>
        <time>2019-05-25T14:30:59Z</time>
      </trkpt>
      <trkpt lat="41.5589750" lon="-4.7893820">
        <ele>686.8</ele>
        <time>2019-05-25T14:31:00Z</time>
      </trkpt>
      <trkpt lat="41.5590130" lon="-4.7893700">
        <ele>686.8</ele>
        <time>2019-05-25T14:31:01Z</time>
      </trkpt>
      <trkpt lat="41.5590530" lon="-4.7893600">
        <ele>686.8</ele>
        <time>2019-05-25T14:31:02Z</time>
      </trkpt>
      <trkpt lat="41.5590990" lon="-4.7893500">
        <ele>686.8</ele>
        <time>2019-05-25T14:31:03Z</time>
      </trkpt>
      <trkpt lat="41.5591460" lon="-4.7893390">
        <ele>686.9</ele>
        <time>2019-05-25T14:31:04Z</time>
      </trkpt>
      <trkpt lat="41.5592130" lon="-4.7893250">
        <ele>686.9</ele>
        <time>2019-05-25T14:31:05Z</time>
      </trkpt>
      <trkpt lat="41.5592870" lon="-4.7893130">
        <ele>687.0</ele>
        <time>2019-05-25T14:31:06Z</time>
      </trkpt>
      <trkpt lat="41.5593550" lon="-4.7893010">
        <ele>687.0</ele>
        <time>2019-05-25T14:31:07Z</time>
      </trkpt>
      <trkpt lat="41.5594140" lon="-4.7892900">
        <ele>687.0</ele>
        <time>2019-05-25T14:31:08Z</time>
      </trkpt>
      <trkpt lat="41.5594800" lon="-4.7892730">
        <ele>686.9</ele>
        <time>2019-05-25T14:31:09Z</time>
      </trkpt>
      <trkpt lat="41.5595450" lon="-4.7892530">
        <ele>686.9</ele>
        <time>2019-05-25T14:31:10Z</time>
      </trkpt>
      <trkpt lat="41.5595860" lon="-4.7892380">
        <ele>686.8</ele>
        <time>2019-05-25T14:31:11Z</time>
      </trkpt>
      <trkpt lat="41.5596170" lon="-4.7892270">
        <ele>686.8</ele>
        <time>2019-05-25T14:31:12Z</time>
      </trkpt>
      <trkpt lat="41.5596520" lon="-4.7892180">
        <ele>686.8</ele>
        <time>2019-05-25T14:31:13Z</time>
      </trkpt>
      <trkpt lat="41.5596870" lon="-4.7892060">
        <ele>686.8</ele>
        <time>2019-05-25T14:31:14Z</time>
      </trkpt>
      <trkpt lat="41.5597230" lon="-4.7891940">
        <ele>686.8</ele>
        <time>2019-05-25T14:31:15Z</time>
      </trkpt>
      <trkpt lat="41.5597660" lon="-4.7891800">
        <ele>686.9</ele>
        <time>2019-05-25T14:31:16Z</time>
      </trkpt>
      <trkpt lat="41.5598120" lon="-4.7891660">
        <ele>686.9</ele>
        <time>2019-05-25T14:31:17Z</time>
      </trkpt>
      <trkpt lat="41.5598570" lon="-4.7891500">
        <ele>686.9</ele>
        <time>2019-05-25T14:31:18Z</time>
      </trkpt>
      <trkpt lat="41.5599000" lon="-4.7891350">
        <ele>686.9</ele>
        <time>2019-05-25T14:31:19Z</time>
      </trkpt>
      <trkpt lat="41.5599430" lon="-4.7891190">
        <ele>686.8</ele>
        <time>2019-05-25T14:31:20Z</time>
      </trkpt>
      <trkpt lat="41.5599970" lon="-4.7890990">
        <ele>686.8</ele>
        <time>2019-05-25T14:31:21Z</time>
      </trkpt>
      <trkpt lat="41.5600590" lon="-4.7890810">
        <ele>686.7</ele>
        <time>2019-05-25T14:31:22Z</time>
      </trkpt>
      <trkpt lat="41.5601250" lon="-4.7890660">
        <ele>686.6</ele>
        <time>2019-05-25T14:31:23Z</time>
      </trkpt>
      <trkpt lat="41.5601890" lon="-4.7890490">
        <ele>686.5</ele>
        <time>2019-05-25T14:31:24Z</time>
      </trkpt>
      <trkpt lat="41.5602520" lon="-4.7890360">
        <ele>686.4</ele>
        <time>2019-05-25T14:31:25Z</time>
      </trkpt>
      <trkpt lat="41.5603160" lon="-4.7890210">
        <ele>686.4</ele>
        <time>2019-05-25T14:31:26Z</time>
      </trkpt>
      <trkpt lat="41.5603580" lon="-4.7890130">
        <ele>686.3</ele>
        <time>2019-05-25T14:31:27Z</time>
      </trkpt>
      <trkpt lat="41.5603950" lon="-4.7890110">
        <ele>686.3</ele>
        <time>2019-05-25T14:31:28Z</time>
      </trkpt>
      <trkpt lat="41.5604330" lon="-4.7890100">
        <ele>686.4</ele>
        <time>2019-05-25T14:31:29Z</time>
      </trkpt>
      <trkpt lat="41.5604760" lon="-4.7890060">
        <ele>686.4</ele>
        <time>2019-05-25T14:31:30Z</time>
      </trkpt>
      <trkpt lat="41.5605210" lon="-4.7890040">
        <ele>686.5</ele>
        <time>2019-05-25T14:31:31Z</time>
      </trkpt>
      <trkpt lat="41.5605640" lon="-4.7890000">
        <ele>686.5</ele>
        <time>2019-05-25T14:31:32Z</time>
      </trkpt>
      <trkpt lat="41.5606110" lon="-4.7889950">
        <ele>686.5</ele>
        <time>2019-05-25T14:31:33Z</time>
      </trkpt>
      <trkpt lat="41.5606660" lon="-4.7889900">
        <ele>686.6</ele>
        <time>2019-05-25T14:31:34Z</time>
      </trkpt>
      <trkpt lat="41.5607240" lon="-4.7889890">
        <ele>686.9</ele>
        <time>2019-05-25T14:31:35Z</time>
      </trkpt>
      <trkpt lat="41.5607780" lon="-4.7889880">
        <ele>687.0</ele>
        <time>2019-05-25T14:31:36Z</time>
      </trkpt>
      <trkpt lat="41.5608310" lon="-4.7889860">
        <ele>687.1</ele>
        <time>2019-05-25T14:31:37Z</time>
      </trkpt>
      <trkpt lat="41.5608870" lon="-4.7889830">
        <ele>687.3</ele>
        <time>2019-05-25T14:31:38Z</time>
      </trkpt>
      <trkpt lat="41.5609400" lon="-4.7889790">
        <ele>687.4</ele>
        <time>2019-05-25T14:31:39Z</time>
      </trkpt>
      <trkpt lat="41.5609920" lon="-4.7889730">
        <ele>687.5</ele>
        <time>2019-05-25T14:31:40Z</time>
      </trkpt>
      <trkpt lat="41.5610410" lon="-4.7889700">
        <ele>687.6</ele>
        <time>2019-05-25T14:31:41Z</time>
      </trkpt>
      <trkpt lat="41.5610830" lon="-4.7889700">
        <ele>687.7</ele>
        <time>2019-05-25T14:31:42Z</time>
      </trkpt>
      <trkpt lat="41.5611260" lon="-4.7889720">
        <ele>687.8</ele>
        <time>2019-05-25T14:31:43Z</time>
      </trkpt>
      <trkpt lat="41.5611720" lon="-4.7889720">
        <ele>688.0</ele>
        <time>2019-05-25T14:31:44Z</time>
      </trkpt>
      <trkpt lat="41.5612150" lon="-4.7889720">
        <ele>688.4</ele>
        <time>2019-05-25T14:31:45Z</time>
      </trkpt>
      <trkpt lat="41.5612610" lon="-4.7889720">
        <ele>688.5</ele>
        <time>2019-05-25T14:31:46Z</time>
      </trkpt>
      <trkpt lat="41.5613090" lon="-4.7889740">
        <ele>688.6</ele>
        <time>2019-05-25T14:31:47Z</time>
      </trkpt>
      <trkpt lat="41.5613580" lon="-4.7889770">
        <ele>688.6</ele>
        <time>2019-05-25T14:31:48Z</time>
      </trkpt>
      <trkpt lat="41.5613890" lon="-4.7889780">
        <ele>688.7</ele>
        <time>2019-05-25T14:31:49Z</time>
      </trkpt>
      <trkpt lat="41.5614450" lon="-4.7889770">
        <ele>688.9</ele>
        <time>2019-05-25T14:31:51Z</time>
      </trkpt>
      <trkpt lat="41.5614880" lon="-4.7889750">
        <ele>688.9</ele>
        <time>2019-05-25T14:31:52Z</time>
      </trkpt>
      <trkpt lat="41.5615330" lon="-4.7889700">
        <ele>688.9</ele>
        <time>2019-05-25T14:31:53Z</time>
      </trkpt>
      <trkpt lat="41.5615790" lon="-4.7889640">
        <ele>688.9</ele>
        <time>2019-05-25T14:31:54Z</time>
      </trkpt>
      <trkpt lat="41.5616070" lon="-4.7889580">
        <ele>688.9</ele>
        <time>2019-05-25T14:31:55Z</time>
      </trkpt>
      <trkpt lat="41.5616500" lon="-4.7889520">
        <ele>688.9</ele>
        <time>2019-05-25T14:31:57Z</time>
      </trkpt>
      <trkpt lat="41.5616770" lon="-4.7889490">
        <ele>688.9</ele>
        <time>2019-05-25T14:31:58Z</time>
      </trkpt>
      <trkpt lat="41.5617080" lon="-4.7889490">
        <ele>688.9</ele>
        <time>2019-05-25T14:31:59Z</time>
      </trkpt>
      <trkpt lat="41.5617440" lon="-4.7889480">
        <ele>689.0</ele>
        <time>2019-05-25T14:32:00Z</time>
      </trkpt>
      <trkpt lat="41.5617810" lon="-4.7889480">
        <ele>689.0</ele>
        <time>2019-05-25T14:32:01Z</time>
      </trkpt>
      <trkpt lat="41.5618190" lon="-4.7889460">
        <ele>689.0</ele>
        <time>2019-05-25T14:32:02Z</time>
      </trkpt>
      <trkpt lat="41.5618580" lon="-4.7889450">
        <ele>689.0</ele>
        <time>2019-05-25T14:32:03Z</time>
      </trkpt>
      <trkpt lat="41.5619000" lon="-4.7889440">
        <ele>689.1</ele>
        <time>2019-05-25T14:32:04Z</time>
      </trkpt>
      <trkpt lat="41.5619410" lon="-4.7889450">
        <ele>689.1</ele>
        <time>2019-05-25T14:32:05Z</time>
      </trkpt>
      <trkpt lat="41.5619840" lon="-4.7889460">
        <ele>689.1</ele>
        <time>2019-05-25T14:32:06Z</time>
      </trkpt>
      <trkpt lat="41.5620260" lon="-4.7889430">
        <ele>689.2</ele>
        <time>2019-05-25T14:32:07Z</time>
      </trkpt>
      <trkpt lat="41.5620680" lon="-4.7889390">
        <ele>689.2</ele>
        <time>2019-05-25T14:32:08Z</time>
      </trkpt>
      <trkpt lat="41.5621040" lon="-4.7889330">
        <ele>689.2</ele>
        <time>2019-05-25T14:32:09Z</time>
      </trkpt>
      <trkpt lat="41.5621410" lon="-4.7889230">
        <ele>689.3</ele>
        <time>2019-05-25T14:32:10Z</time>
      </trkpt>
      <trkpt lat="41.5621750" lon="-4.7889150">
        <ele>689.3</ele>
        <time>2019-05-25T14:32:11Z</time>
      </trkpt>
      <trkpt lat="41.5622080" lon="-4.7889120">
        <ele>689.3</ele>
        <time>2019-05-25T14:32:12Z</time>
      </trkpt>
      <trkpt lat="41.5622410" lon="-4.7889140">
        <ele>689.3</ele>
        <time>2019-05-25T14:32:13Z</time>
      </trkpt>
      <trkpt lat="41.5622740" lon="-4.7889120">
        <ele>689.3</ele>
        <time>2019-05-25T14:32:14Z</time>
      </trkpt>
      <trkpt lat="41.5623070" lon="-4.7888980">
        <ele>689.3</ele>
        <time>2019-05-25T14:32:15Z</time>
      </trkpt>
      <trkpt lat="41.5623520" lon="-4.7888280">
        <ele>689.4</ele>
        <time>2019-05-25T14:32:16Z</time>
      </trkpt>
      <trkpt lat="41.5623860" lon="-4.7887720">
        <ele>689.4</ele>
        <time>2019-05-25T14:32:17Z</time>
      </trkpt>
      <trkpt lat="41.5623720" lon="-4.7887070">
        <ele>689.4</ele>
        <time>2019-05-25T14:32:18Z</time>
      </trkpt>
      <trkpt lat="41.5623700" lon="-4.7886250">
        <ele>689.4</ele>
        <time>2019-05-25T14:32:19Z</time>
      </trkpt>
      <trkpt lat="41.5623610" lon="-4.7885580">
        <ele>689.4</ele>
        <time>2019-05-25T14:32:20Z</time>
      </trkpt>
      <trkpt lat="41.5623540" lon="-4.7884970">
        <ele>689.4</ele>
        <time>2019-05-25T14:32:21Z</time>
      </trkpt>
      <trkpt lat="41.5623520" lon="-4.7884500">
        <ele>689.4</ele>
        <time>2019-05-25T14:32:22Z</time>
      </trkpt>
      <trkpt lat="41.5623280" lon="-4.7883100">
        <ele>689.4</ele>
        <time>2019-05-25T14:32:23Z</time>
      </trkpt>
      <trkpt lat="41.5622970" lon="-4.7882550">
        <ele>689.4</ele>
        <time>2019-05-25T14:32:24Z</time>
      </trkpt>
      <trkpt lat="41.5623080" lon="-4.7881240">
        <ele>689.4</ele>
        <time>2019-05-25T14:32:25Z</time>
      </trkpt>
      <trkpt lat="41.5623410" lon="-4.7880860">
        <ele>689.4</ele>
        <time>2019-05-25T14:32:26Z</time>
      </trkpt>
      <trkpt lat="41.5623570" lon="-4.7880110">
        <ele>689.4</ele>
        <time>2019-05-25T14:32:27Z</time>
      </trkpt>
      <trkpt lat="41.5623550" lon="-4.7879620">
        <ele>689.3</ele>
        <time>2019-05-25T14:32:29Z</time>
      </trkpt>
      <trkpt lat="41.5623620" lon="-4.7878970">
        <ele>689.3</ele>
        <time>2019-05-25T14:32:31Z</time>
      </trkpt>
      <trkpt lat="41.5623670" lon="-4.7878550">
        <ele>689.3</ele>
        <time>2019-05-25T14:32:32Z</time>
      </trkpt>
      <trkpt lat="41.5623740" lon="-4.7878060">
        <ele>689.3</ele>
        <time>2019-05-25T14:32:33Z</time>
      </trkpt>
      <trkpt lat="41.5623840" lon="-4.7877570">
        <ele>689.3</ele>
        <time>2019-05-25T14:32:34Z</time>
      </trkpt>
      <trkpt lat="41.5623950" lon="-4.7877040">
        <ele>689.3</ele>
        <time>2019-05-25T14:32:35Z</time>
      </trkpt>
      <trkpt lat="41.5624050" lon="-4.7876460">
        <ele>689.3</ele>
        <time>2019-05-25T14:32:36Z</time>
      </trkpt>
      <trkpt lat="41.5624160" lon="-4.7875820">
        <ele>689.3</ele>
        <time>2019-05-25T14:32:37Z</time>
      </trkpt>
      <trkpt lat="41.5624290" lon="-4.7875120">
        <ele>689.3</ele>
        <time>2019-05-25T14:32:38Z</time>
      </trkpt>
      <trkpt lat="41.5624440" lon="-4.7874440">
        <ele>689.3</ele>
        <time>2019-05-25T14:32:39Z</time>
      </trkpt>
      <trkpt lat="41.5624630" lon="-4.7873740">
        <ele>689.3</ele>
        <time>2019-05-25T14:32:40Z</time>
      </trkpt>
      <trkpt lat="41.5624780" lon="-4.7873040">
        <ele>689.3</ele>
        <time>2019-05-25T14:32:41Z</time>
      </trkpt>
      <trkpt lat="41.5624960" lon="-4.7872380">
        <ele>689.4</ele>
        <time>2019-05-25T14:32:42Z</time>
      </trkpt>
      <trkpt lat="41.5625170" lon="-4.7871640">
        <ele>689.4</ele>
        <time>2019-05-25T14:32:43Z</time>
      </trkpt>
      <trkpt lat="41.5625410" lon="-4.7870900">
        <ele>689.5</ele>
        <time>2019-05-25T14:32:44Z</time>
      </trkpt>
      <trkpt lat="41.5625650" lon="-4.7870180">
        <ele>689.6</ele>
        <time>2019-05-25T14:32:45Z</time>
      </trkpt>
      <trkpt lat="41.5625890" lon="-4.7869490">
        <ele>689.7</ele>
        <time>2019-05-25T14:32:46Z</time>
      </trkpt>
      <trkpt lat="41.5626130" lon="-4.7868840">
        <ele>689.8</ele>
        <time>2019-05-25T14:32:47Z</time>
      </trkpt>
      <trkpt lat="41.5626400" lon="-4.7868220">
        <ele>689.9</ele>
        <time>2019-05-25T14:32:48Z</time>
      </trkpt>
      <trkpt lat="41.5626650" lon="-4.7867680">
        <ele>690.0</ele>
        <time>2019-05-25T14:32:49Z</time>
      </trkpt>
      <trkpt lat="41.5626910" lon="-4.7867150">
        <ele>690.1</ele>
        <time>2019-05-25T14:32:50Z</time>
      </trkpt>
      <trkpt lat="41.5627180" lon="-4.7866680">
        <ele>690.1</ele>
        <time>2019-05-25T14:32:51Z</time>
      </trkpt>
      <trkpt lat="41.5627430" lon="-4.7866200">
        <ele>690.1</ele>
        <time>2019-05-25T14:32:52Z</time>
      </trkpt>
      <trkpt lat="41.5627690" lon="-4.7865760">
        <ele>690.2</ele>
        <time>2019-05-25T14:32:53Z</time>
      </trkpt>
      <trkpt lat="41.5627970" lon="-4.7865280">
        <ele>690.2</ele>
        <time>2019-05-25T14:32:54Z</time>
      </trkpt>
      <trkpt lat="41.5628270" lon="-4.7864820">
        <ele>690.2</ele>
        <time>2019-05-25T14:32:55Z</time>
      </trkpt>
      <trkpt lat="41.5628570" lon="-4.7864370">
        <ele>690.2</ele>
        <time>2019-05-25T14:32:56Z</time>
      </trkpt>
      <trkpt lat="41.5628860" lon="-4.7863950">
        <ele>690.3</ele>
        <time>2019-05-25T14:32:57Z</time>
      </trkpt>
      <trkpt lat="41.5629160" lon="-4.7863540">
        <ele>690.3</ele>
        <time>2019-05-25T14:32:58Z</time>
      </trkpt>
      <trkpt lat="41.5629470" lon="-4.7863140">
        <ele>690.4</ele>
        <time>2019-05-25T14:32:59Z</time>
      </trkpt>
      <trkpt lat="41.5629780" lon="-4.7862770">
        <ele>690.5</ele>
        <time>2019-05-25T14:33:00Z</time>
      </trkpt>
      <trkpt lat="41.5630120" lon="-4.7862430">
        <ele>690.6</ele>
        <time>2019-05-25T14:33:01Z</time>
      </trkpt>
      <trkpt lat="41.5630460" lon="-4.7862120">
        <ele>690.7</ele>
        <time>2019-05-25T14:33:02Z</time>
      </trkpt>
      <trkpt lat="41.5630840" lon="-4.7861780">
        <ele>690.8</ele>
        <time>2019-05-25T14:33:03Z</time>
      </trkpt>
      <trkpt lat="41.5631200" lon="-4.7861450">
        <ele>690.9</ele>
        <time>2019-05-25T14:33:04Z</time>
      </trkpt>
      <trkpt lat="41.5631590" lon="-4.7861080">
        <ele>691.0</ele>
        <time>2019-05-25T14:33:05Z</time>
      </trkpt>
      <trkpt lat="41.5631950" lon="-4.7860740">
        <ele>691.1</ele>
        <time>2019-05-25T14:33:06Z</time>
      </trkpt>
      <trkpt lat="41.5632310" lon="-4.7860410">
        <ele>691.2</ele>
        <time>2019-05-25T14:33:07Z</time>
      </trkpt>
      <trkpt lat="41.5632700" lon="-4.7860090">
        <ele>691.2</ele>
        <time>2019-05-25T14:33:08Z</time>
      </trkpt>
      <trkpt lat="41.5633100" lon="-4.7859730">
        <ele>691.2</ele>
        <time>2019-05-25T14:33:09Z</time>
      </trkpt>
      <trkpt lat="41.5633540" lon="-4.7859370">
        <ele>691.2</ele>
        <time>2019-05-25T14:33:10Z</time>
      </trkpt>
      <trkpt lat="41.5633900" lon="-4.7858880">
        <ele>691.2</ele>
        <time>2019-05-25T14:33:11Z</time>
      </trkpt>
      <trkpt lat="41.5634310" lon="-4.7858470">
        <ele>691.2</ele>
        <time>2019-05-25T14:33:12Z</time>
      </trkpt>
      <trkpt lat="41.5634770" lon="-4.7858110">
        <ele>691.2</ele>
        <time>2019-05-25T14:33:13Z</time>
      </trkpt>
      <trkpt lat="41.5635270" lon="-4.7857860">
        <ele>691.2</ele>
        <time>2019-05-25T14:33:14Z</time>
      </trkpt>
      <trkpt lat="41.5635640" lon="-4.7857720">
        <ele>691.2</ele>
        <time>2019-05-25T14:33:15Z</time>
      </trkpt>
      <trkpt lat="41.5636050" lon="-4.7857500">
        <ele>691.2</ele>
        <time>2019-05-25T14:33:16Z</time>
      </trkpt>
      <trkpt lat="41.5636560" lon="-4.7857160">
        <ele>691.3</ele>
        <time>2019-05-25T14:33:17Z</time>
      </trkpt>
      <trkpt lat="41.5637040" lon="-4.7856800">
        <ele>691.3</ele>
        <time>2019-05-25T14:33:18Z</time>
      </trkpt>
      <trkpt lat="41.5637480" lon="-4.7856440">
        <ele>691.3</ele>
        <time>2019-05-25T14:33:19Z</time>
      </trkpt>
      <trkpt lat="41.5637950" lon="-4.7856090">
        <ele>691.4</ele>
        <time>2019-05-25T14:33:20Z</time>
      </trkpt>
      <trkpt lat="41.5638660" lon="-4.7855840">
        <ele>691.6</ele>
        <time>2019-05-25T14:33:21Z</time>
      </trkpt>
      <trkpt lat="41.5639130" lon="-4.7855540">
        <ele>691.7</ele>
        <time>2019-05-25T14:33:22Z</time>
      </trkpt>
      <trkpt lat="41.5639550" lon="-4.7855190">
        <ele>691.8</ele>
        <time>2019-05-25T14:33:23Z</time>
      </trkpt>
      <trkpt lat="41.5639970" lon="-4.7854870">
        <ele>691.9</ele>
        <time>2019-05-25T14:33:24Z</time>
      </trkpt>
      <trkpt lat="41.5640380" lon="-4.7854490">
        <ele>691.9</ele>
        <time>2019-05-25T14:33:25Z</time>
      </trkpt>
      <trkpt lat="41.5640800" lon="-4.7854200">
        <ele>692.0</ele>
        <time>2019-05-25T14:33:26Z</time>
      </trkpt>
      <trkpt lat="41.5641240" lon="-4.7853920">
        <ele>692.0</ele>
        <time>2019-05-25T14:33:27Z</time>
      </trkpt>
      <trkpt lat="41.5641660" lon="-4.7853610">
        <ele>692.1</ele>
        <time>2019-05-25T14:33:28Z</time>
      </trkpt>
      <trkpt lat="41.5642100" lon="-4.7853330">
        <ele>692.1</ele>
        <time>2019-05-25T14:33:29Z</time>
      </trkpt>
      <trkpt lat="41.5642520" lon="-4.7853010">
        <ele>692.1</ele>
        <time>2019-05-25T14:33:30Z</time>
      </trkpt>
      <trkpt lat="41.5642930" lon="-4.7852690">
        <ele>692.1</ele>
        <time>2019-05-25T14:33:31Z</time>
      </trkpt>
      <trkpt lat="41.5643350" lon="-4.7852280">
        <ele>692.1</ele>
        <time>2019-05-25T14:33:32Z</time>
      </trkpt>
      <trkpt lat="41.5643750" lon="-4.7851950">
        <ele>692.1</ele>
        <time>2019-05-25T14:33:33Z</time>
      </trkpt>
      <trkpt lat="41.5644180" lon="-4.7851620">
        <ele>692.1</ele>
        <time>2019-05-25T14:33:34Z</time>
      </trkpt>
      <trkpt lat="41.5644550" lon="-4.7851260">
        <ele>692.1</ele>
        <time>2019-05-25T14:33:35Z</time>
      </trkpt>
      <trkpt lat="41.5645000" lon="-4.7851050">
        <ele>692.1</ele>
        <time>2019-05-25T14:33:36Z</time>
      </trkpt>
      <trkpt lat="41.5645370" lon="-4.7850820">
        <ele>692.1</ele>
        <time>2019-05-25T14:33:37Z</time>
      </trkpt>
      <trkpt lat="41.5645810" lon="-4.7850550">
        <ele>692.1</ele>
        <time>2019-05-25T14:33:38Z</time>
      </trkpt>
      <trkpt lat="41.5646190" lon="-4.7850270">
        <ele>692.1</ele>
        <time>2019-05-25T14:33:39Z</time>
      </trkpt>
      <trkpt lat="41.5646610" lon="-4.7849860">
        <ele>692.1</ele>
        <time>2019-05-25T14:33:40Z</time>
      </trkpt>
      <trkpt lat="41.5646970" lon="-4.7849510">
        <ele>692.1</ele>
        <time>2019-05-25T14:33:41Z</time>
      </trkpt>
      <trkpt lat="41.5647380" lon="-4.7849250">
        <ele>692.1</ele>
        <time>2019-05-25T14:33:42Z</time>
      </trkpt>
      <trkpt lat="41.5647750" lon="-4.7848910">
        <ele>692.1</ele>
        <time>2019-05-25T14:33:43Z</time>
      </trkpt>
      <trkpt lat="41.5648140" lon="-4.7848510">
        <ele>692.1</ele>
        <time>2019-05-25T14:33:44Z</time>
      </trkpt>
      <trkpt lat="41.5648490" lon="-4.7848220">
        <ele>692.1</ele>
        <time>2019-05-25T14:33:45Z</time>
      </trkpt>
      <trkpt lat="41.5648870" lon="-4.7847870">
        <ele>692.1</ele>
        <time>2019-05-25T14:33:46Z</time>
      </trkpt>
      <trkpt lat="41.5649340" lon="-4.7847570">
        <ele>692.1</ele>
        <time>2019-05-25T14:33:47Z</time>
      </trkpt>
      <trkpt lat="41.5649700" lon="-4.7847260">
        <ele>692.1</ele>
        <time>2019-05-25T14:33:48Z</time>
      </trkpt>
      <trkpt lat="41.5650130" lon="-4.7846940">
        <ele>692.1</ele>
        <time>2019-05-25T14:33:49Z</time>
      </trkpt>
      <trkpt lat="41.5650490" lon="-4.7846620">
        <ele>692.1</ele>
        <time>2019-05-25T14:33:50Z</time>
      </trkpt>
      <trkpt lat="41.5650940" lon="-4.7846300">
        <ele>692.1</ele>
        <time>2019-05-25T14:33:51Z</time>
      </trkpt>
      <trkpt lat="41.5651390" lon="-4.7845870">
        <ele>692.0</ele>
        <time>2019-05-25T14:33:52Z</time>
      </trkpt>
      <trkpt lat="41.5651810" lon="-4.7845520">
        <ele>692.0</ele>
        <time>2019-05-25T14:33:53Z</time>
      </trkpt>
      <trkpt lat="41.5652180" lon="-4.7845060">
        <ele>692.0</ele>
        <time>2019-05-25T14:33:54Z</time>
      </trkpt>
      <trkpt lat="41.5652530" lon="-4.7844680">
        <ele>692.0</ele>
        <time>2019-05-25T14:33:55Z</time>
      </trkpt>
      <trkpt lat="41.5652940" lon="-4.7844340">
        <ele>692.0</ele>
        <time>2019-05-25T14:33:56Z</time>
      </trkpt>
      <trkpt lat="41.5653360" lon="-4.7843970">
        <ele>692.0</ele>
        <time>2019-05-25T14:33:57Z</time>
      </trkpt>
      <trkpt lat="41.5653700" lon="-4.7843530">
        <ele>692.0</ele>
        <time>2019-05-25T14:33:58Z</time>
      </trkpt>
      <trkpt lat="41.5654050" lon="-4.7843050">
        <ele>692.0</ele>
        <time>2019-05-25T14:33:59Z</time>
      </trkpt>
      <trkpt lat="41.5654380" lon="-4.7842650">
        <ele>692.0</ele>
        <time>2019-05-25T14:34:00Z</time>
      </trkpt>
      <trkpt lat="41.5654690" lon="-4.7842370">
        <ele>692.0</ele>
        <time>2019-05-25T14:34:01Z</time>
      </trkpt>
      <trkpt lat="41.5655150" lon="-4.7841990">
        <ele>692.0</ele>
        <time>2019-05-25T14:34:02Z</time>
      </trkpt>
      <trkpt lat="41.5655480" lon="-4.7841610">
        <ele>692.0</ele>
        <time>2019-05-25T14:34:03Z</time>
      </trkpt>
      <trkpt lat="41.5655870" lon="-4.7841210">
        <ele>692.0</ele>
        <time>2019-05-25T14:34:04Z</time>
      </trkpt>
      <trkpt lat="41.5656180" lon="-4.7840800">
        <ele>692.0</ele>
        <time>2019-05-25T14:34:05Z</time>
      </trkpt>
      <trkpt lat="41.5656520" lon="-4.7840470">
        <ele>692.0</ele>
        <time>2019-05-25T14:34:06Z</time>
      </trkpt>
      <trkpt lat="41.5657010" lon="-4.7840170">
        <ele>692.0</ele>
        <time>2019-05-25T14:34:07Z</time>
      </trkpt>
      <trkpt lat="41.5657400" lon="-4.7839880">
        <ele>692.0</ele>
        <time>2019-05-25T14:34:08Z</time>
      </trkpt>
      <trkpt lat="41.5657830" lon="-4.7839600">
        <ele>692.0</ele>
        <time>2019-05-25T14:34:09Z</time>
      </trkpt>
      <trkpt lat="41.5658190" lon="-4.7839270">
        <ele>692.0</ele>
        <time>2019-05-25T14:34:10Z</time>
      </trkpt>
      <trkpt lat="41.5658570" lon="-4.7838960">
        <ele>692.0</ele>
        <time>2019-05-25T14:34:11Z</time>
      </trkpt>
      <trkpt lat="41.5658970" lon="-4.7838610">
        <ele>692.0</ele>
        <time>2019-05-25T14:34:12Z</time>
      </trkpt>
      <trkpt lat="41.5659380" lon="-4.7838280">
        <ele>692.0</ele>
        <time>2019-05-25T14:34:13Z</time>
      </trkpt>
      <trkpt lat="41.5659810" lon="-4.7837940">
        <ele>692.0</ele>
        <time>2019-05-25T14:34:14Z</time>
      </trkpt>
      <trkpt lat="41.5660210" lon="-4.7837470">
        <ele>692.0</ele>
        <time>2019-05-25T14:34:15Z</time>
      </trkpt>
      <trkpt lat="41.5660610" lon="-4.7837290">
        <ele>692.0</ele>
        <time>2019-05-25T14:34:16Z</time>
      </trkpt>
      <trkpt lat="41.5661010" lon="-4.7836940">
        <ele>692.0</ele>
        <time>2019-05-25T14:34:17Z</time>
      </trkpt>
      <trkpt lat="41.5661400" lon="-4.7836730">
        <ele>692.0</ele>
        <time>2019-05-25T14:34:18Z</time>
      </trkpt>
      <trkpt lat="41.5661750" lon="-4.7836360">
        <ele>692.0</ele>
        <time>2019-05-25T14:34:19Z</time>
      </trkpt>
      <trkpt lat="41.5662100" lon="-4.7835980">
        <ele>692.0</ele>
        <time>2019-05-25T14:34:20Z</time>
      </trkpt>
      <trkpt lat="41.5662490" lon="-4.7835690">
        <ele>692.0</ele>
        <time>2019-05-25T14:34:21Z</time>
      </trkpt>
      <trkpt lat="41.5662840" lon="-4.7835410">
        <ele>692.0</ele>
        <time>2019-05-25T14:34:22Z</time>
      </trkpt>
      <trkpt lat="41.5663230" lon="-4.7835040">
        <ele>692.0</ele>
        <time>2019-05-25T14:34:23Z</time>
      </trkpt>
      <trkpt lat="41.5663730" lon="-4.7834640">
        <ele>692.0</ele>
        <time>2019-05-25T14:34:24Z</time>
      </trkpt>
      <trkpt lat="41.5664110" lon="-4.7834330">
        <ele>692.0</ele>
        <time>2019-05-25T14:34:25Z</time>
      </trkpt>
      <trkpt lat="41.5664550" lon="-4.7834040">
        <ele>692.0</ele>
        <time>2019-05-25T14:34:26Z</time>
      </trkpt>
      <trkpt lat="41.5664990" lon="-4.7833630">
        <ele>692.0</ele>
        <time>2019-05-25T14:34:27Z</time>
      </trkpt>
      <trkpt lat="41.5665410" lon="-4.7833220">
        <ele>692.0</ele>
        <time>2019-05-25T14:34:28Z</time>
      </trkpt>
      <trkpt lat="41.5665710" lon="-4.7832730">
        <ele>692.0</ele>
        <time>2019-05-25T14:34:29Z</time>
      </trkpt>
      <trkpt lat="41.5666110" lon="-4.7832360">
        <ele>692.0</ele>
        <time>2019-05-25T14:34:30Z</time>
      </trkpt>
      <trkpt lat="41.5666520" lon="-4.7832070">
        <ele>692.0</ele>
        <time>2019-05-25T14:34:31Z</time>
      </trkpt>
      <trkpt lat="41.5666900" lon="-4.7831720">
        <ele>692.0</ele>
        <time>2019-05-25T14:34:32Z</time>
      </trkpt>
      <trkpt lat="41.5667310" lon="-4.7831370">
        <ele>691.9</ele>
        <time>2019-05-25T14:34:33Z</time>
      </trkpt>
      <trkpt lat="41.5667690" lon="-4.7831060">
        <ele>691.9</ele>
        <time>2019-05-25T14:34:34Z</time>
      </trkpt>
      <trkpt lat="41.5668170" lon="-4.7830690">
        <ele>691.9</ele>
        <time>2019-05-25T14:34:35Z</time>
      </trkpt>
      <trkpt lat="41.5668700" lon="-4.7830390">
        <ele>691.9</ele>
        <time>2019-05-25T14:34:36Z</time>
      </trkpt>
      <trkpt lat="41.5669110" lon="-4.7830080">
        <ele>691.9</ele>
        <time>2019-05-25T14:34:37Z</time>
      </trkpt>
      <trkpt lat="41.5669500" lon="-4.7829690">
        <ele>691.9</ele>
        <time>2019-05-25T14:34:38Z</time>
      </trkpt>
      <trkpt lat="41.5669900" lon="-4.7829330">
        <ele>691.9</ele>
        <time>2019-05-25T14:34:39Z</time>
      </trkpt>
      <trkpt lat="41.5670210" lon="-4.7829040">
        <ele>691.9</ele>
        <time>2019-05-25T14:34:40Z</time>
      </trkpt>
      <trkpt lat="41.5670580" lon="-4.7828540">
        <ele>691.9</ele>
        <time>2019-05-25T14:34:41Z</time>
      </trkpt>
      <trkpt lat="41.5670900" lon="-4.7828170">
        <ele>691.9</ele>
        <time>2019-05-25T14:34:42Z</time>
      </trkpt>
      <trkpt lat="41.5671200" lon="-4.7827780">
        <ele>691.9</ele>
        <time>2019-05-25T14:34:43Z</time>
      </trkpt>
      <trkpt lat="41.5671620" lon="-4.7827360">
        <ele>691.9</ele>
        <time>2019-05-25T14:34:44Z</time>
      </trkpt>
      <trkpt lat="41.5672040" lon="-4.7827150">
        <ele>691.9</ele>
        <time>2019-05-25T14:34:45Z</time>
      </trkpt>
      <trkpt lat="41.5672380" lon="-4.7826660">
        <ele>691.9</ele>
        <time>2019-05-25T14:34:46Z</time>
      </trkpt>
      <trkpt lat="41.5672840" lon="-4.7826230">
        <ele>691.9</ele>
        <time>2019-05-25T14:34:47Z</time>
      </trkpt>
      <trkpt lat="41.5673280" lon="-4.7825820">
        <ele>691.9</ele>
        <time>2019-05-25T14:34:48Z</time>
      </trkpt>
      <trkpt lat="41.5673690" lon="-4.7825320">
        <ele>691.9</ele>
        <time>2019-05-25T14:34:49Z</time>
      </trkpt>
      <trkpt lat="41.5674170" lon="-4.7824970">
        <ele>691.9</ele>
        <time>2019-05-25T14:34:50Z</time>
      </trkpt>
      <trkpt lat="41.5674650" lon="-4.7824730">
        <ele>691.9</ele>
        <time>2019-05-25T14:34:51Z</time>
      </trkpt>
      <trkpt lat="41.5675140" lon="-4.7824160">
        <ele>691.9</ele>
        <time>2019-05-25T14:34:52Z</time>
      </trkpt>
      <trkpt lat="41.5675580" lon="-4.7823540">
        <ele>691.9</ele>
        <time>2019-05-25T14:34:53Z</time>
      </trkpt>
      <trkpt lat="41.5676300" lon="-4.7822910">
        <ele>691.9</ele>
        <time>2019-05-25T14:34:54Z</time>
      </trkpt>
      <trkpt lat="41.5676710" lon="-4.7822170">
        <ele>691.9</ele>
        <time>2019-05-25T14:34:55Z</time>
      </trkpt>
      <trkpt lat="41.5677170" lon="-4.7821520">
        <ele>691.9</ele>
        <time>2019-05-25T14:34:56Z</time>
      </trkpt>
      <trkpt lat="41.5677680" lon="-4.7820730">
        <ele>691.9</ele>
        <time>2019-05-25T14:34:57Z</time>
      </trkpt>
      <trkpt lat="41.5678160" lon="-4.7820210">
        <ele>691.9</ele>
        <time>2019-05-25T14:34:58Z</time>
      </trkpt>
      <trkpt lat="41.5678590" lon="-4.7819650">
        <ele>691.9</ele>
        <time>2019-05-25T14:34:59Z</time>
      </trkpt>
      <trkpt lat="41.5678970" lon="-4.7819070">
        <ele>691.9</ele>
        <time>2019-05-25T14:35:00Z</time>
      </trkpt>
      <trkpt lat="41.5679320" lon="-4.7818530">
        <ele>691.9</ele>
        <time>2019-05-25T14:35:01Z</time>
      </trkpt>
      <trkpt lat="41.5679770" lon="-4.7818050">
        <ele>691.9</ele>
        <time>2019-05-25T14:35:02Z</time>
      </trkpt>
      <trkpt lat="41.5680390" lon="-4.7817440">
        <ele>691.9</ele>
        <time>2019-05-25T14:35:03Z</time>
      </trkpt>
      <trkpt lat="41.5680840" lon="-4.7816750">
        <ele>691.9</ele>
        <time>2019-05-25T14:35:04Z</time>
      </trkpt>
      <trkpt lat="41.5681320" lon="-4.7816050">
        <ele>691.9</ele>
        <time>2019-05-25T14:35:05Z</time>
      </trkpt>
      <trkpt lat="41.5681790" lon="-4.7815290">
        <ele>691.9</ele>
        <time>2019-05-25T14:35:06Z</time>
      </trkpt>
      <trkpt lat="41.5682360" lon="-4.7814590">
        <ele>692.0</ele>
        <time>2019-05-25T14:35:07Z</time>
      </trkpt>
      <trkpt lat="41.5682650" lon="-4.7813860">
        <ele>692.2</ele>
        <time>2019-05-25T14:35:08Z</time>
      </trkpt>
      <trkpt lat="41.5683200" lon="-4.7813210">
        <ele>692.4</ele>
        <time>2019-05-25T14:35:09Z</time>
      </trkpt>
      <trkpt lat="41.5683580" lon="-4.7812520">
        <ele>692.5</ele>
        <time>2019-05-25T14:35:10Z</time>
      </trkpt>
      <trkpt lat="41.5683990" lon="-4.7811720">
        <ele>692.7</ele>
        <time>2019-05-25T14:35:11Z</time>
      </trkpt>
      <trkpt lat="41.5684210" lon="-4.7811060">
        <ele>692.8</ele>
        <time>2019-05-25T14:35:12Z</time>
      </trkpt>
      <trkpt lat="41.5684520" lon="-4.7810440">
        <ele>692.8</ele>
        <time>2019-05-25T14:35:13Z</time>
      </trkpt>
      <trkpt lat="41.5684960" lon="-4.7809880">
        <ele>692.9</ele>
        <time>2019-05-25T14:35:14Z</time>
      </trkpt>
      <trkpt lat="41.5685420" lon="-4.7809090">
        <ele>692.9</ele>
        <time>2019-05-25T14:35:15Z</time>
      </trkpt>
      <trkpt lat="41.5685700" lon="-4.7808380">
        <ele>692.9</ele>
        <time>2019-05-25T14:35:16Z</time>
      </trkpt>
      <trkpt lat="41.5686110" lon="-4.7807850">
        <ele>692.9</ele>
        <time>2019-05-25T14:35:17Z</time>
      </trkpt>
      <trkpt lat="41.5686610" lon="-4.7807180">
        <ele>692.9</ele>
        <time>2019-05-25T14:35:18Z</time>
      </trkpt>
      <trkpt lat="41.5687140" lon="-4.7806510">
        <ele>692.9</ele>
        <time>2019-05-25T14:35:19Z</time>
      </trkpt>
      <trkpt lat="41.5687530" lon="-4.7805690">
        <ele>692.9</ele>
        <time>2019-05-25T14:35:20Z</time>
      </trkpt>
      <trkpt lat="41.5687840" lon="-4.7805030">
        <ele>692.9</ele>
        <time>2019-05-25T14:35:21Z</time>
      </trkpt>
      <trkpt lat="41.5688400" lon="-4.7804250">
        <ele>692.9</ele>
        <time>2019-05-25T14:35:22Z</time>
      </trkpt>
      <trkpt lat="41.5688900" lon="-4.7803630">
        <ele>692.9</ele>
        <time>2019-05-25T14:35:23Z</time>
      </trkpt>
      <trkpt lat="41.5689310" lon="-4.7802970">
        <ele>692.9</ele>
        <time>2019-05-25T14:35:24Z</time>
      </trkpt>
      <trkpt lat="41.5689900" lon="-4.7802390">
        <ele>692.9</ele>
        <time>2019-05-25T14:35:25Z</time>
      </trkpt>
      <trkpt lat="41.5690530" lon="-4.7801810">
        <ele>692.9</ele>
        <time>2019-05-25T14:35:26Z</time>
      </trkpt>
      <trkpt lat="41.5690850" lon="-4.7801100">
        <ele>692.9</ele>
        <time>2019-05-25T14:35:27Z</time>
      </trkpt>
      <trkpt lat="41.5691370" lon="-4.7800400">
        <ele>692.9</ele>
        <time>2019-05-25T14:35:28Z</time>
      </trkpt>
      <trkpt lat="41.5691770" lon="-4.7799920">
        <ele>692.9</ele>
        <time>2019-05-25T14:35:29Z</time>
      </trkpt>
      <trkpt lat="41.5692050" lon="-4.7799300">
        <ele>692.9</ele>
        <time>2019-05-25T14:35:30Z</time>
      </trkpt>
      <trkpt lat="41.5692890" lon="-4.7798550">
        <ele>692.9</ele>
        <time>2019-05-25T14:35:31Z</time>
      </trkpt>
      <trkpt lat="41.5693210" lon="-4.7798090">
        <ele>692.9</ele>
        <time>2019-05-25T14:35:32Z</time>
      </trkpt>
      <trkpt lat="41.5693560" lon="-4.7797530">
        <ele>693.0</ele>
        <time>2019-05-25T14:35:33Z</time>
      </trkpt>
      <trkpt lat="41.5693840" lon="-4.7796710">
        <ele>693.1</ele>
        <time>2019-05-25T14:35:34Z</time>
      </trkpt>
      <trkpt lat="41.5694390" lon="-4.7795820">
        <ele>693.3</ele>
        <time>2019-05-25T14:35:35Z</time>
      </trkpt>
      <trkpt lat="41.5694600" lon="-4.7795240">
        <ele>693.4</ele>
        <time>2019-05-25T14:35:36Z</time>
      </trkpt>
      <trkpt lat="41.5694990" lon="-4.7794690">
        <ele>693.5</ele>
        <time>2019-05-25T14:35:37Z</time>
      </trkpt>
      <trkpt lat="41.5695340" lon="-4.7794150">
        <ele>693.6</ele>
        <time>2019-05-25T14:35:38Z</time>
      </trkpt>
      <trkpt lat="41.5695590" lon="-4.7793670">
        <ele>693.7</ele>
        <time>2019-05-25T14:35:39Z</time>
      </trkpt>
      <trkpt lat="41.5695860" lon="-4.7793040">
        <ele>693.8</ele>
        <time>2019-05-25T14:35:40Z</time>
      </trkpt>
      <trkpt lat="41.5696210" lon="-4.7792590">
        <ele>693.9</ele>
        <time>2019-05-25T14:35:41Z</time>
      </trkpt>
      <trkpt lat="41.5696820" lon="-4.7791750">
        <ele>694.1</ele>
        <time>2019-05-25T14:35:42Z</time>
      </trkpt>
      <trkpt lat="41.5697310" lon="-4.7791370">
        <ele>694.2</ele>
        <time>2019-05-25T14:35:43Z</time>
      </trkpt>
      <trkpt lat="41.5697930" lon="-4.7791150">
        <ele>694.4</ele>
        <time>2019-05-25T14:35:44Z</time>
      </trkpt>
      <trkpt lat="41.5698100" lon="-4.7790320">
        <ele>694.5</ele>
        <time>2019-05-25T14:35:45Z</time>
      </trkpt>
      <trkpt lat="41.5698440" lon="-4.7789810">
        <ele>694.6</ele>
        <time>2019-05-25T14:35:46Z</time>
      </trkpt>
      <trkpt lat="41.5698690" lon="-4.7789160">
        <ele>694.6</ele>
        <time>2019-05-25T14:35:47Z</time>
      </trkpt>
      <trkpt lat="41.5698940" lon="-4.7788540">
        <ele>694.7</ele>
        <time>2019-05-25T14:35:48Z</time>
      </trkpt>
      <trkpt lat="41.5699240" lon="-4.7788050">
        <ele>694.7</ele>
        <time>2019-05-25T14:35:49Z</time>
      </trkpt>
      <trkpt lat="41.5699660" lon="-4.7787570">
        <ele>694.7</ele>
        <time>2019-05-25T14:35:50Z</time>
      </trkpt>
      <trkpt lat="41.5699990" lon="-4.7787120">
        <ele>694.7</ele>
        <time>2019-05-25T14:35:51Z</time>
      </trkpt>
      <trkpt lat="41.5700290" lon="-4.7786620">
        <ele>694.7</ele>
        <time>2019-05-25T14:35:52Z</time>
      </trkpt>
      <trkpt lat="41.5700680" lon="-4.7786050">
        <ele>694.7</ele>
        <time>2019-05-25T14:35:53Z</time>
      </trkpt>
      <trkpt lat="41.5701010" lon="-4.7785540">
        <ele>694.7</ele>
        <time>2019-05-25T14:35:54Z</time>
      </trkpt>
      <trkpt lat="41.5701540" lon="-4.7784860">
        <ele>694.8</ele>
        <time>2019-05-25T14:35:55Z</time>
      </trkpt>
      <trkpt lat="41.5701880" lon="-4.7784330">
        <ele>694.8</ele>
        <time>2019-05-25T14:35:56Z</time>
      </trkpt>
      <trkpt lat="41.5702370" lon="-4.7783820">
        <ele>694.9</ele>
        <time>2019-05-25T14:35:57Z</time>
      </trkpt>
      <trkpt lat="41.5702780" lon="-4.7783330">
        <ele>695.1</ele>
        <time>2019-05-25T14:35:58Z</time>
      </trkpt>
      <trkpt lat="41.5703130" lon="-4.7782720">
        <ele>695.2</ele>
        <time>2019-05-25T14:35:59Z</time>
      </trkpt>
      <trkpt lat="41.5703570" lon="-4.7782050">
        <ele>695.4</ele>
        <time>2019-05-25T14:36:00Z</time>
      </trkpt>
      <trkpt lat="41.5703870" lon="-4.7781500">
        <ele>695.5</ele>
        <time>2019-05-25T14:36:01Z</time>
      </trkpt>
      <trkpt lat="41.5704290" lon="-4.7780860">
        <ele>695.6</ele>
        <time>2019-05-25T14:36:02Z</time>
      </trkpt>
      <trkpt lat="41.5704530" lon="-4.7780290">
        <ele>695.6</ele>
        <time>2019-05-25T14:36:03Z</time>
      </trkpt>
      <trkpt lat="41.5705080" lon="-4.7779870">
        <ele>695.7</ele>
        <time>2019-05-25T14:36:04Z</time>
      </trkpt>
      <trkpt lat="41.5705410" lon="-4.7779290">
        <ele>695.7</ele>
        <time>2019-05-25T14:36:05Z</time>
      </trkpt>
      <trkpt lat="41.5705770" lon="-4.7778720">
        <ele>695.8</ele>
        <time>2019-05-25T14:36:06Z</time>
      </trkpt>
      <trkpt lat="41.5706330" lon="-4.7778060">
        <ele>695.9</ele>
        <time>2019-05-25T14:36:07Z</time>
      </trkpt>
      <trkpt lat="41.5706860" lon="-4.7777500">
        <ele>696.1</ele>
        <time>2019-05-25T14:36:08Z</time>
      </trkpt>
      <trkpt lat="41.5707170" lon="-4.7776920">
        <ele>696.2</ele>
        <time>2019-05-25T14:36:09Z</time>
      </trkpt>
      <trkpt lat="41.5707560" lon="-4.7776320">
        <ele>696.3</ele>
        <time>2019-05-25T14:36:10Z</time>
      </trkpt>
      <trkpt lat="41.5707880" lon="-4.7775680">
        <ele>696.5</ele>
        <time>2019-05-25T14:36:11Z</time>
      </trkpt>
      <trkpt lat="41.5708240" lon="-4.7775100">
        <ele>696.6</ele>
        <time>2019-05-25T14:36:12Z</time>
      </trkpt>
      <trkpt lat="41.5708550" lon="-4.7774510">
        <ele>696.7</ele>
        <time>2019-05-25T14:36:13Z</time>
      </trkpt>
      <trkpt lat="41.5709020" lon="-4.7774070">
        <ele>696.8</ele>
        <time>2019-05-25T14:36:14Z</time>
      </trkpt>
      <trkpt lat="41.5709430" lon="-4.7773550">
        <ele>697.0</ele>
        <time>2019-05-25T14:36:15Z</time>
      </trkpt>
      <trkpt lat="41.5709560" lon="-4.7772980">
        <ele>697.1</ele>
        <time>2019-05-25T14:36:16Z</time>
      </trkpt>
      <trkpt lat="41.5709980" lon="-4.7772380">
        <ele>697.3</ele>
        <time>2019-05-25T14:36:17Z</time>
      </trkpt>
      <trkpt lat="41.5710280" lon="-4.7771910">
        <ele>697.4</ele>
        <time>2019-05-25T14:36:18Z</time>
      </trkpt>
      <trkpt lat="41.5710550" lon="-4.7771370">
        <ele>697.5</ele>
        <time>2019-05-25T14:36:19Z</time>
      </trkpt>
      <trkpt lat="41.5710860" lon="-4.7770770">
        <ele>697.6</ele>
        <time>2019-05-25T14:36:20Z</time>
      </trkpt>
      <trkpt lat="41.5711150" lon="-4.7770290">
        <ele>697.6</ele>
        <time>2019-05-25T14:36:21Z</time>
      </trkpt>
      <trkpt lat="41.5711530" lon="-4.7769790">
        <ele>697.7</ele>
        <time>2019-05-25T14:36:22Z</time>
      </trkpt>
      <trkpt lat="41.5711880" lon="-4.7769210">
        <ele>697.7</ele>
        <time>2019-05-25T14:36:23Z</time>
      </trkpt>
      <trkpt lat="41.5712200" lon="-4.7768640">
        <ele>697.7</ele>
        <time>2019-05-25T14:36:24Z</time>
      </trkpt>
      <trkpt lat="41.5712570" lon="-4.7768000">
        <ele>697.7</ele>
        <time>2019-05-25T14:36:25Z</time>
      </trkpt>
      <trkpt lat="41.5713000" lon="-4.7767590">
        <ele>697.7</ele>
        <time>2019-05-25T14:36:26Z</time>
      </trkpt>
      <trkpt lat="41.5713240" lon="-4.7766980">
        <ele>697.7</ele>
        <time>2019-05-25T14:36:27Z</time>
      </trkpt>
      <trkpt lat="41.5713650" lon="-4.7766400">
        <ele>697.7</ele>
        <time>2019-05-25T14:36:28Z</time>
      </trkpt>
      <trkpt lat="41.5714030" lon="-4.7765860">
        <ele>697.8</ele>
        <time>2019-05-25T14:36:29Z</time>
      </trkpt>
      <trkpt lat="41.5714430" lon="-4.7765400">
        <ele>697.9</ele>
        <time>2019-05-25T14:36:30Z</time>
      </trkpt>
      <trkpt lat="41.5714790" lon="-4.7764950">
        <ele>698.0</ele>
        <time>2019-05-25T14:36:31Z</time>
      </trkpt>
      <trkpt lat="41.5715280" lon="-4.7764530">
        <ele>698.1</ele>
        <time>2019-05-25T14:36:32Z</time>
      </trkpt>
      <trkpt lat="41.5715690" lon="-4.7763900">
        <ele>698.2</ele>
        <time>2019-05-25T14:36:33Z</time>
      </trkpt>
      <trkpt lat="41.5716180" lon="-4.7763470">
        <ele>698.3</ele>
        <time>2019-05-25T14:36:34Z</time>
      </trkpt>
      <trkpt lat="41.5716510" lon="-4.7762950">
        <ele>698.4</ele>
        <time>2019-05-25T14:36:35Z</time>
      </trkpt>
      <trkpt lat="41.5716760" lon="-4.7762350">
        <ele>698.5</ele>
        <time>2019-05-25T14:36:36Z</time>
      </trkpt>
      <trkpt lat="41.5717170" lon="-4.7761700">
        <ele>698.5</ele>
        <time>2019-05-25T14:36:37Z</time>
      </trkpt>
      <trkpt lat="41.5717440" lon="-4.7761130">
        <ele>698.5</ele>
        <time>2019-05-25T14:36:38Z</time>
      </trkpt>
      <trkpt lat="41.5717790" lon="-4.7760610">
        <ele>698.5</ele>
        <time>2019-05-25T14:36:39Z</time>
      </trkpt>
      <trkpt lat="41.5718250" lon="-4.7760050">
        <ele>698.5</ele>
        <time>2019-05-25T14:36:40Z</time>
      </trkpt>
      <trkpt lat="41.5718570" lon="-4.7759540">
        <ele>698.5</ele>
        <time>2019-05-25T14:36:41Z</time>
      </trkpt>
      <trkpt lat="41.5719260" lon="-4.7759230">
        <ele>698.5</ele>
        <time>2019-05-25T14:36:42Z</time>
      </trkpt>
      <trkpt lat="41.5719570" lon="-4.7758660">
        <ele>698.5</ele>
        <time>2019-05-25T14:36:43Z</time>
      </trkpt>
      <trkpt lat="41.5720160" lon="-4.7758060">
        <ele>698.5</ele>
        <time>2019-05-25T14:36:44Z</time>
      </trkpt>
      <trkpt lat="41.5720570" lon="-4.7757770">
        <ele>698.5</ele>
        <time>2019-05-25T14:36:45Z</time>
      </trkpt>
      <trkpt lat="41.5721480" lon="-4.7755870">
        <ele>698.5</ele>
        <time>2019-05-25T14:36:48Z</time>
      </trkpt>
      <trkpt lat="41.5721830" lon="-4.7755240">
        <ele>698.5</ele>
        <time>2019-05-25T14:36:49Z</time>
      </trkpt>
      <trkpt lat="41.5722080" lon="-4.7754720">
        <ele>698.5</ele>
        <time>2019-05-25T14:36:50Z</time>
      </trkpt>
      <trkpt lat="41.5722480" lon="-4.7754220">
        <ele>698.5</ele>
        <time>2019-05-25T14:36:51Z</time>
      </trkpt>
      <trkpt lat="41.5722710" lon="-4.7753680">
        <ele>698.5</ele>
        <time>2019-05-25T14:36:52Z</time>
      </trkpt>
      <trkpt lat="41.5723030" lon="-4.7753110">
        <ele>698.5</ele>
        <time>2019-05-25T14:36:53Z</time>
      </trkpt>
      <trkpt lat="41.5723410" lon="-4.7752650">
        <ele>698.5</ele>
        <time>2019-05-25T14:36:54Z</time>
      </trkpt>
      <trkpt lat="41.5723780" lon="-4.7752070">
        <ele>698.5</ele>
        <time>2019-05-25T14:36:55Z</time>
      </trkpt>
      <trkpt lat="41.5724170" lon="-4.7751620">
        <ele>698.5</ele>
        <time>2019-05-25T14:36:56Z</time>
      </trkpt>
      <trkpt lat="41.5724540" lon="-4.7751180">
        <ele>698.5</ele>
        <time>2019-05-25T14:36:57Z</time>
      </trkpt>
      <trkpt lat="41.5724940" lon="-4.7750630">
        <ele>698.5</ele>
        <time>2019-05-25T14:36:58Z</time>
      </trkpt>
      <trkpt lat="41.5725340" lon="-4.7750180">
        <ele>698.5</ele>
        <time>2019-05-25T14:36:59Z</time>
      </trkpt>
      <trkpt lat="41.5725560" lon="-4.7749620">
        <ele>698.5</ele>
        <time>2019-05-25T14:37:00Z</time>
      </trkpt>
      <trkpt lat="41.5725890" lon="-4.7749050">
        <ele>698.5</ele>
        <time>2019-05-25T14:37:01Z</time>
      </trkpt>
      <trkpt lat="41.5726220" lon="-4.7748560">
        <ele>698.5</ele>
        <time>2019-05-25T14:37:02Z</time>
      </trkpt>
      <trkpt lat="41.5726510" lon="-4.7748020">
        <ele>698.5</ele>
        <time>2019-05-25T14:37:03Z</time>
      </trkpt>
      <trkpt lat="41.5726930" lon="-4.7747490">
        <ele>698.5</ele>
        <time>2019-05-25T14:37:04Z</time>
      </trkpt>
      <trkpt lat="41.5727330" lon="-4.7746950">
        <ele>698.5</ele>
        <time>2019-05-25T14:37:05Z</time>
      </trkpt>
      <trkpt lat="41.5727770" lon="-4.7746460">
        <ele>698.5</ele>
        <time>2019-05-25T14:37:06Z</time>
      </trkpt>
      <trkpt lat="41.5728300" lon="-4.7745930">
        <ele>698.5</ele>
        <time>2019-05-25T14:37:07Z</time>
      </trkpt>
      <trkpt lat="41.5728610" lon="-4.7745480">
        <ele>698.5</ele>
        <time>2019-05-25T14:37:08Z</time>
      </trkpt>
      <trkpt lat="41.5729060" lon="-4.7744910">
        <ele>698.5</ele>
        <time>2019-05-25T14:37:09Z</time>
      </trkpt>
      <trkpt lat="41.5729370" lon="-4.7744310">
        <ele>699.5</ele>
        <time>2019-05-25T14:37:10Z</time>
      </trkpt>
      <trkpt lat="41.5729580" lon="-4.7743670">
        <ele>699.6</ele>
        <time>2019-05-25T14:37:11Z</time>
      </trkpt>
      <trkpt lat="41.5730050" lon="-4.7743130">
        <ele>699.6</ele>
        <time>2019-05-25T14:37:12Z</time>
      </trkpt>
      <trkpt lat="41.5730300" lon="-4.7742560">
        <ele>699.6</ele>
        <time>2019-05-25T14:37:13Z</time>
      </trkpt>
      <trkpt lat="41.5730740" lon="-4.7742200">
        <ele>699.6</ele>
        <time>2019-05-25T14:37:14Z</time>
      </trkpt>
      <trkpt lat="41.5731160" lon="-4.7741520">
        <ele>699.6</ele>
        <time>2019-05-25T14:37:15Z</time>
      </trkpt>
      <trkpt lat="41.5731570" lon="-4.7741020">
        <ele>699.6</ele>
        <time>2019-05-25T14:37:16Z</time>
      </trkpt>
      <trkpt lat="41.5731960" lon="-4.7740420">
        <ele>699.6</ele>
        <time>2019-05-25T14:37:17Z</time>
      </trkpt>
      <trkpt lat="41.5732380" lon="-4.7739920">
        <ele>699.6</ele>
        <time>2019-05-25T14:37:18Z</time>
      </trkpt>
      <trkpt lat="41.5732790" lon="-4.7739400">
        <ele>699.6</ele>
        <time>2019-05-25T14:37:19Z</time>
      </trkpt>
      <trkpt lat="41.5733100" lon="-4.7738830">
        <ele>699.6</ele>
        <time>2019-05-25T14:37:20Z</time>
      </trkpt>
      <trkpt lat="41.5733480" lon="-4.7738150">
        <ele>699.6</ele>
        <time>2019-05-25T14:37:21Z</time>
      </trkpt>
      <trkpt lat="41.5733840" lon="-4.7737560">
        <ele>699.6</ele>
        <time>2019-05-25T14:37:22Z</time>
      </trkpt>
      <trkpt lat="41.5734290" lon="-4.7737040">
        <ele>699.4</ele>
        <time>2019-05-25T14:37:23Z</time>
      </trkpt>
      <trkpt lat="41.5734630" lon="-4.7736450">
        <ele>699.3</ele>
        <time>2019-05-25T14:37:24Z</time>
      </trkpt>
      <trkpt lat="41.5735010" lon="-4.7735890">
        <ele>699.2</ele>
        <time>2019-05-25T14:37:25Z</time>
      </trkpt>
      <trkpt lat="41.5735430" lon="-4.7735320">
        <ele>699.1</ele>
        <time>2019-05-25T14:37:26Z</time>
      </trkpt>
      <trkpt lat="41.5735840" lon="-4.7734760">
        <ele>699.0</ele>
        <time>2019-05-25T14:37:27Z</time>
      </trkpt>
      <trkpt lat="41.5736230" lon="-4.7734250">
        <ele>699.0</ele>
        <time>2019-05-25T14:37:28Z</time>
      </trkpt>
      <trkpt lat="41.5736640" lon="-4.7733730">
        <ele>699.0</ele>
        <time>2019-05-25T14:37:29Z</time>
      </trkpt>
      <trkpt lat="41.5736930" lon="-4.7733120">
        <ele>699.0</ele>
        <time>2019-05-25T14:37:30Z</time>
      </trkpt>
      <trkpt lat="41.5737280" lon="-4.7732360">
        <ele>699.0</ele>
        <time>2019-05-25T14:37:31Z</time>
      </trkpt>
      <trkpt lat="41.5737610" lon="-4.7731670">
        <ele>699.0</ele>
        <time>2019-05-25T14:37:32Z</time>
      </trkpt>
      <trkpt lat="41.5737990" lon="-4.7731130">
        <ele>699.0</ele>
        <time>2019-05-25T14:37:33Z</time>
      </trkpt>
      <trkpt lat="41.5738390" lon="-4.7730550">
        <ele>699.1</ele>
        <time>2019-05-25T14:37:34Z</time>
      </trkpt>
      <trkpt lat="41.5738800" lon="-4.7730040">
        <ele>699.1</ele>
        <time>2019-05-25T14:37:35Z</time>
      </trkpt>
      <trkpt lat="41.5739140" lon="-4.7729440">
        <ele>699.1</ele>
        <time>2019-05-25T14:37:36Z</time>
      </trkpt>
      <trkpt lat="41.5739370" lon="-4.7729080">
        <ele>699.1</ele>
        <time>2019-05-25T14:37:37Z</time>
      </trkpt>
      <trkpt lat="41.5739950" lon="-4.7727730">
        <ele>699.2</ele>
        <time>2019-05-25T14:37:39Z</time>
      </trkpt>
      <trkpt lat="41.5740320" lon="-4.7727470">
        <ele>699.3</ele>
        <time>2019-05-25T14:37:40Z</time>
      </trkpt>
      <trkpt lat="41.5740420" lon="-4.7727030">
        <ele>699.3</ele>
        <time>2019-05-25T14:37:41Z</time>
      </trkpt>
      <trkpt lat="41.5740770" lon="-4.7726360">
        <ele>699.4</ele>
        <time>2019-05-25T14:37:42Z</time>
      </trkpt>
      <trkpt lat="41.5741230" lon="-4.7725650">
        <ele>699.4</ele>
        <time>2019-05-25T14:37:43Z</time>
      </trkpt>
      <trkpt lat="41.5741700" lon="-4.7724930">
        <ele>699.5</ele>
        <time>2019-05-25T14:37:44Z</time>
      </trkpt>
      <trkpt lat="41.5742170" lon="-4.7724320">
        <ele>699.5</ele>
        <time>2019-05-25T14:37:45Z</time>
      </trkpt>
      <trkpt lat="41.5742620" lon="-4.7723670">
        <ele>699.6</ele>
        <time>2019-05-25T14:37:46Z</time>
      </trkpt>
      <trkpt lat="41.5743030" lon="-4.7723030">
        <ele>699.6</ele>
        <time>2019-05-25T14:37:47Z</time>
      </trkpt>
      <trkpt lat="41.5743470" lon="-4.7722380">
        <ele>699.7</ele>
        <time>2019-05-25T14:37:48Z</time>
      </trkpt>
      <trkpt lat="41.5743630" lon="-4.7721640">
        <ele>699.8</ele>
        <time>2019-05-25T14:37:49Z</time>
      </trkpt>
      <trkpt lat="41.5744060" lon="-4.7721430">
        <ele>699.9</ele>
        <time>2019-05-25T14:37:50Z</time>
      </trkpt>
      <trkpt lat="41.5744450" lon="-4.7721020">
        <ele>700.0</ele>
        <time>2019-05-25T14:37:51Z</time>
      </trkpt>
      <trkpt lat="41.5744950" lon="-4.7720500">
        <ele>700.1</ele>
        <time>2019-05-25T14:37:52Z</time>
      </trkpt>
      <trkpt lat="41.5745280" lon="-4.7719990">
        <ele>700.2</ele>
        <time>2019-05-25T14:37:53Z</time>
      </trkpt>
      <trkpt lat="41.5745600" lon="-4.7719430">
        <ele>700.2</ele>
        <time>2019-05-25T14:37:54Z</time>
      </trkpt>
      <trkpt lat="41.5746190" lon="-4.7718940">
        <ele>700.2</ele>
        <time>2019-05-25T14:37:55Z</time>
      </trkpt>
      <trkpt lat="41.5746500" lon="-4.7718450">
        <ele>700.2</ele>
        <time>2019-05-25T14:37:56Z</time>
      </trkpt>
      <trkpt lat="41.5747020" lon="-4.7717770">
        <ele>700.1</ele>
        <time>2019-05-25T14:37:57Z</time>
      </trkpt>
      <trkpt lat="41.5747360" lon="-4.7717150">
        <ele>700.0</ele>
        <time>2019-05-25T14:37:58Z</time>
      </trkpt>
      <trkpt lat="41.5747660" lon="-4.7716560">
        <ele>699.9</ele>
        <time>2019-05-25T14:37:59Z</time>
      </trkpt>
      <trkpt lat="41.5748070" lon="-4.7715990">
        <ele>699.7</ele>
        <time>2019-05-25T14:38:00Z</time>
      </trkpt>
      <trkpt lat="41.5748410" lon="-4.7715300">
        <ele>699.6</ele>
        <time>2019-05-25T14:38:01Z</time>
      </trkpt>
      <trkpt lat="41.5748820" lon="-4.7714700">
        <ele>699.4</ele>
        <time>2019-05-25T14:38:02Z</time>
      </trkpt>
      <trkpt lat="41.5749230" lon="-4.7714040">
        <ele>699.3</ele>
        <time>2019-05-25T14:38:03Z</time>
      </trkpt>
      <trkpt lat="41.5749620" lon="-4.7713430">
        <ele>699.3</ele>
        <time>2019-05-25T14:38:04Z</time>
      </trkpt>
      <trkpt lat="41.5750010" lon="-4.7712880">
        <ele>699.3</ele>
        <time>2019-05-25T14:38:05Z</time>
      </trkpt>
      <trkpt lat="41.5750630" lon="-4.7712380">
        <ele>699.3</ele>
        <time>2019-05-25T14:38:06Z</time>
      </trkpt>
      <trkpt lat="41.5750960" lon="-4.7711810">
        <ele>699.3</ele>
        <time>2019-05-25T14:38:07Z</time>
      </trkpt>
      <trkpt lat="41.5751580" lon="-4.7711420">
        <ele>699.3</ele>
        <time>2019-05-25T14:38:08Z</time>
      </trkpt>
      <trkpt lat="41.5752060" lon="-4.7710860">
        <ele>699.3</ele>
        <time>2019-05-25T14:38:09Z</time>
      </trkpt>
      <trkpt lat="41.5752480" lon="-4.7710310">
        <ele>699.3</ele>
        <time>2019-05-25T14:38:10Z</time>
      </trkpt>
      <trkpt lat="41.5752880" lon="-4.7709790">
        <ele>699.3</ele>
        <time>2019-05-25T14:38:11Z</time>
      </trkpt>
      <trkpt lat="41.5753210" lon="-4.7709160">
        <ele>699.3</ele>
        <time>2019-05-25T14:38:12Z</time>
      </trkpt>
      <trkpt lat="41.5753540" lon="-4.7708620">
        <ele>699.3</ele>
        <time>2019-05-25T14:38:13Z</time>
      </trkpt>
      <trkpt lat="41.5753900" lon="-4.7708050">
        <ele>699.2</ele>
        <time>2019-05-25T14:38:14Z</time>
      </trkpt>
      <trkpt lat="41.5754310" lon="-4.7707520">
        <ele>699.2</ele>
        <time>2019-05-25T14:38:15Z</time>
      </trkpt>
      <trkpt lat="41.5754580" lon="-4.7707150">
        <ele>699.2</ele>
        <time>2019-05-25T14:38:16Z</time>
      </trkpt>
      <trkpt lat="41.5754780" lon="-4.7706710">
        <ele>699.2</ele>
        <time>2019-05-25T14:38:18Z</time>
      </trkpt>
      <trkpt lat="41.5755770" lon="-4.7704330">
        <ele>699.3</ele>
        <time>2019-05-25T14:38:20Z</time>
      </trkpt>
      <trkpt lat="41.5756040" lon="-4.7703910">
        <ele>699.3</ele>
        <time>2019-05-25T14:38:21Z</time>
      </trkpt>
      <trkpt lat="41.5756840" lon="-4.7703590">
        <ele>699.4</ele>
        <time>2019-05-25T14:38:22Z</time>
      </trkpt>
      <trkpt lat="41.5757620" lon="-4.7702170">
        <ele>699.4</ele>
        <time>2019-05-25T14:38:23Z</time>
      </trkpt>
      <trkpt lat="41.5757660" lon="-4.7701810">
        <ele>699.4</ele>
        <time>2019-05-25T14:38:24Z</time>
      </trkpt>
      <trkpt lat="41.5758090" lon="-4.7701030">
        <ele>699.5</ele>
        <time>2019-05-25T14:38:26Z</time>
      </trkpt>
      <trkpt lat="41.5758560" lon="-4.7700580">
        <ele>699.6</ele>
        <time>2019-05-25T14:38:27Z</time>
      </trkpt>
      <trkpt lat="41.5759160" lon="-4.7700230">
        <ele>699.7</ele>
        <time>2019-05-25T14:38:28Z</time>
      </trkpt>
      <trkpt lat="41.5759590" lon="-4.7699800">
        <ele>699.7</ele>
        <time>2019-05-25T14:38:29Z</time>
      </trkpt>
      <trkpt lat="41.5760000" lon="-4.7699290">
        <ele>699.8</ele>
        <time>2019-05-25T14:38:30Z</time>
      </trkpt>
      <trkpt lat="41.5760310" lon="-4.7698720">
        <ele>699.8</ele>
        <time>2019-05-25T14:38:31Z</time>
      </trkpt>
      <trkpt lat="41.5760710" lon="-4.7698420">
        <ele>699.9</ele>
        <time>2019-05-25T14:38:32Z</time>
      </trkpt>
      <trkpt lat="41.5761140" lon="-4.7697750">
        <ele>699.9</ele>
        <time>2019-05-25T14:38:33Z</time>
      </trkpt>
      <trkpt lat="41.5761490" lon="-4.7697170">
        <ele>699.9</ele>
        <time>2019-05-25T14:38:34Z</time>
      </trkpt>
      <trkpt lat="41.5761890" lon="-4.7696490">
        <ele>699.9</ele>
        <time>2019-05-25T14:38:35Z</time>
      </trkpt>
      <trkpt lat="41.5762330" lon="-4.7695860">
        <ele>699.9</ele>
        <time>2019-05-25T14:38:36Z</time>
      </trkpt>
      <trkpt lat="41.5762580" lon="-4.7695290">
        <ele>699.9</ele>
        <time>2019-05-25T14:38:37Z</time>
      </trkpt>
      <trkpt lat="41.5762970" lon="-4.7694700">
        <ele>699.9</ele>
        <time>2019-05-25T14:38:38Z</time>
      </trkpt>
      <trkpt lat="41.5763480" lon="-4.7694350">
        <ele>699.9</ele>
        <time>2019-05-25T14:38:39Z</time>
      </trkpt>
      <trkpt lat="41.5763870" lon="-4.7693860">
        <ele>700.0</ele>
        <time>2019-05-25T14:38:40Z</time>
      </trkpt>
      <trkpt lat="41.5764150" lon="-4.7693490">
        <ele>700.0</ele>
        <time>2019-05-25T14:38:41Z</time>
      </trkpt>
      <trkpt lat="41.5764920" lon="-4.7692050">
        <ele>700.0</ele>
        <time>2019-05-25T14:38:43Z</time>
      </trkpt>
      <trkpt lat="41.5765540" lon="-4.7690960">
        <ele>700.0</ele>
        <time>2019-05-25T14:38:45Z</time>
      </trkpt>
      <trkpt lat="41.5765960" lon="-4.7690350">
        <ele>700.0</ele>
        <time>2019-05-25T14:38:46Z</time>
      </trkpt>
      <trkpt lat="41.5766500" lon="-4.7690010">
        <ele>700.0</ele>
        <time>2019-05-25T14:38:47Z</time>
      </trkpt>
      <trkpt lat="41.5766740" lon="-4.7689600">
        <ele>699.9</ele>
        <time>2019-05-25T14:38:48Z</time>
      </trkpt>
      <trkpt lat="41.5767060" lon="-4.7688900">
        <ele>699.9</ele>
        <time>2019-05-25T14:38:50Z</time>
      </trkpt>
      <trkpt lat="41.5767370" lon="-4.7688330">
        <ele>699.9</ele>
        <time>2019-05-25T14:38:51Z</time>
      </trkpt>
      <trkpt lat="41.5767760" lon="-4.7687760">
        <ele>699.8</ele>
        <time>2019-05-25T14:38:52Z</time>
      </trkpt>
      <trkpt lat="41.5768240" lon="-4.7687090">
        <ele>699.8</ele>
        <time>2019-05-25T14:38:53Z</time>
      </trkpt>
      <trkpt lat="41.5768950" lon="-4.7686170">
        <ele>699.8</ele>
        <time>2019-05-25T14:38:54Z</time>
      </trkpt>
      <trkpt lat="41.5769530" lon="-4.7685300">
        <ele>699.8</ele>
        <time>2019-05-25T14:38:55Z</time>
      </trkpt>
      <trkpt lat="41.5769900" lon="-4.7684610">
        <ele>699.8</ele>
        <time>2019-05-25T14:38:56Z</time>
      </trkpt>
      <trkpt lat="41.5770230" lon="-4.7683960">
        <ele>699.7</ele>
        <time>2019-05-25T14:38:57Z</time>
      </trkpt>
      <trkpt lat="41.5770670" lon="-4.7683470">
        <ele>699.7</ele>
        <time>2019-05-25T14:38:58Z</time>
      </trkpt>
      <trkpt lat="41.5771000" lon="-4.7683060">
        <ele>699.7</ele>
        <time>2019-05-25T14:38:59Z</time>
      </trkpt>
      <trkpt lat="41.5771390" lon="-4.7682450">
        <ele>699.7</ele>
        <time>2019-05-25T14:39:00Z</time>
      </trkpt>
      <trkpt lat="41.5771840" lon="-4.7681860">
        <ele>699.7</ele>
        <time>2019-05-25T14:39:01Z</time>
      </trkpt>
      <trkpt lat="41.5772170" lon="-4.7681350">
        <ele>699.7</ele>
        <time>2019-05-25T14:39:02Z</time>
      </trkpt>
      <trkpt lat="41.5772620" lon="-4.7680850">
        <ele>699.7</ele>
        <time>2019-05-25T14:39:03Z</time>
      </trkpt>
      <trkpt lat="41.5773040" lon="-4.7680290">
        <ele>699.7</ele>
        <time>2019-05-25T14:39:04Z</time>
      </trkpt>
      <trkpt lat="41.5773440" lon="-4.7679720">
        <ele>699.8</ele>
        <time>2019-05-25T14:39:05Z</time>
      </trkpt>
      <trkpt lat="41.5773720" lon="-4.7679110">
        <ele>699.8</ele>
        <time>2019-05-25T14:39:06Z</time>
      </trkpt>
      <trkpt lat="41.5774010" lon="-4.7678490">
        <ele>699.9</ele>
        <time>2019-05-25T14:39:07Z</time>
      </trkpt>
      <trkpt lat="41.5774350" lon="-4.7678090">
        <ele>699.9</ele>
        <time>2019-05-25T14:39:08Z</time>
      </trkpt>
      <trkpt lat="41.5774860" lon="-4.7677400">
        <ele>699.9</ele>
        <time>2019-05-25T14:39:10Z</time>
      </trkpt>
      <trkpt lat="41.5775290" lon="-4.7676770">
        <ele>699.9</ele>
        <time>2019-05-25T14:39:11Z</time>
      </trkpt>
      <trkpt lat="41.5775660" lon="-4.7676200">
        <ele>699.9</ele>
        <time>2019-05-25T14:39:12Z</time>
      </trkpt>
      <trkpt lat="41.5776080" lon="-4.7675560">
        <ele>699.9</ele>
        <time>2019-05-25T14:39:13Z</time>
      </trkpt>
      <trkpt lat="41.5776580" lon="-4.7674890">
        <ele>699.9</ele>
        <time>2019-05-25T14:39:14Z</time>
      </trkpt>
      <trkpt lat="41.5777080" lon="-4.7674280">
        <ele>699.9</ele>
        <time>2019-05-25T14:39:15Z</time>
      </trkpt>
      <trkpt lat="41.5777560" lon="-4.7673680">
        <ele>699.9</ele>
        <time>2019-05-25T14:39:16Z</time>
      </trkpt>
      <trkpt lat="41.5778040" lon="-4.7673100">
        <ele>700.0</ele>
        <time>2019-05-25T14:39:17Z</time>
      </trkpt>
      <trkpt lat="41.5778480" lon="-4.7672490">
        <ele>700.1</ele>
        <time>2019-05-25T14:39:18Z</time>
      </trkpt>
      <trkpt lat="41.5778880" lon="-4.7671970">
        <ele>700.1</ele>
        <time>2019-05-25T14:39:19Z</time>
      </trkpt>
      <trkpt lat="41.5779230" lon="-4.7671490">
        <ele>700.2</ele>
        <time>2019-05-25T14:39:20Z</time>
      </trkpt>
      <trkpt lat="41.5779570" lon="-4.7671040">
        <ele>700.2</ele>
        <time>2019-05-25T14:39:21Z</time>
      </trkpt>
      <trkpt lat="41.5779960" lon="-4.7670560">
        <ele>700.2</ele>
        <time>2019-05-25T14:39:22Z</time>
      </trkpt>
      <trkpt lat="41.5780340" lon="-4.7670060">
        <ele>700.2</ele>
        <time>2019-05-25T14:39:23Z</time>
      </trkpt>
      <trkpt lat="41.5780790" lon="-4.7669510">
        <ele>700.2</ele>
        <time>2019-05-25T14:39:24Z</time>
      </trkpt>
      <trkpt lat="41.5781210" lon="-4.7669000">
        <ele>700.2</ele>
        <time>2019-05-25T14:39:25Z</time>
      </trkpt>
      <trkpt lat="41.5781610" lon="-4.7668520">
        <ele>700.2</ele>
        <time>2019-05-25T14:39:26Z</time>
      </trkpt>
      <trkpt lat="41.5782010" lon="-4.7668020">
        <ele>700.2</ele>
        <time>2019-05-25T14:39:27Z</time>
      </trkpt>
      <trkpt lat="41.5782380" lon="-4.7667480">
        <ele>700.3</ele>
        <time>2019-05-25T14:39:28Z</time>
      </trkpt>
      <trkpt lat="41.5782780" lon="-4.7666880">
        <ele>700.3</ele>
        <time>2019-05-25T14:39:29Z</time>
      </trkpt>
      <trkpt lat="41.5783030" lon="-4.7666490">
        <ele>700.4</ele>
        <time>2019-05-25T14:39:30Z</time>
      </trkpt>
      <trkpt lat="41.5783180" lon="-4.7666190">
        <ele>700.4</ele>
        <time>2019-05-25T14:39:31Z</time>
      </trkpt>
      <trkpt lat="41.5783370" lon="-4.7665830">
        <ele>700.5</ele>
        <time>2019-05-25T14:39:32Z</time>
      </trkpt>
      <trkpt lat="41.5783560" lon="-4.7665400">
        <ele>700.6</ele>
        <time>2019-05-25T14:39:33Z</time>
      </trkpt>
      <trkpt lat="41.5783760" lon="-4.7664940">
        <ele>700.6</ele>
        <time>2019-05-25T14:39:34Z</time>
      </trkpt>
      <trkpt lat="41.5784040" lon="-4.7664490">
        <ele>700.7</ele>
        <time>2019-05-25T14:39:35Z</time>
      </trkpt>
      <trkpt lat="41.5784330" lon="-4.7663980">
        <ele>700.8</ele>
        <time>2019-05-25T14:39:36Z</time>
      </trkpt>
      <trkpt lat="41.5784620" lon="-4.7663480">
        <ele>700.9</ele>
        <time>2019-05-25T14:39:37Z</time>
      </trkpt>
      <trkpt lat="41.5784970" lon="-4.7662960">
        <ele>700.9</ele>
        <time>2019-05-25T14:39:38Z</time>
      </trkpt>
      <trkpt lat="41.5785370" lon="-4.7662430">
        <ele>700.9</ele>
        <time>2019-05-25T14:39:39Z</time>
      </trkpt>
      <trkpt lat="41.5785790" lon="-4.7661980">
        <ele>700.9</ele>
        <time>2019-05-25T14:39:40Z</time>
      </trkpt>
      <trkpt lat="41.5786190" lon="-4.7661470">
        <ele>701.0</ele>
        <time>2019-05-25T14:39:41Z</time>
      </trkpt>
      <trkpt lat="41.5786560" lon="-4.7660860">
        <ele>701.0</ele>
        <time>2019-05-25T14:39:42Z</time>
      </trkpt>
      <trkpt lat="41.5786970" lon="-4.7660260">
        <ele>701.0</ele>
        <time>2019-05-25T14:39:43Z</time>
      </trkpt>
      <trkpt lat="41.5787360" lon="-4.7659660">
        <ele>700.9</ele>
        <time>2019-05-25T14:39:44Z</time>
      </trkpt>
      <trkpt lat="41.5787830" lon="-4.7659060">
        <ele>700.9</ele>
        <time>2019-05-25T14:39:45Z</time>
      </trkpt>
      <trkpt lat="41.5788410" lon="-4.7658130">
        <ele>700.9</ele>
        <time>2019-05-25T14:39:46Z</time>
      </trkpt>
      <trkpt lat="41.5788940" lon="-4.7657340">
        <ele>701.0</ele>
        <time>2019-05-25T14:39:47Z</time>
      </trkpt>
      <trkpt lat="41.5789280" lon="-4.7656760">
        <ele>701.0</ele>
        <time>2019-05-25T14:39:48Z</time>
      </trkpt>
      <trkpt lat="41.5789830" lon="-4.7656230">
        <ele>701.1</ele>
        <time>2019-05-25T14:39:49Z</time>
      </trkpt>
      <trkpt lat="41.5790210" lon="-4.7655620">
        <ele>701.2</ele>
        <time>2019-05-25T14:39:50Z</time>
      </trkpt>
      <trkpt lat="41.5790670" lon="-4.7655070">
        <ele>701.3</ele>
        <time>2019-05-25T14:39:51Z</time>
      </trkpt>
      <trkpt lat="41.5791090" lon="-4.7654580">
        <ele>701.3</ele>
        <time>2019-05-25T14:39:52Z</time>
      </trkpt>
      <trkpt lat="41.5791480" lon="-4.7654070">
        <ele>701.4</ele>
        <time>2019-05-25T14:39:53Z</time>
      </trkpt>
      <trkpt lat="41.5791740" lon="-4.7653610">
        <ele>701.5</ele>
        <time>2019-05-25T14:39:54Z</time>
      </trkpt>
      <trkpt lat="41.5792120" lon="-4.7653140">
        <ele>701.5</ele>
        <time>2019-05-25T14:39:55Z</time>
      </trkpt>
      <trkpt lat="41.5792720" lon="-4.7652640">
        <ele>701.6</ele>
        <time>2019-05-25T14:39:56Z</time>
      </trkpt>
      <trkpt lat="41.5793230" lon="-4.7652090">
        <ele>701.6</ele>
        <time>2019-05-25T14:39:57Z</time>
      </trkpt>
      <trkpt lat="41.5793670" lon="-4.7651630">
        <ele>701.6</ele>
        <time>2019-05-25T14:39:58Z</time>
      </trkpt>
      <trkpt lat="41.5794130" lon="-4.7651150">
        <ele>701.7</ele>
        <time>2019-05-25T14:39:59Z</time>
      </trkpt>
      <trkpt lat="41.5794550" lon="-4.7650840">
        <ele>701.7</ele>
        <time>2019-05-25T14:40:00Z</time>
      </trkpt>
      <trkpt lat="41.5795070" lon="-4.7650500">
        <ele>701.7</ele>
        <time>2019-05-25T14:40:01Z</time>
      </trkpt>
      <trkpt lat="41.5795570" lon="-4.7650150">
        <ele>701.7</ele>
        <time>2019-05-25T14:40:02Z</time>
      </trkpt>
      <trkpt lat="41.5796010" lon="-4.7649770">
        <ele>701.7</ele>
        <time>2019-05-25T14:40:03Z</time>
      </trkpt>
      <trkpt lat="41.5796470" lon="-4.7649320">
        <ele>701.7</ele>
        <time>2019-05-25T14:40:04Z</time>
      </trkpt>
      <trkpt lat="41.5796850" lon="-4.7648850">
        <ele>701.7</ele>
        <time>2019-05-25T14:40:05Z</time>
      </trkpt>
      <trkpt lat="41.5797120" lon="-4.7648290">
        <ele>701.7</ele>
        <time>2019-05-25T14:40:06Z</time>
      </trkpt>
      <trkpt lat="41.5797370" lon="-4.7647710">
        <ele>701.8</ele>
        <time>2019-05-25T14:40:07Z</time>
      </trkpt>
      <trkpt lat="41.5797650" lon="-4.7647280">
        <ele>701.8</ele>
        <time>2019-05-25T14:40:08Z</time>
      </trkpt>
      <trkpt lat="41.5797900" lon="-4.7646940">
        <ele>701.8</ele>
        <time>2019-05-25T14:40:10Z</time>
      </trkpt>
      <trkpt lat="41.5798530" lon="-4.7645810">
        <ele>702.0</ele>
        <time>2019-05-25T14:40:12Z</time>
      </trkpt>
      <trkpt lat="41.5799180" lon="-4.7644710">
        <ele>702.1</ele>
        <time>2019-05-25T14:40:13Z</time>
      </trkpt>
      <trkpt lat="41.5799780" lon="-4.7643320">
        <ele>702.2</ele>
        <time>2019-05-25T14:40:14Z</time>
      </trkpt>
      <trkpt lat="41.5800210" lon="-4.7642760">
        <ele>702.3</ele>
        <time>2019-05-25T14:40:15Z</time>
      </trkpt>
      <trkpt lat="41.5800680" lon="-4.7642220">
        <ele>702.3</ele>
        <time>2019-05-25T14:40:16Z</time>
      </trkpt>
      <trkpt lat="41.5800980" lon="-4.7641570">
        <ele>702.4</ele>
        <time>2019-05-25T14:40:17Z</time>
      </trkpt>
      <trkpt lat="41.5801230" lon="-4.7641090">
        <ele>702.4</ele>
        <time>2019-05-25T14:40:18Z</time>
      </trkpt>
      <trkpt lat="41.5801720" lon="-4.7640500">
        <ele>702.4</ele>
        <time>2019-05-25T14:40:19Z</time>
      </trkpt>
      <trkpt lat="41.5802140" lon="-4.7640080">
        <ele>702.5</ele>
        <time>2019-05-25T14:40:20Z</time>
      </trkpt>
      <trkpt lat="41.5802600" lon="-4.7639650">
        <ele>702.5</ele>
        <time>2019-05-25T14:40:21Z</time>
      </trkpt>
      <trkpt lat="41.5803000" lon="-4.7639270">
        <ele>702.5</ele>
        <time>2019-05-25T14:40:22Z</time>
      </trkpt>
      <trkpt lat="41.5803440" lon="-4.7638830">
        <ele>702.6</ele>
        <time>2019-05-25T14:40:23Z</time>
      </trkpt>
      <trkpt lat="41.5803890" lon="-4.7638330">
        <ele>702.6</ele>
        <time>2019-05-25T14:40:24Z</time>
      </trkpt>
      <trkpt lat="41.5804210" lon="-4.7637910">
        <ele>702.6</ele>
        <time>2019-05-25T14:40:25Z</time>
      </trkpt>
      <trkpt lat="41.5804620" lon="-4.7637450">
        <ele>702.6</ele>
        <time>2019-05-25T14:40:26Z</time>
      </trkpt>
      <trkpt lat="41.5805200" lon="-4.7637010">
        <ele>702.7</ele>
        <time>2019-05-25T14:40:27Z</time>
      </trkpt>
      <trkpt lat="41.5805800" lon="-4.7636620">
        <ele>702.7</ele>
        <time>2019-05-25T14:40:28Z</time>
      </trkpt>
      <trkpt lat="41.5806350" lon="-4.7636260">
        <ele>702.8</ele>
        <time>2019-05-25T14:40:29Z</time>
      </trkpt>
      <trkpt lat="41.5806850" lon="-4.7635870">
        <ele>702.8</ele>
        <time>2019-05-25T14:40:30Z</time>
      </trkpt>
      <trkpt lat="41.5807370" lon="-4.7635470">
        <ele>702.9</ele>
        <time>2019-05-25T14:40:31Z</time>
      </trkpt>
      <trkpt lat="41.5807850" lon="-4.7635060">
        <ele>702.9</ele>
        <time>2019-05-25T14:40:32Z</time>
      </trkpt>
      <trkpt lat="41.5808350" lon="-4.7634640">
        <ele>702.9</ele>
        <time>2019-05-25T14:40:33Z</time>
      </trkpt>
      <trkpt lat="41.5809130" lon="-4.7634440">
        <ele>702.9</ele>
        <time>2019-05-25T14:40:34Z</time>
      </trkpt>
      <trkpt lat="41.5809780" lon="-4.7634070">
        <ele>702.9</ele>
        <time>2019-05-25T14:40:35Z</time>
      </trkpt>
      <trkpt lat="41.5810300" lon="-4.7633660">
        <ele>702.8</ele>
        <time>2019-05-25T14:40:36Z</time>
      </trkpt>
      <trkpt lat="41.5810810" lon="-4.7633260">
        <ele>702.8</ele>
        <time>2019-05-25T14:40:37Z</time>
      </trkpt>
      <trkpt lat="41.5811280" lon="-4.7632830">
        <ele>702.8</ele>
        <time>2019-05-25T14:40:38Z</time>
      </trkpt>
      <trkpt lat="41.5812000" lon="-4.7632550">
        <ele>702.8</ele>
        <time>2019-05-25T14:40:39Z</time>
      </trkpt>
      <trkpt lat="41.5812510" lon="-4.7632250">
        <ele>702.8</ele>
        <time>2019-05-25T14:40:40Z</time>
      </trkpt>
      <trkpt lat="41.5813090" lon="-4.7632040">
        <ele>702.8</ele>
        <time>2019-05-25T14:40:41Z</time>
      </trkpt>
      <trkpt lat="41.5813750" lon="-4.7631830">
        <ele>702.9</ele>
        <time>2019-05-25T14:40:42Z</time>
      </trkpt>
      <trkpt lat="41.5814270" lon="-4.7631600">
        <ele>703.0</ele>
        <time>2019-05-25T14:40:43Z</time>
      </trkpt>
      <trkpt lat="41.5814940" lon="-4.7631520">
        <ele>703.2</ele>
        <time>2019-05-25T14:40:44Z</time>
      </trkpt>
      <trkpt lat="41.5815470" lon="-4.7631350">
        <ele>703.3</ele>
        <time>2019-05-25T14:40:45Z</time>
      </trkpt>
      <trkpt lat="41.5816070" lon="-4.7631250">
        <ele>703.5</ele>
        <time>2019-05-25T14:40:46Z</time>
      </trkpt>
      <trkpt lat="41.5816770" lon="-4.7631200">
        <ele>703.8</ele>
        <time>2019-05-25T14:40:47Z</time>
      </trkpt>
      <trkpt lat="41.5817550" lon="-4.7631040">
        <ele>703.8</ele>
        <time>2019-05-25T14:40:48Z</time>
      </trkpt>
      <trkpt lat="41.5818060" lon="-4.7630810">
        <ele>703.8</ele>
        <time>2019-05-25T14:40:49Z</time>
      </trkpt>
      <trkpt lat="41.5818500" lon="-4.7630420">
        <ele>703.8</ele>
        <time>2019-05-25T14:40:50Z</time>
      </trkpt>
      <trkpt lat="41.5819000" lon="-4.7630000">
        <ele>703.8</ele>
        <time>2019-05-25T14:40:51Z</time>
      </trkpt>
      <trkpt lat="41.5819450" lon="-4.7629500">
        <ele>703.8</ele>
        <time>2019-05-25T14:40:52Z</time>
      </trkpt>
      <trkpt lat="41.5819920" lon="-4.7629070">
        <ele>703.8</ele>
        <time>2019-05-25T14:40:53Z</time>
      </trkpt>
      <trkpt lat="41.5820320" lon="-4.7628520">
        <ele>703.8</ele>
        <time>2019-05-25T14:40:54Z</time>
      </trkpt>
      <trkpt lat="41.5820740" lon="-4.7628000">
        <ele>703.8</ele>
        <time>2019-05-25T14:40:55Z</time>
      </trkpt>
      <trkpt lat="41.5821140" lon="-4.7627460">
        <ele>703.8</ele>
        <time>2019-05-25T14:40:56Z</time>
      </trkpt>
      <trkpt lat="41.5821630" lon="-4.7627070">
        <ele>703.8</ele>
        <time>2019-05-25T14:40:57Z</time>
      </trkpt>
      <trkpt lat="41.5822000" lon="-4.7626580">
        <ele>703.8</ele>
        <time>2019-05-25T14:40:58Z</time>
      </trkpt>
      <trkpt lat="41.5822410" lon="-4.7626140">
        <ele>703.8</ele>
        <time>2019-05-25T14:40:59Z</time>
      </trkpt>
      <trkpt lat="41.5822800" lon="-4.7625620">
        <ele>703.8</ele>
        <time>2019-05-25T14:41:00Z</time>
      </trkpt>
      <trkpt lat="41.5823190" lon="-4.7625300">
        <ele>703.7</ele>
        <time>2019-05-25T14:41:01Z</time>
      </trkpt>
      <trkpt lat="41.5823620" lon="-4.7624850">
        <ele>703.7</ele>
        <time>2019-05-25T14:41:02Z</time>
      </trkpt>
      <trkpt lat="41.5824170" lon="-4.7624410">
        <ele>703.7</ele>
        <time>2019-05-25T14:41:03Z</time>
      </trkpt>
      <trkpt lat="41.5824540" lon="-4.7623990">
        <ele>703.7</ele>
        <time>2019-05-25T14:41:04Z</time>
      </trkpt>
      <trkpt lat="41.5824870" lon="-4.7623630">
        <ele>703.6</ele>
        <time>2019-05-25T14:41:05Z</time>
      </trkpt>
      <trkpt lat="41.5825380" lon="-4.7623240">
        <ele>703.6</ele>
        <time>2019-05-25T14:41:06Z</time>
      </trkpt>
      <trkpt lat="41.5825860" lon="-4.7622970">
        <ele>703.6</ele>
        <time>2019-05-25T14:41:07Z</time>
      </trkpt>
      <trkpt lat="41.5826520" lon="-4.7622560">
        <ele>703.5</ele>
        <time>2019-05-25T14:41:08Z</time>
      </trkpt>
      <trkpt lat="41.5826940" lon="-4.7622370">
        <ele>703.4</ele>
        <time>2019-05-25T14:41:09Z</time>
      </trkpt>
      <trkpt lat="41.5827450" lon="-4.7622040">
        <ele>703.4</ele>
        <time>2019-05-25T14:41:10Z</time>
      </trkpt>
      <trkpt lat="41.5827920" lon="-4.7621670">
        <ele>703.3</ele>
        <time>2019-05-25T14:41:11Z</time>
      </trkpt>
      <trkpt lat="41.5828400" lon="-4.7621350">
        <ele>703.1</ele>
        <time>2019-05-25T14:41:12Z</time>
      </trkpt>
      <trkpt lat="41.5828840" lon="-4.7620990">
        <ele>703.0</ele>
        <time>2019-05-25T14:41:13Z</time>
      </trkpt>
      <trkpt lat="41.5829400" lon="-4.7620730">
        <ele>702.9</ele>
        <time>2019-05-25T14:41:14Z</time>
      </trkpt>
      <trkpt lat="41.5829810" lon="-4.7620370">
        <ele>702.8</ele>
        <time>2019-05-25T14:41:15Z</time>
      </trkpt>
      <trkpt lat="41.5830230" lon="-4.7620030">
        <ele>702.7</ele>
        <time>2019-05-25T14:41:16Z</time>
      </trkpt>
      <trkpt lat="41.5830650" lon="-4.7619730">
        <ele>702.6</ele>
        <time>2019-05-25T14:41:17Z</time>
      </trkpt>
      <trkpt lat="41.5831120" lon="-4.7619470">
        <ele>702.6</ele>
        <time>2019-05-25T14:41:18Z</time>
      </trkpt>
      <trkpt lat="41.5831500" lon="-4.7619110">
        <ele>702.5</ele>
        <time>2019-05-25T14:41:19Z</time>
      </trkpt>
      <trkpt lat="41.5831960" lon="-4.7618810">
        <ele>702.5</ele>
        <time>2019-05-25T14:41:20Z</time>
      </trkpt>
      <trkpt lat="41.5832470" lon="-4.7618500">
        <ele>702.4</ele>
        <time>2019-05-25T14:41:21Z</time>
      </trkpt>
      <trkpt lat="41.5832870" lon="-4.7618190">
        <ele>702.4</ele>
        <time>2019-05-25T14:41:22Z</time>
      </trkpt>
      <trkpt lat="41.5833300" lon="-4.7617910">
        <ele>702.3</ele>
        <time>2019-05-25T14:41:23Z</time>
      </trkpt>
      <trkpt lat="41.5833640" lon="-4.7617580">
        <ele>702.3</ele>
        <time>2019-05-25T14:41:24Z</time>
      </trkpt>
      <trkpt lat="41.5834060" lon="-4.7617290">
        <ele>702.3</ele>
        <time>2019-05-25T14:41:25Z</time>
      </trkpt>
      <trkpt lat="41.5834690" lon="-4.7616880">
        <ele>702.2</ele>
        <time>2019-05-25T14:41:26Z</time>
      </trkpt>
      <trkpt lat="41.5835210" lon="-4.7616490">
        <ele>702.2</ele>
        <time>2019-05-25T14:41:27Z</time>
      </trkpt>
      <trkpt lat="41.5835690" lon="-4.7616220">
        <ele>702.2</ele>
        <time>2019-05-25T14:41:28Z</time>
      </trkpt>
      <trkpt lat="41.5836120" lon="-4.7615940">
        <ele>702.1</ele>
        <time>2019-05-25T14:41:29Z</time>
      </trkpt>
      <trkpt lat="41.5836900" lon="-4.7615310">
        <ele>702.1</ele>
        <time>2019-05-25T14:41:31Z</time>
      </trkpt>
      <trkpt lat="41.5837360" lon="-4.7615030">
        <ele>702.1</ele>
        <time>2019-05-25T14:41:32Z</time>
      </trkpt>
      <trkpt lat="41.5837760" lon="-4.7614670">
        <ele>702.0</ele>
        <time>2019-05-25T14:41:33Z</time>
      </trkpt>
      <trkpt lat="41.5838200" lon="-4.7614420">
        <ele>702.0</ele>
        <time>2019-05-25T14:41:34Z</time>
      </trkpt>
      <trkpt lat="41.5838600" lon="-4.7614150">
        <ele>702.0</ele>
        <time>2019-05-25T14:41:35Z</time>
      </trkpt>
      <trkpt lat="41.5839060" lon="-4.7613910">
        <ele>702.0</ele>
        <time>2019-05-25T14:41:36Z</time>
      </trkpt>
      <trkpt lat="41.5839440" lon="-4.7613640">
        <ele>701.9</ele>
        <time>2019-05-25T14:41:37Z</time>
      </trkpt>
      <trkpt lat="41.5839840" lon="-4.7613190">
        <ele>701.9</ele>
        <time>2019-05-25T14:41:38Z</time>
      </trkpt>
      <trkpt lat="41.5840210" lon="-4.7612820">
        <ele>701.9</ele>
        <time>2019-05-25T14:41:39Z</time>
      </trkpt>
      <trkpt lat="41.5840400" lon="-4.7612410">
        <ele>701.9</ele>
        <time>2019-05-25T14:41:40Z</time>
      </trkpt>
      <trkpt lat="41.5840900" lon="-4.7612000">
        <ele>701.9</ele>
        <time>2019-05-25T14:41:41Z</time>
      </trkpt>
      <trkpt lat="41.5841260" lon="-4.7611610">
        <ele>701.9</ele>
        <time>2019-05-25T14:41:42Z</time>
      </trkpt>
      <trkpt lat="41.5841670" lon="-4.7611290">
        <ele>701.9</ele>
        <time>2019-05-25T14:41:43Z</time>
      </trkpt>
      <trkpt lat="41.5842040" lon="-4.7610920">
        <ele>701.9</ele>
        <time>2019-05-25T14:41:44Z</time>
      </trkpt>
      <trkpt lat="41.5842410" lon="-4.7610490">
        <ele>701.9</ele>
        <time>2019-05-25T14:41:45Z</time>
      </trkpt>
      <trkpt lat="41.5842880" lon="-4.7610160">
        <ele>701.9</ele>
        <time>2019-05-25T14:41:46Z</time>
      </trkpt>
      <trkpt lat="41.5843460" lon="-4.7609810">
        <ele>702.0</ele>
        <time>2019-05-25T14:41:47Z</time>
      </trkpt>
      <trkpt lat="41.5843830" lon="-4.7609410">
        <ele>702.0</ele>
        <time>2019-05-25T14:41:48Z</time>
      </trkpt>
      <trkpt lat="41.5844330" lon="-4.7608890">
        <ele>702.0</ele>
        <time>2019-05-25T14:41:49Z</time>
      </trkpt>
      <trkpt lat="41.5844870" lon="-4.7608550">
        <ele>702.0</ele>
        <time>2019-05-25T14:41:50Z</time>
      </trkpt>
      <trkpt lat="41.5845290" lon="-4.7608260">
        <ele>702.0</ele>
        <time>2019-05-25T14:41:51Z</time>
      </trkpt>
      <trkpt lat="41.5845690" lon="-4.7607820">
        <ele>702.0</ele>
        <time>2019-05-25T14:41:52Z</time>
      </trkpt>
      <trkpt lat="41.5846030" lon="-4.7607400">
        <ele>702.0</ele>
        <time>2019-05-25T14:41:53Z</time>
      </trkpt>
      <trkpt lat="41.5846350" lon="-4.7607000">
        <ele>702.0</ele>
        <time>2019-05-25T14:41:54Z</time>
      </trkpt>
      <trkpt lat="41.5846810" lon="-4.7606670">
        <ele>702.0</ele>
        <time>2019-05-25T14:41:55Z</time>
      </trkpt>
      <trkpt lat="41.5847330" lon="-4.7606260">
        <ele>702.0</ele>
        <time>2019-05-25T14:41:56Z</time>
      </trkpt>
      <trkpt lat="41.5847640" lon="-4.7605710">
        <ele>702.0</ele>
        <time>2019-05-25T14:41:57Z</time>
      </trkpt>
      <trkpt lat="41.5848080" lon="-4.7605330">
        <ele>702.0</ele>
        <time>2019-05-25T14:41:58Z</time>
      </trkpt>
      <trkpt lat="41.5848510" lon="-4.7604830">
        <ele>702.0</ele>
        <time>2019-05-25T14:41:59Z</time>
      </trkpt>
      <trkpt lat="41.5848780" lon="-4.7604280">
        <ele>702.0</ele>
        <time>2019-05-25T14:42:00Z</time>
      </trkpt>
      <trkpt lat="41.5849180" lon="-4.7603740">
        <ele>702.0</ele>
        <time>2019-05-25T14:42:01Z</time>
      </trkpt>
      <trkpt lat="41.5849480" lon="-4.7603240">
        <ele>702.0</ele>
        <time>2019-05-25T14:42:02Z</time>
      </trkpt>
      <trkpt lat="41.5850010" lon="-4.7602900">
        <ele>702.0</ele>
        <time>2019-05-25T14:42:03Z</time>
      </trkpt>
      <trkpt lat="41.5850570" lon="-4.7602530">
        <ele>702.0</ele>
        <time>2019-05-25T14:42:04Z</time>
      </trkpt>
      <trkpt lat="41.5850980" lon="-4.7602110">
        <ele>702.0</ele>
        <time>2019-05-25T14:42:05Z</time>
      </trkpt>
      <trkpt lat="41.5851500" lon="-4.7601660">
        <ele>702.0</ele>
        <time>2019-05-25T14:42:06Z</time>
      </trkpt>
      <trkpt lat="41.5851860" lon="-4.7601140">
        <ele>702.0</ele>
        <time>2019-05-25T14:42:07Z</time>
      </trkpt>
      <trkpt lat="41.5852200" lon="-4.7600640">
        <ele>702.0</ele>
        <time>2019-05-25T14:42:08Z</time>
      </trkpt>
      <trkpt lat="41.5852740" lon="-4.7600180">
        <ele>702.0</ele>
        <time>2019-05-25T14:42:09Z</time>
      </trkpt>
      <trkpt lat="41.5853130" lon="-4.7599790">
        <ele>702.0</ele>
        <time>2019-05-25T14:42:10Z</time>
      </trkpt>
      <trkpt lat="41.5853530" lon="-4.7599370">
        <ele>702.0</ele>
        <time>2019-05-25T14:42:11Z</time>
      </trkpt>
      <trkpt lat="41.5854060" lon="-4.7599080">
        <ele>702.0</ele>
        <time>2019-05-25T14:42:12Z</time>
      </trkpt>
      <trkpt lat="41.5854500" lon="-4.7598730">
        <ele>702.0</ele>
        <time>2019-05-25T14:42:13Z</time>
      </trkpt>
      <trkpt lat="41.5854830" lon="-4.7598240">
        <ele>702.0</ele>
        <time>2019-05-25T14:42:14Z</time>
      </trkpt>
      <trkpt lat="41.5855280" lon="-4.7597830">
        <ele>702.0</ele>
        <time>2019-05-25T14:42:15Z</time>
      </trkpt>
      <trkpt lat="41.5855740" lon="-4.7597400">
        <ele>702.0</ele>
        <time>2019-05-25T14:42:16Z</time>
      </trkpt>
      <trkpt lat="41.5856180" lon="-4.7596990">
        <ele>702.0</ele>
        <time>2019-05-25T14:42:17Z</time>
      </trkpt>
      <trkpt lat="41.5856660" lon="-4.7596490">
        <ele>702.1</ele>
        <time>2019-05-25T14:42:18Z</time>
      </trkpt>
      <trkpt lat="41.5856970" lon="-4.7596100">
        <ele>702.1</ele>
        <time>2019-05-25T14:42:19Z</time>
      </trkpt>
      <trkpt lat="41.5857200" lon="-4.7595760">
        <ele>702.1</ele>
        <time>2019-05-25T14:42:20Z</time>
      </trkpt>
      <trkpt lat="41.5857590" lon="-4.7595390">
        <ele>702.1</ele>
        <time>2019-05-25T14:42:21Z</time>
      </trkpt>
      <trkpt lat="41.5858020" lon="-4.7594960">
        <ele>702.1</ele>
        <time>2019-05-25T14:42:22Z</time>
      </trkpt>
      <trkpt lat="41.5858360" lon="-4.7594610">
        <ele>702.1</ele>
        <time>2019-05-25T14:42:23Z</time>
      </trkpt>
      <trkpt lat="41.5858740" lon="-4.7594140">
        <ele>702.1</ele>
        <time>2019-05-25T14:42:24Z</time>
      </trkpt>
      <trkpt lat="41.5859050" lon="-4.7593820">
        <ele>702.1</ele>
        <time>2019-05-25T14:42:25Z</time>
      </trkpt>
      <trkpt lat="41.5859340" lon="-4.7593420">
        <ele>702.1</ele>
        <time>2019-05-25T14:42:26Z</time>
      </trkpt>
      <trkpt lat="41.5859670" lon="-4.7593130">
        <ele>702.1</ele>
        <time>2019-05-25T14:42:27Z</time>
      </trkpt>
      <trkpt lat="41.5860100" lon="-4.7592820">
        <ele>702.1</ele>
        <time>2019-05-25T14:42:28Z</time>
      </trkpt>
      <trkpt lat="41.5860530" lon="-4.7592550">
        <ele>702.1</ele>
        <time>2019-05-25T14:42:29Z</time>
      </trkpt>
      <trkpt lat="41.5861030" lon="-4.7592280">
        <ele>702.1</ele>
        <time>2019-05-25T14:42:30Z</time>
      </trkpt>
      <trkpt lat="41.5861430" lon="-4.7591970">
        <ele>702.1</ele>
        <time>2019-05-25T14:42:31Z</time>
      </trkpt>
      <trkpt lat="41.5861850" lon="-4.7591660">
        <ele>702.1</ele>
        <time>2019-05-25T14:42:32Z</time>
      </trkpt>
      <trkpt lat="41.5862190" lon="-4.7591370">
        <ele>702.1</ele>
        <time>2019-05-25T14:42:33Z</time>
      </trkpt>
      <trkpt lat="41.5862700" lon="-4.7591050">
        <ele>702.1</ele>
        <time>2019-05-25T14:42:34Z</time>
      </trkpt>
      <trkpt lat="41.5863180" lon="-4.7590700">
        <ele>702.1</ele>
        <time>2019-05-25T14:42:35Z</time>
      </trkpt>
      <trkpt lat="41.5863670" lon="-4.7590420">
        <ele>702.1</ele>
        <time>2019-05-25T14:42:36Z</time>
      </trkpt>
      <trkpt lat="41.5864170" lon="-4.7590240">
        <ele>702.1</ele>
        <time>2019-05-25T14:42:37Z</time>
      </trkpt>
      <trkpt lat="41.5864880" lon="-4.7590090">
        <ele>702.1</ele>
        <time>2019-05-25T14:42:38Z</time>
      </trkpt>
      <trkpt lat="41.5865500" lon="-4.7589910">
        <ele>702.1</ele>
        <time>2019-05-25T14:42:39Z</time>
      </trkpt>
      <trkpt lat="41.5865970" lon="-4.7589610">
        <ele>702.1</ele>
        <time>2019-05-25T14:42:40Z</time>
      </trkpt>
      <trkpt lat="41.5866420" lon="-4.7589430">
        <ele>702.1</ele>
        <time>2019-05-25T14:42:41Z</time>
      </trkpt>
      <trkpt lat="41.5867210" lon="-4.7589300">
        <ele>702.1</ele>
        <time>2019-05-25T14:42:42Z</time>
      </trkpt>
      <trkpt lat="41.5867730" lon="-4.7589070">
        <ele>702.1</ele>
        <time>2019-05-25T14:42:43Z</time>
      </trkpt>
      <trkpt lat="41.5868320" lon="-4.7588820">
        <ele>702.1</ele>
        <time>2019-05-25T14:42:44Z</time>
      </trkpt>
      <trkpt lat="41.5868890" lon="-4.7588530">
        <ele>702.1</ele>
        <time>2019-05-25T14:42:45Z</time>
      </trkpt>
      <trkpt lat="41.5869280" lon="-4.7588300">
        <ele>702.1</ele>
        <time>2019-05-25T14:42:46Z</time>
      </trkpt>
      <trkpt lat="41.5869850" lon="-4.7588170">
        <ele>702.1</ele>
        <time>2019-05-25T14:42:47Z</time>
      </trkpt>
      <trkpt lat="41.5870320" lon="-4.7587980">
        <ele>702.1</ele>
        <time>2019-05-25T14:42:48Z</time>
      </trkpt>
      <trkpt lat="41.5870870" lon="-4.7587820">
        <ele>702.1</ele>
        <time>2019-05-25T14:42:49Z</time>
      </trkpt>
      <trkpt lat="41.5871420" lon="-4.7587650">
        <ele>702.1</ele>
        <time>2019-05-25T14:42:50Z</time>
      </trkpt>
      <trkpt lat="41.5871950" lon="-4.7587480">
        <ele>702.1</ele>
        <time>2019-05-25T14:42:51Z</time>
      </trkpt>
      <trkpt lat="41.5872450" lon="-4.7587320">
        <ele>702.1</ele>
        <time>2019-05-25T14:42:52Z</time>
      </trkpt>
      <trkpt lat="41.5872950" lon="-4.7587190">
        <ele>702.1</ele>
        <time>2019-05-25T14:42:53Z</time>
      </trkpt>
      <trkpt lat="41.5873490" lon="-4.7587010">
        <ele>702.1</ele>
        <time>2019-05-25T14:42:54Z</time>
      </trkpt>
      <trkpt lat="41.5874090" lon="-4.7586880">
        <ele>702.1</ele>
        <time>2019-05-25T14:42:55Z</time>
      </trkpt>
      <trkpt lat="41.5874670" lon="-4.7586740">
        <ele>702.1</ele>
        <time>2019-05-25T14:42:56Z</time>
      </trkpt>
      <trkpt lat="41.5875190" lon="-4.7586640">
        <ele>702.1</ele>
        <time>2019-05-25T14:42:57Z</time>
      </trkpt>
      <trkpt lat="41.5875720" lon="-4.7586530">
        <ele>702.0</ele>
        <time>2019-05-25T14:42:58Z</time>
      </trkpt>
      <trkpt lat="41.5876240" lon="-4.7586420">
        <ele>702.0</ele>
        <time>2019-05-25T14:42:59Z</time>
      </trkpt>
      <trkpt lat="41.5876750" lon="-4.7586300">
        <ele>702.0</ele>
        <time>2019-05-25T14:43:00Z</time>
      </trkpt>
      <trkpt lat="41.5877510" lon="-4.7586200">
        <ele>701.9</ele>
        <time>2019-05-25T14:43:01Z</time>
      </trkpt>
      <trkpt lat="41.5877850" lon="-4.7586080">
        <ele>701.8</ele>
        <time>2019-05-25T14:43:02Z</time>
      </trkpt>
      <trkpt lat="41.5878450" lon="-4.7586080">
        <ele>701.7</ele>
        <time>2019-05-25T14:43:03Z</time>
      </trkpt>
      <trkpt lat="41.5878970" lon="-4.7586000">
        <ele>701.6</ele>
        <time>2019-05-25T14:43:04Z</time>
      </trkpt>
      <trkpt lat="41.5879480" lon="-4.7585940">
        <ele>701.5</ele>
        <time>2019-05-25T14:43:05Z</time>
      </trkpt>
      <trkpt lat="41.5880110" lon="-4.7586110">
        <ele>701.4</ele>
        <time>2019-05-25T14:43:06Z</time>
      </trkpt>
      <trkpt lat="41.5880580" lon="-4.7586300">
        <ele>701.4</ele>
        <time>2019-05-25T14:43:07Z</time>
      </trkpt>
      <trkpt lat="41.5881190" lon="-4.7586490">
        <ele>701.3</ele>
        <time>2019-05-25T14:43:08Z</time>
      </trkpt>
      <trkpt lat="41.5881680" lon="-4.7586620">
        <ele>701.3</ele>
        <time>2019-05-25T14:43:09Z</time>
      </trkpt>
      <trkpt lat="41.5882190" lon="-4.7586930">
        <ele>701.3</ele>
        <time>2019-05-25T14:43:10Z</time>
      </trkpt>
      <trkpt lat="41.5882710" lon="-4.7587130">
        <ele>701.2</ele>
        <time>2019-05-25T14:43:11Z</time>
      </trkpt>
      <trkpt lat="41.5883260" lon="-4.7587240">
        <ele>701.2</ele>
        <time>2019-05-25T14:43:12Z</time>
      </trkpt>
      <trkpt lat="41.5883830" lon="-4.7587220">
        <ele>701.2</ele>
        <time>2019-05-25T14:43:13Z</time>
      </trkpt>
      <trkpt lat="41.5884370" lon="-4.7587190">
        <ele>701.2</ele>
        <time>2019-05-25T14:43:14Z</time>
      </trkpt>
      <trkpt lat="41.5884830" lon="-4.7587020">
        <ele>701.2</ele>
        <time>2019-05-25T14:43:15Z</time>
      </trkpt>
      <trkpt lat="41.5885390" lon="-4.7586820">
        <ele>701.2</ele>
        <time>2019-05-25T14:43:16Z</time>
      </trkpt>
      <trkpt lat="41.5885890" lon="-4.7586630">
        <ele>701.2</ele>
        <time>2019-05-25T14:43:17Z</time>
      </trkpt>
      <trkpt lat="41.5886430" lon="-4.7586310">
        <ele>701.2</ele>
        <time>2019-05-25T14:43:18Z</time>
      </trkpt>
      <trkpt lat="41.5886960" lon="-4.7586070">
        <ele>701.2</ele>
        <time>2019-05-25T14:43:19Z</time>
      </trkpt>
      <trkpt lat="41.5887480" lon="-4.7585790">
        <ele>701.2</ele>
        <time>2019-05-25T14:43:20Z</time>
      </trkpt>
      <trkpt lat="41.5888040" lon="-4.7585660">
        <ele>701.2</ele>
        <time>2019-05-25T14:43:21Z</time>
      </trkpt>
      <trkpt lat="41.5888720" lon="-4.7585610">
        <ele>701.2</ele>
        <time>2019-05-25T14:43:22Z</time>
      </trkpt>
      <trkpt lat="41.5889280" lon="-4.7585510">
        <ele>701.1</ele>
        <time>2019-05-25T14:43:23Z</time>
      </trkpt>
      <trkpt lat="41.5889850" lon="-4.7585500">
        <ele>701.1</ele>
        <time>2019-05-25T14:43:24Z</time>
      </trkpt>
      <trkpt lat="41.5890390" lon="-4.7585500">
        <ele>701.0</ele>
        <time>2019-05-25T14:43:25Z</time>
      </trkpt>
      <trkpt lat="41.5890990" lon="-4.7585470">
        <ele>701.0</ele>
        <time>2019-05-25T14:43:26Z</time>
      </trkpt>
      <trkpt lat="41.5891600" lon="-4.7585500">
        <ele>700.9</ele>
        <time>2019-05-25T14:43:27Z</time>
      </trkpt>
      <trkpt lat="41.5892160" lon="-4.7585620">
        <ele>700.9</ele>
        <time>2019-05-25T14:43:28Z</time>
      </trkpt>
      <trkpt lat="41.5892660" lon="-4.7585690">
        <ele>700.8</ele>
        <time>2019-05-25T14:43:29Z</time>
      </trkpt>
      <trkpt lat="41.5893090" lon="-4.7585650">
        <ele>700.8</ele>
        <time>2019-05-25T14:43:30Z</time>
      </trkpt>
      <trkpt lat="41.5893760" lon="-4.7585570">
        <ele>700.7</ele>
        <time>2019-05-25T14:43:31Z</time>
      </trkpt>
      <trkpt lat="41.5894460" lon="-4.7585860">
        <ele>700.6</ele>
        <time>2019-05-25T14:43:32Z</time>
      </trkpt>
      <trkpt lat="41.5895000" lon="-4.7585730">
        <ele>700.6</ele>
        <time>2019-05-25T14:43:33Z</time>
      </trkpt>
      <trkpt lat="41.5895700" lon="-4.7585730">
        <ele>700.6</ele>
        <time>2019-05-25T14:43:34Z</time>
      </trkpt>
      <trkpt lat="41.5896190" lon="-4.7585620">
        <ele>700.5</ele>
        <time>2019-05-25T14:43:35Z</time>
      </trkpt>
      <trkpt lat="41.5896750" lon="-4.7585600">
        <ele>700.5</ele>
        <time>2019-05-25T14:43:36Z</time>
      </trkpt>
      <trkpt lat="41.5897280" lon="-4.7585580">
        <ele>700.5</ele>
        <time>2019-05-25T14:43:37Z</time>
      </trkpt>
      <trkpt lat="41.5897890" lon="-4.7585540">
        <ele>700.5</ele>
        <time>2019-05-25T14:43:38Z</time>
      </trkpt>
      <trkpt lat="41.5898370" lon="-4.7585510">
        <ele>700.5</ele>
        <time>2019-05-25T14:43:39Z</time>
      </trkpt>
      <trkpt lat="41.5898920" lon="-4.7585470">
        <ele>700.5</ele>
        <time>2019-05-25T14:43:40Z</time>
      </trkpt>
      <trkpt lat="41.5899370" lon="-4.7585480">
        <ele>700.5</ele>
        <time>2019-05-25T14:43:41Z</time>
      </trkpt>
      <trkpt lat="41.5899960" lon="-4.7585340">
        <ele>700.5</ele>
        <time>2019-05-25T14:43:42Z</time>
      </trkpt>
      <trkpt lat="41.5900540" lon="-4.7585310">
        <ele>700.5</ele>
        <time>2019-05-25T14:43:43Z</time>
      </trkpt>
      <trkpt lat="41.5901070" lon="-4.7585250">
        <ele>700.5</ele>
        <time>2019-05-25T14:43:44Z</time>
      </trkpt>
      <trkpt lat="41.5901600" lon="-4.7585220">
        <ele>700.5</ele>
        <time>2019-05-25T14:43:45Z</time>
      </trkpt>
      <trkpt lat="41.5902250" lon="-4.7585160">
        <ele>700.5</ele>
        <time>2019-05-25T14:43:46Z</time>
      </trkpt>
      <trkpt lat="41.5902910" lon="-4.7585200">
        <ele>700.5</ele>
        <time>2019-05-25T14:43:47Z</time>
      </trkpt>
      <trkpt lat="41.5903510" lon="-4.7585220">
        <ele>700.4</ele>
        <time>2019-05-25T14:43:48Z</time>
      </trkpt>
      <trkpt lat="41.5903960" lon="-4.7585360">
        <ele>700.4</ele>
        <time>2019-05-25T14:43:49Z</time>
      </trkpt>
      <trkpt lat="41.5904460" lon="-4.7585380">
        <ele>700.4</ele>
        <time>2019-05-25T14:43:50Z</time>
      </trkpt>
      <trkpt lat="41.5905010" lon="-4.7585380">
        <ele>700.3</ele>
        <time>2019-05-25T14:43:51Z</time>
      </trkpt>
      <trkpt lat="41.5905590" lon="-4.7585470">
        <ele>700.3</ele>
        <time>2019-05-25T14:43:52Z</time>
      </trkpt>
      <trkpt lat="41.5906160" lon="-4.7585480">
        <ele>700.3</ele>
        <time>2019-05-25T14:43:53Z</time>
      </trkpt>
      <trkpt lat="41.5906760" lon="-4.7585630">
        <ele>700.3</ele>
        <time>2019-05-25T14:43:54Z</time>
      </trkpt>
      <trkpt lat="41.5907280" lon="-4.7585760">
        <ele>700.3</ele>
        <time>2019-05-25T14:43:55Z</time>
      </trkpt>
      <trkpt lat="41.5907920" lon="-4.7585880">
        <ele>700.3</ele>
        <time>2019-05-25T14:43:56Z</time>
      </trkpt>
      <trkpt lat="41.5908490" lon="-4.7585900">
        <ele>700.3</ele>
        <time>2019-05-25T14:43:57Z</time>
      </trkpt>
      <trkpt lat="41.5909060" lon="-4.7585980">
        <ele>700.3</ele>
        <time>2019-05-25T14:43:58Z</time>
      </trkpt>
      <trkpt lat="41.5909630" lon="-4.7586060">
        <ele>700.3</ele>
        <time>2019-05-25T14:43:59Z</time>
      </trkpt>
      <trkpt lat="41.5910120" lon="-4.7586160">
        <ele>700.3</ele>
        <time>2019-05-25T14:44:00Z</time>
      </trkpt>
      <trkpt lat="41.5910650" lon="-4.7586230">
        <ele>700.2</ele>
        <time>2019-05-25T14:44:01Z</time>
      </trkpt>
      <trkpt lat="41.5911210" lon="-4.7586270">
        <ele>700.2</ele>
        <time>2019-05-25T14:44:02Z</time>
      </trkpt>
      <trkpt lat="41.5911740" lon="-4.7586340">
        <ele>700.2</ele>
        <time>2019-05-25T14:44:03Z</time>
      </trkpt>
      <trkpt lat="41.5912320" lon="-4.7586480">
        <ele>700.1</ele>
        <time>2019-05-25T14:44:04Z</time>
      </trkpt>
      <trkpt lat="41.5912930" lon="-4.7586550">
        <ele>700.1</ele>
        <time>2019-05-25T14:44:05Z</time>
      </trkpt>
      <trkpt lat="41.5913530" lon="-4.7586620">
        <ele>700.0</ele>
        <time>2019-05-25T14:44:06Z</time>
      </trkpt>
      <trkpt lat="41.5914120" lon="-4.7586730">
        <ele>700.0</ele>
        <time>2019-05-25T14:44:07Z</time>
      </trkpt>
      <trkpt lat="41.5914650" lon="-4.7586820">
        <ele>700.0</ele>
        <time>2019-05-25T14:44:08Z</time>
      </trkpt>
      <trkpt lat="41.5915190" lon="-4.7586900">
        <ele>699.9</ele>
        <time>2019-05-25T14:44:09Z</time>
      </trkpt>
      <trkpt lat="41.5915780" lon="-4.7587050">
        <ele>699.9</ele>
        <time>2019-05-25T14:44:10Z</time>
      </trkpt>
      <trkpt lat="41.5916350" lon="-4.7587170">
        <ele>699.8</ele>
        <time>2019-05-25T14:44:11Z</time>
      </trkpt>
      <trkpt lat="41.5916910" lon="-4.7587190">
        <ele>699.8</ele>
        <time>2019-05-25T14:44:12Z</time>
      </trkpt>
      <trkpt lat="41.5917480" lon="-4.7587390">
        <ele>699.8</ele>
        <time>2019-05-25T14:44:13Z</time>
      </trkpt>
      <trkpt lat="41.5918000" lon="-4.7587420">
        <ele>699.7</ele>
        <time>2019-05-25T14:44:14Z</time>
      </trkpt>
      <trkpt lat="41.5918600" lon="-4.7587470">
        <ele>699.7</ele>
        <time>2019-05-25T14:44:15Z</time>
      </trkpt>
      <trkpt lat="41.5919160" lon="-4.7587490">
        <ele>699.6</ele>
        <time>2019-05-25T14:44:16Z</time>
      </trkpt>
      <trkpt lat="41.5919670" lon="-4.7587530">
        <ele>699.5</ele>
        <time>2019-05-25T14:44:17Z</time>
      </trkpt>
      <trkpt lat="41.5920200" lon="-4.7587590">
        <ele>699.5</ele>
        <time>2019-05-25T14:44:18Z</time>
      </trkpt>
      <trkpt lat="41.5920760" lon="-4.7587690">
        <ele>699.4</ele>
        <time>2019-05-25T14:44:19Z</time>
      </trkpt>
      <trkpt lat="41.5921290" lon="-4.7587630">
        <ele>699.3</ele>
        <time>2019-05-25T14:44:20Z</time>
      </trkpt>
      <trkpt lat="41.5921830" lon="-4.7587620">
        <ele>699.1</ele>
        <time>2019-05-25T14:44:21Z</time>
      </trkpt>
      <trkpt lat="41.5922390" lon="-4.7587550">
        <ele>699.0</ele>
        <time>2019-05-25T14:44:22Z</time>
      </trkpt>
      <trkpt lat="41.5922900" lon="-4.7587500">
        <ele>698.9</ele>
        <time>2019-05-25T14:44:23Z</time>
      </trkpt>
      <trkpt lat="41.5923490" lon="-4.7587490">
        <ele>698.8</ele>
        <time>2019-05-25T14:44:24Z</time>
      </trkpt>
      <trkpt lat="41.5924000" lon="-4.7587400">
        <ele>698.6</ele>
        <time>2019-05-25T14:44:25Z</time>
      </trkpt>
      <trkpt lat="41.5924510" lon="-4.7587430">
        <ele>698.5</ele>
        <time>2019-05-25T14:44:26Z</time>
      </trkpt>
      <trkpt lat="41.5925050" lon="-4.7587330">
        <ele>698.4</ele>
        <time>2019-05-25T14:44:27Z</time>
      </trkpt>
      <trkpt lat="41.5925490" lon="-4.7587240">
        <ele>698.3</ele>
        <time>2019-05-25T14:44:28Z</time>
      </trkpt>
      <trkpt lat="41.5925950" lon="-4.7587160">
        <ele>698.3</ele>
        <time>2019-05-25T14:44:29Z</time>
      </trkpt>
      <trkpt lat="41.5926390" lon="-4.7587010">
        <ele>698.2</ele>
        <time>2019-05-25T14:44:30Z</time>
      </trkpt>
      <trkpt lat="41.5926860" lon="-4.7587000">
        <ele>698.1</ele>
        <time>2019-05-25T14:44:31Z</time>
      </trkpt>
      <trkpt lat="41.5927370" lon="-4.7586950">
        <ele>698.1</ele>
        <time>2019-05-25T14:44:32Z</time>
      </trkpt>
      <trkpt lat="41.5927810" lon="-4.7586880">
        <ele>698.0</ele>
        <time>2019-05-25T14:44:33Z</time>
      </trkpt>
      <trkpt lat="41.5928270" lon="-4.7586860">
        <ele>698.0</ele>
        <time>2019-05-25T14:44:34Z</time>
      </trkpt>
      <trkpt lat="41.5928670" lon="-4.7586740">
        <ele>698.0</ele>
        <time>2019-05-25T14:44:35Z</time>
      </trkpt>
      <trkpt lat="41.5929140" lon="-4.7586680">
        <ele>698.0</ele>
        <time>2019-05-25T14:44:36Z</time>
      </trkpt>
      <trkpt lat="41.5929630" lon="-4.7586490">
        <ele>698.0</ele>
        <time>2019-05-25T14:44:37Z</time>
      </trkpt>
      <trkpt lat="41.5930160" lon="-4.7586400">
        <ele>698.0</ele>
        <time>2019-05-25T14:44:38Z</time>
      </trkpt>
      <trkpt lat="41.5930590" lon="-4.7586250">
        <ele>698.0</ele>
        <time>2019-05-25T14:44:39Z</time>
      </trkpt>
      <trkpt lat="41.5931140" lon="-4.7586220">
        <ele>698.0</ele>
        <time>2019-05-25T14:44:40Z</time>
      </trkpt>
      <trkpt lat="41.5931660" lon="-4.7586160">
        <ele>698.0</ele>
        <time>2019-05-25T14:44:41Z</time>
      </trkpt>
      <trkpt lat="41.5932130" lon="-4.7586070">
        <ele>698.0</ele>
        <time>2019-05-25T14:44:42Z</time>
      </trkpt>
      <trkpt lat="41.5932610" lon="-4.7585980">
        <ele>698.1</ele>
        <time>2019-05-25T14:44:43Z</time>
      </trkpt>
      <trkpt lat="41.5933240" lon="-4.7585940">
        <ele>698.1</ele>
        <time>2019-05-25T14:44:44Z</time>
      </trkpt>
      <trkpt lat="41.5933640" lon="-4.7585800">
        <ele>698.1</ele>
        <time>2019-05-25T14:44:45Z</time>
      </trkpt>
      <trkpt lat="41.5934050" lon="-4.7585700">
        <ele>698.1</ele>
        <time>2019-05-25T14:44:46Z</time>
      </trkpt>
      <trkpt lat="41.5934540" lon="-4.7585610">
        <ele>698.1</ele>
        <time>2019-05-25T14:44:47Z</time>
      </trkpt>
      <trkpt lat="41.5935050" lon="-4.7585560">
        <ele>698.1</ele>
        <time>2019-05-25T14:44:48Z</time>
      </trkpt>
      <trkpt lat="41.5935540" lon="-4.7585490">
        <ele>698.1</ele>
        <time>2019-05-25T14:44:49Z</time>
      </trkpt>
      <trkpt lat="41.5936340" lon="-4.7585280">
        <ele>698.1</ele>
        <time>2019-05-25T14:44:50Z</time>
      </trkpt>
      <trkpt lat="41.5936940" lon="-4.7585200">
        <ele>698.1</ele>
        <time>2019-05-25T14:44:51Z</time>
      </trkpt>
      <trkpt lat="41.5937410" lon="-4.7585150">
        <ele>698.1</ele>
        <time>2019-05-25T14:44:52Z</time>
      </trkpt>
      <trkpt lat="41.5937870" lon="-4.7585080">
        <ele>698.1</ele>
        <time>2019-05-25T14:44:53Z</time>
      </trkpt>
      <trkpt lat="41.5938310" lon="-4.7585120">
        <ele>698.1</ele>
        <time>2019-05-25T14:44:54Z</time>
      </trkpt>
      <trkpt lat="41.5938800" lon="-4.7585010">
        <ele>698.1</ele>
        <time>2019-05-25T14:44:55Z</time>
      </trkpt>
      <trkpt lat="41.5939300" lon="-4.7584870">
        <ele>698.1</ele>
        <time>2019-05-25T14:44:56Z</time>
      </trkpt>
      <trkpt lat="41.5939680" lon="-4.7584750">
        <ele>698.1</ele>
        <time>2019-05-25T14:44:57Z</time>
      </trkpt>
      <trkpt lat="41.5940100" lon="-4.7584650">
        <ele>698.1</ele>
        <time>2019-05-25T14:44:58Z</time>
      </trkpt>
      <trkpt lat="41.5940480" lon="-4.7584530">
        <ele>698.2</ele>
        <time>2019-05-25T14:44:59Z</time>
      </trkpt>
      <trkpt lat="41.5940930" lon="-4.7584470">
        <ele>698.2</ele>
        <time>2019-05-25T14:45:00Z</time>
      </trkpt>
      <trkpt lat="41.5941430" lon="-4.7584370">
        <ele>698.2</ele>
        <time>2019-05-25T14:45:01Z</time>
      </trkpt>
      <trkpt lat="41.5941900" lon="-4.7584300">
        <ele>698.2</ele>
        <time>2019-05-25T14:45:02Z</time>
      </trkpt>
      <trkpt lat="41.5942410" lon="-4.7584130">
        <ele>698.2</ele>
        <time>2019-05-25T14:45:03Z</time>
      </trkpt>
      <trkpt lat="41.5942920" lon="-4.7584020">
        <ele>698.3</ele>
        <time>2019-05-25T14:45:04Z</time>
      </trkpt>
      <trkpt lat="41.5943480" lon="-4.7583820">
        <ele>698.3</ele>
        <time>2019-05-25T14:45:05Z</time>
      </trkpt>
      <trkpt lat="41.5943930" lon="-4.7583630">
        <ele>698.4</ele>
        <time>2019-05-25T14:45:06Z</time>
      </trkpt>
      <trkpt lat="41.5944480" lon="-4.7583470">
        <ele>698.4</ele>
        <time>2019-05-25T14:45:07Z</time>
      </trkpt>
      <trkpt lat="41.5944760" lon="-4.7583250">
        <ele>698.4</ele>
        <time>2019-05-25T14:45:08Z</time>
      </trkpt>
      <trkpt lat="41.5945310" lon="-4.7583150">
        <ele>698.4</ele>
        <time>2019-05-25T14:45:09Z</time>
      </trkpt>
      <trkpt lat="41.5945700" lon="-4.7582930">
        <ele>698.4</ele>
        <time>2019-05-25T14:45:10Z</time>
      </trkpt>
      <trkpt lat="41.5946160" lon="-4.7582730">
        <ele>698.5</ele>
        <time>2019-05-25T14:45:11Z</time>
      </trkpt>
      <trkpt lat="41.5946600" lon="-4.7582540">
        <ele>698.5</ele>
        <time>2019-05-25T14:45:12Z</time>
      </trkpt>
      <trkpt lat="41.5947080" lon="-4.7582480">
        <ele>698.5</ele>
        <time>2019-05-25T14:45:13Z</time>
      </trkpt>
      <trkpt lat="41.5947440" lon="-4.7582570">
        <ele>698.5</ele>
        <time>2019-05-25T14:45:14Z</time>
      </trkpt>
      <trkpt lat="41.5947990" lon="-4.7582720">
        <ele>698.5</ele>
        <time>2019-05-25T14:45:15Z</time>
      </trkpt>
      <trkpt lat="41.5948430" lon="-4.7582860">
        <ele>698.5</ele>
        <time>2019-05-25T14:45:16Z</time>
      </trkpt>
      <trkpt lat="41.5948770" lon="-4.7582960">
        <ele>698.6</ele>
        <time>2019-05-25T14:45:17Z</time>
      </trkpt>
      <trkpt lat="41.5949230" lon="-4.7582870">
        <ele>698.5</ele>
        <time>2019-05-25T14:45:18Z</time>
      </trkpt>
      <trkpt lat="41.5949690" lon="-4.7582750">
        <ele>698.5</ele>
        <time>2019-05-25T14:45:19Z</time>
      </trkpt>
      <trkpt lat="41.5950060" lon="-4.7582490">
        <ele>698.4</ele>
        <time>2019-05-25T14:45:20Z</time>
      </trkpt>
      <trkpt lat="41.5950470" lon="-4.7582150">
        <ele>698.4</ele>
        <time>2019-05-25T14:45:21Z</time>
      </trkpt>
      <trkpt lat="41.5950660" lon="-4.7581490">
        <ele>698.5</ele>
        <time>2019-05-25T14:45:22Z</time>
      </trkpt>
      <trkpt lat="41.5950920" lon="-4.7580920">
        <ele>698.5</ele>
        <time>2019-05-25T14:45:23Z</time>
      </trkpt>
      <trkpt lat="41.5951240" lon="-4.7580380">
        <ele>698.5</ele>
        <time>2019-05-25T14:45:24Z</time>
      </trkpt>
      <trkpt lat="41.5951560" lon="-4.7579940">
        <ele>698.5</ele>
        <time>2019-05-25T14:45:25Z</time>
      </trkpt>
      <trkpt lat="41.5952010" lon="-4.7579690">
        <ele>698.5</ele>
        <time>2019-05-25T14:45:26Z</time>
      </trkpt>
      <trkpt lat="41.5952390" lon="-4.7579410">
        <ele>698.4</ele>
        <time>2019-05-25T14:45:27Z</time>
      </trkpt>
      <trkpt lat="41.5952720" lon="-4.7579190">
        <ele>698.4</ele>
        <time>2019-05-25T14:45:28Z</time>
      </trkpt>
      <trkpt lat="41.5953230" lon="-4.7578860">
        <ele>698.3</ele>
        <time>2019-05-25T14:45:29Z</time>
      </trkpt>
      <trkpt lat="41.5953710" lon="-4.7578550">
        <ele>698.3</ele>
        <time>2019-05-25T14:45:30Z</time>
      </trkpt>
      <trkpt lat="41.5954090" lon="-4.7578280">
        <ele>698.3</ele>
        <time>2019-05-25T14:45:31Z</time>
      </trkpt>
      <trkpt lat="41.5954530" lon="-4.7578050">
        <ele>698.2</ele>
        <time>2019-05-25T14:45:32Z</time>
      </trkpt>
      <trkpt lat="41.5954890" lon="-4.7577810">
        <ele>698.2</ele>
        <time>2019-05-25T14:45:33Z</time>
      </trkpt>
      <trkpt lat="41.5955390" lon="-4.7577510">
        <ele>698.2</ele>
        <time>2019-05-25T14:45:34Z</time>
      </trkpt>
      <trkpt lat="41.5955760" lon="-4.7577270">
        <ele>698.2</ele>
        <time>2019-05-25T14:45:35Z</time>
      </trkpt>
      <trkpt lat="41.5956230" lon="-4.7577070">
        <ele>698.2</ele>
        <time>2019-05-25T14:45:36Z</time>
      </trkpt>
      <trkpt lat="41.5956720" lon="-4.7576850">
        <ele>698.2</ele>
        <time>2019-05-25T14:45:37Z</time>
      </trkpt>
      <trkpt lat="41.5957130" lon="-4.7576580">
        <ele>698.3</ele>
        <time>2019-05-25T14:45:38Z</time>
      </trkpt>
      <trkpt lat="41.5957580" lon="-4.7576370">
        <ele>698.3</ele>
        <time>2019-05-25T14:45:39Z</time>
      </trkpt>
      <trkpt lat="41.5958030" lon="-4.7576150">
        <ele>698.3</ele>
        <time>2019-05-25T14:45:40Z</time>
      </trkpt>
      <trkpt lat="41.5958460" lon="-4.7575950">
        <ele>698.4</ele>
        <time>2019-05-25T14:45:41Z</time>
      </trkpt>
      <trkpt lat="41.5958900" lon="-4.7575710">
        <ele>698.4</ele>
        <time>2019-05-25T14:45:42Z</time>
      </trkpt>
      <trkpt lat="41.5959330" lon="-4.7575520">
        <ele>698.5</ele>
        <time>2019-05-25T14:45:43Z</time>
      </trkpt>
      <trkpt lat="41.5959790" lon="-4.7575300">
        <ele>698.5</ele>
        <time>2019-05-25T14:45:44Z</time>
      </trkpt>
      <trkpt lat="41.5960310" lon="-4.7575060">
        <ele>698.6</ele>
        <time>2019-05-25T14:45:45Z</time>
      </trkpt>
      <trkpt lat="41.5961000" lon="-4.7574970">
        <ele>698.7</ele>
        <time>2019-05-25T14:45:46Z</time>
      </trkpt>
      <trkpt lat="41.5961320" lon="-4.7574800">
        <ele>698.7</ele>
        <time>2019-05-25T14:45:47Z</time>
      </trkpt>
      <trkpt lat="41.5961820" lon="-4.7574500">
        <ele>698.8</ele>
        <time>2019-05-25T14:45:48Z</time>
      </trkpt>
      <trkpt lat="41.5962400" lon="-4.7574160">
        <ele>698.9</ele>
        <time>2019-05-25T14:45:49Z</time>
      </trkpt>
      <trkpt lat="41.5962900" lon="-4.7573880">
        <ele>698.9</ele>
        <time>2019-05-25T14:45:50Z</time>
      </trkpt>
      <trkpt lat="41.5963370" lon="-4.7573650">
        <ele>699.0</ele>
        <time>2019-05-25T14:45:51Z</time>
      </trkpt>
      <trkpt lat="41.5963830" lon="-4.7573390">
        <ele>699.1</ele>
        <time>2019-05-25T14:45:52Z</time>
      </trkpt>
      <trkpt lat="41.5964280" lon="-4.7573120">
        <ele>699.2</ele>
        <time>2019-05-25T14:45:53Z</time>
      </trkpt>
      <trkpt lat="41.5964690" lon="-4.7572890">
        <ele>699.3</ele>
        <time>2019-05-25T14:45:54Z</time>
      </trkpt>
      <trkpt lat="41.5965120" lon="-4.7572700">
        <ele>699.3</ele>
        <time>2019-05-25T14:45:55Z</time>
      </trkpt>
      <trkpt lat="41.5965510" lon="-4.7572550">
        <ele>699.4</ele>
        <time>2019-05-25T14:45:56Z</time>
      </trkpt>
      <trkpt lat="41.5965950" lon="-4.7572390">
        <ele>699.5</ele>
        <time>2019-05-25T14:45:57Z</time>
      </trkpt>
      <trkpt lat="41.5966410" lon="-4.7572280">
        <ele>699.6</ele>
        <time>2019-05-25T14:45:58Z</time>
      </trkpt>
      <trkpt lat="41.5966820" lon="-4.7572170">
        <ele>699.6</ele>
        <time>2019-05-25T14:45:59Z</time>
      </trkpt>
      <trkpt lat="41.5967280" lon="-4.7572110">
        <ele>699.8</ele>
        <time>2019-05-25T14:46:01Z</time>
      </trkpt>
      <trkpt lat="41.5967770" lon="-4.7572010">
        <ele>699.9</ele>
        <time>2019-05-25T14:46:02Z</time>
      </trkpt>
      <trkpt lat="41.5968210" lon="-4.7571870">
        <ele>700.0</ele>
        <time>2019-05-25T14:46:03Z</time>
      </trkpt>
      <trkpt lat="41.5968630" lon="-4.7571670">
        <ele>700.0</ele>
        <time>2019-05-25T14:46:04Z</time>
      </trkpt>
      <trkpt lat="41.5969030" lon="-4.7571410">
        <ele>700.0</ele>
        <time>2019-05-25T14:46:05Z</time>
      </trkpt>
      <trkpt lat="41.5969350" lon="-4.7571130">
        <ele>700.0</ele>
        <time>2019-05-25T14:46:06Z</time>
      </trkpt>
      <trkpt lat="41.5969640" lon="-4.7570860">
        <ele>700.0</ele>
        <time>2019-05-25T14:46:07Z</time>
      </trkpt>
      <trkpt lat="41.5969990" lon="-4.7570580">
        <ele>700.0</ele>
        <time>2019-05-25T14:46:08Z</time>
      </trkpt>
      <trkpt lat="41.5970360" lon="-4.7570330">
        <ele>699.9</ele>
        <time>2019-05-25T14:46:09Z</time>
      </trkpt>
      <trkpt lat="41.5970710" lon="-4.7570120">
        <ele>699.9</ele>
        <time>2019-05-25T14:46:10Z</time>
      </trkpt>
      <trkpt lat="41.5971040" lon="-4.7569980">
        <ele>699.9</ele>
        <time>2019-05-25T14:46:11Z</time>
      </trkpt>
      <trkpt lat="41.5971380" lon="-4.7569830">
        <ele>699.8</ele>
        <time>2019-05-25T14:46:12Z</time>
      </trkpt>
      <trkpt lat="41.5971730" lon="-4.7569690">
        <ele>699.8</ele>
        <time>2019-05-25T14:46:13Z</time>
      </trkpt>
      <trkpt lat="41.5972120" lon="-4.7569520">
        <ele>699.7</ele>
        <time>2019-05-25T14:46:14Z</time>
      </trkpt>
      <trkpt lat="41.5972510" lon="-4.7569370">
        <ele>699.7</ele>
        <time>2019-05-25T14:46:15Z</time>
      </trkpt>
      <trkpt lat="41.5972910" lon="-4.7569190">
        <ele>699.6</ele>
        <time>2019-05-25T14:46:16Z</time>
      </trkpt>
      <trkpt lat="41.5973310" lon="-4.7569010">
        <ele>699.6</ele>
        <time>2019-05-25T14:46:17Z</time>
      </trkpt>
      <trkpt lat="41.5973720" lon="-4.7568850">
        <ele>699.5</ele>
        <time>2019-05-25T14:46:18Z</time>
      </trkpt>
      <trkpt lat="41.5974160" lon="-4.7568450">
        <ele>699.4</ele>
        <time>2019-05-25T14:46:20Z</time>
      </trkpt>
      <trkpt lat="41.5974540" lon="-4.7568260">
        <ele>699.3</ele>
        <time>2019-05-25T14:46:21Z</time>
      </trkpt>
      <trkpt lat="41.5975250" lon="-4.7568130">
        <ele>699.2</ele>
        <time>2019-05-25T14:46:22Z</time>
      </trkpt>
      <trkpt lat="41.5975760" lon="-4.7567850">
        <ele>699.1</ele>
        <time>2019-05-25T14:46:23Z</time>
      </trkpt>
      <trkpt lat="41.5976240" lon="-4.7567690">
        <ele>699.0</ele>
        <time>2019-05-25T14:46:24Z</time>
      </trkpt>
      <trkpt lat="41.5976690" lon="-4.7567540">
        <ele>698.9</ele>
        <time>2019-05-25T14:46:25Z</time>
      </trkpt>
      <trkpt lat="41.5977180" lon="-4.7567330">
        <ele>698.8</ele>
        <time>2019-05-25T14:46:26Z</time>
      </trkpt>
      <trkpt lat="41.5977490" lon="-4.7567180">
        <ele>698.7</ele>
        <time>2019-05-25T14:46:27Z</time>
      </trkpt>
      <trkpt lat="41.5977810" lon="-4.7567020">
        <ele>698.7</ele>
        <time>2019-05-25T14:46:28Z</time>
      </trkpt>
      <trkpt lat="41.5978260" lon="-4.7566770">
        <ele>698.6</ele>
        <time>2019-05-25T14:46:29Z</time>
      </trkpt>
      <trkpt lat="41.5978670" lon="-4.7566570">
        <ele>698.5</ele>
        <time>2019-05-25T14:46:30Z</time>
      </trkpt>
      <trkpt lat="41.5979070" lon="-4.7566380">
        <ele>698.4</ele>
        <time>2019-05-25T14:46:31Z</time>
      </trkpt>
      <trkpt lat="41.5979800" lon="-4.7566190">
        <ele>698.2</ele>
        <time>2019-05-25T14:46:32Z</time>
      </trkpt>
      <trkpt lat="41.5980380" lon="-4.7565800">
        <ele>698.0</ele>
        <time>2019-05-25T14:46:33Z</time>
      </trkpt>
      <trkpt lat="41.5980760" lon="-4.7565490">
        <ele>697.9</ele>
        <time>2019-05-25T14:46:34Z</time>
      </trkpt>
      <trkpt lat="41.5981200" lon="-4.7565200">
        <ele>697.7</ele>
        <time>2019-05-25T14:46:35Z</time>
      </trkpt>
      <trkpt lat="41.5981730" lon="-4.7564920">
        <ele>697.6</ele>
        <time>2019-05-25T14:46:36Z</time>
      </trkpt>
      <trkpt lat="41.5982130" lon="-4.7564650">
        <ele>697.5</ele>
        <time>2019-05-25T14:46:37Z</time>
      </trkpt>
      <trkpt lat="41.5982600" lon="-4.7564480">
        <ele>697.4</ele>
        <time>2019-05-25T14:46:38Z</time>
      </trkpt>
      <trkpt lat="41.5983050" lon="-4.7564250">
        <ele>697.3</ele>
        <time>2019-05-25T14:46:39Z</time>
      </trkpt>
      <trkpt lat="41.5983560" lon="-4.7563960">
        <ele>697.1</ele>
        <time>2019-05-25T14:46:40Z</time>
      </trkpt>
      <trkpt lat="41.5984030" lon="-4.7563720">
        <ele>697.0</ele>
        <time>2019-05-25T14:46:41Z</time>
      </trkpt>
      <trkpt lat="41.5984590" lon="-4.7563490">
        <ele>696.8</ele>
        <time>2019-05-25T14:46:42Z</time>
      </trkpt>
      <trkpt lat="41.5985060" lon="-4.7563220">
        <ele>696.7</ele>
        <time>2019-05-25T14:46:43Z</time>
      </trkpt>
      <trkpt lat="41.5985610" lon="-4.7562920">
        <ele>696.5</ele>
        <time>2019-05-25T14:46:44Z</time>
      </trkpt>
      <trkpt lat="41.5986160" lon="-4.7562670">
        <ele>696.4</ele>
        <time>2019-05-25T14:46:45Z</time>
      </trkpt>
      <trkpt lat="41.5986720" lon="-4.7562370">
        <ele>696.2</ele>
        <time>2019-05-25T14:46:46Z</time>
      </trkpt>
      <trkpt lat="41.5987340" lon="-4.7562180">
        <ele>696.0</ele>
        <time>2019-05-25T14:46:47Z</time>
      </trkpt>
      <trkpt lat="41.5987910" lon="-4.7561900">
        <ele>695.8</ele>
        <time>2019-05-25T14:46:48Z</time>
      </trkpt>
      <trkpt lat="41.5988640" lon="-4.7561740">
        <ele>695.5</ele>
        <time>2019-05-25T14:46:49Z</time>
      </trkpt>
      <trkpt lat="41.5989220" lon="-4.7561480">
        <ele>695.3</ele>
        <time>2019-05-25T14:46:50Z</time>
      </trkpt>
      <trkpt lat="41.5989780" lon="-4.7561160">
        <ele>694.9</ele>
        <time>2019-05-25T14:46:51Z</time>
      </trkpt>
      <trkpt lat="41.5990310" lon="-4.7560960">
        <ele>694.7</ele>
        <time>2019-05-25T14:46:52Z</time>
      </trkpt>
      <trkpt lat="41.5990890" lon="-4.7560740">
        <ele>694.5</ele>
        <time>2019-05-25T14:46:53Z</time>
      </trkpt>
      <trkpt lat="41.5991420" lon="-4.7560540">
        <ele>694.3</ele>
        <time>2019-05-25T14:46:54Z</time>
      </trkpt>
      <trkpt lat="41.5991960" lon="-4.7560390">
        <ele>694.1</ele>
        <time>2019-05-25T14:46:55Z</time>
      </trkpt>
      <trkpt lat="41.5992540" lon="-4.7560270">
        <ele>693.8</ele>
        <time>2019-05-25T14:46:56Z</time>
      </trkpt>
      <trkpt lat="41.5993050" lon="-4.7560020">
        <ele>693.6</ele>
        <time>2019-05-25T14:46:57Z</time>
      </trkpt>
      <trkpt lat="41.5993640" lon="-4.7559740">
        <ele>693.4</ele>
        <time>2019-05-25T14:46:58Z</time>
      </trkpt>
      <trkpt lat="41.5994240" lon="-4.7559780">
        <ele>693.3</ele>
        <time>2019-05-25T14:46:59Z</time>
      </trkpt>
      <trkpt lat="41.5994830" lon="-4.7559460">
        <ele>693.2</ele>
        <time>2019-05-25T14:47:00Z</time>
      </trkpt>
      <trkpt lat="41.5995490" lon="-4.7559320">
        <ele>693.2</ele>
        <time>2019-05-25T14:47:01Z</time>
      </trkpt>
      <trkpt lat="41.5996000" lon="-4.7559180">
        <ele>693.1</ele>
        <time>2019-05-25T14:47:02Z</time>
      </trkpt>
      <trkpt lat="41.5996550" lon="-4.7558970">
        <ele>693.1</ele>
        <time>2019-05-25T14:47:03Z</time>
      </trkpt>
      <trkpt lat="41.5996970" lon="-4.7558650">
        <ele>693.1</ele>
        <time>2019-05-25T14:47:04Z</time>
      </trkpt>
      <trkpt lat="41.5997610" lon="-4.7558610">
        <ele>693.1</ele>
        <time>2019-05-25T14:47:05Z</time>
      </trkpt>
      <trkpt lat="41.5998200" lon="-4.7558600">
        <ele>693.1</ele>
        <time>2019-05-25T14:47:06Z</time>
      </trkpt>
      <trkpt lat="41.5998800" lon="-4.7558460">
        <ele>693.1</ele>
        <time>2019-05-25T14:47:07Z</time>
      </trkpt>
      <trkpt lat="41.5999400" lon="-4.7558370">
        <ele>693.1</ele>
        <time>2019-05-25T14:47:08Z</time>
      </trkpt>
      <trkpt lat="41.6000050" lon="-4.7558360">
        <ele>693.0</ele>
        <time>2019-05-25T14:47:09Z</time>
      </trkpt>
      <trkpt lat="41.6000620" lon="-4.7558350">
        <ele>693.0</ele>
        <time>2019-05-25T14:47:10Z</time>
      </trkpt>
      <trkpt lat="41.6001260" lon="-4.7558170">
        <ele>692.8</ele>
        <time>2019-05-25T14:47:11Z</time>
      </trkpt>
      <trkpt lat="41.6001810" lon="-4.7558240">
        <ele>692.7</ele>
        <time>2019-05-25T14:47:12Z</time>
      </trkpt>
      <trkpt lat="41.6002460" lon="-4.7558280">
        <ele>692.5</ele>
        <time>2019-05-25T14:47:13Z</time>
      </trkpt>
      <trkpt lat="41.6003030" lon="-4.7558170">
        <ele>692.2</ele>
        <time>2019-05-25T14:47:14Z</time>
      </trkpt>
      <trkpt lat="41.6003600" lon="-4.7558140">
        <ele>692.0</ele>
        <time>2019-05-25T14:47:15Z</time>
      </trkpt>
      <trkpt lat="41.6004290" lon="-4.7558140">
        <ele>691.7</ele>
        <time>2019-05-25T14:47:16Z</time>
      </trkpt>
      <trkpt lat="41.6004680" lon="-4.7557800">
        <ele>691.5</ele>
        <time>2019-05-25T14:47:17Z</time>
      </trkpt>
      <trkpt lat="41.6005210" lon="-4.7557700">
        <ele>691.4</ele>
        <time>2019-05-25T14:47:18Z</time>
      </trkpt>
      <trkpt lat="41.6005920" lon="-4.7557550">
        <ele>691.2</ele>
        <time>2019-05-25T14:47:19Z</time>
      </trkpt>
      <trkpt lat="41.6006470" lon="-4.7557450">
        <ele>691.2</ele>
        <time>2019-05-25T14:47:20Z</time>
      </trkpt>
      <trkpt lat="41.6007050" lon="-4.7557460">
        <ele>691.1</ele>
        <time>2019-05-25T14:47:21Z</time>
      </trkpt>
      <trkpt lat="41.6007580" lon="-4.7557490">
        <ele>691.1</ele>
        <time>2019-05-25T14:47:22Z</time>
      </trkpt>
      <trkpt lat="41.6008110" lon="-4.7557390">
        <ele>691.1</ele>
        <time>2019-05-25T14:47:23Z</time>
      </trkpt>
      <trkpt lat="41.6008700" lon="-4.7557310">
        <ele>691.1</ele>
        <time>2019-05-25T14:47:24Z</time>
      </trkpt>
      <trkpt lat="41.6009200" lon="-4.7557220">
        <ele>691.1</ele>
        <time>2019-05-25T14:47:25Z</time>
      </trkpt>
      <trkpt lat="41.6009700" lon="-4.7557070">
        <ele>691.1</ele>
        <time>2019-05-25T14:47:26Z</time>
      </trkpt>
      <trkpt lat="41.6010200" lon="-4.7556990">
        <ele>691.1</ele>
        <time>2019-05-25T14:47:27Z</time>
      </trkpt>
      <trkpt lat="41.6010670" lon="-4.7556900">
        <ele>691.1</ele>
        <time>2019-05-25T14:47:28Z</time>
      </trkpt>
      <trkpt lat="41.6011230" lon="-4.7556940">
        <ele>691.1</ele>
        <time>2019-05-25T14:47:29Z</time>
      </trkpt>
      <trkpt lat="41.6011780" lon="-4.7556820">
        <ele>691.1</ele>
        <time>2019-05-25T14:47:30Z</time>
      </trkpt>
      <trkpt lat="41.6012330" lon="-4.7556850">
        <ele>691.1</ele>
        <time>2019-05-25T14:47:31Z</time>
      </trkpt>
      <trkpt lat="41.6012860" lon="-4.7556790">
        <ele>691.1</ele>
        <time>2019-05-25T14:47:32Z</time>
      </trkpt>
      <trkpt lat="41.6013360" lon="-4.7556610">
        <ele>691.1</ele>
        <time>2019-05-25T14:47:33Z</time>
      </trkpt>
      <trkpt lat="41.6013880" lon="-4.7556490">
        <ele>691.1</ele>
        <time>2019-05-25T14:47:34Z</time>
      </trkpt>
      <trkpt lat="41.6014380" lon="-4.7556370">
        <ele>691.1</ele>
        <time>2019-05-25T14:47:35Z</time>
      </trkpt>
      <trkpt lat="41.6014870" lon="-4.7556200">
        <ele>691.1</ele>
        <time>2019-05-25T14:47:36Z</time>
      </trkpt>
      <trkpt lat="41.6015400" lon="-4.7556220">
        <ele>691.0</ele>
        <time>2019-05-25T14:47:37Z</time>
      </trkpt>
      <trkpt lat="41.6016010" lon="-4.7556160">
        <ele>691.0</ele>
        <time>2019-05-25T14:47:38Z</time>
      </trkpt>
      <trkpt lat="41.6016520" lon="-4.7556110">
        <ele>691.0</ele>
        <time>2019-05-25T14:47:39Z</time>
      </trkpt>
      <trkpt lat="41.6017060" lon="-4.7556090">
        <ele>690.9</ele>
        <time>2019-05-25T14:47:40Z</time>
      </trkpt>
      <trkpt lat="41.6017590" lon="-4.7555950">
        <ele>690.8</ele>
        <time>2019-05-25T14:47:41Z</time>
      </trkpt>
      <trkpt lat="41.6018120" lon="-4.7555790">
        <ele>690.6</ele>
        <time>2019-05-25T14:47:42Z</time>
      </trkpt>
      <trkpt lat="41.6018720" lon="-4.7555690">
        <ele>690.5</ele>
        <time>2019-05-25T14:47:43Z</time>
      </trkpt>
      <trkpt lat="41.6019260" lon="-4.7555560">
        <ele>690.4</ele>
        <time>2019-05-25T14:47:44Z</time>
      </trkpt>
      <trkpt lat="41.6019760" lon="-4.7555390">
        <ele>690.2</ele>
        <time>2019-05-25T14:47:45Z</time>
      </trkpt>
      <trkpt lat="41.6020340" lon="-4.7555240">
        <ele>690.1</ele>
        <time>2019-05-25T14:47:46Z</time>
      </trkpt>
      <trkpt lat="41.6020870" lon="-4.7555100">
        <ele>690.1</ele>
        <time>2019-05-25T14:47:47Z</time>
      </trkpt>
      <trkpt lat="41.6021430" lon="-4.7555010">
        <ele>690.0</ele>
        <time>2019-05-25T14:47:48Z</time>
      </trkpt>
      <trkpt lat="41.6021910" lon="-4.7554780">
        <ele>689.8</ele>
        <time>2019-05-25T14:47:49Z</time>
      </trkpt>
      <trkpt lat="41.6022420" lon="-4.7554640">
        <ele>689.7</ele>
        <time>2019-05-25T14:47:50Z</time>
      </trkpt>
      <trkpt lat="41.6023050" lon="-4.7554390">
        <ele>689.6</ele>
        <time>2019-05-25T14:47:51Z</time>
      </trkpt>
      <trkpt lat="41.6023570" lon="-4.7554150">
        <ele>689.6</ele>
        <time>2019-05-25T14:47:52Z</time>
      </trkpt>
      <trkpt lat="41.6023990" lon="-4.7553940">
        <ele>689.6</ele>
        <time>2019-05-25T14:47:53Z</time>
      </trkpt>
      <trkpt lat="41.6024440" lon="-4.7553740">
        <ele>689.6</ele>
        <time>2019-05-25T14:47:54Z</time>
      </trkpt>
      <trkpt lat="41.6024920" lon="-4.7553590">
        <ele>689.6</ele>
        <time>2019-05-25T14:47:55Z</time>
      </trkpt>
      <trkpt lat="41.6025440" lon="-4.7553550">
        <ele>689.6</ele>
        <time>2019-05-25T14:47:56Z</time>
      </trkpt>
      <trkpt lat="41.6025960" lon="-4.7553550">
        <ele>689.5</ele>
        <time>2019-05-25T14:47:57Z</time>
      </trkpt>
      <trkpt lat="41.6026480" lon="-4.7553670">
        <ele>689.5</ele>
        <time>2019-05-25T14:47:58Z</time>
      </trkpt>
      <trkpt lat="41.6027020" lon="-4.7553680">
        <ele>689.5</ele>
        <time>2019-05-25T14:47:59Z</time>
      </trkpt>
      <trkpt lat="41.6027490" lon="-4.7553590">
        <ele>689.5</ele>
        <time>2019-05-25T14:48:00Z</time>
      </trkpt>
      <trkpt lat="41.6028030" lon="-4.7553550">
        <ele>689.5</ele>
        <time>2019-05-25T14:48:01Z</time>
      </trkpt>
      <trkpt lat="41.6028440" lon="-4.7553300">
        <ele>689.5</ele>
        <time>2019-05-25T14:48:02Z</time>
      </trkpt>
      <trkpt lat="41.6028880" lon="-4.7553000">
        <ele>689.5</ele>
        <time>2019-05-25T14:48:03Z</time>
      </trkpt>
      <trkpt lat="41.6029400" lon="-4.7552810">
        <ele>689.4</ele>
        <time>2019-05-25T14:48:04Z</time>
      </trkpt>
      <trkpt lat="41.6029810" lon="-4.7552520">
        <ele>689.4</ele>
        <time>2019-05-25T14:48:05Z</time>
      </trkpt>
      <trkpt lat="41.6030260" lon="-4.7552280">
        <ele>689.4</ele>
        <time>2019-05-25T14:48:06Z</time>
      </trkpt>
      <trkpt lat="41.6030730" lon="-4.7551970">
        <ele>689.4</ele>
        <time>2019-05-25T14:48:07Z</time>
      </trkpt>
      <trkpt lat="41.6031120" lon="-4.7551710">
        <ele>689.4</ele>
        <time>2019-05-25T14:48:08Z</time>
      </trkpt>
      <trkpt lat="41.6031820" lon="-4.7551570">
        <ele>689.4</ele>
        <time>2019-05-25T14:48:09Z</time>
      </trkpt>
      <trkpt lat="41.6032250" lon="-4.7551310">
        <ele>689.3</ele>
        <time>2019-05-25T14:48:10Z</time>
      </trkpt>
      <trkpt lat="41.6032690" lon="-4.7551100">
        <ele>689.3</ele>
        <time>2019-05-25T14:48:11Z</time>
      </trkpt>
      <trkpt lat="41.6033070" lon="-4.7550830">
        <ele>689.3</ele>
        <time>2019-05-25T14:48:12Z</time>
      </trkpt>
      <trkpt lat="41.6033560" lon="-4.7550550">
        <ele>689.2</ele>
        <time>2019-05-25T14:48:13Z</time>
      </trkpt>
      <trkpt lat="41.6034040" lon="-4.7550400">
        <ele>689.2</ele>
        <time>2019-05-25T14:48:14Z</time>
      </trkpt>
      <trkpt lat="41.6034380" lon="-4.7550130">
        <ele>689.2</ele>
        <time>2019-05-25T14:48:15Z</time>
      </trkpt>
      <trkpt lat="41.6034830" lon="-4.7549890">
        <ele>689.2</ele>
        <time>2019-05-25T14:48:16Z</time>
      </trkpt>
      <trkpt lat="41.6035260" lon="-4.7549710">
        <ele>689.1</ele>
        <time>2019-05-25T14:48:17Z</time>
      </trkpt>
      <trkpt lat="41.6035820" lon="-4.7549600">
        <ele>689.1</ele>
        <time>2019-05-25T14:48:18Z</time>
      </trkpt>
      <trkpt lat="41.6036180" lon="-4.7549420">
        <ele>689.1</ele>
        <time>2019-05-25T14:48:19Z</time>
      </trkpt>
      <trkpt lat="41.6036720" lon="-4.7549180">
        <ele>689.1</ele>
        <time>2019-05-25T14:48:20Z</time>
      </trkpt>
      <trkpt lat="41.6037150" lon="-4.7549000">
        <ele>689.0</ele>
        <time>2019-05-25T14:48:21Z</time>
      </trkpt>
      <trkpt lat="41.6037610" lon="-4.7548940">
        <ele>689.0</ele>
        <time>2019-05-25T14:48:22Z</time>
      </trkpt>
      <trkpt lat="41.6038010" lon="-4.7548670">
        <ele>689.0</ele>
        <time>2019-05-25T14:48:23Z</time>
      </trkpt>
      <trkpt lat="41.6038460" lon="-4.7548450">
        <ele>689.0</ele>
        <time>2019-05-25T14:48:24Z</time>
      </trkpt>
      <trkpt lat="41.6038810" lon="-4.7548420">
        <ele>689.0</ele>
        <time>2019-05-25T14:48:25Z</time>
      </trkpt>
      <trkpt lat="41.6039130" lon="-4.7548380">
        <ele>688.9</ele>
        <time>2019-05-25T14:48:26Z</time>
      </trkpt>
      <trkpt lat="41.6039640" lon="-4.7548280">
        <ele>688.9</ele>
        <time>2019-05-25T14:48:27Z</time>
      </trkpt>
      <trkpt lat="41.6040110" lon="-4.7548210">
        <ele>688.9</ele>
        <time>2019-05-25T14:48:28Z</time>
      </trkpt>
      <trkpt lat="41.6040620" lon="-4.7548130">
        <ele>688.9</ele>
        <time>2019-05-25T14:48:29Z</time>
      </trkpt>
      <trkpt lat="41.6041100" lon="-4.7548050">
        <ele>688.9</ele>
        <time>2019-05-25T14:48:30Z</time>
      </trkpt>
      <trkpt lat="41.6041580" lon="-4.7547950">
        <ele>688.8</ele>
        <time>2019-05-25T14:48:31Z</time>
      </trkpt>
      <trkpt lat="41.6042130" lon="-4.7547800">
        <ele>688.8</ele>
        <time>2019-05-25T14:48:32Z</time>
      </trkpt>
      <trkpt lat="41.6042670" lon="-4.7547640">
        <ele>688.8</ele>
        <time>2019-05-25T14:48:33Z</time>
      </trkpt>
      <trkpt lat="41.6042980" lon="-4.7547520">
        <ele>688.8</ele>
        <time>2019-05-25T14:48:34Z</time>
      </trkpt>
      <trkpt lat="41.6043460" lon="-4.7547180">
        <ele>688.8</ele>
        <time>2019-05-25T14:48:36Z</time>
      </trkpt>
      <trkpt lat="41.6043720" lon="-4.7546920">
        <ele>688.8</ele>
        <time>2019-05-25T14:48:37Z</time>
      </trkpt>
      <trkpt lat="41.6043990" lon="-4.7546650">
        <ele>688.8</ele>
        <time>2019-05-25T14:48:38Z</time>
      </trkpt>
      <trkpt lat="41.6044290" lon="-4.7546360">
        <ele>688.8</ele>
        <time>2019-05-25T14:48:39Z</time>
      </trkpt>
      <trkpt lat="41.6044630" lon="-4.7546080">
        <ele>688.8</ele>
        <time>2019-05-25T14:48:40Z</time>
      </trkpt>
      <trkpt lat="41.6045020" lon="-4.7545790">
        <ele>688.8</ele>
        <time>2019-05-25T14:48:41Z</time>
      </trkpt>
      <trkpt lat="41.6045450" lon="-4.7545470">
        <ele>688.9</ele>
        <time>2019-05-25T14:48:42Z</time>
      </trkpt>
      <trkpt lat="41.6045890" lon="-4.7545100">
        <ele>689.0</ele>
        <time>2019-05-25T14:48:43Z</time>
      </trkpt>
      <trkpt lat="41.6046370" lon="-4.7544730">
        <ele>689.0</ele>
        <time>2019-05-25T14:48:44Z</time>
      </trkpt>
      <trkpt lat="41.6046870" lon="-4.7544400">
        <ele>689.1</ele>
        <time>2019-05-25T14:48:45Z</time>
      </trkpt>
      <trkpt lat="41.6047350" lon="-4.7544100">
        <ele>689.2</ele>
        <time>2019-05-25T14:48:46Z</time>
      </trkpt>
      <trkpt lat="41.6047850" lon="-4.7543800">
        <ele>689.2</ele>
        <time>2019-05-25T14:48:47Z</time>
      </trkpt>
      <trkpt lat="41.6048350" lon="-4.7543540">
        <ele>689.2</ele>
        <time>2019-05-25T14:48:48Z</time>
      </trkpt>
      <trkpt lat="41.6048900" lon="-4.7543290">
        <ele>689.1</ele>
        <time>2019-05-25T14:48:49Z</time>
      </trkpt>
      <trkpt lat="41.6049350" lon="-4.7542990">
        <ele>689.1</ele>
        <time>2019-05-25T14:48:50Z</time>
      </trkpt>
      <trkpt lat="41.6049820" lon="-4.7542670">
        <ele>689.1</ele>
        <time>2019-05-25T14:48:51Z</time>
      </trkpt>
      <trkpt lat="41.6050280" lon="-4.7542420">
        <ele>689.1</ele>
        <time>2019-05-25T14:48:52Z</time>
      </trkpt>
      <trkpt lat="41.6050780" lon="-4.7542180">
        <ele>689.0</ele>
        <time>2019-05-25T14:48:53Z</time>
      </trkpt>
      <trkpt lat="41.6051240" lon="-4.7541960">
        <ele>689.0</ele>
        <time>2019-05-25T14:48:54Z</time>
      </trkpt>
      <trkpt lat="41.6051700" lon="-4.7541740">
        <ele>689.0</ele>
        <time>2019-05-25T14:48:55Z</time>
      </trkpt>
      <trkpt lat="41.6052200" lon="-4.7541590">
        <ele>689.0</ele>
        <time>2019-05-25T14:48:56Z</time>
      </trkpt>
      <trkpt lat="41.6052620" lon="-4.7541440">
        <ele>688.9</ele>
        <time>2019-05-25T14:48:57Z</time>
      </trkpt>
      <trkpt lat="41.6053080" lon="-4.7541240">
        <ele>688.9</ele>
        <time>2019-05-25T14:48:58Z</time>
      </trkpt>
      <trkpt lat="41.6053550" lon="-4.7541060">
        <ele>688.9</ele>
        <time>2019-05-25T14:48:59Z</time>
      </trkpt>
      <trkpt lat="41.6054020" lon="-4.7540870">
        <ele>688.8</ele>
        <time>2019-05-25T14:49:00Z</time>
      </trkpt>
      <trkpt lat="41.6054530" lon="-4.7540780">
        <ele>688.8</ele>
        <time>2019-05-25T14:49:01Z</time>
      </trkpt>
      <trkpt lat="41.6055000" lon="-4.7540620">
        <ele>688.7</ele>
        <time>2019-05-25T14:49:02Z</time>
      </trkpt>
      <trkpt lat="41.6055430" lon="-4.7540480">
        <ele>688.7</ele>
        <time>2019-05-25T14:49:03Z</time>
      </trkpt>
      <trkpt lat="41.6055860" lon="-4.7540280">
        <ele>688.6</ele>
        <time>2019-05-25T14:49:04Z</time>
      </trkpt>
      <trkpt lat="41.6056330" lon="-4.7540150">
        <ele>688.6</ele>
        <time>2019-05-25T14:49:05Z</time>
      </trkpt>
      <trkpt lat="41.6056790" lon="-4.7539990">
        <ele>688.5</ele>
        <time>2019-05-25T14:49:06Z</time>
      </trkpt>
      <trkpt lat="41.6057220" lon="-4.7539860">
        <ele>688.5</ele>
        <time>2019-05-25T14:49:07Z</time>
      </trkpt>
      <trkpt lat="41.6057630" lon="-4.7539710">
        <ele>688.4</ele>
        <time>2019-05-25T14:49:08Z</time>
      </trkpt>
      <trkpt lat="41.6058090" lon="-4.7539590">
        <ele>688.4</ele>
        <time>2019-05-25T14:49:09Z</time>
      </trkpt>
      <trkpt lat="41.6058560" lon="-4.7539390">
        <ele>688.4</ele>
        <time>2019-05-25T14:49:10Z</time>
      </trkpt>
      <trkpt lat="41.6059030" lon="-4.7539210">
        <ele>688.4</ele>
        <time>2019-05-25T14:49:11Z</time>
      </trkpt>
      <trkpt lat="41.6059460" lon="-4.7538990">
        <ele>688.4</ele>
        <time>2019-05-25T14:49:12Z</time>
      </trkpt>
      <trkpt lat="41.6059860" lon="-4.7538730">
        <ele>688.3</ele>
        <time>2019-05-25T14:49:13Z</time>
      </trkpt>
      <trkpt lat="41.6060270" lon="-4.7538510">
        <ele>688.3</ele>
        <time>2019-05-25T14:49:14Z</time>
      </trkpt>
      <trkpt lat="41.6060700" lon="-4.7538290">
        <ele>688.3</ele>
        <time>2019-05-25T14:49:15Z</time>
      </trkpt>
      <trkpt lat="41.6061140" lon="-4.7538090">
        <ele>688.3</ele>
        <time>2019-05-25T14:49:16Z</time>
      </trkpt>
      <trkpt lat="41.6061590" lon="-4.7537890">
        <ele>688.4</ele>
        <time>2019-05-25T14:49:17Z</time>
      </trkpt>
      <trkpt lat="41.6062030" lon="-4.7537680">
        <ele>688.4</ele>
        <time>2019-05-25T14:49:18Z</time>
      </trkpt>
      <trkpt lat="41.6062470" lon="-4.7537470">
        <ele>688.4</ele>
        <time>2019-05-25T14:49:19Z</time>
      </trkpt>
      <trkpt lat="41.6062860" lon="-4.7537310">
        <ele>688.4</ele>
        <time>2019-05-25T14:49:20Z</time>
      </trkpt>
      <trkpt lat="41.6063240" lon="-4.7537010">
        <ele>688.5</ele>
        <time>2019-05-25T14:49:21Z</time>
      </trkpt>
      <trkpt lat="41.6063670" lon="-4.7536870">
        <ele>688.6</ele>
        <time>2019-05-25T14:49:22Z</time>
      </trkpt>
      <trkpt lat="41.6064070" lon="-4.7536650">
        <ele>688.7</ele>
        <time>2019-05-25T14:49:23Z</time>
      </trkpt>
      <trkpt lat="41.6064510" lon="-4.7536420">
        <ele>688.9</ele>
        <time>2019-05-25T14:49:24Z</time>
      </trkpt>
      <trkpt lat="41.6064970" lon="-4.7536180">
        <ele>689.0</ele>
        <time>2019-05-25T14:49:25Z</time>
      </trkpt>
      <trkpt lat="41.6065390" lon="-4.7536000">
        <ele>689.0</ele>
        <time>2019-05-25T14:49:26Z</time>
      </trkpt>
      <trkpt lat="41.6065840" lon="-4.7535820">
        <ele>689.1</ele>
        <time>2019-05-25T14:49:27Z</time>
      </trkpt>
      <trkpt lat="41.6066300" lon="-4.7535630">
        <ele>689.1</ele>
        <time>2019-05-25T14:49:28Z</time>
      </trkpt>
      <trkpt lat="41.6066770" lon="-4.7535460">
        <ele>689.1</ele>
        <time>2019-05-25T14:49:29Z</time>
      </trkpt>
      <trkpt lat="41.6067210" lon="-4.7535270">
        <ele>689.0</ele>
        <time>2019-05-25T14:49:30Z</time>
      </trkpt>
      <trkpt lat="41.6067690" lon="-4.7535110">
        <ele>688.9</ele>
        <time>2019-05-25T14:49:31Z</time>
      </trkpt>
      <trkpt lat="41.6068150" lon="-4.7534950">
        <ele>688.8</ele>
        <time>2019-05-25T14:49:32Z</time>
      </trkpt>
      <trkpt lat="41.6068610" lon="-4.7534770">
        <ele>688.7</ele>
        <time>2019-05-25T14:49:33Z</time>
      </trkpt>
      <trkpt lat="41.6069070" lon="-4.7534580">
        <ele>688.6</ele>
        <time>2019-05-25T14:49:34Z</time>
      </trkpt>
      <trkpt lat="41.6069520" lon="-4.7534430">
        <ele>688.6</ele>
        <time>2019-05-25T14:49:35Z</time>
      </trkpt>
      <trkpt lat="41.6070010" lon="-4.7534360">
        <ele>688.5</ele>
        <time>2019-05-25T14:49:36Z</time>
      </trkpt>
      <trkpt lat="41.6070490" lon="-4.7534210">
        <ele>688.5</ele>
        <time>2019-05-25T14:49:37Z</time>
      </trkpt>
      <trkpt lat="41.6070900" lon="-4.7534090">
        <ele>688.5</ele>
        <time>2019-05-25T14:49:38Z</time>
      </trkpt>
      <trkpt lat="41.6071480" lon="-4.7533960">
        <ele>688.5</ele>
        <time>2019-05-25T14:49:40Z</time>
      </trkpt>
      <trkpt lat="41.6071880" lon="-4.7533860">
        <ele>688.5</ele>
        <time>2019-05-25T14:49:41Z</time>
      </trkpt>
      <trkpt lat="41.6072420" lon="-4.7533900">
        <ele>688.4</ele>
        <time>2019-05-25T14:49:42Z</time>
      </trkpt>
      <trkpt lat="41.6072940" lon="-4.7534000">
        <ele>688.4</ele>
        <time>2019-05-25T14:49:43Z</time>
      </trkpt>
      <trkpt lat="41.6073470" lon="-4.7534110">
        <ele>688.5</ele>
        <time>2019-05-25T14:49:44Z</time>
      </trkpt>
      <trkpt lat="41.6073980" lon="-4.7534270">
        <ele>688.5</ele>
        <time>2019-05-25T14:49:45Z</time>
      </trkpt>
      <trkpt lat="41.6074700" lon="-4.7535010">
        <ele>688.6</ele>
        <time>2019-05-25T14:49:46Z</time>
      </trkpt>
      <trkpt lat="41.6075100" lon="-4.7535330">
        <ele>688.6</ele>
        <time>2019-05-25T14:49:47Z</time>
      </trkpt>
      <trkpt lat="41.6075490" lon="-4.7535610">
        <ele>688.6</ele>
        <time>2019-05-25T14:49:48Z</time>
      </trkpt>
      <trkpt lat="41.6075830" lon="-4.7535810">
        <ele>688.6</ele>
        <time>2019-05-25T14:49:49Z</time>
      </trkpt>
      <trkpt lat="41.6076220" lon="-4.7536120">
        <ele>688.7</ele>
        <time>2019-05-25T14:49:50Z</time>
      </trkpt>
      <trkpt lat="41.6076530" lon="-4.7536360">
        <ele>688.7</ele>
        <time>2019-05-25T14:49:51Z</time>
      </trkpt>
      <trkpt lat="41.6076900" lon="-4.7536570">
        <ele>688.7</ele>
        <time>2019-05-25T14:49:52Z</time>
      </trkpt>
      <trkpt lat="41.6077200" lon="-4.7536780">
        <ele>689.1</ele>
        <time>2019-05-25T14:49:53Z</time>
      </trkpt>
      <trkpt lat="41.6077490" lon="-4.7536700">
        <ele>689.2</ele>
        <time>2019-05-25T14:49:54Z</time>
      </trkpt>
      <trkpt lat="41.6077950" lon="-4.7536650">
        <ele>689.4</ele>
        <time>2019-05-25T14:49:55Z</time>
      </trkpt>
      <trkpt lat="41.6078350" lon="-4.7536600">
        <ele>689.5</ele>
        <time>2019-05-25T14:49:56Z</time>
      </trkpt>
      <trkpt lat="41.6078750" lon="-4.7536470">
        <ele>689.6</ele>
        <time>2019-05-25T14:49:57Z</time>
      </trkpt>
      <trkpt lat="41.6079110" lon="-4.7536300">
        <ele>689.8</ele>
        <time>2019-05-25T14:49:58Z</time>
      </trkpt>
      <trkpt lat="41.6079390" lon="-4.7536090">
        <ele>689.9</ele>
        <time>2019-05-25T14:49:59Z</time>
      </trkpt>
      <trkpt lat="41.6079660" lon="-4.7535880">
        <ele>690.0</ele>
        <time>2019-05-25T14:50:00Z</time>
      </trkpt>
      <trkpt lat="41.6079950" lon="-4.7535640">
        <ele>690.1</ele>
        <time>2019-05-25T14:50:01Z</time>
      </trkpt>
      <trkpt lat="41.6080230" lon="-4.7535380">
        <ele>690.4</ele>
        <time>2019-05-25T14:50:02Z</time>
      </trkpt>
      <trkpt lat="41.6080450" lon="-4.7535130">
        <ele>690.4</ele>
        <time>2019-05-25T14:50:03Z</time>
      </trkpt>
      <trkpt lat="41.6080560" lon="-4.7534640">
        <ele>690.5</ele>
        <time>2019-05-25T14:50:05Z</time>
      </trkpt>
      <trkpt lat="41.6080720" lon="-4.7534190">
        <ele>690.5</ele>
        <time>2019-05-25T14:50:06Z</time>
      </trkpt>
      <trkpt lat="41.6080860" lon="-4.7533320">
        <ele>690.4</ele>
        <time>2019-05-25T14:50:07Z</time>
      </trkpt>
      <trkpt lat="41.6081300" lon="-4.7532910">
        <ele>690.4</ele>
        <time>2019-05-25T14:50:09Z</time>
      </trkpt>
      <trkpt lat="41.6081760" lon="-4.7532550">
        <ele>690.4</ele>
        <time>2019-05-25T14:50:11Z</time>
      </trkpt>
      <trkpt lat="41.6081950" lon="-4.7532270">
        <ele>690.4</ele>
        <time>2019-05-25T14:50:12Z</time>
      </trkpt>
      <trkpt lat="41.6082100" lon="-4.7531910">
        <ele>690.4</ele>
        <time>2019-05-25T14:50:13Z</time>
      </trkpt>
      <trkpt lat="41.6082170" lon="-4.7531520">
        <ele>690.4</ele>
        <time>2019-05-25T14:50:14Z</time>
      </trkpt>
      <trkpt lat="41.6082240" lon="-4.7531120">
        <ele>690.5</ele>
        <time>2019-05-25T14:50:15Z</time>
      </trkpt>
      <trkpt lat="41.6082330" lon="-4.7530690">
        <ele>690.5</ele>
        <time>2019-05-25T14:50:16Z</time>
      </trkpt>
      <trkpt lat="41.6082490" lon="-4.7530310">
        <ele>690.5</ele>
        <time>2019-05-25T14:50:17Z</time>
      </trkpt>
      <trkpt lat="41.6082690" lon="-4.7529950">
        <ele>690.5</ele>
        <time>2019-05-25T14:50:18Z</time>
      </trkpt>
      <trkpt lat="41.6082950" lon="-4.7529590">
        <ele>690.5</ele>
        <time>2019-05-25T14:50:19Z</time>
      </trkpt>
      <trkpt lat="41.6083250" lon="-4.7529290">
        <ele>690.5</ele>
        <time>2019-05-25T14:50:20Z</time>
      </trkpt>
      <trkpt lat="41.6083590" lon="-4.7529060">
        <ele>690.6</ele>
        <time>2019-05-25T14:50:21Z</time>
      </trkpt>
      <trkpt lat="41.6083940" lon="-4.7528820">
        <ele>690.6</ele>
        <time>2019-05-25T14:50:22Z</time>
      </trkpt>
      <trkpt lat="41.6084320" lon="-4.7528600">
        <ele>690.6</ele>
        <time>2019-05-25T14:50:23Z</time>
      </trkpt>
      <trkpt lat="41.6084730" lon="-4.7528380">
        <ele>690.6</ele>
        <time>2019-05-25T14:50:24Z</time>
      </trkpt>
      <trkpt lat="41.6085170" lon="-4.7528140">
        <ele>690.6</ele>
        <time>2019-05-25T14:50:25Z</time>
      </trkpt>
      <trkpt lat="41.6085620" lon="-4.7527890">
        <ele>690.7</ele>
        <time>2019-05-25T14:50:26Z</time>
      </trkpt>
      <trkpt lat="41.6086060" lon="-4.7527620">
        <ele>690.7</ele>
        <time>2019-05-25T14:50:27Z</time>
      </trkpt>
      <trkpt lat="41.6086520" lon="-4.7527340">
        <ele>690.7</ele>
        <time>2019-05-25T14:50:28Z</time>
      </trkpt>
      <trkpt lat="41.6086970" lon="-4.7527080">
        <ele>690.7</ele>
        <time>2019-05-25T14:50:29Z</time>
      </trkpt>
      <trkpt lat="41.6087380" lon="-4.7526840">
        <ele>690.7</ele>
        <time>2019-05-25T14:50:30Z</time>
      </trkpt>
      <trkpt lat="41.6087800" lon="-4.7526590">
        <ele>690.8</ele>
        <time>2019-05-25T14:50:31Z</time>
      </trkpt>
      <trkpt lat="41.6088230" lon="-4.7526290">
        <ele>690.8</ele>
        <time>2019-05-25T14:50:32Z</time>
      </trkpt>
      <trkpt lat="41.6088660" lon="-4.7525980">
        <ele>690.9</ele>
        <time>2019-05-25T14:50:33Z</time>
      </trkpt>
      <trkpt lat="41.6089100" lon="-4.7525680">
        <ele>690.9</ele>
        <time>2019-05-25T14:50:34Z</time>
      </trkpt>
      <trkpt lat="41.6089540" lon="-4.7525370">
        <ele>690.9</ele>
        <time>2019-05-25T14:50:35Z</time>
      </trkpt>
      <trkpt lat="41.6090000" lon="-4.7525070">
        <ele>691.0</ele>
        <time>2019-05-25T14:50:36Z</time>
      </trkpt>
      <trkpt lat="41.6090440" lon="-4.7524810">
        <ele>691.0</ele>
        <time>2019-05-25T14:50:37Z</time>
      </trkpt>
      <trkpt lat="41.6090850" lon="-4.7524540">
        <ele>691.0</ele>
        <time>2019-05-25T14:50:38Z</time>
      </trkpt>
      <trkpt lat="41.6091280" lon="-4.7524270">
        <ele>691.1</ele>
        <time>2019-05-25T14:50:39Z</time>
      </trkpt>
      <trkpt lat="41.6091740" lon="-4.7524010">
        <ele>691.1</ele>
        <time>2019-05-25T14:50:40Z</time>
      </trkpt>
      <trkpt lat="41.6092230" lon="-4.7523720">
        <ele>691.2</ele>
        <time>2019-05-25T14:50:41Z</time>
      </trkpt>
      <trkpt lat="41.6092710" lon="-4.7523440">
        <ele>691.2</ele>
        <time>2019-05-25T14:50:42Z</time>
      </trkpt>
      <trkpt lat="41.6093220" lon="-4.7523210">
        <ele>691.2</ele>
        <time>2019-05-25T14:50:43Z</time>
      </trkpt>
      <trkpt lat="41.6093660" lon="-4.7522930">
        <ele>691.2</ele>
        <time>2019-05-25T14:50:44Z</time>
      </trkpt>
      <trkpt lat="41.6094130" lon="-4.7522660">
        <ele>691.3</ele>
        <time>2019-05-25T14:50:45Z</time>
      </trkpt>
      <trkpt lat="41.6094540" lon="-4.7522380">
        <ele>691.3</ele>
        <time>2019-05-25T14:50:46Z</time>
      </trkpt>
      <trkpt lat="41.6094950" lon="-4.7522160">
        <ele>691.3</ele>
        <time>2019-05-25T14:50:47Z</time>
      </trkpt>
      <trkpt lat="41.6095470" lon="-4.7521850">
        <ele>691.3</ele>
        <time>2019-05-25T14:50:48Z</time>
      </trkpt>
      <trkpt lat="41.6096020" lon="-4.7521560">
        <ele>691.4</ele>
        <time>2019-05-25T14:50:49Z</time>
      </trkpt>
      <trkpt lat="41.6096590" lon="-4.7521270">
        <ele>691.4</ele>
        <time>2019-05-25T14:50:50Z</time>
      </trkpt>
      <trkpt lat="41.6097080" lon="-4.7521050">
        <ele>691.5</ele>
        <time>2019-05-25T14:50:51Z</time>
      </trkpt>
      <trkpt lat="41.6097530" lon="-4.7520900">
        <ele>691.5</ele>
        <time>2019-05-25T14:50:52Z</time>
      </trkpt>
      <trkpt lat="41.6097970" lon="-4.7520820">
        <ele>691.5</ele>
        <time>2019-05-25T14:50:53Z</time>
      </trkpt>
      <trkpt lat="41.6098490" lon="-4.7520720">
        <ele>691.5</ele>
        <time>2019-05-25T14:50:54Z</time>
      </trkpt>
      <trkpt lat="41.6099070" lon="-4.7520690">
        <ele>691.6</ele>
        <time>2019-05-25T14:50:55Z</time>
      </trkpt>
      <trkpt lat="41.6099650" lon="-4.7520720">
        <ele>691.6</ele>
        <time>2019-05-25T14:50:56Z</time>
      </trkpt>
      <trkpt lat="41.6100150" lon="-4.7520840">
        <ele>691.6</ele>
        <time>2019-05-25T14:50:57Z</time>
      </trkpt>
      <trkpt lat="41.6100620" lon="-4.7520980">
        <ele>691.6</ele>
        <time>2019-05-25T14:50:58Z</time>
      </trkpt>
      <trkpt lat="41.6101100" lon="-4.7521190">
        <ele>691.6</ele>
        <time>2019-05-25T14:50:59Z</time>
      </trkpt>
      <trkpt lat="41.6101590" lon="-4.7521450">
        <ele>691.7</ele>
        <time>2019-05-25T14:51:00Z</time>
      </trkpt>
      <trkpt lat="41.6102130" lon="-4.7521600">
        <ele>691.8</ele>
        <time>2019-05-25T14:51:01Z</time>
      </trkpt>
      <trkpt lat="41.6102610" lon="-4.7521570">
        <ele>691.9</ele>
        <time>2019-05-25T14:51:02Z</time>
      </trkpt>
      <trkpt lat="41.6103060" lon="-4.7521320">
        <ele>692.0</ele>
        <time>2019-05-25T14:51:03Z</time>
      </trkpt>
      <trkpt lat="41.6103510" lon="-4.7520930">
        <ele>692.0</ele>
        <time>2019-05-25T14:51:04Z</time>
      </trkpt>
      <trkpt lat="41.6103910" lon="-4.7520420">
        <ele>692.1</ele>
        <time>2019-05-25T14:51:05Z</time>
      </trkpt>
      <trkpt lat="41.6104270" lon="-4.7519880">
        <ele>692.1</ele>
        <time>2019-05-25T14:51:06Z</time>
      </trkpt>
      <trkpt lat="41.6104630" lon="-4.7519260">
        <ele>692.2</ele>
        <time>2019-05-25T14:51:07Z</time>
      </trkpt>
      <trkpt lat="41.6105110" lon="-4.7518620">
        <ele>692.2</ele>
        <time>2019-05-25T14:51:08Z</time>
      </trkpt>
      <trkpt lat="41.6105590" lon="-4.7518060">
        <ele>692.2</ele>
        <time>2019-05-25T14:51:09Z</time>
      </trkpt>
      <trkpt lat="41.6106140" lon="-4.7517300">
        <ele>692.4</ele>
        <time>2019-05-25T14:51:10Z</time>
      </trkpt>
      <trkpt lat="41.6106570" lon="-4.7516750">
        <ele>692.6</ele>
        <time>2019-05-25T14:51:11Z</time>
      </trkpt>
      <trkpt lat="41.6107120" lon="-4.7516240">
        <ele>692.7</ele>
        <time>2019-05-25T14:51:12Z</time>
      </trkpt>
      <trkpt lat="41.6107440" lon="-4.7515640">
        <ele>692.8</ele>
        <time>2019-05-25T14:51:13Z</time>
      </trkpt>
      <trkpt lat="41.6107930" lon="-4.7515280">
        <ele>692.9</ele>
        <time>2019-05-25T14:51:14Z</time>
      </trkpt>
      <trkpt lat="41.6108480" lon="-4.7514940">
        <ele>692.9</ele>
        <time>2019-05-25T14:51:15Z</time>
      </trkpt>
      <trkpt lat="41.6108960" lon="-4.7514640">
        <ele>692.8</ele>
        <time>2019-05-25T14:51:16Z</time>
      </trkpt>
      <trkpt lat="41.6109590" lon="-4.7514190">
        <ele>692.8</ele>
        <time>2019-05-25T14:51:17Z</time>
      </trkpt>
      <trkpt lat="41.6110280" lon="-4.7513910">
        <ele>692.7</ele>
        <time>2019-05-25T14:51:18Z</time>
      </trkpt>
      <trkpt lat="41.6110970" lon="-4.7513540">
        <ele>692.6</ele>
        <time>2019-05-25T14:51:19Z</time>
      </trkpt>
      <trkpt lat="41.6111430" lon="-4.7513180">
        <ele>692.6</ele>
        <time>2019-05-25T14:51:20Z</time>
      </trkpt>
      <trkpt lat="41.6111880" lon="-4.7513010">
        <ele>692.5</ele>
        <time>2019-05-25T14:51:21Z</time>
      </trkpt>
      <trkpt lat="41.6112280" lon="-4.7513040">
        <ele>692.4</ele>
        <time>2019-05-25T14:51:22Z</time>
      </trkpt>
      <trkpt lat="41.6113140" lon="-4.7512620">
        <ele>692.3</ele>
        <time>2019-05-25T14:51:23Z</time>
      </trkpt>
      <trkpt lat="41.6114010" lon="-4.7512100">
        <ele>692.1</ele>
        <time>2019-05-25T14:51:24Z</time>
      </trkpt>
      <trkpt lat="41.6114700" lon="-4.7511780">
        <ele>692.0</ele>
        <time>2019-05-25T14:51:25Z</time>
      </trkpt>
      <trkpt lat="41.6115220" lon="-4.7511560">
        <ele>691.9</ele>
        <time>2019-05-25T14:51:26Z</time>
      </trkpt>
      <trkpt lat="41.6115620" lon="-4.7511230">
        <ele>691.8</ele>
        <time>2019-05-25T14:51:27Z</time>
      </trkpt>
      <trkpt lat="41.6116160" lon="-4.7510930">
        <ele>691.7</ele>
        <time>2019-05-25T14:51:28Z</time>
      </trkpt>
      <trkpt lat="41.6116500" lon="-4.7510420">
        <ele>691.6</ele>
        <time>2019-05-25T14:51:29Z</time>
      </trkpt>
      <trkpt lat="41.6117110" lon="-4.7510170">
        <ele>691.5</ele>
        <time>2019-05-25T14:51:30Z</time>
      </trkpt>
      <trkpt lat="41.6117620" lon="-4.7509820">
        <ele>691.5</ele>
        <time>2019-05-25T14:51:31Z</time>
      </trkpt>
      <trkpt lat="41.6118200" lon="-4.7509480">
        <ele>691.5</ele>
        <time>2019-05-25T14:51:32Z</time>
      </trkpt>
      <trkpt lat="41.6118850" lon="-4.7509390">
        <ele>691.4</ele>
        <time>2019-05-25T14:51:33Z</time>
      </trkpt>
      <trkpt lat="41.6119440" lon="-4.7509070">
        <ele>691.3</ele>
        <time>2019-05-25T14:51:34Z</time>
      </trkpt>
      <trkpt lat="41.6120120" lon="-4.7508710">
        <ele>691.2</ele>
        <time>2019-05-25T14:51:35Z</time>
      </trkpt>
      <trkpt lat="41.6120590" lon="-4.7508350">
        <ele>691.2</ele>
        <time>2019-05-25T14:51:36Z</time>
      </trkpt>
      <trkpt lat="41.6121170" lon="-4.7508010">
        <ele>691.1</ele>
        <time>2019-05-25T14:51:37Z</time>
      </trkpt>
      <trkpt lat="41.6121800" lon="-4.7507660">
        <ele>691.0</ele>
        <time>2019-05-25T14:51:38Z</time>
      </trkpt>
      <trkpt lat="41.6122580" lon="-4.7507270">
        <ele>690.9</ele>
        <time>2019-05-25T14:51:39Z</time>
      </trkpt>
      <trkpt lat="41.6122930" lon="-4.7506920">
        <ele>690.8</ele>
        <time>2019-05-25T14:51:40Z</time>
      </trkpt>
      <trkpt lat="41.6123440" lon="-4.7506490">
        <ele>690.7</ele>
        <time>2019-05-25T14:51:41Z</time>
      </trkpt>
      <trkpt lat="41.6123930" lon="-4.7506080">
        <ele>690.7</ele>
        <time>2019-05-25T14:51:42Z</time>
      </trkpt>
      <trkpt lat="41.6124470" lon="-4.7505590">
        <ele>690.6</ele>
        <time>2019-05-25T14:51:43Z</time>
      </trkpt>
      <trkpt lat="41.6124850" lon="-4.7505270">
        <ele>690.6</ele>
        <time>2019-05-25T14:51:44Z</time>
      </trkpt>
      <trkpt lat="41.6125360" lon="-4.7504820">
        <ele>690.5</ele>
        <time>2019-05-25T14:51:45Z</time>
      </trkpt>
      <trkpt lat="41.6125750" lon="-4.7504390">
        <ele>690.5</ele>
        <time>2019-05-25T14:51:46Z</time>
      </trkpt>
      <trkpt lat="41.6126250" lon="-4.7503810">
        <ele>690.4</ele>
        <time>2019-05-25T14:51:48Z</time>
      </trkpt>
      <trkpt lat="41.6126630" lon="-4.7503430">
        <ele>690.4</ele>
        <time>2019-05-25T14:51:49Z</time>
      </trkpt>
      <trkpt lat="41.6127230" lon="-4.7502700">
        <ele>690.3</ele>
        <time>2019-05-25T14:51:51Z</time>
      </trkpt>
      <trkpt lat="41.6127700" lon="-4.7502300">
        <ele>690.3</ele>
        <time>2019-05-25T14:51:52Z</time>
      </trkpt>
      <trkpt lat="41.6128060" lon="-4.7502040">
        <ele>690.2</ele>
        <time>2019-05-25T14:51:53Z</time>
      </trkpt>
      <trkpt lat="41.6128530" lon="-4.7502090">
        <ele>690.2</ele>
        <time>2019-05-25T14:51:54Z</time>
      </trkpt>
      <trkpt lat="41.6128950" lon="-4.7501990">
        <ele>690.2</ele>
        <time>2019-05-25T14:51:55Z</time>
      </trkpt>
      <trkpt lat="41.6129180" lon="-4.7501710">
        <ele>690.2</ele>
        <time>2019-05-25T14:51:56Z</time>
      </trkpt>
      <trkpt lat="41.6129270" lon="-4.7501310">
        <ele>690.2</ele>
        <time>2019-05-25T14:51:57Z</time>
      </trkpt>
      <trkpt lat="41.6129550" lon="-4.7501330">
        <ele>690.2</ele>
        <time>2019-05-25T14:51:58Z</time>
      </trkpt>
      <trkpt lat="41.6129670" lon="-4.7500940">
        <ele>690.2</ele>
        <time>2019-05-25T14:51:59Z</time>
      </trkpt>
      <trkpt lat="41.6129990" lon="-4.7500590">
        <ele>690.1</ele>
        <time>2019-05-25T14:52:00Z</time>
      </trkpt>
      <trkpt lat="41.6130300" lon="-4.7500330">
        <ele>690.1</ele>
        <time>2019-05-25T14:52:01Z</time>
      </trkpt>
      <trkpt lat="41.6130620" lon="-4.7499890">
        <ele>690.1</ele>
        <time>2019-05-25T14:52:02Z</time>
      </trkpt>
      <trkpt lat="41.6130970" lon="-4.7499510">
        <ele>690.1</ele>
        <time>2019-05-25T14:52:03Z</time>
      </trkpt>
      <trkpt lat="41.6131310" lon="-4.7499040">
        <ele>690.0</ele>
        <time>2019-05-25T14:52:04Z</time>
      </trkpt>
      <trkpt lat="41.6131630" lon="-4.7498740">
        <ele>690.0</ele>
        <time>2019-05-25T14:52:05Z</time>
      </trkpt>
      <trkpt lat="41.6132050" lon="-4.7498380">
        <ele>690.0</ele>
        <time>2019-05-25T14:52:06Z</time>
      </trkpt>
      <trkpt lat="41.6132390" lon="-4.7498110">
        <ele>689.9</ele>
        <time>2019-05-25T14:52:07Z</time>
      </trkpt>
      <trkpt lat="41.6132720" lon="-4.7497720">
        <ele>689.9</ele>
        <time>2019-05-25T14:52:08Z</time>
      </trkpt>
      <trkpt lat="41.6132980" lon="-4.7497290">
        <ele>689.8</ele>
        <time>2019-05-25T14:52:10Z</time>
      </trkpt>
      <trkpt lat="41.6133360" lon="-4.7496790">
        <ele>689.7</ele>
        <time>2019-05-25T14:52:11Z</time>
      </trkpt>
      <trkpt lat="41.6133900" lon="-4.7496090">
        <ele>689.5</ele>
        <time>2019-05-25T14:52:12Z</time>
      </trkpt>
      <trkpt lat="41.6134350" lon="-4.7495550">
        <ele>689.3</ele>
        <time>2019-05-25T14:52:13Z</time>
      </trkpt>
      <trkpt lat="41.6134690" lon="-4.7495160">
        <ele>689.2</ele>
        <time>2019-05-25T14:52:14Z</time>
      </trkpt>
      <trkpt lat="41.6135000" lon="-4.7494760">
        <ele>689.1</ele>
        <time>2019-05-25T14:52:15Z</time>
      </trkpt>
      <trkpt lat="41.6135310" lon="-4.7494330">
        <ele>689.0</ele>
        <time>2019-05-25T14:52:16Z</time>
      </trkpt>
      <trkpt lat="41.6135660" lon="-4.7493910">
        <ele>688.9</ele>
        <time>2019-05-25T14:52:17Z</time>
      </trkpt>
      <trkpt lat="41.6136150" lon="-4.7493400">
        <ele>688.8</ele>
        <time>2019-05-25T14:52:18Z</time>
      </trkpt>
      <trkpt lat="41.6136710" lon="-4.7492800">
        <ele>689.2</ele>
        <time>2019-05-25T14:52:19Z</time>
      </trkpt>
      <trkpt lat="41.6137170" lon="-4.7492290">
        <ele>689.6</ele>
        <time>2019-05-25T14:52:20Z</time>
      </trkpt>
      <trkpt lat="41.6137600" lon="-4.7491820">
        <ele>689.9</ele>
        <time>2019-05-25T14:52:21Z</time>
      </trkpt>
      <trkpt lat="41.6138000" lon="-4.7491370">
        <ele>690.1</ele>
        <time>2019-05-25T14:52:22Z</time>
      </trkpt>
      <trkpt lat="41.6138310" lon="-4.7491050">
        <ele>690.3</ele>
        <time>2019-05-25T14:52:23Z</time>
      </trkpt>
      <trkpt lat="41.6138660" lon="-4.7490740">
        <ele>690.4</ele>
        <time>2019-05-25T14:52:25Z</time>
      </trkpt>
      <trkpt lat="41.6139270" lon="-4.7490220">
        <ele>690.6</ele>
        <time>2019-05-25T14:52:27Z</time>
      </trkpt>
      <trkpt lat="41.6139910" lon="-4.7489960">
        <ele>690.8</ele>
        <time>2019-05-25T14:52:28Z</time>
      </trkpt>
      <trkpt lat="41.6140500" lon="-4.7490080">
        <ele>691.0</ele>
        <time>2019-05-25T14:52:29Z</time>
      </trkpt>
      <trkpt lat="41.6141030" lon="-4.7490480">
        <ele>691.0</ele>
        <time>2019-05-25T14:52:30Z</time>
      </trkpt>
      <trkpt lat="41.6141340" lon="-4.7491200">
        <ele>691.0</ele>
        <time>2019-05-25T14:52:31Z</time>
      </trkpt>
      <trkpt lat="41.6141780" lon="-4.7490850">
        <ele>691.0</ele>
        <time>2019-05-25T14:52:33Z</time>
      </trkpt>
      <trkpt lat="41.6142220" lon="-4.7490640">
        <ele>691.2</ele>
        <time>2019-05-25T14:52:34Z</time>
      </trkpt>
      <trkpt lat="41.6142600" lon="-4.7490450">
        <ele>691.3</ele>
        <time>2019-05-25T14:52:35Z</time>
      </trkpt>
      <trkpt lat="41.6143140" lon="-4.7490020">
        <ele>691.5</ele>
        <time>2019-05-25T14:52:36Z</time>
      </trkpt>
      <trkpt lat="41.6143420" lon="-4.7489600">
        <ele>691.6</ele>
        <time>2019-05-25T14:52:37Z</time>
      </trkpt>
      <trkpt lat="41.6143670" lon="-4.7489020">
        <ele>691.5</ele>
        <time>2019-05-25T14:52:38Z</time>
      </trkpt>
      <trkpt lat="41.6144030" lon="-4.7488560">
        <ele>691.5</ele>
        <time>2019-05-25T14:52:39Z</time>
      </trkpt>
      <trkpt lat="41.6144320" lon="-4.7488220">
        <ele>691.5</ele>
        <time>2019-05-25T14:52:40Z</time>
      </trkpt>
      <trkpt lat="41.6144590" lon="-4.7487840">
        <ele>691.5</ele>
        <time>2019-05-25T14:52:41Z</time>
      </trkpt>
      <trkpt lat="41.6144910" lon="-4.7487310">
        <ele>691.5</ele>
        <time>2019-05-25T14:52:42Z</time>
      </trkpt>
      <trkpt lat="41.6145180" lon="-4.7486830">
        <ele>691.5</ele>
        <time>2019-05-25T14:52:43Z</time>
      </trkpt>
      <trkpt lat="41.6145470" lon="-4.7486430">
        <ele>691.6</ele>
        <time>2019-05-25T14:52:44Z</time>
      </trkpt>
      <trkpt lat="41.6145870" lon="-4.7486000">
        <ele>691.6</ele>
        <time>2019-05-25T14:52:45Z</time>
      </trkpt>
      <trkpt lat="41.6146320" lon="-4.7485650">
        <ele>691.7</ele>
        <time>2019-05-25T14:52:46Z</time>
      </trkpt>
      <trkpt lat="41.6146770" lon="-4.7485390">
        <ele>691.7</ele>
        <time>2019-05-25T14:52:47Z</time>
      </trkpt>
      <trkpt lat="41.6147240" lon="-4.7485270">
        <ele>691.8</ele>
        <time>2019-05-25T14:52:48Z</time>
      </trkpt>
      <trkpt lat="41.6147710" lon="-4.7485290">
        <ele>691.9</ele>
        <time>2019-05-25T14:52:49Z</time>
      </trkpt>
      <trkpt lat="41.6148220" lon="-4.7485470">
        <ele>692.0</ele>
        <time>2019-05-25T14:52:50Z</time>
      </trkpt>
      <trkpt lat="41.6148720" lon="-4.7485750">
        <ele>692.1</ele>
        <time>2019-05-25T14:52:51Z</time>
      </trkpt>
      <trkpt lat="41.6149150" lon="-4.7485980">
        <ele>692.2</ele>
        <time>2019-05-25T14:52:52Z</time>
      </trkpt>
      <trkpt lat="41.6149580" lon="-4.7486170">
        <ele>692.3</ele>
        <time>2019-05-25T14:52:53Z</time>
      </trkpt>
      <trkpt lat="41.6150050" lon="-4.7486250">
        <ele>692.4</ele>
        <time>2019-05-25T14:52:54Z</time>
      </trkpt>
      <trkpt lat="41.6150580" lon="-4.7486220">
        <ele>692.4</ele>
        <time>2019-05-25T14:52:55Z</time>
      </trkpt>
      <trkpt lat="41.6151190" lon="-4.7486130">
        <ele>692.5</ele>
        <time>2019-05-25T14:52:56Z</time>
      </trkpt>
      <trkpt lat="41.6151730" lon="-4.7485990">
        <ele>692.6</ele>
        <time>2019-05-25T14:52:57Z</time>
      </trkpt>
      <trkpt lat="41.6152190" lon="-4.7485870">
        <ele>692.6</ele>
        <time>2019-05-25T14:52:58Z</time>
      </trkpt>
      <trkpt lat="41.6152680" lon="-4.7485790">
        <ele>692.7</ele>
        <time>2019-05-25T14:52:59Z</time>
      </trkpt>
      <trkpt lat="41.6153130" lon="-4.7485780">
        <ele>692.8</ele>
        <time>2019-05-25T14:53:00Z</time>
      </trkpt>
      <trkpt lat="41.6153520" lon="-4.7485740">
        <ele>692.9</ele>
        <time>2019-05-25T14:53:01Z</time>
      </trkpt>
      <trkpt lat="41.6153990" lon="-4.7485720">
        <ele>693.0</ele>
        <time>2019-05-25T14:53:02Z</time>
      </trkpt>
      <trkpt lat="41.6154460" lon="-4.7485710">
        <ele>693.1</ele>
        <time>2019-05-25T14:53:03Z</time>
      </trkpt>
      <trkpt lat="41.6154900" lon="-4.7485690">
        <ele>693.2</ele>
        <time>2019-05-25T14:53:04Z</time>
      </trkpt>
      <trkpt lat="41.6155310" lon="-4.7485590">
        <ele>693.3</ele>
        <time>2019-05-25T14:53:05Z</time>
      </trkpt>
      <trkpt lat="41.6155730" lon="-4.7485490">
        <ele>693.4</ele>
        <time>2019-05-25T14:53:06Z</time>
      </trkpt>
      <trkpt lat="41.6156230" lon="-4.7485390">
        <ele>693.5</ele>
        <time>2019-05-25T14:53:07Z</time>
      </trkpt>
      <trkpt lat="41.6156770" lon="-4.7485330">
        <ele>693.7</ele>
        <time>2019-05-25T14:53:08Z</time>
      </trkpt>
      <trkpt lat="41.6157340" lon="-4.7485280">
        <ele>693.8</ele>
        <time>2019-05-25T14:53:09Z</time>
      </trkpt>
      <trkpt lat="41.6157920" lon="-4.7485200">
        <ele>694.0</ele>
        <time>2019-05-25T14:53:10Z</time>
      </trkpt>
      <trkpt lat="41.6158480" lon="-4.7485250">
        <ele>694.1</ele>
        <time>2019-05-25T14:53:11Z</time>
      </trkpt>
      <trkpt lat="41.6158980" lon="-4.7485310">
        <ele>694.1</ele>
        <time>2019-05-25T14:53:12Z</time>
      </trkpt>
      <trkpt lat="41.6159340" lon="-4.7485420">
        <ele>694.2</ele>
        <time>2019-05-25T14:53:14Z</time>
      </trkpt>
      <trkpt lat="41.6159920" lon="-4.7485170">
        <ele>694.3</ele>
        <time>2019-05-25T14:53:15Z</time>
      </trkpt>
      <trkpt lat="41.6160450" lon="-4.7485030">
        <ele>694.3</ele>
        <time>2019-05-25T14:53:16Z</time>
      </trkpt>
      <trkpt lat="41.6160920" lon="-4.7484910">
        <ele>694.3</ele>
        <time>2019-05-25T14:53:17Z</time>
      </trkpt>
      <trkpt lat="41.6161220" lon="-4.7484800">
        <ele>694.3</ele>
        <time>2019-05-25T14:53:18Z</time>
      </trkpt>
      <trkpt lat="41.6161410" lon="-4.7485450">
        <ele>694.3</ele>
        <time>2019-05-25T14:53:24Z</time>
      </trkpt>
      <trkpt lat="41.6161680" lon="-4.7485730">
        <ele>694.3</ele>
        <time>2019-05-25T14:53:55Z</time>
      </trkpt>
      <trkpt lat="41.6161940" lon="-4.7486000">
        <ele>694.2</ele>
        <time>2019-05-25T14:53:56Z</time>
      </trkpt>
      <trkpt lat="41.6162340" lon="-4.7485950">
        <ele>694.0</ele>
        <time>2019-05-25T14:53:57Z</time>
      </trkpt>
      <trkpt lat="41.6162710" lon="-4.7485930">
        <ele>693.9</ele>
        <time>2019-05-25T14:53:58Z</time>
      </trkpt>
      <trkpt lat="41.6163080" lon="-4.7485920">
        <ele>693.8</ele>
        <time>2019-05-25T14:53:59Z</time>
      </trkpt>
      <trkpt lat="41.6163490" lon="-4.7485880">
        <ele>693.7</ele>
        <time>2019-05-25T14:54:00Z</time>
      </trkpt>
      <trkpt lat="41.6163940" lon="-4.7485810">
        <ele>693.5</ele>
        <time>2019-05-25T14:54:01Z</time>
      </trkpt>
      <trkpt lat="41.6164350" lon="-4.7485720">
        <ele>693.4</ele>
        <time>2019-05-25T14:54:02Z</time>
      </trkpt>
      <trkpt lat="41.6164710" lon="-4.7485630">
        <ele>693.3</ele>
        <time>2019-05-25T14:54:03Z</time>
      </trkpt>
      <trkpt lat="41.6165020" lon="-4.7485570">
        <ele>693.3</ele>
        <time>2019-05-25T14:54:04Z</time>
      </trkpt>
      <trkpt lat="41.6165330" lon="-4.7485490">
        <ele>693.2</ele>
        <time>2019-05-25T14:54:05Z</time>
      </trkpt>
      <trkpt lat="41.6165580" lon="-4.7485300">
        <ele>693.1</ele>
        <time>2019-05-25T14:54:06Z</time>
      </trkpt>
      <trkpt lat="41.6165890" lon="-4.7485100">
        <ele>693.1</ele>
        <time>2019-05-25T14:54:07Z</time>
      </trkpt>
      <trkpt lat="41.6166220" lon="-4.7484920">
        <ele>693.0</ele>
        <time>2019-05-25T14:54:08Z</time>
      </trkpt>
      <trkpt lat="41.6166560" lon="-4.7484830">
        <ele>693.0</ele>
        <time>2019-05-25T14:54:09Z</time>
      </trkpt>
      <trkpt lat="41.6166900" lon="-4.7484820">
        <ele>692.9</ele>
        <time>2019-05-25T14:54:10Z</time>
      </trkpt>
      <trkpt lat="41.6167260" lon="-4.7484810">
        <ele>692.9</ele>
        <time>2019-05-25T14:54:11Z</time>
      </trkpt>
      <trkpt lat="41.6167630" lon="-4.7484810">
        <ele>692.9</ele>
        <time>2019-05-25T14:54:12Z</time>
      </trkpt>
      <trkpt lat="41.6168030" lon="-4.7484770">
        <ele>692.9</ele>
        <time>2019-05-25T14:54:13Z</time>
      </trkpt>
      <trkpt lat="41.6168470" lon="-4.7484670">
        <ele>692.9</ele>
        <time>2019-05-25T14:54:14Z</time>
      </trkpt>
      <trkpt lat="41.6168960" lon="-4.7484570">
        <ele>692.8</ele>
        <time>2019-05-25T14:54:15Z</time>
      </trkpt>
      <trkpt lat="41.6169450" lon="-4.7484440">
        <ele>692.8</ele>
        <time>2019-05-25T14:54:16Z</time>
      </trkpt>
      <trkpt lat="41.6169910" lon="-4.7484370">
        <ele>692.8</ele>
        <time>2019-05-25T14:54:17Z</time>
      </trkpt>
      <trkpt lat="41.6170390" lon="-4.7484290">
        <ele>692.8</ele>
        <time>2019-05-25T14:54:18Z</time>
      </trkpt>
      <trkpt lat="41.6170840" lon="-4.7484170">
        <ele>692.8</ele>
        <time>2019-05-25T14:54:19Z</time>
      </trkpt>
      <trkpt lat="41.6171330" lon="-4.7484140">
        <ele>692.8</ele>
        <time>2019-05-25T14:54:20Z</time>
      </trkpt>
      <trkpt lat="41.6171810" lon="-4.7484100">
        <ele>692.8</ele>
        <time>2019-05-25T14:54:21Z</time>
      </trkpt>
      <trkpt lat="41.6172290" lon="-4.7484080">
        <ele>692.8</ele>
        <time>2019-05-25T14:54:22Z</time>
      </trkpt>
      <trkpt lat="41.6172790" lon="-4.7484000">
        <ele>692.8</ele>
        <time>2019-05-25T14:54:23Z</time>
      </trkpt>
      <trkpt lat="41.6173280" lon="-4.7483960">
        <ele>692.8</ele>
        <time>2019-05-25T14:54:24Z</time>
      </trkpt>
      <trkpt lat="41.6173760" lon="-4.7483930">
        <ele>692.8</ele>
        <time>2019-05-25T14:54:25Z</time>
      </trkpt>
      <trkpt lat="41.6174230" lon="-4.7483970">
        <ele>692.8</ele>
        <time>2019-05-25T14:54:26Z</time>
      </trkpt>
      <trkpt lat="41.6174690" lon="-4.7484090">
        <ele>692.8</ele>
        <time>2019-05-25T14:54:27Z</time>
      </trkpt>
      <trkpt lat="41.6175130" lon="-4.7484280">
        <ele>692.8</ele>
        <time>2019-05-25T14:54:28Z</time>
      </trkpt>
      <trkpt lat="41.6175600" lon="-4.7483980">
        <ele>692.8</ele>
        <time>2019-05-25T14:54:29Z</time>
      </trkpt>
      <trkpt lat="41.6176020" lon="-4.7483830">
        <ele>692.5</ele>
        <time>2019-05-25T14:54:30Z</time>
      </trkpt>
      <trkpt lat="41.6176410" lon="-4.7483420">
        <ele>692.3</ele>
        <time>2019-05-25T14:54:31Z</time>
      </trkpt>
      <trkpt lat="41.6176910" lon="-4.7483390">
        <ele>692.0</ele>
        <time>2019-05-25T14:54:32Z</time>
      </trkpt>
      <trkpt lat="41.6177350" lon="-4.7483330">
        <ele>691.9</ele>
        <time>2019-05-25T14:54:33Z</time>
      </trkpt>
      <trkpt lat="41.6177760" lon="-4.7483270">
        <ele>691.7</ele>
        <time>2019-05-25T14:54:34Z</time>
      </trkpt>
      <trkpt lat="41.6178160" lon="-4.7483220">
        <ele>691.6</ele>
        <time>2019-05-25T14:54:35Z</time>
      </trkpt>
      <trkpt lat="41.6178570" lon="-4.7483240">
        <ele>691.6</ele>
        <time>2019-05-25T14:54:36Z</time>
      </trkpt>
      <trkpt lat="41.6178990" lon="-4.7483270">
        <ele>691.5</ele>
        <time>2019-05-25T14:54:37Z</time>
      </trkpt>
      <trkpt lat="41.6179420" lon="-4.7483220">
        <ele>691.5</ele>
        <time>2019-05-25T14:54:38Z</time>
      </trkpt>
      <trkpt lat="41.6179890" lon="-4.7483280">
        <ele>691.4</ele>
        <time>2019-05-25T14:54:39Z</time>
      </trkpt>
      <trkpt lat="41.6180370" lon="-4.7483300">
        <ele>691.4</ele>
        <time>2019-05-25T14:54:40Z</time>
      </trkpt>
      <trkpt lat="41.6180870" lon="-4.7483250">
        <ele>691.4</ele>
        <time>2019-05-25T14:54:41Z</time>
      </trkpt>
      <trkpt lat="41.6181390" lon="-4.7483260">
        <ele>691.4</ele>
        <time>2019-05-25T14:54:42Z</time>
      </trkpt>
      <trkpt lat="41.6181890" lon="-4.7483130">
        <ele>691.4</ele>
        <time>2019-05-25T14:54:43Z</time>
      </trkpt>
      <trkpt lat="41.6182460" lon="-4.7483180">
        <ele>691.4</ele>
        <time>2019-05-25T14:54:44Z</time>
      </trkpt>
      <trkpt lat="41.6183070" lon="-4.7483180">
        <ele>691.4</ele>
        <time>2019-05-25T14:54:45Z</time>
      </trkpt>
      <trkpt lat="41.6183670" lon="-4.7483180">
        <ele>691.4</ele>
        <time>2019-05-25T14:54:46Z</time>
      </trkpt>
      <trkpt lat="41.6184240" lon="-4.7483140">
        <ele>691.5</ele>
        <time>2019-05-25T14:54:47Z</time>
      </trkpt>
      <trkpt lat="41.6184810" lon="-4.7483100">
        <ele>691.5</ele>
        <time>2019-05-25T14:54:48Z</time>
      </trkpt>
      <trkpt lat="41.6185340" lon="-4.7483030">
        <ele>691.5</ele>
        <time>2019-05-25T14:54:49Z</time>
      </trkpt>
      <trkpt lat="41.6185860" lon="-4.7483050">
        <ele>691.5</ele>
        <time>2019-05-25T14:54:50Z</time>
      </trkpt>
      <trkpt lat="41.6186380" lon="-4.7483010">
        <ele>691.5</ele>
        <time>2019-05-25T14:54:51Z</time>
      </trkpt>
      <trkpt lat="41.6186920" lon="-4.7483000">
        <ele>691.6</ele>
        <time>2019-05-25T14:54:52Z</time>
      </trkpt>
      <trkpt lat="41.6187430" lon="-4.7482900">
        <ele>691.6</ele>
        <time>2019-05-25T14:54:53Z</time>
      </trkpt>
      <trkpt lat="41.6187880" lon="-4.7482870">
        <ele>691.6</ele>
        <time>2019-05-25T14:54:54Z</time>
      </trkpt>
      <trkpt lat="41.6188350" lon="-4.7482860">
        <ele>691.6</ele>
        <time>2019-05-25T14:54:55Z</time>
      </trkpt>
      <trkpt lat="41.6188830" lon="-4.7482880">
        <ele>691.6</ele>
        <time>2019-05-25T14:54:56Z</time>
      </trkpt>
      <trkpt lat="41.6189290" lon="-4.7482940">
        <ele>691.6</ele>
        <time>2019-05-25T14:54:57Z</time>
      </trkpt>
      <trkpt lat="41.6189390" lon="-4.7483600">
        <ele>691.6</ele>
        <time>2019-05-25T14:54:58Z</time>
      </trkpt>
      <trkpt lat="41.6189130" lon="-4.7483700">
        <ele>691.6</ele>
        <time>2019-05-25T14:55:11Z</time>
      </trkpt>
      <trkpt lat="41.6189230" lon="-4.7484170">
        <ele>691.6</ele>
        <time>2019-05-25T14:55:17Z</time>
      </trkpt>
      <trkpt lat="41.6189040" lon="-4.7484530">
        <ele>691.6</ele>
        <time>2019-05-25T14:55:20Z</time>
      </trkpt>
      <trkpt lat="41.6189170" lon="-4.7484170">
        <ele>691.6</ele>
        <time>2019-05-25T14:55:26Z</time>
      </trkpt>
      <trkpt lat="41.6189450" lon="-4.7484400">
        <ele>691.6</ele>
        <time>2019-05-25T14:55:29Z</time>
      </trkpt>
      <trkpt lat="41.6189410" lon="-4.7484770">
        <ele>691.6</ele>
        <time>2019-05-25T14:55:31Z</time>
      </trkpt>
      <trkpt lat="41.6189110" lon="-4.7484740">
        <ele>691.6</ele>
        <time>2019-05-25T14:55:33Z</time>
      </trkpt>
      <trkpt lat="41.6188910" lon="-4.7484370">
        <ele>691.6</ele>
        <time>2019-05-25T14:55:35Z</time>
      </trkpt>
      <trkpt lat="41.6189050" lon="-4.7484040">
        <ele>691.6</ele>
        <time>2019-05-25T14:55:37Z</time>
      </trkpt>
      <trkpt lat="41.6189320" lon="-4.7484330">
        <ele>691.5</ele>
        <time>2019-05-25T14:55:39Z</time>
      </trkpt>
      <trkpt lat="41.6189380" lon="-4.7484740">
        <ele>691.4</ele>
        <time>2019-05-25T14:55:41Z</time>
      </trkpt>
      <trkpt lat="41.6189440" lon="-4.7485150">
        <ele>691.4</ele>
        <time>2019-05-25T14:55:43Z</time>
      </trkpt>
      <trkpt lat="41.6189450" lon="-4.7485520">
        <ele>691.3</ele>
        <time>2019-05-25T14:55:45Z</time>
      </trkpt>
      <trkpt lat="41.6189200" lon="-4.7485110">
        <ele>691.2</ele>
        <time>2019-05-25T14:55:48Z</time>
      </trkpt>
      <trkpt lat="41.6189350" lon="-4.7484520">
        <ele>691.0</ele>
        <time>2019-05-25T14:55:49Z</time>
      </trkpt>
      <trkpt lat="41.6189630" lon="-4.7484080">
        <ele>690.9</ele>
        <time>2019-05-25T14:55:50Z</time>
      </trkpt>
      <trkpt lat="41.6190020" lon="-4.7483790">
        <ele>690.7</ele>
        <time>2019-05-25T14:55:51Z</time>
      </trkpt>
      <trkpt lat="41.6190410" lon="-4.7483670">
        <ele>690.7</ele>
        <time>2019-05-25T14:55:52Z</time>
      </trkpt>
      <trkpt lat="41.6190810" lon="-4.7483640">
        <ele>690.8</ele>
        <time>2019-05-25T14:55:53Z</time>
      </trkpt>
      <trkpt lat="41.6191160" lon="-4.7483620">
        <ele>691.0</ele>
        <time>2019-05-25T14:55:54Z</time>
      </trkpt>
      <trkpt lat="41.6191480" lon="-4.7483500">
        <ele>691.1</ele>
        <time>2019-05-25T14:55:55Z</time>
      </trkpt>
      <trkpt lat="41.6191780" lon="-4.7483300">
        <ele>691.2</ele>
        <time>2019-05-25T14:55:56Z</time>
      </trkpt>
      <trkpt lat="41.6192050" lon="-4.7483090">
        <ele>691.4</ele>
        <time>2019-05-25T14:55:57Z</time>
      </trkpt>
      <trkpt lat="41.6192330" lon="-4.7483000">
        <ele>691.4</ele>
        <time>2019-05-25T14:55:58Z</time>
      </trkpt>
      <trkpt lat="41.6192630" lon="-4.7482980">
        <ele>691.5</ele>
        <time>2019-05-25T14:55:59Z</time>
      </trkpt>
      <trkpt lat="41.6192980" lon="-4.7483010">
        <ele>691.6</ele>
        <time>2019-05-25T14:56:00Z</time>
      </trkpt>
      <trkpt lat="41.6193500" lon="-4.7483020">
        <ele>691.6</ele>
        <time>2019-05-25T14:56:01Z</time>
      </trkpt>
      <trkpt lat="41.6194120" lon="-4.7482950">
        <ele>691.7</ele>
        <time>2019-05-25T14:56:02Z</time>
      </trkpt>
      <trkpt lat="41.6194700" lon="-4.7482890">
        <ele>691.7</ele>
        <time>2019-05-25T14:56:03Z</time>
      </trkpt>
      <trkpt lat="41.6195230" lon="-4.7482820">
        <ele>691.7</ele>
        <time>2019-05-25T14:56:04Z</time>
      </trkpt>
      <trkpt lat="41.6195740" lon="-4.7482790">
        <ele>691.7</ele>
        <time>2019-05-25T14:56:05Z</time>
      </trkpt>
      <trkpt lat="41.6196220" lon="-4.7482750">
        <ele>691.7</ele>
        <time>2019-05-25T14:56:06Z</time>
      </trkpt>
      <trkpt lat="41.6196690" lon="-4.7482690">
        <ele>691.7</ele>
        <time>2019-05-25T14:56:07Z</time>
      </trkpt>
      <trkpt lat="41.6197130" lon="-4.7482630">
        <ele>691.7</ele>
        <time>2019-05-25T14:56:08Z</time>
      </trkpt>
      <trkpt lat="41.6197530" lon="-4.7482570">
        <ele>691.7</ele>
        <time>2019-05-25T14:56:09Z</time>
      </trkpt>
      <trkpt lat="41.6197910" lon="-4.7482520">
        <ele>691.7</ele>
        <time>2019-05-25T14:56:10Z</time>
      </trkpt>
      <trkpt lat="41.6198310" lon="-4.7482470">
        <ele>691.7</ele>
        <time>2019-05-25T14:56:11Z</time>
      </trkpt>
      <trkpt lat="41.6198670" lon="-4.7482460">
        <ele>691.7</ele>
        <time>2019-05-25T14:56:12Z</time>
      </trkpt>
      <trkpt lat="41.6199020" lon="-4.7482440">
        <ele>691.7</ele>
        <time>2019-05-25T14:56:13Z</time>
      </trkpt>
      <trkpt lat="41.6199380" lon="-4.7482410">
        <ele>691.7</ele>
        <time>2019-05-25T14:56:14Z</time>
      </trkpt>
      <trkpt lat="41.6199830" lon="-4.7482330">
        <ele>691.7</ele>
        <time>2019-05-25T14:56:15Z</time>
      </trkpt>
      <trkpt lat="41.6200300" lon="-4.7482230">
        <ele>691.7</ele>
        <time>2019-05-25T14:56:16Z</time>
      </trkpt>
      <trkpt lat="41.6200790" lon="-4.7482120">
        <ele>691.7</ele>
        <time>2019-05-25T14:56:17Z</time>
      </trkpt>
      <trkpt lat="41.6201210" lon="-4.7482030">
        <ele>691.7</ele>
        <time>2019-05-25T14:56:18Z</time>
      </trkpt>
      <trkpt lat="41.6201600" lon="-4.7481960">
        <ele>691.7</ele>
        <time>2019-05-25T14:56:19Z</time>
      </trkpt>
      <trkpt lat="41.6202010" lon="-4.7481910">
        <ele>691.7</ele>
        <time>2019-05-25T14:56:20Z</time>
      </trkpt>
      <trkpt lat="41.6202430" lon="-4.7481880">
        <ele>691.7</ele>
        <time>2019-05-25T14:56:21Z</time>
      </trkpt>
      <trkpt lat="41.6202870" lon="-4.7481830">
        <ele>691.7</ele>
        <time>2019-05-25T14:56:22Z</time>
      </trkpt>
      <trkpt lat="41.6203330" lon="-4.7481750">
        <ele>691.7</ele>
        <time>2019-05-25T14:56:23Z</time>
      </trkpt>
      <trkpt lat="41.6203790" lon="-4.7481680">
        <ele>691.7</ele>
        <time>2019-05-25T14:56:24Z</time>
      </trkpt>
      <trkpt lat="41.6204250" lon="-4.7481630">
        <ele>691.7</ele>
        <time>2019-05-25T14:56:25Z</time>
      </trkpt>
      <trkpt lat="41.6204700" lon="-4.7481590">
        <ele>691.7</ele>
        <time>2019-05-25T14:56:26Z</time>
      </trkpt>
      <trkpt lat="41.6205150" lon="-4.7481590">
        <ele>691.7</ele>
        <time>2019-05-25T14:56:27Z</time>
      </trkpt>
      <trkpt lat="41.6205620" lon="-4.7481600">
        <ele>691.7</ele>
        <time>2019-05-25T14:56:28Z</time>
      </trkpt>
      <trkpt lat="41.6206100" lon="-4.7481570">
        <ele>691.7</ele>
        <time>2019-05-25T14:56:29Z</time>
      </trkpt>
      <trkpt lat="41.6206570" lon="-4.7481530">
        <ele>691.7</ele>
        <time>2019-05-25T14:56:30Z</time>
      </trkpt>
      <trkpt lat="41.6207050" lon="-4.7481470">
        <ele>691.7</ele>
        <time>2019-05-25T14:56:31Z</time>
      </trkpt>
      <trkpt lat="41.6207520" lon="-4.7481430">
        <ele>691.7</ele>
        <time>2019-05-25T14:56:32Z</time>
      </trkpt>
      <trkpt lat="41.6207940" lon="-4.7481410">
        <ele>691.7</ele>
        <time>2019-05-25T14:56:33Z</time>
      </trkpt>
      <trkpt lat="41.6208340" lon="-4.7481480">
        <ele>691.7</ele>
        <time>2019-05-25T14:56:34Z</time>
      </trkpt>
      <trkpt lat="41.6208620" lon="-4.7481510">
        <ele>691.7</ele>
        <time>2019-05-25T14:56:35Z</time>
      </trkpt>
      <trkpt lat="41.6208920" lon="-4.7481740">
        <ele>691.6</ele>
        <time>2019-05-25T14:56:37Z</time>
      </trkpt>
      <trkpt lat="41.6209500" lon="-4.7481880">
        <ele>691.6</ele>
        <time>2019-05-25T14:56:39Z</time>
      </trkpt>
      <trkpt lat="41.6209840" lon="-4.7481840">
        <ele>691.6</ele>
        <time>2019-05-25T14:56:40Z</time>
      </trkpt>
      <trkpt lat="41.6210170" lon="-4.7481750">
        <ele>691.3</ele>
        <time>2019-05-25T14:56:41Z</time>
      </trkpt>
      <trkpt lat="41.6210550" lon="-4.7481770">
        <ele>691.3</ele>
        <time>2019-05-25T14:56:42Z</time>
      </trkpt>
      <trkpt lat="41.6210980" lon="-4.7481230">
        <ele>691.3</ele>
        <time>2019-05-25T14:56:43Z</time>
      </trkpt>
      <trkpt lat="41.6211300" lon="-4.7481100">
        <ele>691.3</ele>
        <time>2019-05-25T14:56:44Z</time>
      </trkpt>
      <trkpt lat="41.6211680" lon="-4.7481100">
        <ele>691.4</ele>
        <time>2019-05-25T14:56:45Z</time>
      </trkpt>
      <trkpt lat="41.6212130" lon="-4.7481040">
        <ele>691.4</ele>
        <time>2019-05-25T14:56:46Z</time>
      </trkpt>
      <trkpt lat="41.6212540" lon="-4.7480970">
        <ele>691.4</ele>
        <time>2019-05-25T14:56:47Z</time>
      </trkpt>
      <trkpt lat="41.6213050" lon="-4.7481130">
        <ele>691.4</ele>
        <time>2019-05-25T14:56:48Z</time>
      </trkpt>
      <trkpt lat="41.6213400" lon="-4.7481140">
        <ele>691.4</ele>
        <time>2019-05-25T14:56:49Z</time>
      </trkpt>
      <trkpt lat="41.6213900" lon="-4.7481070">
        <ele>691.4</ele>
        <time>2019-05-25T14:56:51Z</time>
      </trkpt>
      <trkpt lat="41.6214310" lon="-4.7480970">
        <ele>691.4</ele>
        <time>2019-05-25T14:56:52Z</time>
      </trkpt>
      <trkpt lat="41.6214850" lon="-4.7480850">
        <ele>691.4</ele>
        <time>2019-05-25T14:56:53Z</time>
      </trkpt>
      <trkpt lat="41.6215420" lon="-4.7480730">
        <ele>691.4</ele>
        <time>2019-05-25T14:56:54Z</time>
      </trkpt>
      <trkpt lat="41.6216030" lon="-4.7480680">
        <ele>691.4</ele>
        <time>2019-05-25T14:56:55Z</time>
      </trkpt>
      <trkpt lat="41.6216600" lon="-4.7480710">
        <ele>691.4</ele>
        <time>2019-05-25T14:56:56Z</time>
      </trkpt>
      <trkpt lat="41.6217170" lon="-4.7480790">
        <ele>691.3</ele>
        <time>2019-05-25T14:56:57Z</time>
      </trkpt>
      <trkpt lat="41.6217570" lon="-4.7480860">
        <ele>691.3</ele>
        <time>2019-05-25T14:56:58Z</time>
      </trkpt>
      <trkpt lat="41.6217890" lon="-4.7480970">
        <ele>691.3</ele>
        <time>2019-05-25T14:56:59Z</time>
      </trkpt>
      <trkpt lat="41.6218240" lon="-4.7481120">
        <ele>691.3</ele>
        <time>2019-05-25T14:57:00Z</time>
      </trkpt>
      <trkpt lat="41.6218600" lon="-4.7481340">
        <ele>691.2</ele>
        <time>2019-05-25T14:57:01Z</time>
      </trkpt>
      <trkpt lat="41.6218930" lon="-4.7481600">
        <ele>691.2</ele>
        <time>2019-05-25T14:57:02Z</time>
      </trkpt>
      <trkpt lat="41.6219230" lon="-4.7481950">
        <ele>691.1</ele>
        <time>2019-05-25T14:57:03Z</time>
      </trkpt>
      <trkpt lat="41.6219530" lon="-4.7482350">
        <ele>691.1</ele>
        <time>2019-05-25T14:57:04Z</time>
      </trkpt>
      <trkpt lat="41.6219820" lon="-4.7482790">
        <ele>691.0</ele>
        <time>2019-05-25T14:57:05Z</time>
      </trkpt>
      <trkpt lat="41.6220110" lon="-4.7483210">
        <ele>690.9</ele>
        <time>2019-05-25T14:57:06Z</time>
      </trkpt>
      <trkpt lat="41.6220650" lon="-4.7483790">
        <ele>690.8</ele>
        <time>2019-05-25T14:57:08Z</time>
      </trkpt>
      <trkpt lat="41.6221180" lon="-4.7484220">
        <ele>690.7</ele>
        <time>2019-05-25T14:57:09Z</time>
      </trkpt>
      <trkpt lat="41.6221660" lon="-4.7484560">
        <ele>690.6</ele>
        <time>2019-05-25T14:57:10Z</time>
      </trkpt>
      <trkpt lat="41.6222110" lon="-4.7484860">
        <ele>690.7</ele>
        <time>2019-05-25T14:57:11Z</time>
      </trkpt>
      <trkpt lat="41.6222750" lon="-4.7485490">
        <ele>690.7</ele>
        <time>2019-05-25T14:57:12Z</time>
      </trkpt>
      <trkpt lat="41.6223260" lon="-4.7486730">
        <ele>690.8</ele>
        <time>2019-05-25T14:57:13Z</time>
      </trkpt>
      <trkpt lat="41.6223380" lon="-4.7487500">
        <ele>690.8</ele>
        <time>2019-05-25T14:57:14Z</time>
      </trkpt>
      <trkpt lat="41.6223550" lon="-4.7488110">
        <ele>690.9</ele>
        <time>2019-05-25T14:57:15Z</time>
      </trkpt>
      <trkpt lat="41.6223670" lon="-4.7488760">
        <ele>690.9</ele>
        <time>2019-05-25T14:57:16Z</time>
      </trkpt>
      <trkpt lat="41.6223750" lon="-4.7489340">
        <ele>690.9</ele>
        <time>2019-05-25T14:57:17Z</time>
      </trkpt>
      <trkpt lat="41.6223850" lon="-4.7489880">
        <ele>690.9</ele>
        <time>2019-05-25T14:57:18Z</time>
      </trkpt>
      <trkpt lat="41.6223960" lon="-4.7490480">
        <ele>691.0</ele>
        <time>2019-05-25T14:57:19Z</time>
      </trkpt>
      <trkpt lat="41.6224070" lon="-4.7491150">
        <ele>690.9</ele>
        <time>2019-05-25T14:57:20Z</time>
      </trkpt>
      <trkpt lat="41.6224160" lon="-4.7491770">
        <ele>690.9</ele>
        <time>2019-05-25T14:57:21Z</time>
      </trkpt>
      <trkpt lat="41.6224250" lon="-4.7492510">
        <ele>690.8</ele>
        <time>2019-05-25T14:57:22Z</time>
      </trkpt>
      <trkpt lat="41.6224340" lon="-4.7493340">
        <ele>690.8</ele>
        <time>2019-05-25T14:57:23Z</time>
      </trkpt>
      <trkpt lat="41.6224460" lon="-4.7494120">
        <ele>690.7</ele>
        <time>2019-05-25T14:57:24Z</time>
      </trkpt>
      <trkpt lat="41.6224580" lon="-4.7494880">
        <ele>690.6</ele>
        <time>2019-05-25T14:57:25Z</time>
      </trkpt>
      <trkpt lat="41.6224720" lon="-4.7495640">
        <ele>690.4</ele>
        <time>2019-05-25T14:57:26Z</time>
      </trkpt>
      <trkpt lat="41.6224830" lon="-4.7496350">
        <ele>690.3</ele>
        <time>2019-05-25T14:57:27Z</time>
      </trkpt>
      <trkpt lat="41.6224950" lon="-4.7497080">
        <ele>690.1</ele>
        <time>2019-05-25T14:57:28Z</time>
      </trkpt>
      <trkpt lat="41.6225060" lon="-4.7497790">
        <ele>690.0</ele>
        <time>2019-05-25T14:57:29Z</time>
      </trkpt>
      <trkpt lat="41.6225150" lon="-4.7498490">
        <ele>689.8</ele>
        <time>2019-05-25T14:57:30Z</time>
      </trkpt>
      <trkpt lat="41.6225220" lon="-4.7499270">
        <ele>689.7</ele>
        <time>2019-05-25T14:57:31Z</time>
      </trkpt>
      <trkpt lat="41.6225290" lon="-4.7500040">
        <ele>689.5</ele>
        <time>2019-05-25T14:57:32Z</time>
      </trkpt>
      <trkpt lat="41.6225360" lon="-4.7500880">
        <ele>689.3</ele>
        <time>2019-05-25T14:57:33Z</time>
      </trkpt>
      <trkpt lat="41.6225480" lon="-4.7501770">
        <ele>689.1</ele>
        <time>2019-05-25T14:57:34Z</time>
      </trkpt>
      <trkpt lat="41.6225590" lon="-4.7502470">
        <ele>688.9</ele>
        <time>2019-05-25T14:57:35Z</time>
      </trkpt>
      <trkpt lat="41.6225640" lon="-4.7503330">
        <ele>688.7</ele>
        <time>2019-05-25T14:57:36Z</time>
      </trkpt>
      <trkpt lat="41.6225660" lon="-4.7504140">
        <ele>688.5</ele>
        <time>2019-05-25T14:57:37Z</time>
      </trkpt>
      <trkpt lat="41.6225690" lon="-4.7504840">
        <ele>688.3</ele>
        <time>2019-05-25T14:57:38Z</time>
      </trkpt>
      <trkpt lat="41.6225740" lon="-4.7505590">
        <ele>688.0</ele>
        <time>2019-05-25T14:57:39Z</time>
      </trkpt>
      <trkpt lat="41.6225810" lon="-4.7506460">
        <ele>687.7</ele>
        <time>2019-05-25T14:57:40Z</time>
      </trkpt>
      <trkpt lat="41.6225900" lon="-4.7507180">
        <ele>687.4</ele>
        <time>2019-05-25T14:57:41Z</time>
      </trkpt>
      <trkpt lat="41.6225950" lon="-4.7507860">
        <ele>687.2</ele>
        <time>2019-05-25T14:57:42Z</time>
      </trkpt>
      <trkpt lat="41.6226050" lon="-4.7508690">
        <ele>687.0</ele>
        <time>2019-05-25T14:57:43Z</time>
      </trkpt>
      <trkpt lat="41.6226200" lon="-4.7509530">
        <ele>686.9</ele>
        <time>2019-05-25T14:57:44Z</time>
      </trkpt>
      <trkpt lat="41.6226260" lon="-4.7510300">
        <ele>686.8</ele>
        <time>2019-05-25T14:57:45Z</time>
      </trkpt>
      <trkpt lat="41.6226360" lon="-4.7511120">
        <ele>686.7</ele>
        <time>2019-05-25T14:57:46Z</time>
      </trkpt>
      <trkpt lat="41.6226400" lon="-4.7511870">
        <ele>686.6</ele>
        <time>2019-05-25T14:57:47Z</time>
      </trkpt>
      <trkpt lat="41.6226530" lon="-4.7512740">
        <ele>686.6</ele>
        <time>2019-05-25T14:57:48Z</time>
      </trkpt>
      <trkpt lat="41.6226610" lon="-4.7513540">
        <ele>686.5</ele>
        <time>2019-05-25T14:57:49Z</time>
      </trkpt>
      <trkpt lat="41.6226610" lon="-4.7514320">
        <ele>686.5</ele>
        <time>2019-05-25T14:57:50Z</time>
      </trkpt>
      <trkpt lat="41.6226670" lon="-4.7515110">
        <ele>686.4</ele>
        <time>2019-05-25T14:57:51Z</time>
      </trkpt>
      <trkpt lat="41.6226940" lon="-4.7515830">
        <ele>686.3</ele>
        <time>2019-05-25T14:57:52Z</time>
      </trkpt>
      <trkpt lat="41.6227230" lon="-4.7516460">
        <ele>686.2</ele>
        <time>2019-05-25T14:57:53Z</time>
      </trkpt>
      <trkpt lat="41.6227550" lon="-4.7517230">
        <ele>686.1</ele>
        <time>2019-05-25T14:57:54Z</time>
      </trkpt>
      <trkpt lat="41.6227910" lon="-4.7517830">
        <ele>686.1</ele>
        <time>2019-05-25T14:57:55Z</time>
      </trkpt>
      <trkpt lat="41.6228220" lon="-4.7518520">
        <ele>686.0</ele>
        <time>2019-05-25T14:57:56Z</time>
      </trkpt>
      <trkpt lat="41.6228410" lon="-4.7519160">
        <ele>686.0</ele>
        <time>2019-05-25T14:57:57Z</time>
      </trkpt>
      <trkpt lat="41.6228610" lon="-4.7519830">
        <ele>685.9</ele>
        <time>2019-05-25T14:57:58Z</time>
      </trkpt>
      <trkpt lat="41.6228790" lon="-4.7520650">
        <ele>685.9</ele>
        <time>2019-05-25T14:57:59Z</time>
      </trkpt>
      <trkpt lat="41.6228940" lon="-4.7521400">
        <ele>685.9</ele>
        <time>2019-05-25T14:58:00Z</time>
      </trkpt>
      <trkpt lat="41.6229130" lon="-4.7522170">
        <ele>685.9</ele>
        <time>2019-05-25T14:58:01Z</time>
      </trkpt>
      <trkpt lat="41.6229360" lon="-4.7523010">
        <ele>685.9</ele>
        <time>2019-05-25T14:58:02Z</time>
      </trkpt>
      <trkpt lat="41.6229580" lon="-4.7523740">
        <ele>685.9</ele>
        <time>2019-05-25T14:58:03Z</time>
      </trkpt>
      <trkpt lat="41.6229750" lon="-4.7524390">
        <ele>686.0</ele>
        <time>2019-05-25T14:58:04Z</time>
      </trkpt>
      <trkpt lat="41.6229950" lon="-4.7525030">
        <ele>686.0</ele>
        <time>2019-05-25T14:58:05Z</time>
      </trkpt>
      <trkpt lat="41.6230110" lon="-4.7525660">
        <ele>686.1</ele>
        <time>2019-05-25T14:58:06Z</time>
      </trkpt>
      <trkpt lat="41.6230260" lon="-4.7526440">
        <ele>686.2</ele>
        <time>2019-05-25T14:58:07Z</time>
      </trkpt>
      <trkpt lat="41.6230330" lon="-4.7527190">
        <ele>686.3</ele>
        <time>2019-05-25T14:58:08Z</time>
      </trkpt>
      <trkpt lat="41.6230230" lon="-4.7527900">
        <ele>686.3</ele>
        <time>2019-05-25T14:58:09Z</time>
      </trkpt>
      <trkpt lat="41.6230110" lon="-4.7528630">
        <ele>686.4</ele>
        <time>2019-05-25T14:58:10Z</time>
      </trkpt>
      <trkpt lat="41.6230000" lon="-4.7529360">
        <ele>686.5</ele>
        <time>2019-05-25T14:58:11Z</time>
      </trkpt>
      <trkpt lat="41.6229900" lon="-4.7530030">
        <ele>686.5</ele>
        <time>2019-05-25T14:58:12Z</time>
      </trkpt>
      <trkpt lat="41.6229890" lon="-4.7530750">
        <ele>686.5</ele>
        <time>2019-05-25T14:58:13Z</time>
      </trkpt>
      <trkpt lat="41.6229990" lon="-4.7531710">
        <ele>686.5</ele>
        <time>2019-05-25T14:58:14Z</time>
      </trkpt>
      <trkpt lat="41.6229890" lon="-4.7532270">
        <ele>686.5</ele>
        <time>2019-05-25T14:58:15Z</time>
      </trkpt>
      <trkpt lat="41.6229750" lon="-4.7532720">
        <ele>686.6</ele>
        <time>2019-05-25T14:58:16Z</time>
      </trkpt>
      <trkpt lat="41.6229700" lon="-4.7533180">
        <ele>686.6</ele>
        <time>2019-05-25T14:58:18Z</time>
      </trkpt>
      <trkpt lat="41.6229660" lon="-4.7533660">
        <ele>686.6</ele>
        <time>2019-05-25T14:58:33Z</time>
      </trkpt>
      <trkpt lat="41.6230180" lon="-4.7534120">
        <ele>686.7</ele>
        <time>2019-05-25T14:58:35Z</time>
      </trkpt>
      <trkpt lat="41.6230570" lon="-4.7534290">
        <ele>686.8</ele>
        <time>2019-05-25T14:58:36Z</time>
      </trkpt>
      <trkpt lat="41.6230970" lon="-4.7534250">
        <ele>686.8</ele>
        <time>2019-05-25T14:58:37Z</time>
      </trkpt>
      <trkpt lat="41.6231350" lon="-4.7534050">
        <ele>686.9</ele>
        <time>2019-05-25T14:58:38Z</time>
      </trkpt>
      <trkpt lat="41.6231720" lon="-4.7533780">
        <ele>686.9</ele>
        <time>2019-05-25T14:58:39Z</time>
      </trkpt>
      <trkpt lat="41.6232110" lon="-4.7533630">
        <ele>686.9</ele>
        <time>2019-05-25T14:58:40Z</time>
      </trkpt>
      <trkpt lat="41.6232510" lon="-4.7533690">
        <ele>686.9</ele>
        <time>2019-05-25T14:58:41Z</time>
      </trkpt>
      <trkpt lat="41.6232900" lon="-4.7533900">
        <ele>686.9</ele>
        <time>2019-05-25T14:58:42Z</time>
      </trkpt>
      <trkpt lat="41.6233220" lon="-4.7534220">
        <ele>686.9</ele>
        <time>2019-05-25T14:58:43Z</time>
      </trkpt>
      <trkpt lat="41.6233490" lon="-4.7534640">
        <ele>686.8</ele>
        <time>2019-05-25T14:58:44Z</time>
      </trkpt>
      <trkpt lat="41.6233750" lon="-4.7535110">
        <ele>686.8</ele>
        <time>2019-05-25T14:58:45Z</time>
      </trkpt>
      <trkpt lat="41.6233940" lon="-4.7535480">
        <ele>686.8</ele>
        <time>2019-05-25T14:58:46Z</time>
      </trkpt>
      <trkpt lat="41.6234230" lon="-4.7536100">
        <ele>686.7</ele>
        <time>2019-05-25T14:58:47Z</time>
      </trkpt>
      <trkpt lat="41.6234570" lon="-4.7536820">
        <ele>686.7</ele>
        <time>2019-05-25T14:58:48Z</time>
      </trkpt>
      <trkpt lat="41.6234890" lon="-4.7537470">
        <ele>686.6</ele>
        <time>2019-05-25T14:58:49Z</time>
      </trkpt>
      <trkpt lat="41.6235220" lon="-4.7538080">
        <ele>686.5</ele>
        <time>2019-05-25T14:58:50Z</time>
      </trkpt>
      <trkpt lat="41.6235440" lon="-4.7538530">
        <ele>686.5</ele>
        <time>2019-05-25T14:58:51Z</time>
      </trkpt>
      <trkpt lat="41.6235640" lon="-4.7538960">
        <ele>686.4</ele>
        <time>2019-05-25T14:58:52Z</time>
      </trkpt>
      <trkpt lat="41.6235810" lon="-4.7539410">
        <ele>686.3</ele>
        <time>2019-05-25T14:58:53Z</time>
      </trkpt>
      <trkpt lat="41.6235940" lon="-4.7539840">
        <ele>686.3</ele>
        <time>2019-05-25T14:58:54Z</time>
      </trkpt>
      <trkpt lat="41.6236080" lon="-4.7540250">
        <ele>686.2</ele>
        <time>2019-05-25T14:58:55Z</time>
      </trkpt>
      <trkpt lat="41.6236240" lon="-4.7540610">
        <ele>686.2</ele>
        <time>2019-05-25T14:58:56Z</time>
      </trkpt>
      <trkpt lat="41.6236430" lon="-4.7541000">
        <ele>686.1</ele>
        <time>2019-05-25T14:58:57Z</time>
      </trkpt>
      <trkpt lat="41.6236650" lon="-4.7541360">
        <ele>686.1</ele>
        <time>2019-05-25T14:58:58Z</time>
      </trkpt>
      <trkpt lat="41.6236900" lon="-4.7541780">
        <ele>686.1</ele>
        <time>2019-05-25T14:58:59Z</time>
      </trkpt>
      <trkpt lat="41.6237190" lon="-4.7542230">
        <ele>686.1</ele>
        <time>2019-05-25T14:59:00Z</time>
      </trkpt>
      <trkpt lat="41.6237550" lon="-4.7542810">
        <ele>686.1</ele>
        <time>2019-05-25T14:59:01Z</time>
      </trkpt>
      <trkpt lat="41.6237950" lon="-4.7543520">
        <ele>686.1</ele>
        <time>2019-05-25T14:59:02Z</time>
      </trkpt>
      <trkpt lat="41.6238270" lon="-4.7544160">
        <ele>686.2</ele>
        <time>2019-05-25T14:59:03Z</time>
      </trkpt>
      <trkpt lat="41.6238630" lon="-4.7544850">
        <ele>686.3</ele>
        <time>2019-05-25T14:59:04Z</time>
      </trkpt>
      <trkpt lat="41.6238950" lon="-4.7545420">
        <ele>686.3</ele>
        <time>2019-05-25T14:59:05Z</time>
      </trkpt>
      <trkpt lat="41.6239250" lon="-4.7545980">
        <ele>686.4</ele>
        <time>2019-05-25T14:59:06Z</time>
      </trkpt>
      <trkpt lat="41.6239560" lon="-4.7546490">
        <ele>686.5</ele>
        <time>2019-05-25T14:59:07Z</time>
      </trkpt>
      <trkpt lat="41.6239870" lon="-4.7547020">
        <ele>686.5</ele>
        <time>2019-05-25T14:59:08Z</time>
      </trkpt>
      <trkpt lat="41.6240170" lon="-4.7547550">
        <ele>686.6</ele>
        <time>2019-05-25T14:59:09Z</time>
      </trkpt>
      <trkpt lat="41.6240480" lon="-4.7548000">
        <ele>686.6</ele>
        <time>2019-05-25T14:59:10Z</time>
      </trkpt>
      <trkpt lat="41.6240770" lon="-4.7548480">
        <ele>686.7</ele>
        <time>2019-05-25T14:59:11Z</time>
      </trkpt>
      <trkpt lat="41.6241090" lon="-4.7548980">
        <ele>686.7</ele>
        <time>2019-05-25T14:59:12Z</time>
      </trkpt>
      <trkpt lat="41.6241420" lon="-4.7549430">
        <ele>686.8</ele>
        <time>2019-05-25T14:59:13Z</time>
      </trkpt>
      <trkpt lat="41.6241710" lon="-4.7549940">
        <ele>686.8</ele>
        <time>2019-05-25T14:59:14Z</time>
      </trkpt>
      <trkpt lat="41.6242050" lon="-4.7550370">
        <ele>686.9</ele>
        <time>2019-05-25T14:59:15Z</time>
      </trkpt>
      <trkpt lat="41.6242350" lon="-4.7550830">
        <ele>686.9</ele>
        <time>2019-05-25T14:59:16Z</time>
      </trkpt>
      <trkpt lat="41.6242640" lon="-4.7551240">
        <ele>686.9</ele>
        <time>2019-05-25T14:59:17Z</time>
      </trkpt>
      <trkpt lat="41.6242950" lon="-4.7551630">
        <ele>686.9</ele>
        <time>2019-05-25T14:59:18Z</time>
      </trkpt>
      <trkpt lat="41.6243240" lon="-4.7552040">
        <ele>686.8</ele>
        <time>2019-05-25T14:59:19Z</time>
      </trkpt>
      <trkpt lat="41.6243570" lon="-4.7552440">
        <ele>686.8</ele>
        <time>2019-05-25T14:59:20Z</time>
      </trkpt>
      <trkpt lat="41.6243900" lon="-4.7552880">
        <ele>686.8</ele>
        <time>2019-05-25T14:59:21Z</time>
      </trkpt>
      <trkpt lat="41.6244220" lon="-4.7553210">
        <ele>686.7</ele>
        <time>2019-05-25T14:59:22Z</time>
      </trkpt>
      <trkpt lat="41.6244470" lon="-4.7553620">
        <ele>686.7</ele>
        <time>2019-05-25T14:59:23Z</time>
      </trkpt>
      <trkpt lat="41.6244780" lon="-4.7554020">
        <ele>686.7</ele>
        <time>2019-05-25T14:59:24Z</time>
      </trkpt>
      <trkpt lat="41.6245100" lon="-4.7554470">
        <ele>686.7</ele>
        <time>2019-05-25T14:59:25Z</time>
      </trkpt>
      <trkpt lat="41.6245430" lon="-4.7554930">
        <ele>686.7</ele>
        <time>2019-05-25T14:59:26Z</time>
      </trkpt>
      <trkpt lat="41.6245820" lon="-4.7555370">
        <ele>686.7</ele>
        <time>2019-05-25T14:59:27Z</time>
      </trkpt>
      <trkpt lat="41.6246170" lon="-4.7555830">
        <ele>686.8</ele>
        <time>2019-05-25T14:59:28Z</time>
      </trkpt>
      <trkpt lat="41.6246480" lon="-4.7556390">
        <ele>686.8</ele>
        <time>2019-05-25T14:59:29Z</time>
      </trkpt>
      <trkpt lat="41.6246920" lon="-4.7556860">
        <ele>686.8</ele>
        <time>2019-05-25T14:59:30Z</time>
      </trkpt>
      <trkpt lat="41.6247340" lon="-4.7557360">
        <ele>686.9</ele>
        <time>2019-05-25T14:59:31Z</time>
      </trkpt>
      <trkpt lat="41.6247760" lon="-4.7557860">
        <ele>687.0</ele>
        <time>2019-05-25T14:59:32Z</time>
      </trkpt>
      <trkpt lat="41.6248080" lon="-4.7558500">
        <ele>687.0</ele>
        <time>2019-05-25T14:59:33Z</time>
      </trkpt>
      <trkpt lat="41.6248550" lon="-4.7559000">
        <ele>687.1</ele>
        <time>2019-05-25T14:59:34Z</time>
      </trkpt>
      <trkpt lat="41.6248950" lon="-4.7559600">
        <ele>687.1</ele>
        <time>2019-05-25T14:59:35Z</time>
      </trkpt>
      <trkpt lat="41.6249300" lon="-4.7560180">
        <ele>687.2</ele>
        <time>2019-05-25T14:59:36Z</time>
      </trkpt>
      <trkpt lat="41.6249480" lon="-4.7560660">
        <ele>687.2</ele>
        <time>2019-05-25T14:59:37Z</time>
      </trkpt>
      <trkpt lat="41.6249810" lon="-4.7561140">
        <ele>687.2</ele>
        <time>2019-05-25T14:59:39Z</time>
      </trkpt>
      <trkpt lat="41.6250030" lon="-4.7561710">
        <ele>687.2</ele>
        <time>2019-05-25T14:59:40Z</time>
      </trkpt>
      <trkpt lat="41.6250380" lon="-4.7562250">
        <ele>687.2</ele>
        <time>2019-05-25T14:59:42Z</time>
      </trkpt>
      <trkpt lat="41.6250730" lon="-4.7562530">
        <ele>687.1</ele>
        <time>2019-05-25T14:59:43Z</time>
      </trkpt>
      <trkpt lat="41.6251070" lon="-4.7562680">
        <ele>687.0</ele>
        <time>2019-05-25T14:59:44Z</time>
      </trkpt>
      <trkpt lat="41.6251460" lon="-4.7562630">
        <ele>686.9</ele>
        <time>2019-05-25T14:59:45Z</time>
      </trkpt>
      <trkpt lat="41.6251780" lon="-4.7562580">
        <ele>686.8</ele>
        <time>2019-05-25T14:59:46Z</time>
      </trkpt>
      <trkpt lat="41.6252130" lon="-4.7562740">
        <ele>686.6</ele>
        <time>2019-05-25T14:59:47Z</time>
      </trkpt>
      <trkpt lat="41.6252520" lon="-4.7562910">
        <ele>686.5</ele>
        <time>2019-05-25T14:59:48Z</time>
      </trkpt>
      <trkpt lat="41.6252870" lon="-4.7563130">
        <ele>686.3</ele>
        <time>2019-05-25T14:59:49Z</time>
      </trkpt>
      <trkpt lat="41.6253200" lon="-4.7563410">
        <ele>686.1</ele>
        <time>2019-05-25T14:59:50Z</time>
      </trkpt>
      <trkpt lat="41.6253480" lon="-4.7563690">
        <ele>686.0</ele>
        <time>2019-05-25T14:59:51Z</time>
      </trkpt>
      <trkpt lat="41.6253740" lon="-4.7564010">
        <ele>685.9</ele>
        <time>2019-05-25T14:59:52Z</time>
      </trkpt>
      <trkpt lat="41.6253990" lon="-4.7564360">
        <ele>685.8</ele>
        <time>2019-05-25T14:59:53Z</time>
      </trkpt>
      <trkpt lat="41.6254260" lon="-4.7564720">
        <ele>685.7</ele>
        <time>2019-05-25T14:59:54Z</time>
      </trkpt>
      <trkpt lat="41.6254480" lon="-4.7565010">
        <ele>685.7</ele>
        <time>2019-05-25T14:59:55Z</time>
      </trkpt>
      <trkpt lat="41.6254760" lon="-4.7565330">
        <ele>685.7</ele>
        <time>2019-05-25T14:59:56Z</time>
      </trkpt>
      <trkpt lat="41.6255080" lon="-4.7565710">
        <ele>685.7</ele>
        <time>2019-05-25T14:59:57Z</time>
      </trkpt>
      <trkpt lat="41.6255410" lon="-4.7566090">
        <ele>685.8</ele>
        <time>2019-05-25T14:59:58Z</time>
      </trkpt>
      <trkpt lat="41.6255700" lon="-4.7566430">
        <ele>685.9</ele>
        <time>2019-05-25T14:59:59Z</time>
      </trkpt>
      <trkpt lat="41.6255960" lon="-4.7566750">
        <ele>685.9</ele>
        <time>2019-05-25T15:00:00Z</time>
      </trkpt>
      <trkpt lat="41.6256210" lon="-4.7567030">
        <ele>686.0</ele>
        <time>2019-05-25T15:00:01Z</time>
      </trkpt>
      <trkpt lat="41.6256430" lon="-4.7567300">
        <ele>686.1</ele>
        <time>2019-05-25T15:00:02Z</time>
      </trkpt>
      <trkpt lat="41.6256640" lon="-4.7567690">
        <ele>686.2</ele>
        <time>2019-05-25T15:00:03Z</time>
      </trkpt>
      <trkpt lat="41.6256750" lon="-4.7568110">
        <ele>686.1</ele>
        <time>2019-05-25T15:00:04Z</time>
      </trkpt>
      <trkpt lat="41.6256860" lon="-4.7568580">
        <ele>685.9</ele>
        <time>2019-05-25T15:00:05Z</time>
      </trkpt>
      <trkpt lat="41.6257020" lon="-4.7569010">
        <ele>685.7</ele>
        <time>2019-05-25T15:00:06Z</time>
      </trkpt>
      <trkpt lat="41.6257250" lon="-4.7569300">
        <ele>685.6</ele>
        <time>2019-05-25T15:00:07Z</time>
      </trkpt>
      <trkpt lat="41.6257500" lon="-4.7569510">
        <ele>685.5</ele>
        <time>2019-05-25T15:00:08Z</time>
      </trkpt>
      <trkpt lat="41.6257770" lon="-4.7569750">
        <ele>685.4</ele>
        <time>2019-05-25T15:00:09Z</time>
      </trkpt>
      <trkpt lat="41.6258040" lon="-4.7570030">
        <ele>685.2</ele>
        <time>2019-05-25T15:00:10Z</time>
      </trkpt>
      <trkpt lat="41.6258280" lon="-4.7570330">
        <ele>685.1</ele>
        <time>2019-05-25T15:00:11Z</time>
      </trkpt>
      <trkpt lat="41.6258490" lon="-4.7570640">
        <ele>685.0</ele>
        <time>2019-05-25T15:00:12Z</time>
      </trkpt>
      <trkpt lat="41.6258790" lon="-4.7570960">
        <ele>684.8</ele>
        <time>2019-05-25T15:00:13Z</time>
      </trkpt>
      <trkpt lat="41.6259100" lon="-4.7571340">
        <ele>684.6</ele>
        <time>2019-05-25T15:00:14Z</time>
      </trkpt>
      <trkpt lat="41.6259380" lon="-4.7571700">
        <ele>684.4</ele>
        <time>2019-05-25T15:00:15Z</time>
      </trkpt>
      <trkpt lat="41.6259610" lon="-4.7572090">
        <ele>684.2</ele>
        <time>2019-05-25T15:00:16Z</time>
      </trkpt>
      <trkpt lat="41.6259890" lon="-4.7572450">
        <ele>684.0</ele>
        <time>2019-05-25T15:00:17Z</time>
      </trkpt>
      <trkpt lat="41.6260150" lon="-4.7572820">
        <ele>683.8</ele>
        <time>2019-05-25T15:00:18Z</time>
      </trkpt>
      <trkpt lat="41.6260420" lon="-4.7573170">
        <ele>683.7</ele>
        <time>2019-05-25T15:00:19Z</time>
      </trkpt>
      <trkpt lat="41.6260660" lon="-4.7573560">
        <ele>683.6</ele>
        <time>2019-05-25T15:00:20Z</time>
      </trkpt>
      <trkpt lat="41.6260870" lon="-4.7573960">
        <ele>683.5</ele>
        <time>2019-05-25T15:00:21Z</time>
      </trkpt>
      <trkpt lat="41.6261110" lon="-4.7574310">
        <ele>683.4</ele>
        <time>2019-05-25T15:00:22Z</time>
      </trkpt>
      <trkpt lat="41.6261370" lon="-4.7574560">
        <ele>683.3</ele>
        <time>2019-05-25T15:00:23Z</time>
      </trkpt>
      <trkpt lat="41.6261590" lon="-4.7574860">
        <ele>683.3</ele>
        <time>2019-05-25T15:00:24Z</time>
      </trkpt>
      <trkpt lat="41.6261830" lon="-4.7575120">
        <ele>683.2</ele>
        <time>2019-05-25T15:00:25Z</time>
      </trkpt>
      <trkpt lat="41.6262050" lon="-4.7575390">
        <ele>683.2</ele>
        <time>2019-05-25T15:00:26Z</time>
      </trkpt>
      <trkpt lat="41.6262280" lon="-4.7575670">
        <ele>683.1</ele>
        <time>2019-05-25T15:00:27Z</time>
      </trkpt>
      <trkpt lat="41.6262490" lon="-4.7576010">
        <ele>683.1</ele>
        <time>2019-05-25T15:00:28Z</time>
      </trkpt>
      <trkpt lat="41.6262800" lon="-4.7576140">
        <ele>683.1</ele>
        <time>2019-05-25T15:00:29Z</time>
      </trkpt>
      <trkpt lat="41.6263020" lon="-4.7576440">
        <ele>683.1</ele>
        <time>2019-05-25T15:00:30Z</time>
      </trkpt>
      <trkpt lat="41.6263300" lon="-4.7576670">
        <ele>683.1</ele>
        <time>2019-05-25T15:00:31Z</time>
      </trkpt>
      <trkpt lat="41.6263570" lon="-4.7576950">
        <ele>683.1</ele>
        <time>2019-05-25T15:00:32Z</time>
      </trkpt>
      <trkpt lat="41.6263880" lon="-4.7577150">
        <ele>683.1</ele>
        <time>2019-05-25T15:00:33Z</time>
      </trkpt>
      <trkpt lat="41.6264120" lon="-4.7577500">
        <ele>683.1</ele>
        <time>2019-05-25T15:00:34Z</time>
      </trkpt>
      <trkpt lat="41.6264430" lon="-4.7577720">
        <ele>683.1</ele>
        <time>2019-05-25T15:00:35Z</time>
      </trkpt>
      <trkpt lat="41.6264630" lon="-4.7578100">
        <ele>683.1</ele>
        <time>2019-05-25T15:00:36Z</time>
      </trkpt>
      <trkpt lat="41.6264920" lon="-4.7578410">
        <ele>683.1</ele>
        <time>2019-05-25T15:00:37Z</time>
      </trkpt>
      <trkpt lat="41.6264620" lon="-4.7578480">
        <ele>683.2</ele>
        <time>2019-05-25T15:00:43Z</time>
      </trkpt>
      <trkpt lat="41.6264900" lon="-4.7578470">
        <ele>683.2</ele>
        <time>2019-05-25T15:00:53Z</time>
      </trkpt>
      <trkpt lat="41.6265280" lon="-4.7578900">
        <ele>683.3</ele>
        <time>2019-05-25T15:00:55Z</time>
      </trkpt>
      <trkpt lat="41.6265510" lon="-4.7579180">
        <ele>683.4</ele>
        <time>2019-05-25T15:00:56Z</time>
      </trkpt>
      <trkpt lat="41.6265750" lon="-4.7579460">
        <ele>683.4</ele>
        <time>2019-05-25T15:00:57Z</time>
      </trkpt>
      <trkpt lat="41.6265990" lon="-4.7579730">
        <ele>683.5</ele>
        <time>2019-05-25T15:00:58Z</time>
      </trkpt>
      <trkpt lat="41.6266250" lon="-4.7580000">
        <ele>683.6</ele>
        <time>2019-05-25T15:00:59Z</time>
      </trkpt>
      <trkpt lat="41.6266510" lon="-4.7580270">
        <ele>683.7</ele>
        <time>2019-05-25T15:01:00Z</time>
      </trkpt>
      <trkpt lat="41.6266940" lon="-4.7580770">
        <ele>684.0</ele>
        <time>2019-05-25T15:01:02Z</time>
      </trkpt>
      <trkpt lat="41.6267170" lon="-4.7581040">
        <ele>684.1</ele>
        <time>2019-05-25T15:01:03Z</time>
      </trkpt>
      <trkpt lat="41.6267420" lon="-4.7581350">
        <ele>684.3</ele>
        <time>2019-05-25T15:01:04Z</time>
      </trkpt>
      <trkpt lat="41.6267640" lon="-4.7581630">
        <ele>684.4</ele>
        <time>2019-05-25T15:01:05Z</time>
      </trkpt>
      <trkpt lat="41.6267890" lon="-4.7581920">
        <ele>684.6</ele>
        <time>2019-05-25T15:01:06Z</time>
      </trkpt>
      <trkpt lat="41.6268290" lon="-4.7582410">
        <ele>684.8</ele>
        <time>2019-05-25T15:01:08Z</time>
      </trkpt>
      <trkpt lat="41.6268510" lon="-4.7582700">
        <ele>685.0</ele>
        <time>2019-05-25T15:01:09Z</time>
      </trkpt>
      <trkpt lat="41.6268870" lon="-4.7583170">
        <ele>685.2</ele>
        <time>2019-05-25T15:01:11Z</time>
      </trkpt>
      <trkpt lat="41.6269280" lon="-4.7583720">
        <ele>685.5</ele>
        <time>2019-05-25T15:01:12Z</time>
      </trkpt>
      <trkpt lat="41.6269570" lon="-4.7584120">
        <ele>685.7</ele>
        <time>2019-05-25T15:01:13Z</time>
      </trkpt>
      <trkpt lat="41.6269780" lon="-4.7584440">
        <ele>685.9</ele>
        <time>2019-05-25T15:01:14Z</time>
      </trkpt>
      <trkpt lat="41.6269970" lon="-4.7584750">
        <ele>686.0</ele>
        <time>2019-05-25T15:01:15Z</time>
      </trkpt>
      <trkpt lat="41.6270170" lon="-4.7585180">
        <ele>686.2</ele>
        <time>2019-05-25T15:01:16Z</time>
      </trkpt>
      <trkpt lat="41.6270270" lon="-4.7585680">
        <ele>686.4</ele>
        <time>2019-05-25T15:01:17Z</time>
      </trkpt>
      <trkpt lat="41.6270400" lon="-4.7586050">
        <ele>686.6</ele>
        <time>2019-05-25T15:01:18Z</time>
      </trkpt>
      <trkpt lat="41.6270500" lon="-4.7586470">
        <ele>686.7</ele>
        <time>2019-05-25T15:01:19Z</time>
      </trkpt>
      <trkpt lat="41.6270630" lon="-4.7586850">
        <ele>686.9</ele>
        <time>2019-05-25T15:01:20Z</time>
      </trkpt>
      <trkpt lat="41.6270760" lon="-4.7587200">
        <ele>687.1</ele>
        <time>2019-05-25T15:01:21Z</time>
      </trkpt>
      <trkpt lat="41.6270890" lon="-4.7587650">
        <ele>687.2</ele>
        <time>2019-05-25T15:01:22Z</time>
      </trkpt>
      <trkpt lat="41.6271000" lon="-4.7588030">
        <ele>687.3</ele>
        <time>2019-05-25T15:01:23Z</time>
      </trkpt>
      <trkpt lat="41.6271100" lon="-4.7588460">
        <ele>687.3</ele>
        <time>2019-05-25T15:01:24Z</time>
      </trkpt>
      <trkpt lat="41.6271170" lon="-4.7588900">
        <ele>687.3</ele>
        <time>2019-05-25T15:01:25Z</time>
      </trkpt>
      <trkpt lat="41.6271240" lon="-4.7589320">
        <ele>687.3</ele>
        <time>2019-05-25T15:01:26Z</time>
      </trkpt>
      <trkpt lat="41.6271320" lon="-4.7589740">
        <ele>687.4</ele>
        <time>2019-05-25T15:01:27Z</time>
      </trkpt>
      <trkpt lat="41.6271420" lon="-4.7590190">
        <ele>687.4</ele>
        <time>2019-05-25T15:01:28Z</time>
      </trkpt>
      <trkpt lat="41.6271510" lon="-4.7590640">
        <ele>687.5</ele>
        <time>2019-05-25T15:01:29Z</time>
      </trkpt>
      <trkpt lat="41.6271580" lon="-4.7591080">
        <ele>687.6</ele>
        <time>2019-05-25T15:01:30Z</time>
      </trkpt>
      <trkpt lat="41.6271630" lon="-4.7591560">
        <ele>687.7</ele>
        <time>2019-05-25T15:01:31Z</time>
      </trkpt>
      <trkpt lat="41.6271650" lon="-4.7592020">
        <ele>687.9</ele>
        <time>2019-05-25T15:01:32Z</time>
      </trkpt>
      <trkpt lat="41.6271650" lon="-4.7592480">
        <ele>688.2</ele>
        <time>2019-05-25T15:01:33Z</time>
      </trkpt>
      <trkpt lat="41.6271650" lon="-4.7592890">
        <ele>688.5</ele>
        <time>2019-05-25T15:01:34Z</time>
      </trkpt>
      <trkpt lat="41.6271660" lon="-4.7593560">
        <ele>688.9</ele>
        <time>2019-05-25T15:01:36Z</time>
      </trkpt>
      <trkpt lat="41.6271670" lon="-4.7594180">
        <ele>689.2</ele>
        <time>2019-05-25T15:01:38Z</time>
      </trkpt>
      <trkpt lat="41.6271620" lon="-4.7594780">
        <ele>689.6</ele>
        <time>2019-05-25T15:01:40Z</time>
      </trkpt>
      <trkpt lat="41.6271470" lon="-4.7594720">
        <ele>689.8</ele>
        <time>2019-05-25T15:02:37Z</time>
      </trkpt>
      <trkpt lat="41.6271410" lon="-4.7595080">
        <ele>690.0</ele>
        <time>2019-05-25T15:02:45Z</time>
      </trkpt>
      <trkpt lat="41.6271680" lon="-4.7595040">
        <ele>690.3</ele>
        <time>2019-05-25T15:02:56Z</time>
      </trkpt>
      <trkpt lat="41.6272090" lon="-4.7595120">
        <ele>691.1</ele>
        <time>2019-05-25T15:02:58Z</time>
      </trkpt>
      <trkpt lat="41.6272590" lon="-4.7595260">
        <ele>691.5</ele>
        <time>2019-05-25T15:03:00Z</time>
      </trkpt>
      <trkpt lat="41.6272890" lon="-4.7595390">
        <ele>691.7</ele>
        <time>2019-05-25T15:03:01Z</time>
      </trkpt>
      <trkpt lat="41.6273170" lon="-4.7595540">
        <ele>692.0</ele>
        <time>2019-05-25T15:03:02Z</time>
      </trkpt>
      <trkpt lat="41.6273450" lon="-4.7595730">
        <ele>692.4</ele>
        <time>2019-05-25T15:03:03Z</time>
      </trkpt>
      <trkpt lat="41.6273740" lon="-4.7595940">
        <ele>692.8</ele>
        <time>2019-05-25T15:03:04Z</time>
      </trkpt>
      <trkpt lat="41.6274030" lon="-4.7596160">
        <ele>693.5</ele>
        <time>2019-05-25T15:03:05Z</time>
      </trkpt>
      <trkpt lat="41.6274300" lon="-4.7596360">
        <ele>693.7</ele>
        <time>2019-05-25T15:03:06Z</time>
      </trkpt>
      <trkpt lat="41.6274560" lon="-4.7596540">
        <ele>693.9</ele>
        <time>2019-05-25T15:03:07Z</time>
      </trkpt>
      <trkpt lat="41.6274990" lon="-4.7596690">
        <ele>694.2</ele>
        <time>2019-05-25T15:03:09Z</time>
      </trkpt>
      <trkpt lat="41.6275310" lon="-4.7596650">
        <ele>694.3</ele>
        <time>2019-05-25T15:03:11Z</time>
      </trkpt>
      <trkpt lat="41.6275610" lon="-4.7596600">
        <ele>694.3</ele>
        <time>2019-05-25T15:03:12Z</time>
      </trkpt>
      <trkpt lat="41.6275990" lon="-4.7596580">
        <ele>694.4</ele>
        <time>2019-05-25T15:03:13Z</time>
      </trkpt>
      <trkpt lat="41.6276340" lon="-4.7596640">
        <ele>694.5</ele>
        <time>2019-05-25T15:03:14Z</time>
      </trkpt>
      <trkpt lat="41.6276680" lon="-4.7596820">
        <ele>694.5</ele>
        <time>2019-05-25T15:03:15Z</time>
      </trkpt>
      <trkpt lat="41.6277000" lon="-4.7597020">
        <ele>694.6</ele>
        <time>2019-05-25T15:03:16Z</time>
      </trkpt>
      <trkpt lat="41.6277350" lon="-4.7597270">
        <ele>694.7</ele>
        <time>2019-05-25T15:03:17Z</time>
      </trkpt>
      <trkpt lat="41.6277680" lon="-4.7597510">
        <ele>694.7</ele>
        <time>2019-05-25T15:03:18Z</time>
      </trkpt>
      <trkpt lat="41.6278010" lon="-4.7597720">
        <ele>694.8</ele>
        <time>2019-05-25T15:03:19Z</time>
      </trkpt>
      <trkpt lat="41.6278340" lon="-4.7597900">
        <ele>695.3</ele>
        <time>2019-05-25T15:03:20Z</time>
      </trkpt>
      <trkpt lat="41.6278790" lon="-4.7598000">
        <ele>695.4</ele>
        <time>2019-05-25T15:03:22Z</time>
      </trkpt>
      <trkpt lat="41.6279230" lon="-4.7598050">
        <ele>695.6</ele>
        <time>2019-05-25T15:03:24Z</time>
      </trkpt>
      <trkpt lat="41.6279640" lon="-4.7598130">
        <ele>695.7</ele>
        <time>2019-05-25T15:03:26Z</time>
      </trkpt>
      <trkpt lat="41.6280070" lon="-4.7598240">
        <ele>695.9</ele>
        <time>2019-05-25T15:03:28Z</time>
      </trkpt>
      <trkpt lat="41.6280450" lon="-4.7598490">
        <ele>696.1</ele>
        <time>2019-05-25T15:03:30Z</time>
      </trkpt>
      <trkpt lat="41.6281010" lon="-4.7598950">
        <ele>696.4</ele>
        <time>2019-05-25T15:03:32Z</time>
      </trkpt>
      <trkpt lat="41.6281430" lon="-4.7599380">
        <ele>696.7</ele>
        <time>2019-05-25T15:03:33Z</time>
      </trkpt>
      <trkpt lat="41.6281870" lon="-4.7599720">
        <ele>697.0</ele>
        <time>2019-05-25T15:03:34Z</time>
      </trkpt>
      <trkpt lat="41.6282220" lon="-4.7600150">
        <ele>697.2</ele>
        <time>2019-05-25T15:03:35Z</time>
      </trkpt>
      <trkpt lat="41.6282590" lon="-4.7600460">
        <ele>697.5</ele>
        <time>2019-05-25T15:03:36Z</time>
      </trkpt>
      <trkpt lat="41.6282880" lon="-4.7600830">
        <ele>697.8</ele>
        <time>2019-05-25T15:03:37Z</time>
      </trkpt>
      <trkpt lat="41.6283260" lon="-4.7601100">
        <ele>698.0</ele>
        <time>2019-05-25T15:03:38Z</time>
      </trkpt>
      <trkpt lat="41.6283590" lon="-4.7601370">
        <ele>698.3</ele>
        <time>2019-05-25T15:03:39Z</time>
      </trkpt>
      <trkpt lat="41.6283970" lon="-4.7601560">
        <ele>698.5</ele>
        <time>2019-05-25T15:03:40Z</time>
      </trkpt>
      <trkpt lat="41.6284340" lon="-4.7601690">
        <ele>698.7</ele>
        <time>2019-05-25T15:03:41Z</time>
      </trkpt>
      <trkpt lat="41.6284630" lon="-4.7601810">
        <ele>698.9</ele>
        <time>2019-05-25T15:03:42Z</time>
      </trkpt>
      <trkpt lat="41.6284900" lon="-4.7601900">
        <ele>699.0</ele>
        <time>2019-05-25T15:03:43Z</time>
      </trkpt>
      <trkpt lat="41.6285130" lon="-4.7602090">
        <ele>699.2</ele>
        <time>2019-05-25T15:03:44Z</time>
      </trkpt>
      <trkpt lat="41.6285400" lon="-4.7602210">
        <ele>699.3</ele>
        <time>2019-05-25T15:03:45Z</time>
      </trkpt>
      <trkpt lat="41.6285890" lon="-4.7602420">
        <ele>699.6</ele>
        <time>2019-05-25T15:03:47Z</time>
      </trkpt>
      <trkpt lat="41.6286340" lon="-4.7602690">
        <ele>699.9</ele>
        <time>2019-05-25T15:03:49Z</time>
      </trkpt>
      <trkpt lat="41.6286600" lon="-4.7602810">
        <ele>700.0</ele>
        <time>2019-05-25T15:03:50Z</time>
      </trkpt>
      <trkpt lat="41.6286890" lon="-4.7603040">
        <ele>700.2</ele>
        <time>2019-05-25T15:03:51Z</time>
      </trkpt>
      <trkpt lat="41.6287380" lon="-4.7603280">
        <ele>700.4</ele>
        <time>2019-05-25T15:03:53Z</time>
      </trkpt>
      <trkpt lat="41.6287630" lon="-4.7603420">
        <ele>700.6</ele>
        <time>2019-05-25T15:03:54Z</time>
      </trkpt>
      <trkpt lat="41.6288100" lon="-4.7603740">
        <ele>700.9</ele>
        <time>2019-05-25T15:03:56Z</time>
      </trkpt>
      <trkpt lat="41.6288630" lon="-4.7603690">
        <ele>701.2</ele>
        <time>2019-05-25T15:03:58Z</time>
      </trkpt>
      <trkpt lat="41.6289110" lon="-4.7603500">
        <ele>701.6</ele>
        <time>2019-05-25T15:04:00Z</time>
      </trkpt>
      <trkpt lat="41.6289590" lon="-4.7603580">
        <ele>701.9</ele>
        <time>2019-05-25T15:04:02Z</time>
      </trkpt>
      <trkpt lat="41.6290000" lon="-4.7603760">
        <ele>702.2</ele>
        <time>2019-05-25T15:04:04Z</time>
      </trkpt>
      <trkpt lat="41.6290320" lon="-4.7603990">
        <ele>702.4</ele>
        <time>2019-05-25T15:04:06Z</time>
      </trkpt>
      <trkpt lat="41.6290720" lon="-4.7604270">
        <ele>702.7</ele>
        <time>2019-05-25T15:04:08Z</time>
      </trkpt>
      <trkpt lat="41.6291160" lon="-4.7604610">
        <ele>703.0</ele>
        <time>2019-05-25T15:04:10Z</time>
      </trkpt>
      <trkpt lat="41.6291400" lon="-4.7604840">
        <ele>703.2</ele>
        <time>2019-05-25T15:04:11Z</time>
      </trkpt>
      <trkpt lat="41.6291660" lon="-4.7605070">
        <ele>703.4</ele>
        <time>2019-05-25T15:04:12Z</time>
      </trkpt>
      <trkpt lat="41.6291930" lon="-4.7605300">
        <ele>703.6</ele>
        <time>2019-05-25T15:04:13Z</time>
      </trkpt>
      <trkpt lat="41.6292190" lon="-4.7605540">
        <ele>703.8</ele>
        <time>2019-05-25T15:04:14Z</time>
      </trkpt>
      <trkpt lat="41.6292470" lon="-4.7605760">
        <ele>704.0</ele>
        <time>2019-05-25T15:04:15Z</time>
      </trkpt>
      <trkpt lat="41.6292760" lon="-4.7605920">
        <ele>704.2</ele>
        <time>2019-05-25T15:04:16Z</time>
      </trkpt>
      <trkpt lat="41.6293080" lon="-4.7606000">
        <ele>704.5</ele>
        <time>2019-05-25T15:04:17Z</time>
      </trkpt>
      <trkpt lat="41.6293410" lon="-4.7606060">
        <ele>704.7</ele>
        <time>2019-05-25T15:04:18Z</time>
      </trkpt>
      <trkpt lat="41.6293690" lon="-4.7606180">
        <ele>704.9</ele>
        <time>2019-05-25T15:04:19Z</time>
      </trkpt>
      <trkpt lat="41.6294000" lon="-4.7606710">
        <ele>705.3</ele>
        <time>2019-05-25T15:04:21Z</time>
      </trkpt>
      <trkpt lat="41.6293990" lon="-4.7607450">
        <ele>705.5</ele>
        <time>2019-05-25T15:04:23Z</time>
      </trkpt>
      <trkpt lat="41.6293920" lon="-4.7607860">
        <ele>705.6</ele>
        <time>2019-05-25T15:04:24Z</time>
      </trkpt>
      <trkpt lat="41.6293810" lon="-4.7608280">
        <ele>705.7</ele>
        <time>2019-05-25T15:04:25Z</time>
      </trkpt>
      <trkpt lat="41.6293670" lon="-4.7608700">
        <ele>705.7</ele>
        <time>2019-05-25T15:04:26Z</time>
      </trkpt>
      <trkpt lat="41.6293520" lon="-4.7609120">
        <ele>705.7</ele>
        <time>2019-05-25T15:04:27Z</time>
      </trkpt>
      <trkpt lat="41.6293410" lon="-4.7609760">
        <ele>705.7</ele>
        <time>2019-05-25T15:04:29Z</time>
      </trkpt>
      <trkpt lat="41.6293480" lon="-4.7610220">
        <ele>705.7</ele>
        <time>2019-05-25T15:04:30Z</time>
      </trkpt>
      <trkpt lat="41.6293660" lon="-4.7610610">
        <ele>705.7</ele>
        <time>2019-05-25T15:04:31Z</time>
      </trkpt>
      <trkpt lat="41.6293950" lon="-4.7610910">
        <ele>706.2</ele>
        <time>2019-05-25T15:04:32Z</time>
      </trkpt>
      <trkpt lat="41.6294250" lon="-4.7611230">
        <ele>706.4</ele>
        <time>2019-05-25T15:04:33Z</time>
      </trkpt>
      <trkpt lat="41.6294560" lon="-4.7611510">
        <ele>706.5</ele>
        <time>2019-05-25T15:04:34Z</time>
      </trkpt>
      <trkpt lat="41.6294870" lon="-4.7611710">
        <ele>706.8</ele>
        <time>2019-05-25T15:04:35Z</time>
      </trkpt>
      <trkpt lat="41.6295150" lon="-4.7611780">
        <ele>706.9</ele>
        <time>2019-05-25T15:04:36Z</time>
      </trkpt>
      <trkpt lat="41.6295500" lon="-4.7611800">
        <ele>707.0</ele>
        <time>2019-05-25T15:04:37Z</time>
      </trkpt>
      <trkpt lat="41.6295900" lon="-4.7611870">
        <ele>707.0</ele>
        <time>2019-05-25T15:04:38Z</time>
      </trkpt>
      <trkpt lat="41.6296270" lon="-4.7612010">
        <ele>707.2</ele>
        <time>2019-05-25T15:04:39Z</time>
      </trkpt>
      <trkpt lat="41.6296570" lon="-4.7612270">
        <ele>707.2</ele>
        <time>2019-05-25T15:04:40Z</time>
      </trkpt>
      <trkpt lat="41.6296760" lon="-4.7612590">
        <ele>707.3</ele>
        <time>2019-05-25T15:04:41Z</time>
      </trkpt>
      <trkpt lat="41.6296880" lon="-4.7612960">
        <ele>707.4</ele>
        <time>2019-05-25T15:04:42Z</time>
      </trkpt>
      <trkpt lat="41.6296940" lon="-4.7613360">
        <ele>707.5</ele>
        <time>2019-05-25T15:04:43Z</time>
      </trkpt>
      <trkpt lat="41.6296960" lon="-4.7613790">
        <ele>707.5</ele>
        <time>2019-05-25T15:04:44Z</time>
      </trkpt>
      <trkpt lat="41.6296900" lon="-4.7614190">
        <ele>707.6</ele>
        <time>2019-05-25T15:04:45Z</time>
      </trkpt>
      <trkpt lat="41.6296770" lon="-4.7614580">
        <ele>707.6</ele>
        <time>2019-05-25T15:04:46Z</time>
      </trkpt>
      <trkpt lat="41.6296560" lon="-4.7614940">
        <ele>707.6</ele>
        <time>2019-05-25T15:04:47Z</time>
      </trkpt>
      <trkpt lat="41.6296320" lon="-4.7615270">
        <ele>707.7</ele>
        <time>2019-05-25T15:04:48Z</time>
      </trkpt>
      <trkpt lat="41.6296080" lon="-4.7615560">
        <ele>707.8</ele>
        <time>2019-05-25T15:04:49Z</time>
      </trkpt>
      <trkpt lat="41.6295840" lon="-4.7615850">
        <ele>707.8</ele>
        <time>2019-05-25T15:04:50Z</time>
      </trkpt>
      <trkpt lat="41.6295610" lon="-4.7616150">
        <ele>707.9</ele>
        <time>2019-05-25T15:04:51Z</time>
      </trkpt>
      <trkpt lat="41.6295400" lon="-4.7616450">
        <ele>708.0</ele>
        <time>2019-05-25T15:04:52Z</time>
      </trkpt>
      <trkpt lat="41.6295210" lon="-4.7616770">
        <ele>708.1</ele>
        <time>2019-05-25T15:04:53Z</time>
      </trkpt>
      <trkpt lat="41.6295030" lon="-4.7617100">
        <ele>708.1</ele>
        <time>2019-05-25T15:04:54Z</time>
      </trkpt>
      <trkpt lat="41.6294850" lon="-4.7617440">
        <ele>708.3</ele>
        <time>2019-05-25T15:04:55Z</time>
      </trkpt>
      <trkpt lat="41.6294680" lon="-4.7617790">
        <ele>708.3</ele>
        <time>2019-05-25T15:04:56Z</time>
      </trkpt>
      <trkpt lat="41.6294510" lon="-4.7618130">
        <ele>708.5</ele>
        <time>2019-05-25T15:04:57Z</time>
      </trkpt>
      <trkpt lat="41.6294350" lon="-4.7618480">
        <ele>708.5</ele>
        <time>2019-05-25T15:04:58Z</time>
      </trkpt>
      <trkpt lat="41.6294200" lon="-4.7618820">
        <ele>708.6</ele>
        <time>2019-05-25T15:04:59Z</time>
      </trkpt>
      <trkpt lat="41.6294050" lon="-4.7619150">
        <ele>708.6</ele>
        <time>2019-05-25T15:05:00Z</time>
      </trkpt>
      <trkpt lat="41.6293900" lon="-4.7619520">
        <ele>708.8</ele>
        <time>2019-05-25T15:05:01Z</time>
      </trkpt>
      <trkpt lat="41.6293730" lon="-4.7619890">
        <ele>708.8</ele>
        <time>2019-05-25T15:05:02Z</time>
      </trkpt>
      <trkpt lat="41.6293580" lon="-4.7620250">
        <ele>708.9</ele>
        <time>2019-05-25T15:05:03Z</time>
      </trkpt>
      <trkpt lat="41.6293430" lon="-4.7620590">
        <ele>708.9</ele>
        <time>2019-05-25T15:05:04Z</time>
      </trkpt>
      <trkpt lat="41.6293290" lon="-4.7620950">
        <ele>709.0</ele>
        <time>2019-05-25T15:05:05Z</time>
      </trkpt>
      <trkpt lat="41.6293150" lon="-4.7621330">
        <ele>709.1</ele>
        <time>2019-05-25T15:05:06Z</time>
      </trkpt>
      <trkpt lat="41.6293010" lon="-4.7621700">
        <ele>709.2</ele>
        <time>2019-05-25T15:05:07Z</time>
      </trkpt>
      <trkpt lat="41.6292880" lon="-4.7622070">
        <ele>709.3</ele>
        <time>2019-05-25T15:05:08Z</time>
      </trkpt>
      <trkpt lat="41.6292740" lon="-4.7622460">
        <ele>709.4</ele>
        <time>2019-05-25T15:05:09Z</time>
      </trkpt>
      <trkpt lat="41.6292610" lon="-4.7622860">
        <ele>709.5</ele>
        <time>2019-05-25T15:05:10Z</time>
      </trkpt>
      <trkpt lat="41.6292480" lon="-4.7623260">
        <ele>709.7</ele>
        <time>2019-05-25T15:05:11Z</time>
      </trkpt>
      <trkpt lat="41.6292390" lon="-4.7623670">
        <ele>709.8</ele>
        <time>2019-05-25T15:05:12Z</time>
      </trkpt>
      <trkpt lat="41.6292310" lon="-4.7624060">
        <ele>709.9</ele>
        <time>2019-05-25T15:05:13Z</time>
      </trkpt>
      <trkpt lat="41.6292230" lon="-4.7624490">
        <ele>710.1</ele>
        <time>2019-05-25T15:05:14Z</time>
      </trkpt>
      <trkpt lat="41.6292170" lon="-4.7624920">
        <ele>710.2</ele>
        <time>2019-05-25T15:05:15Z</time>
      </trkpt>
      <trkpt lat="41.6292120" lon="-4.7625350">
        <ele>710.4</ele>
        <time>2019-05-25T15:05:16Z</time>
      </trkpt>
      <trkpt lat="41.6292070" lon="-4.7625810">
        <ele>710.5</ele>
        <time>2019-05-25T15:05:17Z</time>
      </trkpt>
      <trkpt lat="41.6292020" lon="-4.7626250">
        <ele>710.7</ele>
        <time>2019-05-25T15:05:18Z</time>
      </trkpt>
      <trkpt lat="41.6291980" lon="-4.7626670">
        <ele>710.8</ele>
        <time>2019-05-25T15:05:19Z</time>
      </trkpt>
      <trkpt lat="41.6291940" lon="-4.7627070">
        <ele>711.0</ele>
        <time>2019-05-25T15:05:20Z</time>
      </trkpt>
      <trkpt lat="41.6291900" lon="-4.7627430">
        <ele>711.0</ele>
        <time>2019-05-25T15:05:21Z</time>
      </trkpt>
      <trkpt lat="41.6291870" lon="-4.7627800">
        <ele>711.1</ele>
        <time>2019-05-25T15:05:22Z</time>
      </trkpt>
      <trkpt lat="41.6291850" lon="-4.7628460">
        <ele>711.5</ele>
        <time>2019-05-25T15:05:24Z</time>
      </trkpt>
      <trkpt lat="41.6291830" lon="-4.7629080">
        <ele>711.6</ele>
        <time>2019-05-25T15:05:26Z</time>
      </trkpt>
      <trkpt lat="41.6291810" lon="-4.7629510">
        <ele>711.8</ele>
        <time>2019-05-25T15:05:28Z</time>
      </trkpt>
      <trkpt lat="41.6291800" lon="-4.7630040">
        <ele>712.2</ele>
        <time>2019-05-25T15:05:30Z</time>
      </trkpt>
      <trkpt lat="41.6291800" lon="-4.7630650">
        <ele>712.5</ele>
        <time>2019-05-25T15:05:32Z</time>
      </trkpt>
      <trkpt lat="41.6291760" lon="-4.7631390">
        <ele>713.0</ele>
        <time>2019-05-25T15:05:34Z</time>
      </trkpt>
      <trkpt lat="41.6291750" lon="-4.7631800">
        <ele>713.2</ele>
        <time>2019-05-25T15:05:35Z</time>
      </trkpt>
      <trkpt lat="41.6291730" lon="-4.7632250">
        <ele>713.5</ele>
        <time>2019-05-25T15:05:36Z</time>
      </trkpt>
      <trkpt lat="41.6291700" lon="-4.7632700">
        <ele>713.6</ele>
        <time>2019-05-25T15:05:37Z</time>
      </trkpt>
      <trkpt lat="41.6291650" lon="-4.7633440">
        <ele>713.9</ele>
        <time>2019-05-25T15:05:38Z</time>
      </trkpt>
      <trkpt lat="41.6291590" lon="-4.7634340">
        <ele>714.5</ele>
        <time>2019-05-25T15:05:39Z</time>
      </trkpt>
      <trkpt lat="41.6291540" lon="-4.7635100">
        <ele>714.7</ele>
        <time>2019-05-25T15:05:40Z</time>
      </trkpt>
      <trkpt lat="41.6291480" lon="-4.7635720">
        <ele>715.1</ele>
        <time>2019-05-25T15:05:41Z</time>
      </trkpt>
      <trkpt lat="41.6291420" lon="-4.7636240">
        <ele>715.3</ele>
        <time>2019-05-25T15:05:42Z</time>
      </trkpt>
      <trkpt lat="41.6291350" lon="-4.7636760">
        <ele>715.4</ele>
        <time>2019-05-25T15:05:43Z</time>
      </trkpt>
      <trkpt lat="41.6291280" lon="-4.7637270">
        <ele>715.6</ele>
        <time>2019-05-25T15:05:44Z</time>
      </trkpt>
      <trkpt lat="41.6291230" lon="-4.7637780">
        <ele>716.1</ele>
        <time>2019-05-25T15:05:45Z</time>
      </trkpt>
      <trkpt lat="41.6291200" lon="-4.7638310">
        <ele>716.3</ele>
        <time>2019-05-25T15:05:46Z</time>
      </trkpt>
      <trkpt lat="41.6291190" lon="-4.7638780">
        <ele>716.6</ele>
        <time>2019-05-25T15:05:47Z</time>
      </trkpt>
      <trkpt lat="41.6291170" lon="-4.7639210">
        <ele>716.9</ele>
        <time>2019-05-25T15:05:48Z</time>
      </trkpt>
      <trkpt lat="41.6291150" lon="-4.7639580">
        <ele>717.2</ele>
        <time>2019-05-25T15:05:49Z</time>
      </trkpt>
      <trkpt lat="41.6291120" lon="-4.7639940">
        <ele>717.4</ele>
        <time>2019-05-25T15:05:50Z</time>
      </trkpt>
      <trkpt lat="41.6291100" lon="-4.7640320">
        <ele>717.4</ele>
        <time>2019-05-25T15:05:51Z</time>
      </trkpt>
      <trkpt lat="41.6291080" lon="-4.7640690">
        <ele>717.6</ele>
        <time>2019-05-25T15:05:52Z</time>
      </trkpt>
      <trkpt lat="41.6291060" lon="-4.7641080">
        <ele>717.8</ele>
        <time>2019-05-25T15:05:53Z</time>
      </trkpt>
      <trkpt lat="41.6291030" lon="-4.7641500">
        <ele>718.0</ele>
        <time>2019-05-25T15:05:54Z</time>
      </trkpt>
      <trkpt lat="41.6291000" lon="-4.7641940">
        <ele>718.2</ele>
        <time>2019-05-25T15:05:55Z</time>
      </trkpt>
      <trkpt lat="41.6290980" lon="-4.7642390">
        <ele>718.4</ele>
        <time>2019-05-25T15:05:56Z</time>
      </trkpt>
      <trkpt lat="41.6290930" lon="-4.7642890">
        <ele>718.5</ele>
        <time>2019-05-25T15:05:57Z</time>
      </trkpt>
      <trkpt lat="41.6290880" lon="-4.7643380">
        <ele>718.6</ele>
        <time>2019-05-25T15:05:58Z</time>
      </trkpt>
      <trkpt lat="41.6290820" lon="-4.7643910">
        <ele>718.7</ele>
        <time>2019-05-25T15:05:59Z</time>
      </trkpt>
      <trkpt lat="41.6290760" lon="-4.7644430">
        <ele>718.6</ele>
        <time>2019-05-25T15:06:00Z</time>
      </trkpt>
      <trkpt lat="41.6290670" lon="-4.7644950">
        <ele>718.6</ele>
        <time>2019-05-25T15:06:01Z</time>
      </trkpt>
      <trkpt lat="41.6290580" lon="-4.7645430">
        <ele>718.6</ele>
        <time>2019-05-25T15:06:02Z</time>
      </trkpt>
      <trkpt lat="41.6290490" lon="-4.7645870">
        <ele>718.6</ele>
        <time>2019-05-25T15:06:03Z</time>
      </trkpt>
      <trkpt lat="41.6290380" lon="-4.7646310">
        <ele>718.5</ele>
        <time>2019-05-25T15:06:04Z</time>
      </trkpt>
      <trkpt lat="41.6290270" lon="-4.7646760">
        <ele>718.5</ele>
        <time>2019-05-25T15:06:05Z</time>
      </trkpt>
      <trkpt lat="41.6290160" lon="-4.7647220">
        <ele>718.4</ele>
        <time>2019-05-25T15:06:06Z</time>
      </trkpt>
      <trkpt lat="41.6290040" lon="-4.7647690">
        <ele>718.3</ele>
        <time>2019-05-25T15:06:07Z</time>
      </trkpt>
      <trkpt lat="41.6289910" lon="-4.7648150">
        <ele>718.2</ele>
        <time>2019-05-25T15:06:08Z</time>
      </trkpt>
      <trkpt lat="41.6289770" lon="-4.7648650">
        <ele>718.1</ele>
        <time>2019-05-25T15:06:09Z</time>
      </trkpt>
      <trkpt lat="41.6289670" lon="-4.7649080">
        <ele>718.0</ele>
        <time>2019-05-25T15:06:10Z</time>
      </trkpt>
      <trkpt lat="41.6289590" lon="-4.7649490">
        <ele>717.9</ele>
        <time>2019-05-25T15:06:11Z</time>
      </trkpt>
      <trkpt lat="41.6289520" lon="-4.7649910">
        <ele>717.8</ele>
        <time>2019-05-25T15:06:12Z</time>
      </trkpt>
      <trkpt lat="41.6289450" lon="-4.7650340">
        <ele>717.6</ele>
        <time>2019-05-25T15:06:13Z</time>
      </trkpt>
      <trkpt lat="41.6289380" lon="-4.7650780">
        <ele>717.6</ele>
        <time>2019-05-25T15:06:14Z</time>
      </trkpt>
      <trkpt lat="41.6289300" lon="-4.7651220">
        <ele>717.5</ele>
        <time>2019-05-25T15:06:15Z</time>
      </trkpt>
      <trkpt lat="41.6289220" lon="-4.7651680">
        <ele>717.4</ele>
        <time>2019-05-25T15:06:16Z</time>
      </trkpt>
      <trkpt lat="41.6289140" lon="-4.7652150">
        <ele>717.2</ele>
        <time>2019-05-25T15:06:17Z</time>
      </trkpt>
      <trkpt lat="41.6289060" lon="-4.7652610">
        <ele>717.0</ele>
        <time>2019-05-25T15:06:18Z</time>
      </trkpt>
      <trkpt lat="41.6288970" lon="-4.7653080">
        <ele>716.9</ele>
        <time>2019-05-25T15:06:19Z</time>
      </trkpt>
      <trkpt lat="41.6288860" lon="-4.7653550">
        <ele>716.8</ele>
        <time>2019-05-25T15:06:20Z</time>
      </trkpt>
      <trkpt lat="41.6288750" lon="-4.7654020">
        <ele>716.6</ele>
        <time>2019-05-25T15:06:21Z</time>
      </trkpt>
      <trkpt lat="41.6288620" lon="-4.7654480">
        <ele>716.5</ele>
        <time>2019-05-25T15:06:22Z</time>
      </trkpt>
      <trkpt lat="41.6288480" lon="-4.7654970">
        <ele>716.2</ele>
        <time>2019-05-25T15:06:23Z</time>
      </trkpt>
      <trkpt lat="41.6288350" lon="-4.7655470">
        <ele>716.1</ele>
        <time>2019-05-25T15:06:24Z</time>
      </trkpt>
      <trkpt lat="41.6288220" lon="-4.7655960">
        <ele>716.0</ele>
        <time>2019-05-25T15:06:25Z</time>
      </trkpt>
      <trkpt lat="41.6288070" lon="-4.7656460">
        <ele>715.9</ele>
        <time>2019-05-25T15:06:26Z</time>
      </trkpt>
      <trkpt lat="41.6287880" lon="-4.7656970">
        <ele>715.7</ele>
        <time>2019-05-25T15:06:27Z</time>
      </trkpt>
      <trkpt lat="41.6287690" lon="-4.7657490">
        <ele>715.6</ele>
        <time>2019-05-25T15:06:28Z</time>
      </trkpt>
      <trkpt lat="41.6287500" lon="-4.7658020">
        <ele>715.5</ele>
        <time>2019-05-25T15:06:29Z</time>
      </trkpt>
      <trkpt lat="41.6287040" lon="-4.7659220">
        <ele>715.1</ele>
        <time>2019-05-25T15:06:30Z</time>
      </trkpt>
      <trkpt lat="41.6286880" lon="-4.7659670">
        <ele>715.0</ele>
        <time>2019-05-25T15:06:31Z</time>
      </trkpt>
      <trkpt lat="41.6286740" lon="-4.7660040">
        <ele>715.0</ele>
        <time>2019-05-25T15:06:32Z</time>
      </trkpt>
      <trkpt lat="41.6286530" lon="-4.7660390">
        <ele>714.8</ele>
        <time>2019-05-25T15:06:33Z</time>
      </trkpt>
      <trkpt lat="41.6286360" lon="-4.7660770">
        <ele>714.7</ele>
        <time>2019-05-25T15:06:34Z</time>
      </trkpt>
      <trkpt lat="41.6286220" lon="-4.7661090">
        <ele>714.6</ele>
        <time>2019-05-25T15:06:35Z</time>
      </trkpt>
      <trkpt lat="41.6286110" lon="-4.7661420">
        <ele>714.5</ele>
        <time>2019-05-25T15:06:36Z</time>
      </trkpt>
      <trkpt lat="41.6286020" lon="-4.7661970">
        <ele>714.4</ele>
        <time>2019-05-25T15:06:38Z</time>
      </trkpt>
      <trkpt lat="41.6285870" lon="-4.7662390">
        <ele>714.2</ele>
        <time>2019-05-25T15:06:40Z</time>
      </trkpt>
      <trkpt lat="41.6285830" lon="-4.7662840">
        <ele>714.2</ele>
        <time>2019-05-25T15:06:42Z</time>
      </trkpt>
      <trkpt lat="41.6285910" lon="-4.7663390">
        <ele>714.1</ele>
        <time>2019-05-25T15:06:44Z</time>
      </trkpt>
      <trkpt lat="41.6285970" lon="-4.7663760">
        <ele>714.0</ele>
        <time>2019-05-25T15:06:45Z</time>
      </trkpt>
      <trkpt lat="41.6286040" lon="-4.7664270">
        <ele>713.9</ele>
        <time>2019-05-25T15:06:46Z</time>
      </trkpt>
      <trkpt lat="41.6286100" lon="-4.7664830">
        <ele>713.8</ele>
        <time>2019-05-25T15:06:47Z</time>
      </trkpt>
      <trkpt lat="41.6286120" lon="-4.7665400">
        <ele>713.7</ele>
        <time>2019-05-25T15:06:48Z</time>
      </trkpt>
      <trkpt lat="41.6286310" lon="-4.7665990">
        <ele>713.7</ele>
        <time>2019-05-25T15:06:49Z</time>
      </trkpt>
      <trkpt lat="41.6286600" lon="-4.7666630">
        <ele>713.5</ele>
        <time>2019-05-25T15:06:50Z</time>
      </trkpt>
      <trkpt lat="41.6286750" lon="-4.7667540">
        <ele>713.2</ele>
        <time>2019-05-25T15:06:51Z</time>
      </trkpt>
      <trkpt lat="41.6286900" lon="-4.7668340">
        <ele>712.9</ele>
        <time>2019-05-25T15:06:52Z</time>
      </trkpt>
      <trkpt lat="41.6287140" lon="-4.7669310">
        <ele>712.5</ele>
        <time>2019-05-25T15:06:53Z</time>
      </trkpt>
      <trkpt lat="41.6287430" lon="-4.7670120">
        <ele>712.1</ele>
        <time>2019-05-25T15:06:54Z</time>
      </trkpt>
      <trkpt lat="41.6287760" lon="-4.7670950">
        <ele>711.6</ele>
        <time>2019-05-25T15:06:55Z</time>
      </trkpt>
      <trkpt lat="41.6288110" lon="-4.7671740">
        <ele>711.0</ele>
        <time>2019-05-25T15:06:56Z</time>
      </trkpt>
      <trkpt lat="41.6288530" lon="-4.7672680">
        <ele>710.5</ele>
        <time>2019-05-25T15:06:57Z</time>
      </trkpt>
      <trkpt lat="41.6288920" lon="-4.7673330">
        <ele>710.2</ele>
        <time>2019-05-25T15:06:58Z</time>
      </trkpt>
      <trkpt lat="41.6289380" lon="-4.7673970">
        <ele>709.8</ele>
        <time>2019-05-25T15:06:59Z</time>
      </trkpt>
      <trkpt lat="41.6289420" lon="-4.7674560">
        <ele>709.7</ele>
        <time>2019-05-25T15:07:00Z</time>
      </trkpt>
      <trkpt lat="41.6289220" lon="-4.7675320">
        <ele>709.3</ele>
        <time>2019-05-25T15:07:01Z</time>
      </trkpt>
      <trkpt lat="41.6289060" lon="-4.7675940">
        <ele>709.2</ele>
        <time>2019-05-25T15:07:02Z</time>
      </trkpt>
      <trkpt lat="41.6288860" lon="-4.7676570">
        <ele>708.9</ele>
        <time>2019-05-25T15:07:03Z</time>
      </trkpt>
      <trkpt lat="41.6288610" lon="-4.7676940">
        <ele>708.8</ele>
        <time>2019-05-25T15:07:04Z</time>
      </trkpt>
      <trkpt lat="41.6288380" lon="-4.7677400">
        <ele>708.8</ele>
        <time>2019-05-25T15:07:05Z</time>
      </trkpt>
      <trkpt lat="41.6287960" lon="-4.7677920">
        <ele>708.7</ele>
        <time>2019-05-25T15:07:06Z</time>
      </trkpt>
      <trkpt lat="41.6287300" lon="-4.7678650">
        <ele>708.6</ele>
        <time>2019-05-25T15:07:07Z</time>
      </trkpt>
      <trkpt lat="41.6286730" lon="-4.7679150">
        <ele>708.6</ele>
        <time>2019-05-25T15:07:08Z</time>
      </trkpt>
      <trkpt lat="41.6286300" lon="-4.7679770">
        <ele>708.4</ele>
        <time>2019-05-25T15:07:09Z</time>
      </trkpt>
      <trkpt lat="41.6285940" lon="-4.7680600">
        <ele>708.0</ele>
        <time>2019-05-25T15:07:10Z</time>
      </trkpt>
      <trkpt lat="41.6285780" lon="-4.7681240">
        <ele>707.1</ele>
        <time>2019-05-25T15:07:11Z</time>
      </trkpt>
      <trkpt lat="41.6285600" lon="-4.7681890">
        <ele>706.8</ele>
        <time>2019-05-25T15:07:12Z</time>
      </trkpt>
      <trkpt lat="41.6285630" lon="-4.7682570">
        <ele>706.0</ele>
        <time>2019-05-25T15:07:13Z</time>
      </trkpt>
      <trkpt lat="41.6285460" lon="-4.7683150">
        <ele>705.6</ele>
        <time>2019-05-25T15:07:14Z</time>
      </trkpt>
      <trkpt lat="41.6285140" lon="-4.7683630">
        <ele>705.2</ele>
        <time>2019-05-25T15:07:15Z</time>
      </trkpt>
      <trkpt lat="41.6284900" lon="-4.7684200">
        <ele>704.5</ele>
        <time>2019-05-25T15:07:17Z</time>
      </trkpt>
      <trkpt lat="41.6284820" lon="-4.7684610">
        <ele>704.1</ele>
        <time>2019-05-25T15:07:18Z</time>
      </trkpt>
      <trkpt lat="41.6284660" lon="-4.7684950">
        <ele>704.2</ele>
        <time>2019-05-25T15:07:19Z</time>
      </trkpt>
      <trkpt lat="41.6284650" lon="-4.7685370">
        <ele>703.8</ele>
        <time>2019-05-25T15:07:20Z</time>
      </trkpt>
      <trkpt lat="41.6284590" lon="-4.7685970">
        <ele>703.1</ele>
        <time>2019-05-25T15:07:21Z</time>
      </trkpt>
      <trkpt lat="41.6284560" lon="-4.7686590">
        <ele>702.8</ele>
        <time>2019-05-25T15:07:22Z</time>
      </trkpt>
      <trkpt lat="41.6284350" lon="-4.7687280">
        <ele>702.4</ele>
        <time>2019-05-25T15:07:23Z</time>
      </trkpt>
      <trkpt lat="41.6284390" lon="-4.7687830">
        <ele>702.1</ele>
        <time>2019-05-25T15:07:24Z</time>
      </trkpt>
      <trkpt lat="41.6284130" lon="-4.7688540">
        <ele>701.8</ele>
        <time>2019-05-25T15:07:25Z</time>
      </trkpt>
      <trkpt lat="41.6284190" lon="-4.7689040">
        <ele>701.7</ele>
        <time>2019-05-25T15:07:26Z</time>
      </trkpt>
      <trkpt lat="41.6284230" lon="-4.7689490">
        <ele>701.5</ele>
        <time>2019-05-25T15:07:27Z</time>
      </trkpt>
      <trkpt lat="41.6284430" lon="-4.7689860">
        <ele>701.3</ele>
        <time>2019-05-25T15:07:28Z</time>
      </trkpt>
      <trkpt lat="41.6284480" lon="-4.7690320">
        <ele>701.3</ele>
        <time>2019-05-25T15:07:29Z</time>
      </trkpt>
      <trkpt lat="41.6284400" lon="-4.7690710">
        <ele>701.2</ele>
        <time>2019-05-25T15:07:30Z</time>
      </trkpt>
      <trkpt lat="41.6284580" lon="-4.7691240">
        <ele>701.2</ele>
        <time>2019-05-25T15:07:31Z</time>
      </trkpt>
      <trkpt lat="41.6284600" lon="-4.7692010">
        <ele>701.3</ele>
        <time>2019-05-25T15:07:32Z</time>
      </trkpt>
      <trkpt lat="41.6284780" lon="-4.7692650">
        <ele>701.3</ele>
        <time>2019-05-25T15:07:33Z</time>
      </trkpt>
      <trkpt lat="41.6285000" lon="-4.7693130">
        <ele>701.3</ele>
        <time>2019-05-25T15:07:34Z</time>
      </trkpt>
      <trkpt lat="41.6285030" lon="-4.7693730">
        <ele>701.3</ele>
        <time>2019-05-25T15:07:35Z</time>
      </trkpt>
      <trkpt lat="41.6285240" lon="-4.7694240">
        <ele>701.3</ele>
        <time>2019-05-25T15:07:36Z</time>
      </trkpt>
      <trkpt lat="41.6285730" lon="-4.7695080">
        <ele>701.2</ele>
        <time>2019-05-25T15:07:38Z</time>
      </trkpt>
      <trkpt lat="41.6285920" lon="-4.7695600">
        <ele>701.2</ele>
        <time>2019-05-25T15:07:39Z</time>
      </trkpt>
      <trkpt lat="41.6286040" lon="-4.7696260">
        <ele>701.1</ele>
        <time>2019-05-25T15:07:40Z</time>
      </trkpt>
      <trkpt lat="41.6285830" lon="-4.7696790">
        <ele>701.0</ele>
        <time>2019-05-25T15:07:42Z</time>
      </trkpt>
      <trkpt lat="41.6285610" lon="-4.7698040">
        <ele>700.8</ele>
        <time>2019-05-25T15:07:44Z</time>
      </trkpt>
      <trkpt lat="41.6285830" lon="-4.7699100">
        <ele>700.7</ele>
        <time>2019-05-25T15:07:45Z</time>
      </trkpt>
      <trkpt lat="41.6285650" lon="-4.7699560">
        <ele>700.7</ele>
        <time>2019-05-25T15:07:46Z</time>
      </trkpt>
      <trkpt lat="41.6285370" lon="-4.7700180">
        <ele>700.7</ele>
        <time>2019-05-25T15:07:47Z</time>
      </trkpt>
      <trkpt lat="41.6285150" lon="-4.7700680">
        <ele>700.7</ele>
        <time>2019-05-25T15:07:48Z</time>
      </trkpt>
      <trkpt lat="41.6285270" lon="-4.7701290">
        <ele>700.8</ele>
        <time>2019-05-25T15:07:50Z</time>
      </trkpt>
      <trkpt lat="41.6285560" lon="-4.7701910">
        <ele>700.8</ele>
        <time>2019-05-25T15:07:52Z</time>
      </trkpt>
      <trkpt lat="41.6285830" lon="-4.7702300">
        <ele>700.9</ele>
        <time>2019-05-25T15:07:53Z</time>
      </trkpt>
      <trkpt lat="41.6286150" lon="-4.7702740">
        <ele>701.0</ele>
        <time>2019-05-25T15:07:54Z</time>
      </trkpt>
      <trkpt lat="41.6286460" lon="-4.7703110">
        <ele>701.1</ele>
        <time>2019-05-25T15:07:55Z</time>
      </trkpt>
      <trkpt lat="41.6286820" lon="-4.7703460">
        <ele>701.2</ele>
        <time>2019-05-25T15:07:56Z</time>
      </trkpt>
      <trkpt lat="41.6287210" lon="-4.7703820">
        <ele>701.2</ele>
        <time>2019-05-25T15:07:57Z</time>
      </trkpt>
      <trkpt lat="41.6287560" lon="-4.7704240">
        <ele>701.4</ele>
        <time>2019-05-25T15:07:58Z</time>
      </trkpt>
      <trkpt lat="41.6287740" lon="-4.7704660">
        <ele>701.5</ele>
        <time>2019-05-25T15:07:59Z</time>
      </trkpt>
      <trkpt lat="41.6287720" lon="-4.7705130">
        <ele>701.6</ele>
        <time>2019-05-25T15:08:00Z</time>
      </trkpt>
      <trkpt lat="41.6287510" lon="-4.7705550">
        <ele>701.6</ele>
        <time>2019-05-25T15:08:01Z</time>
      </trkpt>
      <trkpt lat="41.6287190" lon="-4.7705870">
        <ele>701.6</ele>
        <time>2019-05-25T15:08:02Z</time>
      </trkpt>
      <trkpt lat="41.6286820" lon="-4.7706100">
        <ele>701.6</ele>
        <time>2019-05-25T15:08:03Z</time>
      </trkpt>
      <trkpt lat="41.6286490" lon="-4.7706360">
        <ele>701.5</ele>
        <time>2019-05-25T15:08:04Z</time>
      </trkpt>
      <trkpt lat="41.6286190" lon="-4.7706660">
        <ele>701.7</ele>
        <time>2019-05-25T15:08:05Z</time>
      </trkpt>
      <trkpt lat="41.6285980" lon="-4.7707010">
        <ele>701.8</ele>
        <time>2019-05-25T15:08:06Z</time>
      </trkpt>
      <trkpt lat="41.6285820" lon="-4.7707390">
        <ele>702.0</ele>
        <time>2019-05-25T15:08:07Z</time>
      </trkpt>
      <trkpt lat="41.6285730" lon="-4.7707880">
        <ele>702.2</ele>
        <time>2019-05-25T15:08:08Z</time>
      </trkpt>
      <trkpt lat="41.6285590" lon="-4.7708420">
        <ele>702.4</ele>
        <time>2019-05-25T15:08:09Z</time>
      </trkpt>
      <trkpt lat="41.6285500" lon="-4.7708930">
        <ele>702.5</ele>
        <time>2019-05-25T15:08:10Z</time>
      </trkpt>
      <trkpt lat="41.6285480" lon="-4.7709460">
        <ele>702.8</ele>
        <time>2019-05-25T15:08:11Z</time>
      </trkpt>
      <trkpt lat="41.6285540" lon="-4.7710010">
        <ele>703.0</ele>
        <time>2019-05-25T15:08:12Z</time>
      </trkpt>
      <trkpt lat="41.6285570" lon="-4.7710500">
        <ele>703.2</ele>
        <time>2019-05-25T15:08:13Z</time>
      </trkpt>
      <trkpt lat="41.6285590" lon="-4.7710980">
        <ele>703.4</ele>
        <time>2019-05-25T15:08:14Z</time>
      </trkpt>
      <trkpt lat="41.6285650" lon="-4.7711430">
        <ele>703.5</ele>
        <time>2019-05-25T15:08:15Z</time>
      </trkpt>
      <trkpt lat="41.6285690" lon="-4.7711880">
        <ele>703.7</ele>
        <time>2019-05-25T15:08:16Z</time>
      </trkpt>
      <trkpt lat="41.6285650" lon="-4.7712420">
        <ele>703.9</ele>
        <time>2019-05-25T15:08:17Z</time>
      </trkpt>
      <trkpt lat="41.6285620" lon="-4.7712980">
        <ele>704.1</ele>
        <time>2019-05-25T15:08:18Z</time>
      </trkpt>
      <trkpt lat="41.6285550" lon="-4.7713540">
        <ele>704.3</ele>
        <time>2019-05-25T15:08:19Z</time>
      </trkpt>
      <trkpt lat="41.6285470" lon="-4.7714190">
        <ele>704.6</ele>
        <time>2019-05-25T15:08:20Z</time>
      </trkpt>
      <trkpt lat="41.6285360" lon="-4.7714940">
        <ele>704.9</ele>
        <time>2019-05-25T15:08:21Z</time>
      </trkpt>
      <trkpt lat="41.6285300" lon="-4.7715710">
        <ele>705.1</ele>
        <time>2019-05-25T15:08:22Z</time>
      </trkpt>
      <trkpt lat="41.6285300" lon="-4.7716360">
        <ele>705.3</ele>
        <time>2019-05-25T15:08:23Z</time>
      </trkpt>
      <trkpt lat="41.6285290" lon="-4.7716980">
        <ele>705.5</ele>
        <time>2019-05-25T15:08:24Z</time>
      </trkpt>
      <trkpt lat="41.6285250" lon="-4.7717540">
        <ele>705.7</ele>
        <time>2019-05-25T15:08:25Z</time>
      </trkpt>
      <trkpt lat="41.6285230" lon="-4.7718120">
        <ele>705.9</ele>
        <time>2019-05-25T15:08:26Z</time>
      </trkpt>
      <trkpt lat="41.6285200" lon="-4.7718740">
        <ele>706.0</ele>
        <time>2019-05-25T15:08:27Z</time>
      </trkpt>
      <trkpt lat="41.6285190" lon="-4.7719310">
        <ele>706.2</ele>
        <time>2019-05-25T15:08:28Z</time>
      </trkpt>
      <trkpt lat="41.6285190" lon="-4.7719830">
        <ele>706.2</ele>
        <time>2019-05-25T15:08:29Z</time>
      </trkpt>
      <trkpt lat="41.6285200" lon="-4.7720350">
        <ele>706.2</ele>
        <time>2019-05-25T15:08:30Z</time>
      </trkpt>
      <trkpt lat="41.6285180" lon="-4.7720870">
        <ele>706.2</ele>
        <time>2019-05-25T15:08:31Z</time>
      </trkpt>
      <trkpt lat="41.6285110" lon="-4.7721420">
        <ele>706.5</ele>
        <time>2019-05-25T15:08:32Z</time>
      </trkpt>
      <trkpt lat="41.6285040" lon="-4.7721980">
        <ele>706.7</ele>
        <time>2019-05-25T15:08:33Z</time>
      </trkpt>
      <trkpt lat="41.6284910" lon="-4.7722500">
        <ele>706.8</ele>
        <time>2019-05-25T15:08:34Z</time>
      </trkpt>
      <trkpt lat="41.6284790" lon="-4.7723070">
        <ele>707.0</ele>
        <time>2019-05-25T15:08:35Z</time>
      </trkpt>
      <trkpt lat="41.6284670" lon="-4.7723620">
        <ele>707.1</ele>
        <time>2019-05-25T15:08:36Z</time>
      </trkpt>
      <trkpt lat="41.6284570" lon="-4.7724170">
        <ele>707.2</ele>
        <time>2019-05-25T15:08:37Z</time>
      </trkpt>
      <trkpt lat="41.6284500" lon="-4.7724770">
        <ele>707.4</ele>
        <time>2019-05-25T15:08:38Z</time>
      </trkpt>
      <trkpt lat="41.6284430" lon="-4.7725390">
        <ele>707.5</ele>
        <time>2019-05-25T15:08:39Z</time>
      </trkpt>
      <trkpt lat="41.6284350" lon="-4.7726000">
        <ele>707.7</ele>
        <time>2019-05-25T15:08:40Z</time>
      </trkpt>
      <trkpt lat="41.6284340" lon="-4.7726580">
        <ele>707.8</ele>
        <time>2019-05-25T15:08:41Z</time>
      </trkpt>
      <trkpt lat="41.6284310" lon="-4.7727170">
        <ele>708.0</ele>
        <time>2019-05-25T15:08:42Z</time>
      </trkpt>
      <trkpt lat="41.6284260" lon="-4.7727770">
        <ele>708.1</ele>
        <time>2019-05-25T15:08:43Z</time>
      </trkpt>
      <trkpt lat="41.6284180" lon="-4.7728410">
        <ele>708.3</ele>
        <time>2019-05-25T15:08:44Z</time>
      </trkpt>
      <trkpt lat="41.6284120" lon="-4.7729080">
        <ele>708.5</ele>
        <time>2019-05-25T15:08:45Z</time>
      </trkpt>
      <trkpt lat="41.6284050" lon="-4.7729780">
        <ele>708.8</ele>
        <time>2019-05-25T15:08:46Z</time>
      </trkpt>
      <trkpt lat="41.6283960" lon="-4.7730480">
        <ele>709.0</ele>
        <time>2019-05-25T15:08:47Z</time>
      </trkpt>
      <trkpt lat="41.6283820" lon="-4.7731210">
        <ele>709.3</ele>
        <time>2019-05-25T15:08:48Z</time>
      </trkpt>
      <trkpt lat="41.6283700" lon="-4.7731830">
        <ele>709.5</ele>
        <time>2019-05-25T15:08:49Z</time>
      </trkpt>
      <trkpt lat="41.6283620" lon="-4.7732370">
        <ele>709.6</ele>
        <time>2019-05-25T15:08:50Z</time>
      </trkpt>
      <trkpt lat="41.6283540" lon="-4.7732950">
        <ele>709.7</ele>
        <time>2019-05-25T15:08:51Z</time>
      </trkpt>
      <trkpt lat="41.6283450" lon="-4.7733470">
        <ele>709.7</ele>
        <time>2019-05-25T15:08:52Z</time>
      </trkpt>
      <trkpt lat="41.6283390" lon="-4.7734040">
        <ele>709.7</ele>
        <time>2019-05-25T15:08:53Z</time>
      </trkpt>
      <trkpt lat="41.6283360" lon="-4.7734610">
        <ele>709.7</ele>
        <time>2019-05-25T15:08:54Z</time>
      </trkpt>
      <trkpt lat="41.6283290" lon="-4.7735190">
        <ele>709.8</ele>
        <time>2019-05-25T15:08:55Z</time>
      </trkpt>
      <trkpt lat="41.6283190" lon="-4.7735590">
        <ele>709.8</ele>
        <time>2019-05-25T15:08:56Z</time>
      </trkpt>
      <trkpt lat="41.6283190" lon="-4.7736140">
        <ele>709.8</ele>
        <time>2019-05-25T15:08:57Z</time>
      </trkpt>
      <trkpt lat="41.6283260" lon="-4.7736650">
        <ele>709.8</ele>
        <time>2019-05-25T15:08:58Z</time>
      </trkpt>
      <trkpt lat="41.6283310" lon="-4.7737190">
        <ele>709.8</ele>
        <time>2019-05-25T15:08:59Z</time>
      </trkpt>
      <trkpt lat="41.6283320" lon="-4.7737710">
        <ele>709.8</ele>
        <time>2019-05-25T15:09:00Z</time>
      </trkpt>
      <trkpt lat="41.6283270" lon="-4.7738220">
        <ele>709.7</ele>
        <time>2019-05-25T15:09:01Z</time>
      </trkpt>
      <trkpt lat="41.6283250" lon="-4.7738700">
        <ele>709.7</ele>
        <time>2019-05-25T15:09:02Z</time>
      </trkpt>
      <trkpt lat="41.6283180" lon="-4.7739190">
        <ele>709.7</ele>
        <time>2019-05-25T15:09:03Z</time>
      </trkpt>
      <trkpt lat="41.6283110" lon="-4.7739630">
        <ele>709.7</ele>
        <time>2019-05-25T15:09:04Z</time>
      </trkpt>
      <trkpt lat="41.6283130" lon="-4.7740100">
        <ele>709.8</ele>
        <time>2019-05-25T15:09:05Z</time>
      </trkpt>
      <trkpt lat="41.6283210" lon="-4.7740650">
        <ele>709.8</ele>
        <time>2019-05-25T15:09:06Z</time>
      </trkpt>
      <trkpt lat="41.6283260" lon="-4.7741290">
        <ele>709.8</ele>
        <time>2019-05-25T15:09:07Z</time>
      </trkpt>
      <trkpt lat="41.6283210" lon="-4.7741940">
        <ele>709.8</ele>
        <time>2019-05-25T15:09:08Z</time>
      </trkpt>
      <trkpt lat="41.6283150" lon="-4.7742630">
        <ele>709.8</ele>
        <time>2019-05-25T15:09:09Z</time>
      </trkpt>
      <trkpt lat="41.6283100" lon="-4.7743220">
        <ele>709.8</ele>
        <time>2019-05-25T15:09:10Z</time>
      </trkpt>
      <trkpt lat="41.6282990" lon="-4.7743830">
        <ele>709.8</ele>
        <time>2019-05-25T15:09:11Z</time>
      </trkpt>
      <trkpt lat="41.6282870" lon="-4.7744450">
        <ele>709.8</ele>
        <time>2019-05-25T15:09:12Z</time>
      </trkpt>
      <trkpt lat="41.6282720" lon="-4.7745060">
        <ele>709.8</ele>
        <time>2019-05-25T15:09:13Z</time>
      </trkpt>
      <trkpt lat="41.6282640" lon="-4.7745680">
        <ele>709.8</ele>
        <time>2019-05-25T15:09:14Z</time>
      </trkpt>
      <trkpt lat="41.6282570" lon="-4.7746250">
        <ele>709.9</ele>
        <time>2019-05-25T15:09:15Z</time>
      </trkpt>
      <trkpt lat="41.6282550" lon="-4.7746810">
        <ele>709.9</ele>
        <time>2019-05-25T15:09:16Z</time>
      </trkpt>
      <trkpt lat="41.6282510" lon="-4.7747420">
        <ele>709.9</ele>
        <time>2019-05-25T15:09:17Z</time>
      </trkpt>
      <trkpt lat="41.6282500" lon="-4.7748020">
        <ele>709.9</ele>
        <time>2019-05-25T15:09:18Z</time>
      </trkpt>
      <trkpt lat="41.6282510" lon="-4.7748510">
        <ele>709.9</ele>
        <time>2019-05-25T15:09:19Z</time>
      </trkpt>
      <trkpt lat="41.6282480" lon="-4.7748930">
        <ele>710.0</ele>
        <time>2019-05-25T15:09:20Z</time>
      </trkpt>
      <trkpt lat="41.6282430" lon="-4.7749300">
        <ele>710.1</ele>
        <time>2019-05-25T15:09:21Z</time>
      </trkpt>
      <trkpt lat="41.6282190" lon="-4.7749680">
        <ele>710.2</ele>
        <time>2019-05-25T15:09:22Z</time>
      </trkpt>
      <trkpt lat="41.6282140" lon="-4.7750190">
        <ele>710.3</ele>
        <time>2019-05-25T15:09:24Z</time>
      </trkpt>
      <trkpt lat="41.6282100" lon="-4.7750850">
        <ele>710.4</ele>
        <time>2019-05-25T15:09:26Z</time>
      </trkpt>
      <trkpt lat="41.6281980" lon="-4.7751480">
        <ele>710.6</ele>
        <time>2019-05-25T15:09:28Z</time>
      </trkpt>
      <trkpt lat="41.6281880" lon="-4.7751970">
        <ele>710.7</ele>
        <time>2019-05-25T15:09:30Z</time>
      </trkpt>
      <trkpt lat="41.6281800" lon="-4.7752510">
        <ele>710.8</ele>
        <time>2019-05-25T15:09:32Z</time>
      </trkpt>
      <trkpt lat="41.6281720" lon="-4.7752900">
        <ele>710.9</ele>
        <time>2019-05-25T15:09:33Z</time>
      </trkpt>
      <trkpt lat="41.6281640" lon="-4.7753310">
        <ele>711.0</ele>
        <time>2019-05-25T15:09:34Z</time>
      </trkpt>
      <trkpt lat="41.6281620" lon="-4.7753780">
        <ele>711.1</ele>
        <time>2019-05-25T15:09:36Z</time>
      </trkpt>
      <trkpt lat="41.6281650" lon="-4.7754150">
        <ele>711.2</ele>
        <time>2019-05-25T15:09:37Z</time>
      </trkpt>
      <trkpt lat="41.6281580" lon="-4.7754540">
        <ele>711.3</ele>
        <time>2019-05-25T15:09:38Z</time>
      </trkpt>
      <trkpt lat="41.6281550" lon="-4.7754930">
        <ele>711.4</ele>
        <time>2019-05-25T15:09:39Z</time>
      </trkpt>
      <trkpt lat="41.6281540" lon="-4.7755320">
        <ele>711.5</ele>
        <time>2019-05-25T15:09:40Z</time>
      </trkpt>
      <trkpt lat="41.6281580" lon="-4.7755890">
        <ele>711.5</ele>
        <time>2019-05-25T15:09:41Z</time>
      </trkpt>
      <trkpt lat="41.6281730" lon="-4.7756350">
        <ele>711.5</ele>
        <time>2019-05-25T15:09:42Z</time>
      </trkpt>
      <trkpt lat="41.6281850" lon="-4.7756790">
        <ele>711.6</ele>
        <time>2019-05-25T15:09:43Z</time>
      </trkpt>
      <trkpt lat="41.6281850" lon="-4.7757200">
        <ele>711.7</ele>
        <time>2019-05-25T15:09:44Z</time>
      </trkpt>
      <trkpt lat="41.6281790" lon="-4.7757660">
        <ele>711.8</ele>
        <time>2019-05-25T15:09:45Z</time>
      </trkpt>
      <trkpt lat="41.6281730" lon="-4.7758110">
        <ele>711.8</ele>
        <time>2019-05-25T15:09:46Z</time>
      </trkpt>
      <trkpt lat="41.6281750" lon="-4.7758840">
        <ele>711.9</ele>
        <time>2019-05-25T15:09:48Z</time>
      </trkpt>
      <trkpt lat="41.6281700" lon="-4.7759400">
        <ele>712.0</ele>
        <time>2019-05-25T15:09:50Z</time>
      </trkpt>
      <trkpt lat="41.6281490" lon="-4.7760030">
        <ele>712.1</ele>
        <time>2019-05-25T15:09:52Z</time>
      </trkpt>
      <trkpt lat="41.6281450" lon="-4.7760420">
        <ele>712.2</ele>
        <time>2019-05-25T15:09:53Z</time>
      </trkpt>
      <trkpt lat="41.6281370" lon="-4.7760830">
        <ele>712.2</ele>
        <time>2019-05-25T15:09:54Z</time>
      </trkpt>
      <trkpt lat="41.6281290" lon="-4.7761300">
        <ele>712.3</ele>
        <time>2019-05-25T15:09:55Z</time>
      </trkpt>
      <trkpt lat="41.6281290" lon="-4.7761740">
        <ele>712.3</ele>
        <time>2019-05-25T15:09:56Z</time>
      </trkpt>
      <trkpt lat="41.6281310" lon="-4.7762200">
        <ele>712.3</ele>
        <time>2019-05-25T15:09:57Z</time>
      </trkpt>
      <trkpt lat="41.6281290" lon="-4.7762880">
        <ele>712.3</ele>
        <time>2019-05-25T15:09:59Z</time>
      </trkpt>
      <trkpt lat="41.6281260" lon="-4.7763240">
        <ele>712.3</ele>
        <time>2019-05-25T15:10:00Z</time>
      </trkpt>
      <trkpt lat="41.6281290" lon="-4.7763860">
        <ele>712.2</ele>
        <time>2019-05-25T15:10:02Z</time>
      </trkpt>
      <trkpt lat="41.6281350" lon="-4.7764530">
        <ele>712.1</ele>
        <time>2019-05-25T15:10:04Z</time>
      </trkpt>
      <trkpt lat="41.6281530" lon="-4.7765090">
        <ele>712.0</ele>
        <time>2019-05-25T15:10:06Z</time>
      </trkpt>
      <trkpt lat="41.6281540" lon="-4.7765760">
        <ele>711.9</ele>
        <time>2019-05-25T15:10:08Z</time>
      </trkpt>
      <trkpt lat="41.6281450" lon="-4.7766210">
        <ele>711.9</ele>
        <time>2019-05-25T15:10:09Z</time>
      </trkpt>
      <trkpt lat="41.6281330" lon="-4.7766710">
        <ele>711.9</ele>
        <time>2019-05-25T15:10:10Z</time>
      </trkpt>
      <trkpt lat="41.6281260" lon="-4.7767150">
        <ele>711.9</ele>
        <time>2019-05-25T15:10:11Z</time>
      </trkpt>
      <trkpt lat="41.6281190" lon="-4.7767670">
        <ele>711.9</ele>
        <time>2019-05-25T15:10:13Z</time>
      </trkpt>
      <trkpt lat="41.6281150" lon="-4.7768280">
        <ele>712.0</ele>
        <time>2019-05-25T15:10:14Z</time>
      </trkpt>
      <trkpt lat="41.6281130" lon="-4.7768850">
        <ele>712.0</ele>
        <time>2019-05-25T15:10:15Z</time>
      </trkpt>
      <trkpt lat="41.6281110" lon="-4.7769250">
        <ele>712.0</ele>
        <time>2019-05-25T15:10:16Z</time>
      </trkpt>
      <trkpt lat="41.6281090" lon="-4.7769660">
        <ele>712.0</ele>
        <time>2019-05-25T15:10:17Z</time>
      </trkpt>
      <trkpt lat="41.6281060" lon="-4.7770070">
        <ele>712.1</ele>
        <time>2019-05-25T15:10:18Z</time>
      </trkpt>
      <trkpt lat="41.6281060" lon="-4.7770440">
        <ele>712.1</ele>
        <time>2019-05-25T15:10:20Z</time>
      </trkpt>
      <trkpt lat="41.6281160" lon="-4.7770870">
        <ele>712.2</ele>
        <time>2019-05-25T15:10:21Z</time>
      </trkpt>
      <trkpt lat="41.6281300" lon="-4.7771200">
        <ele>712.3</ele>
        <time>2019-05-25T15:10:22Z</time>
      </trkpt>
      <trkpt lat="41.6281610" lon="-4.7771640">
        <ele>712.5</ele>
        <time>2019-05-25T15:10:24Z</time>
      </trkpt>
    </trkseg>
  </trk>
</gpx>
